//0
//<Encoding>UTF-8</Encoding>
//File updated on 11/18/2025 11:54
//WMO ID: 4902643
//MBARI ID: ODV4902643
//Data source: 4902643_Sprof.nc
//DAC: meds
//Float type: ARVOR_D
//
//PLEASE READ:
//Data for this file has been extracted from the Synthetic profiles (*SProf.nc)
//Only RAW data parameters were used
//Missing Float profile(s) for station(s): 1 12 34 42 45 
//
//Missing data value = -1e10
//Argo to ODV QF conversion: Argo 0|99 => ODV 1, Argo 1|2|8 => ODV 0, Argo 3|5 => ODV 4, Argo 4 => ODV 8
//Data quality flags: 0=Good, 4=Questionable, 8=Bad, 1=Missing or not inspected 
Cruise	Station	Type	mon/day/yr	hh:mm	Lon [°E]	Lat [°N]	QF	Pressure[dbar]	QF	Temperature[°C]	QF	Salinity[pss]	QF	Sigma_theta[kg/m^3]	QF	Depth[m]	QF	Oxygen[µmol/kg]	QF	OxygenSat[%]	QF	Nitrate[µmol/kg]	QF	Chl_a[mg/m^3]	QF	b_bp700[1/m]	QF	CDOM[ppb]	QF	pHinsitu[Total]	QF	CP660[1/m]	QF
4902643	2	C	07/11/2024	09:13	-134.100	43.750	0	2.40	0	16.8110	0	32.6040	0	23.721	0	2.381	0	-1e10	1	-1e10	1	-1E+10	1	-1E+10	1	-1E+10	1	-1E+10	1	-1E+10	1	-1E+10	1
4902643	2	C	07/11/2024	09:13	-134.100	43.750	0	2.70	0	16.8250	0	32.4730	0	23.617	0	2.678	0	237.0	4	97.4	4	-1E+10	1	-1E+10	1	-1E+10	1	-1E+10	1	-1E+10	1	-1E+10	1
4902643	2	C	07/11/2024	09:13	-134.100	43.750	0	2.80	0	16.8218	0	32.4757	0	23.620	0	2.778	0	-1e10	1	-1e10	1	-1E+10	1	-1E+10	1	-1E+10	1	-1E+10	1	-1E+10	1	-1E+10	1
4902643	2	C	07/11/2024	09:13	-134.100	43.750	0	2.90	0	16.8186	0	32.4783	0	23.623	0	2.877	0	-1e10	1	-1e10	1	-1E+10	1	-1E+10	1	-1E+10	1	-1E+10	1	-1E+10	1	-1E+10	1
4902643	2	C	07/11/2024	09:13	-134.100	43.750	0	3.60	0	16.7960	0	32.4970	0	23.643	0	3.571	0	236.8	4	97.3	4	-1E+10	1	-1E+10	1	-1E+10	1	-1E+10	1	-1E+10	1	-1E+10	1
4902643	2	C	07/11/2024	09:13	-134.100	43.750	0	4.50	0	16.7950	0	32.5940	0	23.717	0	4.464	0	237.3	4	97.6	4	-1E+10	1	-1E+10	1	-1E+10	1	-1E+10	1	-1E+10	1	-1E+10	1
4902643	2	C	07/11/2024	09:13	-134.100	43.750	0	5.50	0	16.3370	0	32.6130	0	23.837	0	5.456	0	238.4	4	97.1	4	-1E+10	1	-1E+10	1	-1E+10	1	-1E+10	1	-1E+10	1	-1E+10	1
4902643	2	C	07/11/2024	09:13	-134.100	43.750	0	6.60	0	15.8560	0	32.6180	0	23.949	0	6.547	0	240.9	4	97.3	4	-1E+10	1	-1E+10	1	-1E+10	1	-1E+10	1	-1E+10	1	-1E+10	1
4902643	2	C	07/11/2024	09:13	-134.100	43.750	0	7.60	0	15.7880	0	32.5970	0	23.948	0	7.539	0	241.7	4	97.4	4	-1E+10	1	-1E+10	1	-1E+10	1	-1E+10	1	-1E+10	1	-1E+10	1
4902643	2	C	07/11/2024	09:13	-134.100	43.750	0	8.60	0	15.7580	0	32.5950	0	23.954	0	8.531	0	241.9	4	97.5	4	-1E+10	1	-1E+10	1	-1E+10	1	-1E+10	1	-1E+10	1	-1E+10	1
4902643	2	C	07/11/2024	09:13	-134.100	43.750	0	9.90	0	15.5900	0	32.6030	0	23.997	0	9.821	0	242.4	4	97.3	4	-1E+10	1	-1E+10	1	-1E+10	1	-1E+10	1	-1E+10	1	-1E+10	1
4902643	2	C	07/11/2024	09:13	-134.100	43.750	0	15.20	0	14.7160	0	32.5890	0	24.176	0	15.078	0	247.1	4	97.5	4	-1E+10	1	-1E+10	1	-1E+10	1	-1E+10	1	-1E+10	1	-1E+10	1
4902643	2	C	07/11/2024	09:13	-134.100	43.750	0	24.70	0	13.5680	0	32.5820	0	24.409	0	24.501	0	255.9	4	98.7	4	-1E+10	1	-1E+10	1	-1E+10	1	-1E+10	1	-1E+10	1	-1E+10	1
4902643	2	C	07/11/2024	09:13	-134.100	43.750	0	35.50	0	12.2130	0	32.6260	0	24.707	0	35.213	0	263.3	4	98.8	4	-1E+10	1	-1E+10	1	-1E+10	1	-1E+10	1	-1E+10	1	-1E+10	1
4902643	2	C	07/11/2024	09:13	-134.100	43.750	0	44.90	0	11.3190	0	32.6450	0	24.887	0	44.536	0	261.8	4	96.4	4	-1E+10	1	-1E+10	1	-1E+10	1	-1E+10	1	-1E+10	1	-1E+10	1
4902643	2	C	07/11/2024	09:13	-134.100	43.750	0	55.00	0	10.5780	0	32.6590	0	25.028	0	54.553	0	258.2	4	93.6	4	-1E+10	1	-1E+10	1	-1E+10	1	-1E+10	1	-1E+10	1	-1E+10	1
4902643	2	C	07/11/2024	09:13	-134.100	43.750	0	65.00	0	10.2300	0	32.6550	0	25.084	0	64.470	0	256.6	4	92.3	4	-1E+10	1	-1E+10	1	-1E+10	1	-1E+10	1	-1E+10	1	-1E+10	1
4902643	2	C	07/11/2024	09:13	-134.100	43.750	0	74.80	0	9.9160	0	32.6250	0	25.114	0	74.188	0	254.9	4	91.1	4	-1E+10	1	-1E+10	1	-1E+10	1	-1E+10	1	-1E+10	1	-1E+10	1
4902643	2	C	07/11/2024	09:13	-134.100	43.750	0	84.80	0	9.7020	0	32.6310	0	25.154	0	84.104	0	253.1	4	90.0	4	-1E+10	1	-1E+10	1	-1E+10	1	-1E+10	1	-1E+10	1	-1E+10	1
4902643	2	C	07/11/2024	09:13	-134.100	43.750	0	94.80	0	9.7140	0	32.6960	0	25.203	0	94.020	0	247.3	4	88.0	4	-1E+10	1	-1E+10	1	-1E+10	1	-1E+10	1	-1E+10	1	-1E+10	1
4902643	2	C	07/11/2024	09:13	-134.100	43.750	0	104.90	0	9.5480	0	32.7490	0	25.271	0	104.034	0	240.4	4	85.3	4	-1E+10	1	-1E+10	1	-1E+10	1	-1E+10	1	-1E+10	1	-1E+10	1
4902643	2	C	07/11/2024	09:13	-134.100	43.750	0	115.50	0	9.2840	0	32.8930	0	25.426	0	114.544	0	226.5	4	80.0	4	-1E+10	1	-1E+10	1	-1E+10	1	-1E+10	1	-1E+10	1	-1E+10	1
4902643	2	C	07/11/2024	09:13	-134.100	43.750	0	124.90	0	9.0190	0	33.1080	0	25.636	0	123.863	0	217.9	4	76.6	4	-1E+10	1	-1E+10	1	-1E+10	1	-1E+10	1	-1E+10	1	-1E+10	1
4902643	2	C	07/11/2024	09:13	-134.100	43.750	0	134.70	0	8.6430	0	33.2630	0	25.816	0	133.578	0	213.8	4	74.6	4	-1E+10	1	-1E+10	1	-1E+10	1	-1E+10	1	-1E+10	1	-1E+10	1
4902643	2	C	07/11/2024	09:13	-134.100	43.750	0	144.80	0	8.2220	0	33.4140	0	25.998	0	143.591	0	211.0	4	73.1	4	-1E+10	1	-1E+10	1	-1E+10	1	-1E+10	1	-1E+10	1	-1E+10	1
4902643	2	C	07/11/2024	09:13	-134.100	43.750	0	155.10	0	7.8530	0	33.5200	0	26.136	0	153.801	0	208.9	4	71.8	4	-1E+10	1	-1E+10	1	-1E+10	1	-1E+10	1	-1E+10	1	-1E+10	1
4902643	2	C	07/11/2024	09:13	-134.100	43.750	0	164.70	0	7.5450	0	33.5890	0	26.234	0	163.317	0	205.8	4	70.3	4	-1E+10	1	-1E+10	1	-1E+10	1	-1E+10	1	-1E+10	1	-1E+10	1
4902643	2	C	07/11/2024	09:13	-134.100	43.750	0	175.10	0	7.6100	0	33.6800	0	26.296	0	173.625	0	199.9	4	68.4	4	-1E+10	1	-1E+10	1	-1E+10	1	-1E+10	1	-1E+10	1	-1E+10	1
4902643	2	C	07/11/2024	09:13	-134.100	43.750	0	184.80	0	7.5620	0	33.7290	0	26.342	0	183.239	0	195.5	4	66.9	4	-1E+10	1	-1E+10	1	-1E+10	1	-1E+10	1	-1E+10	1	-1E+10	1
4902643	2	C	07/11/2024	09:13	-134.100	43.750	0	194.50	0	7.4910	0	33.7630	0	26.379	0	192.853	0	190.4	4	65.0	4	-1E+10	1	-1E+10	1	-1E+10	1	-1E+10	1	-1E+10	1	-1E+10	1
4902643	2	C	07/11/2024	09:13	-134.100	43.750	0	209.70	0	7.4620	0	33.8100	0	26.420	0	207.916	0	183.7	4	62.7	4	-1E+10	1	-1E+10	1	-1E+10	1	-1E+10	1	-1E+10	1	-1E+10	1
4902643	2	C	07/11/2024	09:13	-134.100	43.750	0	229.80	0	7.1540	0	33.8150	0	26.467	0	227.834	0	174.2	4	59.1	4	-1E+10	1	-1E+10	1	-1E+10	1	-1E+10	1	-1E+10	1	-1E+10	1
4902643	2	C	07/11/2024	09:13	-134.100	43.750	0	249.90	0	6.8300	0	33.8200	0	26.516	0	247.750	0	161.4	4	54.3	4	-1E+10	1	-1E+10	1	-1E+10	1	-1E+10	1	-1E+10	1	-1E+10	1
4902643	2	C	07/11/2024	09:13	-134.100	43.750	0	269.70	0	6.4260	0	33.8130	0	26.564	0	267.367	0	149.2	4	49.7	4	-1E+10	1	-1E+10	1	-1E+10	1	-1E+10	1	-1E+10	1	-1E+10	1
4902643	2	C	07/11/2024	09:13	-134.100	43.750	0	289.60	0	6.1070	0	33.8150	0	26.606	0	287.081	0	133.7	4	44.2	4	-1E+10	1	-1E+10	1	-1E+10	1	-1E+10	1	-1E+10	1	-1E+10	1
4902643	2	C	07/11/2024	09:13	-134.100	43.750	0	309.20	0	5.8020	0	33.8200	0	26.648	0	306.496	0	119.6	4	39.3	4	-1E+10	1	-1E+10	1	-1E+10	1	-1E+10	1	-1E+10	1	-1E+10	1
4902643	2	C	07/11/2024	09:13	-134.100	43.750	0	330.20	0	5.5620	0	33.8350	0	26.689	0	327.296	0	106.9	4	34.9	4	-1E+10	1	-1E+10	1	-1E+10	1	-1E+10	1	-1E+10	1	-1E+10	1
4902643	2	C	07/11/2024	09:13	-134.100	43.750	0	349.90	0	5.3600	0	33.8490	0	26.724	0	346.806	0	96.1	4	31.3	4	-1E+10	1	-1E+10	1	-1E+10	1	-1E+10	1	-1E+10	1	-1E+10	1
4902643	2	C	07/11/2024	09:13	-134.100	43.750	0	369.80	0	5.1910	0	33.8660	0	26.758	0	366.513	0	88.2	4	28.6	4	-1E+10	1	-1E+10	1	-1E+10	1	-1E+10	1	-1E+10	1	-1E+10	1
4902643	2	C	07/11/2024	09:13	-134.100	43.750	0	389.90	0	5.0650	0	33.8740	0	26.779	0	386.415	0	82.2	4	26.6	4	-1E+10	1	-1E+10	1	-1E+10	1	-1E+10	1	-1E+10	1	-1E+10	1
4902643	2	C	07/11/2024	09:13	-134.100	43.750	0	410.10	0	4.9420	0	33.8890	0	26.805	0	406.415	0	74.6	4	24.0	4	-1E+10	1	-1E+10	1	-1E+10	1	-1E+10	1	-1E+10	1	-1E+10	1
4902643	2	C	07/11/2024	09:13	-134.100	43.750	0	429.90	0	4.8360	0	33.9170	0	26.839	0	426.017	0	65.0	4	20.9	4	-1E+10	1	-1E+10	1	-1E+10	1	-1E+10	1	-1E+10	1	-1E+10	1
4902643	2	C	07/11/2024	09:13	-134.100	43.750	0	449.80	0	4.7750	0	33.9410	0	26.865	0	445.716	0	58.2	4	18.7	4	-1E+10	1	-1E+10	1	-1E+10	1	-1E+10	1	-1E+10	1	-1E+10	1
4902643	2	C	07/11/2024	09:13	-134.100	43.750	0	469.70	0	4.7010	0	33.9600	0	26.888	0	465.413	0	52.2	4	16.7	4	-1E+10	1	-1E+10	1	-1E+10	1	-1E+10	1	-1E+10	1	-1E+10	1
4902643	2	C	07/11/2024	09:13	-134.100	43.750	0	489.90	0	4.6340	0	33.9800	0	26.912	0	485.405	0	46.6	4	14.9	4	-1E+10	1	-1E+10	1	-1E+10	1	-1E+10	1	-1E+10	1	-1E+10	1
4902643	2	C	07/11/2024	09:13	-134.100	43.750	0	509.70	0	4.5690	0	34.0000	0	26.935	0	504.999	0	42.1	4	13.5	4	-1E+10	1	-1E+10	1	-1E+10	1	-1E+10	1	-1E+10	1	-1E+10	1
4902643	2	C	07/11/2024	09:13	-134.100	43.750	0	530.10	0	4.4950	0	34.0190	0	26.958	0	525.185	0	38.0	4	12.1	4	-1E+10	1	-1E+10	1	-1E+10	1	-1E+10	1	-1E+10	1	-1E+10	1
4902643	2	C	07/11/2024	09:13	-134.100	43.750	0	549.80	0	4.4240	0	34.0370	0	26.980	0	544.676	0	34.6	4	11.0	4	-1E+10	1	-1E+10	1	-1E+10	1	-1E+10	1	-1E+10	1	-1E+10	1
4902643	2	C	07/11/2024	09:13	-134.100	43.750	0	570.00	0	4.3270	0	34.0580	0	27.007	0	564.661	0	31.9	4	10.1	4	-1E+10	1	-1E+10	1	-1E+10	1	-1E+10	1	-1E+10	1	-1E+10	1
4902643	2	C	07/11/2024	09:13	-134.100	43.750	0	589.90	0	4.2330	0	34.0820	0	27.036	0	584.347	0	28.1	4	8.9	4	-1E+10	1	-1E+10	1	-1E+10	1	-1E+10	1	-1E+10	1	-1E+10	1
4902643	2	C	07/11/2024	09:13	-134.100	43.750	0	610.30	0	4.1520	0	34.1020	0	27.061	0	604.525	0	26.0	4	8.2	4	-1E+10	1	-1E+10	1	-1E+10	1	-1E+10	1	-1E+10	1	-1E+10	1
4902643	2	C	07/11/2024	09:13	-134.100	43.750	0	629.60	0	4.0860	0	34.1180	0	27.081	0	623.613	0	23.5	4	7.4	4	-1E+10	1	-1E+10	1	-1E+10	1	-1E+10	1	-1E+10	1	-1E+10	1
4902643	2	C	07/11/2024	09:13	-134.100	43.750	0	649.50	0	4.0150	0	34.1350	0	27.101	0	643.293	0	21.1	4	6.7	4	-1E+10	1	-1E+10	1	-1E+10	1	-1E+10	1	-1E+10	1	-1E+10	1
4902643	2	C	07/11/2024	09:13	-134.100	43.750	0	669.70	0	3.9510	0	34.1530	0	27.122	0	663.268	0	18.9	4	6.0	4	-1E+10	1	-1E+10	1	-1E+10	1	-1E+10	1	-1E+10	1	-1E+10	1
4902643	2	C	07/11/2024	09:13	-134.100	43.750	0	689.80	0	3.9030	0	34.1670	0	27.139	0	683.142	0	17.2	4	5.4	4	-1E+10	1	-1E+10	1	-1E+10	1	-1E+10	1	-1E+10	1	-1E+10	1
4902643	2	C	07/11/2024	09:13	-134.100	43.750	0	709.80	0	3.8560	0	34.1790	0	27.153	0	702.915	0	15.7	4	4.9	4	-1E+10	1	-1E+10	1	-1E+10	1	-1E+10	1	-1E+10	1	-1E+10	1
4902643	2	C	07/11/2024	09:13	-134.100	43.750	0	730.40	0	3.7970	0	34.1970	0	27.173	0	723.280	0	13.8	4	4.3	4	-1E+10	1	-1E+10	1	-1E+10	1	-1E+10	1	-1E+10	1	-1E+10	1
4902643	2	C	07/11/2024	09:13	-134.100	43.750	0	749.70	0	3.7460	0	34.2130	0	27.191	0	742.358	0	12.3	4	3.9	4	-1E+10	1	-1E+10	1	-1E+10	1	-1E+10	1	-1E+10	1	-1E+10	1
4902643	2	C	07/11/2024	09:13	-134.100	43.750	0	770.00	0	3.7150	0	34.2310	0	27.209	0	762.422	0	10.7	4	3.3	4	-1E+10	1	-1E+10	1	-1E+10	1	-1E+10	1	-1E+10	1	-1E+10	1
4902643	2	C	07/11/2024	09:13	-134.100	43.750	0	790.00	0	3.6990	0	34.2520	0	27.227	0	782.187	0	9.5	4	3.0	4	-1E+10	1	-1E+10	1	-1E+10	1	-1E+10	1	-1E+10	1	-1E+10	1
4902643	2	C	07/11/2024	09:13	-134.100	43.750	0	809.70	0	3.6680	0	34.2630	0	27.239	0	801.655	0	8.9	4	2.8	4	-1E+10	1	-1E+10	1	-1E+10	1	-1E+10	1	-1E+10	1	-1E+10	1
4902643	2	C	07/11/2024	09:13	-134.100	43.750	0	829.80	0	3.6340	0	34.2770	0	27.254	0	821.516	0	8.3	4	2.6	4	-1E+10	1	-1E+10	1	-1E+10	1	-1E+10	1	-1E+10	1	-1E+10	1
4902643	2	C	07/11/2024	09:13	-134.100	43.750	0	850.40	0	3.5870	0	34.2920	0	27.270	0	841.868	0	7.9	4	2.5	4	-1E+10	1	-1E+10	1	-1E+10	1	-1E+10	1	-1E+10	1	-1E+10	1
4902643	2	C	07/11/2024	09:13	-134.100	43.750	0	870.00	0	3.5590	0	34.3020	0	27.281	0	861.231	0	7.6	4	2.4	4	-1E+10	1	-1E+10	1	-1E+10	1	-1E+10	1	-1E+10	1	-1E+10	1
4902643	2	C	07/11/2024	09:13	-134.100	43.750	0	889.80	0	3.5820	0	34.3200	0	27.294	0	880.790	0	7.2	4	2.3	4	-1E+10	1	-1E+10	1	-1E+10	1	-1E+10	1	-1E+10	1	-1E+10	1
4902643	2	C	07/11/2024	09:13	-134.100	43.750	0	909.40	0	3.5360	0	34.3270	0	27.304	0	900.150	0	7.2	4	2.3	4	-1E+10	1	-1E+10	1	-1E+10	1	-1E+10	1	-1E+10	1	-1E+10	1
4902643	2	C	07/11/2024	09:13	-134.100	43.750	0	929.70	0	3.4870	0	34.3390	0	27.318	0	920.198	0	7.1	4	2.2	4	-1E+10	1	-1E+10	1	-1E+10	1	-1E+10	1	-1E+10	1	-1E+10	1
4902643	2	C	07/11/2024	09:13	-134.100	43.750	0	949.90	0	3.4330	0	34.3470	0	27.330	0	940.147	0	7.1	4	2.2	4	-1E+10	1	-1E+10	1	-1E+10	1	-1E+10	1	-1E+10	1	-1E+10	1
4902643	2	C	07/11/2024	09:13	-134.100	43.750	0	969.80	0	3.3910	0	34.3550	0	27.340	0	959.797	0	7.2	4	2.2	4	-1E+10	1	-1E+10	1	-1E+10	1	-1E+10	1	-1E+10	1	-1E+10	1
4902643	2	C	07/11/2024	09:13	-134.100	43.750	0	989.90	0	3.3910	0	34.3690	0	27.352	0	979.642	0	7.3	4	2.3	4	-1E+10	1	-1E+10	1	-1E+10	1	-1E+10	1	-1E+10	1	-1E+10	1
4902643	2	C	07/11/2024	09:13	-134.100	43.750	0	1010.00	0	3.3750	0	34.3820	0	27.364	0	999.486	0	7.7	4	2.4	4	-1E+10	1	-1E+10	1	-1E+10	1	-1E+10	1	-1E+10	1	-1E+10	1
4902643	2	C	07/11/2024	09:13	-134.100	43.750	0	1030.40	0	3.3550	0	34.3930	0	27.374	0	1019.624	0	8.0	4	2.5	4	-1E+10	1	-1E+10	1	-1E+10	1	-1E+10	1	-1E+10	1	-1E+10	1
4902643	2	C	07/11/2024	09:13	-134.100	43.750	0	1049.60	0	3.3100	0	34.3980	0	27.383	0	1038.576	0	8.1	4	2.5	4	-1E+10	1	-1E+10	1	-1E+10	1	-1E+10	1	-1E+10	1	-1E+10	1
4902643	2	C	07/11/2024	09:13	-134.100	43.750	0	1069.60	0	3.2340	0	34.3990	0	27.391	0	1058.316	0	8.2	4	2.5	4	-1E+10	1	-1E+10	1	-1E+10	1	-1E+10	1	-1E+10	1	-1E+10	1
4902643	2	C	07/11/2024	09:13	-134.100	43.750	0	1089.80	0	3.1770	0	34.4030	0	27.399	0	1078.251	0	8.3	4	2.6	4	-1E+10	1	-1E+10	1	-1E+10	1	-1E+10	1	-1E+10	1	-1E+10	1
4902643	2	C	07/11/2024	09:13	-134.100	43.750	0	1109.60	0	3.1550	0	34.4110	0	27.408	0	1097.789	0	8.6	4	2.7	4	-1E+10	1	-1E+10	1	-1E+10	1	-1E+10	1	-1E+10	1	-1E+10	1
4902643	2	C	07/11/2024	09:13	-134.100	43.750	0	1129.50	0	3.1260	0	34.4160	0	27.415	0	1117.424	0	9.0	4	2.8	4	-1E+10	1	-1E+10	1	-1E+10	1	-1E+10	1	-1E+10	1	-1E+10	1
4902643	2	C	07/11/2024	09:13	-134.100	43.750	0	1149.70	0	3.0930	0	34.4250	0	27.425	0	1137.354	0	9.4	4	2.9	4	-1E+10	1	-1E+10	1	-1E+10	1	-1E+10	1	-1E+10	1	-1E+10	1
4902643	2	C	07/11/2024	09:13	-134.100	43.750	0	1169.90	0	3.0500	0	34.4320	0	27.435	0	1157.281	0	9.9	4	3.0	4	-1E+10	1	-1E+10	1	-1E+10	1	-1E+10	1	-1E+10	1	-1E+10	1
4902643	2	C	07/11/2024	09:13	-134.100	43.750	0	1189.50	0	3.0190	0	34.4390	0	27.443	0	1176.615	0	10.5	4	3.3	4	-1E+10	1	-1E+10	1	-1E+10	1	-1E+10	1	-1E+10	1	-1E+10	1
4902643	2	C	07/11/2024	09:13	-134.100	43.750	0	1209.40	0	2.9950	0	34.4460	0	27.451	0	1196.243	0	11.3	4	3.5	4	-1E+10	1	-1E+10	1	-1E+10	1	-1E+10	1	-1E+10	1	-1E+10	1
4902643	2	C	07/11/2024	09:13	-134.100	43.750	0	1229.60	0	2.9630	0	34.4520	0	27.459	0	1216.165	0	12.0	4	3.7	4	-1E+10	1	-1E+10	1	-1E+10	1	-1E+10	1	-1E+10	1	-1E+10	1
4902643	2	C	07/11/2024	09:13	-134.100	43.750	0	1249.80	0	2.9210	0	34.4590	0	27.468	0	1236.085	0	12.8	4	3.9	4	-1E+10	1	-1E+10	1	-1E+10	1	-1E+10	1	-1E+10	1	-1E+10	1
4902643	2	C	07/11/2024	09:13	-134.100	43.750	0	1269.70	0	2.8810	0	34.4650	0	27.477	0	1255.707	0	13.6	4	4.2	4	-1E+10	1	-1E+10	1	-1E+10	1	-1E+10	1	-1E+10	1	-1E+10	1
4902643	2	C	07/11/2024	09:13	-134.100	43.750	0	1289.50	0	2.8450	0	34.4700	0	27.484	0	1275.229	0	14.5	4	4.4	4	-1E+10	1	-1E+10	1	-1E+10	1	-1E+10	1	-1E+10	1	-1E+10	1
4902643	2	C	07/11/2024	09:13	-134.100	43.750	0	1309.40	0	2.8120	0	34.4750	0	27.491	0	1294.847	0	15.3	4	4.7	4	-1E+10	1	-1E+10	1	-1E+10	1	-1E+10	1	-1E+10	1	-1E+10	1
4902643	2	C	07/11/2024	09:13	-134.100	43.750	0	1329.50	0	2.7790	0	34.4790	0	27.497	0	1314.661	0	16.3	4	5.0	4	-1E+10	1	-1E+10	1	-1E+10	1	-1E+10	1	-1E+10	1	-1E+10	1
4902643	2	C	07/11/2024	09:13	-134.100	43.750	0	1349.50	0	2.7340	0	34.4860	0	27.507	0	1334.375	0	17.6	4	5.4	4	-1E+10	1	-1E+10	1	-1E+10	1	-1E+10	1	-1E+10	1	-1E+10	1
4902643	2	C	07/11/2024	09:13	-134.100	43.750	0	1370.20	0	2.6860	0	34.4920	0	27.516	0	1354.776	0	19.0	4	5.8	4	-1E+10	1	-1E+10	1	-1E+10	1	-1E+10	1	-1E+10	1	-1E+10	1
4902643	2	C	07/11/2024	09:13	-134.100	43.750	0	1389.60	0	2.6500	0	34.4980	0	27.524	0	1373.895	0	20.2	4	6.2	4	-1E+10	1	-1E+10	1	-1E+10	1	-1E+10	1	-1E+10	1	-1E+10	1
4902643	2	C	07/11/2024	09:13	-134.100	43.750	0	1409.70	0	2.6130	0	34.5020	0	27.530	0	1393.701	0	21.1	4	6.5	4	-1E+10	1	-1E+10	1	-1E+10	1	-1E+10	1	-1E+10	1	-1E+10	1
4902643	2	C	07/11/2024	09:13	-134.100	43.750	0	1429.90	0	2.5820	0	34.5050	0	27.535	0	1413.604	0	22.1	4	6.7	4	-1E+10	1	-1E+10	1	-1E+10	1	-1E+10	1	-1E+10	1	-1E+10	1
4902643	2	C	07/11/2024	09:13	-134.100	43.750	0	1449.90	0	2.5470	0	34.5090	0	27.542	0	1433.309	0	23.3	4	7.1	4	-1E+10	1	-1E+10	1	-1E+10	1	-1E+10	1	-1E+10	1	-1E+10	1
4902643	2	C	07/11/2024	09:13	-134.100	43.750	0	1470.00	0	2.5120	0	34.5140	0	27.549	0	1453.109	0	24.7	4	7.5	4	-1E+10	1	-1E+10	1	-1E+10	1	-1E+10	1	-1E+10	1	-1E+10	1
4902643	2	C	07/11/2024	09:13	-134.100	43.750	0	1490.60	0	2.4760	0	34.5190	0	27.556	0	1473.401	0	26.0	4	7.9	4	-1E+10	1	-1E+10	1	-1E+10	1	-1E+10	1	-1E+10	1	-1E+10	1
4902643	2	C	07/11/2024	09:13	-134.100	43.750	0	1509.70	0	2.4540	0	34.5230	0	27.561	0	1492.213	0	27.0	4	8.2	4	-1E+10	1	-1E+10	1	-1E+10	1	-1E+10	1	-1E+10	1	-1E+10	1
4902643	2	C	07/11/2024	09:13	-134.100	43.750	0	1529.50	0	2.4250	0	34.5260	0	27.566	0	1511.713	0	28.1	4	8.6	4	-1E+10	1	-1E+10	1	-1E+10	1	-1E+10	1	-1E+10	1	-1E+10	1
4902643	2	C	07/11/2024	09:13	-134.100	43.750	0	1549.80	0	2.4040	0	34.5290	0	27.570	0	1531.704	0	29.1	4	8.9	4	-1E+10	1	-1E+10	1	-1E+10	1	-1E+10	1	-1E+10	1	-1E+10	1
4902643	2	C	07/11/2024	09:13	-134.100	43.750	0	1569.90	0	2.3750	0	34.5330	0	27.576	0	1551.495	0	30.4	4	9.2	4	-1E+10	1	-1E+10	1	-1E+10	1	-1E+10	1	-1E+10	1	-1E+10	1
4902643	2	C	07/11/2024	09:13	-134.100	43.750	0	1589.90	0	2.3490	0	34.5370	0	27.581	0	1571.187	0	31.6	4	9.6	4	-1E+10	1	-1E+10	1	-1E+10	1	-1E+10	1	-1E+10	1	-1E+10	1
4902643	2	C	07/11/2024	09:13	-134.100	43.750	0	1609.90	0	2.3230	0	34.5400	0	27.586	0	1590.876	0	32.8	4	10.0	4	-1E+10	1	-1E+10	1	-1E+10	1	-1E+10	1	-1E+10	1	-1E+10	1
4902643	2	C	07/11/2024	09:13	-134.100	43.750	0	1629.70	0	2.2940	0	34.5440	0	27.592	0	1610.367	0	34.3	4	10.4	4	-1E+10	1	-1E+10	1	-1E+10	1	-1E+10	1	-1E+10	1	-1E+10	1
4902643	2	C	07/11/2024	09:13	-134.100	43.750	0	1649.70	0	2.2620	0	34.5480	0	27.598	0	1630.053	0	35.7	4	10.8	4	-1E+10	1	-1E+10	1	-1E+10	1	-1E+10	1	-1E+10	1	-1E+10	1
4902643	2	C	07/11/2024	09:13	-134.100	43.750	0	1670.40	0	2.2360	0	34.5520	0	27.603	0	1650.426	0	36.8	4	11.2	4	-1E+10	1	-1E+10	1	-1E+10	1	-1E+10	1	-1E+10	1	-1E+10	1
4902643	2	C	07/11/2024	09:13	-134.100	43.750	0	1689.70	0	2.2210	0	34.5540	0	27.606	0	1669.419	0	37.8	4	11.5	4	-1E+10	1	-1E+10	1	-1E+10	1	-1E+10	1	-1E+10	1	-1E+10	1
4902643	2	C	07/11/2024	09:13	-134.100	43.750	0	1709.80	0	2.1940	0	34.5570	0	27.611	0	1689.198	0	39.2	4	11.9	4	-1E+10	1	-1E+10	1	-1E+10	1	-1E+10	1	-1E+10	1	-1E+10	1
4902643	2	C	07/11/2024	09:13	-134.100	43.750	0	1730.10	0	2.1710	0	34.5600	0	27.615	0	1709.171	0	40.4	4	12.2	4	-1E+10	1	-1E+10	1	-1E+10	1	-1E+10	1	-1E+10	1	-1E+10	1
4902643	2	C	07/11/2024	09:13	-134.100	43.750	0	1749.70	0	2.1520	0	34.5630	0	27.619	0	1728.454	0	41.6	4	12.6	4	-1E+10	1	-1E+10	1	-1E+10	1	-1E+10	1	-1E+10	1	-1E+10	1
4902643	2	C	07/11/2024	09:13	-134.100	43.750	0	1769.40	0	2.1310	0	34.5660	0	27.623	0	1747.834	0	42.8	4	13.0	4	-1E+10	1	-1E+10	1	-1E+10	1	-1E+10	1	-1E+10	1	-1E+10	1
4902643	2	C	07/11/2024	09:13	-134.100	43.750	0	1789.80	0	2.1060	0	34.5700	0	27.628	0	1767.901	0	44.4	4	13.4	4	-1E+10	1	-1E+10	1	-1E+10	1	-1E+10	1	-1E+10	1	-1E+10	1
4902643	2	C	07/11/2024	09:13	-134.100	43.750	0	1809.80	0	2.0850	0	34.5730	0	27.633	0	1787.572	0	45.5	4	13.7	4	-1E+10	1	-1E+10	1	-1E+10	1	-1E+10	1	-1E+10	1	-1E+10	1
4902643	2	C	07/11/2024	09:13	-134.100	43.750	0	1829.70	0	2.0720	0	34.5760	0	27.636	0	1807.143	0	46.5	4	14.0	4	-1E+10	1	-1E+10	1	-1E+10	1	-1E+10	1	-1E+10	1	-1E+10	1
4902643	2	C	07/11/2024	09:13	-134.100	43.750	0	1849.60	0	2.0550	0	34.5780	0	27.639	0	1826.712	0	47.6	4	14.4	4	-1E+10	1	-1E+10	1	-1E+10	1	-1E+10	1	-1E+10	1	-1E+10	1
4902643	2	C	07/11/2024	09:13	-134.100	43.750	0	1869.50	0	2.0420	0	34.5800	0	27.642	0	1846.279	0	48.6	4	14.7	4	-1E+10	1	-1E+10	1	-1E+10	1	-1E+10	1	-1E+10	1	-1E+10	1
4902643	2	C	07/11/2024	09:13	-134.100	43.750	0	1889.40	0	2.0270	0	34.5820	0	27.645	0	1865.845	0	49.8	4	15.0	4	-1E+10	1	-1E+10	1	-1E+10	1	-1E+10	1	-1E+10	1	-1E+10	1
4902643	2	C	07/11/2024	09:13	-134.100	43.750	0	1910.50	0	2.0080	0	34.5860	0	27.649	0	1886.588	0	51.1	4	15.4	4	-1E+10	1	-1E+10	1	-1E+10	1	-1E+10	1	-1E+10	1	-1E+10	1
4902643	2	C	07/11/2024	09:13	-134.100	43.750	0	1929.70	0	1.9960	0	34.5880	0	27.652	0	1905.462	0	52.2	4	15.7	4	-1E+10	1	-1E+10	1	-1E+10	1	-1E+10	1	-1E+10	1	-1E+10	1
4902643	2	C	07/11/2024	09:13	-134.100	43.750	0	1949.60	0	1.9810	0	34.5900	0	27.655	0	1925.022	0	53.4	4	16.1	4	-1E+10	1	-1E+10	1	-1E+10	1	-1E+10	1	-1E+10	1	-1E+10	1
4902643	2	C	07/11/2024	09:13	-134.100	43.750	0	1969.90	0	1.9650	0	34.5930	0	27.659	0	1944.974	0	54.8	4	16.5	4	-1E+10	1	-1E+10	1	-1E+10	1	-1E+10	1	-1E+10	1	-1E+10	1
4902643	2	C	07/11/2024	09:13	-134.100	43.750	0	1990.50	0	1.9490	0	34.5950	0	27.662	0	1965.218	0	55.8	4	16.8	4	-1E+10	1	-1E+10	1	-1E+10	1	-1E+10	1	-1E+10	1	-1E+10	1
4902643	2	C	07/11/2024	09:13	-134.100	43.750	0	2009.70	0	1.9380	0	34.5960	0	27.663	0	1984.085	0	56.9	4	17.1	4	-1E+10	1	-1E+10	1	-1E+10	1	-1E+10	1	-1E+10	1	-1E+10	1
4902643	2	C	07/11/2024	09:13	-134.100	43.750	0	2029.70	0	1.9220	0	34.5990	0	27.667	0	2003.736	0	58.2	4	17.5	4	-1E+10	1	-1E+10	1	-1E+10	1	-1E+10	1	-1E+10	1	-1E+10	1
4902643	2	C	07/11/2024	09:13	-134.100	43.750	0	2049.80	0	1.9090	0	34.6010	0	27.670	0	2023.484	0	59.2	4	17.8	4	-1E+10	1	-1E+10	1	-1E+10	1	-1E+10	1	-1E+10	1	-1E+10	1
4902643	2	C	07/11/2024	09:13	-134.100	43.750	0	2069.60	0	1.8980	0	34.6020	0	27.672	0	2042.935	0	59.9	4	18.0	4	-1E+10	1	-1E+10	1	-1E+10	1	-1E+10	1	-1E+10	1	-1E+10	1
4902643	2	C	07/11/2024	09:13	-134.100	43.750	0	2089.60	0	1.8910	0	34.6030	0	27.673	0	2062.581	0	60.6	4	18.2	4	-1E+10	1	-1E+10	1	-1E+10	1	-1E+10	1	-1E+10	1	-1E+10	1
4902643	2	C	07/11/2024	09:13	-134.100	43.750	0	2109.40	0	1.8810	0	34.6040	0	27.675	0	2082.028	0	61.5	4	18.5	4	-1E+10	1	-1E+10	1	-1E+10	1	-1E+10	1	-1E+10	1	-1E+10	1
4902643	2	C	07/11/2024	09:13	-134.100	43.750	0	2130.20	0	1.8730	0	34.6060	0	27.677	0	2102.456	0	62.2	4	18.7	4	-1E+10	1	-1E+10	1	-1E+10	1	-1E+10	1	-1E+10	1	-1E+10	1
4902643	2	C	07/11/2024	09:13	-134.100	43.750	0	2149.70	0	1.8650	0	34.6070	0	27.679	0	2121.605	0	63.0	4	18.9	4	-1E+10	1	-1E+10	1	-1E+10	1	-1E+10	1	-1E+10	1	-1E+10	1
4902643	2	C	07/11/2024	09:13	-134.100	43.750	0	2169.50	0	1.8570	0	34.6080	0	27.680	0	2141.047	0	63.7	4	19.1	4	-1E+10	1	-1E+10	1	-1E+10	1	-1E+10	1	-1E+10	1	-1E+10	1
4902643	2	C	07/11/2024	09:13	-134.100	43.750	0	2189.40	0	1.8490	0	34.6090	0	27.682	0	2160.586	0	64.4	4	19.3	4	-1E+10	1	-1E+10	1	-1E+10	1	-1E+10	1	-1E+10	1	-1E+10	1
4902643	2	C	07/11/2024	09:13	-134.100	43.750	0	2209.60	0	1.8440	0	34.6100	0	27.683	0	2180.417	0	65.0	4	19.5	4	-1E+10	1	-1E+10	1	-1E+10	1	-1E+10	1	-1E+10	1	-1E+10	1
4902643	2	C	07/11/2024	09:13	-134.100	43.750	0	2229.80	0	1.8350	0	34.6120	0	27.685	0	2200.246	0	66.0	4	19.8	4	-1E+10	1	-1E+10	1	-1E+10	1	-1E+10	1	-1E+10	1	-1E+10	1
4902643	2	C	07/11/2024	09:13	-134.100	43.750	0	2249.80	0	1.8250	0	34.6130	0	27.687	0	2219.878	0	66.8	4	20.1	4	-1E+10	1	-1E+10	1	-1E+10	1	-1E+10	1	-1E+10	1	-1E+10	1
4902643	2	C	07/11/2024	09:13	-134.100	43.750	0	2269.80	0	1.8150	0	34.6150	0	27.690	0	2239.507	0	67.7	4	20.3	4	-1E+10	1	-1E+10	1	-1E+10	1	-1E+10	1	-1E+10	1	-1E+10	1
4902643	2	C	07/11/2024	09:13	-134.100	43.750	0	2289.90	0	1.8080	0	34.6160	0	27.691	0	2259.233	0	68.5	4	20.5	4	-1E+10	1	-1E+10	1	-1E+10	1	-1E+10	1	-1E+10	1	-1E+10	1
4902643	2	C	07/11/2024	09:13	-134.100	43.750	0	2309.80	0	1.8020	0	34.6170	0	27.692	0	2278.761	0	69.4	4	20.8	4	-1E+10	1	-1E+10	1	-1E+10	1	-1E+10	1	-1E+10	1	-1E+10	1
4902643	2	C	07/11/2024	09:13	-134.100	43.750	0	2329.60	0	1.7950	0	34.6190	0	27.695	0	2298.188	0	70.2	4	21.0	4	-1E+10	1	-1E+10	1	-1E+10	1	-1E+10	1	-1E+10	1	-1E+10	1
4902643	2	C	07/11/2024	09:13	-134.100	43.750	0	2349.60	0	1.7850	0	34.6200	0	27.696	0	2317.811	0	71.0	4	21.3	4	-1E+10	1	-1E+10	1	-1E+10	1	-1E+10	1	-1E+10	1	-1E+10	1
4902643	2	C	07/11/2024	09:13	-134.100	43.750	0	2369.40	0	1.7750	0	34.6210	0	27.698	0	2337.235	0	71.9	4	21.6	4	-1E+10	1	-1E+10	1	-1E+10	1	-1E+10	1	-1E+10	1	-1E+10	1
4902643	2	C	07/11/2024	09:13	-134.100	43.750	0	2389.40	0	1.7640	0	34.6220	0	27.700	0	2356.853	0	73.1	4	21.9	4	-1E+10	1	-1E+10	1	-1E+10	1	-1E+10	1	-1E+10	1	-1E+10	1
4902643	2	C	07/11/2024	09:13	-134.100	43.750	0	2409.30	0	1.7520	0	34.6240	0	27.702	0	2376.372	0	74.2	4	22.2	4	-1E+10	1	-1E+10	1	-1E+10	1	-1E+10	1	-1E+10	1	-1E+10	1
4902643	2	C	07/11/2024	09:13	-134.100	43.750	0	2430.40	0	1.7440	0	34.6250	0	27.704	0	2397.066	0	74.9	4	22.4	4	-1E+10	1	-1E+10	1	-1E+10	1	-1E+10	1	-1E+10	1	-1E+10	1
4902643	2	C	07/11/2024	09:13	-134.100	43.750	0	2449.90	0	1.7400	0	34.6260	0	27.705	0	2416.189	0	75.5	4	22.6	4	-1E+10	1	-1E+10	1	-1E+10	1	-1E+10	1	-1E+10	1	-1E+10	1
4902643	2	C	07/11/2024	09:13	-134.100	43.750	0	2470.00	0	1.7350	0	34.6270	0	27.706	0	2435.899	0	76.3	4	22.9	4	-1E+10	1	-1E+10	1	-1E+10	1	-1E+10	1	-1E+10	1	-1E+10	1
4902643	2	C	07/11/2024	09:13	-134.100	43.750	0	2489.80	0	1.7260	0	34.6280	0	27.708	0	2455.312	0	77.3	4	23.2	4	-1E+10	1	-1E+10	1	-1E+10	1	-1E+10	1	-1E+10	1	-1E+10	1
4902643	2	C	07/11/2024	09:13	-134.100	43.750	0	2509.80	0	1.7160	0	34.6290	0	27.710	0	2474.920	0	78.3	4	23.4	4	-1E+10	1	-1E+10	1	-1E+10	1	-1E+10	1	-1E+10	1	-1E+10	1
4902643	2	C	07/11/2024	09:13	-134.100	43.750	0	2530.10	0	1.7090	0	34.6300	0	27.711	0	2494.820	0	79.1	4	23.7	4	-1E+10	1	-1E+10	1	-1E+10	1	-1E+10	1	-1E+10	1	-1E+10	1
4902643	2	C	07/11/2024	09:13	-134.100	43.750	0	2550.10	0	1.7040	0	34.6310	0	27.712	0	2514.425	0	79.8	4	23.9	4	-1E+10	1	-1E+10	1	-1E+10	1	-1E+10	1	-1E+10	1	-1E+10	1
4902643	2	C	07/11/2024	09:13	-134.100	43.750	0	2569.80	0	1.6980	0	34.6320	0	27.714	0	2533.733	0	80.5	4	24.1	4	-1E+10	1	-1E+10	1	-1E+10	1	-1E+10	1	-1E+10	1	-1E+10	1
4902643	2	C	07/11/2024	09:13	-134.100	43.750	0	2589.60	0	1.6950	0	34.6330	0	27.715	0	2553.138	0	81.1	4	24.3	4	-1E+10	1	-1E+10	1	-1E+10	1	-1E+10	1	-1E+10	1	-1E+10	1
4902643	2	C	07/11/2024	09:13	-134.100	43.750	0	2610.30	0	1.6880	0	34.6330	0	27.715	0	2573.423	0	81.9	4	24.5	4	-1E+10	1	-1E+10	1	-1E+10	1	-1E+10	1	-1E+10	1	-1E+10	1
4902643	2	C	07/11/2024	09:13	-134.100	43.750	0	2630.00	0	1.6820	0	34.6340	0	27.717	0	2592.726	0	82.6	4	24.7	4	-1E+10	1	-1E+10	1	-1E+10	1	-1E+10	1	-1E+10	1	-1E+10	1
4902643	2	C	07/11/2024	09:13	-134.100	43.750	0	2650.00	0	1.6770	0	34.6350	0	27.718	0	2612.321	0	83.4	4	24.9	4	-1E+10	1	-1E+10	1	-1E+10	1	-1E+10	1	-1E+10	1	-1E+10	1
4902643	2	C	07/11/2024	09:13	-134.100	43.750	0	2670.00	0	1.6700	0	34.6360	0	27.719	0	2631.915	0	84.2	4	25.2	4	-1E+10	1	-1E+10	1	-1E+10	1	-1E+10	1	-1E+10	1	-1E+10	1
4902643	2	C	07/11/2024	09:13	-134.100	43.750	0	2689.70	0	1.6650	0	34.6370	0	27.721	0	2651.213	0	84.8	4	25.4	4	-1E+10	1	-1E+10	1	-1E+10	1	-1E+10	1	-1E+10	1	-1E+10	1
4902643	2	C	07/11/2024	09:13	-134.100	43.750	0	2709.70	0	1.6600	0	34.6380	0	27.722	0	2670.803	0	85.5	4	25.6	4	-1E+10	1	-1E+10	1	-1E+10	1	-1E+10	1	-1E+10	1	-1E+10	1
4902643	2	C	07/11/2024	09:13	-134.100	43.750	0	2730.00	0	1.6560	0	34.6380	0	27.722	0	2690.685	0	86.0	4	25.7	4	-1E+10	1	-1E+10	1	-1E+10	1	-1E+10	1	-1E+10	1	-1E+10	1
4902643	2	C	07/11/2024	09:13	-134.100	43.750	0	2750.40	0	1.6540	0	34.6390	0	27.724	0	2710.663	0	86.5	4	25.9	4	-1E+10	1	-1E+10	1	-1E+10	1	-1E+10	1	-1E+10	1	-1E+10	1
4902643	2	C	07/11/2024	09:13	-134.100	43.750	0	2769.90	0	1.6510	0	34.6390	0	27.724	0	2729.758	0	86.9	4	26.0	4	-1E+10	1	-1E+10	1	-1E+10	1	-1E+10	1	-1E+10	1	-1E+10	1
4902643	2	C	07/11/2024	09:13	-134.100	43.750	0	2790.10	0	1.6490	0	34.6400	0	27.725	0	2749.537	0	87.4	4	26.1	4	-1E+10	1	-1E+10	1	-1E+10	1	-1E+10	1	-1E+10	1	-1E+10	1
4902643	2	C	07/11/2024	09:13	-134.100	43.750	0	2810.00	0	1.6450	0	34.6400	0	27.725	0	2769.020	0	88.0	4	26.3	4	-1E+10	1	-1E+10	1	-1E+10	1	-1E+10	1	-1E+10	1	-1E+10	1
4902643	2	C	07/11/2024	09:13	-134.100	43.750	0	2829.60	0	1.6410	0	34.6410	0	27.727	0	2788.208	0	88.5	4	26.5	4	-1E+10	1	-1E+10	1	-1E+10	1	-1E+10	1	-1E+10	1	-1E+10	1
4902643	2	C	07/11/2024	09:13	-134.100	43.750	0	2850.40	0	1.6400	0	34.6420	0	27.728	0	2808.569	0	88.9	4	26.6	4	-1E+10	1	-1E+10	1	-1E+10	1	-1E+10	1	-1E+10	1	-1E+10	1
4902643	2	C	07/11/2024	09:13	-134.100	43.750	0	2869.70	0	1.6390	0	34.6420	0	27.728	0	2827.459	0	89.3	4	26.7	4	-1E+10	1	-1E+10	1	-1E+10	1	-1E+10	1	-1E+10	1	-1E+10	1
4902643	2	C	07/11/2024	09:13	-134.100	43.750	0	2889.80	0	1.6360	0	34.6420	0	27.728	0	2847.131	0	89.8	4	26.8	4	-1E+10	1	-1E+10	1	-1E+10	1	-1E+10	1	-1E+10	1	-1E+10	1
4902643	2	C	07/11/2024	09:13	-134.100	43.750	0	2910.00	0	1.6330	0	34.6430	0	27.729	0	2866.899	0	90.3	4	27.0	4	-1E+10	1	-1E+10	1	-1E+10	1	-1E+10	1	-1E+10	1	-1E+10	1
4902643	2	C	07/11/2024	09:13	-134.100	43.750	0	2929.80	0	1.6300	0	34.6440	0	27.730	0	2886.274	0	90.9	4	27.2	4	-1E+10	1	-1E+10	1	-1E+10	1	-1E+10	1	-1E+10	1	-1E+10	1
4902643	2	C	07/11/2024	09:13	-134.100	43.750	0	2949.60	0	1.6260	0	34.6440	0	27.731	0	2905.647	0	91.5	4	27.4	4	-1E+10	1	-1E+10	1	-1E+10	1	-1E+10	1	-1E+10	1	-1E+10	1
4902643	2	C	07/11/2024	09:13	-134.100	43.750	0	2969.50	0	1.6200	0	34.6450	0	27.732	0	2925.117	0	92.3	4	27.6	4	-1E+10	1	-1E+10	1	-1E+10	1	-1E+10	1	-1E+10	1	-1E+10	1
4902643	2	C	07/11/2024	09:13	-134.100	43.750	0	2989.80	0	1.6150	0	34.6460	0	27.734	0	2944.975	0	93.1	4	27.8	4	-1E+10	1	-1E+10	1	-1E+10	1	-1E+10	1	-1E+10	1	-1E+10	1
4902643	2	C	07/11/2024	09:13	-134.100	43.750	0	3009.90	0	1.6090	0	34.6470	0	27.735	0	2964.636	0	94.0	4	28.1	4	-1E+10	1	-1E+10	1	-1E+10	1	-1E+10	1	-1E+10	1	-1E+10	1
4902643	2	C	07/11/2024	09:13	-134.100	43.750	0	3029.00	0	1.6060	0	34.6480	0	27.736	0	2983.318	0	94.6	4	28.2	4	-1E+10	1	-1E+10	1	-1E+10	1	-1E+10	1	-1E+10	1	-1E+10	1
4902643	2	C	07/11/2024	09:13	-134.100	43.750	0	3049.90	0	1.6010	0	34.6480	0	27.737	0	3003.758	0	95.5	4	28.5	4	-1E+10	1	-1E+10	1	-1E+10	1	-1E+10	1	-1E+10	1	-1E+10	1
4902643	2	C	07/11/2024	09:13	-134.100	43.750	0	3070.00	0	1.5950	0	34.6490	0	27.738	0	3023.414	0	96.2	4	28.7	4	-1E+10	1	-1E+10	1	-1E+10	1	-1E+10	1	-1E+10	1	-1E+10	1
4902643	2	C	07/11/2024	09:13	-134.100	43.750	0	3089.80	0	1.5920	0	34.6500	0	27.739	0	3042.775	0	96.8	4	28.9	4	-1E+10	1	-1E+10	1	-1E+10	1	-1E+10	1	-1E+10	1	-1E+10	1
4902643	2	C	07/11/2024	09:13	-134.100	43.750	0	3109.90	0	1.5880	0	34.6500	0	27.739	0	3062.427	0	97.4	4	29.1	4	-1E+10	1	-1E+10	1	-1E+10	1	-1E+10	1	-1E+10	1	-1E+10	1
4902643	2	C	07/11/2024	09:13	-134.100	43.750	0	3130.60	0	1.5830	0	34.6510	0	27.741	0	3082.665	0	98.2	4	29.3	4	-1E+10	1	-1E+10	1	-1E+10	1	-1E+10	1	-1E+10	1	-1E+10	1
4902643	2	C	07/11/2024	09:13	-134.100	43.750	0	3149.90	0	1.5800	0	34.6520	0	27.742	0	3101.531	0	98.7	4	29.5	4	-1E+10	1	-1E+10	1	-1E+10	1	-1E+10	1	-1E+10	1	-1E+10	1
4902643	2	C	07/11/2024	09:13	-134.100	43.750	0	3170.00	0	1.5790	0	34.6520	0	27.742	0	3121.179	0	99.1	4	29.6	4	-1E+10	1	-1E+10	1	-1E+10	1	-1E+10	1	-1E+10	1	-1E+10	1
4902643	2	C	07/11/2024	09:13	-134.100	43.750	0	3190.00	0	1.5740	0	34.6530	0	27.743	0	3140.726	0	100.0	4	29.8	4	-1E+10	1	-1E+10	1	-1E+10	1	-1E+10	1	-1E+10	1	-1E+10	1
4902643	2	C	07/11/2024	09:13	-134.100	43.750	0	3209.80	0	1.5700	0	34.6540	0	27.745	0	3160.077	0	100.5	4	30.0	4	-1E+10	1	-1E+10	1	-1E+10	1	-1E+10	1	-1E+10	1	-1E+10	1
4902643	2	C	07/11/2024	09:13	-134.100	43.750	0	3229.60	0	1.5690	0	34.6540	0	27.745	0	3179.426	0	101.1	4	30.2	4	-1E+10	1	-1E+10	1	-1E+10	1	-1E+10	1	-1E+10	1	-1E+10	1
4902643	2	C	07/11/2024	09:13	-134.100	43.750	0	3249.60	0	1.5670	0	34.6550	0	27.746	0	3198.968	0	101.7	4	30.4	4	-1E+10	1	-1E+10	1	-1E+10	1	-1E+10	1	-1E+10	1	-1E+10	1
4902643	2	C	07/11/2024	09:13	-134.100	43.750	0	3269.70	0	1.5660	0	34.6560	0	27.747	0	3218.606	0	102.2	4	30.5	4	-1E+10	1	-1E+10	1	-1E+10	1	-1E+10	1	-1E+10	1	-1E+10	1
4902643	2	C	07/11/2024	09:13	-134.100	43.750	0	3289.00	0	1.5640	0	34.6560	0	27.747	0	3237.461	0	102.7	4	30.6	4	-1E+10	1	-1E+10	1	-1E+10	1	-1E+10	1	-1E+10	1	-1E+10	1
4902643	2	C	07/11/2024	09:13	-134.100	43.750	0	3309.70	0	1.5620	0	34.6570	0	27.748	0	3257.682	0	103.2	4	30.8	4	-1E+10	1	-1E+10	1	-1E+10	1	-1E+10	1	-1E+10	1	-1E+10	1
4902643	2	C	07/11/2024	09:13	-134.100	43.750	0	3329.80	0	1.5600	0	34.6570	0	27.749	0	3277.315	0	103.6	4	30.9	4	-1E+10	1	-1E+10	1	-1E+10	1	-1E+10	1	-1E+10	1	-1E+10	1
4902643	2	C	07/11/2024	09:13	-134.100	43.750	0	3350.40	0	1.5590	0	34.6580	0	27.750	0	3297.435	0	103.9	4	31.0	4	-1E+10	1	-1E+10	1	-1E+10	1	-1E+10	1	-1E+10	1	-1E+10	1
4902643	2	C	07/11/2024	09:13	-134.100	43.750	0	3369.40	0	1.5580	0	34.6580	0	27.750	0	3315.990	0	104.3	4	31.1	4	-1E+10	1	-1E+10	1	-1E+10	1	-1E+10	1	-1E+10	1	-1E+10	1
4902643	2	C	07/11/2024	09:13	-134.100	43.750	0	3389.30	0	1.5570	0	34.6580	0	27.750	0	3335.423	0	104.6	4	31.2	4	-1E+10	1	-1E+10	1	-1E+10	1	-1E+10	1	-1E+10	1	-1E+10	1
4902643	2	C	07/11/2024	09:13	-134.100	43.750	0	3409.50	0	1.5560	0	34.6590	0	27.751	0	3355.146	0	104.9	4	31.3	4	-1E+10	1	-1E+10	1	-1E+10	1	-1E+10	1	-1E+10	1	-1E+10	1
4902643	2	C	07/11/2024	09:13	-134.100	43.750	0	3429.70	0	1.5550	0	34.6590	0	27.751	0	3374.868	0	105.4	4	31.4	4	-1E+10	1	-1E+10	1	-1E+10	1	-1E+10	1	-1E+10	1	-1E+10	1
4902643	2	C	07/11/2024	09:13	-134.100	43.750	0	3449.90	0	1.5530	0	34.6590	0	27.751	0	3394.588	0	105.8	4	31.6	4	-1E+10	1	-1E+10	1	-1E+10	1	-1E+10	1	-1E+10	1	-1E+10	1
4902643	2	C	07/11/2024	09:13	-134.100	43.750	0	3469.80	0	1.5520	0	34.6600	0	27.753	0	3414.014	0	106.2	4	31.7	4	-1E+10	1	-1E+10	1	-1E+10	1	-1E+10	1	-1E+10	1	-1E+10	1
4902643	2	C	07/11/2024	09:13	-134.100	43.750	0	3489.70	0	1.5500	0	34.6600	0	27.753	0	3433.438	0	106.6	4	31.8	4	-1E+10	1	-1E+10	1	-1E+10	1	-1E+10	1	-1E+10	1	-1E+10	1
4902643	2	C	07/11/2024	09:13	-134.100	43.750	0	3509.90	0	1.5490	0	34.6610	0	27.754	0	3453.153	0	107.0	4	31.9	4	-1E+10	1	-1E+10	1	-1E+10	1	-1E+10	1	-1E+10	1	-1E+10	1
4902643	2	C	07/11/2024	09:13	-134.100	43.750	0	3529.00	0	1.5480	0	34.6610	0	27.754	0	3471.792	0	107.4	4	32.0	4	-1E+10	1	-1E+10	1	-1E+10	1	-1E+10	1	-1E+10	1	-1E+10	1
4902643	2	C	07/11/2024	09:13	-134.100	43.750	0	3549.60	0	1.5470	0	34.6620	0	27.755	0	3491.894	0	107.8	4	32.1	4	-1E+10	1	-1E+10	1	-1E+10	1	-1E+10	1	-1E+10	1	-1E+10	1
4902643	2	C	07/11/2024	09:13	-134.100	43.750	0	3569.80	0	1.5480	0	34.6620	0	27.755	0	3511.604	0	108.0	4	32.2	4	-1E+10	1	-1E+10	1	-1E+10	1	-1E+10	1	-1E+10	1	-1E+10	1
4902643	2	C	07/11/2024	09:13	-134.100	43.750	0	3589.70	0	1.5470	0	34.6630	0	27.756	0	3531.019	0	108.4	4	32.3	4	-1E+10	1	-1E+10	1	-1E+10	1	-1E+10	1	-1E+10	1	-1E+10	1
4902643	2	C	07/11/2024	09:13	-134.100	43.750	0	3609.80	0	1.5470	0	34.6630	0	27.756	0	3550.628	0	108.7	4	32.4	4	-1E+10	1	-1E+10	1	-1E+10	1	-1E+10	1	-1E+10	1	-1E+10	1
4902643	2	C	07/11/2024	09:13	-134.100	43.750	0	3629.70	0	1.5480	0	34.6640	0	27.757	0	3570.039	0	108.9	4	32.5	4	-1E+10	1	-1E+10	1	-1E+10	1	-1E+10	1	-1E+10	1	-1E+10	1
4902643	2	C	07/11/2024	09:13	-134.100	43.750	0	3649.40	0	1.5480	0	34.6640	0	27.757	0	3589.254	0	109.1	4	32.5	4	-1E+10	1	-1E+10	1	-1E+10	1	-1E+10	1	-1E+10	1	-1E+10	1
4902643	2	C	07/11/2024	09:13	-134.100	43.750	0	3669.70	0	1.5480	0	34.6640	0	27.757	0	3609.053	0	109.3	4	32.6	4	-1E+10	1	-1E+10	1	-1E+10	1	-1E+10	1	-1E+10	1	-1E+10	1
4902643	2	C	07/11/2024	09:13	-134.100	43.750	0	3690.70	0	1.5490	0	34.6650	0	27.758	0	3629.532	0	109.5	4	32.6	4	-1E+10	1	-1E+10	1	-1E+10	1	-1E+10	1	-1E+10	1	-1E+10	1
4902643	2	C	07/11/2024	09:13	-134.100	43.750	0	3709.80	0	1.5490	0	34.6650	0	27.758	0	3648.157	0	109.7	4	32.7	4	-1E+10	1	-1E+10	1	-1E+10	1	-1E+10	1	-1E+10	1	-1E+10	1
4902643	2	C	07/11/2024	09:13	-134.100	43.750	0	3729.20	0	1.5490	0	34.6650	0	27.759	0	3667.072	0	109.9	4	32.8	4	-1E+10	1	-1E+10	1	-1E+10	1	-1E+10	1	-1E+10	1	-1E+10	1
4902643	2	C	07/11/2024	09:13	-134.100	43.750	0	3749.60	0	1.5500	0	34.6660	0	27.760	0	3686.961	0	110.1	4	32.8	4	-1E+10	1	-1E+10	1	-1E+10	1	-1E+10	1	-1E+10	1	-1E+10	1
4902643	2	C	07/11/2024	09:13	-134.100	43.750	0	3770.00	0	1.5490	0	34.6660	0	27.760	0	3706.848	0	110.5	4	32.9	4	-1E+10	1	-1E+10	1	-1E+10	1	-1E+10	1	-1E+10	1	-1E+10	1
4902643	2	C	07/11/2024	09:13	-134.100	43.750	0	3789.40	0	1.5490	0	34.6660	0	27.760	0	3725.759	0	110.6	4	33.0	4	-1E+10	1	-1E+10	1	-1E+10	1	-1E+10	1	-1E+10	1	-1E+10	1
4902643	2	C	07/11/2024	09:13	-134.100	43.750	0	3809.80	0	1.5500	0	34.6670	0	27.761	0	3745.643	0	110.6	4	33.0	4	-1E+10	1	-1E+10	1	-1E+10	1	-1E+10	1	-1E+10	1	-1E+10	1
4902643	2	C	07/11/2024	09:13	-134.100	43.750	0	3822.70	0	1.5500	0	34.6670	0	27.761	0	3758.215	0	110.0	4	32.8	4	-1E+10	1	-1E+10	1	-1E+10	1	-1E+10	1	-1E+10	1	-1E+10	1
4902643	2	C	07/11/2024	09:13	-134.100	43.750	0																										
4902643	3	C	07/21/2024	10:54	-134.040	43.801	0	2.20	0	17.2870	0	32.6240	0	23.625	0	2.182	0	228.9	4	95.0	4	-1E+10	1	-1E+10	1	-1E+10	1	-1E+10	1	-1E+10	1	-1E+10	1
4902643	3	C	07/21/2024	10:54	-134.040	43.801	0	2.30	0	17.2910	0	32.6220	0	23.623	0	2.282	0	228.8	4	95.0	4	-1E+10	1	-1E+10	1	-1E+10	1	-1E+10	1	-1E+10	1	-1E+10	1
4902643	3	C	07/21/2024	10:54	-134.040	43.801	0	2.40	0	17.2900	0	32.6220	0	23.623	0	2.381	0	-1e10	1	-1e10	1	-1E+10	1	-1E+10	1	-1E+10	1	-1E+10	1	-1E+10	1	-1E+10	1
4902643	3	C	07/21/2024	10:54	-134.040	43.801	0	2.70	0	17.3000	0	32.6160	0	23.616	0	2.678	0	229.1	4	95.1	4	-1E+10	1	-1E+10	1	-1E+10	1	-1E+10	1	-1E+10	1	-1E+10	1
4902643	3	C	07/21/2024	10:54	-134.040	43.801	0	3.40	0	17.3020	0	32.6170	0	23.616	0	3.373	0	229.3	4	95.2	4	-1E+10	1	-1E+10	1	-1E+10	1	-1E+10	1	-1E+10	1	-1E+10	1
4902643	3	C	07/21/2024	10:54	-134.040	43.801	0	4.30	0	17.3030	0	32.6230	0	23.621	0	4.266	0	229.3	4	95.2	4	-1E+10	1	-1E+10	1	-1E+10	1	-1E+10	1	-1E+10	1	-1E+10	1
4902643	3	C	07/21/2024	10:54	-134.040	43.801	0	5.40	0	17.3000	0	32.6240	0	23.622	0	5.357	0	229.4	4	95.2	4	-1E+10	1	-1E+10	1	-1E+10	1	-1E+10	1	-1E+10	1	-1E+10	1
4902643	3	C	07/21/2024	10:54	-134.040	43.801	0	6.50	0	17.2900	0	32.6270	0	23.627	0	6.448	0	229.6	4	95.3	4	-1E+10	1	-1E+10	1	-1E+10	1	-1E+10	1	-1E+10	1	-1E+10	1
4902643	3	C	07/21/2024	10:54	-134.040	43.801	0	7.40	0	17.2840	0	32.6270	0	23.628	0	7.341	0	229.8	4	95.4	4	-1E+10	1	-1E+10	1	-1E+10	1	-1E+10	1	-1E+10	1	-1E+10	1
4902643	3	C	07/21/2024	10:54	-134.040	43.801	0	8.40	0	17.2630	0	32.6270	0	23.633	0	8.333	0	230.0	4	95.4	4	-1E+10	1	-1E+10	1	-1E+10	1	-1E+10	1	-1E+10	1	-1E+10	1
4902643	3	C	07/21/2024	10:54	-134.040	43.801	0	9.30	0	17.2490	0	32.6300	0	23.639	0	9.225	0	230.2	4	95.5	4	-1E+10	1	-1E+10	1	-1E+10	1	-1E+10	1	-1E+10	1	-1E+10	1
4902643	3	C	07/21/2024	10:54	-134.040	43.801	0	15.10	0	16.8150	0	32.6340	0	23.744	0	14.979	0	234.2	4	96.3	4	-1E+10	1	-1E+10	1	-1E+10	1	-1E+10	1	-1E+10	1	-1E+10	1
4902643	3	C	07/21/2024	10:54	-134.040	43.801	0	24.70	0	15.2150	0	32.6340	0	24.104	0	24.501	0	243.9	4	97.3	4	-1E+10	1	-1E+10	1	-1E+10	1	-1E+10	1	-1E+10	1	-1E+10	1
4902643	3	C	07/21/2024	10:54	-134.040	43.801	0	35.00	0	14.3510	0	32.6210	0	24.278	0	34.717	0	249.9	4	97.9	4	-1E+10	1	-1E+10	1	-1E+10	1	-1E+10	1	-1E+10	1	-1E+10	1
4902643	3	C	07/21/2024	10:54	-134.040	43.801	0	45.60	0	13.1970	0	32.6350	0	24.524	0	45.230	0	259.5	4	99.4	4	-1E+10	1	-1E+10	1	-1E+10	1	-1E+10	1	-1E+10	1	-1E+10	1
4902643	3	C	07/21/2024	10:54	-134.040	43.801	0	55.00	0	11.7580	0	32.6740	0	24.830	0	54.552	0	261.9	4	97.4	4	-1E+10	1	-1E+10	1	-1E+10	1	-1E+10	1	-1E+10	1	-1E+10	1
4902643	3	C	07/21/2024	10:54	-134.040	43.801	0	65.70	0	10.7530	0	32.6900	0	25.022	0	65.164	0	260.0	4	94.6	4	-1E+10	1	-1E+10	1	-1E+10	1	-1E+10	1	-1E+10	1	-1E+10	1
4902643	3	C	07/21/2024	10:54	-134.040	43.801	0	75.20	0	10.3570	0	32.7010	0	25.099	0	74.584	0	257.4	4	92.9	4	-1E+10	1	-1E+10	1	-1E+10	1	-1E+10	1	-1E+10	1	-1E+10	1
4902643	3	C	07/21/2024	10:54	-134.040	43.801	0	85.20	0	10.1090	0	32.7050	0	25.144	0	84.500	0	254.9	4	91.5	4	-1E+10	1	-1E+10	1	-1E+10	1	-1E+10	1	-1E+10	1	-1E+10	1
4902643	3	C	07/21/2024	10:54	-134.040	43.801	0	95.90	0	9.8550	0	32.7180	0	25.197	0	95.110	0	252.7	4	90.3	4	-1E+10	1	-1E+10	1	-1E+10	1	-1E+10	1	-1E+10	1	-1E+10	1
4902643	3	C	07/21/2024	10:54	-134.040	43.801	0	105.10	0	9.5010	0	32.6900	0	25.232	0	104.232	0	251.5	4	89.1	4	-1E+10	1	-1E+10	1	-1E+10	1	-1E+10	1	-1E+10	1	-1E+10	1
4902643	3	C	07/21/2024	10:54	-134.040	43.801	0	114.90	0	9.2620	0	32.7140	0	25.290	0	113.948	0	244.9	4	86.3	4	-1E+10	1	-1E+10	1	-1E+10	1	-1E+10	1	-1E+10	1	-1E+10	1
4902643	3	C	07/21/2024	10:54	-134.040	43.801	0	124.70	0	9.2440	0	32.8550	0	25.403	0	123.664	0	230.6	4	81.4	4	-1E+10	1	-1E+10	1	-1E+10	1	-1E+10	1	-1E+10	1	-1E+10	1
4902643	3	C	07/21/2024	10:54	-134.040	43.801	0	134.90	0	9.0300	0	33.1040	0	25.632	0	133.776	0	217.1	4	76.4	4	-1E+10	1	-1E+10	1	-1E+10	1	-1E+10	1	-1E+10	1	-1E+10	1
4902643	3	C	07/21/2024	10:54	-134.040	43.801	0	145.60	0	8.5800	0	33.3570	0	25.899	0	144.383	0	211.3	4	73.7	4	-1E+10	1	-1E+10	1	-1E+10	1	-1E+10	1	-1E+10	1	-1E+10	1
4902643	3	C	07/21/2024	10:54	-134.040	43.801	0	154.70	0	8.3120	0	33.4690	0	26.028	0	153.404	0	209.2	4	72.6	4	-1E+10	1	-1E+10	1	-1E+10	1	-1E+10	1	-1E+10	1	-1E+10	1
4902643	3	C	07/21/2024	10:54	-134.040	43.801	0	164.50	0	7.9970	0	33.5530	0	26.141	0	163.118	0	207.6	4	71.6	4	-1E+10	1	-1E+10	1	-1E+10	1	-1E+10	1	-1E+10	1	-1E+10	1
4902643	3	C	07/21/2024	10:54	-134.040	43.801	0	174.70	0	7.7170	0	33.6090	0	26.225	0	173.228	0	205.3	4	70.4	4	-1E+10	1	-1E+10	1	-1E+10	1	-1E+10	1	-1E+10	1	-1E+10	1
4902643	3	C	07/21/2024	10:54	-134.040	43.801	0	184.80	0	7.5430	0	33.6520	0	26.284	0	183.238	0	201.8	4	68.9	4	-1E+10	1	-1E+10	1	-1E+10	1	-1E+10	1	-1E+10	1	-1E+10	1
4902643	3	C	07/21/2024	10:54	-134.040	43.801	0	194.70	0	7.4600	0	33.6970	0	26.331	0	193.050	0	197.1	4	67.2	4	-1E+10	1	-1E+10	1	-1E+10	1	-1E+10	1	-1E+10	1	-1E+10	1
4902643	3	C	07/21/2024	10:54	-134.040	43.801	0	209.50	0	7.1080	0	33.7340	0	26.410	0	207.717	0	190.0	4	64.3	4	-1E+10	1	-1E+10	1	-1E+10	1	-1E+10	1	-1E+10	1	-1E+10	1
4902643	3	C	07/21/2024	10:54	-134.040	43.801	0	229.50	0	6.8770	0	33.7830	0	26.480	0	227.536	0	175.9	4	59.2	4	-1E+10	1	-1E+10	1	-1E+10	1	-1E+10	1	-1E+10	1	-1E+10	1
4902643	3	C	07/21/2024	10:54	-134.040	43.801	0	249.10	0	6.6710	0	33.8080	0	26.527	0	246.956	0	161.3	4	54.1	4	-1E+10	1	-1E+10	1	-1E+10	1	-1E+10	1	-1E+10	1	-1E+10	1
4902643	3	C	07/21/2024	10:54	-134.040	43.801	0	269.80	0	6.4320	0	33.8200	0	26.568	0	267.465	0	146.4	4	48.8	4	-1E+10	1	-1E+10	1	-1E+10	1	-1E+10	1	-1E+10	1	-1E+10	1
4902643	3	C	07/21/2024	10:54	-134.040	43.801	0	289.70	0	6.1280	0	33.8230	0	26.610	0	287.179	0	132.2	4	43.8	4	-1E+10	1	-1E+10	1	-1E+10	1	-1E+10	1	-1E+10	1	-1E+10	1
4902643	3	C	07/21/2024	10:54	-134.040	43.801	0	309.40	0	5.8420	0	33.8290	0	26.650	0	306.693	0	118.9	4	39.1	4	-1E+10	1	-1E+10	1	-1E+10	1	-1E+10	1	-1E+10	1	-1E+10	1
4902643	3	C	07/21/2024	10:54	-134.040	43.801	0	329.60	0	5.5800	0	33.8360	0	26.688	0	326.700	0	106.9	4	35.0	4	-1E+10	1	-1E+10	1	-1E+10	1	-1E+10	1	-1E+10	1	-1E+10	1
4902643	3	C	07/21/2024	10:54	-134.040	43.801	0	350.00	0	5.3400	0	33.8530	0	26.730	0	346.904	0	94.7	4	30.8	4	-1E+10	1	-1E+10	1	-1E+10	1	-1E+10	1	-1E+10	1	-1E+10	1
4902643	3	C	07/21/2024	10:54	-134.040	43.801	0	370.50	0	5.1660	0	33.8700	0	26.764	0	367.204	0	86.1	4	27.9	4	-1E+10	1	-1E+10	1	-1E+10	1	-1E+10	1	-1E+10	1	-1E+10	1
4902643	3	C	07/21/2024	10:54	-134.040	43.801	0	389.60	0	4.9940	0	33.8860	0	26.796	0	386.116	0	78.2	4	25.2	4	-1E+10	1	-1E+10	1	-1E+10	1	-1E+10	1	-1E+10	1	-1E+10	1
4902643	3	C	07/21/2024	10:54	-134.040	43.801	0	409.60	0	4.8770	0	33.8990	0	26.820	0	405.918	0	71.7	4	23.1	4	-1E+10	1	-1E+10	1	-1E+10	1	-1E+10	1	-1E+10	1	-1E+10	1
4902643	3	C	07/21/2024	10:54	-134.040	43.801	0	429.40	0	4.7600	0	33.9200	0	26.850	0	425.520	0	64.2	4	20.6	4	-1E+10	1	-1E+10	1	-1E+10	1	-1E+10	1	-1E+10	1	-1E+10	1
4902643	3	C	07/21/2024	10:54	-134.040	43.801	0	449.20	0	4.6900	0	33.9420	0	26.875	0	445.120	0	57.6	4	18.5	4	-1E+10	1	-1E+10	1	-1E+10	1	-1E+10	1	-1E+10	1	-1E+10	1
4902643	3	C	07/21/2024	10:54	-134.040	43.801	0	469.90	0	4.6280	0	33.9660	0	26.901	0	465.608	0	51.5	4	16.5	4	-1E+10	1	-1E+10	1	-1E+10	1	-1E+10	1	-1E+10	1	-1E+10	1
4902643	3	C	07/21/2024	10:54	-134.040	43.801	0	489.90	0	4.5820	0	33.9860	0	26.922	0	485.402	0	47.0	4	15.0	4	-1E+10	1	-1E+10	1	-1E+10	1	-1E+10	1	-1E+10	1	-1E+10	1
4902643	3	C	07/21/2024	10:54	-134.040	43.801	0	510.00	0	4.5270	0	34.0030	0	26.942	0	505.293	0	43.0	4	13.7	4	-1E+10	1	-1E+10	1	-1E+10	1	-1E+10	1	-1E+10	1	-1E+10	1
4902643	3	C	07/21/2024	10:54	-134.040	43.801	0	530.10	0	4.4600	0	34.0210	0	26.963	0	525.182	0	38.7	4	12.3	4	-1E+10	1	-1E+10	1	-1E+10	1	-1E+10	1	-1E+10	1	-1E+10	1
4902643	3	C	07/21/2024	10:54	-134.040	43.801	0	549.90	0	4.4120	0	34.0370	0	26.981	0	544.773	0	35.7	4	11.4	4	-1E+10	1	-1E+10	1	-1E+10	1	-1E+10	1	-1E+10	1	-1E+10	1
4902643	3	C	07/21/2024	10:54	-134.040	43.801	0	570.50	0	4.3480	0	34.0550	0	27.003	0	565.153	0	32.6	4	10.4	4	-1E+10	1	-1E+10	1	-1E+10	1	-1E+10	1	-1E+10	1	-1E+10	1
4902643	3	C	07/21/2024	10:54	-134.040	43.801	0	589.80	0	4.2900	0	34.0740	0	27.024	0	584.245	0	30.4	4	9.6	4	-1E+10	1	-1E+10	1	-1E+10	1	-1E+10	1	-1E+10	1	-1E+10	1
4902643	3	C	07/21/2024	10:54	-134.040	43.801	0	609.60	0	4.2260	0	34.0890	0	27.043	0	603.830	0	28.3	4	9.0	4	-1E+10	1	-1E+10	1	-1E+10	1	-1E+10	1	-1E+10	1	-1E+10	1
4902643	3	C	07/21/2024	10:54	-134.040	43.801	0	629.60	0	4.1670	0	34.1020	0	27.059	0	623.610	0	26.1	4	8.3	4	-1E+10	1	-1E+10	1	-1E+10	1	-1E+10	1	-1E+10	1	-1E+10	1
4902643	3	C	07/21/2024	10:54	-134.040	43.801	0	649.80	0	4.0870	0	34.1180	0	27.081	0	643.587	0	23.9	4	7.6	4	-1E+10	1	-1E+10	1	-1E+10	1	-1E+10	1	-1E+10	1	-1E+10	1
4902643	3	C	07/21/2024	10:54	-134.040	43.801	0	670.00	0	4.0300	0	34.1330	0	27.098	0	663.562	0	21.5	4	6.8	4	-1E+10	1	-1E+10	1	-1E+10	1	-1E+10	1	-1E+10	1	-1E+10	1
4902643	3	C	07/21/2024	10:54	-134.040	43.801	0	689.70	0	3.9780	0	34.1470	0	27.115	0	683.040	0	19.4	4	6.1	4	-1E+10	1	-1E+10	1	-1E+10	1	-1E+10	1	-1E+10	1	-1E+10	1
4902643	3	C	07/21/2024	10:54	-134.040	43.801	0	709.50	0	3.9270	0	34.1640	0	27.134	0	702.616	0	17.2	4	5.4	4	-1E+10	1	-1E+10	1	-1E+10	1	-1E+10	1	-1E+10	1	-1E+10	1
4902643	3	C	07/21/2024	10:54	-134.040	43.801	0	729.60	0	3.8530	0	34.1820	0	27.156	0	722.486	0	15.4	4	4.8	4	-1E+10	1	-1E+10	1	-1E+10	1	-1E+10	1	-1E+10	1	-1E+10	1
4902643	3	C	07/21/2024	10:54	-134.040	43.801	0	749.70	0	3.8020	0	34.1980	0	27.174	0	742.354	0	13.9	4	4.4	4	-1E+10	1	-1E+10	1	-1E+10	1	-1E+10	1	-1E+10	1	-1E+10	1
4902643	3	C	07/21/2024	10:54	-134.040	43.801	0	769.70	0	3.7500	0	34.2140	0	27.192	0	762.122	0	12.6	4	4.0	4	-1E+10	1	-1E+10	1	-1E+10	1	-1E+10	1	-1E+10	1	-1E+10	1
4902643	3	C	07/21/2024	10:54	-134.040	43.801	0	789.50	0	3.7000	0	34.2280	0	27.208	0	781.690	0	11.6	4	3.6	4	-1E+10	1	-1E+10	1	-1E+10	1	-1E+10	1	-1E+10	1	-1E+10	1
4902643	3	C	07/21/2024	10:54	-134.040	43.801	0	809.50	0	3.6570	0	34.2450	0	27.226	0	801.453	0	10.4	4	3.3	4	-1E+10	1	-1E+10	1	-1E+10	1	-1E+10	1	-1E+10	1	-1E+10	1
4902643	3	C	07/21/2024	10:54	-134.040	43.801	0	829.60	0	3.6110	0	34.2570	0	27.240	0	821.314	0	9.6	4	3.0	4	-1E+10	1	-1E+10	1	-1E+10	1	-1E+10	1	-1E+10	1	-1E+10	1
4902643	3	C	07/21/2024	10:54	-134.040	43.801	0	849.00	0	3.5840	0	34.2720	0	27.255	0	840.481	0	8.7	4	2.7	4	-1E+10	1	-1E+10	1	-1E+10	1	-1E+10	1	-1E+10	1	-1E+10	1
4902643	3	C	07/21/2024	10:54	-134.040	43.801	0	869.80	0	3.5880	0	34.2900	0	27.269	0	861.030	0	8.0	4	2.5	4	-1E+10	1	-1E+10	1	-1E+10	1	-1E+10	1	-1E+10	1	-1E+10	1
4902643	3	C	07/21/2024	10:54	-134.040	43.801	0	890.00	0	3.5460	0	34.3000	0	27.281	0	880.984	0	7.8	4	2.4	4	-1E+10	1	-1E+10	1	-1E+10	1	-1E+10	1	-1E+10	1	-1E+10	1
4902643	3	C	07/21/2024	10:54	-134.040	43.801	0	910.80	0	3.5090	0	34.3110	0	27.294	0	901.528	0	7.5	4	2.3	4	-1E+10	1	-1E+10	1	-1E+10	1	-1E+10	1	-1E+10	1	-1E+10	1
4902643	3	C	07/21/2024	10:54	-134.040	43.801	0	930.00	0	3.5070	0	34.3280	0	27.307	0	920.490	0	7.2	4	2.2	4	-1E+10	1	-1E+10	1	-1E+10	1	-1E+10	1	-1E+10	1	-1E+10	1
4902643	3	C	07/21/2024	10:54	-134.040	43.801	0	949.80	0	3.4820	0	34.3390	0	27.319	0	940.044	0	7.1	4	2.2	4	-1E+10	1	-1E+10	1	-1E+10	1	-1E+10	1	-1E+10	1	-1E+10	1
4902643	3	C	07/21/2024	10:54	-134.040	43.801	0	969.90	0	3.4630	0	34.3530	0	27.332	0	959.891	0	7.1	4	2.2	4	-1E+10	1	-1E+10	1	-1E+10	1	-1E+10	1	-1E+10	1	-1E+10	1
4902643	3	C	07/21/2024	10:54	-134.040	43.801	0	990.60	0	3.4660	0	34.3670	0	27.343	0	980.329	0	7.2	4	2.3	4	-1E+10	1	-1E+10	1	-1E+10	1	-1E+10	1	-1E+10	1	-1E+10	1
4902643	3	C	07/21/2024	10:54	-134.040	43.801	0	1009.90	0	3.4190	0	34.3750	0	27.354	0	999.383	0	7.4	4	2.3	4	-1E+10	1	-1E+10	1	-1E+10	1	-1E+10	1	-1E+10	1	-1E+10	1
4902643	3	C	07/21/2024	10:54	-134.040	43.801	0	1029.80	0	3.3590	0	34.3810	0	27.364	0	1019.027	0	7.6	4	2.4	4	-1E+10	1	-1E+10	1	-1E+10	1	-1E+10	1	-1E+10	1	-1E+10	1
4902643	3	C	07/21/2024	10:54	-134.040	43.801	0	1049.70	0	3.3260	0	34.3920	0	27.376	0	1038.670	0	8.0	4	2.5	4	-1E+10	1	-1E+10	1	-1E+10	1	-1E+10	1	-1E+10	1	-1E+10	1
4902643	3	C	07/21/2024	10:54	-134.040	43.801	0	1069.70	0	3.2990	0	34.4040	0	27.389	0	1058.409	0	8.4	4	2.6	4	-1E+10	1	-1E+10	1	-1E+10	1	-1E+10	1	-1E+10	1	-1E+10	1
4902643	3	C	07/21/2024	10:54	-134.040	43.801	0	1089.60	0	3.2480	0	34.4090	0	27.398	0	1078.048	0	8.5	4	2.6	4	-1E+10	1	-1E+10	1	-1E+10	1	-1E+10	1	-1E+10	1	-1E+10	1
4902643	3	C	07/21/2024	10:54	-134.040	43.801	0	1109.60	0	3.2090	0	34.4130	0	27.405	0	1097.784	0	8.8	4	2.7	4	-1E+10	1	-1E+10	1	-1E+10	1	-1E+10	1	-1E+10	1	-1E+10	1
4902643	3	C	07/21/2024	10:54	-134.040	43.801	0	1129.40	0	3.1800	0	34.4200	0	27.413	0	1117.320	0	8.9	4	2.8	4	-1E+10	1	-1E+10	1	-1E+10	1	-1E+10	1	-1E+10	1	-1E+10	1
4902643	3	C	07/21/2024	10:54	-134.040	43.801	0	1149.70	0	3.1210	0	34.4210	0	27.419	0	1137.348	0	9.1	4	2.8	4	-1E+10	1	-1E+10	1	-1E+10	1	-1E+10	1	-1E+10	1	-1E+10	1
4902643	3	C	07/21/2024	10:54	-134.040	43.801	0	1169.80	0	3.0900	0	34.4280	0	27.428	0	1157.177	0	9.7	4	3.0	4	-1E+10	1	-1E+10	1	-1E+10	1	-1E+10	1	-1E+10	1	-1E+10	1
4902643	3	C	07/21/2024	10:54	-134.040	43.801	0	1189.40	0	3.0730	0	34.4360	0	27.436	0	1176.511	0	10.2	4	3.2	4	-1E+10	1	-1E+10	1	-1E+10	1	-1E+10	1	-1E+10	1	-1E+10	1
4902643	3	C	07/21/2024	10:54	-134.040	43.801	0	1209.30	0	3.0360	0	34.4410	0	27.443	0	1196.139	0	10.7	4	3.3	4	-1E+10	1	-1E+10	1	-1E+10	1	-1E+10	1	-1E+10	1	-1E+10	1
4902643	3	C	07/21/2024	10:54	-134.040	43.801	0	1229.30	0	2.9930	0	34.4490	0	27.454	0	1215.863	0	11.6	4	3.6	4	-1E+10	1	-1E+10	1	-1E+10	1	-1E+10	1	-1E+10	1	-1E+10	1
4902643	3	C	07/21/2024	10:54	-134.040	43.801	0	1249.40	0	2.9470	0	34.4560	0	27.464	0	1235.684	0	12.3	4	3.8	4	-1E+10	1	-1E+10	1	-1E+10	1	-1E+10	1	-1E+10	1	-1E+10	1
4902643	3	C	07/21/2024	10:54	-134.040	43.801	0	1269.50	0	2.9150	0	34.4610	0	27.470	0	1255.504	0	12.9	4	4.0	4	-1E+10	1	-1E+10	1	-1E+10	1	-1E+10	1	-1E+10	1	-1E+10	1
4902643	3	C	07/21/2024	10:54	-134.040	43.801	0	1289.90	0	2.8770	0	34.4660	0	27.478	0	1275.617	0	13.6	4	4.2	4	-1E+10	1	-1E+10	1	-1E+10	1	-1E+10	1	-1E+10	1	-1E+10	1
4902643	3	C	07/21/2024	10:54	-134.040	43.801	0	1310.00	0	2.8450	0	34.4710	0	27.485	0	1295.433	0	14.5	4	4.5	4	-1E+10	1	-1E+10	1	-1E+10	1	-1E+10	1	-1E+10	1	-1E+10	1
4902643	3	C	07/21/2024	10:54	-134.040	43.801	0	1329.60	0	2.8090	0	34.4760	0	27.492	0	1314.754	0	15.4	4	4.7	4	-1E+10	1	-1E+10	1	-1E+10	1	-1E+10	1	-1E+10	1	-1E+10	1
4902643	3	C	07/21/2024	10:54	-134.040	43.801	0	1350.30	0	2.7720	0	34.4810	0	27.500	0	1335.157	0	16.4	4	5.0	4	-1E+10	1	-1E+10	1	-1E+10	1	-1E+10	1	-1E+10	1	-1E+10	1
4902643	3	C	07/21/2024	10:54	-134.040	43.801	0	1369.40	0	2.7300	0	34.4870	0	27.508	0	1353.982	0	17.6	4	5.4	4	-1E+10	1	-1E+10	1	-1E+10	1	-1E+10	1	-1E+10	1	-1E+10	1
4902643	3	C	07/21/2024	10:54	-134.040	43.801	0	1390.10	0	2.6960	0	34.4930	0	27.516	0	1374.381	0	18.8	4	5.8	4	-1E+10	1	-1E+10	1	-1E+10	1	-1E+10	1	-1E+10	1	-1E+10	1
4902643	3	C	07/21/2024	10:54	-134.040	43.801	0	1409.60	0	2.6590	0	34.4980	0	27.523	0	1393.596	0	19.9	4	6.1	4	-1E+10	1	-1E+10	1	-1E+10	1	-1E+10	1	-1E+10	1	-1E+10	1
4902643	3	C	07/21/2024	10:54	-134.040	43.801	0	1429.80	0	2.6220	0	34.5020	0	27.530	0	1413.499	0	21.1	4	6.5	4	-1E+10	1	-1E+10	1	-1E+10	1	-1E+10	1	-1E+10	1	-1E+10	1
4902643	3	C	07/21/2024	10:54	-134.040	43.801	0	1449.90	0	2.5870	0	34.5070	0	27.537	0	1433.302	0	22.2	4	6.8	4	-1E+10	1	-1E+10	1	-1E+10	1	-1E+10	1	-1E+10	1	-1E+10	1
4902643	3	C	07/21/2024	10:54	-134.040	43.801	0	1470.00	0	2.5530	0	34.5110	0	27.543	0	1453.103	0	23.4	4	7.2	4	-1E+10	1	-1E+10	1	-1E+10	1	-1E+10	1	-1E+10	1	-1E+10	1
4902643	3	C	07/21/2024	10:54	-134.040	43.801	0	1490.00	0	2.5220	0	34.5160	0	27.550	0	1472.803	0	24.6	4	7.5	4	-1E+10	1	-1E+10	1	-1E+10	1	-1E+10	1	-1E+10	1	-1E+10	1
4902643	3	C	07/21/2024	10:54	-134.040	43.801	0	1509.80	0	2.4900	0	34.5200	0	27.556	0	1492.305	0	25.8	4	7.9	4	-1E+10	1	-1E+10	1	-1E+10	1	-1E+10	1	-1E+10	1	-1E+10	1
4902643	3	C	07/21/2024	10:54	-134.040	43.801	0	1529.80	0	2.4530	0	34.5250	0	27.563	0	1512.001	0	27.2	4	8.3	4	-1E+10	1	-1E+10	1	-1E+10	1	-1E+10	1	-1E+10	1	-1E+10	1
4902643	3	C	07/21/2024	10:54	-134.040	43.801	0	1549.20	0	2.4240	0	34.5280	0	27.568	0	1531.105	0	28.3	4	8.6	4	-1E+10	1	-1E+10	1	-1E+10	1	-1E+10	1	-1E+10	1	-1E+10	1
4902643	3	C	07/21/2024	10:54	-134.040	43.801	0	1570.00	0	2.3970	0	34.5320	0	27.573	0	1551.586	0	29.4	4	9.0	4	-1E+10	1	-1E+10	1	-1E+10	1	-1E+10	1	-1E+10	1	-1E+10	1
4902643	3	C	07/21/2024	10:54	-134.040	43.801	0	1590.00	0	2.3740	0	34.5350	0	27.578	0	1571.278	0	30.4	4	9.3	4	-1E+10	1	-1E+10	1	-1E+10	1	-1E+10	1	-1E+10	1	-1E+10	1
4902643	3	C	07/21/2024	10:54	-134.040	43.801	0	1610.00	0	2.3480	0	34.5380	0	27.582	0	1590.967	0	31.6	4	9.6	4	-1E+10	1	-1E+10	1	-1E+10	1	-1E+10	1	-1E+10	1	-1E+10	1
4902643	3	C	07/21/2024	10:54	-134.040	43.801	0	1629.80	0	2.3200	0	34.5410	0	27.587	0	1610.458	0	32.9	4	10.0	4	-1E+10	1	-1E+10	1	-1E+10	1	-1E+10	1	-1E+10	1	-1E+10	1
4902643	3	C	07/21/2024	10:54	-134.040	43.801	0	1650.00	0	2.2910	0	34.5450	0	27.593	0	1630.340	0	34.3	4	10.4	4	-1E+10	1	-1E+10	1	-1E+10	1	-1E+10	1	-1E+10	1	-1E+10	1
4902643	3	C	07/21/2024	10:54	-134.040	43.801	0	1669.90	0	2.2600	0	34.5500	0	27.599	0	1649.926	0	35.7	4	10.8	4	-1E+10	1	-1E+10	1	-1E+10	1	-1E+10	1	-1E+10	1	-1E+10	1
4902643	3	C	07/21/2024	10:54	-134.040	43.801	0	1689.80	0	2.2350	0	34.5530	0	27.604	0	1669.509	0	37.0	4	11.2	4	-1E+10	1	-1E+10	1	-1E+10	1	-1E+10	1	-1E+10	1	-1E+10	1
4902643	3	C	07/21/2024	10:54	-134.040	43.801	0	1709.60	0	2.2110	0	34.5560	0	27.608	0	1688.993	0	38.2	4	11.6	4	-1E+10	1	-1E+10	1	-1E+10	1	-1E+10	1	-1E+10	1	-1E+10	1
4902643	3	C	07/21/2024	10:54	-134.040	43.801	0	1729.50	0	2.1860	0	34.5600	0	27.614	0	1708.573	0	39.5	4	12.0	4	-1E+10	1	-1E+10	1	-1E+10	1	-1E+10	1	-1E+10	1	-1E+10	1
4902643	3	C	07/21/2024	10:54	-134.040	43.801	0	1749.50	0	2.1650	0	34.5630	0	27.618	0	1728.249	0	40.7	4	12.3	4	-1E+10	1	-1E+10	1	-1E+10	1	-1E+10	1	-1E+10	1	-1E+10	1
4902643	3	C	07/21/2024	10:54	-134.040	43.801	0	1769.40	0	2.1450	0	34.5650	0	27.621	0	1747.826	0	41.9	4	12.7	4	-1E+10	1	-1E+10	1	-1E+10	1	-1E+10	1	-1E+10	1	-1E+10	1
4902643	3	C	07/21/2024	10:54	-134.040	43.801	0	1789.50	0	2.1230	0	34.5690	0	27.626	0	1767.597	0	43.1	4	13.0	4	-1E+10	1	-1E+10	1	-1E+10	1	-1E+10	1	-1E+10	1	-1E+10	1
4902643	3	C	07/21/2024	10:54	-134.040	43.801	0	1809.70	0	2.1010	0	34.5720	0	27.630	0	1787.465	0	44.5	4	13.4	4	-1E+10	1	-1E+10	1	-1E+10	1	-1E+10	1	-1E+10	1	-1E+10	1
4902643	3	C	07/21/2024	10:54	-134.040	43.801	0	1830.20	0	2.0820	0	34.5750	0	27.634	0	1807.626	0	45.6	4	13.8	4	-1E+10	1	-1E+10	1	-1E+10	1	-1E+10	1	-1E+10	1	-1E+10	1
4902643	3	C	07/21/2024	10:54	-134.040	43.801	0	1849.60	0	2.0680	0	34.5780	0	27.638	0	1826.703	0	46.6	4	14.1	4	-1E+10	1	-1E+10	1	-1E+10	1	-1E+10	1	-1E+10	1	-1E+10	1
4902643	3	C	07/21/2024	10:54	-134.040	43.801	0	1869.60	0	2.0510	0	34.5800	0	27.641	0	1846.369	0	47.9	4	14.5	4	-1E+10	1	-1E+10	1	-1E+10	1	-1E+10	1	-1E+10	1	-1E+10	1
4902643	3	C	07/21/2024	10:54	-134.040	43.801	0	1889.80	0	2.0360	0	34.5830	0	27.645	0	1866.229	0	49.0	4	14.8	4	-1E+10	1	-1E+10	1	-1E+10	1	-1E+10	1	-1E+10	1	-1E+10	1
4902643	3	C	07/21/2024	10:54	-134.040	43.801	0	1910.00	0	2.0190	0	34.5850	0	27.648	0	1886.088	0	50.3	4	15.2	4	-1E+10	1	-1E+10	1	-1E+10	1	-1E+10	1	-1E+10	1	-1E+10	1
4902643	3	C	07/21/2024	10:54	-134.040	43.801	0	1930.10	0	2.0030	0	34.5880	0	27.652	0	1905.846	0	51.6	4	15.6	4	-1E+10	1	-1E+10	1	-1E+10	1	-1E+10	1	-1E+10	1	-1E+10	1
4902643	3	C	07/21/2024	10:54	-134.040	43.801	0	1949.80	0	1.9870	0	34.5900	0	27.655	0	1925.210	0	52.9	4	16.0	4	-1E+10	1	-1E+10	1	-1E+10	1	-1E+10	1	-1E+10	1	-1E+10	1
4902643	3	C	07/21/2024	10:54	-134.040	43.801	0	1970.20	0	1.9700	0	34.5930	0	27.658	0	1945.259	0	54.2	4	16.3	4	-1E+10	1	-1E+10	1	-1E+10	1	-1E+10	1	-1E+10	1	-1E+10	1
4902643	3	C	07/21/2024	10:54	-134.040	43.801	0	1989.40	0	1.9570	0	34.5950	0	27.661	0	1964.128	0	55.4	4	16.7	4	-1E+10	1	-1E+10	1	-1E+10	1	-1E+10	1	-1E+10	1	-1E+10	1
4902643	3	C	07/21/2024	10:54	-134.040	43.801	0	2009.80	0	1.9400	0	34.5980	4	27.665	0	1984.174	0	56.7	4	17.1	4	-1E+10	1	-1E+10	1	-1E+10	1	-1E+10	1	-1E+10	1	-1E+10	1
4902643	3	C	07/21/2024	10:54	-134.040	43.801	0	2029.80	0	1.9250	0	34.5990	4	27.667	0	2003.825	0	57.7	4	17.4	4	-1E+10	1	-1E+10	1	-1E+10	1	-1E+10	1	-1E+10	1	-1E+10	1
4902643	3	C	07/21/2024	10:54	-134.040	43.801	0	2050.40	0	1.9120	0	34.6000	4	27.669	0	2024.064	0	58.9	4	17.7	4	-1E+10	1	-1E+10	1	-1E+10	1	-1E+10	1	-1E+10	1	-1E+10	1
4902643	3	C	07/21/2024	10:54	-134.040	43.801	0	2069.90	0	1.8960	0	34.6020	4	27.672	0	2043.220	0	59.9	4	18.0	4	-1E+10	1	-1E+10	1	-1E+10	1	-1E+10	1	-1E+10	1	-1E+10	1
4902643	3	C	07/21/2024	10:54	-134.040	43.801	0	2090.10	0	1.8870	0	34.6040	4	27.674	0	2063.062	0	60.7	4	18.3	4	-1E+10	1	-1E+10	1	-1E+10	1	-1E+10	1	-1E+10	1	-1E+10	1
4902643	3	C	07/21/2024	10:54	-134.040	43.801	0	2110.00	0	1.8790	0	34.6060	4	27.677	0	2082.608	0	61.6	4	18.5	4	-1E+10	1	-1E+10	1	-1E+10	1	-1E+10	1	-1E+10	1	-1E+10	1
4902643	3	C	07/21/2024	10:54	-134.040	43.801	0	2129.70	0	1.8700	0	34.6080	4	27.679	0	2101.955	0	62.6	4	18.8	4	-1E+10	1	-1E+10	1	-1E+10	1	-1E+10	1	-1E+10	1	-1E+10	1
4902643	3	C	07/21/2024	10:54	-134.040	43.801	0	2149.80	0	1.8600	0	34.6090	4	27.681	0	2121.693	0	63.4	4	19.1	4	-1E+10	1	-1E+10	1	-1E+10	1	-1E+10	1	-1E+10	1	-1E+10	1
4902643	3	C	07/21/2024	10:54	-134.040	43.801	0	2169.90	0	1.8500	0	34.6110	4	27.683	0	2141.430	0	64.5	4	19.4	4	-1E+10	1	-1E+10	1	-1E+10	1	-1E+10	1	-1E+10	1	-1E+10	1
4902643	3	C	07/21/2024	10:54	-134.040	43.801	0	2189.70	0	1.8410	0	34.6120	4	27.685	0	2160.870	0	65.1	4	19.6	4	-1E+10	1	-1E+10	1	-1E+10	1	-1E+10	1	-1E+10	1	-1E+10	1
4902643	3	C	07/21/2024	10:54	-134.040	43.801	0	2209.40	0	1.8340	0	34.6130	4	27.686	0	2180.210	0	65.8	4	19.8	4	-1E+10	1	-1E+10	1	-1E+10	1	-1E+10	1	-1E+10	1	-1E+10	1
4902643	3	C	07/21/2024	10:54	-134.040	43.801	0	2230.30	0	1.8250	0	34.6140	4	27.688	0	2200.727	0	66.6	4	20.0	4	-1E+10	1	-1E+10	1	-1E+10	1	-1E+10	1	-1E+10	1	-1E+10	1
4902643	3	C	07/21/2024	10:54	-134.040	43.801	0	2249.70	0	1.8170	0	34.6160	4	27.690	0	2219.769	0	67.4	4	20.2	4	-1E+10	1	-1E+10	1	-1E+10	1	-1E+10	1	-1E+10	1	-1E+10	1
4902643	3	C	07/21/2024	10:54	-134.040	43.801	0	2270.40	0	1.8070	0	34.6170	4	27.692	0	2240.085	0	68.3	4	20.5	4	-1E+10	1	-1E+10	1	-1E+10	1	-1E+10	1	-1E+10	1	-1E+10	1
4902643	3	C	07/21/2024	10:54	-134.040	43.801	0	2289.90	0	1.7990	0	34.6180	4	27.693	0	2259.222	0	69.1	4	20.7	4	-1E+10	1	-1E+10	1	-1E+10	1	-1E+10	1	-1E+10	1	-1E+10	1
4902643	3	C	07/21/2024	10:54	-134.040	43.801	0	2310.30	0	1.7950	0	34.6190	4	27.694	0	2279.240	0	69.7	4	20.9	4	-1E+10	1	-1E+10	1	-1E+10	1	-1E+10	1	-1E+10	1	-1E+10	1
4902643	3	C	07/21/2024	10:54	-134.040	43.801	0	2330.80	0	1.7900	0	34.6210	4	27.697	0	2299.355	0	70.3	4	21.1	4	-1E+10	1	-1E+10	1	-1E+10	1	-1E+10	1	-1E+10	1	-1E+10	1
4902643	3	C	07/21/2024	10:54	-134.040	43.801	0	2350.10	0	1.7840	0	34.6210	4	27.697	0	2318.290	0	71.1	4	21.3	4	-1E+10	1	-1E+10	1	-1E+10	1	-1E+10	1	-1E+10	1	-1E+10	1
4902643	3	C	07/21/2024	10:54	-134.040	43.801	0	2369.90	0	1.7770	0	34.6230	4	27.699	0	2337.714	0	71.9	4	21.6	4	-1E+10	1	-1E+10	1	-1E+10	1	-1E+10	1	-1E+10	1	-1E+10	1
4902643	3	C	07/21/2024	10:54	-134.040	43.801	0	2389.90	0	1.7700	0	34.6240	4	27.701	0	2357.333	0	72.7	4	21.8	4	-1E+10	1	-1E+10	1	-1E+10	1	-1E+10	1	-1E+10	1	-1E+10	1
4902643	3	C	07/21/2024	10:54	-134.040	43.801	0	2410.80	0	1.7620	0	34.6250	4	27.702	0	2377.832	0	73.4	4	22.0	4	-1E+10	1	-1E+10	1	-1E+10	1	-1E+10	1	-1E+10	1	-1E+10	1
4902643	3	C	07/21/2024	10:54	-134.040	43.801	0	2430.10	0	1.7570	0	34.6250	4	27.703	0	2396.761	0	74.0	4	22.2	4	-1E+10	1	-1E+10	1	-1E+10	1	-1E+10	1	-1E+10	1	-1E+10	1
4902643	3	C	07/21/2024	10:54	-134.040	43.801	0	2449.90	0	1.7490	0	34.6260	4	27.704	0	2416.178	0	74.8	4	22.4	4	-1E+10	1	-1E+10	1	-1E+10	1	-1E+10	1	-1E+10	1	-1E+10	1
4902643	3	C	07/21/2024	10:54	-134.040	43.801	0	2470.00	0	1.7410	0	34.6270	4	27.706	0	2435.887	0	75.6	4	22.7	4	-1E+10	1	-1E+10	1	-1E+10	1	-1E+10	1	-1E+10	1	-1E+10	1
4902643	3	C	07/21/2024	10:54	-134.040	43.801	0	2490.00	0	1.7350	0	34.6280	4	27.707	0	2455.497	0	76.2	4	22.8	4	-1E+10	1	-1E+10	1	-1E+10	1	-1E+10	1	-1E+10	1	-1E+10	1
4902643	3	C	07/21/2024	10:54	-134.040	43.801	0	2509.50	0	1.7300	0	34.6290	4	27.709	0	2474.614	0	76.8	4	23.0	4	-1E+10	1	-1E+10	1	-1E+10	1	-1E+10	1	-1E+10	1	-1E+10	1
4902643	3	C	07/21/2024	10:54	-134.040	43.801	0	2529.90	0	1.7240	0	34.6300	4	27.710	0	2494.612	0	77.4	4	23.2	4	-1E+10	1	-1E+10	1	-1E+10	1	-1E+10	1	-1E+10	1	-1E+10	1
4902643	3	C	07/21/2024	10:54	-134.040	43.801	0	2550.30	0	1.7180	0	34.6310	4	27.711	0	2514.609	0	78.1	4	23.4	4	-1E+10	1	-1E+10	1	-1E+10	1	-1E+10	1	-1E+10	1	-1E+10	1
4902643	3	C	07/21/2024	10:54	-134.040	43.801	0	2570.80	0	1.7110	0	34.6310	4	27.712	0	2534.701	0	78.8	4	23.6	4	-1E+10	1	-1E+10	1	-1E+10	1	-1E+10	1	-1E+10	1	-1E+10	1
4902643	3	C	07/21/2024	10:54	-134.040	43.801	0	2590.10	0	1.7070	0	34.6320	4	27.713	0	2553.616	0	79.3	4	23.8	4	-1E+10	1	-1E+10	1	-1E+10	1	-1E+10	1	-1E+10	1	-1E+10	1
4902643	3	C	07/21/2024	10:54	-134.040	43.801	0	2609.80	0	1.7050	0	34.6320	4	27.713	0	2572.921	0	79.7	4	23.9	4	-1E+10	1	-1E+10	1	-1E+10	1	-1E+10	1	-1E+10	1	-1E+10	1
4902643	3	C	07/21/2024	10:54	-134.040	43.801	0	2630.00	0	1.7010	0	34.6330	4	27.715	0	2592.714	0	80.3	4	24.1	4	-1E+10	1	-1E+10	1	-1E+10	1	-1E+10	1	-1E+10	1	-1E+10	1
4902643	3	C	07/21/2024	10:54	-134.040	43.801	0	2650.00	0	1.6960	0	34.6340	4	27.716	0	2612.309	0	81.1	4	24.3	4	-1E+10	1	-1E+10	1	-1E+10	1	-1E+10	1	-1E+10	1	-1E+10	1
4902643	3	C	07/21/2024	10:54	-134.040	43.801	0	2670.00	0	1.6900	0	34.6350	4	27.717	0	2631.903	0	81.8	4	24.5	4	-1E+10	1	-1E+10	1	-1E+10	1	-1E+10	1	-1E+10	1	-1E+10	1
4902643	3	C	07/21/2024	10:54	-134.040	43.801	0	2690.00	0	1.6840	0	34.6360	4	27.719	0	2651.494	0	82.6	4	24.7	4	-1E+10	1	-1E+10	1	-1E+10	1	-1E+10	1	-1E+10	1	-1E+10	1
4902643	3	C	07/21/2024	10:54	-134.040	43.801	0	2710.00	0	1.6760	0	34.6370	4	27.720	0	2671.084	0	83.5	4	25.0	4	-1E+10	1	-1E+10	1	-1E+10	1	-1E+10	1	-1E+10	1	-1E+10	1
4902643	3	C	07/21/2024	10:54	-134.040	43.801	0	2729.90	0	1.6710	0	34.6380	4	27.721	0	2690.574	0	84.3	4	25.2	4	-1E+10	1	-1E+10	1	-1E+10	1	-1E+10	1	-1E+10	1	-1E+10	1
4902643	3	C	07/21/2024	10:54	-134.040	43.801	0	2749.90	0	1.6650	0	34.6390	4	27.723	0	2710.161	0	85.2	4	25.5	4	-1E+10	1	-1E+10	1	-1E+10	1	-1E+10	1	-1E+10	1	-1E+10	1
4902643	3	C	07/21/2024	10:54	-134.040	43.801	0	2770.20	0	1.6580	0	34.6400	4	27.724	0	2730.039	0	86.0	4	25.7	4	-1E+10	1	-1E+10	1	-1E+10	1	-1E+10	1	-1E+10	1	-1E+10	1
4902643	3	C	07/21/2024	10:54	-134.040	43.801	0	2790.70	0	1.6520	0	34.6400	4	27.725	0	2750.112	0	86.8	4	25.9	4	-1E+10	1	-1E+10	1	-1E+10	1	-1E+10	1	-1E+10	1	-1E+10	1
4902643	3	C	07/21/2024	10:54	-134.040	43.801	0	2810.10	0	1.6480	0	34.6410	4	27.726	0	2769.105	0	87.4	4	26.1	4	-1E+10	1	-1E+10	1	-1E+10	1	-1E+10	1	-1E+10	1	-1E+10	1
4902643	3	C	07/21/2024	10:54	-134.040	43.801	0	2829.90	0	1.6450	0	34.6420	4	27.727	0	2788.489	0	87.9	4	26.3	4	-1E+10	1	-1E+10	1	-1E+10	1	-1E+10	1	-1E+10	1	-1E+10	1
4902643	3	C	07/21/2024	10:54	-134.040	43.801	0	2849.70	0	1.6420	0	34.6420	4	27.727	0	2807.870	0	88.4	4	26.4	4	-1E+10	1	-1E+10	1	-1E+10	1	-1E+10	1	-1E+10	1	-1E+10	1
4902643	3	C	07/21/2024	10:54	-134.040	43.801	0	2869.90	0	1.6400	0	34.6430	4	27.729	0	2827.642	0	88.9	4	26.6	4	-1E+10	1	-1E+10	1	-1E+10	1	-1E+10	1	-1E+10	1	-1E+10	1
4902643	3	C	07/21/2024	10:54	-134.040	43.801	0	2890.20	0	1.6370	0	34.6430	4	27.729	0	2847.509	0	89.6	4	26.8	4	-1E+10	1	-1E+10	1	-1E+10	1	-1E+10	1	-1E+10	1	-1E+10	1
4902643	3	C	07/21/2024	10:54	-134.040	43.801	0	2910.20	0	1.6320	0	34.6440	4	27.730	0	2867.082	0	90.3	4	27.0	4	-1E+10	1	-1E+10	1	-1E+10	1	-1E+10	1	-1E+10	1	-1E+10	1
4902643	3	C	07/21/2024	10:54	-134.040	43.801	0	2930.50	0	1.6290	0	34.6450	4	27.731	0	2886.946	0	90.9	4	27.2	4	-1E+10	1	-1E+10	1	-1E+10	1	-1E+10	1	-1E+10	1	-1E+10	1
4902643	3	C	07/21/2024	10:54	-134.040	43.801	0	2949.80	0	1.6250	0	34.6460	4	27.733	0	2905.829	0	91.6	4	27.4	4	-1E+10	1	-1E+10	1	-1E+10	1	-1E+10	1	-1E+10	1	-1E+10	1
4902643	3	C	07/21/2024	10:54	-134.040	43.801	0	2970.20	0	1.6210	0	34.6470	4	27.734	0	2925.788	0	92.4	4	27.6	4	-1E+10	1	-1E+10	1	-1E+10	1	-1E+10	1	-1E+10	1	-1E+10	1
4902643	3	C	07/21/2024	10:54	-134.040	43.801	0	2989.90	0	1.6150	0	34.6480	4	27.735	0	2945.059	0	93.1	4	27.8	4	-1E+10	1	-1E+10	1	-1E+10	1	-1E+10	1	-1E+10	1	-1E+10	1
4902643	3	C	07/21/2024	10:54	-134.040	43.801	0	3009.50	0	1.6120	0	34.6480	4	27.736	0	2964.231	0	93.7	4	28.0	4	-1E+10	1	-1E+10	1	-1E+10	1	-1E+10	1	-1E+10	1	-1E+10	1
4902643	3	C	07/21/2024	10:54	-134.040	43.801	0	3029.90	0	1.6080	0	34.6490	4	27.737	0	2984.184	0	94.4	4	28.2	4	-1E+10	1	-1E+10	1	-1E+10	1	-1E+10	1	-1E+10	1	-1E+10	1
4902643	3	C	07/21/2024	10:54	-134.040	43.801	0	3050.50	0	1.6000	0	34.6500	4	27.738	0	3004.331	0	95.3	4	28.5	4	-1E+10	1	-1E+10	1	-1E+10	1	-1E+10	1	-1E+10	1	-1E+10	1
4902643	3	C	07/21/2024	10:54	-134.040	43.801	0	3069.90	0	1.5960	0	34.6500	4	27.739	0	3023.302	0	95.9	4	28.7	4	-1E+10	1	-1E+10	1	-1E+10	1	-1E+10	1	-1E+10	1	-1E+10	1
4902643	3	C	07/21/2024	10:54	-134.040	43.801	0	3089.70	0	1.5930	0	34.6510	4	27.740	0	3042.663	0	96.8	4	28.9	4	-1E+10	1	-1E+10	1	-1E+10	1	-1E+10	1	-1E+10	1	-1E+10	1
4902643	3	C	07/21/2024	10:54	-134.040	43.801	0	3109.90	0	1.5880	0	34.6520	4	27.741	0	3062.413	0	97.6	4	29.1	4	-1E+10	1	-1E+10	1	-1E+10	1	-1E+10	1	-1E+10	1	-1E+10	1
4902643	3	C	07/21/2024	10:54	-134.040	43.801	0	3129.80	0	1.5860	0	34.6530	4	27.742	0	3081.868	0	98.2	4	29.3	4	-1E+10	1	-1E+10	1	-1E+10	1	-1E+10	1	-1E+10	1	-1E+10	1
4902643	3	C	07/21/2024	10:54	-134.040	43.801	0	3149.80	0	1.5830	0	34.6530	4	27.743	0	3101.419	0	98.7	4	29.5	4	-1E+10	1	-1E+10	1	-1E+10	1	-1E+10	1	-1E+10	1	-1E+10	1
4902643	3	C	07/21/2024	10:54	-134.040	43.801	0	3169.80	0	1.5820	0	34.6540	4	27.744	0	3120.969	0	98.9	4	29.5	4	-1E+10	1	-1E+10	1	-1E+10	1	-1E+10	1	-1E+10	1	-1E+10	1
4902643	3	C	07/21/2024	10:54	-134.040	43.801	0	3189.70	0	1.5770	0	34.6540	4	27.744	0	3140.418	0	99.3	4	29.6	4	-1E+10	1	-1E+10	1	-1E+10	1	-1E+10	1	-1E+10	1	-1E+10	1
4902643	3	C	07/21/2024	10:54	-134.040	43.801	0	3209.90	0	1.5750	0	34.6540	4	27.744	0	3160.160	0	99.8	4	29.8	4	-1E+10	1	-1E+10	1	-1E+10	1	-1E+10	1	-1E+10	1	-1E+10	1
4902643	3	C	07/21/2024	10:54	-134.040	43.801	0	3230.30	0	1.5730	0	34.6550	4	27.745	0	3180.095	0	100.4	4	30.0	4	-1E+10	1	-1E+10	1	-1E+10	1	-1E+10	1	-1E+10	1	-1E+10	1
4902643	3	C	07/21/2024	10:54	-134.040	43.801	0	3249.80	0	1.5690	0	34.6550	4	27.746	0	3199.148	0	101.0	4	30.1	4	-1E+10	1	-1E+10	1	-1E+10	1	-1E+10	1	-1E+10	1	-1E+10	1
4902643	3	C	07/21/2024	10:54	-134.040	43.801	0	3270.00	0	1.5650	0	34.6560	4	27.747	0	3218.884	0	101.5	4	30.3	4	-1E+10	1	-1E+10	1	-1E+10	1	-1E+10	1	-1E+10	1	-1E+10	1
4902643	3	C	07/21/2024	10:54	-134.040	43.801	0	3290.10	0	1.5630	0	34.6560	4	27.747	0	3238.521	0	102.0	4	30.4	4	-1E+10	1	-1E+10	1	-1E+10	1	-1E+10	1	-1E+10	1	-1E+10	1
4902643	3	C	07/21/2024	10:54	-134.040	43.801	0	3310.30	0	1.5610	0	34.6570	4	27.748	0	3258.253	0	102.6	4	30.6	4	-1E+10	1	-1E+10	1	-1E+10	1	-1E+10	1	-1E+10	1	-1E+10	1
4902643	3	C	07/21/2024	10:54	-134.040	43.801	0	3330.20	0	1.5590	0	34.6580	4	27.749	0	3277.691	0	103.1	4	30.8	4	-1E+10	1	-1E+10	1	-1E+10	1	-1E+10	1	-1E+10	1	-1E+10	1
4902643	3	C	07/21/2024	10:54	-134.040	43.801	0	3350.00	0	1.5570	0	34.6580	4	27.750	0	3297.029	0	103.5	4	30.9	4	-1E+10	1	-1E+10	1	-1E+10	1	-1E+10	1	-1E+10	1	-1E+10	1
4902643	3	C	07/21/2024	10:54	-134.040	43.801	0	3370.00	0	1.5560	0	34.6580	4	27.750	0	3316.561	0	104.0	4	31.0	4	-1E+10	1	-1E+10	1	-1E+10	1	-1E+10	1	-1E+10	1	-1E+10	1
4902643	3	C	07/21/2024	10:54	-134.040	43.801	0	3390.30	0	1.5540	0	34.6590	4	27.751	0	3336.384	0	104.5	4	31.2	4	-1E+10	1	-1E+10	1	-1E+10	1	-1E+10	1	-1E+10	1	-1E+10	1
4902643	3	C	07/21/2024	10:54	-134.040	43.801	0	3409.80	0	1.5530	0	34.6590	4	27.751	0	3355.424	0	104.9	4	31.3	4	-1E+10	1	-1E+10	1	-1E+10	1	-1E+10	1	-1E+10	1	-1E+10	1
4902643	3	C	07/21/2024	10:54	-134.040	43.801	0	3429.90	0	1.5510	0	34.6600	4	27.752	0	3375.048	0	105.5	4	31.5	4	-1E+10	1	-1E+10	1	-1E+10	1	-1E+10	1	-1E+10	1	-1E+10	1
4902643	3	C	07/21/2024	10:54	-134.040	43.801	0	3449.90	0	1.5490	0	34.6610	4	27.753	0	3394.572	0	105.9	4	31.6	4	-1E+10	1	-1E+10	1	-1E+10	1	-1E+10	1	-1E+10	1	-1E+10	1
4902643	3	C	07/21/2024	10:54	-134.040	43.801	0	3470.00	0	1.5480	0	34.6610	4	27.754	0	3414.193	0	106.4	4	31.7	4	-1E+10	1	-1E+10	1	-1E+10	1	-1E+10	1	-1E+10	1	-1E+10	1
4902643	3	C	07/21/2024	10:54	-134.040	43.801	0	3490.10	0	1.5470	0	34.6620	4	27.755	0	3433.812	0	106.7	4	31.8	4	-1E+10	1	-1E+10	1	-1E+10	1	-1E+10	1	-1E+10	1	-1E+10	1
4902643	3	C	07/21/2024	10:54	-134.040	43.801	0	3510.20	0	1.5460	0	34.6620	4	27.755	0	3453.429	0	107.1	4	32.0	4	-1E+10	1	-1E+10	1	-1E+10	1	-1E+10	1	-1E+10	1	-1E+10	1
4902643	3	C	07/21/2024	10:54	-134.040	43.801	0	3530.30	0	1.5470	0	34.6630	4	27.756	0	3473.045	0	107.3	4	32.0	4	-1E+10	1	-1E+10	1	-1E+10	1	-1E+10	1	-1E+10	1	-1E+10	1
4902643	3	C	07/21/2024	10:54	-134.040	43.801	0	3550.10	0	1.5470	0	34.6630	4	27.756	0	3492.366	0	107.6	4	32.1	4	-1E+10	1	-1E+10	1	-1E+10	1	-1E+10	1	-1E+10	1	-1E+10	1
4902643	3	C	07/21/2024	10:54	-134.040	43.801	0	3570.00	0	1.5450	0	34.6640	4	27.757	0	3511.783	0	108.1	4	32.2	4	-1E+10	1	-1E+10	1	-1E+10	1	-1E+10	1	-1E+10	1	-1E+10	1
4902643	3	C	07/21/2024	10:54	-134.040	43.801	0	3590.00	0	1.5450	0	34.6640	4	27.757	0	3531.295	0	108.4	4	32.3	4	-1E+10	1	-1E+10	1	-1E+10	1	-1E+10	1	-1E+10	1	-1E+10	1
4902643	3	C	07/21/2024	10:54	-134.040	43.801	0	3610.10	0	1.5450	0	34.6650	4	27.758	0	3550.904	0	108.7	4	32.4	4	-1E+10	1	-1E+10	1	-1E+10	1	-1E+10	1	-1E+10	1	-1E+10	1
4902643	3	C	07/21/2024	10:54	-134.040	43.801	0	3629.80	0	1.5450	0	34.6650	4	27.758	0	3570.120	0	108.9	4	32.5	4	-1E+10	1	-1E+10	1	-1E+10	1	-1E+10	1	-1E+10	1	-1E+10	1
4902643	3	C	07/21/2024	10:54	-134.040	43.801	0	3650.10	0	1.5450	0	34.6650	4	27.758	0	3589.920	0	109.1	4	32.5	4	-1E+10	1	-1E+10	1	-1E+10	1	-1E+10	1	-1E+10	1	-1E+10	1
4902643	3	C	07/21/2024	10:54	-134.040	43.801	0	3669.80	0	1.5450	0	34.6660	4	27.759	0	3609.133	0	109.3	4	32.6	4	-1E+10	1	-1E+10	1	-1E+10	1	-1E+10	1	-1E+10	1	-1E+10	1
4902643	3	C	07/21/2024	10:54	-134.040	43.801	0	3689.90	0	1.5460	0	34.6660	4	27.759	0	3628.735	0	109.5	4	32.7	4	-1E+10	1	-1E+10	1	-1E+10	1	-1E+10	1	-1E+10	1	-1E+10	1
4902643	3	C	07/21/2024	10:54	-134.040	43.801	0	3710.20	0	1.5460	0	34.6670	4	27.760	0	3648.530	0	109.7	4	32.7	4	-1E+10	1	-1E+10	1	-1E+10	1	-1E+10	1	-1E+10	1	-1E+10	1
4902643	3	C	07/21/2024	10:54	-134.040	43.801	0	3730.30	0	1.5470	0	34.6670	4	27.760	0	3668.128	0	109.8	4	32.7	4	-1E+10	1	-1E+10	1	-1E+10	1	-1E+10	1	-1E+10	1	-1E+10	1
4902643	3	C	07/21/2024	10:54	-134.040	43.801	0	3749.90	0	1.5470	0	34.6670	4	27.761	0	3687.236	0	109.9	4	32.8	4	-1E+10	1	-1E+10	1	-1E+10	1	-1E+10	1	-1E+10	1	-1E+10	1
4902643	3	C	07/21/2024	10:54	-134.040	43.801	0	3769.90	0	1.5470	0	34.6670	4	27.761	0	3706.733	0	110.0	4	32.8	4	-1E+10	1	-1E+10	1	-1E+10	1	-1E+10	1	-1E+10	1	-1E+10	1
4902643	3	C	07/21/2024	10:54	-134.040	43.801	0	3790.50	0	1.5480	0	34.6680	4	27.762	0	3726.814	0	109.7	4	32.7	4	-1E+10	1	-1E+10	1	-1E+10	1	-1E+10	1	-1E+10	1	-1E+10	1
4902643	3	C	07/21/2024	10:54	-134.040	43.801	0	3800.40	0	1.5490	0	34.6680	4	27.762	0	3736.463	0	109.0	4	32.5	4	-1E+10	1	-1E+10	1	-1E+10	1	-1E+10	1	-1E+10	1	-1E+10	1
4902643	3	C	07/21/2024	10:54	-134.040	43.801	0																										
4902643	4	C	07/31/2024	09:18	-134.028	43.825	0	2.10	0	17.7080	0	32.6550	0	23.549	0	2.083	0	226.6	4	94.8	4	-1E+10	1	-1E+10	1	-1E+10	1	-1E+10	1	-1E+10	1	-1E+10	1
4902643	4	C	07/31/2024	09:18	-134.028	43.825	0	2.60	0	17.7090	0	32.6520	0	23.546	0	2.579	0	226.6	4	94.8	4	-1E+10	1	-1E+10	1	-1E+10	1	-1E+10	1	-1E+10	1	-1E+10	1
4902643	4	C	07/31/2024	09:18	-134.028	43.825	0	2.70	0	17.7100	0	32.6540	0	23.547	0	2.678	0	-1e10	1	-1e10	1	-1E+10	1	-1E+10	1	-1E+10	1	-1E+10	1	-1E+10	1	-1E+10	1
4902643	4	C	07/31/2024	09:18	-134.028	43.825	0	2.90	0	17.7190	0	32.6460	0	23.539	0	2.877	0	226.6	4	94.8	4	-1E+10	1	-1E+10	1	-1E+10	1	-1E+10	1	-1E+10	1	-1E+10	1
4902643	4	C	07/31/2024	09:18	-134.028	43.825	0	3.70	0	17.7190	0	32.6500	0	23.542	0	3.670	0	226.6	4	94.8	4	-1E+10	1	-1E+10	1	-1E+10	1	-1E+10	1	-1E+10	1	-1E+10	1
4902643	4	C	07/31/2024	09:18	-134.028	43.825	0	4.80	0	17.7150	0	32.6570	0	23.548	0	4.761	0	226.6	4	94.8	4	-1E+10	1	-1E+10	1	-1E+10	1	-1E+10	1	-1E+10	1	-1E+10	1
4902643	4	C	07/31/2024	09:18	-134.028	43.825	0	5.70	0	17.7130	0	32.6560	0	23.548	0	5.654	0	226.4	4	94.7	4	-1E+10	1	-1E+10	1	-1E+10	1	-1E+10	1	-1E+10	1	-1E+10	1
4902643	4	C	07/31/2024	09:18	-134.028	43.825	0	6.90	0	17.6850	0	32.6610	0	23.559	0	6.845	0	226.6	4	94.8	4	-1E+10	1	-1E+10	1	-1E+10	1	-1E+10	1	-1E+10	1	-1E+10	1
4902643	4	C	07/31/2024	09:18	-134.028	43.825	0	7.60	0	17.6670	0	32.6540	0	23.558	0	7.539	0	226.8	4	94.8	4	-1E+10	1	-1E+10	1	-1E+10	1	-1E+10	1	-1E+10	1	-1E+10	1
4902643	4	C	07/31/2024	09:18	-134.028	43.825	0	8.40	0	17.6080	0	32.6670	0	23.582	0	8.333	0	226.8	4	94.7	4	-1E+10	1	-1E+10	1	-1E+10	1	-1E+10	1	-1E+10	1	-1E+10	1
4902643	4	C	07/31/2024	09:18	-134.028	43.825	0	9.40	0	17.5680	0	32.6570	0	23.584	0	9.324	0	227.2	4	94.8	4	-1E+10	1	-1E+10	1	-1E+10	1	-1E+10	1	-1E+10	1	-1E+10	1
4902643	4	C	07/31/2024	09:18	-134.028	43.825	0	14.90	0	17.4060	0	32.6540	0	23.620	0	14.780	0	230.4	4	95.8	4	-1E+10	1	-1E+10	1	-1E+10	1	-1E+10	1	-1E+10	1	-1E+10	1
4902643	4	C	07/31/2024	09:18	-134.028	43.825	0	24.30	0	16.5190	0	32.6460	0	23.822	0	24.104	0	243.3	4	99.5	4	-1E+10	1	-1E+10	1	-1E+10	1	-1E+10	1	-1E+10	1	-1E+10	1
4902643	4	C	07/31/2024	09:18	-134.028	43.825	0	35.10	0	14.1770	0	32.6380	0	24.327	0	34.816	0	257.0	4	100.4	4	-1E+10	1	-1E+10	1	-1E+10	1	-1E+10	1	-1E+10	1	-1E+10	1
4902643	4	C	07/31/2024	09:18	-134.028	43.825	0	44.10	0	13.4370	0	32.6450	0	24.484	0	43.742	0	258.8	4	99.6	4	-1E+10	1	-1E+10	1	-1E+10	1	-1E+10	1	-1E+10	1	-1E+10	1
4902643	4	C	07/31/2024	09:18	-134.028	43.825	0	54.30	0	11.3340	0	32.6540	0	24.891	0	53.858	0	262.9	4	96.9	4	-1E+10	1	-1E+10	1	-1E+10	1	-1E+10	1	-1E+10	1	-1E+10	1
4902643	4	C	07/31/2024	09:18	-134.028	43.825	0	64.90	0	10.1750	0	32.6640	0	25.101	0	64.370	0	261.1	4	93.9	4	-1E+10	1	-1E+10	1	-1E+10	1	-1E+10	1	-1E+10	1	-1E+10	1
4902643	4	C	07/31/2024	09:18	-134.028	43.825	0	74.60	0	9.8610	0	32.6530	0	25.144	0	73.989	0	259.2	4	92.5	4	-1E+10	1	-1E+10	1	-1E+10	1	-1E+10	1	-1E+10	1	-1E+10	1
4902643	4	C	07/31/2024	09:18	-134.028	43.825	0	84.70	0	9.6430	0	32.6590	0	25.185	0	84.004	0	255.0	4	90.6	4	-1E+10	1	-1E+10	1	-1E+10	1	-1E+10	1	-1E+10	1	-1E+10	1
4902643	4	C	07/31/2024	09:18	-134.028	43.825	0	95.00	0	9.2660	0	32.6610	0	25.247	0	94.217	0	250.9	4	88.4	4	-1E+10	1	-1E+10	1	-1E+10	1	-1E+10	1	-1E+10	1	-1E+10	1
4902643	4	C	07/31/2024	09:18	-134.028	43.825	0	105.00	0	8.9460	0	32.6850	0	25.316	0	104.132	0	244.6	4	85.6	4	-1E+10	1	-1E+10	1	-1E+10	1	-1E+10	1	-1E+10	1	-1E+10	1
4902643	4	C	07/31/2024	09:18	-134.028	43.825	0	114.90	0	8.9860	0	32.8260	0	25.420	0	113.948	0	230.1	4	80.7	4	-1E+10	1	-1E+10	1	-1E+10	1	-1E+10	1	-1E+10	1	-1E+10	1
4902643	4	C	07/31/2024	09:18	-134.028	43.825	0	125.00	0	9.0120	0	33.0920	0	25.625	0	123.961	0	216.9	4	76.3	4	-1E+10	1	-1E+10	1	-1E+10	1	-1E+10	1	-1E+10	1	-1E+10	1
4902643	4	C	07/31/2024	09:18	-134.028	43.825	0	135.10	0	8.7220	0	33.3070	0	25.838	0	133.974	0	210.9	4	73.8	4	-1E+10	1	-1E+10	1	-1E+10	1	-1E+10	1	-1E+10	1	-1E+10	1
4902643	4	C	07/31/2024	09:18	-134.028	43.825	0	144.20	0	8.3680	0	33.4990	0	26.043	0	142.995	0	207.4	4	72.1	4	-1E+10	1	-1E+10	1	-1E+10	1	-1E+10	1	-1E+10	1	-1E+10	1
4902643	4	C	07/31/2024	09:18	-134.028	43.825	0	155.00	0	8.0730	0	33.6060	0	26.171	0	153.701	0	205.1	4	70.9	4	-1E+10	1	-1E+10	1	-1E+10	1	-1E+10	1	-1E+10	1	-1E+10	1
4902643	4	C	07/31/2024	09:18	-134.028	43.825	0	164.60	0	7.7730	0	33.6550	0	26.253	0	163.217	0	202.1	4	69.4	4	-1E+10	1	-1E+10	1	-1E+10	1	-1E+10	1	-1E+10	1	-1E+10	1
4902643	4	C	07/31/2024	09:18	-134.028	43.825	0	175.20	0	7.6030	0	33.7010	0	26.314	0	173.723	0	197.7	4	67.7	4	-1E+10	1	-1E+10	1	-1E+10	1	-1E+10	1	-1E+10	1	-1E+10	1
4902643	4	C	07/31/2024	09:18	-134.028	43.825	0	184.50	0	7.5970	0	33.7580	0	26.360	0	182.940	0	193.2	4	66.1	4	-1E+10	1	-1E+10	1	-1E+10	1	-1E+10	1	-1E+10	1	-1E+10	1
4902643	4	C	07/31/2024	09:18	-134.028	43.825	0	194.60	0	7.4360	0	33.7650	0	26.388	0	192.950	0	190.5	4	65.0	4	-1E+10	1	-1E+10	1	-1E+10	1	-1E+10	1	-1E+10	1	-1E+10	1
4902643	4	C	07/31/2024	09:18	-134.028	43.825	0	209.90	0	7.1780	0	33.7730	0	26.431	0	208.113	0	184.5	4	62.6	4	-1E+10	1	-1E+10	1	-1E+10	1	-1E+10	1	-1E+10	1	-1E+10	1
4902643	4	C	07/31/2024	09:18	-134.028	43.825	0	229.90	0	6.9260	0	33.7900	0	26.479	0	227.932	0	176.5	4	59.5	4	-1E+10	1	-1E+10	1	-1E+10	1	-1E+10	1	-1E+10	1	-1E+10	1
4902643	4	C	07/31/2024	09:18	-134.028	43.825	0	249.70	0	6.6020	0	33.7930	0	26.525	0	247.550	0	163.6	4	54.8	4	-1E+10	1	-1E+10	1	-1E+10	1	-1E+10	1	-1E+10	1	-1E+10	1
4902643	4	C	07/31/2024	09:18	-134.028	43.825	0	269.40	0	6.2720	0	33.8010	0	26.574	0	267.068	0	147.0	4	48.8	4	-1E+10	1	-1E+10	1	-1E+10	1	-1E+10	1	-1E+10	1	-1E+10	1
4902643	4	C	07/31/2024	09:18	-134.028	43.825	0	288.90	0	6.1270	0	33.8220	0	26.609	0	286.386	0	132.0	4	43.7	4	-1E+10	1	-1E+10	1	-1E+10	1	-1E+10	1	-1E+10	1	-1E+10	1
4902643	4	C	07/31/2024	09:18	-134.028	43.825	0	309.70	0	5.7620	0	33.8270	0	26.659	0	306.989	0	115.6	4	38.0	4	-1E+10	1	-1E+10	1	-1E+10	1	-1E+10	1	-1E+10	1	-1E+10	1
4902643	4	C	07/31/2024	09:18	-134.028	43.825	0	329.50	0	5.5220	0	33.8370	0	26.696	0	326.600	0	105.5	4	34.5	4	-1E+10	1	-1E+10	1	-1E+10	1	-1E+10	1	-1E+10	1	-1E+10	1
4902643	4	C	07/31/2024	09:18	-134.028	43.825	0	349.60	0	5.3500	0	33.8480	0	26.725	0	346.507	0	96.8	4	31.5	4	-1E+10	1	-1E+10	1	-1E+10	1	-1E+10	1	-1E+10	1	-1E+10	1
4902643	4	C	07/31/2024	09:18	-134.028	43.825	0	370.00	0	5.2250	0	33.8610	0	26.750	0	366.708	0	90.1	4	29.2	4	-1E+10	1	-1E+10	1	-1E+10	1	-1E+10	1	-1E+10	1	-1E+10	1
4902643	4	C	07/31/2024	09:18	-134.028	43.825	0	390.00	0	5.1080	0	33.8750	0	26.775	0	386.512	0	83.3	4	26.9	4	-1E+10	1	-1E+10	1	-1E+10	1	-1E+10	1	-1E+10	1	-1E+10	1
4902643	4	C	07/31/2024	09:18	-134.028	43.825	0	409.60	0	4.9660	0	33.8900	0	26.803	0	405.917	0	76.7	4	24.7	4	-1E+10	1	-1E+10	1	-1E+10	1	-1E+10	1	-1E+10	1	-1E+10	1
4902643	4	C	07/31/2024	09:18	-134.028	43.825	0	429.20	0	4.8580	0	33.9030	0	26.825	0	425.321	0	70.6	4	22.7	4	-1E+10	1	-1E+10	1	-1E+10	1	-1E+10	1	-1E+10	1	-1E+10	1
4902643	4	C	07/31/2024	09:18	-134.028	43.825	0	449.50	0	4.7780	0	33.9150	0	26.844	0	445.416	0	65.4	4	21.0	4	-1E+10	1	-1E+10	1	-1E+10	1	-1E+10	1	-1E+10	1	-1E+10	1
4902643	4	C	07/31/2024	09:18	-134.028	43.825	0	469.70	0	4.6940	0	33.9330	0	26.868	0	465.409	0	58.1	4	18.6	4	-1E+10	1	-1E+10	1	-1E+10	1	-1E+10	1	-1E+10	1	-1E+10	1
4902643	4	C	07/31/2024	09:18	-134.028	43.825	0	489.70	0	4.6100	0	33.9630	0	26.901	0	485.203	0	51.0	4	16.3	4	-1E+10	1	-1E+10	1	-1E+10	1	-1E+10	1	-1E+10	1	-1E+10	1
4902643	4	C	07/31/2024	09:18	-134.028	43.825	0	510.10	0	4.5380	0	33.9900	0	26.930	0	505.391	0	45.5	4	14.5	4	-1E+10	1	-1E+10	1	-1E+10	1	-1E+10	1	-1E+10	1	-1E+10	1
4902643	4	C	07/31/2024	09:18	-134.028	43.825	0	529.80	0	4.4800	0	34.0100	0	26.953	0	524.884	0	39.3	4	12.5	4	-1E+10	1	-1E+10	1	-1E+10	1	-1E+10	1	-1E+10	1	-1E+10	1
4902643	4	C	07/31/2024	09:18	-134.028	43.825	0	549.80	0	4.4100	0	34.0350	0	26.980	0	544.673	0	34.5	4	11.0	4	-1E+10	1	-1E+10	1	-1E+10	1	-1E+10	1	-1E+10	1	-1E+10	1
4902643	4	C	07/31/2024	09:18	-134.028	43.825	0	570.00	0	4.3490	0	34.0550	0	27.003	0	564.657	0	31.1	4	9.9	4	-1E+10	1	-1E+10	1	-1E+10	1	-1E+10	1	-1E+10	1	-1E+10	1
4902643	4	C	07/31/2024	09:18	-134.028	43.825	0	589.80	0	4.2860	0	34.0740	0	27.024	0	584.244	0	28.0	4	8.9	4	-1E+10	1	-1E+10	1	-1E+10	1	-1E+10	1	-1E+10	1	-1E+10	1
4902643	4	C	07/31/2024	09:18	-134.028	43.825	0	609.50	0	4.2220	0	34.0930	0	27.046	0	603.729	0	25.0	4	7.9	4	-1E+10	1	-1E+10	1	-1E+10	1	-1E+10	1	-1E+10	1	-1E+10	1
4902643	4	C	07/31/2024	09:18	-134.028	43.825	0	629.30	0	4.1600	0	34.1110	0	27.067	0	623.312	0	22.7	4	7.2	4	-1E+10	1	-1E+10	1	-1E+10	1	-1E+10	1	-1E+10	1	-1E+10	1
4902643	4	C	07/31/2024	09:18	-134.028	43.825	0	649.60	0	4.0900	0	34.1270	0	27.087	0	643.388	0	21.3	4	6.7	4	-1E+10	1	-1E+10	1	-1E+10	1	-1E+10	1	-1E+10	1	-1E+10	1
4902643	4	C	07/31/2024	09:18	-134.028	43.825	0	670.00	0	4.0120	0	34.1420	0	27.107	0	663.560	0	19.8	4	6.2	4	-1E+10	1	-1E+10	1	-1E+10	1	-1E+10	1	-1E+10	1	-1E+10	1
4902643	4	C	07/31/2024	09:18	-134.028	43.825	0	689.90	0	3.9470	0	34.1580	0	27.127	0	683.236	0	18.0	4	5.7	4	-1E+10	1	-1E+10	1	-1E+10	1	-1E+10	1	-1E+10	1	-1E+10	1
4902643	4	C	07/31/2024	09:18	-134.028	43.825	0	709.80	0	3.9000	0	34.1710	0	27.142	0	702.911	0	16.5	4	5.2	4	-1E+10	1	-1E+10	1	-1E+10	1	-1E+10	1	-1E+10	1	-1E+10	1
4902643	4	C	07/31/2024	09:18	-134.028	43.825	0	729.60	0	3.8440	0	34.1860	0	27.160	0	722.484	0	15.1	4	4.7	4	-1E+10	1	-1E+10	1	-1E+10	1	-1E+10	1	-1E+10	1	-1E+10	1
4902643	4	C	07/31/2024	09:18	-134.028	43.825	0	749.30	0	3.7930	0	34.2010	0	27.177	0	741.957	0	13.5	4	4.2	4	-1E+10	1	-1E+10	1	-1E+10	1	-1E+10	1	-1E+10	1	-1E+10	1
4902643	4	C	07/31/2024	09:18	-134.028	43.825	0	769.30	0	3.7420	0	34.2190	0	27.197	0	761.725	0	12.0	4	3.8	4	-1E+10	1	-1E+10	1	-1E+10	1	-1E+10	1	-1E+10	1	-1E+10	1
4902643	4	C	07/31/2024	09:18	-134.028	43.825	0	790.30	0	3.7030	0	34.2350	0	27.213	0	782.478	0	10.7	4	3.4	4	-1E+10	1	-1E+10	1	-1E+10	1	-1E+10	1	-1E+10	1	-1E+10	1
4902643	4	C	07/31/2024	09:18	-134.028	43.825	0	809.90	0	3.6540	0	34.2520	0	27.232	0	801.847	0	9.9	4	3.1	4	-1E+10	1	-1E+10	1	-1E+10	1	-1E+10	1	-1E+10	1	-1E+10	1
4902643	4	C	07/31/2024	09:18	-134.028	43.825	0	829.60	0	3.5970	0	34.2650	0	27.248	0	821.312	0	9.3	4	2.9	4	-1E+10	1	-1E+10	1	-1E+10	1	-1E+10	1	-1E+10	1	-1E+10	1
4902643	4	C	07/31/2024	09:18	-134.028	43.825	0	849.70	0	3.5430	0	34.2770	0	27.263	0	841.171	0	8.6	4	2.7	4	-1E+10	1	-1E+10	1	-1E+10	1	-1E+10	1	-1E+10	1	-1E+10	1
4902643	4	C	07/31/2024	09:18	-134.028	43.825	0	869.40	0	3.5160	0	34.2920	0	27.277	0	860.633	0	8.0	4	2.5	4	-1E+10	1	-1E+10	1	-1E+10	1	-1E+10	1	-1E+10	1	-1E+10	1
4902643	4	C	07/31/2024	09:18	-134.028	43.825	0	889.80	0	3.5010	0	34.3080	0	27.292	0	880.784	0	7.5	4	2.3	4	-1E+10	1	-1E+10	1	-1E+10	1	-1E+10	1	-1E+10	1	-1E+10	1
4902643	4	C	07/31/2024	09:18	-134.028	43.825	0	909.70	0	3.4940	0	34.3240	0	27.305	0	900.440	0	7.2	4	2.2	4	-1E+10	1	-1E+10	1	-1E+10	1	-1E+10	1	-1E+10	1	-1E+10	1
4902643	4	C	07/31/2024	09:18	-134.028	43.825	0	929.40	0	3.4560	0	34.3350	0	27.318	0	919.896	0	7.1	4	2.2	4	-1E+10	1	-1E+10	1	-1E+10	1	-1E+10	1	-1E+10	1	-1E+10	1
4902643	4	C	07/31/2024	09:18	-134.028	43.825	0	949.40	0	3.4180	0	34.3470	0	27.331	0	939.646	0	7.1	4	2.2	4	-1E+10	1	-1E+10	1	-1E+10	1	-1E+10	1	-1E+10	1	-1E+10	1
4902643	4	C	07/31/2024	09:18	-134.028	43.825	0	969.70	0	3.3940	0	34.3630	0	27.346	0	959.691	0	7.1	4	2.2	4	-1E+10	1	-1E+10	1	-1E+10	1	-1E+10	1	-1E+10	1	-1E+10	1
4902643	4	C	07/31/2024	09:18	-134.028	43.825	0	989.70	0	3.3170	0	34.3630	0	27.354	0	979.438	0	7.3	4	2.3	4	-1E+10	1	-1E+10	1	-1E+10	1	-1E+10	1	-1E+10	1	-1E+10	1
4902643	4	C	07/31/2024	09:18	-134.028	43.825	0	1009.40	0	3.2950	0	34.3720	0	27.363	0	998.887	0	7.5	4	2.3	4	-1E+10	1	-1E+10	1	-1E+10	1	-1E+10	1	-1E+10	1	-1E+10	1
4902643	4	C	07/31/2024	09:18	-134.028	43.825	0	1029.50	0	3.2810	0	34.3820	0	27.373	0	1018.729	0	7.6	4	2.4	4	-1E+10	1	-1E+10	1	-1E+10	1	-1E+10	1	-1E+10	1	-1E+10	1
4902643	4	C	07/31/2024	09:18	-134.028	43.825	0	1049.80	0	3.2220	0	34.3870	0	27.382	0	1038.766	0	7.8	4	2.4	4	-1E+10	1	-1E+10	1	-1E+10	1	-1E+10	1	-1E+10	1	-1E+10	1
4902643	4	C	07/31/2024	09:18	-134.028	43.825	0	1069.70	0	3.2200	0	34.3990	0	27.392	0	1058.407	0	8.2	4	2.5	4	-1E+10	1	-1E+10	1	-1E+10	1	-1E+10	1	-1E+10	1	-1E+10	1
4902643	4	C	07/31/2024	09:18	-134.028	43.825	0	1090.30	0	3.1940	0	34.4120	0	27.405	0	1078.737	0	8.6	4	2.7	4	-1E+10	1	-1E+10	1	-1E+10	1	-1E+10	1	-1E+10	1	-1E+10	1
4902643	4	C	07/31/2024	09:18	-134.028	43.825	0	1109.80	0	3.1520	0	34.4200	0	27.415	0	1097.979	0	8.9	4	2.8	4	-1E+10	1	-1E+10	1	-1E+10	1	-1E+10	1	-1E+10	1	-1E+10	1
4902643	4	C	07/31/2024	09:18	-134.028	43.825	0	1129.70	0	3.1030	0	34.4240	0	27.423	0	1117.614	0	9.2	4	2.8	4	-1E+10	1	-1E+10	1	-1E+10	1	-1E+10	1	-1E+10	1	-1E+10	1
4902643	4	C	07/31/2024	09:18	-134.028	43.825	0	1149.70	0	3.0720	0	34.4310	0	27.432	0	1137.346	0	9.7	4	3.0	4	-1E+10	1	-1E+10	1	-1E+10	1	-1E+10	1	-1E+10	1	-1E+10	1
4902643	4	C	07/31/2024	09:18	-134.028	43.825	0	1169.80	0	3.0360	0	34.4400	0	27.442	0	1157.175	0	10.4	4	3.2	4	-1E+10	1	-1E+10	1	-1E+10	1	-1E+10	1	-1E+10	1	-1E+10	1
4902643	4	C	07/31/2024	09:18	-134.028	43.825	0	1189.50	0	3.0070	0	34.4460	0	27.450	0	1176.607	0	11.0	4	3.4	4	-1E+10	1	-1E+10	1	-1E+10	1	-1E+10	1	-1E+10	1	-1E+10	1
4902643	4	C	07/31/2024	09:18	-134.028	43.825	0	1210.20	0	2.9730	0	34.4520	0	27.458	0	1197.023	0	11.6	4	3.6	4	-1E+10	1	-1E+10	1	-1E+10	1	-1E+10	1	-1E+10	1	-1E+10	1
4902643	4	C	07/31/2024	09:18	-134.028	43.825	0	1229.70	0	2.9420	0	34.4570	0	27.465	0	1216.255	0	12.2	4	3.8	4	-1E+10	1	-1E+10	1	-1E+10	1	-1E+10	1	-1E+10	1	-1E+10	1
4902643	4	C	07/31/2024	09:18	-134.028	43.825	0	1249.70	0	2.9050	0	34.4620	0	27.472	0	1235.977	0	13.0	4	4.0	4	-1E+10	1	-1E+10	1	-1E+10	1	-1E+10	1	-1E+10	1	-1E+10	1
4902643	4	C	07/31/2024	09:18	-134.028	43.825	0	1269.60	0	2.8680	0	34.4680	0	27.480	0	1255.600	0	13.8	4	4.2	4	-1E+10	1	-1E+10	1	-1E+10	1	-1E+10	1	-1E+10	1	-1E+10	1
4902643	4	C	07/31/2024	09:18	-134.028	43.825	0	1289.40	0	2.8410	0	34.4720	0	27.486	0	1275.121	0	14.5	4	4.4	4	-1E+10	1	-1E+10	1	-1E+10	1	-1E+10	1	-1E+10	1	-1E+10	1
4902643	4	C	07/31/2024	09:18	-134.028	43.825	0	1309.50	0	2.8130	0	34.4760	0	27.492	0	1294.937	0	15.2	4	4.7	4	-1E+10	1	-1E+10	1	-1E+10	1	-1E+10	1	-1E+10	1	-1E+10	1
4902643	4	C	07/31/2024	09:18	-134.028	43.825	0	1329.80	0	2.7780	0	34.4810	0	27.499	0	1314.948	0	16.1	4	4.9	4	-1E+10	1	-1E+10	1	-1E+10	1	-1E+10	1	-1E+10	1	-1E+10	1
4902643	4	C	07/31/2024	09:18	-134.028	43.825	0	1349.80	0	2.7460	0	34.4850	0	27.505	0	1334.661	0	17.0	4	5.2	4	-1E+10	1	-1E+10	1	-1E+10	1	-1E+10	1	-1E+10	1	-1E+10	1
4902643	4	C	07/31/2024	09:18	-134.028	43.825	0	1369.60	0	2.7140	0	34.4900	0	27.512	0	1354.176	0	18.2	4	5.6	4	-1E+10	1	-1E+10	1	-1E+10	1	-1E+10	1	-1E+10	1	-1E+10	1
4902643	4	C	07/31/2024	09:18	-134.028	43.825	0	1389.60	0	2.6790	0	34.4960	0	27.520	0	1373.885	0	19.5	4	6.0	4	-1E+10	1	-1E+10	1	-1E+10	1	-1E+10	1	-1E+10	1	-1E+10	1
4902643	4	C	07/31/2024	09:18	-134.028	43.825	0	1410.00	0	2.6550	0	34.5000	0	27.525	0	1393.987	0	20.4	4	6.2	4	-1E+10	1	-1E+10	1	-1E+10	1	-1E+10	1	-1E+10	1	-1E+10	1
4902643	4	C	07/31/2024	09:18	-134.028	43.825	0	1429.50	0	2.6190	0	34.5040	0	27.532	0	1413.201	0	21.2	4	6.5	4	-1E+10	1	-1E+10	1	-1E+10	1	-1E+10	1	-1E+10	1	-1E+10	1
4902643	4	C	07/31/2024	09:18	-134.028	43.825	0	1449.50	0	2.5860	0	34.5080	0	27.538	0	1432.905	0	22.3	4	6.8	4	-1E+10	1	-1E+10	1	-1E+10	1	-1E+10	1	-1E+10	1	-1E+10	1
4902643	4	C	07/31/2024	09:18	-134.028	43.825	0	1469.70	0	2.5540	0	34.5120	0	27.544	0	1452.804	0	23.4	4	7.1	4	-1E+10	1	-1E+10	1	-1E+10	1	-1E+10	1	-1E+10	1	-1E+10	1
4902643	4	C	07/31/2024	09:18	-134.028	43.825	0	1489.80	0	2.5170	0	34.5160	0	27.550	0	1472.603	0	24.7	4	7.5	4	-1E+10	1	-1E+10	1	-1E+10	1	-1E+10	1	-1E+10	1	-1E+10	1
4902643	4	C	07/31/2024	09:18	-134.028	43.825	0	1509.70	0	2.4800	0	34.5210	0	27.557	0	1492.203	0	25.9	4	7.9	4	-1E+10	1	-1E+10	1	-1E+10	1	-1E+10	1	-1E+10	1	-1E+10	1
4902643	4	C	07/31/2024	09:18	-134.028	43.825	0	1530.70	0	2.4520	0	34.5250	0	27.563	0	1512.884	0	27.1	4	8.2	4	-1E+10	1	-1E+10	1	-1E+10	1	-1E+10	1	-1E+10	1	-1E+10	1
4902643	4	C	07/31/2024	09:18	-134.028	43.825	0	1549.60	0	2.4210	0	34.5280	0	27.568	0	1531.496	0	28.4	4	8.6	4	-1E+10	1	-1E+10	1	-1E+10	1	-1E+10	1	-1E+10	1	-1E+10	1
4902643	4	C	07/31/2024	09:18	-134.028	43.825	0	1569.50	0	2.3930	0	34.5330	0	27.574	0	1551.091	0	29.5	4	9.0	4	-1E+10	1	-1E+10	1	-1E+10	1	-1E+10	1	-1E+10	1	-1E+10	1
4902643	4	C	07/31/2024	09:18	-134.028	43.825	0	1589.70	0	2.3710	0	34.5350	0	27.578	0	1570.979	0	30.5	4	9.3	4	-1E+10	1	-1E+10	1	-1E+10	1	-1E+10	1	-1E+10	1	-1E+10	1
4902643	4	C	07/31/2024	09:18	-134.028	43.825	0	1609.70	0	2.3490	0	34.5380	0	27.582	0	1590.668	0	31.5	4	9.6	4	-1E+10	1	-1E+10	1	-1E+10	1	-1E+10	1	-1E+10	1	-1E+10	1
4902643	4	C	07/31/2024	09:18	-134.028	43.825	0	1629.50	0	2.3230	0	34.5410	0	27.587	0	1610.159	0	32.7	4	9.9	4	-1E+10	1	-1E+10	1	-1E+10	1	-1E+10	1	-1E+10	1	-1E+10	1
4902643	4	C	07/31/2024	09:18	-134.028	43.825	0	1649.80	0	2.2910	0	34.5460	0	27.594	0	1630.140	0	34.1	4	10.4	4	-1E+10	1	-1E+10	1	-1E+10	1	-1E+10	1	-1E+10	1	-1E+10	1
4902643	4	C	07/31/2024	09:18	-134.028	43.825	0	1670.10	0	2.2670	0	34.5490	0	27.598	0	1650.119	0	35.3	4	10.7	4	-1E+10	1	-1E+10	1	-1E+10	1	-1E+10	1	-1E+10	1	-1E+10	1
4902643	4	C	07/31/2024	09:18	-134.028	43.825	0	1689.90	0	2.2420	0	34.5520	0	27.603	0	1669.604	0	36.6	4	11.1	4	-1E+10	1	-1E+10	1	-1E+10	1	-1E+10	1	-1E+10	1	-1E+10	1
4902643	4	C	07/31/2024	09:18	-134.028	43.825	0	1709.70	0	2.2160	0	34.5560	0	27.608	0	1689.087	0	37.9	4	11.5	4	-1E+10	1	-1E+10	1	-1E+10	1	-1E+10	1	-1E+10	1	-1E+10	1
4902643	4	C	07/31/2024	09:18	-134.028	43.825	0	1729.80	0	2.1930	0	34.5590	0	27.612	0	1708.864	0	39.3	4	11.9	4	-1E+10	1	-1E+10	1	-1E+10	1	-1E+10	1	-1E+10	1	-1E+10	1
4902643	4	C	07/31/2024	09:18	-134.028	43.825	0	1749.60	0	2.1670	0	34.5630	0	27.618	0	1728.344	0	40.5	4	12.3	4	-1E+10	1	-1E+10	1	-1E+10	1	-1E+10	1	-1E+10	1	-1E+10	1
4902643	4	C	07/31/2024	09:18	-134.028	43.825	0	1769.40	0	2.1460	0	34.5660	0	27.622	0	1747.822	0	41.7	4	12.6	4	-1E+10	1	-1E+10	1	-1E+10	1	-1E+10	1	-1E+10	1	-1E+10	1
4902643	4	C	07/31/2024	09:18	-134.028	43.825	0	1789.40	0	2.1260	0	34.5690	0	27.626	0	1767.495	0	42.9	4	13.0	4	-1E+10	1	-1E+10	1	-1E+10	1	-1E+10	1	-1E+10	1	-1E+10	1
4902643	4	C	07/31/2024	09:18	-134.028	43.825	0	1809.60	0	2.1060	0	34.5720	0	27.630	0	1787.363	0	44.1	4	13.3	4	-1E+10	1	-1E+10	1	-1E+10	1	-1E+10	1	-1E+10	1	-1E+10	1
4902643	4	C	07/31/2024	09:18	-134.028	43.825	0	1829.80	0	2.0880	0	34.5750	0	27.634	0	1807.229	0	45.3	4	13.7	4	-1E+10	1	-1E+10	1	-1E+10	1	-1E+10	1	-1E+10	1	-1E+10	1
4902643	4	C	07/31/2024	09:18	-134.028	43.825	0	1849.80	0	2.0700	0	34.5770	0	27.637	0	1826.896	0	46.4	4	14.0	4	-1E+10	1	-1E+10	1	-1E+10	1	-1E+10	1	-1E+10	1	-1E+10	1
4902643	4	C	07/31/2024	09:18	-134.028	43.825	0	1869.70	0	2.0550	0	34.5800	0	27.641	0	1846.463	0	47.6	4	14.4	4	-1E+10	1	-1E+10	1	-1E+10	1	-1E+10	1	-1E+10	1	-1E+10	1
4902643	4	C	07/31/2024	09:18	-134.028	43.825	0	1889.20	0	2.0390	0	34.5820	0	27.644	0	1865.635	0	48.8	4	14.7	4	-1E+10	1	-1E+10	1	-1E+10	1	-1E+10	1	-1E+10	1	-1E+10	1
4902643	4	C	07/31/2024	09:18	-134.028	43.825	0	1909.80	0	2.0220	0	34.5850	0	27.648	0	1885.887	0	50.0	4	15.1	4	-1E+10	1	-1E+10	1	-1E+10	1	-1E+10	1	-1E+10	1	-1E+10	1
4902643	4	C	07/31/2024	09:18	-134.028	43.825	0	1929.70	0	2.0070	0	34.5870	0	27.650	0	1905.449	0	51.1	4	15.4	4	-1E+10	1	-1E+10	1	-1E+10	1	-1E+10	1	-1E+10	1	-1E+10	1
4902643	4	C	07/31/2024	09:18	-134.028	43.825	0	1949.60	0	1.9920	0	34.5890	0	27.653	0	1925.009	0	52.5	4	15.8	4	-1E+10	1	-1E+10	1	-1E+10	1	-1E+10	1	-1E+10	1	-1E+10	1
4902643	4	C	07/31/2024	09:18	-134.028	43.825	0	1969.70	0	1.9740	0	34.5920	0	27.657	0	1944.764	0	53.8	4	16.2	4	-1E+10	1	-1E+10	1	-1E+10	1	-1E+10	1	-1E+10	1	-1E+10	1
4902643	4	C	07/31/2024	09:18	-134.028	43.825	0	1989.60	0	1.9590	0	34.5940	0	27.660	0	1964.320	0	55.0	4	16.6	4	-1E+10	1	-1E+10	1	-1E+10	1	-1E+10	1	-1E+10	1	-1E+10	1
4902643	4	C	07/31/2024	09:18	-134.028	43.825	0	2009.50	0	1.9460	0	34.5970	4	27.664	0	1983.875	0	56.1	4	16.9	4	-1E+10	1	-1E+10	1	-1E+10	1	-1E+10	1	-1E+10	1	-1E+10	1
4902643	4	C	07/31/2024	09:18	-134.028	43.825	0	2029.70	0	1.9330	0	34.5990	4	27.666	0	2003.722	0	57.2	4	17.2	4	-1E+10	1	-1E+10	1	-1E+10	1	-1E+10	1	-1E+10	1	-1E+10	1
4902643	4	C	07/31/2024	09:18	-134.028	43.825	0	2050.50	0	1.9180	0	34.6010	4	27.669	0	2024.157	0	58.3	4	17.5	4	-1E+10	1	-1E+10	1	-1E+10	1	-1E+10	1	-1E+10	1	-1E+10	1
4902643	4	C	07/31/2024	09:18	-134.028	43.825	0	2069.70	0	1.9080	0	34.6030	4	27.672	0	2043.019	0	59.2	4	17.8	4	-1E+10	1	-1E+10	1	-1E+10	1	-1E+10	1	-1E+10	1	-1E+10	1
4902643	4	C	07/31/2024	09:18	-134.028	43.825	0	2089.40	0	1.8980	0	34.6040	4	27.673	0	2062.370	0	60.1	4	18.1	4	-1E+10	1	-1E+10	1	-1E+10	1	-1E+10	1	-1E+10	1	-1E+10	1
4902643	4	C	07/31/2024	09:18	-134.028	43.825	0	2109.80	0	1.8870	0	34.6060	4	27.676	0	2082.407	0	61.1	4	18.4	4	-1E+10	1	-1E+10	1	-1E+10	1	-1E+10	1	-1E+10	1	-1E+10	1
4902643	4	C	07/31/2024	09:18	-134.028	43.825	0	2129.90	0	1.8760	0	34.6080	4	27.678	0	2102.147	0	62.0	4	18.6	4	-1E+10	1	-1E+10	1	-1E+10	1	-1E+10	1	-1E+10	1	-1E+10	1
4902643	4	C	07/31/2024	09:18	-134.028	43.825	0	2149.60	0	1.8650	0	34.6090	4	27.680	0	2121.492	0	62.9	4	18.9	4	-1E+10	1	-1E+10	1	-1E+10	1	-1E+10	1	-1E+10	1	-1E+10	1
4902643	4	C	07/31/2024	09:18	-134.028	43.825	0	2169.70	0	1.8570	0	34.6100	4	27.682	0	2141.229	0	63.7	4	19.2	4	-1E+10	1	-1E+10	1	-1E+10	1	-1E+10	1	-1E+10	1	-1E+10	1
4902643	4	C	07/31/2024	09:18	-134.028	43.825	0	2189.80	0	1.8470	0	34.6120	4	27.684	0	2160.964	0	64.7	4	19.4	4	-1E+10	1	-1E+10	1	-1E+10	1	-1E+10	1	-1E+10	1	-1E+10	1
4902643	4	C	07/31/2024	09:18	-134.028	43.825	0	2210.40	0	1.8370	0	34.6140	4	27.687	0	2181.187	0	65.3	4	19.6	4	-1E+10	1	-1E+10	1	-1E+10	1	-1E+10	1	-1E+10	1	-1E+10	1
4902643	4	C	07/31/2024	09:18	-134.028	43.825	0	2229.90	0	1.8290	0	34.6140	4	27.687	0	2200.329	0	65.8	4	19.8	4	-1E+10	1	-1E+10	1	-1E+10	1	-1E+10	1	-1E+10	1	-1E+10	1
4902643	4	C	07/31/2024	09:18	-134.028	43.825	0	2249.90	0	1.8220	0	34.6150	4	27.689	0	2219.960	0	66.3	4	19.9	4	-1E+10	1	-1E+10	1	-1E+10	1	-1E+10	1	-1E+10	1	-1E+10	1
4902643	4	C	07/31/2024	09:18	-134.028	43.825	0	2270.50	0	1.8160	0	34.6160	4	27.690	0	2240.179	0	67.0	4	20.1	4	-1E+10	1	-1E+10	1	-1E+10	1	-1E+10	1	-1E+10	1	-1E+10	1
4902643	4	C	07/31/2024	09:18	-134.028	43.825	0	2289.90	0	1.8100	0	34.6170	4	27.692	0	2259.217	0	67.8	4	20.3	4	-1E+10	1	-1E+10	1	-1E+10	1	-1E+10	1	-1E+10	1	-1E+10	1
4902643	4	C	07/31/2024	09:18	-134.028	43.825	0	2310.00	0	1.8050	0	34.6180	4	27.693	0	2278.941	0	68.6	4	20.6	4	-1E+10	1	-1E+10	1	-1E+10	1	-1E+10	1	-1E+10	1	-1E+10	1
4902643	4	C	07/31/2024	09:18	-134.028	43.825	0	2330.10	0	1.7950	0	34.6190	4	27.695	0	2298.663	0	69.5	4	20.8	4	-1E+10	1	-1E+10	1	-1E+10	1	-1E+10	1	-1E+10	1	-1E+10	1
4902643	4	C	07/31/2024	09:18	-134.028	43.825	0	2349.40	0	1.7880	0	34.6210	4	27.697	0	2317.598	0	70.2	4	21.1	4	-1E+10	1	-1E+10	1	-1E+10	1	-1E+10	1	-1E+10	1	-1E+10	1
4902643	4	C	07/31/2024	09:18	-134.028	43.825	0	2369.90	0	1.7820	0	34.6220	4	27.698	0	2337.709	0	71.1	4	21.3	4	-1E+10	1	-1E+10	1	-1E+10	1	-1E+10	1	-1E+10	1	-1E+10	1
4902643	4	C	07/31/2024	09:18	-134.028	43.825	0	2389.50	0	1.7770	0	34.6230	4	27.700	0	2356.935	0	72.1	4	21.6	4	-1E+10	1	-1E+10	1	-1E+10	1	-1E+10	1	-1E+10	1	-1E+10	1
4902643	4	C	07/31/2024	09:18	-134.028	43.825	0	2409.40	0	1.7710	0	34.6240	4	27.701	0	2376.454	0	73.0	4	21.9	4	-1E+10	1	-1E+10	1	-1E+10	1	-1E+10	1	-1E+10	1	-1E+10	1
4902643	4	C	07/31/2024	09:18	-134.028	43.825	0	2429.30	0	1.7630	0	34.6250	4	27.702	0	2395.971	0	73.9	4	22.2	4	-1E+10	1	-1E+10	1	-1E+10	1	-1E+10	1	-1E+10	1	-1E+10	1
4902643	4	C	07/31/2024	09:18	-134.028	43.825	0	2449.50	0	1.7530	0	34.6270	4	27.705	0	2415.780	0	74.7	4	22.4	4	-1E+10	1	-1E+10	1	-1E+10	1	-1E+10	1	-1E+10	1	-1E+10	1
4902643	4	C	07/31/2024	09:18	-134.028	43.825	0	2469.80	0	1.7460	0	34.6280	4	27.706	0	2435.686	0	75.4	4	22.6	4	-1E+10	1	-1E+10	1	-1E+10	1	-1E+10	1	-1E+10	1	-1E+10	1
4902643	4	C	07/31/2024	09:18	-134.028	43.825	0	2489.80	0	1.7380	0	34.6290	4	27.708	0	2455.295	0	76.1	4	22.8	4	-1E+10	1	-1E+10	1	-1E+10	1	-1E+10	1	-1E+10	1	-1E+10	1
4902643	4	C	07/31/2024	09:18	-134.028	43.825	0	2510.30	0	1.7320	0	34.6290	4	27.708	0	2475.393	0	76.7	4	23.0	4	-1E+10	1	-1E+10	1	-1E+10	1	-1E+10	1	-1E+10	1	-1E+10	1
4902643	4	C	07/31/2024	09:18	-134.028	43.825	0	2529.70	0	1.7270	0	34.6300	4	27.710	0	2494.411	0	77.2	4	23.1	4	-1E+10	1	-1E+10	1	-1E+10	1	-1E+10	1	-1E+10	1	-1E+10	1
4902643	4	C	07/31/2024	09:18	-134.028	43.825	0	2549.70	0	1.7220	0	34.6310	4	27.711	0	2514.015	0	77.8	4	23.3	4	-1E+10	1	-1E+10	1	-1E+10	1	-1E+10	1	-1E+10	1	-1E+10	1
4902643	4	C	07/31/2024	09:18	-134.028	43.825	0	2570.00	0	1.7160	0	34.6310	4	27.712	0	2533.912	0	78.5	4	23.5	4	-1E+10	1	-1E+10	1	-1E+10	1	-1E+10	1	-1E+10	1	-1E+10	1
4902643	4	C	07/31/2024	09:18	-134.028	43.825	0	2589.90	0	1.7100	0	34.6320	4	27.713	0	2553.414	0	79.2	4	23.7	4	-1E+10	1	-1E+10	1	-1E+10	1	-1E+10	1	-1E+10	1	-1E+10	1
4902643	4	C	07/31/2024	09:18	-134.028	43.825	0	2609.70	0	1.7040	0	34.6330	4	27.714	0	2572.817	0	79.9	4	23.9	4	-1E+10	1	-1E+10	1	-1E+10	1	-1E+10	1	-1E+10	1	-1E+10	1
4902643	4	C	07/31/2024	09:18	-134.028	43.825	0	2629.60	0	1.6980	0	34.6340	4	27.716	0	2592.316	0	80.6	4	24.1	4	-1E+10	1	-1E+10	1	-1E+10	1	-1E+10	1	-1E+10	1	-1E+10	1
4902643	4	C	07/31/2024	09:18	-134.028	43.825	0	2649.80	0	1.6920	0	34.6350	4	27.717	0	2612.107	0	81.3	4	24.3	4	-1E+10	1	-1E+10	1	-1E+10	1	-1E+10	1	-1E+10	1	-1E+10	1
4902643	4	C	07/31/2024	09:18	-134.028	43.825	0	2670.00	0	1.6870	0	34.6360	4	27.718	0	2631.897	0	81.9	4	24.5	4	-1E+10	1	-1E+10	1	-1E+10	1	-1E+10	1	-1E+10	1	-1E+10	1
4902643	4	C	07/31/2024	09:18	-134.028	43.825	0	2690.00	0	1.6810	0	34.6360	4	27.719	0	2651.488	0	82.7	4	24.7	4	-1E+10	1	-1E+10	1	-1E+10	1	-1E+10	1	-1E+10	1	-1E+10	1
4902643	4	C	07/31/2024	09:18	-134.028	43.825	0	2709.70	0	1.6750	0	34.6370	4	27.720	0	2670.784	0	83.4	4	25.0	4	-1E+10	1	-1E+10	1	-1E+10	1	-1E+10	1	-1E+10	1	-1E+10	1
4902643	4	C	07/31/2024	09:18	-134.028	43.825	0	2729.40	0	1.6700	0	34.6380	4	27.721	0	2690.079	0	84.1	4	25.1	4	-1E+10	1	-1E+10	1	-1E+10	1	-1E+10	1	-1E+10	1	-1E+10	1
4902643	4	C	07/31/2024	09:18	-134.028	43.825	0	2749.30	0	1.6670	0	34.6390	4	27.723	0	2709.567	0	84.7	4	25.3	4	-1E+10	1	-1E+10	1	-1E+10	1	-1E+10	1	-1E+10	1	-1E+10	1
4902643	4	C	07/31/2024	09:18	-134.028	43.825	0	2770.20	0	1.6620	0	34.6390	4	27.723	0	2730.033	0	85.4	4	25.5	4	-1E+10	1	-1E+10	1	-1E+10	1	-1E+10	1	-1E+10	1	-1E+10	1
4902643	4	C	07/31/2024	09:18	-134.028	43.825	0	2789.60	0	1.6580	0	34.6400	4	27.724	0	2749.029	0	86.1	4	25.7	4	-1E+10	1	-1E+10	1	-1E+10	1	-1E+10	1	-1E+10	1	-1E+10	1
4902643	4	C	07/31/2024	09:18	-134.028	43.825	0	2809.80	0	1.6520	0	34.6410	4	27.726	0	2768.805	0	86.8	4	26.0	4	-1E+10	1	-1E+10	1	-1E+10	1	-1E+10	1	-1E+10	1	-1E+10	1
4902643	4	C	07/31/2024	09:18	-134.028	43.825	0	2829.90	0	1.6480	0	34.6420	4	27.727	0	2788.482	0	87.6	4	26.2	4	-1E+10	1	-1E+10	1	-1E+10	1	-1E+10	1	-1E+10	1	-1E+10	1
4902643	4	C	07/31/2024	09:18	-134.028	43.825	0	2850.50	0	1.6410	0	34.6430	4	27.728	0	2808.647	0	88.3	4	26.4	4	-1E+10	1	-1E+10	1	-1E+10	1	-1E+10	1	-1E+10	1	-1E+10	1
4902643	4	C	07/31/2024	09:18	-134.028	43.825	0	2869.70	0	1.6360	0	34.6430	4	27.729	0	2827.440	0	88.9	4	26.6	4	-1E+10	1	-1E+10	1	-1E+10	1	-1E+10	1	-1E+10	1	-1E+10	1
4902643	4	C	07/31/2024	09:18	-134.028	43.825	0	2889.80	0	1.6310	0	34.6440	4	27.730	0	2847.112	0	89.7	4	26.8	4	-1E+10	1	-1E+10	1	-1E+10	1	-1E+10	1	-1E+10	1	-1E+10	1
4902643	4	C	07/31/2024	09:18	-134.028	43.825	0	2909.80	0	1.6260	0	34.6450	4	27.731	0	2866.684	0	90.5	4	27.0	4	-1E+10	1	-1E+10	1	-1E+10	1	-1E+10	1	-1E+10	1	-1E+10	1
4902643	4	C	07/31/2024	09:18	-134.028	43.825	0	2929.40	0	1.6220	0	34.6460	4	27.733	0	2885.863	0	91.2	4	27.2	4	-1E+10	1	-1E+10	1	-1E+10	1	-1E+10	1	-1E+10	1	-1E+10	1
4902643	4	C	07/31/2024	09:18	-134.028	43.825	0	2949.60	0	1.6200	0	34.6460	4	27.733	0	2905.627	0	91.6	4	27.4	4	-1E+10	1	-1E+10	1	-1E+10	1	-1E+10	1	-1E+10	1	-1E+10	1
4902643	4	C	07/31/2024	09:18	-134.028	43.825	0	2969.80	0	1.6160	0	34.6470	4	27.734	0	2925.390	0	92.2	4	27.5	4	-1E+10	1	-1E+10	1	-1E+10	1	-1E+10	1	-1E+10	1	-1E+10	1
4902643	4	C	07/31/2024	09:18	-134.028	43.825	0	2990.10	0	1.6110	0	34.6470	4	27.735	0	2945.249	0	92.9	4	27.7	4	-1E+10	1	-1E+10	1	-1E+10	1	-1E+10	1	-1E+10	1	-1E+10	1
4902643	4	C	07/31/2024	09:18	-134.028	43.825	0	3010.10	0	1.6070	0	34.6480	4	27.736	0	2964.812	0	93.6	4	28.0	4	-1E+10	1	-1E+10	1	-1E+10	1	-1E+10	1	-1E+10	1	-1E+10	1
4902643	4	C	07/31/2024	09:18	-134.028	43.825	0	3029.80	0	1.6020	0	34.6490	4	27.737	0	2984.080	0	94.4	4	28.2	4	-1E+10	1	-1E+10	1	-1E+10	1	-1E+10	1	-1E+10	1	-1E+10	1
4902643	4	C	07/31/2024	09:18	-134.028	43.825	0	3049.60	0	1.5970	0	34.6500	4	27.738	0	3003.444	0	95.2	4	28.4	4	-1E+10	1	-1E+10	1	-1E+10	1	-1E+10	1	-1E+10	1	-1E+10	1
4902643	4	C	07/31/2024	09:18	-134.028	43.825	0	3070.20	0	1.5950	0	34.6500	4	27.739	0	3023.589	0	95.9	4	28.6	4	-1E+10	1	-1E+10	1	-1E+10	1	-1E+10	1	-1E+10	1	-1E+10	1
4902643	4	C	07/31/2024	09:18	-134.028	43.825	0	3089.70	0	1.5940	0	34.6510	4	27.740	0	3042.656	0	96.4	4	28.8	4	-1E+10	1	-1E+10	1	-1E+10	1	-1E+10	1	-1E+10	1	-1E+10	1
4902643	4	C	07/31/2024	09:18	-134.028	43.825	0	3109.50	0	1.5920	0	34.6520	4	27.741	0	3062.015	0	96.9	4	28.9	4	-1E+10	1	-1E+10	1	-1E+10	1	-1E+10	1	-1E+10	1	-1E+10	1
4902643	4	C	07/31/2024	09:18	-134.028	43.825	0	3129.70	0	1.5900	0	34.6520	4	27.741	0	3081.764	0	97.4	4	29.1	4	-1E+10	1	-1E+10	1	-1E+10	1	-1E+10	1	-1E+10	1	-1E+10	1
4902643	4	C	07/31/2024	09:18	-134.028	43.825	0	3149.70	0	1.5850	0	34.6530	4	27.742	0	3101.315	0	98.0	4	29.2	4	-1E+10	1	-1E+10	1	-1E+10	1	-1E+10	1	-1E+10	1	-1E+10	1
4902643	4	C	07/31/2024	09:18	-134.028	43.825	0	3169.50	0	1.5800	0	34.6530	4	27.743	0	3120.668	0	98.6	4	29.4	4	-1E+10	1	-1E+10	1	-1E+10	1	-1E+10	1	-1E+10	1	-1E+10	1
4902643	4	C	07/31/2024	09:18	-134.028	43.825	0	3189.60	0	1.5780	0	34.6540	4	27.744	0	3140.314	0	99.2	4	29.6	4	-1E+10	1	-1E+10	1	-1E+10	1	-1E+10	1	-1E+10	1	-1E+10	1
4902643	4	C	07/31/2024	09:18	-134.028	43.825	0	3209.80	0	1.5750	0	34.6540	4	27.744	0	3160.055	0	99.8	4	29.8	4	-1E+10	1	-1E+10	1	-1E+10	1	-1E+10	1	-1E+10	1	-1E+10	1
4902643	4	C	07/31/2024	09:18	-134.028	43.825	0	3229.60	0	1.5730	0	34.6550	4	27.745	0	3179.404	0	100.4	4	30.0	4	-1E+10	1	-1E+10	1	-1E+10	1	-1E+10	1	-1E+10	1	-1E+10	1
4902643	4	C	07/31/2024	09:18	-134.028	43.825	0	3249.60	0	1.5690	0	34.6560	4	27.747	0	3198.946	0	101.0	4	30.1	4	-1E+10	1	-1E+10	1	-1E+10	1	-1E+10	1	-1E+10	1	-1E+10	1
4902643	4	C	07/31/2024	09:18	-134.028	43.825	0	3269.90	0	1.5670	0	34.6560	4	27.747	0	3218.779	0	101.6	4	30.3	4	-1E+10	1	-1E+10	1	-1E+10	1	-1E+10	1	-1E+10	1	-1E+10	1
4902643	4	C	07/31/2024	09:18	-134.028	43.825	0	3289.60	0	1.5630	0	34.6570	4	27.748	0	3238.025	0	102.2	4	30.5	4	-1E+10	1	-1E+10	1	-1E+10	1	-1E+10	1	-1E+10	1	-1E+10	1
4902643	4	C	07/31/2024	09:18	-134.028	43.825	0	3310.10	0	1.5610	0	34.6580	4	27.749	0	3258.051	0	102.7	4	30.7	4	-1E+10	1	-1E+10	1	-1E+10	1	-1E+10	1	-1E+10	1	-1E+10	1
4902643	4	C	07/31/2024	09:18	-134.028	43.825	0	3329.70	0	1.5580	0	34.6580	4	27.750	0	3277.195	0	103.2	4	30.8	4	-1E+10	1	-1E+10	1	-1E+10	1	-1E+10	1	-1E+10	1	-1E+10	1
4902643	4	C	07/31/2024	09:18	-134.028	43.825	0	3350.30	0	1.5550	0	34.6590	4	27.751	0	3297.315	0	103.8	4	31.0	4	-1E+10	1	-1E+10	1	-1E+10	1	-1E+10	1	-1E+10	1	-1E+10	1
4902643	4	C	07/31/2024	09:18	-134.028	43.825	0	3369.60	0	1.5520	0	34.6590	4	27.751	0	3316.163	0	104.4	4	31.2	4	-1E+10	1	-1E+10	1	-1E+10	1	-1E+10	1	-1E+10	1	-1E+10	1
4902643	4	C	07/31/2024	09:18	-134.028	43.825	0	3389.80	0	1.5510	0	34.6600	4	27.752	0	3335.888	0	104.9	4	31.3	4	-1E+10	1	-1E+10	1	-1E+10	1	-1E+10	1	-1E+10	1	-1E+10	1
4902643	4	C	07/31/2024	09:18	-134.028	43.825	0	3409.70	0	1.5490	0	34.6600	4	27.752	0	3355.319	0	105.2	4	31.4	4	-1E+10	1	-1E+10	1	-1E+10	1	-1E+10	1	-1E+10	1	-1E+10	1
4902643	4	C	07/31/2024	09:18	-134.028	43.825	0	3430.20	0	1.5490	0	34.6610	4	27.753	0	3375.333	0	105.5	4	31.5	4	-1E+10	1	-1E+10	1	-1E+10	1	-1E+10	1	-1E+10	1	-1E+10	1
4902643	4	C	07/31/2024	09:18	-134.028	43.825	0	3449.40	0	1.5500	0	34.6620	4	27.754	0	3394.077	0	105.8	4	31.5	4	-1E+10	1	-1E+10	1	-1E+10	1	-1E+10	1	-1E+10	1	-1E+10	1
4902643	4	C	07/31/2024	09:18	-134.028	43.825	0	3469.60	0	1.5480	0	34.6620	4	27.754	0	3413.795	0	106.2	4	31.7	4	-1E+10	1	-1E+10	1	-1E+10	1	-1E+10	1	-1E+10	1	-1E+10	1
4902643	4	C	07/31/2024	09:18	-134.028	43.825	0	3489.90	0	1.5470	0	34.6620	4	27.755	0	3433.609	0	106.6	4	31.8	4	-1E+10	1	-1E+10	1	-1E+10	1	-1E+10	1	-1E+10	1	-1E+10	1
4902643	4	C	07/31/2024	09:18	-134.028	43.825	0	3510.00	0	1.5470	0	34.6620	4	27.755	0	3453.227	0	106.9	4	31.9	4	-1E+10	1	-1E+10	1	-1E+10	1	-1E+10	1	-1E+10	1	-1E+10	1
4902643	4	C	07/31/2024	09:18	-134.028	43.825	0	3530.10	0	1.5470	0	34.6630	4	27.756	0	3472.842	0	107.2	4	32.0	4	-1E+10	1	-1E+10	1	-1E+10	1	-1E+10	1	-1E+10	1	-1E+10	1
4902643	4	C	07/31/2024	09:18	-134.028	43.825	0	3549.90	0	1.5470	0	34.6630	4	27.756	0	3492.163	0	107.5	4	32.1	4	-1E+10	1	-1E+10	1	-1E+10	1	-1E+10	1	-1E+10	1	-1E+10	1
4902643	4	C	07/31/2024	09:18	-134.028	43.825	0	3570.50	0	1.5470	0	34.6630	4	27.756	0	3512.263	0	107.6	4	32.1	4	-1E+10	1	-1E+10	1	-1E+10	1	-1E+10	1	-1E+10	1	-1E+10	1
4902643	4	C	07/31/2024	09:18	-134.028	43.825	0	3590.00	0	1.5480	0	34.6640	4	27.757	0	3531.287	0	107.7	4	32.1	4	-1E+10	1	-1E+10	1	-1E+10	1	-1E+10	1	-1E+10	1	-1E+10	1
4902643	4	C	07/31/2024	09:18	-134.028	43.825	0	3610.00	0	1.5500	0	34.6640	4	27.757	0	3550.798	0	107.8	4	32.2	4	-1E+10	1	-1E+10	1	-1E+10	1	-1E+10	1	-1E+10	1	-1E+10	1
4902643	4	C	07/31/2024	09:18	-134.028	43.825	0	3630.30	0	1.5510	0	34.6650	4	27.758	0	3570.600	0	108.0	4	32.2	4	-1E+10	1	-1E+10	1	-1E+10	1	-1E+10	1	-1E+10	1	-1E+10	1
4902643	4	C	07/31/2024	09:18	-134.028	43.825	0	3649.90	0	1.5510	0	34.6650	4	27.758	0	3589.717	0	108.3	4	32.3	4	-1E+10	1	-1E+10	1	-1E+10	1	-1E+10	1	-1E+10	1	-1E+10	1
4902643	4	C	07/31/2024	09:18	-134.028	43.825	0	3669.70	0	1.5500	0	34.6650	4	27.758	0	3609.028	0	108.6	4	32.4	4	-1E+10	1	-1E+10	1	-1E+10	1	-1E+10	1	-1E+10	1	-1E+10	1
4902643	4	C	07/31/2024	09:18	-134.028	43.825	0	3689.60	0	1.5500	0	34.6650	4	27.758	0	3628.434	0	108.9	4	32.5	4	-1E+10	1	-1E+10	1	-1E+10	1	-1E+10	1	-1E+10	1	-1E+10	1
4902643	4	C	07/31/2024	09:18	-134.028	43.825	0	3710.10	0	1.5510	0	34.6660	4	27.759	0	3648.424	0	108.9	4	32.5	4	-1E+10	1	-1E+10	1	-1E+10	1	-1E+10	1	-1E+10	1	-1E+10	1
4902643	4	C	07/31/2024	09:18	-134.028	43.825	0	3730.30	0	1.5510	0	34.6660	4	27.759	0	3668.120	0	109.0	4	32.5	4	-1E+10	1	-1E+10	1	-1E+10	1	-1E+10	1	-1E+10	1	-1E+10	1
4902643	4	C	07/31/2024	09:18	-134.028	43.825	0	3750.40	0	1.5510	0	34.6670	4	27.760	0	3687.716	0	109.2	4	32.6	4	-1E+10	1	-1E+10	1	-1E+10	1	-1E+10	1	-1E+10	1	-1E+10	1
4902643	4	C	07/31/2024	09:18	-134.028	43.825	0	3770.70	0	1.5490	0	34.6670	4	27.761	0	3707.505	0	109.4	4	32.6	4	-1E+10	1	-1E+10	1	-1E+10	1	-1E+10	1	-1E+10	1	-1E+10	1
4902643	4	C	07/31/2024	09:18	-134.028	43.825	0	3789.20	0	1.5490	0	34.6680	4	27.761	0	3725.538	0	109.2	4	32.6	4	-1E+10	1	-1E+10	1	-1E+10	1	-1E+10	1	-1E+10	1	-1E+10	1
4902643	4	C	07/31/2024	09:18	-134.028	43.825	0																										
4902643	5	C	08/10/2024	11:53	-134.027	43.829	0	2.60	0	19.7360	0	32.6100	0	23.009	0	2.579	0	219.7	4	95.4	4	-1E+10	1	-1E+10	1	-1E+10	1	-1E+10	1	-1E+10	1	-1E+10	1
4902643	5	C	08/10/2024	11:53	-134.027	43.829	0	2.80	0	19.7360	0	32.6100	0	23.009	0	2.778	0	219.7	4	95.4	4	-1E+10	1	-1E+10	1	-1E+10	1	-1E+10	1	-1E+10	1	-1E+10	1
4902643	5	C	08/10/2024	11:53	-134.027	43.829	0	2.90	0	19.7370	0	32.6090	0	23.008	0	2.877	0	-1e10	1	-1e10	1	-1E+10	1	-1E+10	1	-1E+10	1	-1E+10	1	-1E+10	1	-1E+10	1
4902643	5	C	08/10/2024	11:53	-134.027	43.829	0	3.00	0	19.7410	0	32.5900	0	22.993	0	2.976	0	219.9	4	95.5	4	-1E+10	1	-1E+10	1	-1E+10	1	-1E+10	1	-1E+10	1	-1E+10	1
4902643	5	C	08/10/2024	11:53	-134.027	43.829	0	3.60	0	19.7410	0	32.5940	0	22.996	0	3.571	0	220.0	4	95.5	4	-1E+10	1	-1E+10	1	-1E+10	1	-1E+10	1	-1E+10	1	-1E+10	1
4902643	5	C	08/10/2024	11:53	-134.027	43.829	0	4.70	0	19.7400	0	32.6090	0	23.008	0	4.662	0	220.1	4	95.6	4	-1E+10	1	-1E+10	1	-1E+10	1	-1E+10	1	-1E+10	1	-1E+10	1
4902643	5	C	08/10/2024	11:53	-134.027	43.829	0	5.50	0	19.7330	0	32.6080	0	23.009	0	5.456	0	220.4	4	95.7	4	-1E+10	1	-1E+10	1	-1E+10	1	-1E+10	1	-1E+10	1	-1E+10	1
4902643	5	C	08/10/2024	11:53	-134.027	43.829	0	6.60	0	19.7320	0	32.6080	0	23.009	0	6.547	0	220.7	4	95.9	4	-1E+10	1	-1E+10	1	-1E+10	1	-1E+10	1	-1E+10	1	-1E+10	1
4902643	5	C	08/10/2024	11:53	-134.027	43.829	0	7.50	0	19.7270	0	32.6050	0	23.008	0	7.440	0	221.1	4	96.0	4	-1E+10	1	-1E+10	1	-1E+10	1	-1E+10	1	-1E+10	1	-1E+10	1
4902643	5	C	08/10/2024	11:53	-134.027	43.829	0	8.70	0	19.7230	0	32.6000	0	23.005	0	8.630	0	221.5	4	96.2	4	-1E+10	1	-1E+10	1	-1E+10	1	-1E+10	1	-1E+10	1	-1E+10	1
4902643	5	C	08/10/2024	11:53	-134.027	43.829	0	9.80	0	19.6660	0	32.5950	0	23.016	0	9.721	0	221.9	4	96.2	4	-1E+10	1	-1E+10	1	-1E+10	1	-1E+10	1	-1E+10	1	-1E+10	1
4902643	5	C	08/10/2024	11:53	-134.027	43.829	0	14.80	0	18.0540	0	32.6320	0	23.448	0	14.681	0	230.8	4	97.2	4	-1E+10	1	-1E+10	1	-1E+10	1	-1E+10	1	-1E+10	1	-1E+10	1
4902643	5	C	08/10/2024	11:53	-134.027	43.829	0	24.80	0	16.3050	0	32.6490	0	23.873	0	24.600	0	244.9	4	99.7	4	-1E+10	1	-1E+10	1	-1E+10	1	-1E+10	1	-1E+10	1	-1E+10	1
4902643	5	C	08/10/2024	11:53	-134.027	43.829	0	34.50	0	14.5940	0	32.6690	0	24.264	0	34.221	0	253.5	4	99.9	4	-1E+10	1	-1E+10	1	-1E+10	1	-1E+10	1	-1E+10	1	-1E+10	1
4902643	5	C	08/10/2024	11:53	-134.027	43.829	0	45.00	0	12.9060	0	32.6470	0	24.591	0	44.635	0	261.0	4	99.4	4	-1E+10	1	-1E+10	1	-1E+10	1	-1E+10	1	-1E+10	1	-1E+10	1
4902643	5	C	08/10/2024	11:53	-134.027	43.829	0	54.40	0	11.2100	0	32.6510	0	24.911	0	53.957	0	261.8	4	96.2	4	-1E+10	1	-1E+10	1	-1E+10	1	-1E+10	1	-1E+10	1	-1E+10	1
4902643	5	C	08/10/2024	11:53	-134.027	43.829	0	64.90	0	10.6130	0	32.6690	0	25.030	0	64.370	0	258.0	4	93.6	4	-1E+10	1	-1E+10	1	-1E+10	1	-1E+10	1	-1E+10	1	-1E+10	1
4902643	5	C	08/10/2024	11:53	-134.027	43.829	0	75.10	0	10.3210	0	32.6740	0	25.084	0	74.485	0	255.5	4	92.1	4	-1E+10	1	-1E+10	1	-1E+10	1	-1E+10	1	-1E+10	1	-1E+10	1
4902643	5	C	08/10/2024	11:53	-134.027	43.829	0	84.80	0	10.0790	0	32.6780	0	25.128	0	84.103	0	254.0	4	91.1	4	-1E+10	1	-1E+10	1	-1E+10	1	-1E+10	1	-1E+10	1	-1E+10	1
4902643	5	C	08/10/2024	11:53	-134.027	43.829	0	94.80	0	9.7720	0	32.6820	0	25.182	0	94.019	0	251.9	4	89.8	4	-1E+10	1	-1E+10	1	-1E+10	1	-1E+10	1	-1E+10	1	-1E+10	1
4902643	5	C	08/10/2024	11:53	-134.027	43.829	0	105.10	0	9.4110	0	32.6740	0	25.234	0	104.232	0	249.8	4	88.3	4	-1E+10	1	-1E+10	1	-1E+10	1	-1E+10	1	-1E+10	1	-1E+10	1
4902643	5	C	08/10/2024	11:53	-134.027	43.829	0	115.40	0	9.2110	0	32.7050	0	25.291	0	114.444	0	241.2	4	84.9	4	-1E+10	1	-1E+10	1	-1E+10	1	-1E+10	1	-1E+10	1	-1E+10	1
4902643	5	C	08/10/2024	11:53	-134.027	43.829	0	124.70	0	9.1580	0	32.9010	0	25.452	0	123.664	0	226.0	4	79.6	4	-1E+10	1	-1E+10	1	-1E+10	1	-1E+10	1	-1E+10	1	-1E+10	1
4902643	5	C	08/10/2024	11:53	-134.027	43.829	0	135.00	0	8.9840	0	33.1290	0	25.658	0	133.875	0	216.1	4	75.9	4	-1E+10	1	-1E+10	1	-1E+10	1	-1E+10	1	-1E+10	1	-1E+10	1
4902643	5	C	08/10/2024	11:53	-134.027	43.829	0	145.30	0	8.4710	0	33.3500	0	25.910	0	144.085	0	211.5	4	73.6	4	-1E+10	1	-1E+10	1	-1E+10	1	-1E+10	1	-1E+10	1	-1E+10	1
4902643	5	C	08/10/2024	11:53	-134.027	43.829	0	154.70	0	8.1650	0	33.4770	0	26.056	0	153.403	0	209.7	4	72.5	4	-1E+10	1	-1E+10	1	-1E+10	1	-1E+10	1	-1E+10	1	-1E+10	1
4902643	5	C	08/10/2024	11:53	-134.027	43.829	0	164.90	0	7.9700	0	33.5590	0	26.149	0	163.514	0	207.2	4	71.4	4	-1E+10	1	-1E+10	1	-1E+10	1	-1E+10	1	-1E+10	1	-1E+10	1
4902643	5	C	08/10/2024	11:53	-134.027	43.829	0	174.90	0	7.7780	0	33.6170	0	26.223	0	173.426	0	204.1	4	70.1	4	-1E+10	1	-1E+10	1	-1E+10	1	-1E+10	1	-1E+10	1	-1E+10	1
4902643	5	C	08/10/2024	11:53	-134.027	43.829	0	184.90	0	7.5510	0	33.6480	0	26.280	0	183.337	0	200.8	4	68.6	4	-1E+10	1	-1E+10	1	-1E+10	1	-1E+10	1	-1E+10	1	-1E+10	1
4902643	5	C	08/10/2024	11:53	-134.027	43.829	0	195.00	0	7.4390	0	33.6860	0	26.326	0	193.347	0	196.2	4	66.9	4	-1E+10	1	-1E+10	1	-1E+10	1	-1E+10	1	-1E+10	1	-1E+10	1
4902643	5	C	08/10/2024	11:53	-134.027	43.829	0	209.90	0	7.2220	0	33.7360	0	26.395	0	208.113	0	186.9	4	63.4	4	-1E+10	1	-1E+10	1	-1E+10	1	-1E+10	1	-1E+10	1	-1E+10	1
4902643	5	C	08/10/2024	11:53	-134.027	43.829	0	229.60	0	6.9920	0	33.7990	0	26.477	0	227.634	0	173.9	4	58.7	4	-1E+10	1	-1E+10	1	-1E+10	1	-1E+10	1	-1E+10	1	-1E+10	1
4902643	5	C	08/10/2024	11:53	-134.027	43.829	0	249.70	0	6.7330	0	33.8100	0	26.521	0	247.550	0	164.2	4	55.1	4	-1E+10	1	-1E+10	1	-1E+10	1	-1E+10	1	-1E+10	1	-1E+10	1
4902643	5	C	08/10/2024	11:53	-134.027	43.829	0	270.30	0	6.2920	0	33.7980	0	26.569	0	267.959	0	150.9	4	50.2	4	-1E+10	1	-1E+10	1	-1E+10	1	-1E+10	1	-1E+10	1	-1E+10	1
4902643	5	C	08/10/2024	11:53	-134.027	43.829	0	289.70	0	5.9660	0	33.7990	0	26.611	0	287.178	0	133.2	4	43.9	4	-1E+10	1	-1E+10	1	-1E+10	1	-1E+10	1	-1E+10	1	-1E+10	1
4902643	5	C	08/10/2024	11:53	-134.027	43.829	0	309.90	0	5.6890	0	33.8100	0	26.654	0	307.187	0	118.8	4	38.9	4	-1E+10	1	-1E+10	1	-1E+10	1	-1E+10	1	-1E+10	1	-1E+10	1
4902643	5	C	08/10/2024	11:53	-134.027	43.829	0	329.60	0	5.4630	0	33.8240	0	26.692	0	326.699	0	106.2	4	34.6	4	-1E+10	1	-1E+10	1	-1E+10	1	-1E+10	1	-1E+10	1	-1E+10	1
4902643	5	C	08/10/2024	11:53	-134.027	43.829	0	349.30	0	5.2890	0	33.8390	0	26.725	0	346.209	0	96.2	4	31.3	4	-1E+10	1	-1E+10	1	-1E+10	1	-1E+10	1	-1E+10	1	-1E+10	1
4902643	5	C	08/10/2024	11:53	-134.027	43.829	0	369.50	0	5.1380	0	33.8600	0	26.759	0	366.213	0	87.6	4	28.4	4	-1E+10	1	-1E+10	1	-1E+10	1	-1E+10	1	-1E+10	1	-1E+10	1
4902643	5	C	08/10/2024	11:53	-134.027	43.829	0	389.50	0	5.0110	0	33.8740	0	26.785	0	386.016	0	81.0	4	26.1	4	-1E+10	1	-1E+10	1	-1E+10	1	-1E+10	1	-1E+10	1	-1E+10	1
4902643	5	C	08/10/2024	11:53	-134.027	43.829	0	409.40	0	4.8820	0	33.8880	0	26.811	0	405.719	0	74.2	4	23.9	4	-1E+10	1	-1E+10	1	-1E+10	1	-1E+10	1	-1E+10	1	-1E+10	1
4902643	5	C	08/10/2024	11:53	-134.027	43.829	0	430.10	0	4.7900	0	33.9110	0	26.839	0	426.212	0	68.6	4	22.0	4	-1E+10	1	-1E+10	1	-1E+10	1	-1E+10	1	-1E+10	1	-1E+10	1
4902643	5	C	08/10/2024	11:53	-134.027	43.829	0	449.40	0	4.7090	0	33.9330	0	26.866	0	445.316	0	61.2	4	19.6	4	-1E+10	1	-1E+10	1	-1E+10	1	-1E+10	1	-1E+10	1	-1E+10	1
4902643	5	C	08/10/2024	11:53	-134.027	43.829	0	469.50	0	4.5990	0	33.9590	0	26.899	0	465.211	0	52.3	4	16.7	4	-1E+10	1	-1E+10	1	-1E+10	1	-1E+10	1	-1E+10	1	-1E+10	1
4902643	5	C	08/10/2024	11:53	-134.027	43.829	0	489.80	0	4.5110	0	33.9830	0	26.927	0	485.302	0	46.9	4	15.0	4	-1E+10	1	-1E+10	1	-1E+10	1	-1E+10	1	-1E+10	1	-1E+10	1
4902643	5	C	08/10/2024	11:53	-134.027	43.829	0	509.80	0	4.4500	0	34.0010	0	26.948	0	505.094	0	41.7	4	13.3	4	-1E+10	1	-1E+10	1	-1E+10	1	-1E+10	1	-1E+10	1	-1E+10	1
4902643	5	C	08/10/2024	11:53	-134.027	43.829	0	528.90	0	4.4140	0	34.0250	0	26.971	0	523.994	0	36.1	4	11.5	4	-1E+10	1	-1E+10	1	-1E+10	1	-1E+10	1	-1E+10	1	-1E+10	1
4902643	5	C	08/10/2024	11:53	-134.027	43.829	0	549.60	0	4.3600	0	34.0500	0	26.997	0	544.475	0	31.6	4	10.1	4	-1E+10	1	-1E+10	1	-1E+10	1	-1E+10	1	-1E+10	1	-1E+10	1
4902643	5	C	08/10/2024	11:53	-134.027	43.829	0	570.30	0	4.2930	0	34.0720	0	27.022	0	564.953	0	28.2	4	9.0	4	-1E+10	1	-1E+10	1	-1E+10	1	-1E+10	1	-1E+10	1	-1E+10	1
4902643	5	C	08/10/2024	11:53	-134.027	43.829	0	589.50	0	4.2380	0	34.0890	0	27.041	0	583.947	0	25.6	4	8.1	4	-1E+10	1	-1E+10	1	-1E+10	1	-1E+10	1	-1E+10	1	-1E+10	1
4902643	5	C	08/10/2024	11:53	-134.027	43.829	0	609.50	0	4.1780	0	34.1070	0	27.062	0	603.729	0	23.1	4	7.3	4	-1E+10	1	-1E+10	1	-1E+10	1	-1E+10	1	-1E+10	1	-1E+10	1
4902643	5	C	08/10/2024	11:53	-134.027	43.829	0	629.50	0	4.1130	0	34.1230	0	27.082	0	623.510	0	21.6	4	6.8	4	-1E+10	1	-1E+10	1	-1E+10	1	-1E+10	1	-1E+10	1	-1E+10	1
4902643	5	C	08/10/2024	11:53	-134.027	43.829	0	649.80	0	4.0600	0	34.1340	0	27.096	0	643.585	0	20.2	4	6.4	4	-1E+10	1	-1E+10	1	-1E+10	1	-1E+10	1	-1E+10	1	-1E+10	1
4902643	5	C	08/10/2024	11:53	-134.027	43.829	0	670.20	0	4.0150	0	34.1480	0	27.112	0	663.758	0	18.6	4	5.9	4	-1E+10	1	-1E+10	1	-1E+10	1	-1E+10	1	-1E+10	1	-1E+10	1
4902643	5	C	08/10/2024	11:53	-134.027	43.829	0	689.80	0	3.9620	0	34.1600	0	27.127	0	683.137	0	17.3	4	5.5	4	-1E+10	1	-1E+10	1	-1E+10	1	-1E+10	1	-1E+10	1	-1E+10	1
4902643	5	C	08/10/2024	11:53	-134.027	43.829	0	709.50	0	3.9130	0	34.1740	0	27.143	0	702.614	0	15.8	4	5.0	4	-1E+10	1	-1E+10	1	-1E+10	1	-1E+10	1	-1E+10	1	-1E+10	1
4902643	5	C	08/10/2024	11:53	-134.027	43.829	0	729.60	0	3.8580	0	34.1880	0	27.160	0	722.484	0	14.7	4	4.6	4	-1E+10	1	-1E+10	1	-1E+10	1	-1E+10	1	-1E+10	1	-1E+10	1
4902643	5	C	08/10/2024	11:53	-134.027	43.829	0	749.60	0	3.8040	0	34.2000	0	27.175	0	742.253	0	13.6	4	4.3	4	-1E+10	1	-1E+10	1	-1E+10	1	-1E+10	1	-1E+10	1	-1E+10	1
4902643	5	C	08/10/2024	11:53	-134.027	43.829	0	769.90	0	3.7530	0	34.2140	0	27.191	0	762.317	0	12.4	4	3.9	4	-1E+10	1	-1E+10	1	-1E+10	1	-1E+10	1	-1E+10	1	-1E+10	1
4902643	5	C	08/10/2024	11:53	-134.027	43.829	0	790.20	0	3.6910	0	34.2300	0	27.210	0	782.379	0	11.5	4	3.6	4	-1E+10	1	-1E+10	1	-1E+10	1	-1E+10	1	-1E+10	1	-1E+10	1
4902643	5	C	08/10/2024	11:53	-134.027	43.829	0	809.70	0	3.6340	0	34.2430	0	27.227	0	801.649	0	10.8	4	3.4	4	-1E+10	1	-1E+10	1	-1E+10	1	-1E+10	1	-1E+10	1	-1E+10	1
4902643	5	C	08/10/2024	11:53	-134.027	43.829	0	829.60	0	3.5900	0	34.2560	0	27.241	0	821.312	0	9.9	4	3.1	4	-1E+10	1	-1E+10	1	-1E+10	1	-1E+10	1	-1E+10	1	-1E+10	1
4902643	5	C	08/10/2024	11:53	-134.027	43.829	0	849.90	0	3.5560	0	34.2690	0	27.255	0	841.368	0	9.1	4	2.8	4	-1E+10	1	-1E+10	1	-1E+10	1	-1E+10	1	-1E+10	1	-1E+10	1
4902643	5	C	08/10/2024	11:53	-134.027	43.829	0	869.90	0	3.5250	0	34.2840	0	27.270	0	861.126	0	8.3	4	2.6	4	-1E+10	1	-1E+10	1	-1E+10	1	-1E+10	1	-1E+10	1	-1E+10	1
4902643	5	C	08/10/2024	11:53	-134.027	43.829	0	890.50	0	3.5050	0	34.3010	0	27.286	0	881.475	0	7.7	4	2.4	4	-1E+10	1	-1E+10	1	-1E+10	1	-1E+10	1	-1E+10	1	-1E+10	1
4902643	5	C	08/10/2024	11:53	-134.027	43.829	0	909.70	0	3.5000	0	34.3150	0	27.298	0	900.439	0	7.3	4	2.3	4	-1E+10	1	-1E+10	1	-1E+10	1	-1E+10	1	-1E+10	1	-1E+10	1
4902643	5	C	08/10/2024	11:53	-134.027	43.829	0	929.90	0	3.4890	0	34.3290	0	27.310	0	920.389	0	7.1	4	2.2	4	-1E+10	1	-1E+10	1	-1E+10	1	-1E+10	1	-1E+10	1	-1E+10	1
4902643	5	C	08/10/2024	11:53	-134.027	43.829	0	949.70	0	3.4760	0	34.3400	0	27.320	0	939.942	0	7.1	4	2.2	4	-1E+10	1	-1E+10	1	-1E+10	1	-1E+10	1	-1E+10	1	-1E+10	1
4902643	5	C	08/10/2024	11:53	-134.027	43.829	0	969.50	0	3.4240	0	34.3480	0	27.332	0	959.494	0	7.1	4	2.2	4	-1E+10	1	-1E+10	1	-1E+10	1	-1E+10	1	-1E+10	1	-1E+10	1
4902643	5	C	08/10/2024	11:53	-134.027	43.829	0	989.80	0	3.3780	0	34.3640	0	27.349	0	979.537	0	7.2	4	2.2	4	-1E+10	1	-1E+10	1	-1E+10	1	-1E+10	1	-1E+10	1	-1E+10	1
4902643	5	C	08/10/2024	11:53	-134.027	43.829	0	1009.60	0	3.3410	0	34.3740	0	27.360	0	999.084	0	7.4	4	2.3	4	-1E+10	1	-1E+10	1	-1E+10	1	-1E+10	1	-1E+10	1	-1E+10	1
4902643	5	C	08/10/2024	11:53	-134.027	43.829	0	1030.00	0	3.3600	0	34.3920	0	27.373	0	1019.222	0	7.7	4	2.4	4	-1E+10	1	-1E+10	1	-1E+10	1	-1E+10	1	-1E+10	1	-1E+10	1
4902643	5	C	08/10/2024	11:53	-134.027	43.829	0	1049.60	0	3.3190	0	34.3950	0	27.380	0	1038.568	0	7.9	4	2.5	4	-1E+10	1	-1E+10	1	-1E+10	1	-1E+10	1	-1E+10	1	-1E+10	1
4902643	5	C	08/10/2024	11:53	-134.027	43.829	0	1069.50	0	3.2610	0	34.3990	0	27.388	0	1058.209	0	8.2	4	2.5	4	-1E+10	1	-1E+10	1	-1E+10	1	-1E+10	1	-1E+10	1	-1E+10	1
4902643	5	C	08/10/2024	11:53	-134.027	43.829	0	1089.50	0	3.2310	0	34.4110	0	27.401	0	1077.947	0	8.6	4	2.7	4	-1E+10	1	-1E+10	1	-1E+10	1	-1E+10	1	-1E+10	1	-1E+10	1
4902643	5	C	08/10/2024	11:53	-134.027	43.829	0	1109.70	0	3.2040	0	34.4180	0	27.409	0	1097.880	0	8.9	4	2.8	4	-1E+10	1	-1E+10	1	-1E+10	1	-1E+10	1	-1E+10	1	-1E+10	1
4902643	5	C	08/10/2024	11:53	-134.027	43.829	0	1129.80	0	3.1600	0	34.4230	0	27.417	0	1117.712	0	9.1	4	2.8	4	-1E+10	1	-1E+10	1	-1E+10	1	-1E+10	1	-1E+10	1	-1E+10	1
4902643	5	C	08/10/2024	11:53	-134.027	43.829	0	1149.80	0	3.1110	0	34.4260	0	27.424	0	1137.444	0	9.3	4	2.9	4	-1E+10	1	-1E+10	1	-1E+10	1	-1E+10	1	-1E+10	1	-1E+10	1
4902643	5	C	08/10/2024	11:53	-134.027	43.829	0	1169.80	0	3.0840	0	34.4320	0	27.432	0	1157.174	0	9.8	4	3.0	4	-1E+10	1	-1E+10	1	-1E+10	1	-1E+10	1	-1E+10	1	-1E+10	1
4902643	5	C	08/10/2024	11:53	-134.027	43.829	0	1190.20	0	3.0500	0	34.4390	0	27.440	0	1177.297	0	10.4	4	3.2	4	-1E+10	1	-1E+10	1	-1E+10	1	-1E+10	1	-1E+10	1	-1E+10	1
4902643	5	C	08/10/2024	11:53	-134.027	43.829	0	1209.70	0	3.0150	0	34.4460	0	27.449	0	1196.530	0	11.1	4	3.4	4	-1E+10	1	-1E+10	1	-1E+10	1	-1E+10	1	-1E+10	1	-1E+10	1
4902643	5	C	08/10/2024	11:53	-134.027	43.829	0	1229.90	0	2.9750	0	34.4520	0	27.458	0	1216.452	0	11.7	4	3.6	4	-1E+10	1	-1E+10	1	-1E+10	1	-1E+10	1	-1E+10	1	-1E+10	1
4902643	5	C	08/10/2024	11:53	-134.027	43.829	0	1249.80	0	2.9390	0	34.4580	0	27.466	0	1236.076	0	12.4	4	3.8	4	-1E+10	1	-1E+10	1	-1E+10	1	-1E+10	1	-1E+10	1	-1E+10	1
4902643	5	C	08/10/2024	11:53	-134.027	43.829	0	1269.80	0	2.9050	0	34.4630	0	27.473	0	1255.796	0	13.0	4	4.0	4	-1E+10	1	-1E+10	1	-1E+10	1	-1E+10	1	-1E+10	1	-1E+10	1
4902643	5	C	08/10/2024	11:53	-134.027	43.829	0	1290.00	0	2.8710	0	34.4680	0	27.480	0	1275.712	0	13.8	4	4.2	4	-1E+10	1	-1E+10	1	-1E+10	1	-1E+10	1	-1E+10	1	-1E+10	1
4902643	5	C	08/10/2024	11:53	-134.027	43.829	0	1309.90	0	2.8340	0	34.4730	0	27.487	0	1295.331	0	14.7	4	4.5	4	-1E+10	1	-1E+10	1	-1E+10	1	-1E+10	1	-1E+10	1	-1E+10	1
4902643	5	C	08/10/2024	11:53	-134.027	43.829	0	1329.80	0	2.7930	0	34.4790	0	27.496	0	1314.947	0	15.7	4	4.8	4	-1E+10	1	-1E+10	1	-1E+10	1	-1E+10	1	-1E+10	1	-1E+10	1
4902643	5	C	08/10/2024	11:53	-134.027	43.829	0	1349.70	0	2.7580	0	34.4840	0	27.503	0	1334.562	0	16.7	4	5.1	4	-1E+10	1	-1E+10	1	-1E+10	1	-1E+10	1	-1E+10	1	-1E+10	1
4902643	5	C	08/10/2024	11:53	-134.027	43.829	0	1369.10	0	2.7250	0	34.4900	0	27.511	0	1353.682	0	17.9	4	5.5	4	-1E+10	1	-1E+10	1	-1E+10	1	-1E+10	1	-1E+10	1	-1E+10	1
4902643	5	C	08/10/2024	11:53	-134.027	43.829	0	1389.80	0	2.6880	0	34.4950	0	27.518	0	1374.082	0	19.3	4	5.9	4	-1E+10	1	-1E+10	1	-1E+10	1	-1E+10	1	-1E+10	1	-1E+10	1
4902643	5	C	08/10/2024	11:53	-134.027	43.829	0	1409.40	0	2.6610	0	34.5000	0	27.525	0	1393.395	0	20.5	4	6.3	4	-1E+10	1	-1E+10	1	-1E+10	1	-1E+10	1	-1E+10	1	-1E+10	1
4902643	5	C	08/10/2024	11:53	-134.027	43.829	0	1429.40	0	2.6340	0	34.5050	0	27.531	0	1413.101	0	21.4	4	6.6	4	-1E+10	1	-1E+10	1	-1E+10	1	-1E+10	1	-1E+10	1	-1E+10	1
4902643	5	C	08/10/2024	11:53	-134.027	43.829	0	1449.70	0	2.5920	0	34.5090	0	27.538	0	1433.101	0	22.3	4	6.8	4	-1E+10	1	-1E+10	1	-1E+10	1	-1E+10	1	-1E+10	1	-1E+10	1
4902643	5	C	08/10/2024	11:53	-134.027	43.829	0	1470.10	0	2.5500	0	34.5130	0	27.545	0	1453.197	0	23.6	4	7.2	4	-1E+10	1	-1E+10	1	-1E+10	1	-1E+10	1	-1E+10	1	-1E+10	1
4902643	5	C	08/10/2024	11:53	-134.027	43.829	0	1489.90	0	2.5180	0	34.5180	0	27.552	0	1472.701	0	24.8	4	7.6	4	-1E+10	1	-1E+10	1	-1E+10	1	-1E+10	1	-1E+10	1	-1E+10	1
4902643	5	C	08/10/2024	11:53	-134.027	43.829	0	1509.80	0	2.4850	0	34.5220	0	27.558	0	1492.301	0	25.9	4	7.9	4	-1E+10	1	-1E+10	1	-1E+10	1	-1E+10	1	-1E+10	1	-1E+10	1
4902643	5	C	08/10/2024	11:53	-134.027	43.829	0	1530.10	0	2.4480	0	34.5260	0	27.564	0	1512.293	0	27.3	4	8.3	4	-1E+10	1	-1E+10	1	-1E+10	1	-1E+10	1	-1E+10	1	-1E+10	1
4902643	5	C	08/10/2024	11:53	-134.027	43.829	0	1549.90	0	2.4130	0	34.5310	0	27.571	0	1531.791	0	29.0	4	8.8	4	-1E+10	1	-1E+10	1	-1E+10	1	-1E+10	1	-1E+10	1	-1E+10	1
4902643	5	C	08/10/2024	11:53	-134.027	43.829	0	1570.50	0	2.3720	0	34.5360	0	27.579	0	1552.075	0	30.4	4	9.2	4	-1E+10	1	-1E+10	1	-1E+10	1	-1E+10	1	-1E+10	1	-1E+10	1
4902643	5	C	08/10/2024	11:53	-134.027	43.829	0	1590.20	0	2.3390	0	34.5400	0	27.585	0	1571.470	0	31.6	4	9.6	4	-1E+10	1	-1E+10	1	-1E+10	1	-1E+10	1	-1E+10	1	-1E+10	1
4902643	5	C	08/10/2024	11:53	-134.027	43.829	0	1610.30	0	2.3170	0	34.5430	0	27.589	0	1591.258	0	32.6	4	9.9	4	-1E+10	1	-1E+10	1	-1E+10	1	-1E+10	1	-1E+10	1	-1E+10	1
4902643	5	C	08/10/2024	11:53	-134.027	43.829	0	1630.30	0	2.2970	0	34.5450	0	27.592	0	1610.946	0	33.7	4	10.2	4	-1E+10	1	-1E+10	1	-1E+10	1	-1E+10	1	-1E+10	1	-1E+10	1
4902643	5	C	08/10/2024	11:53	-134.027	43.829	0	1650.20	0	2.2680	0	34.5490	0	27.598	0	1630.533	0	35.0	4	10.6	4	-1E+10	1	-1E+10	1	-1E+10	1	-1E+10	1	-1E+10	1	-1E+10	1
4902643	5	C	08/10/2024	11:53	-134.027	43.829	0	1670.10	0	2.2440	0	34.5530	0	27.603	0	1650.118	0	36.2	4	11.0	4	-1E+10	1	-1E+10	1	-1E+10	1	-1E+10	1	-1E+10	1	-1E+10	1
4902643	5	C	08/10/2024	11:53	-134.027	43.829	0	1690.00	0	2.2200	0	34.5560	0	27.608	0	1669.702	0	37.4	4	11.3	4	-1E+10	1	-1E+10	1	-1E+10	1	-1E+10	1	-1E+10	1	-1E+10	1
4902643	5	C	08/10/2024	11:53	-134.027	43.829	0	1709.80	0	2.1950	0	34.5590	0	27.612	0	1689.185	0	38.8	4	11.8	4	-1E+10	1	-1E+10	1	-1E+10	1	-1E+10	1	-1E+10	1	-1E+10	1
4902643	5	C	08/10/2024	11:53	-134.027	43.829	0	1730.00	0	2.1700	0	34.5630	0	27.617	0	1709.060	0	40.1	4	12.1	4	-1E+10	1	-1E+10	1	-1E+10	1	-1E+10	1	-1E+10	1	-1E+10	1
4902643	5	C	08/10/2024	11:53	-134.027	43.829	0	1750.90	0	2.1480	0	34.5660	0	27.622	0	1729.622	0	41.2	4	12.5	4	-1E+10	1	-1E+10	1	-1E+10	1	-1E+10	1	-1E+10	1	-1E+10	1
4902643	5	C	08/10/2024	11:53	-134.027	43.829	0	1770.00	0	2.1310	0	34.5680	0	27.625	0	1748.411	0	42.3	4	12.8	4	-1E+10	1	-1E+10	1	-1E+10	1	-1E+10	1	-1E+10	1	-1E+10	1
4902643	5	C	08/10/2024	11:53	-134.027	43.829	0	1789.90	0	2.1110	0	34.5710	0	27.629	0	1767.986	0	43.6	4	13.2	4	-1E+10	1	-1E+10	1	-1E+10	1	-1E+10	1	-1E+10	1	-1E+10	1
4902643	5	C	08/10/2024	11:53	-134.027	43.829	0	1809.80	0	2.0920	0	34.5740	0	27.633	0	1787.559	0	44.8	4	13.5	4	-1E+10	1	-1E+10	1	-1E+10	1	-1E+10	1	-1E+10	1	-1E+10	1
4902643	5	C	08/10/2024	11:53	-134.027	43.829	0	1830.00	0	2.0730	0	34.5770	0	27.637	0	1807.425	0	46.1	4	13.9	4	-1E+10	1	-1E+10	1	-1E+10	1	-1E+10	1	-1E+10	1	-1E+10	1
4902643	5	C	08/10/2024	11:53	-134.027	43.829	0	1850.20	0	2.0570	0	34.5790	0	27.640	0	1827.289	0	47.2	4	14.2	4	-1E+10	1	-1E+10	1	-1E+10	1	-1E+10	1	-1E+10	1	-1E+10	1
4902643	5	C	08/10/2024	11:53	-134.027	43.829	0	1869.90	0	2.0400	0	34.5820	0	27.644	0	1846.659	0	48.4	4	14.6	4	-1E+10	1	-1E+10	1	-1E+10	1	-1E+10	1	-1E+10	1	-1E+10	1
4902643	5	C	08/10/2024	11:53	-134.027	43.829	0	1889.60	0	2.0260	0	34.5850	0	27.647	0	1866.028	0	49.3	4	14.9	4	-1E+10	1	-1E+10	1	-1E+10	1	-1E+10	1	-1E+10	1	-1E+10	1
4902643	5	C	08/10/2024	11:53	-134.027	43.829	0	1909.70	0	2.0150	0	34.5860	0	27.649	0	1885.788	0	50.2	4	15.1	4	-1E+10	1	-1E+10	1	-1E+10	1	-1E+10	1	-1E+10	1	-1E+10	1
4902643	5	C	08/10/2024	11:53	-134.027	43.829	0	1929.70	0	2.0050	0	34.5880	0	27.651	0	1905.448	0	51.1	4	15.4	4	-1E+10	1	-1E+10	1	-1E+10	1	-1E+10	1	-1E+10	1	-1E+10	1
4902643	5	C	08/10/2024	11:53	-134.027	43.829	0	1949.80	0	1.9930	0	34.5900	0	27.654	0	1925.205	0	52.1	4	15.7	4	-1E+10	1	-1E+10	1	-1E+10	1	-1E+10	1	-1E+10	1	-1E+10	1
4902643	5	C	08/10/2024	11:53	-134.027	43.829	0	1969.80	0	1.9780	0	34.5920	0	27.657	0	1944.861	0	53.3	4	16.1	4	-1E+10	1	-1E+10	1	-1E+10	1	-1E+10	1	-1E+10	1	-1E+10	1
4902643	5	C	08/10/2024	11:53	-134.027	43.829	0	1989.90	0	1.9640	0	34.5940	0	27.660	0	1964.614	0	54.3	4	16.4	4	-1E+10	1	-1E+10	1	-1E+10	1	-1E+10	1	-1E+10	1	-1E+10	1
4902643	5	C	08/10/2024	11:53	-134.027	43.829	0	2009.80	0	1.9540	0	34.5950	4	27.661	0	1984.169	0	55.1	4	16.6	4	-1E+10	1	-1E+10	1	-1E+10	1	-1E+10	1	-1E+10	1	-1E+10	1
4902643	5	C	08/10/2024	11:53	-134.027	43.829	0	2029.80	0	1.9440	0	34.5970	4	27.664	0	2003.820	0	56.1	4	16.9	4	-1E+10	1	-1E+10	1	-1E+10	1	-1E+10	1	-1E+10	1	-1E+10	1
4902643	5	C	08/10/2024	11:53	-134.027	43.829	0	2049.90	0	1.9310	0	34.5990	4	27.667	0	2023.567	0	57.1	4	17.2	4	-1E+10	1	-1E+10	1	-1E+10	1	-1E+10	1	-1E+10	1	-1E+10	1
4902643	5	C	08/10/2024	11:53	-134.027	43.829	0	2069.60	0	1.9210	0	34.6010	4	27.669	0	2042.920	0	58.0	4	17.5	4	-1E+10	1	-1E+10	1	-1E+10	1	-1E+10	1	-1E+10	1	-1E+10	1
4902643	5	C	08/10/2024	11:53	-134.027	43.829	0	2089.50	0	1.9100	0	34.6030	4	27.672	0	2062.467	0	59.0	4	17.7	4	-1E+10	1	-1E+10	1	-1E+10	1	-1E+10	1	-1E+10	1	-1E+10	1
4902643	5	C	08/10/2024	11:53	-134.027	43.829	0	2109.90	0	1.8990	0	34.6050	4	27.674	0	2082.504	0	59.9	4	18.0	4	-1E+10	1	-1E+10	1	-1E+10	1	-1E+10	1	-1E+10	1	-1E+10	1
4902643	5	C	08/10/2024	11:53	-134.027	43.829	0	2130.00	0	1.8890	0	34.6060	4	27.676	0	2102.244	0	60.8	4	18.3	4	-1E+10	1	-1E+10	1	-1E+10	1	-1E+10	1	-1E+10	1	-1E+10	1
4902643	5	C	08/10/2024	11:53	-134.027	43.829	0	2150.00	0	1.8780	0	34.6070	4	27.678	0	2121.884	0	61.7	4	18.5	4	-1E+10	1	-1E+10	1	-1E+10	1	-1E+10	1	-1E+10	1	-1E+10	1
4902643	5	C	08/10/2024	11:53	-134.027	43.829	0	2170.20	0	1.8670	0	34.6090	4	27.680	0	2141.719	0	62.6	4	18.8	4	-1E+10	1	-1E+10	1	-1E+10	1	-1E+10	1	-1E+10	1	-1E+10	1
4902643	5	C	08/10/2024	11:53	-134.027	43.829	0	2189.90	0	1.8580	0	34.6100	4	27.682	0	2161.061	0	63.3	4	19.0	4	-1E+10	1	-1E+10	1	-1E+10	1	-1E+10	1	-1E+10	1	-1E+10	1
4902643	5	C	08/10/2024	11:53	-134.027	43.829	0	2210.10	0	1.8520	0	34.6120	4	27.684	0	2180.892	0	64.1	4	19.3	4	-1E+10	1	-1E+10	1	-1E+10	1	-1E+10	1	-1E+10	1	-1E+10	1
4902643	5	C	08/10/2024	11:53	-134.027	43.829	0	2229.60	0	1.8440	0	34.6130	4	27.686	0	2200.034	0	64.7	4	19.4	4	-1E+10	1	-1E+10	1	-1E+10	1	-1E+10	1	-1E+10	1	-1E+10	1
4902643	5	C	08/10/2024	11:53	-134.027	43.829	0	2249.60	0	1.8360	0	34.6140	4	27.687	0	2219.665	0	65.4	4	19.6	4	-1E+10	1	-1E+10	1	-1E+10	1	-1E+10	1	-1E+10	1	-1E+10	1
4902643	5	C	08/10/2024	11:53	-134.027	43.829	0	2269.90	0	1.8290	0	34.6150	4	27.688	0	2239.589	0	66.0	4	19.8	4	-1E+10	1	-1E+10	1	-1E+10	1	-1E+10	1	-1E+10	1	-1E+10	1
4902643	5	C	08/10/2024	11:53	-134.027	43.829	0	2290.00	0	1.8210	0	34.6160	4	27.690	0	2259.314	0	66.7	4	20.0	4	-1E+10	1	-1E+10	1	-1E+10	1	-1E+10	1	-1E+10	1	-1E+10	1
4902643	5	C	08/10/2024	11:53	-134.027	43.829	0	2309.70	0	1.8130	0	34.6170	4	27.692	0	2278.646	0	67.6	4	20.3	4	-1E+10	1	-1E+10	1	-1E+10	1	-1E+10	1	-1E+10	1	-1E+10	1
4902643	5	C	08/10/2024	11:53	-134.027	43.829	0	2329.80	0	1.8020	0	34.6190	4	27.694	0	2298.368	0	68.7	4	20.6	4	-1E+10	1	-1E+10	1	-1E+10	1	-1E+10	1	-1E+10	1	-1E+10	1
4902643	5	C	08/10/2024	11:53	-134.027	43.829	0	2349.60	0	1.7920	0	34.6200	4	27.696	0	2317.794	0	69.5	4	20.9	4	-1E+10	1	-1E+10	1	-1E+10	1	-1E+10	1	-1E+10	1	-1E+10	1
4902643	5	C	08/10/2024	11:53	-134.027	43.829	0	2369.90	0	1.7880	0	34.6210	4	27.697	0	2337.708	0	70.2	4	21.1	4	-1E+10	1	-1E+10	1	-1E+10	1	-1E+10	1	-1E+10	1	-1E+10	1
4902643	5	C	08/10/2024	11:53	-134.027	43.829	0	2390.00	0	1.7810	0	34.6220	4	27.698	0	2357.425	0	71.4	4	21.4	4	-1E+10	1	-1E+10	1	-1E+10	1	-1E+10	1	-1E+10	1	-1E+10	1
4902643	5	C	08/10/2024	11:53	-134.027	43.829	0	2409.70	0	1.7710	0	34.6240	4	27.701	0	2376.747	0	72.5	4	21.7	4	-1E+10	1	-1E+10	1	-1E+10	1	-1E+10	1	-1E+10	1	-1E+10	1
4902643	5	C	08/10/2024	11:53	-134.027	43.829	0	2430.30	0	1.7630	0	34.6250	4	27.702	0	2396.951	0	73.5	4	22.0	4	-1E+10	1	-1E+10	1	-1E+10	1	-1E+10	1	-1E+10	1	-1E+10	1
4902643	5	C	08/10/2024	11:53	-134.027	43.829	0	2449.80	0	1.7530	0	34.6270	4	27.705	0	2416.073	0	74.4	4	22.3	4	-1E+10	1	-1E+10	1	-1E+10	1	-1E+10	1	-1E+10	1	-1E+10	1
4902643	5	C	08/10/2024	11:53	-134.027	43.829	0	2470.00	0	1.7440	0	34.6280	4	27.706	0	2435.881	0	75.3	4	22.6	4	-1E+10	1	-1E+10	1	-1E+10	1	-1E+10	1	-1E+10	1	-1E+10	1
4902643	5	C	08/10/2024	11:53	-134.027	43.829	0	2490.20	0	1.7360	0	34.6290	4	27.708	0	2455.686	0	76.1	4	22.8	4	-1E+10	1	-1E+10	1	-1E+10	1	-1E+10	1	-1E+10	1	-1E+10	1
4902643	5	C	08/10/2024	11:53	-134.027	43.829	0	2509.70	0	1.7290	0	34.6300	4	27.709	0	2474.804	0	76.7	4	23.0	4	-1E+10	1	-1E+10	1	-1E+10	1	-1E+10	1	-1E+10	1	-1E+10	1
4902643	5	C	08/10/2024	11:53	-134.027	43.829	0	2529.90	0	1.7220	0	34.6310	4	27.711	0	2494.606	0	77.5	4	23.2	4	-1E+10	1	-1E+10	1	-1E+10	1	-1E+10	1	-1E+10	1	-1E+10	1
4902643	5	C	08/10/2024	11:53	-134.027	43.829	0	2549.80	0	1.7150	0	34.6320	4	27.712	0	2514.112	0	78.2	4	23.4	4	-1E+10	1	-1E+10	1	-1E+10	1	-1E+10	1	-1E+10	1	-1E+10	1
4902643	5	C	08/10/2024	11:53	-134.027	43.829	0	2570.00	0	1.7090	0	34.6320	4	27.713	0	2533.911	0	78.9	4	23.6	4	-1E+10	1	-1E+10	1	-1E+10	1	-1E+10	1	-1E+10	1	-1E+10	1
4902643	5	C	08/10/2024	11:53	-134.027	43.829	0	2590.00	0	1.7040	0	34.6330	4	27.714	0	2553.511	0	79.5	4	23.8	4	-1E+10	1	-1E+10	1	-1E+10	1	-1E+10	1	-1E+10	1	-1E+10	1
4902643	5	C	08/10/2024	11:53	-134.027	43.829	0	2610.20	0	1.6990	0	34.6340	4	27.715	0	2573.306	0	80.2	4	24.0	4	-1E+10	1	-1E+10	1	-1E+10	1	-1E+10	1	-1E+10	1	-1E+10	1
4902643	5	C	08/10/2024	11:53	-134.027	43.829	0	2629.70	0	1.6930	0	34.6350	4	27.717	0	2592.413	0	80.9	4	24.2	4	-1E+10	1	-1E+10	1	-1E+10	1	-1E+10	1	-1E+10	1	-1E+10	1
4902643	5	C	08/10/2024	11:53	-134.027	43.829	0	2649.70	0	1.6890	0	34.6350	4	27.717	0	2612.008	0	81.5	4	24.4	4	-1E+10	1	-1E+10	1	-1E+10	1	-1E+10	1	-1E+10	1	-1E+10	1
4902643	5	C	08/10/2024	11:53	-134.027	43.829	0	2669.60	0	1.6830	0	34.6360	4	27.719	0	2631.504	0	82.3	4	24.6	4	-1E+10	1	-1E+10	1	-1E+10	1	-1E+10	1	-1E+10	1	-1E+10	1
4902643	5	C	08/10/2024	11:53	-134.027	43.829	0	2689.60	0	1.6780	0	34.6370	4	27.720	0	2651.096	0	83.0	4	24.8	4	-1E+10	1	-1E+10	1	-1E+10	1	-1E+10	1	-1E+10	1	-1E+10	1
4902643	5	C	08/10/2024	11:53	-134.027	43.829	0	2709.50	0	1.6720	0	34.6380	4	27.721	0	2670.588	0	83.9	4	25.1	4	-1E+10	1	-1E+10	1	-1E+10	1	-1E+10	1	-1E+10	1	-1E+10	1
4902643	5	C	08/10/2024	11:53	-134.027	43.829	0	2730.00	0	1.6640	0	34.6390	4	27.723	0	2690.665	0	84.8	4	25.4	4	-1E+10	1	-1E+10	1	-1E+10	1	-1E+10	1	-1E+10	1	-1E+10	1
4902643	5	C	08/10/2024	11:53	-134.027	43.829	0	2750.30	0	1.6580	0	34.6400	4	27.724	0	2710.546	0	85.5	4	25.6	4	-1E+10	1	-1E+10	1	-1E+10	1	-1E+10	1	-1E+10	1	-1E+10	1
4902643	5	C	08/10/2024	11:53	-134.027	43.829	0	2770.30	0	1.6530	0	34.6410	4	27.725	0	2730.130	0	86.3	4	25.8	4	-1E+10	1	-1E+10	1	-1E+10	1	-1E+10	1	-1E+10	1	-1E+10	1
4902643	5	C	08/10/2024	11:53	-134.027	43.829	0	2790.10	0	1.6470	0	34.6420	4	27.727	0	2749.517	0	87.2	4	26.1	4	-1E+10	1	-1E+10	1	-1E+10	1	-1E+10	1	-1E+10	1	-1E+10	1
4902643	5	C	08/10/2024	11:53	-134.027	43.829	0	2809.80	0	1.6440	0	34.6420	4	27.727	0	2768.804	0	87.7	4	26.2	4	-1E+10	1	-1E+10	1	-1E+10	1	-1E+10	1	-1E+10	1	-1E+10	1
4902643	5	C	08/10/2024	11:53	-134.027	43.829	0	2829.90	0	1.6390	0	34.6430	4	27.728	0	2788.481	0	88.4	4	26.4	4	-1E+10	1	-1E+10	1	-1E+10	1	-1E+10	1	-1E+10	1	-1E+10	1
4902643	5	C	08/10/2024	11:53	-134.027	43.829	0	2849.60	0	1.6340	0	34.6440	4	27.730	0	2807.765	0	89.0	4	26.6	4	-1E+10	1	-1E+10	1	-1E+10	1	-1E+10	1	-1E+10	1	-1E+10	1
4902643	5	C	08/10/2024	11:53	-134.027	43.829	0	2869.60	0	1.6310	0	34.6440	4	27.730	0	2827.341	0	89.6	4	26.8	4	-1E+10	1	-1E+10	1	-1E+10	1	-1E+10	1	-1E+10	1	-1E+10	1
4902643	5	C	08/10/2024	11:53	-134.027	43.829	0	2889.70	0	1.6260	0	34.6450	4	27.731	0	2847.013	0	90.3	4	27.0	4	-1E+10	1	-1E+10	1	-1E+10	1	-1E+10	1	-1E+10	1	-1E+10	1
4902643	5	C	08/10/2024	11:53	-134.027	43.829	0	2909.80	0	1.6210	0	34.6460	4	27.733	0	2866.683	0	90.9	4	27.2	4	-1E+10	1	-1E+10	1	-1E+10	1	-1E+10	1	-1E+10	1	-1E+10	1
4902643	5	C	08/10/2024	11:53	-134.027	43.829	0	2929.80	0	1.6170	0	34.6470	4	27.734	0	2886.253	0	91.7	4	27.4	4	-1E+10	1	-1E+10	1	-1E+10	1	-1E+10	1	-1E+10	1	-1E+10	1
4902643	5	C	08/10/2024	11:53	-134.027	43.829	0	2949.60	0	1.6090	0	34.6480	4	27.735	0	2905.626	0	92.7	4	27.7	4	-1E+10	1	-1E+10	1	-1E+10	1	-1E+10	1	-1E+10	1	-1E+10	1
4902643	5	C	08/10/2024	11:53	-134.027	43.829	0	2970.00	0	1.6020	0	34.6490	4	27.737	0	2925.584	0	93.7	4	28.0	4	-1E+10	1	-1E+10	1	-1E+10	1	-1E+10	1	-1E+10	1	-1E+10	1
4902643	5	C	08/10/2024	11:53	-134.027	43.829	0	2990.20	0	1.5970	0	34.6500	4	27.738	0	2945.345	0	94.4	4	28.2	4	-1E+10	1	-1E+10	1	-1E+10	1	-1E+10	1	-1E+10	1	-1E+10	1
4902643	5	C	08/10/2024	11:53	-134.027	43.829	0	3010.30	0	1.5940	0	34.6500	4	27.738	0	2965.006	0	95.1	4	28.4	4	-1E+10	1	-1E+10	1	-1E+10	1	-1E+10	1	-1E+10	1	-1E+10	1
4902643	5	C	08/10/2024	11:53	-134.027	43.829	0	3030.00	0	1.5920	0	34.6510	4	27.739	0	2984.274	0	96.0	4	28.7	4	-1E+10	1	-1E+10	1	-1E+10	1	-1E+10	1	-1E+10	1	-1E+10	1
4902643	5	C	08/10/2024	11:53	-134.027	43.829	0	3050.40	0	1.5900	0	34.6520	4	27.741	0	3004.225	0	96.4	4	28.8	4	-1E+10	1	-1E+10	1	-1E+10	1	-1E+10	1	-1E+10	1	-1E+10	1
4902643	5	C	08/10/2024	11:53	-134.027	43.829	0	3070.20	0	1.5870	0	34.6520	4	27.741	0	3023.588	0	96.8	4	28.9	4	-1E+10	1	-1E+10	1	-1E+10	1	-1E+10	1	-1E+10	1	-1E+10	1
4902643	5	C	08/10/2024	11:53	-134.027	43.829	0	3090.20	0	1.5820	0	34.6530	4	27.742	0	3043.144	0	97.5	4	29.1	4	-1E+10	1	-1E+10	1	-1E+10	1	-1E+10	1	-1E+10	1	-1E+10	1
4902643	5	C	08/10/2024	11:53	-134.027	43.829	0	3110.10	0	1.5780	0	34.6530	4	27.743	0	3062.601	0	98.2	4	29.3	4	-1E+10	1	-1E+10	1	-1E+10	1	-1E+10	1	-1E+10	1	-1E+10	1
4902643	5	C	08/10/2024	11:53	-134.027	43.829	0	3130.20	0	1.5720	0	34.6540	4	27.744	0	3082.251	0	98.8	4	29.5	4	-1E+10	1	-1E+10	1	-1E+10	1	-1E+10	1	-1E+10	1	-1E+10	1
4902643	5	C	08/10/2024	11:53	-134.027	43.829	0	3149.80	0	1.5690	0	34.6550	4	27.745	0	3101.411	0	99.4	4	29.7	4	-1E+10	1	-1E+10	1	-1E+10	1	-1E+10	1	-1E+10	1	-1E+10	1
4902643	5	C	08/10/2024	11:53	-134.027	43.829	0	3169.90	0	1.5670	0	34.6550	4	27.745	0	3121.058	0	99.9	4	29.8	4	-1E+10	1	-1E+10	1	-1E+10	1	-1E+10	1	-1E+10	1	-1E+10	1
4902643	5	C	08/10/2024	11:53	-134.027	43.829	0	3189.80	0	1.5640	0	34.6560	4	27.747	0	3140.508	0	100.5	4	30.0	4	-1E+10	1	-1E+10	1	-1E+10	1	-1E+10	1	-1E+10	1	-1E+10	1
4902643	5	C	08/10/2024	11:53	-134.027	43.829	0	3210.10	0	1.5620	0	34.6560	4	27.747	0	3160.347	0	100.9	4	30.1	4	-1E+10	1	-1E+10	1	-1E+10	1	-1E+10	1	-1E+10	1	-1E+10	1
4902643	5	C	08/10/2024	11:53	-134.027	43.829	0	3230.60	0	1.5610	0	34.6560	4	27.747	0	3180.379	0	101.2	4	30.2	4	-1E+10	1	-1E+10	1	-1E+10	1	-1E+10	1	-1E+10	1	-1E+10	1
4902643	5	C	08/10/2024	11:53	-134.027	43.829	0	3249.60	0	1.5600	0	34.6570	4	27.748	0	3198.945	0	101.6	4	30.3	4	-1E+10	1	-1E+10	1	-1E+10	1	-1E+10	1	-1E+10	1	-1E+10	1
4902643	5	C	08/10/2024	11:53	-134.027	43.829	0	3269.60	0	1.5590	0	34.6570	4	27.748	0	3218.485	0	102.0	4	30.4	4	-1E+10	1	-1E+10	1	-1E+10	1	-1E+10	1	-1E+10	1	-1E+10	1
4902643	5	C	08/10/2024	11:53	-134.027	43.829	0	3289.60	0	1.5580	0	34.6580	4	27.749	0	3238.024	0	102.4	4	30.5	4	-1E+10	1	-1E+10	1	-1E+10	1	-1E+10	1	-1E+10	1	-1E+10	1
4902643	5	C	08/10/2024	11:53	-134.027	43.829	0	3309.80	0	1.5570	0	34.6580	4	27.749	0	3257.756	0	102.9	4	30.7	4	-1E+10	1	-1E+10	1	-1E+10	1	-1E+10	1	-1E+10	1	-1E+10	1
4902643	5	C	08/10/2024	11:53	-134.027	43.829	0	3330.10	0	1.5550	0	34.6580	4	27.750	0	3277.584	0	103.4	4	30.8	4	-1E+10	1	-1E+10	1	-1E+10	1	-1E+10	1	-1E+10	1	-1E+10	1
4902643	5	C	08/10/2024	11:53	-134.027	43.829	0	3350.80	0	1.5520	0	34.6590	4	27.751	0	3297.801	0	103.9	4	31.0	4	-1E+10	1	-1E+10	1	-1E+10	1	-1E+10	1	-1E+10	1	-1E+10	1
4902643	5	C	08/10/2024	11:53	-134.027	43.829	0	3370.20	0	1.5510	0	34.6600	4	27.752	0	3316.747	0	104.3	4	31.1	4	-1E+10	1	-1E+10	1	-1E+10	1	-1E+10	1	-1E+10	1	-1E+10	1
4902643	5	C	08/10/2024	11:53	-134.027	43.829	0	3390.10	0	1.5500	0	34.6600	4	27.752	0	3336.180	0	104.8	4	31.3	4	-1E+10	1	-1E+10	1	-1E+10	1	-1E+10	1	-1E+10	1	-1E+10	1
4902643	5	C	08/10/2024	11:53	-134.027	43.829	0	3409.90	0	1.5490	0	34.6610	4	27.753	0	3355.512	0	105.2	4	31.4	4	-1E+10	1	-1E+10	1	-1E+10	1	-1E+10	1	-1E+10	1	-1E+10	1
4902643	5	C	08/10/2024	11:53	-134.027	43.829	0	3429.60	0	1.5480	0	34.6610	4	27.753	0	3374.746	0	105.4	4	31.5	4	-1E+10	1	-1E+10	1	-1E+10	1	-1E+10	1	-1E+10	1	-1E+10	1
4902643	5	C	08/10/2024	11:53	-134.027	43.829	0	3449.80	0	1.5490	0	34.6620	4	27.754	0	3394.466	0	105.7	4	31.5	4	-1E+10	1	-1E+10	1	-1E+10	1	-1E+10	1	-1E+10	1	-1E+10	1
4902643	5	C	08/10/2024	11:53	-134.027	43.829	0	3469.80	0	1.5480	0	34.6620	4	27.754	0	3413.989	0	105.9	4	31.6	4	-1E+10	1	-1E+10	1	-1E+10	1	-1E+10	1	-1E+10	1	-1E+10	1
4902643	5	C	08/10/2024	11:53	-134.027	43.829	0	3489.70	0	1.5490	0	34.6630	4	27.755	0	3433.413	0	106.3	4	31.7	4	-1E+10	1	-1E+10	1	-1E+10	1	-1E+10	1	-1E+10	1	-1E+10	1
4902643	5	C	08/10/2024	11:53	-134.027	43.829	0	3509.80	0	1.5480	0	34.6630	4	27.755	0	3453.030	0	106.6	4	31.8	4	-1E+10	1	-1E+10	1	-1E+10	1	-1E+10	1	-1E+10	1	-1E+10	1
4902643	5	C	08/10/2024	11:53	-134.027	43.829	0	3530.50	0	1.5480	0	34.6630	4	27.756	0	3473.231	0	107.0	4	31.9	4	-1E+10	1	-1E+10	1	-1E+10	1	-1E+10	1	-1E+10	1	-1E+10	1
4902643	5	C	08/10/2024	11:53	-134.027	43.829	0	3550.20	0	1.5480	0	34.6640	4	27.757	0	3492.454	0	107.3	4	32.0	4	-1E+10	1	-1E+10	1	-1E+10	1	-1E+10	1	-1E+10	1	-1E+10	1
4902643	5	C	08/10/2024	11:53	-134.027	43.829	0	3570.00	0	1.5480	0	34.6640	4	27.757	0	3511.773	0	107.7	4	32.1	4	-1E+10	1	-1E+10	1	-1E+10	1	-1E+10	1	-1E+10	1	-1E+10	1
4902643	5	C	08/10/2024	11:53	-134.027	43.829	0	3589.90	0	1.5480	0	34.6650	4	27.758	0	3531.188	0	107.9	4	32.2	4	-1E+10	1	-1E+10	1	-1E+10	1	-1E+10	1	-1E+10	1	-1E+10	1
4902643	5	C	08/10/2024	11:53	-134.027	43.829	0	3610.20	0	1.5490	0	34.6650	4	27.758	0	3550.992	0	108.1	4	32.3	4	-1E+10	1	-1E+10	1	-1E+10	1	-1E+10	1	-1E+10	1	-1E+10	1
4902643	5	C	08/10/2024	11:53	-134.027	43.829	0	3630.00	0	1.5510	0	34.6660	4	27.759	0	3570.306	0	108.3	4	32.3	4	-1E+10	1	-1E+10	1	-1E+10	1	-1E+10	1	-1E+10	1	-1E+10	1
4902643	5	C	08/10/2024	11:53	-134.027	43.829	0	3649.90	0	1.5520	0	34.6660	4	27.759	0	3589.716	0	108.5	4	32.4	4	-1E+10	1	-1E+10	1	-1E+10	1	-1E+10	1	-1E+10	1	-1E+10	1
4902643	5	C	08/10/2024	11:53	-134.027	43.829	0	3670.70	0	1.5520	0	34.6660	4	27.759	0	3610.002	0	108.5	4	32.4	4	-1E+10	1	-1E+10	1	-1E+10	1	-1E+10	1	-1E+10	1	-1E+10	1
4902643	5	C	08/10/2024	11:53	-134.027	43.829	0	3689.80	0	1.5520	0	34.6660	4	27.759	0	3628.628	0	108.6	4	32.4	4	-1E+10	1	-1E+10	1	-1E+10	1	-1E+10	1	-1E+10	1	-1E+10	1
4902643	5	C	08/10/2024	11:53	-134.027	43.829	0	3709.70	0	1.5530	0	34.6660	4	27.759	0	3648.032	0	108.7	4	32.4	4	-1E+10	1	-1E+10	1	-1E+10	1	-1E+10	1	-1E+10	1	-1E+10	1
4902643	5	C	08/10/2024	11:53	-134.027	43.829	0	3729.70	0	1.5530	0	34.6670	4	27.760	0	3667.533	0	108.9	4	32.5	4	-1E+10	1	-1E+10	1	-1E+10	1	-1E+10	1	-1E+10	1	-1E+10	1
4902643	5	C	08/10/2024	11:53	-134.027	43.829	0	3749.50	0	1.5530	0	34.6670	4	27.760	0	3686.837	0	109.0	4	32.5	4	-1E+10	1	-1E+10	1	-1E+10	1	-1E+10	1	-1E+10	1	-1E+10	1
4902643	5	C	08/10/2024	11:53	-134.027	43.829	0	3770.20	0	1.5540	0	34.6670	4	27.760	0	3707.016	0	109.0	4	32.5	4	-1E+10	1	-1E+10	1	-1E+10	1	-1E+10	1	-1E+10	1	-1E+10	1
4902643	5	C	08/10/2024	11:53	-134.027	43.829	0	3789.90	0	1.5530	0	34.6680	4	27.761	0	3726.219	0	109.1	4	32.5	4	-1E+10	1	-1E+10	1	-1E+10	1	-1E+10	1	-1E+10	1	-1E+10	1
4902643	5	C	08/10/2024	11:53	-134.027	43.829	0	3804.40	0	1.5530	0	34.6680	4	27.761	0	3740.352	0	108.8	4	32.5	4	-1E+10	1	-1E+10	1	-1E+10	1	-1E+10	1	-1E+10	1	-1E+10	1
4902643	5	C	08/10/2024	11:53	-134.027	43.829	0																										
4902643	6	C	08/20/2024	10:57	-134.025	43.827	0	1.90	0	18.9400	0	32.6430	0	23.237	0	1.885	0	220.2	4	94.2	4	-1E+10	1	-1E+10	1	-1E+10	1	-1E+10	1	-1E+10	1	-1E+10	1
4902643	6	C	08/20/2024	10:57	-134.025	43.827	0	2.40	0	18.9420	0	32.6430	0	23.236	0	2.381	0	220.0	4	94.2	4	-1E+10	1	-1E+10	1	-1E+10	1	-1E+10	1	-1E+10	1	-1E+10	1
4902643	6	C	08/20/2024	10:57	-134.025	43.827	0	2.50	0	18.9410	0	32.6430	0	23.237	0	2.480	0	-1e10	1	-1e10	1	-1E+10	1	-1E+10	1	-1E+10	1	-1E+10	1	-1E+10	1	-1E+10	1
4902643	6	C	08/20/2024	10:57	-134.025	43.827	0	2.80	0	18.9470	0	32.6410	0	23.234	0	2.778	0	220.2	4	94.3	4	-1E+10	1	-1E+10	1	-1E+10	1	-1E+10	1	-1E+10	1	-1E+10	1
4902643	6	C	08/20/2024	10:57	-134.025	43.827	0	3.40	0	18.9490	0	32.6420	0	23.234	0	3.373	0	220.3	4	94.3	4	-1E+10	1	-1E+10	1	-1E+10	1	-1E+10	1	-1E+10	1	-1E+10	1
4902643	6	C	08/20/2024	10:57	-134.025	43.827	0	4.50	0	18.9500	0	32.6440	0	23.235	0	4.464	0	220.3	4	94.3	4	-1E+10	1	-1E+10	1	-1E+10	1	-1E+10	1	-1E+10	1	-1E+10	1
4902643	6	C	08/20/2024	10:57	-134.025	43.827	0	5.40	0	18.9500	0	32.6440	0	23.235	0	5.357	0	220.4	4	94.4	4	-1E+10	1	-1E+10	1	-1E+10	1	-1E+10	1	-1E+10	1	-1E+10	1
4902643	6	C	08/20/2024	10:57	-134.025	43.827	0	6.60	0	18.9510	0	32.6440	0	23.235	0	6.547	0	220.5	4	94.4	4	-1E+10	1	-1E+10	1	-1E+10	1	-1E+10	1	-1E+10	1	-1E+10	1
4902643	6	C	08/20/2024	10:57	-134.025	43.827	0	7.40	0	18.9500	0	32.6440	0	23.235	0	7.341	0	220.7	4	94.5	4	-1E+10	1	-1E+10	1	-1E+10	1	-1E+10	1	-1E+10	1	-1E+10	1
4902643	6	C	08/20/2024	10:57	-134.025	43.827	0	8.60	0	18.9500	0	32.6440	0	23.235	0	8.531	0	220.8	4	94.5	4	-1E+10	1	-1E+10	1	-1E+10	1	-1E+10	1	-1E+10	1	-1E+10	1
4902643	6	C	08/20/2024	10:57	-134.025	43.827	0	9.40	0	18.9500	0	32.6440	0	23.236	0	9.324	0	221.0	4	94.6	4	-1E+10	1	-1E+10	1	-1E+10	1	-1E+10	1	-1E+10	1	-1E+10	1
4902643	6	C	08/20/2024	10:57	-134.025	43.827	0	14.50	0	18.8910	0	32.6420	0	23.249	0	14.383	0	222.8	4	95.3	4	-1E+10	1	-1E+10	1	-1E+10	1	-1E+10	1	-1E+10	1	-1E+10	1
4902643	6	C	08/20/2024	10:57	-134.025	43.827	0	24.70	0	18.3300	0	32.6460	0	23.392	0	24.501	0	233.3	4	98.8	4	-1E+10	1	-1E+10	1	-1E+10	1	-1E+10	1	-1E+10	1	-1E+10	1
4902643	6	C	08/20/2024	10:57	-134.025	43.827	0	34.60	0	14.7570	0	32.6650	0	24.226	0	34.320	0	258.5	4	102.1	4	-1E+10	1	-1E+10	1	-1E+10	1	-1E+10	1	-1E+10	1	-1E+10	1
4902643	6	C	08/20/2024	10:57	-134.025	43.827	0	44.60	0	13.5660	0	32.7080	0	24.507	0	44.238	0	264.2	4	102.0	4	-1E+10	1	-1E+10	1	-1E+10	1	-1E+10	1	-1E+10	1	-1E+10	1
4902643	6	C	08/20/2024	10:57	-134.025	43.827	0	54.60	0	11.9500	0	32.6610	0	24.784	0	54.155	0	264.0	4	98.5	4	-1E+10	1	-1E+10	1	-1E+10	1	-1E+10	1	-1E+10	1	-1E+10	1
4902643	6	C	08/20/2024	10:57	-134.025	43.827	0	64.80	0	10.7870	0	32.6750	0	25.005	0	64.271	0	257.6	4	93.8	4	-1E+10	1	-1E+10	1	-1E+10	1	-1E+10	1	-1E+10	1	-1E+10	1
4902643	6	C	08/20/2024	10:57	-134.025	43.827	0	74.70	0	10.3520	0	32.7050	0	25.103	0	74.088	0	253.0	4	91.3	4	-1E+10	1	-1E+10	1	-1E+10	1	-1E+10	1	-1E+10	1	-1E+10	1
4902643	6	C	08/20/2024	10:57	-134.025	43.827	0	84.40	0	10.0860	0	32.7160	0	25.157	0	83.707	0	249.7	4	89.6	4	-1E+10	1	-1E+10	1	-1E+10	1	-1E+10	1	-1E+10	1	-1E+10	1
4902643	6	C	08/20/2024	10:57	-134.025	43.827	0	94.70	0	10.0380	0	32.7690	0	25.206	0	93.920	0	247.3	4	88.7	4	-1E+10	1	-1E+10	1	-1E+10	1	-1E+10	1	-1E+10	1	-1E+10	1
4902643	6	C	08/20/2024	10:57	-134.025	43.827	0	104.90	0	9.9940	0	32.8210	0	25.254	0	104.033	0	245.6	4	88.0	4	-1E+10	1	-1E+10	1	-1E+10	1	-1E+10	1	-1E+10	1	-1E+10	1
4902643	6	C	08/20/2024	10:57	-134.025	43.827	0	114.30	0	9.9050	0	32.8500	0	25.292	0	113.353	0	242.4	4	86.7	4	-1E+10	1	-1E+10	1	-1E+10	1	-1E+10	1	-1E+10	1	-1E+10	1
4902643	6	C	08/20/2024	10:57	-134.025	43.827	0	125.10	0	9.6520	0	32.8780	0	25.355	0	124.060	0	232.5	4	82.8	4	-1E+10	1	-1E+10	1	-1E+10	1	-1E+10	1	-1E+10	1	-1E+10	1
4902643	6	C	08/20/2024	10:57	-134.025	43.827	0	135.10	0	9.4670	0	33.0080	0	25.487	0	133.974	0	221.6	4	78.6	4	-1E+10	1	-1E+10	1	-1E+10	1	-1E+10	1	-1E+10	1	-1E+10	1
4902643	6	C	08/20/2024	10:57	-134.025	43.827	0	145.00	0	9.1530	0	33.2180	0	25.702	0	143.788	0	213.2	4	75.3	4	-1E+10	1	-1E+10	1	-1E+10	1	-1E+10	1	-1E+10	1	-1E+10	1
4902643	6	C	08/20/2024	10:57	-134.025	43.827	0	154.90	0	8.8630	0	33.3450	0	25.847	0	153.602	0	210.1	4	73.8	4	-1E+10	1	-1E+10	1	-1E+10	1	-1E+10	1	-1E+10	1	-1E+10	1
4902643	6	C	08/20/2024	10:57	-134.025	43.827	0	165.10	0	8.2250	0	33.4700	0	26.042	0	163.712	0	209.1	4	72.4	4	-1E+10	1	-1E+10	1	-1E+10	1	-1E+10	1	-1E+10	1	-1E+10	1
4902643	6	C	08/20/2024	10:57	-134.025	43.827	0	175.10	0	7.8230	0	33.5520	0	26.165	0	173.624	0	207.3	4	71.2	4	-1E+10	1	-1E+10	1	-1E+10	1	-1E+10	1	-1E+10	1	-1E+10	1
4902643	6	C	08/20/2024	10:57	-134.025	43.827	0	185.40	0	7.5650	0	33.6160	0	26.253	0	183.832	0	203.2	4	69.4	4	-1E+10	1	-1E+10	1	-1E+10	1	-1E+10	1	-1E+10	1	-1E+10	1
4902643	6	C	08/20/2024	10:57	-134.025	43.827	0	194.60	0	7.4250	0	33.6780	0	26.321	0	192.950	0	197.9	4	67.4	4	-1E+10	1	-1E+10	1	-1E+10	1	-1E+10	1	-1E+10	1	-1E+10	1
4902643	6	C	08/20/2024	10:57	-134.025	43.827	0	209.90	0	7.4250	0	33.7710	0	26.395	0	208.113	0	188.5	4	64.3	4	-1E+10	1	-1E+10	1	-1E+10	1	-1E+10	1	-1E+10	1	-1E+10	1
4902643	6	C	08/20/2024	10:57	-134.025	43.827	0	229.50	0	7.1310	0	33.7890	0	26.450	0	227.535	0	179.9	4	60.9	4	-1E+10	1	-1E+10	1	-1E+10	1	-1E+10	1	-1E+10	1	-1E+10	1
4902643	6	C	08/20/2024	10:57	-134.025	43.827	0	249.70	0	6.9710	0	33.8170	0	26.494	0	247.550	0	168.0	4	56.7	4	-1E+10	1	-1E+10	1	-1E+10	1	-1E+10	1	-1E+10	1	-1E+10	1
4902643	6	C	08/20/2024	10:57	-134.025	43.827	0	269.60	0	6.6670	0	33.8220	0	26.539	0	267.266	0	154.7	4	51.9	4	-1E+10	1	-1E+10	1	-1E+10	1	-1E+10	1	-1E+10	1	-1E+10	1
4902643	6	C	08/20/2024	10:57	-134.025	43.827	0	289.60	0	6.3460	0	33.8200	0	26.580	0	287.079	0	141.3	4	47.0	4	-1E+10	1	-1E+10	1	-1E+10	1	-1E+10	1	-1E+10	1	-1E+10	1
4902643	6	C	08/20/2024	10:57	-134.025	43.827	0	309.90	0	5.9390	0	33.8100	0	26.623	0	307.187	0	126.7	4	41.8	4	-1E+10	1	-1E+10	1	-1E+10	1	-1E+10	1	-1E+10	1	-1E+10	1
4902643	6	C	08/20/2024	10:57	-134.025	43.827	0	330.00	0	5.6040	0	33.8140	0	26.668	0	327.096	0	112.8	4	36.9	4	-1E+10	1	-1E+10	1	-1E+10	1	-1E+10	1	-1E+10	1	-1E+10	1
4902643	6	C	08/20/2024	10:57	-134.025	43.827	0	349.60	0	5.4200	0	33.8300	0	26.702	0	346.507	0	102.9	4	33.5	4	-1E+10	1	-1E+10	1	-1E+10	1	-1E+10	1	-1E+10	1	-1E+10	1
4902643	6	C	08/20/2024	10:57	-134.025	43.827	0	369.50	0	5.3220	0	33.8460	0	26.727	0	366.213	0	93.8	4	30.5	4	-1E+10	1	-1E+10	1	-1E+10	1	-1E+10	1	-1E+10	1	-1E+10	1
4902643	6	C	08/20/2024	10:57	-134.025	43.827	0	389.80	0	5.1160	0	33.8680	0	26.768	0	386.313	0	83.4	4	27.0	4	-1E+10	1	-1E+10	1	-1E+10	1	-1E+10	1	-1E+10	1	-1E+10	1
4902643	6	C	08/20/2024	10:57	-134.025	43.827	0	409.80	0	4.9360	0	33.8880	0	26.805	0	406.115	0	75.1	4	24.2	4	-1E+10	1	-1E+10	1	-1E+10	1	-1E+10	1	-1E+10	1	-1E+10	1
4902643	6	C	08/20/2024	10:57	-134.025	43.827	0	429.70	0	4.8050	0	33.9090	0	26.836	0	425.816	0	68.2	4	21.9	4	-1E+10	1	-1E+10	1	-1E+10	1	-1E+10	1	-1E+10	1	-1E+10	1
4902643	6	C	08/20/2024	10:57	-134.025	43.827	0	449.70	0	4.6720	0	33.9240	0	26.863	0	445.613	0	61.9	4	19.8	4	-1E+10	1	-1E+10	1	-1E+10	1	-1E+10	1	-1E+10	1	-1E+10	1
4902643	6	C	08/20/2024	10:57	-134.025	43.827	0	470.10	0	4.5990	0	33.9470	0	26.889	0	465.805	0	56.1	4	17.9	4	-1E+10	1	-1E+10	1	-1E+10	1	-1E+10	1	-1E+10	1	-1E+10	1
4902643	6	C	08/20/2024	10:57	-134.025	43.827	0	490.30	0	4.5460	0	33.9690	0	26.913	0	485.797	0	50.2	4	16.0	4	-1E+10	1	-1E+10	1	-1E+10	1	-1E+10	1	-1E+10	1	-1E+10	1
4902643	6	C	08/20/2024	10:57	-134.025	43.827	0	509.60	0	4.4930	0	33.9880	0	26.934	0	504.896	0	45.1	4	14.4	4	-1E+10	1	-1E+10	1	-1E+10	1	-1E+10	1	-1E+10	1	-1E+10	1
4902643	6	C	08/20/2024	10:57	-134.025	43.827	0	529.40	0	4.4270	0	34.0060	0	26.955	0	524.489	0	40.5	4	12.9	4	-1E+10	1	-1E+10	1	-1E+10	1	-1E+10	1	-1E+10	1	-1E+10	1
4902643	6	C	08/20/2024	10:57	-134.025	43.827	0	549.80	0	4.3950	0	34.0280	0	26.976	0	544.673	0	34.8	4	11.1	4	-1E+10	1	-1E+10	1	-1E+10	1	-1E+10	1	-1E+10	1	-1E+10	1
4902643	6	C	08/20/2024	10:57	-134.025	43.827	0	569.90	0	4.3550	0	34.0520	0	27.000	0	564.558	0	30.8	4	9.8	4	-1E+10	1	-1E+10	1	-1E+10	1	-1E+10	1	-1E+10	1	-1E+10	1
4902643	6	C	08/20/2024	10:57	-134.025	43.827	0	589.80	0	4.2960	0	34.0720	0	27.022	0	584.243	0	27.8	4	8.8	4	-1E+10	1	-1E+10	1	-1E+10	1	-1E+10	1	-1E+10	1	-1E+10	1
4902643	6	C	08/20/2024	10:57	-134.025	43.827	0	609.90	0	4.2460	0	34.0870	0	27.039	0	604.125	0	25.3	4	8.0	4	-1E+10	1	-1E+10	1	-1E+10	1	-1E+10	1	-1E+10	1	-1E+10	1
4902643	6	C	08/20/2024	10:57	-134.025	43.827	0	630.20	0	4.1970	0	34.1030	0	27.057	0	624.202	0	23.1	4	7.3	4	-1E+10	1	-1E+10	1	-1E+10	1	-1E+10	1	-1E+10	1	-1E+10	1
4902643	6	C	08/20/2024	10:57	-134.025	43.827	0	649.90	0	4.1320	0	34.1200	0	27.078	0	643.684	0	21.4	4	6.8	4	-1E+10	1	-1E+10	1	-1E+10	1	-1E+10	1	-1E+10	1	-1E+10	1
4902643	6	C	08/20/2024	10:57	-134.025	43.827	0	669.80	0	4.0770	0	34.1320	0	27.093	0	663.362	0	19.8	4	6.3	4	-1E+10	1	-1E+10	1	-1E+10	1	-1E+10	1	-1E+10	1	-1E+10	1
4902643	6	C	08/20/2024	10:57	-134.025	43.827	0	690.00	0	4.0090	0	34.1500	0	27.114	0	683.335	0	17.9	4	5.6	4	-1E+10	1	-1E+10	1	-1E+10	1	-1E+10	1	-1E+10	1	-1E+10	1
4902643	6	C	08/20/2024	10:57	-134.025	43.827	0	710.00	0	3.9380	0	34.1660	0	27.134	0	703.108	0	16.5	4	5.2	4	-1E+10	1	-1E+10	1	-1E+10	1	-1E+10	1	-1E+10	1	-1E+10	1
4902643	6	C	08/20/2024	10:57	-134.025	43.827	0	729.70	0	3.8740	0	34.1810	0	27.153	0	722.583	0	15.2	4	4.8	4	-1E+10	1	-1E+10	1	-1E+10	1	-1E+10	1	-1E+10	1	-1E+10	1
4902643	6	C	08/20/2024	10:57	-134.025	43.827	0	750.00	0	3.8180	0	34.1960	0	27.171	0	742.649	0	13.7	4	4.3	4	-1E+10	1	-1E+10	1	-1E+10	1	-1E+10	1	-1E+10	1	-1E+10	1
4902643	6	C	08/20/2024	10:57	-134.025	43.827	0	770.10	0	3.7740	0	34.2100	0	27.186	0	762.515	0	12.8	4	4.0	4	-1E+10	1	-1E+10	1	-1E+10	1	-1E+10	1	-1E+10	1	-1E+10	1
4902643	6	C	08/20/2024	10:57	-134.025	43.827	0	790.40	0	3.7190	0	34.2220	0	27.201	0	782.577	0	12.0	4	3.8	4	-1E+10	1	-1E+10	1	-1E+10	1	-1E+10	1	-1E+10	1	-1E+10	1
4902643	6	C	08/20/2024	10:57	-134.025	43.827	0	809.80	0	3.6600	0	34.2370	0	27.219	0	801.748	0	11.1	4	3.5	4	-1E+10	1	-1E+10	1	-1E+10	1	-1E+10	1	-1E+10	1	-1E+10	1
4902643	6	C	08/20/2024	10:57	-134.025	43.827	0	829.60	0	3.6130	0	34.2510	0	27.235	0	821.312	0	10.0	4	3.1	4	-1E+10	1	-1E+10	1	-1E+10	1	-1E+10	1	-1E+10	1	-1E+10	1
4902643	6	C	08/20/2024	10:57	-134.025	43.827	0	848.80	0	3.5840	0	34.2630	0	27.248	0	840.282	0	9.2	4	2.9	4	-1E+10	1	-1E+10	1	-1E+10	1	-1E+10	1	-1E+10	1	-1E+10	1
4902643	6	C	08/20/2024	10:57	-134.025	43.827	0	869.50	0	3.5470	0	34.2770	0	27.262	0	860.731	0	8.5	4	2.6	4	-1E+10	1	-1E+10	1	-1E+10	1	-1E+10	1	-1E+10	1	-1E+10	1
4902643	6	C	08/20/2024	10:57	-134.025	43.827	0	889.40	0	3.5260	0	34.2940	0	27.278	0	880.389	0	7.6	4	2.4	4	-1E+10	1	-1E+10	1	-1E+10	1	-1E+10	1	-1E+10	1	-1E+10	1
4902643	6	C	08/20/2024	10:57	-134.025	43.827	0	910.50	0	3.5910	0	34.3260	0	27.298	0	901.230	0	7.0	4	2.2	4	-1E+10	1	-1E+10	1	-1E+10	1	-1E+10	1	-1E+10	1	-1E+10	1
4902643	6	C	08/20/2024	10:57	-134.025	43.827	0	930.00	0	3.5590	0	34.3340	0	27.307	0	920.488	0	6.9	4	2.2	4	-1E+10	1	-1E+10	1	-1E+10	1	-1E+10	1	-1E+10	1	-1E+10	1
4902643	6	C	08/20/2024	10:57	-134.025	43.827	0	949.70	0	3.5150	0	34.3430	0	27.319	0	939.943	0	6.9	4	2.1	4	-1E+10	1	-1E+10	1	-1E+10	1	-1E+10	1	-1E+10	1	-1E+10	1
4902643	6	C	08/20/2024	10:57	-134.025	43.827	0	969.60	0	3.4800	0	34.3550	0	27.332	0	959.592	0	7.0	4	2.2	4	-1E+10	1	-1E+10	1	-1E+10	1	-1E+10	1	-1E+10	1	-1E+10	1
4902643	6	C	08/20/2024	10:57	-134.025	43.827	0	989.60	0	3.4430	0	34.3650	0	27.343	0	979.339	0	7.0	4	2.2	4	-1E+10	1	-1E+10	1	-1E+10	1	-1E+10	1	-1E+10	1	-1E+10	1
4902643	6	C	08/20/2024	10:57	-134.025	43.827	0	1009.50	0	3.4020	0	34.3720	0	27.353	0	998.986	0	7.2	4	2.2	4	-1E+10	1	-1E+10	1	-1E+10	1	-1E+10	1	-1E+10	1	-1E+10	1
4902643	6	C	08/20/2024	10:57	-134.025	43.827	0	1029.60	0	3.3610	0	34.3770	0	27.361	0	1018.827	0	7.4	4	2.3	4	-1E+10	1	-1E+10	1	-1E+10	1	-1E+10	1	-1E+10	1	-1E+10	1
4902643	6	C	08/20/2024	10:57	-134.025	43.827	0	1049.20	0	3.3500	0	34.3890	0	27.372	0	1038.174	0	7.8	4	2.4	4	-1E+10	1	-1E+10	1	-1E+10	1	-1E+10	1	-1E+10	1	-1E+10	1
4902643	6	C	08/20/2024	10:57	-134.025	43.827	0	1069.90	0	3.3270	0	34.4000	0	27.383	0	1058.604	0	8.1	4	2.5	4	-1E+10	1	-1E+10	1	-1E+10	1	-1E+10	1	-1E+10	1	-1E+10	1
4902643	6	C	08/20/2024	10:57	-134.025	43.827	0	1089.40	0	3.2680	0	34.4040	0	27.392	0	1077.848	0	8.1	4	2.5	4	-1E+10	1	-1E+10	1	-1E+10	1	-1E+10	1	-1E+10	1	-1E+10	1
4902643	6	C	08/20/2024	10:57	-134.025	43.827	0	1109.60	0	3.2120	0	34.4080	0	27.400	0	1097.781	0	8.4	4	2.6	4	-1E+10	1	-1E+10	1	-1E+10	1	-1E+10	1	-1E+10	1	-1E+10	1
4902643	6	C	08/20/2024	10:57	-134.025	43.827	0	1130.00	0	3.1620	0	34.4180	0	27.413	0	1117.910	0	8.9	4	2.8	4	-1E+10	1	-1E+10	1	-1E+10	1	-1E+10	1	-1E+10	1	-1E+10	1
4902643	6	C	08/20/2024	10:57	-134.025	43.827	0	1149.90	0	3.1240	0	34.4250	0	27.422	0	1137.543	0	9.2	4	2.8	4	-1E+10	1	-1E+10	1	-1E+10	1	-1E+10	1	-1E+10	1	-1E+10	1
4902643	6	C	08/20/2024	10:57	-134.025	43.827	0	1169.80	0	3.1040	0	34.4320	0	27.430	0	1157.174	0	9.8	4	3.0	4	-1E+10	1	-1E+10	1	-1E+10	1	-1E+10	1	-1E+10	1	-1E+10	1
4902643	6	C	08/20/2024	10:57	-134.025	43.827	0	1189.90	0	3.0860	0	34.4380	0	27.436	0	1177.001	0	10.1	4	3.1	4	-1E+10	1	-1E+10	1	-1E+10	1	-1E+10	1	-1E+10	1	-1E+10	1
4902643	6	C	08/20/2024	10:57	-134.025	43.827	0	1209.90	0	3.0420	0	34.4410	0	27.443	0	1196.727	0	10.5	4	3.2	4	-1E+10	1	-1E+10	1	-1E+10	1	-1E+10	1	-1E+10	1	-1E+10	1
4902643	6	C	08/20/2024	10:57	-134.025	43.827	0	1229.60	0	3.0080	0	34.4470	0	27.451	0	1216.156	0	11.1	4	3.4	4	-1E+10	1	-1E+10	1	-1E+10	1	-1E+10	1	-1E+10	1	-1E+10	1
4902643	6	C	08/20/2024	10:57	-134.025	43.827	0	1249.60	0	2.9790	0	34.4520	0	27.457	0	1235.879	0	11.7	4	3.6	4	-1E+10	1	-1E+10	1	-1E+10	1	-1E+10	1	-1E+10	1	-1E+10	1
4902643	6	C	08/20/2024	10:57	-134.025	43.827	0	1269.70	0	2.9420	0	34.4580	0	27.466	0	1255.698	0	12.3	4	3.8	4	-1E+10	1	-1E+10	1	-1E+10	1	-1E+10	1	-1E+10	1	-1E+10	1
4902643	6	C	08/20/2024	10:57	-134.025	43.827	0	1290.10	0	2.9070	0	34.4630	0	27.473	0	1275.811	0	13.0	4	4.0	4	-1E+10	1	-1E+10	1	-1E+10	1	-1E+10	1	-1E+10	1	-1E+10	1
4902643	6	C	08/20/2024	10:57	-134.025	43.827	0	1309.80	0	2.8630	0	34.4690	0	27.482	0	1295.233	0	14.0	4	4.3	4	-1E+10	1	-1E+10	1	-1E+10	1	-1E+10	1	-1E+10	1	-1E+10	1
4902643	6	C	08/20/2024	10:57	-134.025	43.827	0	1329.90	0	2.8220	0	34.4750	0	27.490	0	1315.046	0	15.0	4	4.6	4	-1E+10	1	-1E+10	1	-1E+10	1	-1E+10	1	-1E+10	1	-1E+10	1
4902643	6	C	08/20/2024	10:57	-134.025	43.827	0	1349.90	0	2.7830	0	34.4810	0	27.499	0	1334.760	0	16.0	4	4.9	4	-1E+10	1	-1E+10	1	-1E+10	1	-1E+10	1	-1E+10	1	-1E+10	1
4902643	6	C	08/20/2024	10:57	-134.025	43.827	0	1370.00	0	2.7490	0	34.4860	0	27.506	0	1354.570	0	17.2	4	5.3	4	-1E+10	1	-1E+10	1	-1E+10	1	-1E+10	1	-1E+10	1	-1E+10	1
4902643	6	C	08/20/2024	10:57	-134.025	43.827	0	1389.90	0	2.7140	0	34.4920	0	27.514	0	1374.181	0	18.4	4	5.6	4	-1E+10	1	-1E+10	1	-1E+10	1	-1E+10	1	-1E+10	1	-1E+10	1
4902643	6	C	08/20/2024	10:57	-134.025	43.827	0	1409.70	0	2.6800	0	34.4970	0	27.521	0	1393.691	0	19.6	4	6.0	4	-1E+10	1	-1E+10	1	-1E+10	1	-1E+10	1	-1E+10	1	-1E+10	1
4902643	6	C	08/20/2024	10:57	-134.025	43.827	0	1429.50	0	2.6600	0	34.5020	0	27.526	0	1413.200	0	20.9	4	6.4	4	-1E+10	1	-1E+10	1	-1E+10	1	-1E+10	1	-1E+10	1	-1E+10	1
4902643	6	C	08/20/2024	10:57	-134.025	43.827	0	1449.70	0	2.6220	0	34.5070	0	27.534	0	1433.101	0	21.9	4	6.7	4	-1E+10	1	-1E+10	1	-1E+10	1	-1E+10	1	-1E+10	1	-1E+10	1
4902643	6	C	08/20/2024	10:57	-134.025	43.827	0	1469.70	0	2.5790	0	34.5110	0	27.541	0	1452.804	0	22.8	4	7.0	4	-1E+10	1	-1E+10	1	-1E+10	1	-1E+10	1	-1E+10	1	-1E+10	1
4902643	6	C	08/20/2024	10:57	-134.025	43.827	0	1489.60	0	2.5460	0	34.5140	0	27.546	0	1472.406	0	23.8	4	7.3	4	-1E+10	1	-1E+10	1	-1E+10	1	-1E+10	1	-1E+10	1	-1E+10	1
4902643	6	C	08/20/2024	10:57	-134.025	43.827	0	1509.60	0	2.5060	0	34.5190	0	27.554	0	1492.104	0	25.2	4	7.7	4	-1E+10	1	-1E+10	1	-1E+10	1	-1E+10	1	-1E+10	1	-1E+10	1
4902643	6	C	08/20/2024	10:57	-134.025	43.827	0	1530.30	0	2.4690	0	34.5230	0	27.560	0	1512.490	0	26.6	4	8.1	4	-1E+10	1	-1E+10	1	-1E+10	1	-1E+10	1	-1E+10	1	-1E+10	1
4902643	6	C	08/20/2024	10:57	-134.025	43.827	0	1549.50	0	2.4310	0	34.5280	0	27.567	0	1531.397	0	28.1	4	8.6	4	-1E+10	1	-1E+10	1	-1E+10	1	-1E+10	1	-1E+10	1	-1E+10	1
4902643	6	C	08/20/2024	10:57	-134.025	43.827	0	1569.30	0	2.3930	0	34.5330	0	27.574	0	1550.893	0	29.5	4	9.0	4	-1E+10	1	-1E+10	1	-1E+10	1	-1E+10	1	-1E+10	1	-1E+10	1
4902643	6	C	08/20/2024	10:57	-134.025	43.827	0	1589.70	0	2.3630	0	34.5370	0	27.580	0	1570.978	0	30.7	4	9.3	4	-1E+10	1	-1E+10	1	-1E+10	1	-1E+10	1	-1E+10	1	-1E+10	1
4902643	6	C	08/20/2024	10:57	-134.025	43.827	0	1610.30	0	2.3340	0	34.5410	0	27.586	0	1591.259	0	31.9	4	9.7	4	-1E+10	1	-1E+10	1	-1E+10	1	-1E+10	1	-1E+10	1	-1E+10	1
4902643	6	C	08/20/2024	10:57	-134.025	43.827	0	1629.90	0	2.3100	0	34.5440	0	27.590	0	1610.552	0	33.2	4	10.1	4	-1E+10	1	-1E+10	1	-1E+10	1	-1E+10	1	-1E+10	1	-1E+10	1
4902643	6	C	08/20/2024	10:57	-134.025	43.827	0	1650.00	0	2.2800	0	34.5480	0	27.596	0	1630.336	0	34.5	4	10.5	4	-1E+10	1	-1E+10	1	-1E+10	1	-1E+10	1	-1E+10	1	-1E+10	1
4902643	6	C	08/20/2024	10:57	-134.025	43.827	0	1669.80	0	2.2530	0	34.5510	0	27.601	0	1649.823	0	35.9	4	10.9	4	-1E+10	1	-1E+10	1	-1E+10	1	-1E+10	1	-1E+10	1	-1E+10	1
4902643	6	C	08/20/2024	10:57	-134.025	43.827	0	1689.90	0	2.2310	0	34.5540	0	27.605	0	1669.604	0	36.9	4	11.2	4	-1E+10	1	-1E+10	1	-1E+10	1	-1E+10	1	-1E+10	1	-1E+10	1
4902643	6	C	08/20/2024	10:57	-134.025	43.827	0	1710.00	0	2.2100	0	34.5570	0	27.609	0	1689.382	0	38.1	4	11.5	4	-1E+10	1	-1E+10	1	-1E+10	1	-1E+10	1	-1E+10	1	-1E+10	1
4902643	6	C	08/20/2024	10:57	-134.025	43.827	0	1730.40	0	2.1850	0	34.5610	0	27.615	0	1709.454	0	39.4	4	11.9	4	-1E+10	1	-1E+10	1	-1E+10	1	-1E+10	1	-1E+10	1	-1E+10	1
4902643	6	C	08/20/2024	10:57	-134.025	43.827	0	1749.80	0	2.1640	0	34.5640	0	27.619	0	1728.540	0	40.5	4	12.2	4	-1E+10	1	-1E+10	1	-1E+10	1	-1E+10	1	-1E+10	1	-1E+10	1
4902643	6	C	08/20/2024	10:57	-134.025	43.827	0	1770.10	0	2.1460	0	34.5660	0	27.622	0	1748.510	0	41.6	4	12.6	4	-1E+10	1	-1E+10	1	-1E+10	1	-1E+10	1	-1E+10	1	-1E+10	1
4902643	6	C	08/20/2024	10:57	-134.025	43.827	0	1789.90	0	2.1260	0	34.5690	0	27.626	0	1767.986	0	42.8	4	12.9	4	-1E+10	1	-1E+10	1	-1E+10	1	-1E+10	1	-1E+10	1	-1E+10	1
4902643	6	C	08/20/2024	10:57	-134.025	43.827	0	1809.90	0	2.1080	0	34.5720	0	27.630	0	1787.657	0	44.0	4	13.3	4	-1E+10	1	-1E+10	1	-1E+10	1	-1E+10	1	-1E+10	1	-1E+10	1
4902643	6	C	08/20/2024	10:57	-134.025	43.827	0	1829.80	0	2.0860	0	34.5750	0	27.634	0	1807.228	0	45.4	4	13.7	4	-1E+10	1	-1E+10	1	-1E+10	1	-1E+10	1	-1E+10	1	-1E+10	1
4902643	6	C	08/20/2024	10:57	-134.025	43.827	0	1849.90	0	2.0680	0	34.5780	0	27.638	0	1826.994	0	46.6	4	14.1	4	-1E+10	1	-1E+10	1	-1E+10	1	-1E+10	1	-1E+10	1	-1E+10	1
4902643	6	C	08/20/2024	10:57	-134.025	43.827	0	1869.70	0	2.0520	0	34.5810	0	27.642	0	1846.463	0	47.7	4	14.4	4	-1E+10	1	-1E+10	1	-1E+10	1	-1E+10	1	-1E+10	1	-1E+10	1
4902643	6	C	08/20/2024	10:57	-134.025	43.827	0	1889.70	0	2.0370	0	34.5830	0	27.645	0	1866.127	0	48.8	4	14.7	4	-1E+10	1	-1E+10	1	-1E+10	1	-1E+10	1	-1E+10	1	-1E+10	1
4902643	6	C	08/20/2024	10:57	-134.025	43.827	0	1909.60	0	2.0190	0	34.5840	0	27.647	0	1885.690	0	50.1	4	15.1	4	-1E+10	1	-1E+10	1	-1E+10	1	-1E+10	1	-1E+10	1	-1E+10	1
4902643	6	C	08/20/2024	10:57	-134.025	43.827	0	1929.50	0	2.0010	0	34.5880	0	27.652	0	1905.252	0	51.5	4	15.5	4	-1E+10	1	-1E+10	1	-1E+10	1	-1E+10	1	-1E+10	1	-1E+10	1
4902643	6	C	08/20/2024	10:57	-134.025	43.827	0	1949.70	0	1.9870	0	34.5900	0	27.655	0	1925.107	0	52.6	4	15.8	4	-1E+10	1	-1E+10	1	-1E+10	1	-1E+10	1	-1E+10	1	-1E+10	1
4902643	6	C	08/20/2024	10:57	-134.025	43.827	0	1969.20	0	1.9730	0	34.5930	0	27.658	0	1944.272	0	53.7	4	16.2	4	-1E+10	1	-1E+10	1	-1E+10	1	-1E+10	1	-1E+10	1	-1E+10	1
4902643	6	C	08/20/2024	10:57	-134.025	43.827	0	1989.90	0	1.9570	0	34.5950	0	27.661	0	1964.615	0	54.8	4	16.5	4	-1E+10	1	-1E+10	1	-1E+10	1	-1E+10	1	-1E+10	1	-1E+10	1
4902643	6	C	08/20/2024	10:57	-134.025	43.827	0	2009.60	0	1.9480	0	34.5960	4	27.663	0	1983.973	0	55.7	4	16.8	4	-1E+10	1	-1E+10	1	-1E+10	1	-1E+10	1	-1E+10	1	-1E+10	1
4902643	6	C	08/20/2024	10:57	-134.025	43.827	0	2029.40	0	1.9370	0	34.5980	4	27.665	0	2003.427	0	56.7	4	17.1	4	-1E+10	1	-1E+10	1	-1E+10	1	-1E+10	1	-1E+10	1	-1E+10	1
4902643	6	C	08/20/2024	10:57	-134.025	43.827	0	2049.60	0	1.9240	0	34.6000	4	27.668	0	2023.273	0	57.6	4	17.3	4	-1E+10	1	-1E+10	1	-1E+10	1	-1E+10	1	-1E+10	1	-1E+10	1
4902643	6	C	08/20/2024	10:57	-134.025	43.827	0	2069.80	0	1.9180	0	34.6020	4	27.670	0	2043.117	0	58.4	4	17.6	4	-1E+10	1	-1E+10	1	-1E+10	1	-1E+10	1	-1E+10	1	-1E+10	1
4902643	6	C	08/20/2024	10:57	-134.025	43.827	0	2089.70	0	1.9080	0	34.6030	4	27.672	0	2062.664	0	59.1	4	17.8	4	-1E+10	1	-1E+10	1	-1E+10	1	-1E+10	1	-1E+10	1	-1E+10	1
4902643	6	C	08/20/2024	10:57	-134.025	43.827	0	2109.80	0	1.9000	0	34.6040	4	27.673	0	2082.406	0	59.8	4	18.0	4	-1E+10	1	-1E+10	1	-1E+10	1	-1E+10	1	-1E+10	1	-1E+10	1
4902643	6	C	08/20/2024	10:57	-134.025	43.827	0	2129.90	0	1.8920	0	34.6050	4	27.675	0	2102.146	0	60.6	4	18.2	4	-1E+10	1	-1E+10	1	-1E+10	1	-1E+10	1	-1E+10	1	-1E+10	1
4902643	6	C	08/20/2024	10:57	-134.025	43.827	0	2149.60	0	1.8820	0	34.6070	4	27.677	0	2121.492	0	61.4	4	18.5	4	-1E+10	1	-1E+10	1	-1E+10	1	-1E+10	1	-1E+10	1	-1E+10	1
4902643	6	C	08/20/2024	10:57	-134.025	43.827	0	2169.40	0	1.8750	0	34.6080	4	27.679	0	2140.934	0	62.2	4	18.7	4	-1E+10	1	-1E+10	1	-1E+10	1	-1E+10	1	-1E+10	1	-1E+10	1
4902643	6	C	08/20/2024	10:57	-134.025	43.827	0	2189.30	0	1.8650	0	34.6100	4	27.681	0	2160.472	0	63.0	4	18.9	4	-1E+10	1	-1E+10	1	-1E+10	1	-1E+10	1	-1E+10	1	-1E+10	1
4902643	6	C	08/20/2024	10:57	-134.025	43.827	0	2209.50	0	1.8580	0	34.6110	4	27.683	0	2180.303	0	63.7	4	19.1	4	-1E+10	1	-1E+10	1	-1E+10	1	-1E+10	1	-1E+10	1	-1E+10	1
4902643	6	C	08/20/2024	10:57	-134.025	43.827	0	2229.60	0	1.8490	0	34.6130	4	27.685	0	2200.034	0	64.5	4	19.4	4	-1E+10	1	-1E+10	1	-1E+10	1	-1E+10	1	-1E+10	1	-1E+10	1
4902643	6	C	08/20/2024	10:57	-134.025	43.827	0	2250.10	0	1.8400	0	34.6140	4	27.687	0	2220.156	0	65.4	4	19.7	4	-1E+10	1	-1E+10	1	-1E+10	1	-1E+10	1	-1E+10	1	-1E+10	1
4902643	6	C	08/20/2024	10:57	-134.025	43.827	0	2269.10	0	1.8320	0	34.6150	4	27.688	0	2238.804	0	66.1	4	19.9	4	-1E+10	1	-1E+10	1	-1E+10	1	-1E+10	1	-1E+10	1	-1E+10	1
4902643	6	C	08/20/2024	10:57	-134.025	43.827	0	2289.00	0	1.8230	0	34.6160	4	27.690	0	2258.334	0	66.9	4	20.1	4	-1E+10	1	-1E+10	1	-1E+10	1	-1E+10	1	-1E+10	1	-1E+10	1
4902643	6	C	08/20/2024	10:57	-134.025	43.827	0	2310.30	0	1.8150	0	34.6180	4	27.692	0	2279.235	0	67.6	4	20.3	4	-1E+10	1	-1E+10	1	-1E+10	1	-1E+10	1	-1E+10	1	-1E+10	1
4902643	6	C	08/20/2024	10:57	-134.025	43.827	0	2329.90	0	1.8100	0	34.6180	4	27.693	0	2298.466	0	68.2	4	20.5	4	-1E+10	1	-1E+10	1	-1E+10	1	-1E+10	1	-1E+10	1	-1E+10	1
4902643	6	C	08/20/2024	10:57	-134.025	43.827	0	2350.30	0	1.8030	0	34.6200	4	27.695	0	2318.481	0	69.0	4	20.7	4	-1E+10	1	-1E+10	1	-1E+10	1	-1E+10	1	-1E+10	1	-1E+10	1
4902643	6	C	08/20/2024	10:57	-134.025	43.827	0	2369.70	0	1.7960	0	34.6210	4	27.696	0	2337.513	0	69.8	4	20.9	4	-1E+10	1	-1E+10	1	-1E+10	1	-1E+10	1	-1E+10	1	-1E+10	1
4902643	6	C	08/20/2024	10:57	-134.025	43.827	0	2389.60	0	1.7900	0	34.6220	4	27.698	0	2357.033	0	70.5	4	21.1	4	-1E+10	1	-1E+10	1	-1E+10	1	-1E+10	1	-1E+10	1	-1E+10	1
4902643	6	C	08/20/2024	10:57	-134.025	43.827	0	2409.90	0	1.7830	0	34.6230	4	27.699	0	2376.944	0	71.0	4	21.3	4	-1E+10	1	-1E+10	1	-1E+10	1	-1E+10	1	-1E+10	1	-1E+10	1
4902643	6	C	08/20/2024	10:57	-134.025	43.827	0	2430.20	0	1.7750	0	34.6240	4	27.701	0	2396.853	0	71.8	4	21.5	4	-1E+10	1	-1E+10	1	-1E+10	1	-1E+10	1	-1E+10	1	-1E+10	1
4902643	6	C	08/20/2024	10:57	-134.025	43.827	0	2450.20	0	1.7670	0	34.6250	4	27.702	0	2416.466	0	72.5	4	21.8	4	-1E+10	1	-1E+10	1	-1E+10	1	-1E+10	1	-1E+10	1	-1E+10	1
4902643	6	C	08/20/2024	10:57	-134.025	43.827	0	2470.10	0	1.7600	0	34.6260	4	27.704	0	2435.980	0	73.2	4	22.0	4	-1E+10	1	-1E+10	1	-1E+10	1	-1E+10	1	-1E+10	1	-1E+10	1
4902643	6	C	08/20/2024	10:57	-134.025	43.827	0	2490.10	0	1.7530	0	34.6270	4	27.705	0	2455.589	0	74.1	4	22.2	4	-1E+10	1	-1E+10	1	-1E+10	1	-1E+10	1	-1E+10	1	-1E+10	1
4902643	6	C	08/20/2024	10:57	-134.025	43.827	0	2510.00	0	1.7440	0	34.6280	4	27.707	0	2475.099	0	75.0	4	22.5	4	-1E+10	1	-1E+10	1	-1E+10	1	-1E+10	1	-1E+10	1	-1E+10	1
4902643	6	C	08/20/2024	10:57	-134.025	43.827	0	2530.70	0	1.7370	0	34.6290	4	27.708	0	2495.391	0	75.8	4	22.7	4	-1E+10	1	-1E+10	1	-1E+10	1	-1E+10	1	-1E+10	1	-1E+10	1
4902643	6	C	08/20/2024	10:57	-134.025	43.827	0	2549.90	0	1.7310	0	34.6300	4	27.710	0	2514.211	0	76.5	4	22.9	4	-1E+10	1	-1E+10	1	-1E+10	1	-1E+10	1	-1E+10	1	-1E+10	1
4902643	6	C	08/20/2024	10:57	-134.025	43.827	0	2569.70	0	1.7240	0	34.6310	4	27.711	0	2533.617	0	77.4	4	23.2	4	-1E+10	1	-1E+10	1	-1E+10	1	-1E+10	1	-1E+10	1	-1E+10	1
4902643	6	C	08/20/2024	10:57	-134.025	43.827	0	2589.70	0	1.7170	0	34.6320	4	27.712	0	2553.218	0	78.3	4	23.5	4	-1E+10	1	-1E+10	1	-1E+10	1	-1E+10	1	-1E+10	1	-1E+10	1
4902643	6	C	08/20/2024	10:57	-134.025	43.827	0	2609.80	0	1.7100	0	34.6330	4	27.714	0	2572.915	0	79.1	4	23.7	4	-1E+10	1	-1E+10	1	-1E+10	1	-1E+10	1	-1E+10	1	-1E+10	1
4902643	6	C	08/20/2024	10:57	-134.025	43.827	0	2630.10	0	1.7050	0	34.6340	4	27.715	0	2592.806	0	79.9	4	23.9	4	-1E+10	1	-1E+10	1	-1E+10	1	-1E+10	1	-1E+10	1	-1E+10	1
4902643	6	C	08/20/2024	10:57	-134.025	43.827	0	2650.30	0	1.6980	0	34.6350	4	27.717	0	2612.597	0	80.7	4	24.1	4	-1E+10	1	-1E+10	1	-1E+10	1	-1E+10	1	-1E+10	1	-1E+10	1
4902643	6	C	08/20/2024	10:57	-134.025	43.827	0	2670.70	0	1.6940	0	34.6360	4	27.718	0	2632.582	0	81.2	4	24.3	4	-1E+10	1	-1E+10	1	-1E+10	1	-1E+10	1	-1E+10	1	-1E+10	1
4902643	6	C	08/20/2024	10:57	-134.025	43.827	0	2690.00	0	1.6890	0	34.6360	4	27.718	0	2651.488	0	82.0	4	24.5	4	-1E+10	1	-1E+10	1	-1E+10	1	-1E+10	1	-1E+10	1	-1E+10	1
4902643	6	C	08/20/2024	10:57	-134.025	43.827	0	2709.80	0	1.6830	0	34.6370	4	27.720	0	2670.882	0	82.7	4	24.7	4	-1E+10	1	-1E+10	1	-1E+10	1	-1E+10	1	-1E+10	1	-1E+10	1
4902643	6	C	08/20/2024	10:57	-134.025	43.827	0	2730.10	0	1.6780	0	34.6380	4	27.721	0	2690.764	0	83.4	4	24.9	4	-1E+10	1	-1E+10	1	-1E+10	1	-1E+10	1	-1E+10	1	-1E+10	1
4902643	6	C	08/20/2024	10:57	-134.025	43.827	0	2749.90	0	1.6740	0	34.6380	4	27.721	0	2710.154	0	83.9	4	25.1	4	-1E+10	1	-1E+10	1	-1E+10	1	-1E+10	1	-1E+10	1	-1E+10	1
4902643	6	C	08/20/2024	10:57	-134.025	43.827	0	2770.20	0	1.6680	0	34.6390	4	27.723	0	2730.033	0	84.6	4	25.3	4	-1E+10	1	-1E+10	1	-1E+10	1	-1E+10	1	-1E+10	1	-1E+10	1
4902643	6	C	08/20/2024	10:57	-134.025	43.827	0	2790.10	0	1.6630	0	34.6400	4	27.724	0	2749.518	0	85.4	4	25.5	4	-1E+10	1	-1E+10	1	-1E+10	1	-1E+10	1	-1E+10	1	-1E+10	1
4902643	6	C	08/20/2024	10:57	-134.025	43.827	0	2810.20	0	1.6560	0	34.6410	4	27.725	0	2769.196	0	86.2	4	25.8	4	-1E+10	1	-1E+10	1	-1E+10	1	-1E+10	1	-1E+10	1	-1E+10	1
4902643	6	C	08/20/2024	10:57	-134.025	43.827	0	2829.60	0	1.6510	0	34.6420	4	27.727	0	2788.188	0	87.0	4	26.0	4	-1E+10	1	-1E+10	1	-1E+10	1	-1E+10	1	-1E+10	1	-1E+10	1
4902643	6	C	08/20/2024	10:57	-134.025	43.827	0	2849.70	0	1.6460	0	34.6430	4	27.728	0	2807.864	0	87.7	4	26.2	4	-1E+10	1	-1E+10	1	-1E+10	1	-1E+10	1	-1E+10	1	-1E+10	1
4902643	6	C	08/20/2024	10:57	-134.025	43.827	0	2870.20	0	1.6430	0	34.6430	4	27.728	0	2827.929	0	88.3	4	26.4	4	-1E+10	1	-1E+10	1	-1E+10	1	-1E+10	1	-1E+10	1	-1E+10	1
4902643	6	C	08/20/2024	10:57	-134.025	43.827	0	2890.30	0	1.6380	0	34.6440	4	27.730	0	2847.601	0	89.0	4	26.6	4	-1E+10	1	-1E+10	1	-1E+10	1	-1E+10	1	-1E+10	1	-1E+10	1
4902643	6	C	08/20/2024	10:57	-134.025	43.827	0	2909.90	0	1.6320	0	34.6450	4	27.731	0	2866.781	0	89.7	4	26.8	4	-1E+10	1	-1E+10	1	-1E+10	1	-1E+10	1	-1E+10	1	-1E+10	1
4902643	6	C	08/20/2024	10:57	-134.025	43.827	0	2929.70	0	1.6280	0	34.6460	4	27.732	0	2886.156	0	90.4	4	27.0	4	-1E+10	1	-1E+10	1	-1E+10	1	-1E+10	1	-1E+10	1	-1E+10	1
4902643	6	C	08/20/2024	10:57	-134.025	43.827	0	2949.70	0	1.6240	0	34.6460	4	27.733	0	2905.725	0	91.1	4	27.2	4	-1E+10	1	-1E+10	1	-1E+10	1	-1E+10	1	-1E+10	1	-1E+10	1
4902643	6	C	08/20/2024	10:57	-134.025	43.827	0	2969.80	0	1.6180	0	34.6470	4	27.734	0	2925.389	0	91.9	4	27.5	4	-1E+10	1	-1E+10	1	-1E+10	1	-1E+10	1	-1E+10	1	-1E+10	1
4902643	6	C	08/20/2024	10:57	-134.025	43.827	0	2990.00	0	1.6120	0	34.6480	4	27.735	0	2945.150	0	92.6	4	27.7	4	-1E+10	1	-1E+10	1	-1E+10	1	-1E+10	1	-1E+10	1	-1E+10	1
4902643	6	C	08/20/2024	10:57	-134.025	43.827	0	3009.70	0	1.6070	0	34.6490	4	27.737	0	2964.420	0	93.5	4	27.9	4	-1E+10	1	-1E+10	1	-1E+10	1	-1E+10	1	-1E+10	1	-1E+10	1
4902643	6	C	08/20/2024	10:57	-134.025	43.827	0	3029.70	0	1.6030	0	34.6500	4	27.738	0	2983.982	0	94.3	4	28.2	4	-1E+10	1	-1E+10	1	-1E+10	1	-1E+10	1	-1E+10	1	-1E+10	1
4902643	6	C	08/20/2024	10:57	-134.025	43.827	0	3049.90	0	1.6010	0	34.6500	4	27.738	0	3003.737	0	95.1	4	28.4	4	-1E+10	1	-1E+10	1	-1E+10	1	-1E+10	1	-1E+10	1	-1E+10	1
4902643	6	C	08/20/2024	10:57	-134.025	43.827	0	3070.10	0	1.5980	0	34.6510	4	27.739	0	3023.491	0	95.6	4	28.5	4	-1E+10	1	-1E+10	1	-1E+10	1	-1E+10	1	-1E+10	1	-1E+10	1
4902643	6	C	08/20/2024	10:57	-134.025	43.827	0	3090.00	0	1.5960	0	34.6520	4	27.740	0	3042.949	0	96.1	4	28.7	4	-1E+10	1	-1E+10	1	-1E+10	1	-1E+10	1	-1E+10	1	-1E+10	1
4902643	6	C	08/20/2024	10:57	-134.025	43.827	0	3109.70	0	1.5920	0	34.6520	4	27.741	0	3062.210	0	96.7	4	28.9	4	-1E+10	1	-1E+10	1	-1E+10	1	-1E+10	1	-1E+10	1	-1E+10	1
4902643	6	C	08/20/2024	10:57	-134.025	43.827	0	3129.80	0	1.5890	0	34.6530	4	27.742	0	3081.861	0	97.1	4	29.0	4	-1E+10	1	-1E+10	1	-1E+10	1	-1E+10	1	-1E+10	1	-1E+10	1
4902643	6	C	08/20/2024	10:57	-134.025	43.827	0	3150.10	0	1.5830	0	34.6530	4	27.743	0	3101.705	0	97.6	4	29.1	4	-1E+10	1	-1E+10	1	-1E+10	1	-1E+10	1	-1E+10	1	-1E+10	1
4902643	6	C	08/20/2024	10:57	-134.025	43.827	0	3170.10	0	1.5810	0	34.6530	4	27.743	0	3121.254	0	98.3	4	29.3	4	-1E+10	1	-1E+10	1	-1E+10	1	-1E+10	1	-1E+10	1	-1E+10	1
4902643	6	C	08/20/2024	10:57	-134.025	43.827	0	3189.70	0	1.5740	0	34.6540	4	27.744	0	3140.411	0	99.2	4	29.6	4	-1E+10	1	-1E+10	1	-1E+10	1	-1E+10	1	-1E+10	1	-1E+10	1
4902643	6	C	08/20/2024	10:57	-134.025	43.827	0	3209.60	0	1.5720	0	34.6550	4	27.745	0	3159.859	0	99.6	4	29.7	4	-1E+10	1	-1E+10	1	-1E+10	1	-1E+10	1	-1E+10	1	-1E+10	1
4902643	6	C	08/20/2024	10:57	-134.025	43.827	0	3229.50	0	1.5710	0	34.6550	4	27.745	0	3179.305	0	100.0	4	29.9	4	-1E+10	1	-1E+10	1	-1E+10	1	-1E+10	1	-1E+10	1	-1E+10	1
4902643	6	C	08/20/2024	10:57	-134.025	43.827	0	3249.80	0	1.5690	0	34.6560	4	27.747	0	3199.141	0	100.5	4	30.0	4	-1E+10	1	-1E+10	1	-1E+10	1	-1E+10	1	-1E+10	1	-1E+10	1
4902643	6	C	08/20/2024	10:57	-134.025	43.827	0	3270.10	0	1.5640	0	34.6570	4	27.748	0	3218.974	0	101.3	4	30.2	4	-1E+10	1	-1E+10	1	-1E+10	1	-1E+10	1	-1E+10	1	-1E+10	1
4902643	6	C	08/20/2024	10:57	-134.025	43.827	0	3290.10	0	1.5630	0	34.6570	4	27.748	0	3238.513	0	101.8	4	30.4	4	-1E+10	1	-1E+10	1	-1E+10	1	-1E+10	1	-1E+10	1	-1E+10	1
4902643	6	C	08/20/2024	10:57	-134.025	43.827	0	3310.30	0	1.5620	0	34.6580	4	27.749	0	3258.245	0	102.2	4	30.5	4	-1E+10	1	-1E+10	1	-1E+10	1	-1E+10	1	-1E+10	1	-1E+10	1
4902643	6	C	08/20/2024	10:57	-134.025	43.827	0	3329.90	0	1.5610	0	34.6580	4	27.749	0	3277.390	0	102.5	4	30.6	4	-1E+10	1	-1E+10	1	-1E+10	1	-1E+10	1	-1E+10	1	-1E+10	1
4902643	6	C	08/20/2024	10:57	-134.025	43.827	0	3349.90	0	1.5590	0	34.6590	4	27.750	0	3296.923	0	103.2	4	30.8	4	-1E+10	1	-1E+10	1	-1E+10	1	-1E+10	1	-1E+10	1	-1E+10	1
4902643	6	C	08/20/2024	10:57	-134.025	43.827	0	3369.80	0	1.5560	0	34.6590	4	27.751	0	3316.357	0	103.8	4	31.0	4	-1E+10	1	-1E+10	1	-1E+10	1	-1E+10	1	-1E+10	1	-1E+10	1
4902643	6	C	08/20/2024	10:57	-134.025	43.827	0	3390.40	0	1.5540	0	34.6600	4	27.752	0	3336.473	0	104.3	4	31.1	4	-1E+10	1	-1E+10	1	-1E+10	1	-1E+10	1	-1E+10	1	-1E+10	1
4902643	6	C	08/20/2024	10:57	-134.025	43.827	0	3410.20	0	1.5530	0	34.6610	4	27.753	0	3355.806	0	104.7	4	31.2	4	-1E+10	1	-1E+10	1	-1E+10	1	-1E+10	1	-1E+10	1	-1E+10	1
4902643	6	C	08/20/2024	10:57	-134.025	43.827	0	3430.10	0	1.5530	0	34.6610	4	27.753	0	3375.235	0	105.0	4	31.3	4	-1E+10	1	-1E+10	1	-1E+10	1	-1E+10	1	-1E+10	1	-1E+10	1
4902643	6	C	08/20/2024	10:57	-134.025	43.827	0	3450.10	0	1.5530	0	34.6610	4	27.753	0	3394.760	0	105.1	4	31.4	4	-1E+10	1	-1E+10	1	-1E+10	1	-1E+10	1	-1E+10	1	-1E+10	1
4902643	6	C	08/20/2024	10:57	-134.025	43.827	0	3470.00	0	1.5520	0	34.6620	4	27.754	0	3414.185	0	105.4	4	31.4	4	-1E+10	1	-1E+10	1	-1E+10	1	-1E+10	1	-1E+10	1	-1E+10	1
4902643	6	C	08/20/2024	10:57	-134.025	43.827	0	3489.90	0	1.5520	0	34.6620	4	27.754	0	3433.609	0	105.7	4	31.5	4	-1E+10	1	-1E+10	1	-1E+10	1	-1E+10	1	-1E+10	1	-1E+10	1
4902643	6	C	08/20/2024	10:57	-134.025	43.827	0	3510.50	0	1.5510	0	34.6620	4	27.754	0	3453.714	0	106.2	4	31.7	4	-1E+10	1	-1E+10	1	-1E+10	1	-1E+10	1	-1E+10	1	-1E+10	1
4902643	6	C	08/20/2024	10:57	-134.025	43.827	0	3530.00	0	1.5490	0	34.6630	4	27.756	0	3472.744	0	106.8	4	31.8	4	-1E+10	1	-1E+10	1	-1E+10	1	-1E+10	1	-1E+10	1	-1E+10	1
4902643	6	C	08/20/2024	10:57	-134.025	43.827	0	3549.90	0	1.5490	0	34.6630	4	27.756	0	3492.162	0	106.9	4	31.9	4	-1E+10	1	-1E+10	1	-1E+10	1	-1E+10	1	-1E+10	1	-1E+10	1
4902643	6	C	08/20/2024	10:57	-134.025	43.827	0	3570.00	0	1.5500	0	34.6640	4	27.757	0	3511.774	0	107.0	4	31.9	4	-1E+10	1	-1E+10	1	-1E+10	1	-1E+10	1	-1E+10	1	-1E+10	1
4902643	6	C	08/20/2024	10:57	-134.025	43.827	0	3590.20	0	1.5510	0	34.6640	4	27.757	0	3531.482	0	107.2	4	32.0	4	-1E+10	1	-1E+10	1	-1E+10	1	-1E+10	1	-1E+10	1	-1E+10	1
4902643	6	C	08/20/2024	10:57	-134.025	43.827	0	3610.20	0	1.5500	0	34.6650	4	27.758	0	3550.993	0	107.5	4	32.1	4	-1E+10	1	-1E+10	1	-1E+10	1	-1E+10	1	-1E+10	1	-1E+10	1
4902643	6	C	08/20/2024	10:57	-134.025	43.827	0	3630.10	0	1.5510	0	34.6650	4	27.758	0	3570.404	0	107.5	4	32.1	4	-1E+10	1	-1E+10	1	-1E+10	1	-1E+10	1	-1E+10	1	-1E+10	1
4902643	6	C	08/20/2024	10:57	-134.025	43.827	0	3649.90	0	1.5520	0	34.6660	4	27.759	0	3589.716	0	107.7	4	32.1	4	-1E+10	1	-1E+10	1	-1E+10	1	-1E+10	1	-1E+10	1	-1E+10	1
4902643	6	C	08/20/2024	10:57	-134.025	43.827	0	3669.60	0	1.5530	0	34.6660	4	27.759	0	3608.930	0	107.9	4	32.2	4	-1E+10	1	-1E+10	1	-1E+10	1	-1E+10	1	-1E+10	1	-1E+10	1
4902643	6	C	08/20/2024	10:57	-134.025	43.827	0	3689.70	0	1.5530	0	34.6660	4	27.759	0	3628.531	0	108.1	4	32.3	4	-1E+10	1	-1E+10	1	-1E+10	1	-1E+10	1	-1E+10	1	-1E+10	1
4902643	6	C	08/20/2024	10:57	-134.025	43.827	0	3709.70	0	1.5530	0	34.6660	4	27.759	0	3648.033	0	108.3	4	32.3	4	-1E+10	1	-1E+10	1	-1E+10	1	-1E+10	1	-1E+10	1	-1E+10	1
4902643	6	C	08/20/2024	10:57	-134.025	43.827	0	3730.10	0	1.5540	0	34.6660	4	27.759	0	3667.924	0	108.3	4	32.3	4	-1E+10	1	-1E+10	1	-1E+10	1	-1E+10	1	-1E+10	1	-1E+10	1
4902643	6	C	08/20/2024	10:57	-134.025	43.827	0	3750.00	0	1.5540	0	34.6670	4	27.760	0	3687.325	0	108.4	4	32.4	4	-1E+10	1	-1E+10	1	-1E+10	1	-1E+10	1	-1E+10	1	-1E+10	1
4902643	6	C	08/20/2024	10:57	-134.025	43.827	0	3769.80	0	1.5530	0	34.6680	4	27.761	0	3706.627	0	108.7	4	32.4	4	-1E+10	1	-1E+10	1	-1E+10	1	-1E+10	1	-1E+10	1	-1E+10	1
4902643	6	C	08/20/2024	10:57	-134.025	43.827	0	3790.40	0	1.5520	0	34.6680	4	27.761	0	3726.707	0	108.9	4	32.5	4	-1E+10	1	-1E+10	1	-1E+10	1	-1E+10	1	-1E+10	1	-1E+10	1
4902643	6	C	08/20/2024	10:57	-134.025	43.827	0	3807.30	0	1.5490	0	34.6680	4	27.762	0	3743.180	0	108.6	4	32.4	4	-1E+10	1	-1E+10	1	-1E+10	1	-1E+10	1	-1E+10	1	-1E+10	1
4902643	6	C	08/20/2024	10:57	-134.025	43.827	0																										
4902643	7	C	08/30/2024	11:27	-134.042	43.807	0	2.00	0	18.3800	0	32.6770	0	23.402	0	1.984	0	221.8	4	94.0	4	-1E+10	1	-1E+10	1	-1E+10	1	-1E+10	1	-1E+10	1	-1E+10	1
4902643	7	C	08/30/2024	11:27	-134.042	43.807	0	2.10	0	18.3790	0	32.6780	0	23.403	0	2.083	0	221.8	4	94.0	4	-1E+10	1	-1E+10	1	-1E+10	1	-1E+10	1	-1E+10	1	-1E+10	1
4902643	7	C	08/30/2024	11:27	-134.042	43.807	0	2.20	0	18.3790	0	32.6780	0	23.403	0	2.182	0	221.8	4	94.0	4	-1E+10	1	-1E+10	1	-1E+10	1	-1E+10	1	-1E+10	1	-1E+10	1
4902643	7	C	08/30/2024	11:27	-134.042	43.807	0	2.70	0	18.3710	0	32.6800	0	23.407	0	2.678	0	-1e10	1	-1e10	1	-1E+10	1	-1E+10	1	-1E+10	1	-1E+10	1	-1E+10	1	-1E+10	1
4902643	7	C	08/30/2024	11:27	-134.042	43.807	0	3.00	0	18.3740	0	32.6870	0	23.411	0	2.976	0	221.7	4	94.0	4	-1E+10	1	-1E+10	1	-1E+10	1	-1E+10	1	-1E+10	1	-1E+10	1
4902643	7	C	08/30/2024	11:27	-134.042	43.807	0	3.40	0	18.3880	0	32.6800	0	23.402	0	3.373	0	221.9	4	94.0	4	-1E+10	1	-1E+10	1	-1E+10	1	-1E+10	1	-1E+10	1	-1E+10	1
4902643	7	C	08/30/2024	11:27	-134.042	43.807	0	4.70	0	18.3940	0	32.6790	0	23.400	0	4.662	0	221.9	4	94.0	4	-1E+10	1	-1E+10	1	-1E+10	1	-1E+10	1	-1E+10	1	-1E+10	1
4902643	7	C	08/30/2024	11:27	-134.042	43.807	0	5.50	0	18.3910	0	32.6760	0	23.399	0	5.456	0	222.0	4	94.1	4	-1E+10	1	-1E+10	1	-1E+10	1	-1E+10	1	-1E+10	1	-1E+10	1
4902643	7	C	08/30/2024	11:27	-134.042	43.807	0	6.40	0	18.3860	0	32.6790	0	23.402	0	6.349	0	222.0	4	94.1	4	-1E+10	1	-1E+10	1	-1E+10	1	-1E+10	1	-1E+10	1	-1E+10	1
4902643	7	C	08/30/2024	11:27	-134.042	43.807	0	7.50	0	18.3850	0	32.6790	0	23.403	0	7.440	0	222.1	4	94.1	4	-1E+10	1	-1E+10	1	-1E+10	1	-1E+10	1	-1E+10	1	-1E+10	1
4902643	7	C	08/30/2024	11:27	-134.042	43.807	0	8.70	0	18.3850	0	32.6800	0	23.403	0	8.630	0	222.2	4	94.2	4	-1E+10	1	-1E+10	1	-1E+10	1	-1E+10	1	-1E+10	1	-1E+10	1
4902643	7	C	08/30/2024	11:27	-134.042	43.807	0	9.80	0	18.3910	0	32.6790	0	23.401	0	9.721	0	222.4	4	94.2	4	-1E+10	1	-1E+10	1	-1E+10	1	-1E+10	1	-1E+10	1	-1E+10	1
4902643	7	C	08/30/2024	11:27	-134.042	43.807	0	14.80	0	18.3860	0	32.6780	0	23.402	0	14.681	0	223.6	4	94.8	4	-1E+10	1	-1E+10	1	-1E+10	1	-1E+10	1	-1E+10	1	-1E+10	1
4902643	7	C	08/30/2024	11:27	-134.042	43.807	0	25.50	0	17.8240	0	32.6610	0	23.526	0	25.294	0	238.4	4	100.0	4	-1E+10	1	-1E+10	1	-1E+10	1	-1E+10	1	-1E+10	1	-1E+10	1
4902643	7	C	08/30/2024	11:27	-134.042	43.807	0	35.10	0	13.8660	0	32.6580	0	24.407	0	34.816	0	263.7	4	102.4	4	-1E+10	1	-1E+10	1	-1E+10	1	-1E+10	1	-1E+10	1	-1E+10	1
4902643	7	C	08/30/2024	11:27	-134.042	43.807	0	44.70	0	11.8450	0	32.6600	0	24.803	0	44.337	0	265.9	4	99.0	4	-1E+10	1	-1E+10	1	-1E+10	1	-1E+10	1	-1E+10	1	-1E+10	1
4902643	7	C	08/30/2024	11:27	-134.042	43.807	0	54.70	0	10.7760	0	32.6690	0	25.002	0	54.255	0	255.3	4	93.0	4	-1E+10	1	-1E+10	1	-1E+10	1	-1E+10	1	-1E+10	1	-1E+10	1
4902643	7	C	08/30/2024	11:27	-134.042	43.807	0	64.90	0	10.2370	0	32.7050	0	25.122	0	64.370	0	252.4	4	90.9	4	-1E+10	1	-1E+10	1	-1E+10	1	-1E+10	1	-1E+10	1	-1E+10	1
4902643	7	C	08/30/2024	11:27	-134.042	43.807	0	74.60	0	10.0510	0	32.7230	0	25.168	0	73.989	0	250.4	4	89.8	4	-1E+10	1	-1E+10	1	-1E+10	1	-1E+10	1	-1E+10	1	-1E+10	1
4902643	7	C	08/30/2024	11:27	-134.042	43.807	0	84.80	0	9.9770	0	32.7610	0	25.210	0	84.104	0	246.1	4	88.1	4	-1E+10	1	-1E+10	1	-1E+10	1	-1E+10	1	-1E+10	1	-1E+10	1
4902643	7	C	08/30/2024	11:27	-134.042	43.807	0	94.90	0	9.7410	0	32.7700	0	25.256	0	94.118	0	242.6	4	86.5	4	-1E+10	1	-1E+10	1	-1E+10	1	-1E+10	1	-1E+10	1	-1E+10	1
4902643	7	C	08/30/2024	11:27	-134.042	43.807	0	104.70	0	9.6180	0	32.8060	0	25.304	0	103.835	0	239.8	4	85.3	4	-1E+10	1	-1E+10	1	-1E+10	1	-1E+10	1	-1E+10	1	-1E+10	1
4902643	7	C	08/30/2024	11:27	-134.042	43.807	0	114.70	0	9.4490	0	32.8430	0	25.361	0	113.750	0	231.8	4	82.1	4	-1E+10	1	-1E+10	1	-1E+10	1	-1E+10	1	-1E+10	1	-1E+10	1
4902643	7	C	08/30/2024	11:27	-134.042	43.807	0	124.90	0	9.2470	0	33.0120	0	25.525	0	123.862	0	221.4	4	78.2	4	-1E+10	1	-1E+10	1	-1E+10	1	-1E+10	1	-1E+10	1	-1E+10	1
4902643	7	C	08/30/2024	11:27	-134.042	43.807	0	134.70	0	9.0830	0	33.1570	0	25.665	0	133.578	0	214.7	4	75.6	4	-1E+10	1	-1E+10	1	-1E+10	1	-1E+10	1	-1E+10	1	-1E+10	1
4902643	7	C	08/30/2024	11:27	-134.042	43.807	0	145.40	0	8.7500	0	33.3480	0	25.866	0	144.185	0	209.9	4	73.5	4	-1E+10	1	-1E+10	1	-1E+10	1	-1E+10	1	-1E+10	1	-1E+10	1
4902643	7	C	08/30/2024	11:27	-134.042	43.807	0	154.20	0	8.2700	0	33.4720	0	26.036	0	152.908	0	207.9	4	72.1	4	-1E+10	1	-1E+10	1	-1E+10	1	-1E+10	1	-1E+10	1	-1E+10	1
4902643	7	C	08/30/2024	11:27	-134.042	43.807	0	165.10	0	7.9220	0	33.5720	0	26.166	0	163.712	0	205.6	4	70.8	4	-1E+10	1	-1E+10	1	-1E+10	1	-1E+10	1	-1E+10	1	-1E+10	1
4902643	7	C	08/30/2024	11:27	-134.042	43.807	0	175.10	0	7.6580	0	33.6340	0	26.253	0	173.624	0	202.0	4	69.2	4	-1E+10	1	-1E+10	1	-1E+10	1	-1E+10	1	-1E+10	1	-1E+10	1
4902643	7	C	08/30/2024	11:27	-134.042	43.807	0	184.80	0	7.4950	0	33.6850	0	26.317	0	183.238	0	198.3	4	67.7	4	-1E+10	1	-1E+10	1	-1E+10	1	-1E+10	1	-1E+10	1	-1E+10	1
4902643	7	C	08/30/2024	11:27	-134.042	43.807	0	194.50	0	7.4990	0	33.7290	0	26.351	0	192.852	0	193.7	4	66.1	4	-1E+10	1	-1E+10	1	-1E+10	1	-1E+10	1	-1E+10	1	-1E+10	1
4902643	7	C	08/30/2024	11:27	-134.042	43.807	0	209.80	0	7.2530	0	33.7560	0	26.407	0	208.014	0	186.5	4	63.3	4	-1E+10	1	-1E+10	1	-1E+10	1	-1E+10	1	-1E+10	1	-1E+10	1
4902643	7	C	08/30/2024	11:27	-134.042	43.807	0	230.00	0	6.9850	0	33.7870	0	26.468	0	228.031	0	173.9	4	58.7	4	-1E+10	1	-1E+10	1	-1E+10	1	-1E+10	1	-1E+10	1	-1E+10	1
4902643	7	C	08/30/2024	11:27	-134.042	43.807	0	249.10	0	6.6480	0	33.8010	0	26.525	0	246.956	0	159.5	4	53.5	4	-1E+10	1	-1E+10	1	-1E+10	1	-1E+10	1	-1E+10	1	-1E+10	1
4902643	7	C	08/30/2024	11:27	-134.042	43.807	0	269.60	0	6.3280	0	33.8140	0	26.577	0	267.267	0	144.2	4	48.0	4	-1E+10	1	-1E+10	1	-1E+10	1	-1E+10	1	-1E+10	1	-1E+10	1
4902643	7	C	08/30/2024	11:27	-134.042	43.807	0	290.00	0	6.0770	0	33.8180	0	26.612	0	287.476	0	133.0	4	44.0	4	-1E+10	1	-1E+10	1	-1E+10	1	-1E+10	1	-1E+10	1	-1E+10	1
4902643	7	C	08/30/2024	11:27	-134.042	43.807	0	309.70	0	5.8920	0	33.8260	0	26.642	0	306.990	0	122.1	4	40.2	4	-1E+10	1	-1E+10	1	-1E+10	1	-1E+10	1	-1E+10	1	-1E+10	1
4902643	7	C	08/30/2024	11:27	-134.042	43.807	0	329.70	0	5.7020	0	33.8360	0	26.673	0	326.799	0	111.3	4	36.5	4	-1E+10	1	-1E+10	1	-1E+10	1	-1E+10	1	-1E+10	1	-1E+10	1
4902643	7	C	08/30/2024	11:27	-134.042	43.807	0	349.70	0	5.4850	0	33.8470	0	26.708	0	346.606	0	100.8	4	32.9	4	-1E+10	1	-1E+10	1	-1E+10	1	-1E+10	1	-1E+10	1	-1E+10	1
4902643	7	C	08/30/2024	11:27	-134.042	43.807	0	369.50	0	5.2870	0	33.8610	0	26.743	0	366.214	0	89.8	4	29.2	4	-1E+10	1	-1E+10	1	-1E+10	1	-1E+10	1	-1E+10	1	-1E+10	1
4902643	7	C	08/30/2024	11:27	-134.042	43.807	0	389.60	0	4.9850	0	33.8660	0	26.781	0	386.116	0	79.2	4	25.5	4	-1E+10	1	-1E+10	1	-1E+10	1	-1E+10	1	-1E+10	1	-1E+10	1
4902643	7	C	08/30/2024	11:27	-134.042	43.807	0	410.20	0	4.8310	0	33.8830	0	26.812	0	406.512	0	72.2	4	23.2	4	-1E+10	1	-1E+10	1	-1E+10	1	-1E+10	1	-1E+10	1	-1E+10	1
4902643	7	C	08/30/2024	11:27	-134.042	43.807	0	429.40	0	4.7450	0	33.9060	0	26.840	0	425.519	0	67.4	4	21.6	4	-1E+10	1	-1E+10	1	-1E+10	1	-1E+10	1	-1E+10	1	-1E+10	1
4902643	7	C	08/30/2024	11:27	-134.042	43.807	0	449.60	0	4.7060	0	33.9300	0	26.864	0	445.515	0	62.7	4	20.1	4	-1E+10	1	-1E+10	1	-1E+10	1	-1E+10	1	-1E+10	1	-1E+10	1
4902643	7	C	08/30/2024	11:27	-134.042	43.807	0	470.00	0	4.6230	0	33.9480	0	26.887	0	465.707	0	56.4	4	18.1	4	-1E+10	1	-1E+10	1	-1E+10	1	-1E+10	1	-1E+10	1	-1E+10	1
4902643	7	C	08/30/2024	11:27	-134.042	43.807	0	489.70	0	4.5100	0	33.9660	0	26.914	0	485.204	0	50.2	4	16.0	4	-1E+10	1	-1E+10	1	-1E+10	1	-1E+10	1	-1E+10	1	-1E+10	1
4902643	7	C	08/30/2024	11:27	-134.042	43.807	0	509.40	0	4.4440	0	33.9920	0	26.942	0	504.699	0	45.6	4	14.5	4	-1E+10	1	-1E+10	1	-1E+10	1	-1E+10	1	-1E+10	1	-1E+10	1
4902643	7	C	08/30/2024	11:27	-134.042	43.807	0	529.60	0	4.4000	0	34.0110	0	26.962	0	524.687	0	40.5	4	12.9	4	-1E+10	1	-1E+10	1	-1E+10	1	-1E+10	1	-1E+10	1	-1E+10	1
4902643	7	C	08/30/2024	11:27	-134.042	43.807	0	549.60	0	4.3450	0	34.0360	0	26.988	0	544.476	0	35.4	4	11.3	4	-1E+10	1	-1E+10	1	-1E+10	1	-1E+10	1	-1E+10	1	-1E+10	1
4902643	7	C	08/30/2024	11:27	-134.042	43.807	0	569.30	0	4.3170	0	34.0580	0	27.008	0	563.965	0	30.1	4	9.6	4	-1E+10	1	-1E+10	1	-1E+10	1	-1E+10	1	-1E+10	1	-1E+10	1
4902643	7	C	08/30/2024	11:27	-134.042	43.807	0	590.40	0	4.2630	0	34.0820	0	27.033	0	584.838	0	26.7	4	8.5	4	-1E+10	1	-1E+10	1	-1E+10	1	-1E+10	1	-1E+10	1	-1E+10	1
4902643	7	C	08/30/2024	11:27	-134.042	43.807	0	609.70	0	4.2140	0	34.0970	0	27.050	0	603.928	0	24.4	4	7.7	4	-1E+10	1	-1E+10	1	-1E+10	1	-1E+10	1	-1E+10	1	-1E+10	1
4902643	7	C	08/30/2024	11:27	-134.042	43.807	0	629.50	0	4.1560	0	34.1130	0	27.069	0	623.511	0	22.1	4	7.0	4	-1E+10	1	-1E+10	1	-1E+10	1	-1E+10	1	-1E+10	1	-1E+10	1
4902643	7	C	08/30/2024	11:27	-134.042	43.807	0	649.60	0	4.0970	0	34.1280	0	27.087	0	643.389	0	20.3	4	6.4	4	-1E+10	1	-1E+10	1	-1E+10	1	-1E+10	1	-1E+10	1	-1E+10	1
4902643	7	C	08/30/2024	11:27	-134.042	43.807	0	669.70	0	4.0260	0	34.1450	0	27.108	0	663.265	0	18.7	4	5.9	4	-1E+10	1	-1E+10	1	-1E+10	1	-1E+10	1	-1E+10	1	-1E+10	1
4902643	7	C	08/30/2024	11:27	-134.042	43.807	0	689.60	0	3.9740	0	34.1580	0	27.124	0	682.941	0	17.3	4	5.5	4	-1E+10	1	-1E+10	1	-1E+10	1	-1E+10	1	-1E+10	1	-1E+10	1
4902643	7	C	08/30/2024	11:27	-134.042	43.807	0	709.70	0	3.9200	0	34.1710	0	27.140	0	702.813	0	15.7	4	5.0	4	-1E+10	1	-1E+10	1	-1E+10	1	-1E+10	1	-1E+10	1	-1E+10	1
4902643	7	C	08/30/2024	11:27	-134.042	43.807	0	729.50	0	3.8670	0	34.1850	0	27.157	0	722.386	0	14.2	4	4.5	4	-1E+10	1	-1E+10	1	-1E+10	1	-1E+10	1	-1E+10	1	-1E+10	1
4902643	7	C	08/30/2024	11:27	-134.042	43.807	0	749.40	0	3.8070	0	34.2020	0	27.176	0	742.057	0	13.0	4	4.1	4	-1E+10	1	-1E+10	1	-1E+10	1	-1E+10	1	-1E+10	1	-1E+10	1
4902643	7	C	08/30/2024	11:27	-134.042	43.807	0	769.40	0	3.7560	0	34.2140	0	27.191	0	761.825	0	12.3	4	3.9	4	-1E+10	1	-1E+10	1	-1E+10	1	-1E+10	1	-1E+10	1	-1E+10	1
4902643	7	C	08/30/2024	11:27	-134.042	43.807	0	789.70	0	3.6980	0	34.2280	0	27.208	0	781.887	0	11.5	4	3.6	4	-1E+10	1	-1E+10	1	-1E+10	1	-1E+10	1	-1E+10	1	-1E+10	1
4902643	7	C	08/30/2024	11:27	-134.042	43.807	0	809.70	0	3.6530	0	34.2430	0	27.225	0	801.651	0	10.5	4	3.3	4	-1E+10	1	-1E+10	1	-1E+10	1	-1E+10	1	-1E+10	1	-1E+10	1
4902643	7	C	08/30/2024	11:27	-134.042	43.807	0	829.70	0	3.5960	0	34.2580	0	27.242	0	821.412	0	9.6	4	3.0	4	-1E+10	1	-1E+10	1	-1E+10	1	-1E+10	1	-1E+10	1	-1E+10	1
4902643	7	C	08/30/2024	11:27	-134.042	43.807	0	849.80	0	3.5530	0	34.2720	0	27.258	0	841.271	0	8.9	4	2.8	4	-1E+10	1	-1E+10	1	-1E+10	1	-1E+10	1	-1E+10	1	-1E+10	1
4902643	7	C	08/30/2024	11:27	-134.042	43.807	0	870.40	0	3.5210	0	34.2850	0	27.271	0	861.622	0	8.2	4	2.6	4	-1E+10	1	-1E+10	1	-1E+10	1	-1E+10	1	-1E+10	1	-1E+10	1
4902643	7	C	08/30/2024	11:27	-134.042	43.807	0	889.50	0	3.5020	0	34.3000	0	27.285	0	880.489	0	7.6	4	2.4	4	-1E+10	1	-1E+10	1	-1E+10	1	-1E+10	1	-1E+10	1	-1E+10	1
4902643	7	C	08/30/2024	11:27	-134.042	43.807	0	910.20	0	3.5470	0	34.3280	0	27.303	0	900.935	0	6.9	4	2.2	4	-1E+10	1	-1E+10	1	-1E+10	1	-1E+10	1	-1E+10	1	-1E+10	1
4902643	7	C	08/30/2024	11:27	-134.042	43.807	0	929.60	0	3.5300	0	34.3450	0	27.319	0	920.095	0	6.8	4	2.1	4	-1E+10	1	-1E+10	1	-1E+10	1	-1E+10	1	-1E+10	1	-1E+10	1
4902643	7	C	08/30/2024	11:27	-134.042	43.807	0	949.80	0	3.4910	0	34.3570	0	27.332	0	940.043	0	6.9	4	2.1	4	-1E+10	1	-1E+10	1	-1E+10	1	-1E+10	1	-1E+10	1	-1E+10	1
4902643	7	C	08/30/2024	11:27	-134.042	43.807	0	969.80	0	3.4470	0	34.3640	0	27.342	0	959.792	0	7.0	4	2.2	4	-1E+10	1	-1E+10	1	-1E+10	1	-1E+10	1	-1E+10	1	-1E+10	1
4902643	7	C	08/30/2024	11:27	-134.042	43.807	0	989.70	0	3.4030	0	34.3690	0	27.350	0	979.440	0	7.1	4	2.2	4	-1E+10	1	-1E+10	1	-1E+10	1	-1E+10	1	-1E+10	1	-1E+10	1
4902643	7	C	08/30/2024	11:27	-134.042	43.807	0	1009.50	0	3.3820	0	34.3770	0	27.359	0	998.987	0	7.3	4	2.3	4	-1E+10	1	-1E+10	1	-1E+10	1	-1E+10	1	-1E+10	1	-1E+10	1
4902643	7	C	08/30/2024	11:27	-134.042	43.807	0	1029.70	0	3.3400	0	34.3830	0	27.368	0	1018.928	0	7.6	4	2.4	4	-1E+10	1	-1E+10	1	-1E+10	1	-1E+10	1	-1E+10	1	-1E+10	1
4902643	7	C	08/30/2024	11:27	-134.042	43.807	0	1049.80	0	3.3280	0	34.3950	0	27.379	0	1038.768	0	7.9	4	2.5	4	-1E+10	1	-1E+10	1	-1E+10	1	-1E+10	1	-1E+10	1	-1E+10	1
4902643	7	C	08/30/2024	11:27	-134.042	43.807	0	1069.80	0	3.3100	0	34.4050	0	27.388	0	1058.507	0	8.2	4	2.6	4	-1E+10	1	-1E+10	1	-1E+10	1	-1E+10	1	-1E+10	1	-1E+10	1
4902643	7	C	08/30/2024	11:27	-134.042	43.807	0	1089.90	0	3.2580	0	34.4080	0	27.396	0	1078.344	0	8.3	4	2.6	4	-1E+10	1	-1E+10	1	-1E+10	1	-1E+10	1	-1E+10	1	-1E+10	1
4902643	7	C	08/30/2024	11:27	-134.042	43.807	0	1109.60	0	3.2050	0	34.4140	0	27.406	0	1097.783	0	8.8	4	2.7	4	-1E+10	1	-1E+10	1	-1E+10	1	-1E+10	1	-1E+10	1	-1E+10	1
4902643	7	C	08/30/2024	11:27	-134.042	43.807	0	1129.80	0	3.1790	0	34.4230	0	27.415	0	1117.714	0	9.3	4	2.9	4	-1E+10	1	-1E+10	1	-1E+10	1	-1E+10	1	-1E+10	1	-1E+10	1
4902643	7	C	08/30/2024	11:27	-134.042	43.807	0	1150.10	0	3.1300	0	34.4310	0	27.426	0	1137.742	0	9.8	4	3.0	4	-1E+10	1	-1E+10	1	-1E+10	1	-1E+10	1	-1E+10	1	-1E+10	1
4902643	7	C	08/30/2024	11:27	-134.042	43.807	0	1169.70	0	3.0820	0	34.4370	0	27.436	0	1157.078	0	10.3	4	3.2	4	-1E+10	1	-1E+10	1	-1E+10	1	-1E+10	1	-1E+10	1	-1E+10	1
4902643	7	C	08/30/2024	11:27	-134.042	43.807	0	1189.60	0	3.0250	0	34.4450	0	27.447	0	1176.707	0	10.9	4	3.4	4	-1E+10	1	-1E+10	1	-1E+10	1	-1E+10	1	-1E+10	1	-1E+10	1
4902643	7	C	08/30/2024	11:27	-134.042	43.807	0	1210.20	0	2.9810	0	34.4510	0	27.456	0	1197.025	0	11.6	4	3.6	4	-1E+10	1	-1E+10	1	-1E+10	1	-1E+10	1	-1E+10	1	-1E+10	1
4902643	7	C	08/30/2024	11:27	-134.042	43.807	0	1229.40	0	2.9460	0	34.4570	0	27.464	0	1215.961	0	12.2	4	3.8	4	-1E+10	1	-1E+10	1	-1E+10	1	-1E+10	1	-1E+10	1	-1E+10	1
4902643	7	C	08/30/2024	11:27	-134.042	43.807	0	1249.10	0	2.9100	0	34.4620	0	27.472	0	1235.388	0	12.9	4	4.0	4	-1E+10	1	-1E+10	1	-1E+10	1	-1E+10	1	-1E+10	1	-1E+10	1
4902643	7	C	08/30/2024	11:27	-134.042	43.807	0	1269.70	0	2.8690	0	34.4680	0	27.480	0	1255.700	0	13.8	4	4.3	4	-1E+10	1	-1E+10	1	-1E+10	1	-1E+10	1	-1E+10	1	-1E+10	1
4902643	7	C	08/30/2024	11:27	-134.042	43.807	0	1289.60	0	2.8370	0	34.4730	0	27.487	0	1275.321	0	14.6	4	4.5	4	-1E+10	1	-1E+10	1	-1E+10	1	-1E+10	1	-1E+10	1	-1E+10	1
4902643	7	C	08/30/2024	11:27	-134.042	43.807	0	1309.70	0	2.8090	0	34.4770	0	27.493	0	1295.136	0	15.5	4	4.8	4	-1E+10	1	-1E+10	1	-1E+10	1	-1E+10	1	-1E+10	1	-1E+10	1
4902643	7	C	08/30/2024	11:27	-134.042	43.807	0	1330.50	0	2.7860	0	34.4830	0	27.500	0	1315.640	0	16.9	4	5.2	4	-1E+10	1	-1E+10	1	-1E+10	1	-1E+10	1	-1E+10	1	-1E+10	1
4902643	7	C	08/30/2024	11:27	-134.042	43.807	0	1350.00	0	2.7540	0	34.4900	0	27.508	0	1334.860	0	18.4	4	5.6	4	-1E+10	1	-1E+10	1	-1E+10	1	-1E+10	1	-1E+10	1	-1E+10	1
4902643	7	C	08/30/2024	11:27	-134.042	43.807	0	1369.80	0	2.7250	0	34.4960	0	27.516	0	1354.375	0	19.5	4	6.0	4	-1E+10	1	-1E+10	1	-1E+10	1	-1E+10	1	-1E+10	1	-1E+10	1
4902643	7	C	08/30/2024	11:27	-134.042	43.807	0	1389.60	0	2.6830	0	34.5000	0	27.523	0	1373.887	0	20.3	4	6.2	4	-1E+10	1	-1E+10	1	-1E+10	1	-1E+10	1	-1E+10	1	-1E+10	1
4902643	7	C	08/30/2024	11:27	-134.042	43.807	0	1409.60	0	2.6560	0	34.5030	0	27.527	0	1393.595	0	21.2	4	6.5	4	-1E+10	1	-1E+10	1	-1E+10	1	-1E+10	1	-1E+10	1	-1E+10	1
4902643	7	C	08/30/2024	11:27	-134.042	43.807	0	1429.60	0	2.6270	0	34.5070	0	27.533	0	1413.301	0	21.8	4	6.7	4	-1E+10	1	-1E+10	1	-1E+10	1	-1E+10	1	-1E+10	1	-1E+10	1
4902643	7	C	08/30/2024	11:27	-134.042	43.807	0	1449.90	0	2.5870	0	34.5100	0	27.539	0	1433.301	0	22.6	4	6.9	4	-1E+10	1	-1E+10	1	-1E+10	1	-1E+10	1	-1E+10	1	-1E+10	1
4902643	7	C	08/30/2024	11:27	-134.042	43.807	0	1469.80	0	2.5440	0	34.5140	0	27.546	0	1452.905	0	23.9	4	7.3	4	-1E+10	1	-1E+10	1	-1E+10	1	-1E+10	1	-1E+10	1	-1E+10	1
4902643	7	C	08/30/2024	11:27	-134.042	43.807	0	1489.60	0	2.5130	0	34.5180	0	27.552	0	1472.408	0	24.9	4	7.6	4	-1E+10	1	-1E+10	1	-1E+10	1	-1E+10	1	-1E+10	1	-1E+10	1
4902643	7	C	08/30/2024	11:27	-134.042	43.807	0	1509.80	0	2.4820	0	34.5220	0	27.558	0	1492.304	0	26.0	4	7.9	4	-1E+10	1	-1E+10	1	-1E+10	1	-1E+10	1	-1E+10	1	-1E+10	1
4902643	7	C	08/30/2024	11:27	-134.042	43.807	0	1529.80	0	2.4530	0	34.5250	0	27.563	0	1512.001	0	27.2	4	8.3	4	-1E+10	1	-1E+10	1	-1E+10	1	-1E+10	1	-1E+10	1	-1E+10	1
4902643	7	C	08/30/2024	11:27	-134.042	43.807	0	1549.60	0	2.4170	0	34.5300	0	27.570	0	1531.498	0	28.4	4	8.7	4	-1E+10	1	-1E+10	1	-1E+10	1	-1E+10	1	-1E+10	1	-1E+10	1
4902643	7	C	08/30/2024	11:27	-134.042	43.807	0	1569.30	0	2.3900	0	34.5330	0	27.575	0	1550.896	0	29.5	4	9.0	4	-1E+10	1	-1E+10	1	-1E+10	1	-1E+10	1	-1E+10	1	-1E+10	1
4902643	7	C	08/30/2024	11:27	-134.042	43.807	0	1589.60	0	2.3610	0	34.5360	0	27.580	0	1570.883	0	30.6	4	9.3	4	-1E+10	1	-1E+10	1	-1E+10	1	-1E+10	1	-1E+10	1	-1E+10	1
4902643	7	C	08/30/2024	11:27	-134.042	43.807	0	1610.50	0	2.3310	0	34.5410	0	27.586	0	1591.458	0	32.1	4	9.7	4	-1E+10	1	-1E+10	1	-1E+10	1	-1E+10	1	-1E+10	1	-1E+10	1
4902643	7	C	08/30/2024	11:27	-134.042	43.807	0	1629.90	0	2.3020	0	34.5440	0	27.591	0	1610.555	0	33.4	4	10.1	4	-1E+10	1	-1E+10	1	-1E+10	1	-1E+10	1	-1E+10	1	-1E+10	1
4902643	7	C	08/30/2024	11:27	-134.042	43.807	0	1649.50	0	2.2720	0	34.5490	0	27.598	0	1629.847	0	34.8	4	10.6	4	-1E+10	1	-1E+10	1	-1E+10	1	-1E+10	1	-1E+10	1	-1E+10	1
4902643	7	C	08/30/2024	11:27	-134.042	43.807	0	1669.80	0	2.2450	0	34.5520	0	27.602	0	1649.826	0	36.1	4	10.9	4	-1E+10	1	-1E+10	1	-1E+10	1	-1E+10	1	-1E+10	1	-1E+10	1
4902643	7	C	08/30/2024	11:27	-134.042	43.807	0	1689.90	0	2.2230	0	34.5550	0	27.606	0	1669.607	0	37.3	4	11.3	4	-1E+10	1	-1E+10	1	-1E+10	1	-1E+10	1	-1E+10	1	-1E+10	1
4902643	7	C	08/30/2024	11:27	-134.042	43.807	0	1710.20	0	2.1960	0	34.5590	0	27.612	0	1689.582	0	38.7	4	11.7	4	-1E+10	1	-1E+10	1	-1E+10	1	-1E+10	1	-1E+10	1	-1E+10	1
4902643	7	C	08/30/2024	11:27	-134.042	43.807	0	1729.90	0	2.1690	0	34.5630	0	27.617	0	1708.965	0	40.0	4	12.1	4	-1E+10	1	-1E+10	1	-1E+10	1	-1E+10	1	-1E+10	1	-1E+10	1
4902643	7	C	08/30/2024	11:27	-134.042	43.807	0	1749.80	0	2.1460	0	34.5660	0	27.622	0	1728.544	0	41.3	4	12.5	4	-1E+10	1	-1E+10	1	-1E+10	1	-1E+10	1	-1E+10	1	-1E+10	1
4902643	7	C	08/30/2024	11:27	-134.042	43.807	0	1770.00	0	2.1270	0	34.5690	0	27.626	0	1748.415	0	42.5	4	12.8	4	-1E+10	1	-1E+10	1	-1E+10	1	-1E+10	1	-1E+10	1	-1E+10	1
4902643	7	C	08/30/2024	11:27	-134.042	43.807	0	1789.90	0	2.1060	0	34.5720	0	27.630	0	1767.990	0	43.7	4	13.2	4	-1E+10	1	-1E+10	1	-1E+10	1	-1E+10	1	-1E+10	1	-1E+10	1
4902643	7	C	08/30/2024	11:27	-134.042	43.807	0	1810.10	0	2.0910	0	34.5740	0	27.633	0	1787.857	0	44.9	4	13.6	4	-1E+10	1	-1E+10	1	-1E+10	1	-1E+10	1	-1E+10	1	-1E+10	1
4902643	7	C	08/30/2024	11:27	-134.042	43.807	0	1830.50	0	2.0710	0	34.5770	0	27.637	0	1807.920	0	46.2	4	13.9	4	-1E+10	1	-1E+10	1	-1E+10	1	-1E+10	1	-1E+10	1	-1E+10	1
4902643	7	C	08/30/2024	11:27	-134.042	43.807	0	1849.80	0	2.0560	0	34.5790	0	27.640	0	1826.899	0	47.3	4	14.3	4	-1E+10	1	-1E+10	1	-1E+10	1	-1E+10	1	-1E+10	1	-1E+10	1
4902643	7	C	08/30/2024	11:27	-134.042	43.807	0	1870.10	0	2.0380	0	34.5810	0	27.643	0	1846.859	0	48.5	4	14.7	4	-1E+10	1	-1E+10	1	-1E+10	1	-1E+10	1	-1E+10	1	-1E+10	1
4902643	7	C	08/30/2024	11:27	-134.042	43.807	0	1890.20	0	2.0230	0	34.5840	0	27.647	0	1866.621	0	49.8	4	15.0	4	-1E+10	1	-1E+10	1	-1E+10	1	-1E+10	1	-1E+10	1	-1E+10	1
4902643	7	C	08/30/2024	11:27	-134.042	43.807	0	1909.70	0	2.0030	0	34.5860	0	27.650	0	1885.792	0	51.2	4	15.4	4	-1E+10	1	-1E+10	1	-1E+10	1	-1E+10	1	-1E+10	1	-1E+10	1
4902643	7	C	08/30/2024	11:27	-134.042	43.807	0	1929.50	0	1.9880	0	34.5890	0	27.654	0	1905.255	0	52.5	4	15.8	4	-1E+10	1	-1E+10	1	-1E+10	1	-1E+10	1	-1E+10	1	-1E+10	1
4902643	7	C	08/30/2024	11:27	-134.042	43.807	0	1949.80	0	1.9770	0	34.5910	0	27.656	0	1925.209	0	53.8	4	16.2	4	-1E+10	1	-1E+10	1	-1E+10	1	-1E+10	1	-1E+10	1	-1E+10	1
4902643	7	C	08/30/2024	11:27	-134.042	43.807	0	1969.70	0	1.9650	0	34.5930	0	27.659	0	1944.767	0	54.8	4	16.5	4	-1E+10	1	-1E+10	1	-1E+10	1	-1E+10	1	-1E+10	1	-1E+10	1
4902643	7	C	08/30/2024	11:27	-134.042	43.807	0	1989.50	0	1.9540	0	34.5950	0	27.661	0	1964.225	0	55.7	4	16.8	4	-1E+10	1	-1E+10	1	-1E+10	1	-1E+10	1	-1E+10	1	-1E+10	1
4902643	7	C	08/30/2024	11:27	-134.042	43.807	0	2010.30	0	1.9380	0	34.5970	4	27.664	0	1984.664	0	56.8	4	17.1	4	-1E+10	1	-1E+10	1	-1E+10	1	-1E+10	1	-1E+10	1	-1E+10	1
4902643	7	C	08/30/2024	11:27	-134.042	43.807	0	2029.80	0	1.9270	0	34.5990	4	27.667	0	2003.824	0	57.5	4	17.3	4	-1E+10	1	-1E+10	1	-1E+10	1	-1E+10	1	-1E+10	1	-1E+10	1
4902643	7	C	08/30/2024	11:27	-134.042	43.807	0	2049.70	0	1.9150	0	34.6000	4	27.669	0	2023.375	0	58.4	4	17.6	4	-1E+10	1	-1E+10	1	-1E+10	1	-1E+10	1	-1E+10	1	-1E+10	1
4902643	7	C	08/30/2024	11:27	-134.042	43.807	0	2069.90	0	1.9060	0	34.6020	4	27.671	0	2043.219	0	59.2	4	17.8	4	-1E+10	1	-1E+10	1	-1E+10	1	-1E+10	1	-1E+10	1	-1E+10	1
4902643	7	C	08/30/2024	11:27	-134.042	43.807	0	2090.30	0	1.8970	0	34.6040	4	27.673	0	2063.257	0	60.0	4	18.0	4	-1E+10	1	-1E+10	1	-1E+10	1	-1E+10	1	-1E+10	1	-1E+10	1
4902643	7	C	08/30/2024	11:27	-134.042	43.807	0	2110.00	0	1.8900	0	34.6050	4	27.675	0	2082.606	0	60.6	4	18.2	4	-1E+10	1	-1E+10	1	-1E+10	1	-1E+10	1	-1E+10	1	-1E+10	1
4902643	7	C	08/30/2024	11:27	-134.042	43.807	0	2129.90	0	1.8820	0	34.6060	4	27.676	0	2102.150	0	61.4	4	18.5	4	-1E+10	1	-1E+10	1	-1E+10	1	-1E+10	1	-1E+10	1	-1E+10	1
4902643	7	C	08/30/2024	11:27	-134.042	43.807	0	2150.20	0	1.8730	0	34.6080	4	27.679	0	2122.085	0	62.2	4	18.7	4	-1E+10	1	-1E+10	1	-1E+10	1	-1E+10	1	-1E+10	1	-1E+10	1
4902643	7	C	08/30/2024	11:27	-134.042	43.807	0	2170.10	0	1.8640	0	34.6090	4	27.680	0	2141.625	0	63.1	4	19.0	4	-1E+10	1	-1E+10	1	-1E+10	1	-1E+10	1	-1E+10	1	-1E+10	1
4902643	7	C	08/30/2024	11:27	-134.042	43.807	0	2189.90	0	1.8540	0	34.6110	4	27.683	0	2161.065	0	64.0	4	19.2	4	-1E+10	1	-1E+10	1	-1E+10	1	-1E+10	1	-1E+10	1	-1E+10	1
4902643	7	C	08/30/2024	11:27	-134.042	43.807	0	2210.10	0	1.8430	0	34.6130	4	27.685	0	2180.896	0	64.8	4	19.5	4	-1E+10	1	-1E+10	1	-1E+10	1	-1E+10	1	-1E+10	1	-1E+10	1
4902643	7	C	08/30/2024	11:27	-134.042	43.807	0	2230.20	0	1.8350	0	34.6140	4	27.687	0	2200.627	0	65.7	4	19.7	4	-1E+10	1	-1E+10	1	-1E+10	1	-1E+10	1	-1E+10	1	-1E+10	1
4902643	7	C	08/30/2024	11:27	-134.042	43.807	0	2249.90	0	1.8270	0	34.6150	4	27.689	0	2219.964	0	66.6	4	20.0	4	-1E+10	1	-1E+10	1	-1E+10	1	-1E+10	1	-1E+10	1	-1E+10	1
4902643	7	C	08/30/2024	11:27	-134.042	43.807	0	2269.70	0	1.8190	0	34.6170	4	27.691	0	2239.397	0	67.5	4	20.3	4	-1E+10	1	-1E+10	1	-1E+10	1	-1E+10	1	-1E+10	1	-1E+10	1
4902643	7	C	08/30/2024	11:27	-134.042	43.807	0	2289.60	0	1.8130	0	34.6180	4	27.692	0	2258.927	0	68.1	4	20.4	4	-1E+10	1	-1E+10	1	-1E+10	1	-1E+10	1	-1E+10	1	-1E+10	1
4902643	7	C	08/30/2024	11:27	-134.042	43.807	0	2309.80	0	1.8070	0	34.6190	4	27.694	0	2278.748	0	68.9	4	20.7	4	-1E+10	1	-1E+10	1	-1E+10	1	-1E+10	1	-1E+10	1	-1E+10	1
4902643	7	C	08/30/2024	11:27	-134.042	43.807	0	2330.00	0	1.7980	0	34.6200	4	27.695	0	2298.569	0	69.4	4	20.8	4	-1E+10	1	-1E+10	1	-1E+10	1	-1E+10	1	-1E+10	1	-1E+10	1
4902643	7	C	08/30/2024	11:27	-134.042	43.807	0	2349.70	0	1.7900	0	34.6210	4	27.697	0	2317.896	0	69.9	4	21.0	4	-1E+10	1	-1E+10	1	-1E+10	1	-1E+10	1	-1E+10	1	-1E+10	1
4902643	7	C	08/30/2024	11:27	-134.042	43.807	0	2370.10	0	1.7830	0	34.6220	4	27.698	0	2337.909	0	70.7	4	21.2	4	-1E+10	1	-1E+10	1	-1E+10	1	-1E+10	1	-1E+10	1	-1E+10	1
4902643	7	C	08/30/2024	11:27	-134.042	43.807	0	2389.70	0	1.7740	0	34.6230	4	27.700	0	2357.135	0	71.6	4	21.5	4	-1E+10	1	-1E+10	1	-1E+10	1	-1E+10	1	-1E+10	1	-1E+10	1
4902643	7	C	08/30/2024	11:27	-134.042	43.807	0	2409.60	0	1.7690	0	34.6240	4	27.701	0	2376.654	0	72.3	4	21.7	4	-1E+10	1	-1E+10	1	-1E+10	1	-1E+10	1	-1E+10	1	-1E+10	1
4902643	7	C	08/30/2024	11:27	-134.042	43.807	0	2429.80	0	1.7640	0	34.6250	4	27.702	0	2396.465	0	73.0	4	21.9	4	-1E+10	1	-1E+10	1	-1E+10	1	-1E+10	1	-1E+10	1	-1E+10	1
4902643	7	C	08/30/2024	11:27	-134.042	43.807	0	2449.80	0	1.7570	0	34.6260	4	27.704	0	2416.078	0	73.8	4	22.1	4	-1E+10	1	-1E+10	1	-1E+10	1	-1E+10	1	-1E+10	1	-1E+10	1
4902643	7	C	08/30/2024	11:27	-134.042	43.807	0	2470.10	0	1.7510	0	34.6270	4	27.705	0	2435.984	0	74.3	4	22.3	4	-1E+10	1	-1E+10	1	-1E+10	1	-1E+10	1	-1E+10	1	-1E+10	1
4902643	7	C	08/30/2024	11:27	-134.042	43.807	0	2490.00	0	1.7450	0	34.6280	4	27.706	0	2455.495	0	75.0	4	22.5	4	-1E+10	1	-1E+10	1	-1E+10	1	-1E+10	1	-1E+10	1	-1E+10	1
4902643	7	C	08/30/2024	11:27	-134.042	43.807	0	2509.90	0	1.7390	0	34.6290	4	27.708	0	2475.005	0	75.9	4	22.7	4	-1E+10	1	-1E+10	1	-1E+10	1	-1E+10	1	-1E+10	1	-1E+10	1
4902643	7	C	08/30/2024	11:27	-134.042	43.807	0	2529.80	0	1.7300	0	34.6300	4	27.709	0	2494.513	0	76.9	4	23.0	4	-1E+10	1	-1E+10	1	-1E+10	1	-1E+10	1	-1E+10	1	-1E+10	1
4902643	7	C	08/30/2024	11:27	-134.042	43.807	0	2549.80	0	1.7220	0	34.6310	4	27.711	0	2514.117	0	77.9	4	23.3	4	-1E+10	1	-1E+10	1	-1E+10	1	-1E+10	1	-1E+10	1	-1E+10	1
4902643	7	C	08/30/2024	11:27	-134.042	43.807	0	2570.00	0	1.7140	0	34.6330	4	27.713	0	2533.916	0	78.9	4	23.6	4	-1E+10	1	-1E+10	1	-1E+10	1	-1E+10	1	-1E+10	1	-1E+10	1
4902643	7	C	08/30/2024	11:27	-134.042	43.807	0	2590.00	0	1.7090	0	34.6330	4	27.714	0	2553.516	0	79.4	4	23.8	4	-1E+10	1	-1E+10	1	-1E+10	1	-1E+10	1	-1E+10	1	-1E+10	1
4902643	7	C	08/30/2024	11:27	-134.042	43.807	0	2609.80	0	1.7040	0	34.6340	4	27.715	0	2572.919	0	80.2	4	24.0	4	-1E+10	1	-1E+10	1	-1E+10	1	-1E+10	1	-1E+10	1	-1E+10	1
4902643	7	C	08/30/2024	11:27	-134.042	43.807	0	2630.00	0	1.6980	0	34.6350	4	27.716	0	2592.712	0	80.9	4	24.2	4	-1E+10	1	-1E+10	1	-1E+10	1	-1E+10	1	-1E+10	1	-1E+10	1
4902643	7	C	08/30/2024	11:27	-134.042	43.807	0	2650.40	0	1.6930	0	34.6360	4	27.718	0	2612.699	0	81.5	4	24.4	4	-1E+10	1	-1E+10	1	-1E+10	1	-1E+10	1	-1E+10	1	-1E+10	1
4902643	7	C	08/30/2024	11:27	-134.042	43.807	0	2670.10	0	1.6860	0	34.6370	4	27.719	0	2631.999	0	82.3	4	24.6	4	-1E+10	1	-1E+10	1	-1E+10	1	-1E+10	1	-1E+10	1	-1E+10	1
4902643	7	C	08/30/2024	11:27	-134.042	43.807	0	2690.00	0	1.6780	0	34.6380	4	27.721	0	2651.493	0	83.1	4	24.9	4	-1E+10	1	-1E+10	1	-1E+10	1	-1E+10	1	-1E+10	1	-1E+10	1
4902643	7	C	08/30/2024	11:27	-134.042	43.807	0	2709.90	0	1.6740	0	34.6380	4	27.721	0	2670.985	0	83.7	4	25.1	4	-1E+10	1	-1E+10	1	-1E+10	1	-1E+10	1	-1E+10	1	-1E+10	1
4902643	7	C	08/30/2024	11:27	-134.042	43.807	0	2729.70	0	1.6690	0	34.6390	4	27.722	0	2690.377	0	84.4	4	25.3	4	-1E+10	1	-1E+10	1	-1E+10	1	-1E+10	1	-1E+10	1	-1E+10	1
4902643	7	C	08/30/2024	11:27	-134.042	43.807	0	2749.80	0	1.6650	0	34.6400	4	27.724	0	2710.061	0	85.1	4	25.5	4	-1E+10	1	-1E+10	1	-1E+10	1	-1E+10	1	-1E+10	1	-1E+10	1
4902643	7	C	08/30/2024	11:27	-134.042	43.807	0	2769.70	0	1.6620	0	34.6410	4	27.725	0	2729.548	0	85.7	4	25.6	4	-1E+10	1	-1E+10	1	-1E+10	1	-1E+10	1	-1E+10	1	-1E+10	1
4902643	7	C	08/30/2024	11:27	-134.042	43.807	0	2790.30	0	1.6600	0	34.6420	4	27.726	0	2749.718	0	86.4	4	25.8	4	-1E+10	1	-1E+10	1	-1E+10	1	-1E+10	1	-1E+10	1	-1E+10	1
4902643	7	C	08/30/2024	11:27	-134.042	43.807	0	2810.00	0	1.6570	0	34.6420	4	27.726	0	2769.006	0	87.1	4	26.0	4	-1E+10	1	-1E+10	1	-1E+10	1	-1E+10	1	-1E+10	1	-1E+10	1
4902643	7	C	08/30/2024	11:27	-134.042	43.807	0	2830.00	0	1.6520	0	34.6430	4	27.727	0	2788.585	0	87.7	4	26.2	4	-1E+10	1	-1E+10	1	-1E+10	1	-1E+10	1	-1E+10	1	-1E+10	1
4902643	7	C	08/30/2024	11:27	-134.042	43.807	0	2849.70	0	1.6460	0	34.6430	4	27.728	0	2807.869	0	88.2	4	26.4	4	-1E+10	1	-1E+10	1	-1E+10	1	-1E+10	1	-1E+10	1	-1E+10	1
4902643	7	C	08/30/2024	11:27	-134.042	43.807	0	2870.10	0	1.6440	0	34.6440	4	27.729	0	2827.836	0	88.9	4	26.6	4	-1E+10	1	-1E+10	1	-1E+10	1	-1E+10	1	-1E+10	1	-1E+10	1
4902643	7	C	08/30/2024	11:27	-134.042	43.807	0	2890.00	0	1.6420	0	34.6450	4	27.730	0	2847.312	0	89.5	4	26.8	4	-1E+10	1	-1E+10	1	-1E+10	1	-1E+10	1	-1E+10	1	-1E+10	1
4902643	7	C	08/30/2024	11:27	-134.042	43.807	0	2909.80	0	1.6360	0	34.6450	4	27.731	0	2866.689	0	90.2	4	26.9	4	-1E+10	1	-1E+10	1	-1E+10	1	-1E+10	1	-1E+10	1	-1E+10	1
4902643	7	C	08/30/2024	11:27	-134.042	43.807	0	2929.60	0	1.6300	0	34.6460	4	27.732	0	2886.063	0	90.8	4	27.1	4	-1E+10	1	-1E+10	1	-1E+10	1	-1E+10	1	-1E+10	1	-1E+10	1
4902643	7	C	08/30/2024	11:27	-134.042	43.807	0	2949.90	0	1.6230	0	34.6470	4	27.734	0	2905.925	0	91.7	4	27.4	4	-1E+10	1	-1E+10	1	-1E+10	1	-1E+10	1	-1E+10	1	-1E+10	1
4902643	7	C	08/30/2024	11:27	-134.042	43.807	0	2970.00	0	1.6170	0	34.6480	4	27.735	0	2925.590	0	92.5	4	27.6	4	-1E+10	1	-1E+10	1	-1E+10	1	-1E+10	1	-1E+10	1	-1E+10	1
4902643	7	C	08/30/2024	11:27	-134.042	43.807	0	2990.00	0	1.6130	0	34.6490	4	27.736	0	2945.155	0	93.2	4	27.8	4	-1E+10	1	-1E+10	1	-1E+10	1	-1E+10	1	-1E+10	1	-1E+10	1
4902643	7	C	08/30/2024	11:27	-134.042	43.807	0	3009.80	0	1.6090	0	34.6490	4	27.737	0	2964.523	0	93.6	4	28.0	4	-1E+10	1	-1E+10	1	-1E+10	1	-1E+10	1	-1E+10	1	-1E+10	1
4902643	7	C	08/30/2024	11:27	-134.042	43.807	0	3029.90	0	1.6050	0	34.6500	4	27.738	0	2984.182	0	94.0	4	28.1	4	-1E+10	1	-1E+10	1	-1E+10	1	-1E+10	1	-1E+10	1	-1E+10	1
4902643	7	C	08/30/2024	11:27	-134.042	43.807	0	3050.10	0	1.6010	0	34.6500	4	27.738	0	3003.938	0	94.6	4	28.3	4	-1E+10	1	-1E+10	1	-1E+10	1	-1E+10	1	-1E+10	1	-1E+10	1
4902643	7	C	08/30/2024	11:27	-134.042	43.807	0	3069.80	0	1.5980	0	34.6510	4	27.739	0	3023.203	0	95.2	4	28.4	4	-1E+10	1	-1E+10	1	-1E+10	1	-1E+10	1	-1E+10	1	-1E+10	1
4902643	7	C	08/30/2024	11:27	-134.042	43.807	0	3090.30	0	1.5950	0	34.6510	4	27.740	0	3043.248	0	95.8	4	28.6	4	-1E+10	1	-1E+10	1	-1E+10	1	-1E+10	1	-1E+10	1	-1E+10	1
4902643	7	C	08/30/2024	11:27	-134.042	43.807	0	3109.80	0	1.5930	0	34.6520	4	27.741	0	3062.314	0	96.4	4	28.8	4	-1E+10	1	-1E+10	1	-1E+10	1	-1E+10	1	-1E+10	1	-1E+10	1
4902643	7	C	08/30/2024	11:27	-134.042	43.807	0	3130.10	0	1.5900	0	34.6530	4	27.742	0	3082.160	0	97.1	4	29.0	4	-1E+10	1	-1E+10	1	-1E+10	1	-1E+10	1	-1E+10	1	-1E+10	1
4902643	7	C	08/30/2024	11:27	-134.042	43.807	0	3150.20	0	1.5860	0	34.6540	4	27.743	0	3101.808	0	97.7	4	29.2	4	-1E+10	1	-1E+10	1	-1E+10	1	-1E+10	1	-1E+10	1	-1E+10	1
4902643	7	C	08/30/2024	11:27	-134.042	43.807	0	3169.80	0	1.5850	0	34.6540	4	27.743	0	3120.967	0	97.9	4	29.2	4	-1E+10	1	-1E+10	1	-1E+10	1	-1E+10	1	-1E+10	1	-1E+10	1
4902643	7	C	08/30/2024	11:27	-134.042	43.807	0	3189.90	0	1.5830	0	34.6540	4	27.744	0	3140.612	0	98.4	4	29.4	4	-1E+10	1	-1E+10	1	-1E+10	1	-1E+10	1	-1E+10	1	-1E+10	1
4902643	7	C	08/30/2024	11:27	-134.042	43.807	0	3209.80	0	1.5790	0	34.6540	4	27.744	0	3160.060	0	99.0	4	29.5	4	-1E+10	1	-1E+10	1	-1E+10	1	-1E+10	1	-1E+10	1	-1E+10	1
4902643	7	C	08/30/2024	11:27	-134.042	43.807	0	3230.00	0	1.5730	0	34.6550	4	27.745	0	3179.799	0	99.7	4	29.8	4	-1E+10	1	-1E+10	1	-1E+10	1	-1E+10	1	-1E+10	1	-1E+10	1
4902643	7	C	08/30/2024	11:27	-134.042	43.807	0	3250.50	0	1.5700	0	34.6560	4	27.747	0	3199.830	0	100.3	4	29.9	4	-1E+10	1	-1E+10	1	-1E+10	1	-1E+10	1	-1E+10	1	-1E+10	1
4902643	7	C	08/30/2024	11:27	-134.042	43.807	0	3269.90	0	1.5690	0	34.6560	4	27.747	0	3218.784	0	100.9	4	30.1	4	-1E+10	1	-1E+10	1	-1E+10	1	-1E+10	1	-1E+10	1	-1E+10	1
4902643	7	C	08/30/2024	11:27	-134.042	43.807	0	3290.10	0	1.5680	0	34.6570	4	27.748	0	3238.519	0	101.3	4	30.2	4	-1E+10	1	-1E+10	1	-1E+10	1	-1E+10	1	-1E+10	1	-1E+10	1
4902643	7	C	08/30/2024	11:27	-134.042	43.807	0	3310.00	0	1.5660	0	34.6580	4	27.749	0	3257.958	0	101.7	4	30.3	4	-1E+10	1	-1E+10	1	-1E+10	1	-1E+10	1	-1E+10	1	-1E+10	1
4902643	7	C	08/30/2024	11:27	-134.042	43.807	0	3329.60	0	1.5620	0	34.6580	4	27.749	0	3277.103	0	102.3	4	30.5	4	-1E+10	1	-1E+10	1	-1E+10	1	-1E+10	1	-1E+10	1	-1E+10	1
4902643	7	C	08/30/2024	11:27	-134.042	43.807	0	3349.70	0	1.5600	0	34.6580	4	27.750	0	3296.734	0	102.7	4	30.7	4	-1E+10	1	-1E+10	1	-1E+10	1	-1E+10	1	-1E+10	1	-1E+10	1
4902643	7	C	08/30/2024	11:27	-134.042	43.807	0	3369.70	0	1.5600	0	34.6590	4	27.750	0	3316.266	0	103.0	4	30.7	4	-1E+10	1	-1E+10	1	-1E+10	1	-1E+10	1	-1E+10	1	-1E+10	1
4902643	7	C	08/30/2024	11:27	-134.042	43.807	0	3389.60	0	1.5590	0	34.6590	4	27.751	0	3335.698	0	103.5	4	30.9	4	-1E+10	1	-1E+10	1	-1E+10	1	-1E+10	1	-1E+10	1	-1E+10	1
4902643	7	C	08/30/2024	11:27	-134.042	43.807	0	3410.50	0	1.5560	0	34.6600	4	27.752	0	3356.105	0	104.1	4	31.0	4	-1E+10	1	-1E+10	1	-1E+10	1	-1E+10	1	-1E+10	1	-1E+10	1
4902643	7	C	08/30/2024	11:27	-134.042	43.807	0	3430.20	0	1.5540	0	34.6600	4	27.752	0	3375.339	0	104.6	4	31.2	4	-1E+10	1	-1E+10	1	-1E+10	1	-1E+10	1	-1E+10	1	-1E+10	1
4902643	7	C	08/30/2024	11:27	-134.042	43.807	0	3450.00	0	1.5520	0	34.6610	4	27.753	0	3394.668	0	105.1	4	31.3	4	-1E+10	1	-1E+10	1	-1E+10	1	-1E+10	1	-1E+10	1	-1E+10	1
4902643	7	C	08/30/2024	11:27	-134.042	43.807	0	3469.90	0	1.5510	0	34.6610	4	27.753	0	3414.094	0	105.5	4	31.5	4	-1E+10	1	-1E+10	1	-1E+10	1	-1E+10	1	-1E+10	1	-1E+10	1
4902643	7	C	08/30/2024	11:27	-134.042	43.807	0	3490.00	0	1.5500	0	34.6620	4	27.754	0	3433.713	0	105.9	4	31.6	4	-1E+10	1	-1E+10	1	-1E+10	1	-1E+10	1	-1E+10	1	-1E+10	1
4902643	7	C	08/30/2024	11:27	-134.042	43.807	0	3510.00	0	1.5500	0	34.6630	4	27.755	0	3453.232	0	106.2	4	31.7	4	-1E+10	1	-1E+10	1	-1E+10	1	-1E+10	1	-1E+10	1	-1E+10	1
4902643	7	C	08/30/2024	11:27	-134.042	43.807	0	3530.40	0	1.5500	0	34.6630	4	27.755	0	3473.140	0	106.4	4	31.7	4	-1E+10	1	-1E+10	1	-1E+10	1	-1E+10	1	-1E+10	1	-1E+10	1
4902643	7	C	08/30/2024	11:27	-134.042	43.807	0	3550.20	0	1.5500	0	34.6630	4	27.756	0	3492.461	0	106.6	4	31.8	4	-1E+10	1	-1E+10	1	-1E+10	1	-1E+10	1	-1E+10	1	-1E+10	1
4902643	7	C	08/30/2024	11:27	-134.042	43.807	0	3570.20	0	1.5510	0	34.6640	4	27.757	0	3511.975	0	106.9	4	31.9	4	-1E+10	1	-1E+10	1	-1E+10	1	-1E+10	1	-1E+10	1	-1E+10	1
4902643	7	C	08/30/2024	11:27	-134.042	43.807	0	3589.90	0	1.5500	0	34.6640	4	27.757	0	3531.195	0	107.2	4	32.0	4	-1E+10	1	-1E+10	1	-1E+10	1	-1E+10	1	-1E+10	1	-1E+10	1
4902643	7	C	08/30/2024	11:27	-134.042	43.807	0	3609.90	0	1.5500	0	34.6650	4	27.758	0	3550.706	0	107.5	4	32.1	4	-1E+10	1	-1E+10	1	-1E+10	1	-1E+10	1	-1E+10	1	-1E+10	1
4902643	7	C	08/30/2024	11:27	-134.042	43.807	0	3629.90	0	1.5500	0	34.6650	4	27.758	0	3570.215	0	107.7	4	32.1	4	-1E+10	1	-1E+10	1	-1E+10	1	-1E+10	1	-1E+10	1	-1E+10	1
4902643	7	C	08/30/2024	11:27	-134.042	43.807	0	3650.40	0	1.5510	0	34.6660	4	27.759	0	3590.211	0	108.0	4	32.2	4	-1E+10	1	-1E+10	1	-1E+10	1	-1E+10	1	-1E+10	1	-1E+10	1
4902643	7	C	08/30/2024	11:27	-134.042	43.807	0	3669.70	0	1.5500	0	34.6660	4	27.759	0	3609.034	0	108.4	4	32.3	4	-1E+10	1	-1E+10	1	-1E+10	1	-1E+10	1	-1E+10	1	-1E+10	1
4902643	7	C	08/30/2024	11:27	-134.042	43.807	0	3689.70	0	1.5500	0	34.6660	4	27.759	0	3628.538	0	108.6	4	32.4	4	-1E+10	1	-1E+10	1	-1E+10	1	-1E+10	1	-1E+10	1	-1E+10	1
4902643	7	C	08/30/2024	11:27	-134.042	43.807	0	3709.70	0	1.5510	0	34.6670	4	27.760	0	3648.040	0	108.8	4	32.5	4	-1E+10	1	-1E+10	1	-1E+10	1	-1E+10	1	-1E+10	1	-1E+10	1
4902643	7	C	08/30/2024	11:27	-134.042	43.807	0	3729.80	0	1.5510	0	34.6670	4	27.760	0	3667.638	0	108.9	4	32.5	4	-1E+10	1	-1E+10	1	-1E+10	1	-1E+10	1	-1E+10	1	-1E+10	1
4902643	7	C	08/30/2024	11:27	-134.042	43.807	0	3749.80	0	1.5520	0	34.6670	4	27.760	0	3687.137	0	108.9	4	32.5	4	-1E+10	1	-1E+10	1	-1E+10	1	-1E+10	1	-1E+10	1	-1E+10	1
4902643	7	C	08/30/2024	11:27	-134.042	43.807	0	3769.90	0	1.5530	0	34.6670	4	27.760	0	3706.731	0	109.1	4	32.6	4	-1E+10	1	-1E+10	1	-1E+10	1	-1E+10	1	-1E+10	1	-1E+10	1
4902643	7	C	08/30/2024	11:27	-134.042	43.807	0	3790.20	0	1.5520	0	34.6680	4	27.761	0	3726.519	0	108.7	4	32.4	4	-1E+10	1	-1E+10	1	-1E+10	1	-1E+10	1	-1E+10	1	-1E+10	1
4902643	7	C	08/30/2024	11:27	-134.042	43.807	0	3802.60	0	1.5530	0	34.6680	4	27.761	0	3738.605	0	107.4	4	32.0	4	-1E+10	1	-1E+10	1	-1E+10	1	-1E+10	1	-1E+10	1	-1E+10	1
4902643	7	C	08/30/2024	11:27	-134.042	43.807	0																										
4902643	8	C	09/09/2024	10:28	-134.049	43.785	0	2.20	0	19.5580	0	32.6820	0	23.110	0	2.182	0	217.8	4	94.3	4	-1E+10	1	-1E+10	1	-1E+10	1	-1E+10	1	-1E+10	1	-1E+10	1
4902643	8	C	09/09/2024	10:28	-134.049	43.785	0	2.30	0	19.5560	0	32.6810	0	23.110	0	2.282	0	217.7	4	94.3	4	-1E+10	1	-1E+10	1	-1E+10	1	-1E+10	1	-1E+10	1	-1E+10	1
4902643	8	C	09/09/2024	10:28	-134.049	43.785	0	2.40	0	19.5570	0	32.6820	0	23.110	0	2.381	0	217.7	4	94.3	4	-1E+10	1	-1E+10	1	-1E+10	1	-1E+10	1	-1E+10	1	-1E+10	1
4902643	8	C	09/09/2024	10:28	-134.049	43.785	0	2.50	0	19.5560	0	32.6820	0	23.111	0	2.480	0	-1e10	1	-1e10	1	-1E+10	1	-1E+10	1	-1E+10	1	-1E+10	1	-1E+10	1	-1E+10	1
4902643	8	C	09/09/2024	10:28	-134.049	43.785	0	2.80	0	19.5640	0	32.6480	0	23.083	0	2.778	0	218.5	4	94.6	4	-1E+10	1	-1E+10	1	-1E+10	1	-1E+10	1	-1E+10	1	-1E+10	1
4902643	8	C	09/09/2024	10:28	-134.049	43.785	0	3.60	0	19.5640	0	32.6480	0	23.083	0	3.571	0	218.4	4	94.6	4	-1E+10	1	-1E+10	1	-1E+10	1	-1E+10	1	-1E+10	1	-1E+10	1
4902643	8	C	09/09/2024	10:28	-134.049	43.785	0	4.50	0	19.5530	0	32.6800	0	23.110	0	4.464	0	218.5	4	94.6	4	-1E+10	1	-1E+10	1	-1E+10	1	-1E+10	1	-1E+10	1	-1E+10	1
4902643	8	C	09/09/2024	10:28	-134.049	43.785	0	5.50	0	19.4190	0	32.6830	0	23.146	0	5.456	0	219.1	4	94.6	4	-1E+10	1	-1E+10	1	-1E+10	1	-1E+10	1	-1E+10	1	-1E+10	1
4902643	8	C	09/09/2024	10:28	-134.049	43.785	0	6.30	0	19.3460	0	32.6840	0	23.166	0	6.249	0	219.4	4	94.6	4	-1E+10	1	-1E+10	1	-1E+10	1	-1E+10	1	-1E+10	1	-1E+10	1
4902643	8	C	09/09/2024	10:28	-134.049	43.785	0	7.40	0	19.1920	0	32.6880	0	23.208	0	7.341	0	220.0	4	94.7	4	-1E+10	1	-1E+10	1	-1E+10	1	-1E+10	1	-1E+10	1	-1E+10	1
4902643	8	C	09/09/2024	10:28	-134.049	43.785	0	8.90	0	19.1520	0	32.6840	0	23.215	0	8.829	0	220.6	4	94.8	4	-1E+10	1	-1E+10	1	-1E+10	1	-1E+10	1	-1E+10	1	-1E+10	1
4902643	8	C	09/09/2024	10:28	-134.049	43.785	0	14.80	0	18.7830	0	32.6670	0	23.295	0	14.681	0	226.6	4	96.7	4	-1E+10	1	-1E+10	1	-1E+10	1	-1E+10	1	-1E+10	1	-1E+10	1
4902643	8	C	09/09/2024	10:28	-134.049	43.785	0	24.70	0	16.3890	0	32.6720	0	23.871	0	24.501	0	253.5	4	103.4	4	-1E+10	1	-1E+10	1	-1E+10	1	-1E+10	1	-1E+10	1	-1E+10	1
4902643	8	C	09/09/2024	10:28	-134.049	43.785	0	34.60	0	13.8750	0	32.6620	0	24.408	0	34.320	0	266.6	4	103.5	4	-1E+10	1	-1E+10	1	-1E+10	1	-1E+10	1	-1E+10	1	-1E+10	1
4902643	8	C	09/09/2024	10:28	-134.049	43.785	0	44.60	0	12.2040	0	32.6690	0	24.743	0	44.238	0	269.4	4	101.1	4	-1E+10	1	-1E+10	1	-1E+10	1	-1E+10	1	-1E+10	1	-1E+10	1
4902643	8	C	09/09/2024	10:28	-134.049	43.785	0	55.00	0	11.2440	0	32.6690	0	24.919	0	54.552	0	263.5	4	96.9	4	-1E+10	1	-1E+10	1	-1E+10	1	-1E+10	1	-1E+10	1	-1E+10	1
4902643	8	C	09/09/2024	10:28	-134.049	43.785	0	64.80	0	10.6910	0	32.7080	0	25.047	0	64.271	0	257.5	4	93.6	4	-1E+10	1	-1E+10	1	-1E+10	1	-1E+10	1	-1E+10	1	-1E+10	1
4902643	8	C	09/09/2024	10:28	-134.049	43.785	0	74.70	0	10.2620	0	32.7150	0	25.126	0	74.089	0	251.8	4	90.7	4	-1E+10	1	-1E+10	1	-1E+10	1	-1E+10	1	-1E+10	1	-1E+10	1
4902643	8	C	09/09/2024	10:28	-134.049	43.785	0	85.10	0	10.0540	0	32.7260	0	25.170	0	84.401	0	248.0	4	88.9	4	-1E+10	1	-1E+10	1	-1E+10	1	-1E+10	1	-1E+10	1	-1E+10	1
4902643	8	C	09/09/2024	10:28	-134.049	43.785	0	95.00	0	9.9130	0	32.7620	0	25.221	0	94.218	0	245.4	4	87.8	4	-1E+10	1	-1E+10	1	-1E+10	1	-1E+10	1	-1E+10	1	-1E+10	1
4902643	8	C	09/09/2024	10:28	-134.049	43.785	0	104.80	0	9.7940	0	32.7770	0	25.253	0	103.935	0	242.6	4	86.5	4	-1E+10	1	-1E+10	1	-1E+10	1	-1E+10	1	-1E+10	1	-1E+10	1
4902643	8	C	09/09/2024	10:28	-134.049	43.785	0	114.90	0	9.5670	0	32.7890	0	25.299	0	113.948	0	238.2	4	84.6	4	-1E+10	1	-1E+10	1	-1E+10	1	-1E+10	1	-1E+10	1	-1E+10	1
4902643	8	C	09/09/2024	10:28	-134.049	43.785	0	124.80	0	9.3930	0	32.8650	0	25.387	0	123.763	0	229.3	4	81.1	4	-1E+10	1	-1E+10	1	-1E+10	1	-1E+10	1	-1E+10	1	-1E+10	1
4902643	8	C	09/09/2024	10:28	-134.049	43.785	0	134.80	0	9.2250	0	33.0280	0	25.541	0	133.677	0	217.0	4	76.6	4	-1E+10	1	-1E+10	1	-1E+10	1	-1E+10	1	-1E+10	1	-1E+10	1
4902643	8	C	09/09/2024	10:28	-134.049	43.785	0	144.50	0	9.0050	0	33.2730	0	25.768	0	143.293	0	210.1	4	73.9	4	-1E+10	1	-1E+10	1	-1E+10	1	-1E+10	1	-1E+10	1	-1E+10	1
4902643	8	C	09/09/2024	10:28	-134.049	43.785	0	154.50	0	8.8940	0	33.4670	0	25.937	0	153.206	0	206.4	4	72.6	4	-1E+10	1	-1E+10	1	-1E+10	1	-1E+10	1	-1E+10	1	-1E+10	1
4902643	8	C	09/09/2024	10:28	-134.049	43.785	0	165.00	0	8.5890	0	33.5580	0	26.056	0	163.614	0	203.5	4	71.1	4	-1E+10	1	-1E+10	1	-1E+10	1	-1E+10	1	-1E+10	1	-1E+10	1
4902643	8	C	09/09/2024	10:28	-134.049	43.785	0	175.10	0	8.2470	0	33.6220	0	26.158	0	173.624	0	202.0	4	70.1	4	-1E+10	1	-1E+10	1	-1E+10	1	-1E+10	1	-1E+10	1	-1E+10	1
4902643	8	C	09/09/2024	10:28	-134.049	43.785	0	184.90	0	7.8440	0	33.6560	0	26.244	0	183.338	0	199.6	4	68.6	4	-1E+10	1	-1E+10	1	-1E+10	1	-1E+10	1	-1E+10	1	-1E+10	1
4902643	8	C	09/09/2024	10:28	-134.049	43.785	0	194.60	0	7.6450	0	33.7100	0	26.315	0	192.951	0	194.7	4	66.7	4	-1E+10	1	-1E+10	1	-1E+10	1	-1E+10	1	-1E+10	1	-1E+10	1
4902643	8	C	09/09/2024	10:28	-134.049	43.785	0	209.60	0	7.6260	0	33.7900	0	26.381	0	207.816	0	186.5	4	63.9	4	-1E+10	1	-1E+10	1	-1E+10	1	-1E+10	1	-1E+10	1	-1E+10	1
4902643	8	C	09/09/2024	10:28	-134.049	43.785	0	229.70	0	7.3780	0	33.8160	0	26.437	0	227.734	0	177.7	4	60.6	4	-1E+10	1	-1E+10	1	-1E+10	1	-1E+10	1	-1E+10	1	-1E+10	1
4902643	8	C	09/09/2024	10:28	-134.049	43.785	0	249.60	0	7.0280	0	33.8220	0	26.490	0	247.452	0	168.4	4	56.9	4	-1E+10	1	-1E+10	1	-1E+10	1	-1E+10	1	-1E+10	1	-1E+10	1
4902643	8	C	09/09/2024	10:28	-134.049	43.785	0	269.50	0	6.8060	0	33.8240	0	26.522	0	267.168	0	158.9	4	53.4	4	-1E+10	1	-1E+10	1	-1E+10	1	-1E+10	1	-1E+10	1	-1E+10	1
4902643	8	C	09/09/2024	10:28	-134.049	43.785	0	289.40	0	6.4780	0	33.8190	0	26.562	0	286.882	0	146.8	4	49.0	4	-1E+10	1	-1E+10	1	-1E+10	1	-1E+10	1	-1E+10	1	-1E+10	1
4902643	8	C	09/09/2024	10:28	-134.049	43.785	0	309.40	0	6.1750	0	33.8250	0	26.606	0	306.693	0	132.5	4	43.9	4	-1E+10	1	-1E+10	1	-1E+10	1	-1E+10	1	-1E+10	1	-1E+10	1
4902643	8	C	09/09/2024	10:28	-134.049	43.785	0	329.60	0	5.9210	0	33.8310	0	26.642	0	326.701	0	120.0	4	39.6	4	-1E+10	1	-1E+10	1	-1E+10	1	-1E+10	1	-1E+10	1	-1E+10	1
4902643	8	C	09/09/2024	10:28	-134.049	43.785	0	349.40	0	5.6780	0	33.8410	0	26.680	0	346.310	0	108.4	4	35.5	4	-1E+10	1	-1E+10	1	-1E+10	1	-1E+10	1	-1E+10	1	-1E+10	1
4902643	8	C	09/09/2024	10:28	-134.049	43.785	0	370.40	0	5.4430	0	33.8520	0	26.717	0	367.106	0	96.9	4	31.6	4	-1E+10	1	-1E+10	1	-1E+10	1	-1E+10	1	-1E+10	1	-1E+10	1
4902643	8	C	09/09/2024	10:28	-134.049	43.785	0	389.70	0	5.1420	0	33.8570	0	26.756	0	386.216	0	85.9	4	27.8	4	-1E+10	1	-1E+10	1	-1E+10	1	-1E+10	1	-1E+10	1	-1E+10	1
4902643	8	C	09/09/2024	10:28	-134.049	43.785	0	409.60	0	4.9560	0	33.8690	0	26.787	0	405.919	0	77.0	4	24.8	4	-1E+10	1	-1E+10	1	-1E+10	1	-1E+10	1	-1E+10	1	-1E+10	1
4902643	8	C	09/09/2024	10:28	-134.049	43.785	0	430.40	0	4.7870	0	33.8970	0	26.829	0	426.510	0	69.2	4	22.2	4	-1E+10	1	-1E+10	1	-1E+10	1	-1E+10	1	-1E+10	1	-1E+10	1
4902643	8	C	09/09/2024	10:28	-134.049	43.785	0	449.70	0	4.7000	0	33.9160	0	26.853	0	445.615	0	63.1	4	20.2	4	-1E+10	1	-1E+10	1	-1E+10	1	-1E+10	1	-1E+10	1	-1E+10	1
4902643	8	C	09/09/2024	10:28	-134.049	43.785	0	469.80	0	4.6110	0	33.9400	0	26.882	0	465.510	0	57.5	4	18.4	4	-1E+10	1	-1E+10	1	-1E+10	1	-1E+10	1	-1E+10	1	-1E+10	1
4902643	8	C	09/09/2024	10:28	-134.049	43.785	0	489.90	0	4.5470	0	33.9630	0	26.908	0	485.403	0	52.0	4	16.6	4	-1E+10	1	-1E+10	1	-1E+10	1	-1E+10	1	-1E+10	1	-1E+10	1
4902643	8	C	09/09/2024	10:28	-134.049	43.785	0	509.80	0	4.4700	0	33.9860	0	26.934	0	505.096	0	47.0	4	15.0	4	-1E+10	1	-1E+10	1	-1E+10	1	-1E+10	1	-1E+10	1	-1E+10	1
4902643	8	C	09/09/2024	10:28	-134.049	43.785	0	530.00	0	4.3960	0	34.0020	0	26.955	0	525.084	0	43.3	4	13.8	4	-1E+10	1	-1E+10	1	-1E+10	1	-1E+10	1	-1E+10	1	-1E+10	1
4902643	8	C	09/09/2024	10:28	-134.049	43.785	0	549.80	0	4.3650	0	34.0190	0	26.972	0	544.675	0	38.4	4	12.2	4	-1E+10	1	-1E+10	1	-1E+10	1	-1E+10	1	-1E+10	1	-1E+10	1
4902643	8	C	09/09/2024	10:28	-134.049	43.785	0	569.50	0	4.3400	0	34.0470	0	26.997	0	564.164	0	32.4	4	10.3	4	-1E+10	1	-1E+10	1	-1E+10	1	-1E+10	1	-1E+10	1	-1E+10	1
4902643	8	C	09/09/2024	10:28	-134.049	43.785	0	589.60	0	4.2770	0	34.0690	0	27.021	0	584.048	0	28.9	4	9.2	4	-1E+10	1	-1E+10	1	-1E+10	1	-1E+10	1	-1E+10	1	-1E+10	1
4902643	8	C	09/09/2024	10:28	-134.049	43.785	0	609.70	0	4.2210	0	34.0880	0	27.043	0	603.929	0	25.9	4	8.2	4	-1E+10	1	-1E+10	1	-1E+10	1	-1E+10	1	-1E+10	1	-1E+10	1
4902643	8	C	09/09/2024	10:28	-134.049	43.785	0	629.90	0	4.1540	0	34.1090	0	27.066	0	623.908	0	22.6	4	7.2	4	-1E+10	1	-1E+10	1	-1E+10	1	-1E+10	1	-1E+10	1	-1E+10	1
4902643	8	C	09/09/2024	10:28	-134.049	43.785	0	649.70	0	4.0940	0	34.1280	0	27.088	0	643.489	0	20.8	4	6.6	4	-1E+10	1	-1E+10	1	-1E+10	1	-1E+10	1	-1E+10	1	-1E+10	1
4902643	8	C	09/09/2024	10:28	-134.049	43.785	0	669.70	0	4.0510	0	34.1390	0	27.101	0	663.266	0	19.3	4	6.1	4	-1E+10	1	-1E+10	1	-1E+10	1	-1E+10	1	-1E+10	1	-1E+10	1
4902643	8	C	09/09/2024	10:28	-134.049	43.785	0	690.70	0	3.9860	0	34.1540	0	27.120	0	684.030	0	17.9	4	5.6	4	-1E+10	1	-1E+10	1	-1E+10	1	-1E+10	1	-1E+10	1	-1E+10	1
4902643	8	C	09/09/2024	10:28	-134.049	43.785	0	709.60	0	3.9300	0	34.1670	0	27.136	0	702.715	0	16.1	4	5.1	4	-1E+10	1	-1E+10	1	-1E+10	1	-1E+10	1	-1E+10	1	-1E+10	1
4902643	8	C	09/09/2024	10:28	-134.049	43.785	0	730.10	0	3.8520	0	34.1890	0	27.161	0	722.981	0	13.9	4	4.4	4	-1E+10	1	-1E+10	1	-1E+10	1	-1E+10	1	-1E+10	1	-1E+10	1
4902643	8	C	09/09/2024	10:28	-134.049	43.785	0	749.80	0	3.7930	0	34.2050	0	27.180	0	742.454	0	12.7	4	4.0	4	-1E+10	1	-1E+10	1	-1E+10	1	-1E+10	1	-1E+10	1	-1E+10	1
4902643	8	C	09/09/2024	10:28	-134.049	43.785	0	770.40	0	3.7340	0	34.2200	0	27.198	0	762.815	0	11.8	4	3.7	4	-1E+10	1	-1E+10	1	-1E+10	1	-1E+10	1	-1E+10	1	-1E+10	1
4902643	8	C	09/09/2024	10:28	-134.049	43.785	0	789.70	0	3.6890	0	34.2310	0	27.211	0	781.888	0	11.1	4	3.5	4	-1E+10	1	-1E+10	1	-1E+10	1	-1E+10	1	-1E+10	1	-1E+10	1
4902643	8	C	09/09/2024	10:28	-134.049	43.785	0	809.90	0	3.6430	0	34.2430	0	27.226	0	801.850	0	10.6	4	3.3	4	-1E+10	1	-1E+10	1	-1E+10	1	-1E+10	1	-1E+10	1	-1E+10	1
4902643	8	C	09/09/2024	10:28	-134.049	43.785	0	829.90	0	3.6140	0	34.2520	0	27.236	0	821.612	0	9.9	4	3.1	4	-1E+10	1	-1E+10	1	-1E+10	1	-1E+10	1	-1E+10	1	-1E+10	1
4902643	8	C	09/09/2024	10:28	-134.049	43.785	0	849.80	0	3.5930	0	34.2610	0	27.245	0	841.273	0	9.2	4	2.9	4	-1E+10	1	-1E+10	1	-1E+10	1	-1E+10	1	-1E+10	1	-1E+10	1
4902643	8	C	09/09/2024	10:28	-134.049	43.785	0	869.60	0	3.5640	0	34.2760	0	27.260	0	860.833	0	8.5	4	2.7	4	-1E+10	1	-1E+10	1	-1E+10	1	-1E+10	1	-1E+10	1	-1E+10	1
4902643	8	C	09/09/2024	10:28	-134.049	43.785	0	889.50	0	3.5350	0	34.2870	0	27.272	0	880.491	0	8.1	4	2.5	4	-1E+10	1	-1E+10	1	-1E+10	1	-1E+10	1	-1E+10	1	-1E+10	1
4902643	8	C	09/09/2024	10:28	-134.049	43.785	0	909.50	0	3.5230	0	34.3010	0	27.284	0	900.245	0	7.5	4	2.3	4	-1E+10	1	-1E+10	1	-1E+10	1	-1E+10	1	-1E+10	1	-1E+10	1
4902643	8	C	09/09/2024	10:28	-134.049	43.785	0	929.80	0	3.5420	0	34.3220	0	27.299	0	920.294	0	7.0	4	2.2	4	-1E+10	1	-1E+10	1	-1E+10	1	-1E+10	1	-1E+10	1	-1E+10	1
4902643	8	C	09/09/2024	10:28	-134.049	43.785	0	950.00	0	3.5350	0	34.3340	0	27.310	0	940.242	0	6.9	4	2.2	4	-1E+10	1	-1E+10	1	-1E+10	1	-1E+10	1	-1E+10	1	-1E+10	1
4902643	8	C	09/09/2024	10:28	-134.049	43.785	0	969.90	0	3.4840	0	34.3420	0	27.321	0	959.892	0	6.9	4	2.2	4	-1E+10	1	-1E+10	1	-1E+10	1	-1E+10	1	-1E+10	1	-1E+10	1
4902643	8	C	09/09/2024	10:28	-134.049	43.785	0	989.70	0	3.4720	0	34.3520	0	27.330	0	979.442	0	6.9	4	2.2	4	-1E+10	1	-1E+10	1	-1E+10	1	-1E+10	1	-1E+10	1	-1E+10	1
4902643	8	C	09/09/2024	10:28	-134.049	43.785	0	1009.60	0	3.4500	0	34.3610	0	27.340	0	999.088	0	7.0	4	2.2	4	-1E+10	1	-1E+10	1	-1E+10	1	-1E+10	1	-1E+10	1	-1E+10	1
4902643	8	C	09/09/2024	10:28	-134.049	43.785	0	1029.70	0	3.4100	0	34.3710	0	27.352	0	1018.930	0	7.2	4	2.2	4	-1E+10	1	-1E+10	1	-1E+10	1	-1E+10	1	-1E+10	1	-1E+10	1
4902643	8	C	09/09/2024	10:28	-134.049	43.785	0	1049.60	0	3.3600	0	34.3810	0	27.365	0	1038.573	0	7.5	4	2.3	4	-1E+10	1	-1E+10	1	-1E+10	1	-1E+10	1	-1E+10	1	-1E+10	1
4902643	8	C	09/09/2024	10:28	-134.049	43.785	0	1069.70	0	3.3390	0	34.3960	0	27.379	0	1058.411	0	7.9	4	2.5	4	-1E+10	1	-1E+10	1	-1E+10	1	-1E+10	1	-1E+10	1	-1E+10	1
4902643	8	C	09/09/2024	10:28	-134.049	43.785	0	1089.80	0	3.2810	0	34.4070	0	27.393	0	1078.247	0	8.3	4	2.6	4	-1E+10	1	-1E+10	1	-1E+10	1	-1E+10	1	-1E+10	1	-1E+10	1
4902643	8	C	09/09/2024	10:28	-134.049	43.785	0	1109.70	0	3.2400	0	34.4150	0	27.403	0	1097.884	0	8.7	4	2.7	4	-1E+10	1	-1E+10	1	-1E+10	1	-1E+10	1	-1E+10	1	-1E+10	1
4902643	8	C	09/09/2024	10:28	-134.049	43.785	0	1129.80	0	3.1980	0	34.4210	0	27.412	0	1117.717	0	9.1	4	2.8	4	-1E+10	1	-1E+10	1	-1E+10	1	-1E+10	1	-1E+10	1	-1E+10	1
4902643	8	C	09/09/2024	10:28	-134.049	43.785	0	1149.80	0	3.1330	0	34.4300	0	27.425	0	1137.449	0	9.7	4	3.0	4	-1E+10	1	-1E+10	1	-1E+10	1	-1E+10	1	-1E+10	1	-1E+10	1
4902643	8	C	09/09/2024	10:28	-134.049	43.785	0	1169.70	0	3.1080	0	34.4370	0	27.433	0	1157.080	0	10.4	4	3.2	4	-1E+10	1	-1E+10	1	-1E+10	1	-1E+10	1	-1E+10	1	-1E+10	1
4902643	8	C	09/09/2024	10:28	-134.049	43.785	0	1189.20	0	3.0670	0	34.4420	0	27.441	0	1176.315	0	10.7	4	3.3	4	-1E+10	1	-1E+10	1	-1E+10	1	-1E+10	1	-1E+10	1	-1E+10	1
4902643	8	C	09/09/2024	10:28	-134.049	43.785	0	1210.00	0	3.0250	0	34.4480	0	27.450	0	1196.831	0	11.4	4	3.5	4	-1E+10	1	-1E+10	1	-1E+10	1	-1E+10	1	-1E+10	1	-1E+10	1
4902643	8	C	09/09/2024	10:28	-134.049	43.785	0	1229.60	0	2.9960	0	34.4550	0	27.458	0	1216.161	0	12.2	4	3.8	4	-1E+10	1	-1E+10	1	-1E+10	1	-1E+10	1	-1E+10	1	-1E+10	1
4902643	8	C	09/09/2024	10:28	-134.049	43.785	0	1249.50	0	2.9620	0	34.4610	0	27.466	0	1235.785	0	13.3	4	4.1	4	-1E+10	1	-1E+10	1	-1E+10	1	-1E+10	1	-1E+10	1	-1E+10	1
4902643	8	C	09/09/2024	10:28	-134.049	43.785	0	1269.50	0	2.9160	0	34.4680	0	27.476	0	1255.506	0	14.1	4	4.3	4	-1E+10	1	-1E+10	1	-1E+10	1	-1E+10	1	-1E+10	1	-1E+10	1
4902643	8	C	09/09/2024	10:28	-134.049	43.785	0	1289.50	0	2.8780	0	34.4730	0	27.483	0	1275.225	0	14.8	4	4.6	4	-1E+10	1	-1E+10	1	-1E+10	1	-1E+10	1	-1E+10	1	-1E+10	1
4902643	8	C	09/09/2024	10:28	-134.049	43.785	0	1310.30	0	2.8450	0	34.4780	0	27.490	0	1295.730	0	15.6	4	4.8	4	-1E+10	1	-1E+10	1	-1E+10	1	-1E+10	1	-1E+10	1	-1E+10	1
4902643	8	C	09/09/2024	10:28	-134.049	43.785	0	1329.30	0	2.8070	0	34.4820	0	27.497	0	1314.460	0	16.3	4	5.0	4	-1E+10	1	-1E+10	1	-1E+10	1	-1E+10	1	-1E+10	1	-1E+10	1
4902643	8	C	09/09/2024	10:28	-134.049	43.785	0	1349.60	0	2.7700	0	34.4870	0	27.504	0	1334.469	0	17.3	4	5.3	4	-1E+10	1	-1E+10	1	-1E+10	1	-1E+10	1	-1E+10	1	-1E+10	1
4902643	8	C	09/09/2024	10:28	-134.049	43.785	0	1370.00	0	2.7310	0	34.4920	0	27.512	0	1354.575	0	18.3	4	5.6	4	-1E+10	1	-1E+10	1	-1E+10	1	-1E+10	1	-1E+10	1	-1E+10	1
4902643	8	C	09/09/2024	10:28	-134.049	43.785	0	1390.00	0	2.6930	0	34.4970	0	27.519	0	1374.285	0	19.5	4	6.0	4	-1E+10	1	-1E+10	1	-1E+10	1	-1E+10	1	-1E+10	1	-1E+10	1
4902643	8	C	09/09/2024	10:28	-134.049	43.785	0	1409.90	0	2.6650	0	34.5020	0	27.526	0	1393.894	0	20.5	4	6.3	4	-1E+10	1	-1E+10	1	-1E+10	1	-1E+10	1	-1E+10	1	-1E+10	1
4902643	8	C	09/09/2024	10:28	-134.049	43.785	0	1430.00	0	2.6340	0	34.5050	0	27.531	0	1413.698	0	21.3	4	6.5	4	-1E+10	1	-1E+10	1	-1E+10	1	-1E+10	1	-1E+10	1	-1E+10	1
4902643	8	C	09/09/2024	10:28	-134.049	43.785	0	1449.90	0	2.5940	0	34.5090	0	27.538	0	1433.304	0	22.2	4	6.8	4	-1E+10	1	-1E+10	1	-1E+10	1	-1E+10	1	-1E+10	1	-1E+10	1
4902643	8	C	09/09/2024	10:28	-134.049	43.785	0	1469.00	0	2.5600	0	34.5120	0	27.543	0	1452.120	0	23.1	4	7.1	4	-1E+10	1	-1E+10	1	-1E+10	1	-1E+10	1	-1E+10	1	-1E+10	1
4902643	8	C	09/09/2024	10:28	-134.049	43.785	0	1489.70	0	2.5230	0	34.5160	0	27.550	0	1472.510	0	24.4	4	7.4	4	-1E+10	1	-1E+10	1	-1E+10	1	-1E+10	1	-1E+10	1	-1E+10	1
4902643	8	C	09/09/2024	10:28	-134.049	43.785	0	1509.90	0	2.4880	0	34.5210	0	27.557	0	1492.405	0	25.6	4	7.8	4	-1E+10	1	-1E+10	1	-1E+10	1	-1E+10	1	-1E+10	1	-1E+10	1
4902643	8	C	09/09/2024	10:28	-134.049	43.785	0	1529.90	0	2.4580	0	34.5250	0	27.562	0	1512.102	0	26.9	4	8.2	4	-1E+10	1	-1E+10	1	-1E+10	1	-1E+10	1	-1E+10	1	-1E+10	1
4902643	8	C	09/09/2024	10:28	-134.049	43.785	0	1549.90	0	2.4200	0	34.5290	0	27.569	0	1531.797	0	28.2	4	8.6	4	-1E+10	1	-1E+10	1	-1E+10	1	-1E+10	1	-1E+10	1	-1E+10	1
4902643	8	C	09/09/2024	10:28	-134.049	43.785	0	1569.70	0	2.3880	0	34.5330	0	27.575	0	1551.293	0	29.4	4	8.9	4	-1E+10	1	-1E+10	1	-1E+10	1	-1E+10	1	-1E+10	1	-1E+10	1
4902643	8	C	09/09/2024	10:28	-134.049	43.785	0	1589.70	0	2.3570	0	34.5370	0	27.581	0	1570.985	0	30.8	4	9.4	4	-1E+10	1	-1E+10	1	-1E+10	1	-1E+10	1	-1E+10	1	-1E+10	1
4902643	8	C	09/09/2024	10:28	-134.049	43.785	0	1609.80	0	2.3310	0	34.5410	0	27.586	0	1590.773	0	32.0	4	9.7	4	-1E+10	1	-1E+10	1	-1E+10	1	-1E+10	1	-1E+10	1	-1E+10	1
4902643	8	C	09/09/2024	10:28	-134.049	43.785	0	1629.70	0	2.3000	0	34.5440	0	27.591	0	1610.362	0	33.4	4	10.1	4	-1E+10	1	-1E+10	1	-1E+10	1	-1E+10	1	-1E+10	1	-1E+10	1
4902643	8	C	09/09/2024	10:28	-134.049	43.785	0	1650.70	0	2.2650	0	34.5480	0	27.597	0	1631.032	0	34.9	4	10.6	4	-1E+10	1	-1E+10	1	-1E+10	1	-1E+10	1	-1E+10	1	-1E+10	1
4902643	8	C	09/09/2024	10:28	-134.049	43.785	0	1669.90	0	2.2460	0	34.5510	0	27.601	0	1649.928	0	35.9	4	10.9	4	-1E+10	1	-1E+10	1	-1E+10	1	-1E+10	1	-1E+10	1	-1E+10	1
4902643	8	C	09/09/2024	10:28	-134.049	43.785	0	1689.70	0	2.2260	0	34.5540	0	27.605	0	1669.413	0	37.2	4	11.3	4	-1E+10	1	-1E+10	1	-1E+10	1	-1E+10	1	-1E+10	1	-1E+10	1
4902643	8	C	09/09/2024	10:28	-134.049	43.785	0	1709.60	0	2.1960	0	34.5580	0	27.611	0	1688.995	0	38.5	4	11.7	4	-1E+10	1	-1E+10	1	-1E+10	1	-1E+10	1	-1E+10	1	-1E+10	1
4902643	8	C	09/09/2024	10:28	-134.049	43.785	0	1730.20	0	2.1730	0	34.5610	0	27.616	0	1709.264	0	39.7	4	12.0	4	-1E+10	1	-1E+10	1	-1E+10	1	-1E+10	1	-1E+10	1	-1E+10	1
4902643	8	C	09/09/2024	10:28	-134.049	43.785	0	1749.80	0	2.1560	0	34.5640	0	27.619	0	1728.547	0	40.8	4	12.3	4	-1E+10	1	-1E+10	1	-1E+10	1	-1E+10	1	-1E+10	1	-1E+10	1
4902643	8	C	09/09/2024	10:28	-134.049	43.785	0	1769.90	0	2.1350	0	34.5670	0	27.624	0	1748.320	0	42.2	4	12.8	4	-1E+10	1	-1E+10	1	-1E+10	1	-1E+10	1	-1E+10	1	-1E+10	1
4902643	8	C	09/09/2024	10:28	-134.049	43.785	0	1789.90	0	2.1110	0	34.5700	0	27.628	0	1767.993	0	43.4	4	13.1	4	-1E+10	1	-1E+10	1	-1E+10	1	-1E+10	1	-1E+10	1	-1E+10	1
4902643	8	C	09/09/2024	10:28	-134.049	43.785	0	1809.60	0	2.0960	0	34.5730	0	27.632	0	1787.369	0	44.4	4	13.4	4	-1E+10	1	-1E+10	1	-1E+10	1	-1E+10	1	-1E+10	1	-1E+10	1
4902643	8	C	09/09/2024	10:28	-134.049	43.785	0	1829.80	0	2.0790	0	34.5760	0	27.636	0	1807.235	0	45.7	4	13.8	4	-1E+10	1	-1E+10	1	-1E+10	1	-1E+10	1	-1E+10	1	-1E+10	1
4902643	8	C	09/09/2024	10:28	-134.049	43.785	0	1850.10	0	2.0610	0	34.5790	0	27.639	0	1827.198	0	47.0	4	14.2	4	-1E+10	1	-1E+10	1	-1E+10	1	-1E+10	1	-1E+10	1	-1E+10	1
4902643	8	C	09/09/2024	10:28	-134.049	43.785	0	1869.90	0	2.0440	0	34.5820	0	27.643	0	1846.667	0	48.1	4	14.5	4	-1E+10	1	-1E+10	1	-1E+10	1	-1E+10	1	-1E+10	1	-1E+10	1
4902643	8	C	09/09/2024	10:28	-134.049	43.785	0	1889.80	0	2.0300	0	34.5830	0	27.645	0	1866.232	0	49.3	4	14.9	4	-1E+10	1	-1E+10	1	-1E+10	1	-1E+10	1	-1E+10	1	-1E+10	1
4902643	8	C	09/09/2024	10:28	-134.049	43.785	0	1909.70	0	2.0090	0	34.5860	0	27.649	0	1885.796	0	50.9	4	15.3	4	-1E+10	1	-1E+10	1	-1E+10	1	-1E+10	1	-1E+10	1	-1E+10	1
4902643	8	C	09/09/2024	10:28	-134.049	43.785	0	1929.70	0	1.9900	0	34.5890	0	27.653	0	1905.456	0	52.4	4	15.8	4	-1E+10	1	-1E+10	1	-1E+10	1	-1E+10	1	-1E+10	1	-1E+10	1
4902643	8	C	09/09/2024	10:28	-134.049	43.785	0	1949.70	0	1.9780	0	34.5910	0	27.656	0	1925.114	0	53.4	4	16.1	4	-1E+10	1	-1E+10	1	-1E+10	1	-1E+10	1	-1E+10	1	-1E+10	1
4902643	8	C	09/09/2024	10:28	-134.049	43.785	0	1970.20	0	1.9620	0	34.5930	0	27.659	0	1945.262	0	54.7	4	16.5	4	-1E+10	1	-1E+10	1	-1E+10	1	-1E+10	1	-1E+10	1	-1E+10	1
4902643	8	C	09/09/2024	10:28	-134.049	43.785	0	1989.70	0	1.9490	0	34.5950	0	27.662	0	1964.426	0	55.7	4	16.8	4	-1E+10	1	-1E+10	1	-1E+10	1	-1E+10	1	-1E+10	1	-1E+10	1
4902643	8	C	09/09/2024	10:28	-134.049	43.785	0	2009.90	0	1.9380	0	34.5970	4	27.664	0	1984.275	0	56.6	4	17.0	4	-1E+10	1	-1E+10	1	-1E+10	1	-1E+10	1	-1E+10	1	-1E+10	1
4902643	8	C	09/09/2024	10:28	-134.049	43.785	0	2029.70	0	1.9290	0	34.5990	4	27.667	0	2003.730	0	57.4	4	17.3	4	-1E+10	1	-1E+10	1	-1E+10	1	-1E+10	1	-1E+10	1	-1E+10	1
4902643	8	C	09/09/2024	10:28	-134.049	43.785	0	2049.80	0	1.9200	0	34.6000	4	27.668	0	2023.477	0	58.2	4	17.5	4	-1E+10	1	-1E+10	1	-1E+10	1	-1E+10	1	-1E+10	1	-1E+10	1
4902643	8	C	09/09/2024	10:28	-134.049	43.785	0	2069.90	0	1.9070	0	34.6020	4	27.671	0	2043.223	0	59.1	4	17.8	4	-1E+10	1	-1E+10	1	-1E+10	1	-1E+10	1	-1E+10	1	-1E+10	1
4902643	8	C	09/09/2024	10:28	-134.049	43.785	0	2089.80	0	1.8970	0	34.6030	4	27.673	0	2062.770	0	59.8	4	18.0	4	-1E+10	1	-1E+10	1	-1E+10	1	-1E+10	1	-1E+10	1	-1E+10	1
4902643	8	C	09/09/2024	10:28	-134.049	43.785	0	2109.70	0	1.8910	0	34.6050	4	27.675	0	2082.316	0	60.4	4	18.2	4	-1E+10	1	-1E+10	1	-1E+10	1	-1E+10	1	-1E+10	1	-1E+10	1
4902643	8	C	09/09/2024	10:28	-134.049	43.785	0	2129.90	0	1.8840	0	34.6060	4	27.676	0	2102.154	0	61.0	4	18.3	4	-1E+10	1	-1E+10	1	-1E+10	1	-1E+10	1	-1E+10	1	-1E+10	1
4902643	8	C	09/09/2024	10:28	-134.049	43.785	0	2150.60	0	1.8760	0	34.6070	4	27.678	0	2122.482	0	61.7	4	18.5	4	-1E+10	1	-1E+10	1	-1E+10	1	-1E+10	1	-1E+10	1	-1E+10	1
4902643	8	C	09/09/2024	10:28	-134.049	43.785	0	2169.90	0	1.8700	0	34.6080	4	27.679	0	2141.433	0	62.3	4	18.7	4	-1E+10	1	-1E+10	1	-1E+10	1	-1E+10	1	-1E+10	1	-1E+10	1
4902643	8	C	09/09/2024	10:28	-134.049	43.785	0	2189.60	0	1.8630	0	34.6090	4	27.681	0	2160.775	0	63.0	4	18.9	4	-1E+10	1	-1E+10	1	-1E+10	1	-1E+10	1	-1E+10	1	-1E+10	1
4902643	8	C	09/09/2024	10:28	-134.049	43.785	0	2209.50	0	1.8540	0	34.6110	4	27.683	0	2180.312	0	63.8	4	19.2	4	-1E+10	1	-1E+10	1	-1E+10	1	-1E+10	1	-1E+10	1	-1E+10	1
4902643	8	C	09/09/2024	10:28	-134.049	43.785	0	2229.50	0	1.8450	0	34.6120	4	27.685	0	2199.945	0	64.6	4	19.4	4	-1E+10	1	-1E+10	1	-1E+10	1	-1E+10	1	-1E+10	1	-1E+10	1
4902643	8	C	09/09/2024	10:28	-134.049	43.785	0	2249.80	0	1.8360	0	34.6130	4	27.686	0	2219.870	0	65.3	4	19.6	4	-1E+10	1	-1E+10	1	-1E+10	1	-1E+10	1	-1E+10	1	-1E+10	1
4902643	8	C	09/09/2024	10:28	-134.049	43.785	0	2269.90	0	1.8290	0	34.6150	4	27.688	0	2239.598	0	65.9	4	19.8	4	-1E+10	1	-1E+10	1	-1E+10	1	-1E+10	1	-1E+10	1	-1E+10	1
4902643	8	C	09/09/2024	10:28	-134.049	43.785	0	2289.80	0	1.8230	0	34.6160	4	27.690	0	2259.127	0	66.6	4	20.0	4	-1E+10	1	-1E+10	1	-1E+10	1	-1E+10	1	-1E+10	1	-1E+10	1
4902643	8	C	09/09/2024	10:28	-134.049	43.785	0	2310.40	0	1.8190	0	34.6170	4	27.691	0	2279.342	0	67.2	4	20.2	4	-1E+10	1	-1E+10	1	-1E+10	1	-1E+10	1	-1E+10	1	-1E+10	1
4902643	8	C	09/09/2024	10:28	-134.049	43.785	0	2329.70	0	1.8130	0	34.6180	4	27.692	0	2298.279	0	67.8	4	20.4	4	-1E+10	1	-1E+10	1	-1E+10	1	-1E+10	1	-1E+10	1	-1E+10	1
4902643	8	C	09/09/2024	10:28	-134.049	43.785	0	2349.70	0	1.8080	0	34.6180	4	27.693	0	2317.901	0	68.4	4	20.5	4	-1E+10	1	-1E+10	1	-1E+10	1	-1E+10	1	-1E+10	1	-1E+10	1
4902643	8	C	09/09/2024	10:28	-134.049	43.785	0	2369.60	0	1.8020	0	34.6190	4	27.694	0	2337.424	0	69.2	4	20.8	4	-1E+10	1	-1E+10	1	-1E+10	1	-1E+10	1	-1E+10	1	-1E+10	1
4902643	8	C	09/09/2024	10:28	-134.049	43.785	0	2389.70	0	1.7930	0	34.6210	4	27.697	0	2357.140	0	70.1	4	21.0	4	-1E+10	1	-1E+10	1	-1E+10	1	-1E+10	1	-1E+10	1	-1E+10	1
4902643	8	C	09/09/2024	10:28	-134.049	43.785	0	2410.00	0	1.7820	0	34.6220	4	27.698	0	2377.051	0	71.2	4	21.3	4	-1E+10	1	-1E+10	1	-1E+10	1	-1E+10	1	-1E+10	1	-1E+10	1
4902643	8	C	09/09/2024	10:28	-134.049	43.785	0	2429.90	0	1.7730	0	34.6240	4	27.701	0	2396.568	0	72.1	4	21.6	4	-1E+10	1	-1E+10	1	-1E+10	1	-1E+10	1	-1E+10	1	-1E+10	1
4902643	8	C	09/09/2024	10:28	-134.049	43.785	0	2449.60	0	1.7670	0	34.6250	4	27.702	0	2415.887	0	72.8	4	21.8	4	-1E+10	1	-1E+10	1	-1E+10	1	-1E+10	1	-1E+10	1	-1E+10	1
4902643	8	C	09/09/2024	10:28	-134.049	43.785	0	2469.70	0	1.7590	0	34.6260	4	27.704	0	2435.597	0	73.8	4	22.1	4	-1E+10	1	-1E+10	1	-1E+10	1	-1E+10	1	-1E+10	1	-1E+10	1
4902643	8	C	09/09/2024	10:28	-134.049	43.785	0	2489.90	0	1.7510	0	34.6270	4	27.705	0	2455.402	0	74.6	4	22.4	4	-1E+10	1	-1E+10	1	-1E+10	1	-1E+10	1	-1E+10	1	-1E+10	1
4902643	8	C	09/09/2024	10:28	-134.049	43.785	0	2509.80	0	1.7430	0	34.6280	4	27.707	0	2474.912	0	75.6	4	22.6	4	-1E+10	1	-1E+10	1	-1E+10	1	-1E+10	1	-1E+10	1	-1E+10	1
4902643	8	C	09/09/2024	10:28	-134.049	43.785	0	2530.10	0	1.7340	0	34.6290	4	27.708	0	2494.812	0	76.4	4	22.9	4	-1E+10	1	-1E+10	1	-1E+10	1	-1E+10	1	-1E+10	1	-1E+10	1
4902643	8	C	09/09/2024	10:28	-134.049	43.785	0	2549.70	0	1.7280	0	34.6300	4	27.710	0	2514.024	0	77.1	4	23.1	4	-1E+10	1	-1E+10	1	-1E+10	1	-1E+10	1	-1E+10	1	-1E+10	1
4902643	8	C	09/09/2024	10:28	-134.049	43.785	0	2569.60	0	1.7220	0	34.6310	4	27.711	0	2533.529	0	78.0	4	23.4	4	-1E+10	1	-1E+10	1	-1E+10	1	-1E+10	1	-1E+10	1	-1E+10	1
4902643	8	C	09/09/2024	10:28	-134.049	43.785	0	2589.50	0	1.7140	0	34.6330	4	27.713	0	2553.032	0	78.8	4	23.6	4	-1E+10	1	-1E+10	1	-1E+10	1	-1E+10	1	-1E+10	1	-1E+10	1
4902643	8	C	09/09/2024	10:28	-134.049	43.785	0	2609.70	0	1.7080	0	34.6330	4	27.714	0	2572.827	0	79.6	4	23.8	4	-1E+10	1	-1E+10	1	-1E+10	1	-1E+10	1	-1E+10	1	-1E+10	1
4902643	8	C	09/09/2024	10:28	-134.049	43.785	0	2629.90	0	1.7020	0	34.6340	4	27.715	0	2592.620	0	80.4	4	24.1	4	-1E+10	1	-1E+10	1	-1E+10	1	-1E+10	1	-1E+10	1	-1E+10	1
4902643	8	C	09/09/2024	10:28	-134.049	43.785	0	2650.50	0	1.6940	0	34.6350	4	27.717	0	2612.803	0	81.2	4	24.3	4	-1E+10	1	-1E+10	1	-1E+10	1	-1E+10	1	-1E+10	1	-1E+10	1
4902643	8	C	09/09/2024	10:28	-134.049	43.785	0	2670.40	0	1.6890	0	34.6360	4	27.718	0	2632.298	0	81.8	4	24.5	4	-1E+10	1	-1E+10	1	-1E+10	1	-1E+10	1	-1E+10	1	-1E+10	1
4902643	8	C	09/09/2024	10:28	-134.049	43.785	0	2690.00	0	1.6850	0	34.6370	4	27.719	0	2651.498	0	82.5	4	24.7	4	-1E+10	1	-1E+10	1	-1E+10	1	-1E+10	1	-1E+10	1	-1E+10	1
4902643	8	C	09/09/2024	10:28	-134.049	43.785	0	2710.20	0	1.6810	0	34.6380	4	27.721	0	2671.284	0	83.1	4	24.9	4	-1E+10	1	-1E+10	1	-1E+10	1	-1E+10	1	-1E+10	1	-1E+10	1
4902643	8	C	09/09/2024	10:28	-134.049	43.785	0	2730.00	0	1.6750	0	34.6380	4	27.721	0	2690.676	0	83.8	4	25.1	4	-1E+10	1	-1E+10	1	-1E+10	1	-1E+10	1	-1E+10	1	-1E+10	1
4902643	8	C	09/09/2024	10:28	-134.049	43.785	0	2750.00	0	1.6690	0	34.6390	4	27.723	0	2710.263	0	84.6	4	25.3	4	-1E+10	1	-1E+10	1	-1E+10	1	-1E+10	1	-1E+10	1	-1E+10	1
4902643	8	C	09/09/2024	10:28	-134.049	43.785	0	2770.30	0	1.6620	0	34.6400	4	27.724	0	2730.141	0	85.4	4	25.5	4	-1E+10	1	-1E+10	1	-1E+10	1	-1E+10	1	-1E+10	1	-1E+10	1
4902643	8	C	09/09/2024	10:28	-134.049	43.785	0	2790.40	0	1.6570	0	34.6410	4	27.725	0	2749.822	0	86.1	4	25.7	4	-1E+10	1	-1E+10	1	-1E+10	1	-1E+10	1	-1E+10	1	-1E+10	1
4902643	8	C	09/09/2024	10:28	-134.049	43.785	0	2809.80	0	1.6530	0	34.6420	4	27.726	0	2768.816	0	86.8	4	25.9	4	-1E+10	1	-1E+10	1	-1E+10	1	-1E+10	1	-1E+10	1	-1E+10	1
4902643	8	C	09/09/2024	10:28	-134.049	43.785	0	2830.00	0	1.6480	0	34.6430	4	27.728	0	2788.591	0	87.5	4	26.2	4	-1E+10	1	-1E+10	1	-1E+10	1	-1E+10	1	-1E+10	1	-1E+10	1
4902643	8	C	09/09/2024	10:28	-134.049	43.785	0	2849.80	0	1.6430	0	34.6440	4	27.729	0	2807.973	0	88.3	4	26.4	4	-1E+10	1	-1E+10	1	-1E+10	1	-1E+10	1	-1E+10	1	-1E+10	1
4902643	8	C	09/09/2024	10:28	-134.049	43.785	0	2869.90	0	1.6370	0	34.6440	4	27.730	0	2827.646	0	89.0	4	26.6	4	-1E+10	1	-1E+10	1	-1E+10	1	-1E+10	1	-1E+10	1	-1E+10	1
4902643	8	C	09/09/2024	10:28	-134.049	43.785	0	2889.70	0	1.6330	0	34.6450	4	27.731	0	2847.024	0	89.6	4	26.8	4	-1E+10	1	-1E+10	1	-1E+10	1	-1E+10	1	-1E+10	1	-1E+10	1
4902643	8	C	09/09/2024	10:28	-134.049	43.785	0	2909.70	0	1.6280	0	34.6460	4	27.732	0	2866.597	0	90.4	4	27.0	4	-1E+10	1	-1E+10	1	-1E+10	1	-1E+10	1	-1E+10	1	-1E+10	1
4902643	8	C	09/09/2024	10:28	-134.049	43.785	0	2929.80	0	1.6240	0	34.6460	4	27.733	0	2886.265	0	90.9	4	27.2	4	-1E+10	1	-1E+10	1	-1E+10	1	-1E+10	1	-1E+10	1	-1E+10	1
4902643	8	C	09/09/2024	10:28	-134.049	43.785	0	2949.60	0	1.6180	0	34.6470	4	27.734	0	2905.638	0	91.7	4	27.4	4	-1E+10	1	-1E+10	1	-1E+10	1	-1E+10	1	-1E+10	1	-1E+10	1
4902643	8	C	09/09/2024	10:28	-134.049	43.785	0	2970.00	0	1.6140	0	34.6480	4	27.735	0	2925.596	0	92.4	4	27.6	4	-1E+10	1	-1E+10	1	-1E+10	1	-1E+10	1	-1E+10	1	-1E+10	1
4902643	8	C	09/09/2024	10:28	-134.049	43.785	0	2989.90	0	1.6100	0	34.6490	4	27.736	0	2945.064	0	93.2	4	27.8	4	-1E+10	1	-1E+10	1	-1E+10	1	-1E+10	1	-1E+10	1	-1E+10	1
4902643	8	C	09/09/2024	10:28	-134.049	43.785	0	3010.00	0	1.6070	0	34.6500	4	27.737	0	2964.725	0	94.0	4	28.1	4	-1E+10	1	-1E+10	1	-1E+10	1	-1E+10	1	-1E+10	1	-1E+10	1
4902643	8	C	09/09/2024	10:28	-134.049	43.785	0	3030.00	0	1.6020	0	34.6500	4	27.738	0	2984.287	0	94.8	4	28.3	4	-1E+10	1	-1E+10	1	-1E+10	1	-1E+10	1	-1E+10	1	-1E+10	1
4902643	8	C	09/09/2024	10:28	-134.049	43.785	0	3050.20	0	1.5990	0	34.6510	4	27.739	0	3004.042	0	95.4	4	28.5	4	-1E+10	1	-1E+10	1	-1E+10	1	-1E+10	1	-1E+10	1	-1E+10	1
4902643	8	C	09/09/2024	10:28	-134.049	43.785	0	3070.00	0	1.5950	0	34.6520	4	27.740	0	3023.405	0	96.0	4	28.7	4	-1E+10	1	-1E+10	1	-1E+10	1	-1E+10	1	-1E+10	1	-1E+10	1
4902643	8	C	09/09/2024	10:28	-134.049	43.785	0	3090.00	0	1.5910	0	34.6530	4	27.742	0	3042.961	0	96.5	4	28.8	4	-1E+10	1	-1E+10	1	-1E+10	1	-1E+10	1	-1E+10	1	-1E+10	1
4902643	8	C	09/09/2024	10:28	-134.049	43.785	0	3110.20	0	1.5880	0	34.6530	4	27.742	0	3062.711	0	97.0	4	29.0	4	-1E+10	1	-1E+10	1	-1E+10	1	-1E+10	1	-1E+10	1	-1E+10	1
4902643	8	C	09/09/2024	10:28	-134.049	43.785	0	3130.10	0	1.5830	0	34.6530	4	27.742	0	3082.166	0	97.7	4	29.2	4	-1E+10	1	-1E+10	1	-1E+10	1	-1E+10	1	-1E+10	1	-1E+10	1
4902643	8	C	09/09/2024	10:28	-134.049	43.785	0	3150.40	0	1.5790	0	34.6540	4	27.744	0	3102.010	0	98.1	4	29.3	4	-1E+10	1	-1E+10	1	-1E+10	1	-1E+10	1	-1E+10	1	-1E+10	1
4902643	8	C	09/09/2024	10:28	-134.049	43.785	0	3169.70	0	1.5780	0	34.6540	4	27.744	0	3120.875	0	98.5	4	29.4	4	-1E+10	1	-1E+10	1	-1E+10	1	-1E+10	1	-1E+10	1	-1E+10	1
4902643	8	C	09/09/2024	10:28	-134.049	43.785	0	3189.80	0	1.5750	0	34.6550	4	27.745	0	3140.521	0	99.0	4	29.5	4	-1E+10	1	-1E+10	1	-1E+10	1	-1E+10	1	-1E+10	1	-1E+10	1
4902643	8	C	09/09/2024	10:28	-134.049	43.785	0	3209.80	0	1.5720	0	34.6550	4	27.745	0	3160.067	0	99.5	4	29.7	4	-1E+10	1	-1E+10	1	-1E+10	1	-1E+10	1	-1E+10	1	-1E+10	1
4902643	8	C	09/09/2024	10:28	-134.049	43.785	0	3229.60	0	1.5690	0	34.6560	4	27.746	0	3179.415	0	100.1	4	29.9	4	-1E+10	1	-1E+10	1	-1E+10	1	-1E+10	1	-1E+10	1	-1E+10	1
4902643	8	C	09/09/2024	10:28	-134.049	43.785	0	3250.20	0	1.5670	0	34.6560	4	27.747	0	3199.544	0	100.6	4	30.0	4	-1E+10	1	-1E+10	1	-1E+10	1	-1E+10	1	-1E+10	1	-1E+10	1
4902643	8	C	09/09/2024	10:28	-134.049	43.785	0	3270.10	0	1.5650	0	34.6570	4	27.748	0	3218.987	0	101.0	4	30.1	4	-1E+10	1	-1E+10	1	-1E+10	1	-1E+10	1	-1E+10	1	-1E+10	1
4902643	8	C	09/09/2024	10:28	-134.049	43.785	0	3289.90	0	1.5640	0	34.6570	4	27.748	0	3238.330	0	101.5	4	30.3	4	-1E+10	1	-1E+10	1	-1E+10	1	-1E+10	1	-1E+10	1	-1E+10	1
4902643	8	C	09/09/2024	10:28	-134.049	43.785	0	3310.00	0	1.5620	0	34.6580	4	27.749	0	3257.965	0	102.0	4	30.4	4	-1E+10	1	-1E+10	1	-1E+10	1	-1E+10	1	-1E+10	1	-1E+10	1
4902643	8	C	09/09/2024	10:28	-134.049	43.785	0	3330.00	0	1.5600	0	34.6580	4	27.749	0	3277.500	0	102.4	4	30.6	4	-1E+10	1	-1E+10	1	-1E+10	1	-1E+10	1	-1E+10	1	-1E+10	1
4902643	8	C	09/09/2024	10:28	-134.049	43.785	0	3350.10	0	1.5590	0	34.6590	4	27.750	0	3297.131	0	102.8	4	30.7	4	-1E+10	1	-1E+10	1	-1E+10	1	-1E+10	1	-1E+10	1	-1E+10	1
4902643	8	C	09/09/2024	10:28	-134.049	43.785	0	3370.30	0	1.5580	0	34.6590	4	27.751	0	3316.858	0	103.3	4	30.8	4	-1E+10	1	-1E+10	1	-1E+10	1	-1E+10	1	-1E+10	1	-1E+10	1
4902643	8	C	09/09/2024	10:28	-134.049	43.785	0	3390.40	0	1.5570	0	34.6590	4	27.751	0	3336.486	0	103.7	4	30.9	4	-1E+10	1	-1E+10	1	-1E+10	1	-1E+10	1	-1E+10	1	-1E+10	1
4902643	8	C	09/09/2024	10:28	-134.049	43.785	0	3410.00	0	1.5550	0	34.6600	4	27.752	0	3355.624	0	104.1	4	31.1	4	-1E+10	1	-1E+10	1	-1E+10	1	-1E+10	1	-1E+10	1	-1E+10	1
4902643	8	C	09/09/2024	10:28	-134.049	43.785	0	3429.90	0	1.5550	0	34.6610	4	27.753	0	3375.053	0	104.4	4	31.1	4	-1E+10	1	-1E+10	1	-1E+10	1	-1E+10	1	-1E+10	1	-1E+10	1
4902643	8	C	09/09/2024	10:28	-134.049	43.785	0	3449.50	0	1.5540	0	34.6610	4	27.753	0	3394.187	0	104.8	4	31.3	4	-1E+10	1	-1E+10	1	-1E+10	1	-1E+10	1	-1E+10	1	-1E+10	1
4902643	8	C	09/09/2024	10:28	-134.049	43.785	0	3470.00	0	1.5530	0	34.6620	4	27.754	0	3414.198	0	105.2	4	31.4	4	-1E+10	1	-1E+10	1	-1E+10	1	-1E+10	1	-1E+10	1	-1E+10	1
4902643	8	C	09/09/2024	10:28	-134.049	43.785	0	3490.30	0	1.5520	0	34.6620	4	27.754	0	3434.013	0	105.5	4	31.5	4	-1E+10	1	-1E+10	1	-1E+10	1	-1E+10	1	-1E+10	1	-1E+10	1
4902643	8	C	09/09/2024	10:28	-134.049	43.785	0	3510.00	0	1.5520	0	34.6630	4	27.755	0	3453.239	0	105.8	4	31.6	4	-1E+10	1	-1E+10	1	-1E+10	1	-1E+10	1	-1E+10	1	-1E+10	1
4902643	8	C	09/09/2024	10:28	-134.049	43.785	0	3530.20	0	1.5520	0	34.6630	4	27.755	0	3472.952	0	106.2	4	31.7	4	-1E+10	1	-1E+10	1	-1E+10	1	-1E+10	1	-1E+10	1	-1E+10	1
4902643	8	C	09/09/2024	10:28	-134.049	43.785	0	3550.00	0	1.5510	0	34.6640	4	27.756	0	3492.273	0	106.5	4	31.8	4	-1E+10	1	-1E+10	1	-1E+10	1	-1E+10	1	-1E+10	1	-1E+10	1
4902643	8	C	09/09/2024	10:28	-134.049	43.785	0	3569.70	0	1.5510	0	34.6640	4	27.757	0	3511.495	0	106.7	4	31.8	4	-1E+10	1	-1E+10	1	-1E+10	1	-1E+10	1	-1E+10	1	-1E+10	1
4902643	8	C	09/09/2024	10:28	-134.049	43.785	0	3589.70	0	1.5510	0	34.6640	4	27.757	0	3531.008	0	107.0	4	31.9	4	-1E+10	1	-1E+10	1	-1E+10	1	-1E+10	1	-1E+10	1	-1E+10	1
4902643	8	C	09/09/2024	10:28	-134.049	43.785	0	3609.90	0	1.5520	0	34.6650	4	27.758	0	3550.714	0	107.2	4	32.0	4	-1E+10	1	-1E+10	1	-1E+10	1	-1E+10	1	-1E+10	1	-1E+10	1
4902643	8	C	09/09/2024	10:28	-134.049	43.785	0	3630.20	0	1.5520	0	34.6650	4	27.758	0	3570.516	0	107.3	4	32.0	4	-1E+10	1	-1E+10	1	-1E+10	1	-1E+10	1	-1E+10	1	-1E+10	1
4902643	8	C	09/09/2024	10:28	-134.049	43.785	0	3649.80	0	1.5530	0	34.6650	4	27.758	0	3589.633	0	107.5	4	32.1	4	-1E+10	1	-1E+10	1	-1E+10	1	-1E+10	1	-1E+10	1	-1E+10	1
4902643	8	C	09/09/2024	10:28	-134.049	43.785	0	3670.10	0	1.5540	0	34.6650	4	27.758	0	3609.431	0	107.6	4	32.1	4	-1E+10	1	-1E+10	1	-1E+10	1	-1E+10	1	-1E+10	1	-1E+10	1
4902643	8	C	09/09/2024	10:28	-134.049	43.785	0	3690.20	0	1.5550	0	34.6660	4	27.759	0	3629.033	0	107.7	4	32.1	4	-1E+10	1	-1E+10	1	-1E+10	1	-1E+10	1	-1E+10	1	-1E+10	1
4902643	8	C	09/09/2024	10:28	-134.049	43.785	0	3710.10	0	1.5560	0	34.6660	4	27.759	0	3648.438	0	107.9	4	32.2	4	-1E+10	1	-1E+10	1	-1E+10	1	-1E+10	1	-1E+10	1	-1E+10	1
4902643	8	C	09/09/2024	10:28	-134.049	43.785	0	3730.10	0	1.5570	0	34.6660	4	27.759	0	3667.938	0	108.0	4	32.2	4	-1E+10	1	-1E+10	1	-1E+10	1	-1E+10	1	-1E+10	1	-1E+10	1
4902643	8	C	09/09/2024	10:28	-134.049	43.785	0	3750.20	0	1.5570	0	34.6670	4	27.760	0	3687.534	0	108.1	4	32.2	4	-1E+10	1	-1E+10	1	-1E+10	1	-1E+10	1	-1E+10	1	-1E+10	1
4902643	8	C	09/09/2024	10:28	-134.049	43.785	0	3769.80	0	1.5580	0	34.6670	4	27.760	0	3706.642	0	108.1	4	32.3	4	-1E+10	1	-1E+10	1	-1E+10	1	-1E+10	1	-1E+10	1	-1E+10	1
4902643	8	C	09/09/2024	10:28	-134.049	43.785	0	3787.00	0	1.5590	0	34.6670	4	27.760	0	3723.408	0	107.6	4	32.1	4	-1E+10	1	-1E+10	1	-1E+10	1	-1E+10	1	-1E+10	1	-1E+10	1
4902643	8	C	09/09/2024	10:28	-134.049	43.785	0																										
4902643	9	C	09/19/2024	09:33	-134.053	43.766	0	1.50	0	18.3905	0	32.7090	0	23.424	0	1.488	0	221.0	4	93.7	4	-1E+10	1	-1E+10	1	-1E+10	1	-1E+10	1	-1E+10	1	-1E+10	1
4902643	9	C	09/19/2024	09:33	-134.053	43.766	0	1.60	0	18.3820	0	32.7150	0	23.431	0	1.587	0	221.0	4	93.7	4	-1E+10	1	-1E+10	1	-1E+10	1	-1E+10	1	-1E+10	1	-1E+10	1
4902643	9	C	09/19/2024	09:33	-134.053	43.766	0	1.70	0	18.3890	0	32.7100	0	23.425	0	1.686	0	221.0	4	93.7	4	-1E+10	1	-1E+10	1	-1E+10	1	-1E+10	1	-1E+10	1	-1E+10	1
4902643	9	C	09/19/2024	09:33	-134.053	43.766	0	1.80	0	18.3870	0	32.7090	0	23.425	0	1.786	0	221.0	4	93.7	4	-1E+10	1	-1E+10	1	-1E+10	1	-1E+10	1	-1E+10	1	-1E+10	1
4902643	9	C	09/19/2024	09:33	-134.053	43.766	0	1.90	0	18.3850	0	32.7117	0	23.427	0	1.885	0	220.9	4	93.7	4	-1E+10	1	-1E+10	1	-1E+10	1	-1E+10	1	-1E+10	1	-1E+10	1
4902643	9	C	09/19/2024	09:33	-134.053	43.766	0	2.10	0	18.3880	0	32.7080	0	23.424	0	2.083	0	220.9	4	93.6	4	-1E+10	1	-1E+10	1	-1E+10	1	-1E+10	1	-1E+10	1	-1E+10	1
4902643	9	C	09/19/2024	09:33	-134.053	43.766	0	2.20	0	18.3880	0	32.7070	0	23.423	0	2.182	0	-1e10	1	-1e10	1	-1E+10	1	-1E+10	1	-1E+10	1	-1E+10	1	-1E+10	1	-1E+10	1
4902643	9	C	09/19/2024	09:33	-134.053	43.766	0	2.50	0	18.3800	0	32.7140	0	23.430	0	2.480	0	220.9	4	93.6	4	-1E+10	1	-1E+10	1	-1E+10	1	-1E+10	1	-1E+10	1	-1E+10	1
4902643	9	C	09/19/2024	09:33	-134.053	43.766	0	3.40	0	18.3890	0	32.7120	0	23.427	0	3.373	0	220.9	4	93.6	4	-1E+10	1	-1E+10	1	-1E+10	1	-1E+10	1	-1E+10	1	-1E+10	1
4902643	9	C	09/19/2024	09:33	-134.053	43.766	0	4.40	0	18.3950	0	32.7130	0	23.426	0	4.365	0	220.9	4	93.7	4	-1E+10	1	-1E+10	1	-1E+10	1	-1E+10	1	-1E+10	1	-1E+10	1
4902643	9	C	09/19/2024	09:33	-134.053	43.766	0	5.50	0	18.3970	0	32.7130	0	23.426	0	5.456	0	220.9	4	93.6	4	-1E+10	1	-1E+10	1	-1E+10	1	-1E+10	1	-1E+10	1	-1E+10	1
4902643	9	C	09/19/2024	09:33	-134.053	43.766	0	6.50	0	18.3950	0	32.7130	0	23.426	0	6.448	0	220.9	4	93.6	4	-1E+10	1	-1E+10	1	-1E+10	1	-1E+10	1	-1E+10	1	-1E+10	1
4902643	9	C	09/19/2024	09:33	-134.053	43.766	0	7.60	0	18.3970	0	32.7140	0	23.426	0	7.539	0	220.9	4	93.7	4	-1E+10	1	-1E+10	1	-1E+10	1	-1E+10	1	-1E+10	1	-1E+10	1
4902643	9	C	09/19/2024	09:33	-134.053	43.766	0	8.60	0	18.4020	0	32.7120	0	23.424	0	8.531	0	220.9	4	93.7	4	-1E+10	1	-1E+10	1	-1E+10	1	-1E+10	1	-1E+10	1	-1E+10	1
4902643	9	C	09/19/2024	09:33	-134.053	43.766	0	9.60	0	18.4020	0	32.7120	0	23.424	0	9.523	0	220.8	4	93.6	4	-1E+10	1	-1E+10	1	-1E+10	1	-1E+10	1	-1E+10	1	-1E+10	1
4902643	9	C	09/19/2024	09:33	-134.053	43.766	0	15.40	0	18.4020	0	32.7120	0	23.424	0	15.276	0	221.0	4	93.7	4	-1E+10	1	-1E+10	1	-1E+10	1	-1E+10	1	-1E+10	1	-1E+10	1
4902643	9	C	09/19/2024	09:33	-134.053	43.766	0	25.20	0	18.4100	0	32.7110	0	23.422	0	24.997	0	221.8	4	94.0	4	-1E+10	1	-1E+10	1	-1E+10	1	-1E+10	1	-1E+10	1	-1E+10	1
4902643	9	C	09/19/2024	09:33	-134.053	43.766	0	34.50	0	18.4110	0	32.7090	0	23.420	0	34.221	0	225.2	4	95.5	4	-1E+10	1	-1E+10	1	-1E+10	1	-1E+10	1	-1E+10	1	-1E+10	1
4902643	9	C	09/19/2024	09:33	-134.053	43.766	0	43.90	0	17.3080	0	32.6880	0	23.671	0	43.544	0	244.5	4	101.6	4	-1E+10	1	-1E+10	1	-1E+10	1	-1E+10	1	-1E+10	1	-1E+10	1
4902643	9	C	09/19/2024	09:33	-134.053	43.766	0	54.60	0	13.9750	0	32.7230	0	24.435	0	54.156	0	266.0	4	103.5	4	-1E+10	1	-1E+10	1	-1E+10	1	-1E+10	1	-1E+10	1	-1E+10	1
4902643	9	C	09/19/2024	09:33	-134.053	43.766	0	64.60	0	12.5410	0	32.6940	0	24.698	0	64.073	0	266.7	4	100.8	4	-1E+10	1	-1E+10	1	-1E+10	1	-1E+10	1	-1E+10	1	-1E+10	1
4902643	9	C	09/19/2024	09:33	-134.053	43.766	0	74.80	0	11.3050	0	32.6950	0	24.929	0	74.188	0	256.6	4	94.5	4	-1E+10	1	-1E+10	1	-1E+10	1	-1E+10	1	-1E+10	1	-1E+10	1
4902643	9	C	09/19/2024	09:33	-134.053	43.766	0	84.80	0	10.4780	0	32.7210	0	25.094	0	84.104	0	246.4	4	89.2	4	-1E+10	1	-1E+10	1	-1E+10	1	-1E+10	1	-1E+10	1	-1E+10	1
4902643	9	C	09/19/2024	09:33	-134.053	43.766	0	95.50	0	10.0340	0	32.7400	0	25.184	0	94.714	0	240.7	4	86.3	4	-1E+10	1	-1E+10	1	-1E+10	1	-1E+10	1	-1E+10	1	-1E+10	1
4902643	9	C	09/19/2024	09:33	-134.053	43.766	0	105.00	0	9.9380	0	32.8130	0	25.257	0	104.133	0	237.7	4	85.1	4	-1E+10	1	-1E+10	1	-1E+10	1	-1E+10	1	-1E+10	1	-1E+10	1
4902643	9	C	09/19/2024	09:33	-134.053	43.766	0	115.00	0	9.5040	0	32.8320	0	25.343	0	114.048	0	233.3	4	82.7	4	-1E+10	1	-1E+10	1	-1E+10	1	-1E+10	1	-1E+10	1	-1E+10	1
4902643	9	C	09/19/2024	09:33	-134.053	43.766	0	124.70	0	9.3080	0	32.9190	0	25.443	0	123.664	0	225.2	4	79.6	4	-1E+10	1	-1E+10	1	-1E+10	1	-1E+10	1	-1E+10	1	-1E+10	1
4902643	9	C	09/19/2024	09:33	-134.053	43.766	0	135.20	0	9.2050	0	33.1180	0	25.615	0	134.074	0	215.6	4	76.1	4	-1E+10	1	-1E+10	1	-1E+10	1	-1E+10	1	-1E+10	1	-1E+10	1
4902643	9	C	09/19/2024	09:33	-134.053	43.766	0	145.00	0	8.9650	0	33.2650	0	25.768	0	143.789	0	209.8	4	73.8	4	-1E+10	1	-1E+10	1	-1E+10	1	-1E+10	1	-1E+10	1	-1E+10	1
4902643	9	C	09/19/2024	09:33	-134.053	43.766	0	155.10	0	8.7610	0	33.3780	0	25.888	0	153.801	0	205.9	4	72.1	4	-1E+10	1	-1E+10	1	-1E+10	1	-1E+10	1	-1E+10	1	-1E+10	1
4902643	9	C	09/19/2024	09:33	-134.053	43.766	0	164.80	0	8.5470	0	33.4850	0	26.005	0	163.416	0	203.8	4	71.1	4	-1E+10	1	-1E+10	1	-1E+10	1	-1E+10	1	-1E+10	1	-1E+10	1
4902643	9	C	09/19/2024	09:33	-134.053	43.766	0	174.60	0	8.4520	0	33.5640	0	26.082	0	173.129	0	202.8	4	70.7	4	-1E+10	1	-1E+10	1	-1E+10	1	-1E+10	1	-1E+10	1	-1E+10	1
4902643	9	C	09/19/2024	09:33	-134.053	43.766	0	184.70	0	8.2920	0	33.6390	0	26.165	0	183.140	0	201.1	4	69.9	4	-1E+10	1	-1E+10	1	-1E+10	1	-1E+10	1	-1E+10	1	-1E+10	1
4902643	9	C	09/19/2024	09:33	-134.053	43.766	0	194.70	0	7.9750	0	33.6860	0	26.249	0	193.050	0	199.0	4	68.7	4	-1E+10	1	-1E+10	1	-1E+10	1	-1E+10	1	-1E+10	1	-1E+10	1
4902643	9	C	09/19/2024	09:33	-134.053	43.766	0	209.90	0	7.5640	0	33.7190	0	26.334	0	208.114	0	195.3	4	66.8	4	-1E+10	1	-1E+10	1	-1E+10	1	-1E+10	1	-1E+10	1	-1E+10	1
4902643	9	C	09/19/2024	09:33	-134.053	43.766	0	229.90	0	7.2590	0	33.7630	0	26.412	0	227.933	0	187.0	4	63.5	4	-1E+10	1	-1E+10	1	-1E+10	1	-1E+10	1	-1E+10	1	-1E+10	1
4902643	9	C	09/19/2024	09:33	-134.053	43.766	0	249.80	0	7.0700	0	33.7970	0	26.465	0	247.651	0	175.4	4	59.3	4	-1E+10	1	-1E+10	1	-1E+10	1	-1E+10	1	-1E+10	1	-1E+10	1
4902643	9	C	09/19/2024	09:33	-134.053	43.766	0	269.90	0	6.6720	0	33.8060	0	26.526	0	267.565	0	159.9	4	53.6	4	-1E+10	1	-1E+10	1	-1E+10	1	-1E+10	1	-1E+10	1	-1E+10	1
4902643	9	C	09/19/2024	09:33	-134.053	43.766	0	290.00	0	6.3570	0	33.8110	0	26.571	0	287.477	0	145.5	4	48.4	4	-1E+10	1	-1E+10	1	-1E+10	1	-1E+10	1	-1E+10	1	-1E+10	1
4902643	9	C	09/19/2024	09:33	-134.053	43.766	0	309.50	0	6.1590	0	33.8280	0	26.610	0	306.793	0	132.5	4	43.9	4	-1E+10	1	-1E+10	1	-1E+10	1	-1E+10	1	-1E+10	1	-1E+10	1
4902643	9	C	09/19/2024	09:33	-134.053	43.766	0	330.20	0	5.8860	0	33.8310	0	26.647	0	327.295	0	119.3	4	39.3	4	-1E+10	1	-1E+10	1	-1E+10	1	-1E+10	1	-1E+10	1	-1E+10	1
4902643	9	C	09/19/2024	09:33	-134.053	43.766	0	349.60	0	5.6220	0	33.8390	0	26.685	0	346.509	0	107.7	4	35.2	4	-1E+10	1	-1E+10	1	-1E+10	1	-1E+10	1	-1E+10	1	-1E+10	1
4902643	9	C	09/19/2024	09:33	-134.053	43.766	0	369.70	0	5.4190	0	33.8530	0	26.721	0	366.413	0	98.0	4	31.9	4	-1E+10	1	-1E+10	1	-1E+10	1	-1E+10	1	-1E+10	1	-1E+10	1
4902643	9	C	09/19/2024	09:33	-134.053	43.766	0	390.20	0	5.2610	0	33.8630	0	26.748	0	386.712	0	90.5	4	29.4	4	-1E+10	1	-1E+10	1	-1E+10	1	-1E+10	1	-1E+10	1	-1E+10	1
4902643	9	C	09/19/2024	09:33	-134.053	43.766	0	409.30	0	5.1040	0	33.8730	0	26.774	0	405.622	0	83.2	4	26.9	4	-1E+10	1	-1E+10	1	-1E+10	1	-1E+10	1	-1E+10	1	-1E+10	1
4902643	9	C	09/19/2024	09:33	-134.053	43.766	0	429.50	0	4.9020	0	33.8860	0	26.807	0	425.620	0	74.4	4	23.9	4	-1E+10	1	-1E+10	1	-1E+10	1	-1E+10	1	-1E+10	1	-1E+10	1
4902643	9	C	09/19/2024	09:33	-134.053	43.766	0	449.70	0	4.7460	0	33.9010	0	26.836	0	445.616	0	68.0	4	21.8	4	-1E+10	1	-1E+10	1	-1E+10	1	-1E+10	1	-1E+10	1	-1E+10	1
4902643	9	C	09/19/2024	09:33	-134.053	43.766	0	469.50	0	4.6990	0	33.9130	0	26.851	0	465.214	0	64.5	4	20.7	4	-1E+10	1	-1E+10	1	-1E+10	1	-1E+10	1	-1E+10	1	-1E+10	1
4902643	9	C	09/19/2024	09:33	-134.053	43.766	0	489.70	0	4.6240	0	33.9330	0	26.876	0	485.206	0	58.4	4	18.7	4	-1E+10	1	-1E+10	1	-1E+10	1	-1E+10	1	-1E+10	1	-1E+10	1
4902643	9	C	09/19/2024	09:33	-134.053	43.766	0	509.90	0	4.5410	0	33.9630	0	26.908	0	505.196	0	52.9	4	16.9	4	-1E+10	1	-1E+10	1	-1E+10	1	-1E+10	1	-1E+10	1	-1E+10	1
4902643	9	C	09/19/2024	09:33	-134.053	43.766	0	529.70	0	4.4820	0	33.9850	0	26.932	0	524.788	0	48.8	4	15.6	4	-1E+10	1	-1E+10	1	-1E+10	1	-1E+10	1	-1E+10	1	-1E+10	1
4902643	9	C	09/19/2024	09:33	-134.053	43.766	0	549.60	0	4.4310	0	34.0040	0	26.953	0	544.478	0	44.6	4	14.2	4	-1E+10	1	-1E+10	1	-1E+10	1	-1E+10	1	-1E+10	1	-1E+10	1
4902643	9	C	09/19/2024	09:33	-134.053	43.766	0	570.50	0	4.3610	0	34.0290	0	26.981	0	565.155	0	39.0	4	12.4	4	-1E+10	1	-1E+10	1	-1E+10	1	-1E+10	1	-1E+10	1	-1E+10	1
4902643	9	C	09/19/2024	09:33	-134.053	43.766	0	589.60	0	4.3150	0	34.0480	0	27.001	0	584.049	0	35.4	4	11.2	4	-1E+10	1	-1E+10	1	-1E+10	1	-1E+10	1	-1E+10	1	-1E+10	1
4902643	9	C	09/19/2024	09:33	-134.053	43.766	0	609.70	0	4.2630	0	34.0660	0	27.021	0	603.931	0	30.6	4	9.7	4	-1E+10	1	-1E+10	1	-1E+10	1	-1E+10	1	-1E+10	1	-1E+10	1
4902643	9	C	09/19/2024	09:33	-134.053	43.766	0	630.50	0	4.2050	0	34.0870	0	27.044	0	624.502	0	26.4	4	8.4	4	-1E+10	1	-1E+10	1	-1E+10	1	-1E+10	1	-1E+10	1	-1E+10	1
4902643	9	C	09/19/2024	09:33	-134.053	43.766	0	649.60	0	4.1350	0	34.1120	0	27.071	0	643.391	0	22.5	4	7.1	4	-1E+10	1	-1E+10	1	-1E+10	1	-1E+10	1	-1E+10	1	-1E+10	1
4902643	9	C	09/19/2024	09:33	-134.053	43.766	0	669.50	0	4.0820	0	34.1320	0	27.092	0	663.069	0	20.3	4	6.4	4	-1E+10	1	-1E+10	1	-1E+10	1	-1E+10	1	-1E+10	1	-1E+10	1
4902643	9	C	09/19/2024	09:33	-134.053	43.766	0	689.50	0	4.0400	0	34.1430	0	27.106	0	682.845	0	19.0	4	6.0	4	-1E+10	1	-1E+10	1	-1E+10	1	-1E+10	1	-1E+10	1	-1E+10	1
4902643	9	C	09/19/2024	09:33	-134.053	43.766	0	709.70	0	3.9800	0	34.1580	0	27.124	0	702.816	0	17.4	4	5.5	4	-1E+10	1	-1E+10	1	-1E+10	1	-1E+10	1	-1E+10	1	-1E+10	1
4902643	9	C	09/19/2024	09:33	-134.053	43.766	0	729.60	0	3.9240	0	34.1730	0	27.142	0	722.488	0	16.0	4	5.0	4	-1E+10	1	-1E+10	1	-1E+10	1	-1E+10	1	-1E+10	1	-1E+10	1
4902643	9	C	09/19/2024	09:33	-134.053	43.766	0	749.60	0	3.8630	0	34.1890	0	27.161	0	742.258	0	14.6	4	4.6	4	-1E+10	1	-1E+10	1	-1E+10	1	-1E+10	1	-1E+10	1	-1E+10	1
4902643	9	C	09/19/2024	09:33	-134.053	43.766	0	769.80	0	3.8130	0	34.2010	0	27.175	0	762.223	0	13.2	4	4.2	4	-1E+10	1	-1E+10	1	-1E+10	1	-1E+10	1	-1E+10	1	-1E+10	1
4902643	9	C	09/19/2024	09:33	-134.053	43.766	0	789.70	0	3.7590	0	34.2150	0	27.192	0	781.890	0	11.9	4	3.8	4	-1E+10	1	-1E+10	1	-1E+10	1	-1E+10	1	-1E+10	1	-1E+10	1
4902643	9	C	09/19/2024	09:33	-134.053	43.766	0	809.80	0	3.7060	0	34.2290	0	27.208	0	801.752	0	11.1	4	3.5	4	-1E+10	1	-1E+10	1	-1E+10	1	-1E+10	1	-1E+10	1	-1E+10	1
4902643	9	C	09/19/2024	09:33	-134.053	43.766	0	829.90	0	3.6560	0	34.2420	0	27.224	0	821.613	0	10.3	4	3.2	4	-1E+10	1	-1E+10	1	-1E+10	1	-1E+10	1	-1E+10	1	-1E+10	1
4902643	9	C	09/19/2024	09:33	-134.053	43.766	0	849.80	0	3.6070	0	34.2550	0	27.239	0	841.274	0	9.6	4	3.0	4	-1E+10	1	-1E+10	1	-1E+10	1	-1E+10	1	-1E+10	1	-1E+10	1
4902643	9	C	09/19/2024	09:33	-134.053	43.766	0	869.00	0	3.5700	0	34.2690	0	27.254	0	860.242	0	8.7	4	2.7	4	-1E+10	1	-1E+10	1	-1E+10	1	-1E+10	1	-1E+10	1	-1E+10	1
4902643	9	C	09/19/2024	09:33	-134.053	43.766	0	889.60	0	3.5710	0	34.2880	0	27.269	0	880.591	0	7.9	4	2.5	4	-1E+10	1	-1E+10	1	-1E+10	1	-1E+10	1	-1E+10	1	-1E+10	1
4902643	9	C	09/19/2024	09:33	-134.053	43.766	0	909.60	0	3.5440	0	34.3050	0	27.285	0	900.346	0	7.4	4	2.3	4	-1E+10	1	-1E+10	1	-1E+10	1	-1E+10	1	-1E+10	1	-1E+10	1
4902643	9	C	09/19/2024	09:33	-134.053	43.766	0	929.70	0	3.5450	0	34.3190	0	27.297	0	920.197	0	7.0	4	2.2	4	-1E+10	1	-1E+10	1	-1E+10	1	-1E+10	1	-1E+10	1	-1E+10	1
4902643	9	C	09/19/2024	09:33	-134.053	43.766	0	949.50	0	3.5250	0	34.3340	0	27.311	0	939.750	0	6.9	4	2.2	4	-1E+10	1	-1E+10	1	-1E+10	1	-1E+10	1	-1E+10	1	-1E+10	1
4902643	9	C	09/19/2024	09:33	-134.053	43.766	0	969.60	0	3.5000	0	34.3480	0	27.324	0	959.598	0	6.9	4	2.2	4	-1E+10	1	-1E+10	1	-1E+10	1	-1E+10	1	-1E+10	1	-1E+10	1
4902643	9	C	09/19/2024	09:33	-134.053	43.766	0	990.10	0	3.4510	0	34.3630	0	27.341	0	979.838	0	7.0	4	2.2	4	-1E+10	1	-1E+10	1	-1E+10	1	-1E+10	1	-1E+10	1	-1E+10	1
4902643	9	C	09/19/2024	09:33	-134.053	43.766	0	1009.50	0	3.4080	0	34.3710	0	27.352	0	998.991	0	7.2	4	2.3	4	-1E+10	1	-1E+10	1	-1E+10	1	-1E+10	1	-1E+10	1	-1E+10	1
4902643	9	C	09/19/2024	09:33	-134.053	43.766	0	1029.50	0	3.3780	0	34.3830	0	27.364	0	1018.734	0	7.5	4	2.3	4	-1E+10	1	-1E+10	1	-1E+10	1	-1E+10	1	-1E+10	1	-1E+10	1
4902643	9	C	09/19/2024	09:33	-134.053	43.766	0	1049.30	0	3.3470	0	34.3950	0	27.377	0	1038.278	0	7.8	4	2.4	4	-1E+10	1	-1E+10	1	-1E+10	1	-1E+10	1	-1E+10	1	-1E+10	1
4902643	9	C	09/19/2024	09:33	-134.053	43.766	0	1070.10	0	3.3070	0	34.4020	0	27.386	0	1058.807	0	8.1	4	2.5	4	-1E+10	1	-1E+10	1	-1E+10	1	-1E+10	1	-1E+10	1	-1E+10	1
4902643	9	C	09/19/2024	09:33	-134.053	43.766	0	1089.70	0	3.2670	0	34.4080	0	27.395	0	1078.150	0	8.5	4	2.6	4	-1E+10	1	-1E+10	1	-1E+10	1	-1E+10	1	-1E+10	1	-1E+10	1
4902643	9	C	09/19/2024	09:33	-134.053	43.766	0	1109.80	0	3.2370	0	34.4190	0	27.407	0	1097.985	0	9.3	4	2.9	4	-1E+10	1	-1E+10	1	-1E+10	1	-1E+10	1	-1E+10	1	-1E+10	1
4902643	9	C	09/19/2024	09:33	-134.053	43.766	0	1129.70	0	3.1950	0	34.4290	0	27.419	0	1117.620	0	9.8	4	3.1	4	-1E+10	1	-1E+10	1	-1E+10	1	-1E+10	1	-1E+10	1	-1E+10	1
4902643	9	C	09/19/2024	09:33	-134.053	43.766	0	1149.90	0	3.1540	0	34.4350	0	27.427	0	1137.549	0	10.3	4	3.2	4	-1E+10	1	-1E+10	1	-1E+10	1	-1E+10	1	-1E+10	1	-1E+10	1
4902643	9	C	09/19/2024	09:33	-134.053	43.766	0	1169.70	0	3.1260	0	34.4400	0	27.434	0	1157.082	0	10.8	4	3.3	4	-1E+10	1	-1E+10	1	-1E+10	1	-1E+10	1	-1E+10	1	-1E+10	1
4902643	9	C	09/19/2024	09:33	-134.053	43.766	0	1189.60	0	3.0910	0	34.4450	0	27.441	0	1176.712	0	11.2	4	3.5	4	-1E+10	1	-1E+10	1	-1E+10	1	-1E+10	1	-1E+10	1	-1E+10	1
4902643	9	C	09/19/2024	09:33	-134.053	43.766	0	1209.60	0	3.0450	0	34.4500	0	27.450	0	1196.438	0	11.9	4	3.7	4	-1E+10	1	-1E+10	1	-1E+10	1	-1E+10	1	-1E+10	1	-1E+10	1
4902643	9	C	09/19/2024	09:33	-134.053	43.766	0	1229.60	0	3.0110	0	34.4570	0	27.458	0	1216.163	0	12.7	4	3.9	4	-1E+10	1	-1E+10	1	-1E+10	1	-1E+10	1	-1E+10	1	-1E+10	1
4902643	9	C	09/19/2024	09:33	-134.053	43.766	0	1249.60	0	2.9740	0	34.4620	0	27.466	0	1235.886	0	13.4	4	4.1	4	-1E+10	1	-1E+10	1	-1E+10	1	-1E+10	1	-1E+10	1	-1E+10	1
4902643	9	C	09/19/2024	09:33	-134.053	43.766	0	1269.80	0	2.9340	0	34.4680	0	27.474	0	1255.804	0	14.2	4	4.4	4	-1E+10	1	-1E+10	1	-1E+10	1	-1E+10	1	-1E+10	1	-1E+10	1
4902643	9	C	09/19/2024	09:33	-134.053	43.766	0	1289.70	0	2.9120	0	34.4730	0	27.480	0	1275.424	0	14.8	4	4.5	4	-1E+10	1	-1E+10	1	-1E+10	1	-1E+10	1	-1E+10	1	-1E+10	1
4902643	9	C	09/19/2024	09:33	-134.053	43.766	0	1309.40	0	2.8750	0	34.4750	0	27.485	0	1294.845	0	15.1	4	4.6	4	-1E+10	1	-1E+10	1	-1E+10	1	-1E+10	1	-1E+10	1	-1E+10	1
4902643	9	C	09/19/2024	09:33	-134.053	43.766	0	1329.40	0	2.8390	0	34.4790	0	27.492	0	1314.561	0	15.8	4	4.9	4	-1E+10	1	-1E+10	1	-1E+10	1	-1E+10	1	-1E+10	1	-1E+10	1
4902643	9	C	09/19/2024	09:33	-134.053	43.766	0	1350.20	0	2.8140	0	34.4830	0	27.497	0	1335.063	0	16.8	4	5.2	4	-1E+10	1	-1E+10	1	-1E+10	1	-1E+10	1	-1E+10	1	-1E+10	1
4902643	9	C	09/19/2024	09:33	-134.053	43.766	0	1369.50	0	2.7750	0	34.4880	0	27.505	0	1354.084	0	17.7	4	5.4	4	-1E+10	1	-1E+10	1	-1E+10	1	-1E+10	1	-1E+10	1	-1E+10	1
4902643	9	C	09/19/2024	09:33	-134.053	43.766	0	1389.70	0	2.7440	0	34.4930	0	27.512	0	1373.991	0	18.8	4	5.8	4	-1E+10	1	-1E+10	1	-1E+10	1	-1E+10	1	-1E+10	1	-1E+10	1
4902643	9	C	09/19/2024	09:33	-134.053	43.766	0	1410.10	0	2.6990	0	34.4980	0	27.520	0	1394.093	0	19.9	4	6.1	4	-1E+10	1	-1E+10	1	-1E+10	1	-1E+10	1	-1E+10	1	-1E+10	1
4902643	9	C	09/19/2024	09:33	-134.053	43.766	0	1429.90	0	2.6660	0	34.5020	0	27.526	0	1413.602	0	21.0	4	6.4	4	-1E+10	1	-1E+10	1	-1E+10	1	-1E+10	1	-1E+10	1	-1E+10	1
4902643	9	C	09/19/2024	09:33	-134.053	43.766	0	1449.60	0	2.6310	0	34.5070	0	27.533	0	1433.011	0	22.3	4	6.8	4	-1E+10	1	-1E+10	1	-1E+10	1	-1E+10	1	-1E+10	1	-1E+10	1
4902643	9	C	09/19/2024	09:33	-134.053	43.766	0	1470.20	0	2.5910	0	34.5110	0	27.540	0	1453.304	0	23.5	4	7.2	4	-1E+10	1	-1E+10	1	-1E+10	1	-1E+10	1	-1E+10	1	-1E+10	1
4902643	9	C	09/19/2024	09:33	-134.053	43.766	0	1489.40	0	2.5510	0	34.5160	0	27.547	0	1472.217	0	24.9	4	7.6	4	-1E+10	1	-1E+10	1	-1E+10	1	-1E+10	1	-1E+10	1	-1E+10	1
4902643	9	C	09/19/2024	09:33	-134.053	43.766	0	1509.70	0	2.5150	0	34.5210	0	27.554	0	1492.211	0	25.8	4	7.9	4	-1E+10	1	-1E+10	1	-1E+10	1	-1E+10	1	-1E+10	1	-1E+10	1
4902643	9	C	09/19/2024	09:33	-134.053	43.766	0	1529.90	0	2.4850	0	34.5230	0	27.559	0	1512.105	0	26.7	4	8.2	4	-1E+10	1	-1E+10	1	-1E+10	1	-1E+10	1	-1E+10	1	-1E+10	1
4902643	9	C	09/19/2024	09:33	-134.053	43.766	0	1549.70	0	2.4580	0	34.5270	0	27.564	0	1531.603	0	27.8	4	8.5	4	-1E+10	1	-1E+10	1	-1E+10	1	-1E+10	1	-1E+10	1	-1E+10	1
4902643	9	C	09/19/2024	09:33	-134.053	43.766	0	1569.50	0	2.4400	0	34.5300	0	27.568	0	1551.099	0	28.7	4	8.7	4	-1E+10	1	-1E+10	1	-1E+10	1	-1E+10	1	-1E+10	1	-1E+10	1
4902643	9	C	09/19/2024	09:33	-134.053	43.766	0	1589.70	0	2.4150	0	34.5320	0	27.572	0	1570.987	0	29.5	4	9.0	4	-1E+10	1	-1E+10	1	-1E+10	1	-1E+10	1	-1E+10	1	-1E+10	1
4902643	9	C	09/19/2024	09:33	-134.053	43.766	0	1609.60	0	2.3900	0	34.5360	0	27.577	0	1590.578	0	31.1	4	9.5	4	-1E+10	1	-1E+10	1	-1E+10	1	-1E+10	1	-1E+10	1	-1E+10	1
4902643	9	C	09/19/2024	09:33	-134.053	43.766	0	1629.30	0	2.3630	0	34.5400	0	27.583	0	1609.971	0	32.2	4	9.8	4	-1E+10	1	-1E+10	1	-1E+10	1	-1E+10	1	-1E+10	1	-1E+10	1
4902643	9	C	09/19/2024	09:33	-134.053	43.766	0	1650.30	0	2.3270	0	34.5420	0	27.588	0	1630.641	0	32.8	4	10.0	4	-1E+10	1	-1E+10	1	-1E+10	1	-1E+10	1	-1E+10	1	-1E+10	1
4902643	9	C	09/19/2024	09:33	-134.053	43.766	0	1669.70	0	2.3010	0	34.5450	0	27.592	0	1649.734	0	34.0	4	10.3	4	-1E+10	1	-1E+10	1	-1E+10	1	-1E+10	1	-1E+10	1	-1E+10	1
4902643	9	C	09/19/2024	09:33	-134.053	43.766	0	1689.60	0	2.2730	0	34.5500	0	27.599	0	1669.318	0	36.1	4	11.0	4	-1E+10	1	-1E+10	1	-1E+10	1	-1E+10	1	-1E+10	1	-1E+10	1
4902643	9	C	09/19/2024	09:33	-134.053	43.766	0	1709.80	0	2.2450	0	34.5550	0	27.605	0	1689.195	0	38.0	4	11.5	4	-1E+10	1	-1E+10	1	-1E+10	1	-1E+10	1	-1E+10	1	-1E+10	1
4902643	9	C	09/19/2024	09:33	-134.053	43.766	0	1729.90	0	2.2080	0	34.5580	0	27.610	0	1708.972	0	39.4	4	11.9	4	-1E+10	1	-1E+10	1	-1E+10	1	-1E+10	1	-1E+10	1	-1E+10	1
4902643	9	C	09/19/2024	09:33	-134.053	43.766	0	1749.80	0	2.1820	0	34.5620	0	27.616	0	1728.550	0	40.9	4	12.4	4	-1E+10	1	-1E+10	1	-1E+10	1	-1E+10	1	-1E+10	1	-1E+10	1
4902643	9	C	09/19/2024	09:33	-134.053	43.766	0	1769.80	0	2.1630	0	34.5650	0	27.620	0	1748.225	0	42.3	4	12.8	4	-1E+10	1	-1E+10	1	-1E+10	1	-1E+10	1	-1E+10	1	-1E+10	1
4902643	9	C	09/19/2024	09:33	-134.053	43.766	0	1789.80	0	2.1360	0	34.5690	0	27.625	0	1767.898	0	43.3	4	13.1	4	-1E+10	1	-1E+10	1	-1E+10	1	-1E+10	1	-1E+10	1	-1E+10	1
4902643	9	C	09/19/2024	09:33	-134.053	43.766	0	1809.60	0	2.1120	0	34.5700	0	27.628	0	1787.372	0	43.8	4	13.2	4	-1E+10	1	-1E+10	1	-1E+10	1	-1E+10	1	-1E+10	1	-1E+10	1
4902643	9	C	09/19/2024	09:33	-134.053	43.766	0	1829.30	0	2.0930	0	34.5730	0	27.632	0	1806.747	0	45.0	4	13.6	4	-1E+10	1	-1E+10	1	-1E+10	1	-1E+10	1	-1E+10	1	-1E+10	1
4902643	9	C	09/19/2024	09:33	-134.053	43.766	0	1849.50	0	2.0730	0	34.5760	0	27.636	0	1826.611	0	46.3	4	14.0	4	-1E+10	1	-1E+10	1	-1E+10	1	-1E+10	1	-1E+10	1	-1E+10	1
4902643	9	C	09/19/2024	09:33	-134.053	43.766	0	1870.50	0	2.0510	0	34.5800	0	27.641	0	1847.260	0	47.7	4	14.4	4	-1E+10	1	-1E+10	1	-1E+10	1	-1E+10	1	-1E+10	1	-1E+10	1
4902643	9	C	09/19/2024	09:33	-134.053	43.766	0	1890.00	0	2.0340	0	34.5830	0	27.645	0	1866.432	0	48.9	4	14.8	4	-1E+10	1	-1E+10	1	-1E+10	1	-1E+10	1	-1E+10	1	-1E+10	1
4902643	9	C	09/19/2024	09:33	-134.053	43.766	0	1909.70	0	2.0170	0	34.5860	0	27.649	0	1885.799	0	50.0	4	15.1	4	-1E+10	1	-1E+10	1	-1E+10	1	-1E+10	1	-1E+10	1	-1E+10	1
4902643	9	C	09/19/2024	09:33	-134.053	43.766	0	1929.80	0	2.0040	0	34.5880	0	27.652	0	1905.558	0	51.1	4	15.4	4	-1E+10	1	-1E+10	1	-1E+10	1	-1E+10	1	-1E+10	1	-1E+10	1
4902643	9	C	09/19/2024	09:33	-134.053	43.766	0	1949.80	0	1.9890	0	34.5900	0	27.654	0	1925.216	0	52.2	4	15.7	4	-1E+10	1	-1E+10	1	-1E+10	1	-1E+10	1	-1E+10	1	-1E+10	1
4902643	9	C	09/19/2024	09:33	-134.053	43.766	0	1970.00	0	1.9780	0	34.5920	0	27.657	0	1945.069	0	53.2	4	16.0	4	-1E+10	1	-1E+10	1	-1E+10	1	-1E+10	1	-1E+10	1	-1E+10	1
4902643	9	C	09/19/2024	09:33	-134.053	43.766	0	1989.90	0	1.9650	0	34.5940	0	27.660	0	1964.626	0	54.7	4	16.5	4	-1E+10	1	-1E+10	1	-1E+10	1	-1E+10	1	-1E+10	1	-1E+10	1
4902643	9	C	09/19/2024	09:33	-134.053	43.766	0	2009.20	0	1.9450	0	34.5960	4	27.663	0	1983.591	0	56.0	4	16.9	4	-1E+10	1	-1E+10	1	-1E+10	1	-1E+10	1	-1E+10	1	-1E+10	1
4902643	9	C	09/19/2024	09:33	-134.053	43.766	0	2030.00	0	1.9330	0	34.5990	4	27.666	0	2004.028	0	57.0	4	17.2	4	-1E+10	1	-1E+10	1	-1E+10	1	-1E+10	1	-1E+10	1	-1E+10	1
4902643	9	C	09/19/2024	09:33	-134.053	43.766	0	2049.50	0	1.9190	0	34.6000	4	27.668	0	2023.186	0	58.2	4	17.5	4	-1E+10	1	-1E+10	1	-1E+10	1	-1E+10	1	-1E+10	1	-1E+10	1
4902643	9	C	09/19/2024	09:33	-134.053	43.766	0	2069.60	0	1.9060	0	34.6020	4	27.671	0	2042.932	0	59.1	4	17.8	4	-1E+10	1	-1E+10	1	-1E+10	1	-1E+10	1	-1E+10	1	-1E+10	1
4902643	9	C	09/19/2024	09:33	-134.053	43.766	0	2089.80	0	1.8970	0	34.6040	4	27.673	0	2062.774	0	59.8	4	18.0	4	-1E+10	1	-1E+10	1	-1E+10	1	-1E+10	1	-1E+10	1	-1E+10	1
4902643	9	C	09/19/2024	09:33	-134.053	43.766	0	2109.90	0	1.8910	0	34.6050	4	27.675	0	2082.516	0	60.4	4	18.2	4	-1E+10	1	-1E+10	1	-1E+10	1	-1E+10	1	-1E+10	1	-1E+10	1
4902643	9	C	09/19/2024	09:33	-134.053	43.766	0	2129.80	0	1.8820	0	34.6060	4	27.676	0	2102.060	0	61.3	4	18.4	4	-1E+10	1	-1E+10	1	-1E+10	1	-1E+10	1	-1E+10	1	-1E+10	1
4902643	9	C	09/19/2024	09:33	-134.053	43.766	0	2149.80	0	1.8730	0	34.6080	4	27.679	0	2121.700	0	62.0	4	18.6	4	-1E+10	1	-1E+10	1	-1E+10	1	-1E+10	1	-1E+10	1	-1E+10	1
4902643	9	C	09/19/2024	09:33	-134.053	43.766	0	2169.60	0	1.8630	0	34.6090	4	27.681	0	2141.142	0	62.8	4	18.9	4	-1E+10	1	-1E+10	1	-1E+10	1	-1E+10	1	-1E+10	1	-1E+10	1
4902643	9	C	09/19/2024	09:33	-134.053	43.766	0	2190.20	0	1.8560	0	34.6100	4	27.682	0	2161.368	0	63.4	4	19.0	4	-1E+10	1	-1E+10	1	-1E+10	1	-1E+10	1	-1E+10	1	-1E+10	1
4902643	9	C	09/19/2024	09:33	-134.053	43.766	0	2209.80	0	1.8500	0	34.6110	4	27.683	0	2180.610	0	64.0	4	19.2	4	-1E+10	1	-1E+10	1	-1E+10	1	-1E+10	1	-1E+10	1	-1E+10	1
4902643	9	C	09/19/2024	09:33	-134.053	43.766	0	2229.50	0	1.8440	0	34.6120	4	27.685	0	2199.949	0	64.5	4	19.4	4	-1E+10	1	-1E+10	1	-1E+10	1	-1E+10	1	-1E+10	1	-1E+10	1
4902643	9	C	09/19/2024	09:33	-134.053	43.766	0	2249.70	0	1.8380	0	34.6130	4	27.686	0	2219.776	0	65.2	4	19.6	4	-1E+10	1	-1E+10	1	-1E+10	1	-1E+10	1	-1E+10	1	-1E+10	1
4902643	9	C	09/19/2024	09:33	-134.053	43.766	0	2269.70	0	1.8310	0	34.6150	4	27.688	0	2239.406	0	65.9	4	19.8	4	-1E+10	1	-1E+10	1	-1E+10	1	-1E+10	1	-1E+10	1	-1E+10	1
4902643	9	C	09/19/2024	09:33	-134.053	43.766	0	2289.50	0	1.8240	0	34.6160	4	27.690	0	2258.837	0	66.5	4	20.0	4	-1E+10	1	-1E+10	1	-1E+10	1	-1E+10	1	-1E+10	1	-1E+10	1
4902643	9	C	09/19/2024	09:33	-134.053	43.766	0	2309.60	0	1.8200	0	34.6170	4	27.691	0	2278.561	0	67.1	4	20.1	4	-1E+10	1	-1E+10	1	-1E+10	1	-1E+10	1	-1E+10	1	-1E+10	1
4902643	9	C	09/19/2024	09:33	-134.053	43.766	0	2329.10	0	1.8130	0	34.6180	4	27.692	0	2297.694	0	67.9	4	20.4	4	-1E+10	1	-1E+10	1	-1E+10	1	-1E+10	1	-1E+10	1	-1E+10	1
4902643	9	C	09/19/2024	09:33	-134.053	43.766	0	2349.80	0	1.8050	0	34.6190	4	27.694	0	2318.003	0	68.6	4	20.6	4	-1E+10	1	-1E+10	1	-1E+10	1	-1E+10	1	-1E+10	1	-1E+10	1
4902643	9	C	09/19/2024	09:33	-134.053	43.766	0	2369.60	0	1.8000	0	34.6200	4	27.695	0	2337.428	0	69.2	4	20.8	4	-1E+10	1	-1E+10	1	-1E+10	1	-1E+10	1	-1E+10	1	-1E+10	1
4902643	9	C	09/19/2024	09:33	-134.053	43.766	0	2389.80	0	1.7940	0	34.6210	4	27.697	0	2357.243	0	69.9	4	21.0	4	-1E+10	1	-1E+10	1	-1E+10	1	-1E+10	1	-1E+10	1	-1E+10	1
4902643	9	C	09/19/2024	09:33	-134.053	43.766	0	2409.90	0	1.7880	0	34.6220	4	27.698	0	2376.957	0	70.7	4	21.2	4	-1E+10	1	-1E+10	1	-1E+10	1	-1E+10	1	-1E+10	1	-1E+10	1
4902643	9	C	09/19/2024	09:33	-134.053	43.766	0	2429.70	0	1.7790	0	34.6230	4	27.700	0	2396.376	0	71.7	4	21.5	4	-1E+10	1	-1E+10	1	-1E+10	1	-1E+10	1	-1E+10	1	-1E+10	1
4902643	9	C	09/19/2024	09:33	-134.053	43.766	0	2449.90	0	1.7710	0	34.6240	4	27.701	0	2416.186	0	72.4	4	21.7	4	-1E+10	1	-1E+10	1	-1E+10	1	-1E+10	1	-1E+10	1	-1E+10	1
4902643	9	C	09/19/2024	09:33	-134.053	43.766	0	2470.00	0	1.7650	0	34.6250	4	27.703	0	2435.895	0	73.1	4	21.9	4	-1E+10	1	-1E+10	1	-1E+10	1	-1E+10	1	-1E+10	1	-1E+10	1
4902643	9	C	09/19/2024	09:33	-134.053	43.766	0	2490.30	0	1.7590	0	34.6260	4	27.704	0	2455.799	0	73.8	4	22.1	4	-1E+10	1	-1E+10	1	-1E+10	1	-1E+10	1	-1E+10	1	-1E+10	1
4902643	9	C	09/19/2024	09:33	-134.053	43.766	0	2509.70	0	1.7520	0	34.6270	4	27.705	0	2474.818	0	74.5	4	22.3	4	-1E+10	1	-1E+10	1	-1E+10	1	-1E+10	1	-1E+10	1	-1E+10	1
4902643	9	C	09/19/2024	09:33	-134.053	43.766	0	2529.90	0	1.7480	0	34.6280	4	27.707	0	2494.621	0	75.2	4	22.5	4	-1E+10	1	-1E+10	1	-1E+10	1	-1E+10	1	-1E+10	1	-1E+10	1
4902643	9	C	09/19/2024	09:33	-134.053	43.766	0	2549.90	0	1.7410	0	34.6290	4	27.708	0	2514.225	0	76.1	4	22.8	4	-1E+10	1	-1E+10	1	-1E+10	1	-1E+10	1	-1E+10	1	-1E+10	1
4902643	9	C	09/19/2024	09:33	-134.053	43.766	0	2569.60	0	1.7330	0	34.6300	4	27.709	0	2533.534	0	76.9	4	23.0	4	-1E+10	1	-1E+10	1	-1E+10	1	-1E+10	1	-1E+10	1	-1E+10	1
4902643	9	C	09/19/2024	09:33	-134.053	43.766	0	2589.80	0	1.7250	0	34.6310	4	27.711	0	2553.330	0	77.7	4	23.3	4	-1E+10	1	-1E+10	1	-1E+10	1	-1E+10	1	-1E+10	1	-1E+10	1
4902643	9	C	09/19/2024	09:33	-134.053	43.766	0	2609.80	0	1.7200	0	34.6320	4	27.712	0	2572.929	0	78.4	4	23.5	4	-1E+10	1	-1E+10	1	-1E+10	1	-1E+10	1	-1E+10	1	-1E+10	1
4902643	9	C	09/19/2024	09:33	-134.053	43.766	0	2629.50	0	1.7130	0	34.6330	4	27.714	0	2592.232	0	79.2	4	23.7	4	-1E+10	1	-1E+10	1	-1E+10	1	-1E+10	1	-1E+10	1	-1E+10	1
4902643	9	C	09/19/2024	09:33	-134.053	43.766	0	2649.70	0	1.7070	0	34.6340	4	27.715	0	2612.024	0	80.0	4	24.0	4	-1E+10	1	-1E+10	1	-1E+10	1	-1E+10	1	-1E+10	1	-1E+10	1
4902643	9	C	09/19/2024	09:33	-134.053	43.766	0	2669.70	0	1.7000	0	34.6350	4	27.717	0	2631.617	0	80.8	4	24.2	4	-1E+10	1	-1E+10	1	-1E+10	1	-1E+10	1	-1E+10	1	-1E+10	1
4902643	9	C	09/19/2024	09:33	-134.053	43.766	0	2690.40	0	1.6940	0	34.6360	4	27.718	0	2651.895	0	81.6	4	24.4	4	-1E+10	1	-1E+10	1	-1E+10	1	-1E+10	1	-1E+10	1	-1E+10	1
4902643	9	C	09/19/2024	09:33	-134.053	43.766	0	2709.90	0	1.6880	0	34.6370	4	27.719	0	2670.995	0	82.2	4	24.6	4	-1E+10	1	-1E+10	1	-1E+10	1	-1E+10	1	-1E+10	1	-1E+10	1
4902643	9	C	09/19/2024	09:33	-134.053	43.766	0	2729.70	0	1.6830	0	34.6380	4	27.721	0	2690.387	0	83.0	4	24.8	4	-1E+10	1	-1E+10	1	-1E+10	1	-1E+10	1	-1E+10	1	-1E+10	1
4902643	9	C	09/19/2024	09:33	-134.053	43.766	0	2749.60	0	1.6770	0	34.6380	4	27.721	0	2709.876	0	83.8	4	25.1	4	-1E+10	1	-1E+10	1	-1E+10	1	-1E+10	1	-1E+10	1	-1E+10	1
4902643	9	C	09/19/2024	09:33	-134.053	43.766	0	2769.60	0	1.6720	0	34.6390	4	27.722	0	2729.461	0	84.5	4	25.3	4	-1E+10	1	-1E+10	1	-1E+10	1	-1E+10	1	-1E+10	1	-1E+10	1
4902643	9	C	09/19/2024	09:33	-134.053	43.766	0	2789.80	0	1.6670	0	34.6400	4	27.724	0	2749.239	0	85.3	4	25.5	4	-1E+10	1	-1E+10	1	-1E+10	1	-1E+10	1	-1E+10	1	-1E+10	1
4902643	9	C	09/19/2024	09:33	-134.053	43.766	0	2809.70	0	1.6600	0	34.6410	4	27.725	0	2768.723	0	86.0	4	25.7	4	-1E+10	1	-1E+10	1	-1E+10	1	-1E+10	1	-1E+10	1	-1E+10	1
4902643	9	C	09/19/2024	09:33	-134.053	43.766	0	2829.80	0	1.6560	0	34.6420	4	27.726	0	2788.400	0	86.6	4	25.9	4	-1E+10	1	-1E+10	1	-1E+10	1	-1E+10	1	-1E+10	1	-1E+10	1
4902643	9	C	09/19/2024	09:33	-134.053	43.766	0	2849.50	0	1.6530	0	34.6430	4	27.728	0	2807.684	0	87.3	4	26.1	4	-1E+10	1	-1E+10	1	-1E+10	1	-1E+10	1	-1E+10	1	-1E+10	1
4902643	9	C	09/19/2024	09:33	-134.053	43.766	0	2869.70	0	1.6470	0	34.6430	4	27.728	0	2827.455	0	88.0	4	26.3	4	-1E+10	1	-1E+10	1	-1E+10	1	-1E+10	1	-1E+10	1	-1E+10	1
4902643	9	C	09/19/2024	09:33	-134.053	43.766	0	2890.00	0	1.6420	0	34.6440	4	27.729	0	2847.323	0	88.8	4	26.5	4	-1E+10	1	-1E+10	1	-1E+10	1	-1E+10	1	-1E+10	1	-1E+10	1
4902643	9	C	09/19/2024	09:33	-134.053	43.766	0	2910.00	0	1.6360	0	34.6450	4	27.731	0	2866.895	0	89.7	4	26.8	4	-1E+10	1	-1E+10	1	-1E+10	1	-1E+10	1	-1E+10	1	-1E+10	1
4902643	9	C	09/19/2024	09:33	-134.053	43.766	0	2929.90	0	1.6340	0	34.6460	4	27.732	0	2886.368	0	90.7	4	27.1	4	-1E+10	1	-1E+10	1	-1E+10	1	-1E+10	1	-1E+10	1	-1E+10	1
4902643	9	C	09/19/2024	09:33	-134.053	43.766	0	2950.40	0	1.6310	0	34.6470	4	27.733	0	2906.426	0	91.3	4	27.3	4	-1E+10	1	-1E+10	1	-1E+10	1	-1E+10	1	-1E+10	1	-1E+10	1
4902643	9	C	09/19/2024	09:33	-134.053	43.766	0	2969.60	0	1.6280	0	34.6480	4	27.734	0	2925.210	0	91.8	4	27.4	4	-1E+10	1	-1E+10	1	-1E+10	1	-1E+10	1	-1E+10	1	-1E+10	1
4902643	9	C	09/19/2024	09:33	-134.053	43.766	0	2989.60	0	1.6240	0	34.6480	4	27.735	0	2944.775	0	92.5	4	27.6	4	-1E+10	1	-1E+10	1	-1E+10	1	-1E+10	1	-1E+10	1	-1E+10	1
4902643	9	C	09/19/2024	09:33	-134.053	43.766	0	3009.80	0	1.6180	0	34.6490	4	27.736	0	2964.535	0	93.3	4	27.9	4	-1E+10	1	-1E+10	1	-1E+10	1	-1E+10	1	-1E+10	1	-1E+10	1
4902643	9	C	09/19/2024	09:33	-134.053	43.766	0	3029.70	0	1.6130	0	34.6500	4	27.737	0	2983.998	0	94.0	4	28.1	4	-1E+10	1	-1E+10	1	-1E+10	1	-1E+10	1	-1E+10	1	-1E+10	1
4902643	9	C	09/19/2024	09:33	-134.053	43.766	0	3050.10	0	1.6100	0	34.6500	4	27.738	0	3003.950	0	94.5	4	28.2	4	-1E+10	1	-1E+10	1	-1E+10	1	-1E+10	1	-1E+10	1	-1E+10	1
4902643	9	C	09/19/2024	09:33	-134.053	43.766	0	3069.40	0	1.6070	0	34.6510	4	27.739	0	3022.823	0	95.0	4	28.4	4	-1E+10	1	-1E+10	1	-1E+10	1	-1E+10	1	-1E+10	1	-1E+10	1
4902643	9	C	09/19/2024	09:33	-134.053	43.766	0	3089.80	0	1.6020	0	34.6510	4	27.739	0	3042.771	0	95.3	4	28.5	4	-1E+10	1	-1E+10	1	-1E+10	1	-1E+10	1	-1E+10	1	-1E+10	1
4902643	9	C	09/19/2024	09:33	-134.053	43.766	0	3109.70	0	1.5980	0	34.6520	4	27.740	0	3062.227	0	96.1	4	28.7	4	-1E+10	1	-1E+10	1	-1E+10	1	-1E+10	1	-1E+10	1	-1E+10	1
4902643	9	C	09/19/2024	09:33	-134.053	43.766	0	3129.50	0	1.5960	0	34.6530	4	27.741	0	3081.585	0	96.6	4	28.8	4	-1E+10	1	-1E+10	1	-1E+10	1	-1E+10	1	-1E+10	1	-1E+10	1
4902643	9	C	09/19/2024	09:33	-134.053	43.766	0	3149.70	0	1.5920	0	34.6530	4	27.742	0	3101.331	0	96.9	4	28.9	4	-1E+10	1	-1E+10	1	-1E+10	1	-1E+10	1	-1E+10	1	-1E+10	1
4902643	9	C	09/19/2024	09:33	-134.053	43.766	0	3169.60	0	1.5900	0	34.6530	4	27.742	0	3120.783	0	97.5	4	29.1	4	-1E+10	1	-1E+10	1	-1E+10	1	-1E+10	1	-1E+10	1	-1E+10	1
4902643	9	C	09/19/2024	09:33	-134.053	43.766	0	3189.60	0	1.5860	0	34.6540	4	27.743	0	3140.331	0	98.1	4	29.3	4	-1E+10	1	-1E+10	1	-1E+10	1	-1E+10	1	-1E+10	1	-1E+10	1
4902643	9	C	09/19/2024	09:33	-134.053	43.766	0	3209.10	0	1.5820	0	34.6550	4	27.745	0	3159.388	0	98.6	4	29.4	4	-1E+10	1	-1E+10	1	-1E+10	1	-1E+10	1	-1E+10	1	-1E+10	1
4902643	9	C	09/19/2024	09:33	-134.053	43.766	0	3229.80	0	1.5790	0	34.6550	4	27.745	0	3179.616	0	99.1	4	29.6	4	-1E+10	1	-1E+10	1	-1E+10	1	-1E+10	1	-1E+10	1	-1E+10	1
4902643	9	C	09/19/2024	09:33	-134.053	43.766	0	3249.30	0	1.5760	0	34.6560	4	27.746	0	3198.670	0	99.7	4	29.8	4	-1E+10	1	-1E+10	1	-1E+10	1	-1E+10	1	-1E+10	1	-1E+10	1
4902643	9	C	09/19/2024	09:33	-134.053	43.766	0	3269.80	0	1.5730	0	34.6560	4	27.746	0	3218.699	0	100.3	4	29.9	4	-1E+10	1	-1E+10	1	-1E+10	1	-1E+10	1	-1E+10	1	-1E+10	1
4902643	9	C	09/19/2024	09:33	-134.053	43.766	0	3289.80	0	1.5710	0	34.6570	4	27.748	0	3238.238	0	101.0	4	30.1	4	-1E+10	1	-1E+10	1	-1E+10	1	-1E+10	1	-1E+10	1	-1E+10	1
4902643	9	C	09/19/2024	09:33	-134.053	43.766	0	3309.50	0	1.5670	0	34.6580	4	27.749	0	3257.482	0	101.5	4	30.3	4	-1E+10	1	-1E+10	1	-1E+10	1	-1E+10	1	-1E+10	1	-1E+10	1
4902643	9	C	09/19/2024	09:33	-134.053	43.766	0	3329.50	0	1.5650	0	34.6580	4	27.749	0	3277.017	0	102.0	4	30.4	4	-1E+10	1	-1E+10	1	-1E+10	1	-1E+10	1	-1E+10	1	-1E+10	1
4902643	9	C	09/19/2024	09:33	-134.053	43.766	0	3349.80	0	1.5640	0	34.6580	4	27.749	0	3296.844	0	102.3	4	30.5	4	-1E+10	1	-1E+10	1	-1E+10	1	-1E+10	1	-1E+10	1	-1E+10	1
4902643	9	C	09/19/2024	09:33	-134.053	43.766	0	3370.00	0	1.5630	0	34.6590	4	27.750	0	3316.571	0	102.7	4	30.6	4	-1E+10	1	-1E+10	1	-1E+10	1	-1E+10	1	-1E+10	1	-1E+10	1
4902643	9	C	09/19/2024	09:33	-134.053	43.766	0	3389.90	0	1.5620	0	34.6590	4	27.750	0	3336.004	0	103.1	4	30.8	4	-1E+10	1	-1E+10	1	-1E+10	1	-1E+10	1	-1E+10	1	-1E+10	1
4902643	9	C	09/19/2024	09:33	-134.053	43.766	0	3410.50	0	1.5610	0	34.6600	4	27.751	0	3356.118	0	103.6	4	30.9	4	-1E+10	1	-1E+10	1	-1E+10	1	-1E+10	1	-1E+10	1	-1E+10	1
4902643	9	C	09/19/2024	09:33	-134.053	43.766	0	3429.50	0	1.5590	0	34.6600	4	27.752	0	3374.668	0	104.1	4	31.1	4	-1E+10	1	-1E+10	1	-1E+10	1	-1E+10	1	-1E+10	1	-1E+10	1
4902643	9	C	09/19/2024	09:33	-134.053	43.766	0	3449.80	0	1.5570	0	34.6610	4	27.753	0	3394.486	0	104.6	4	31.2	4	-1E+10	1	-1E+10	1	-1E+10	1	-1E+10	1	-1E+10	1	-1E+10	1
4902643	9	C	09/19/2024	09:33	-134.053	43.766	0	3469.90	0	1.5540	0	34.6620	4	27.754	0	3414.107	0	105.1	4	31.3	4	-1E+10	1	-1E+10	1	-1E+10	1	-1E+10	1	-1E+10	1	-1E+10	1
4902643	9	C	09/19/2024	09:33	-134.053	43.766	0	3490.20	0	1.5530	0	34.6620	4	27.754	0	3433.921	0	105.4	4	31.5	4	-1E+10	1	-1E+10	1	-1E+10	1	-1E+10	1	-1E+10	1	-1E+10	1
4902643	9	C	09/19/2024	09:33	-134.053	43.766	0	3509.90	0	1.5530	0	34.6620	4	27.754	0	3453.148	0	105.8	4	31.6	4	-1E+10	1	-1E+10	1	-1E+10	1	-1E+10	1	-1E+10	1	-1E+10	1
4902643	9	C	09/19/2024	09:33	-134.053	43.766	0	3530.00	0	1.5520	0	34.6630	4	27.755	0	3472.763	0	106.1	4	31.6	4	-1E+10	1	-1E+10	1	-1E+10	1	-1E+10	1	-1E+10	1	-1E+10	1
4902643	9	C	09/19/2024	09:33	-134.053	43.766	0	3549.70	0	1.5510	0	34.6630	4	27.756	0	3491.987	0	106.5	4	31.8	4	-1E+10	1	-1E+10	1	-1E+10	1	-1E+10	1	-1E+10	1	-1E+10	1
4902643	9	C	09/19/2024	09:33	-134.053	43.766	0	3570.40	0	1.5510	0	34.6640	4	27.757	0	3512.184	0	106.8	4	31.9	4	-1E+10	1	-1E+10	1	-1E+10	1	-1E+10	1	-1E+10	1	-1E+10	1
4902643	9	C	09/19/2024	09:33	-134.053	43.766	0	3590.10	0	1.5510	0	34.6640	4	27.757	0	3531.404	0	107.0	4	31.9	4	-1E+10	1	-1E+10	1	-1E+10	1	-1E+10	1	-1E+10	1	-1E+10	1
4902643	9	C	09/19/2024	09:33	-134.053	43.766	0	3610.20	0	1.5520	0	34.6650	4	27.758	0	3551.013	0	107.3	4	32.0	4	-1E+10	1	-1E+10	1	-1E+10	1	-1E+10	1	-1E+10	1	-1E+10	1
4902643	9	C	09/19/2024	09:33	-134.053	43.766	0	3630.20	0	1.5530	0	34.6650	4	27.758	0	3570.522	0	107.4	4	32.0	4	-1E+10	1	-1E+10	1	-1E+10	1	-1E+10	1	-1E+10	1	-1E+10	1
4902643	9	C	09/19/2024	09:33	-134.053	43.766	0	3650.30	0	1.5540	0	34.6660	4	27.759	0	3590.127	0	107.4	4	32.1	4	-1E+10	1	-1E+10	1	-1E+10	1	-1E+10	1	-1E+10	1	-1E+10	1
4902643	9	C	09/19/2024	09:33	-134.053	43.766	0	3670.60	0	1.5540	0	34.6660	4	27.759	0	3609.925	0	107.7	4	32.1	4	-1E+10	1	-1E+10	1	-1E+10	1	-1E+10	1	-1E+10	1	-1E+10	1
4902643	9	C	09/19/2024	09:33	-134.053	43.766	0	3690.00	0	1.5540	0	34.6660	4	27.759	0	3628.844	0	107.8	4	32.2	4	-1E+10	1	-1E+10	1	-1E+10	1	-1E+10	1	-1E+10	1	-1E+10	1
4902643	9	C	09/19/2024	09:33	-134.053	43.766	0	3709.90	0	1.5550	0	34.6660	4	27.759	0	3648.249	0	108.0	4	32.2	4	-1E+10	1	-1E+10	1	-1E+10	1	-1E+10	1	-1E+10	1	-1E+10	1
4902643	9	C	09/19/2024	09:33	-134.053	43.766	0	3730.00	0	1.5550	0	34.6670	4	27.760	0	3667.847	0	108.2	4	32.3	4	-1E+10	1	-1E+10	1	-1E+10	1	-1E+10	1	-1E+10	1	-1E+10	1
4902643	9	C	09/19/2024	09:33	-134.053	43.766	0	3749.80	0	1.5550	0	34.6670	4	27.760	0	3687.151	0	108.4	4	32.3	4	-1E+10	1	-1E+10	1	-1E+10	1	-1E+10	1	-1E+10	1	-1E+10	1
4902643	9	C	09/19/2024	09:33	-134.053	43.766	0	3770.00	0	1.5560	0	34.6670	4	27.760	0	3706.843	0	108.4	4	32.3	4	-1E+10	1	-1E+10	1	-1E+10	1	-1E+10	1	-1E+10	1	-1E+10	1
4902643	9	C	09/19/2024	09:33	-134.053	43.766	0	3790.50	0	1.5570	0	34.6670	4	27.760	0	3726.826	0	108.2	4	32.3	4	-1E+10	1	-1E+10	1	-1E+10	1	-1E+10	1	-1E+10	1	-1E+10	1
4902643	9	C	09/19/2024	09:33	-134.053	43.766	0	3801.30	0	1.5580	0	34.6680	4	27.761	0	3737.353	0	107.4	4	32.1	4	-1E+10	1	-1E+10	1	-1E+10	1	-1E+10	1	-1E+10	1	-1E+10	1
4902643	9	C	09/19/2024	09:33	-134.053	43.766	0																										
4902643	10	C	09/29/2024	09:27	-134.117	43.763	0	1.80	0	18.2220	0	32.7350	0	23.485	0	1.786	0	222.3	4	94.0	4	-1E+10	1	-1E+10	1	-1E+10	1	-1E+10	1	-1E+10	1	-1E+10	1
4902643	10	C	09/29/2024	09:27	-134.117	43.763	0	1.90	0	18.2290	0	32.7280	0	23.478	0	1.885	0	222.2	4	93.9	4	-1E+10	1	-1E+10	1	-1E+10	1	-1E+10	1	-1E+10	1	-1E+10	1
4902643	10	C	09/29/2024	09:27	-134.117	43.763	0	2.00	0	18.2300	0	32.7250	0	23.476	0	1.984	0	222.2	4	93.9	4	-1E+10	1	-1E+10	1	-1E+10	1	-1E+10	1	-1E+10	1	-1E+10	1
4902643	10	C	09/29/2024	09:27	-134.117	43.763	0	2.10	0	18.2200	0	32.7280	0	23.480	0	2.083	0	222.1	4	93.9	4	-1E+10	1	-1E+10	1	-1E+10	1	-1E+10	1	-1E+10	1	-1E+10	1
4902643	10	C	09/29/2024	09:27	-134.117	43.763	0	2.30	0	18.2205	0	32.7270	0	23.479	0	2.282	0	222.1	4	93.9	4	-1E+10	1	-1E+10	1	-1E+10	1	-1E+10	1	-1E+10	1	-1E+10	1
4902643	10	C	09/29/2024	09:27	-134.117	43.763	0	2.40	0	18.2150	0	32.7320	0	23.485	0	2.381	0	222.1	4	93.9	4	-1E+10	1	-1E+10	1	-1E+10	1	-1E+10	1	-1E+10	1	-1E+10	1
4902643	10	C	09/29/2024	09:27	-134.117	43.763	0	2.50	0	18.2140	0	32.7320	0	23.485	0	2.480	0	-1e10	1	-1e10	1	-1E+10	1	-1E+10	1	-1E+10	1	-1E+10	1	-1E+10	1	-1E+10	1
4902643	10	C	09/29/2024	09:27	-134.117	43.763	0	2.70	0	18.2280	0	32.7320	0	23.481	0	2.678	0	222.2	4	93.9	4	-1E+10	1	-1E+10	1	-1E+10	1	-1E+10	1	-1E+10	1	-1E+10	1
4902643	10	C	09/29/2024	09:27	-134.117	43.763	0	3.40	0	18.2400	0	32.7300	0	23.477	0	3.373	0	222.2	4	94.0	4	-1E+10	1	-1E+10	1	-1E+10	1	-1E+10	1	-1E+10	1	-1E+10	1
4902643	10	C	09/29/2024	09:27	-134.117	43.763	0	4.60	0	18.2480	0	32.7320	0	23.477	0	4.563	0	222.3	4	94.0	4	-1E+10	1	-1E+10	1	-1E+10	1	-1E+10	1	-1E+10	1	-1E+10	1
4902643	10	C	09/29/2024	09:27	-134.117	43.763	0	5.50	0	18.2500	0	32.7320	0	23.476	0	5.456	0	222.1	4	93.9	4	-1E+10	1	-1E+10	1	-1E+10	1	-1E+10	1	-1E+10	1	-1E+10	1
4902643	10	C	09/29/2024	09:27	-134.117	43.763	0	6.60	0	18.2510	0	32.7310	0	23.475	0	6.547	0	222.3	4	94.0	4	-1E+10	1	-1E+10	1	-1E+10	1	-1E+10	1	-1E+10	1	-1E+10	1
4902643	10	C	09/29/2024	09:27	-134.117	43.763	0	7.50	0	18.2530	0	32.7310	0	23.475	0	7.440	0	222.3	4	94.0	4	-1E+10	1	-1E+10	1	-1E+10	1	-1E+10	1	-1E+10	1	-1E+10	1
4902643	10	C	09/29/2024	09:27	-134.117	43.763	0	8.60	0	18.2530	0	32.7310	0	23.475	0	8.531	0	222.2	4	94.0	4	-1E+10	1	-1E+10	1	-1E+10	1	-1E+10	1	-1E+10	1	-1E+10	1
4902643	10	C	09/29/2024	09:27	-134.117	43.763	0	10.00	0	18.2510	0	32.7310	0	23.475	0	9.920	0	222.2	4	94.0	4	-1E+10	1	-1E+10	1	-1E+10	1	-1E+10	1	-1E+10	1	-1E+10	1
4902643	10	C	09/29/2024	09:27	-134.117	43.763	0	14.80	0	18.2460	0	32.7310	0	23.477	0	14.681	0	222.5	4	94.1	4	-1E+10	1	-1E+10	1	-1E+10	1	-1E+10	1	-1E+10	1	-1E+10	1
4902643	10	C	09/29/2024	09:27	-134.117	43.763	0	24.90	0	18.2300	0	32.7310	0	23.481	0	24.699	0	223.9	4	94.6	4	-1E+10	1	-1E+10	1	-1E+10	1	-1E+10	1	-1E+10	1	-1E+10	1
4902643	10	C	09/29/2024	09:27	-134.117	43.763	0	35.10	0	18.1200	0	32.7220	0	23.501	0	34.816	0	232.9	4	98.2	4	-1E+10	1	-1E+10	1	-1E+10	1	-1E+10	1	-1E+10	1	-1E+10	1
4902643	10	C	09/29/2024	09:27	-134.117	43.763	0	44.40	0	14.7620	0	32.6780	0	24.236	0	44.040	0	262.8	4	103.9	4	-1E+10	1	-1E+10	1	-1E+10	1	-1E+10	1	-1E+10	1	-1E+10	1
4902643	10	C	09/29/2024	09:27	-134.117	43.763	0	54.70	0	12.2630	0	32.6650	0	24.729	0	54.255	0	271.0	4	101.8	4	-1E+10	1	-1E+10	1	-1E+10	1	-1E+10	1	-1E+10	1	-1E+10	1
4902643	10	C	09/29/2024	09:27	-134.117	43.763	0	64.70	0	11.3830	0	32.6540	0	24.883	0	64.172	0	262.3	4	96.7	4	-1E+10	1	-1E+10	1	-1E+10	1	-1E+10	1	-1E+10	1	-1E+10	1
4902643	10	C	09/29/2024	09:27	-134.117	43.763	0	74.90	0	10.7730	0	32.6690	0	25.003	0	74.287	0	250.7	4	91.3	4	-1E+10	1	-1E+10	1	-1E+10	1	-1E+10	1	-1E+10	1	-1E+10	1
4902643	10	C	09/29/2024	09:27	-134.117	43.763	0	84.80	0	10.4570	0	32.6710	0	25.059	0	84.104	0	245.8	4	88.9	4	-1E+10	1	-1E+10	1	-1E+10	1	-1E+10	1	-1E+10	1	-1E+10	1
4902643	10	C	09/29/2024	09:27	-134.117	43.763	0	95.10	0	10.0990	0	32.6720	0	25.120	0	94.317	0	241.5	4	86.7	4	-1E+10	1	-1E+10	1	-1E+10	1	-1E+10	1	-1E+10	1	-1E+10	1
4902643	10	C	09/29/2024	09:27	-134.117	43.763	0	105.20	0	9.8540	0	32.7250	0	25.202	0	104.331	0	239.8	4	85.7	4	-1E+10	1	-1E+10	1	-1E+10	1	-1E+10	1	-1E+10	1	-1E+10	1
4902643	10	C	09/29/2024	09:27	-134.117	43.763	0	114.70	0	9.7180	0	32.7790	0	25.267	0	113.750	0	236.5	4	84.2	4	-1E+10	1	-1E+10	1	-1E+10	1	-1E+10	1	-1E+10	1	-1E+10	1
4902643	10	C	09/29/2024	09:27	-134.117	43.763	0	124.50	0	9.4750	0	32.8500	0	25.362	0	123.466	0	229.7	4	81.4	4	-1E+10	1	-1E+10	1	-1E+10	1	-1E+10	1	-1E+10	1	-1E+10	1
4902643	10	C	09/29/2024	09:27	-134.117	43.763	0	134.30	0	9.2890	0	32.9550	0	25.474	0	133.182	0	219.7	4	77.6	4	-1E+10	1	-1E+10	1	-1E+10	1	-1E+10	1	-1E+10	1	-1E+10	1
4902643	10	C	09/29/2024	09:27	-134.117	43.763	0	144.80	0	9.0050	0	33.1950	0	25.707	0	143.591	0	211.6	4	74.4	4	-1E+10	1	-1E+10	1	-1E+10	1	-1E+10	1	-1E+10	1	-1E+10	1
4902643	10	C	09/29/2024	09:27	-134.117	43.763	0	154.80	0	8.7150	0	33.3850	0	25.901	0	153.503	0	207.8	4	72.7	4	-1E+10	1	-1E+10	1	-1E+10	1	-1E+10	1	-1E+10	1	-1E+10	1
4902643	10	C	09/29/2024	09:27	-134.117	43.763	0	164.40	0	8.5010	0	33.4910	0	26.017	0	163.019	0	205.2	4	71.5	4	-1E+10	1	-1E+10	1	-1E+10	1	-1E+10	1	-1E+10	1	-1E+10	1
4902643	10	C	09/29/2024	09:27	-134.117	43.763	0	175.00	0	8.1490	0	33.5890	0	26.147	0	173.526	0	203.2	4	70.3	4	-1E+10	1	-1E+10	1	-1E+10	1	-1E+10	1	-1E+10	1	-1E+10	1
4902643	10	C	09/29/2024	09:27	-134.117	43.763	0	185.00	0	7.8840	0	33.6500	0	26.234	0	183.437	0	201.1	4	69.2	4	-1E+10	1	-1E+10	1	-1E+10	1	-1E+10	1	-1E+10	1	-1E+10	1
4902643	10	C	09/29/2024	09:27	-134.117	43.763	0	194.40	0	7.6940	0	33.6770	0	26.282	0	192.753	0	198.6	4	68.1	4	-1E+10	1	-1E+10	1	-1E+10	1	-1E+10	1	-1E+10	1	-1E+10	1
4902643	10	C	09/29/2024	09:27	-134.117	43.763	0	209.70	0	7.4780	0	33.7270	0	26.353	0	207.916	0	193.2	4	65.9	4	-1E+10	1	-1E+10	1	-1E+10	1	-1E+10	1	-1E+10	1	-1E+10	1
4902643	10	C	09/29/2024	09:27	-134.117	43.763	0	229.80	0	7.1540	0	33.7680	0	26.430	0	227.834	0	182.9	4	62.0	4	-1E+10	1	-1E+10	1	-1E+10	1	-1E+10	1	-1E+10	1	-1E+10	1
4902643	10	C	09/29/2024	09:27	-134.117	43.763	0	249.50	0	6.8710	0	33.7990	0	26.494	0	247.354	0	170.4	4	57.4	4	-1E+10	1	-1E+10	1	-1E+10	1	-1E+10	1	-1E+10	1	-1E+10	1
4902643	10	C	09/29/2024	09:27	-134.117	43.763	0	269.50	0	6.5210	0	33.8060	0	26.546	0	267.169	0	156.4	4	52.3	4	-1E+10	1	-1E+10	1	-1E+10	1	-1E+10	1	-1E+10	1	-1E+10	1
4902643	10	C	09/29/2024	09:27	-134.117	43.763	0	290.40	0	6.2330	0	33.8110	0	26.587	0	287.873	0	139.9	4	46.4	4	-1E+10	1	-1E+10	1	-1E+10	1	-1E+10	1	-1E+10	1	-1E+10	1
4902643	10	C	09/29/2024	09:27	-134.117	43.763	0	309.60	0	5.9860	0	33.8260	0	26.630	0	306.892	0	124.6	4	41.1	4	-1E+10	1	-1E+10	1	-1E+10	1	-1E+10	1	-1E+10	1	-1E+10	1
4902643	10	C	09/29/2024	09:27	-134.117	43.763	0	329.60	0	5.7770	0	33.8370	0	26.665	0	326.701	0	113.3	4	37.2	4	-1E+10	1	-1E+10	1	-1E+10	1	-1E+10	1	-1E+10	1	-1E+10	1
4902643	10	C	09/29/2024	09:27	-134.117	43.763	0	349.70	0	5.5480	0	33.8490	0	26.702	0	346.608	0	103.3	4	33.7	4	-1E+10	1	-1E+10	1	-1E+10	1	-1E+10	1	-1E+10	1	-1E+10	1
4902643	10	C	09/29/2024	09:27	-134.117	43.763	0	369.60	0	5.3640	0	33.8530	0	26.727	0	366.314	0	94.3	4	30.7	4	-1E+10	1	-1E+10	1	-1E+10	1	-1E+10	1	-1E+10	1	-1E+10	1
4902643	10	C	09/29/2024	09:27	-134.117	43.763	0	390.00	0	5.1070	0	33.8640	0	26.766	0	386.514	0	84.7	4	27.4	4	-1E+10	1	-1E+10	1	-1E+10	1	-1E+10	1	-1E+10	1	-1E+10	1
4902643	10	C	09/29/2024	09:27	-134.117	43.763	0	410.00	0	4.9270	0	33.8770	0	26.797	0	406.315	0	76.7	4	24.7	4	-1E+10	1	-1E+10	1	-1E+10	1	-1E+10	1	-1E+10	1	-1E+10	1
4902643	10	C	09/29/2024	09:27	-134.117	43.763	0	429.90	0	4.7660	0	33.8940	0	26.828	0	426.016	0	68.2	4	21.9	4	-1E+10	1	-1E+10	1	-1E+10	1	-1E+10	1	-1E+10	1	-1E+10	1
4902643	10	C	09/29/2024	09:27	-134.117	43.763	0	450.00	0	4.6200	0	33.9200	0	26.865	0	445.913	0	61.3	4	19.6	4	-1E+10	1	-1E+10	1	-1E+10	1	-1E+10	1	-1E+10	1	-1E+10	1
4902643	10	C	09/29/2024	09:27	-134.117	43.763	0	469.80	0	4.5600	0	33.9460	0	26.893	0	465.511	0	56.1	4	17.9	4	-1E+10	1	-1E+10	1	-1E+10	1	-1E+10	1	-1E+10	1	-1E+10	1
4902643	10	C	09/29/2024	09:27	-134.117	43.763	0	488.80	0	4.5050	0	33.9740	0	26.921	0	484.315	0	51.0	4	16.3	4	-1E+10	1	-1E+10	1	-1E+10	1	-1E+10	1	-1E+10	1	-1E+10	1
4902643	10	C	09/29/2024	09:27	-134.117	43.763	0	509.70	0	4.4470	0	33.9970	0	26.946	0	504.998	0	46.1	4	14.7	4	-1E+10	1	-1E+10	1	-1E+10	1	-1E+10	1	-1E+10	1	-1E+10	1
4902643	10	C	09/29/2024	09:27	-134.117	43.763	0	529.20	0	4.3780	0	34.0220	0	26.973	0	524.294	0	41.7	4	13.3	4	-1E+10	1	-1E+10	1	-1E+10	1	-1E+10	1	-1E+10	1	-1E+10	1
4902643	10	C	09/29/2024	09:27	-134.117	43.763	0	549.70	0	4.3200	0	34.0420	0	26.995	0	544.577	0	37.2	4	11.8	4	-1E+10	1	-1E+10	1	-1E+10	1	-1E+10	1	-1E+10	1	-1E+10	1
4902643	10	C	09/29/2024	09:27	-134.117	43.763	0	569.80	0	4.2640	0	34.0650	0	27.019	0	564.462	0	32.5	4	10.3	4	-1E+10	1	-1E+10	1	-1E+10	1	-1E+10	1	-1E+10	1	-1E+10	1
4902643	10	C	09/29/2024	09:27	-134.117	43.763	0	589.50	0	4.2230	0	34.0810	0	27.037	0	583.950	0	29.2	4	9.2	4	-1E+10	1	-1E+10	1	-1E+10	1	-1E+10	1	-1E+10	1	-1E+10	1
4902643	10	C	09/29/2024	09:27	-134.117	43.763	0	610.30	0	4.1730	0	34.0980	0	27.055	0	604.524	0	26.1	4	8.3	4	-1E+10	1	-1E+10	1	-1E+10	1	-1E+10	1	-1E+10	1	-1E+10	1
4902643	10	C	09/29/2024	09:27	-134.117	43.763	0	629.70	0	4.1300	0	34.1110	0	27.070	0	623.711	0	23.2	4	7.3	4	-1E+10	1	-1E+10	1	-1E+10	1	-1E+10	1	-1E+10	1	-1E+10	1
4902643	10	C	09/29/2024	09:27	-134.117	43.763	0	649.90	0	4.0950	0	34.1280	0	27.088	0	643.688	0	20.4	4	6.5	4	-1E+10	1	-1E+10	1	-1E+10	1	-1E+10	1	-1E+10	1	-1E+10	1
4902643	10	C	09/29/2024	09:27	-134.117	43.763	0	670.10	0	4.0400	0	34.1430	0	27.105	0	663.663	0	18.9	4	6.0	4	-1E+10	1	-1E+10	1	-1E+10	1	-1E+10	1	-1E+10	1	-1E+10	1
4902643	10	C	09/29/2024	09:27	-134.117	43.763	0	689.70	0	3.9830	0	34.1570	0	27.123	0	683.043	0	17.5	4	5.5	4	-1E+10	1	-1E+10	1	-1E+10	1	-1E+10	1	-1E+10	1	-1E+10	1
4902643	10	C	09/29/2024	09:27	-134.117	43.763	0	709.60	0	3.9270	0	34.1720	0	27.140	0	702.717	0	16.2	4	5.1	4	-1E+10	1	-1E+10	1	-1E+10	1	-1E+10	1	-1E+10	1	-1E+10	1
4902643	10	C	09/29/2024	09:27	-134.117	43.763	0	729.70	0	3.8830	0	34.1830	0	27.154	0	722.587	0	14.9	4	4.7	4	-1E+10	1	-1E+10	1	-1E+10	1	-1E+10	1	-1E+10	1	-1E+10	1
4902643	10	C	09/29/2024	09:27	-134.117	43.763	0	749.80	0	3.8250	0	34.1980	0	27.171	0	742.455	0	13.6	4	4.3	4	-1E+10	1	-1E+10	1	-1E+10	1	-1E+10	1	-1E+10	1	-1E+10	1
4902643	10	C	09/29/2024	09:27	-134.117	43.763	0	769.80	0	3.7750	0	34.2110	0	27.187	0	762.223	0	12.4	4	3.9	4	-1E+10	1	-1E+10	1	-1E+10	1	-1E+10	1	-1E+10	1	-1E+10	1
4902643	10	C	09/29/2024	09:27	-134.117	43.763	0	789.80	0	3.7190	0	34.2260	0	27.205	0	781.989	0	11.2	4	3.5	4	-1E+10	1	-1E+10	1	-1E+10	1	-1E+10	1	-1E+10	1	-1E+10	1
4902643	10	C	09/29/2024	09:27	-134.117	43.763	0	809.80	0	3.6690	0	34.2400	0	27.221	0	801.753	0	10.5	4	3.3	4	-1E+10	1	-1E+10	1	-1E+10	1	-1E+10	1	-1E+10	1	-1E+10	1
4902643	10	C	09/29/2024	09:27	-134.117	43.763	0	829.50	0	3.6220	0	34.2520	0	27.235	0	821.218	0	9.7	4	3.0	4	-1E+10	1	-1E+10	1	-1E+10	1	-1E+10	1	-1E+10	1	-1E+10	1
4902643	10	C	09/29/2024	09:27	-134.117	43.763	0	850.30	0	3.5800	0	34.2670	0	27.251	0	841.769	0	8.8	4	2.8	4	-1E+10	1	-1E+10	1	-1E+10	1	-1E+10	1	-1E+10	1	-1E+10	1
4902643	10	C	09/29/2024	09:27	-134.117	43.763	0	869.80	0	3.5480	0	34.2860	0	27.270	0	861.033	0	8.1	4	2.5	4	-1E+10	1	-1E+10	1	-1E+10	1	-1E+10	1	-1E+10	1	-1E+10	1
4902643	10	C	09/29/2024	09:27	-134.117	43.763	0	889.60	0	3.5190	0	34.3020	0	27.285	0	880.592	0	7.5	4	2.4	4	-1E+10	1	-1E+10	1	-1E+10	1	-1E+10	1	-1E+10	1	-1E+10	1
4902643	10	C	09/29/2024	09:27	-134.117	43.763	0	909.40	0	3.5140	0	34.3170	0	27.298	0	900.148	0	7.1	4	2.2	4	-1E+10	1	-1E+10	1	-1E+10	1	-1E+10	1	-1E+10	1	-1E+10	1
4902643	10	C	09/29/2024	09:27	-134.117	43.763	0	930.20	0	3.5100	0	34.3330	0	27.311	0	920.691	0	6.9	4	2.2	4	-1E+10	1	-1E+10	1	-1E+10	1	-1E+10	1	-1E+10	1	-1E+10	1
4902643	10	C	09/29/2024	09:27	-134.117	43.763	0	949.80	0	3.4860	0	34.3490	0	27.326	0	940.047	0	6.9	4	2.1	4	-1E+10	1	-1E+10	1	-1E+10	1	-1E+10	1	-1E+10	1	-1E+10	1
4902643	10	C	09/29/2024	09:27	-134.117	43.763	0	969.80	0	3.4550	0	34.3610	0	27.339	0	959.796	0	7.0	4	2.2	4	-1E+10	1	-1E+10	1	-1E+10	1	-1E+10	1	-1E+10	1	-1E+10	1
4902643	10	C	09/29/2024	09:27	-134.117	43.763	0	989.70	0	3.4150	0	34.3700	0	27.350	0	979.444	0	7.1	4	2.2	4	-1E+10	1	-1E+10	1	-1E+10	1	-1E+10	1	-1E+10	1	-1E+10	1
4902643	10	C	09/29/2024	09:27	-134.117	43.763	0	1009.50	0	3.3940	0	34.3800	0	27.360	0	998.991	0	7.4	4	2.3	4	-1E+10	1	-1E+10	1	-1E+10	1	-1E+10	1	-1E+10	1	-1E+10	1
4902643	10	C	09/29/2024	09:27	-134.117	43.763	0	1029.40	0	3.3480	0	34.3930	0	27.375	0	1018.636	0	7.7	4	2.4	4	-1E+10	1	-1E+10	1	-1E+10	1	-1E+10	1	-1E+10	1	-1E+10	1
4902643	10	C	09/29/2024	09:27	-134.117	43.763	0	1050.30	0	3.3080	0	34.4010	0	27.385	0	1039.266	0	8.0	4	2.5	4	-1E+10	1	-1E+10	1	-1E+10	1	-1E+10	1	-1E+10	1	-1E+10	1
4902643	10	C	09/29/2024	09:27	-134.117	43.763	0	1069.90	0	3.2830	0	34.4080	0	27.393	0	1058.610	0	8.3	4	2.6	4	-1E+10	1	-1E+10	1	-1E+10	1	-1E+10	1	-1E+10	1	-1E+10	1
4902643	10	C	09/29/2024	09:27	-134.117	43.763	0	1089.90	0	3.2510	0	34.4140	0	27.401	0	1078.348	0	8.7	4	2.7	4	-1E+10	1	-1E+10	1	-1E+10	1	-1E+10	1	-1E+10	1	-1E+10	1
4902643	10	C	09/29/2024	09:27	-134.117	43.763	0	1109.80	0	3.2250	0	34.4200	0	27.409	0	1097.985	0	9.0	4	2.8	4	-1E+10	1	-1E+10	1	-1E+10	1	-1E+10	1	-1E+10	1	-1E+10	1
4902643	10	C	09/29/2024	09:27	-134.117	43.763	0	1129.60	0	3.1950	0	34.4260	0	27.416	0	1117.521	0	9.5	4	2.9	4	-1E+10	1	-1E+10	1	-1E+10	1	-1E+10	1	-1E+10	1	-1E+10	1
4902643	10	C	09/29/2024	09:27	-134.117	43.763	0	1149.70	0	3.1670	0	34.4320	0	27.424	0	1137.352	0	10.1	4	3.1	4	-1E+10	1	-1E+10	1	-1E+10	1	-1E+10	1	-1E+10	1	-1E+10	1
4902643	10	C	09/29/2024	09:27	-134.117	43.763	0	1169.70	0	3.1400	0	34.4390	0	27.432	0	1157.082	0	10.8	4	3.3	4	-1E+10	1	-1E+10	1	-1E+10	1	-1E+10	1	-1E+10	1	-1E+10	1
4902643	10	C	09/29/2024	09:27	-134.117	43.763	0	1189.70	0	3.0960	0	34.4440	0	27.440	0	1176.811	0	11.2	4	3.5	4	-1E+10	1	-1E+10	1	-1E+10	1	-1E+10	1	-1E+10	1	-1E+10	1
4902643	10	C	09/29/2024	09:27	-134.117	43.763	0	1209.80	0	3.0470	0	34.4500	0	27.450	0	1196.636	0	11.9	4	3.7	4	-1E+10	1	-1E+10	1	-1E+10	1	-1E+10	1	-1E+10	1	-1E+10	1
4902643	10	C	09/29/2024	09:27	-134.117	43.763	0	1229.60	0	3.0140	0	34.4570	0	27.458	0	1216.163	0	12.7	4	3.9	4	-1E+10	1	-1E+10	1	-1E+10	1	-1E+10	1	-1E+10	1	-1E+10	1
4902643	10	C	09/29/2024	09:27	-134.117	43.763	0	1249.40	0	2.9840	0	34.4610	0	27.464	0	1235.689	0	12.9	4	4.0	4	-1E+10	1	-1E+10	1	-1E+10	1	-1E+10	1	-1E+10	1	-1E+10	1
4902643	10	C	09/29/2024	09:27	-134.117	43.763	0	1269.70	0	2.9310	0	34.4640	0	27.471	0	1255.705	0	13.3	4	4.1	4	-1E+10	1	-1E+10	1	-1E+10	1	-1E+10	1	-1E+10	1	-1E+10	1
4902643	10	C	09/29/2024	09:27	-134.117	43.763	0	1290.10	0	2.8860	0	34.4700	0	27.480	0	1275.819	0	14.3	4	4.4	4	-1E+10	1	-1E+10	1	-1E+10	1	-1E+10	1	-1E+10	1	-1E+10	1
4902643	10	C	09/29/2024	09:27	-134.117	43.763	0	1309.70	0	2.8490	0	34.4760	0	27.489	0	1295.141	0	15.3	4	4.7	4	-1E+10	1	-1E+10	1	-1E+10	1	-1E+10	1	-1E+10	1	-1E+10	1
4902643	10	C	09/29/2024	09:27	-134.117	43.763	0	1330.20	0	2.8200	0	34.4810	0	27.495	0	1315.350	0	16.3	4	5.0	4	-1E+10	1	-1E+10	1	-1E+10	1	-1E+10	1	-1E+10	1	-1E+10	1
4902643	10	C	09/29/2024	09:27	-134.117	43.763	0	1349.70	0	2.7830	0	34.4860	0	27.503	0	1334.570	0	17.3	4	5.3	4	-1E+10	1	-1E+10	1	-1E+10	1	-1E+10	1	-1E+10	1	-1E+10	1
4902643	10	C	09/29/2024	09:27	-134.117	43.763	0	1370.00	0	2.7500	0	34.4910	0	27.510	0	1354.577	0	18.3	4	5.6	4	-1E+10	1	-1E+10	1	-1E+10	1	-1E+10	1	-1E+10	1	-1E+10	1
4902643	10	C	09/29/2024	09:27	-134.117	43.763	0	1389.70	0	2.7200	0	34.4950	0	27.515	0	1373.992	0	19.2	4	5.9	4	-1E+10	1	-1E+10	1	-1E+10	1	-1E+10	1	-1E+10	1	-1E+10	1
4902643	10	C	09/29/2024	09:27	-134.117	43.763	0	1409.80	0	2.6780	0	34.5000	0	27.523	0	1393.798	0	20.4	4	6.3	4	-1E+10	1	-1E+10	1	-1E+10	1	-1E+10	1	-1E+10	1	-1E+10	1
4902643	10	C	09/29/2024	09:27	-134.117	43.763	0	1429.60	0	2.6440	0	34.5050	0	27.530	0	1413.307	0	21.7	4	6.6	4	-1E+10	1	-1E+10	1	-1E+10	1	-1E+10	1	-1E+10	1	-1E+10	1
4902643	10	C	09/29/2024	09:27	-134.117	43.763	0	1450.00	0	2.6070	0	34.5110	0	27.538	0	1433.405	0	23.2	4	7.1	4	-1E+10	1	-1E+10	1	-1E+10	1	-1E+10	1	-1E+10	1	-1E+10	1
4902643	10	C	09/29/2024	09:27	-134.117	43.763	0	1470.10	0	2.5790	0	34.5150	0	27.544	0	1453.206	0	24.5	4	7.5	4	-1E+10	1	-1E+10	1	-1E+10	1	-1E+10	1	-1E+10	1	-1E+10	1
4902643	10	C	09/29/2024	09:27	-134.117	43.763	0	1490.00	0	2.5480	0	34.5190	0	27.550	0	1472.808	0	25.6	4	7.8	4	-1E+10	1	-1E+10	1	-1E+10	1	-1E+10	1	-1E+10	1	-1E+10	1
4902643	10	C	09/29/2024	09:27	-134.117	43.763	0	1509.50	0	2.5230	0	34.5220	0	27.555	0	1492.014	0	26.6	4	8.1	4	-1E+10	1	-1E+10	1	-1E+10	1	-1E+10	1	-1E+10	1	-1E+10	1
4902643	10	C	09/29/2024	09:27	-134.117	43.763	0	1530.30	0	2.4940	0	34.5250	0	27.559	0	1512.499	0	27.6	4	8.4	4	-1E+10	1	-1E+10	1	-1E+10	1	-1E+10	1	-1E+10	1	-1E+10	1
4902643	10	C	09/29/2024	09:27	-134.117	43.763	0	1549.50	0	2.4600	0	34.5280	0	27.565	0	1531.406	0	28.6	4	8.7	4	-1E+10	1	-1E+10	1	-1E+10	1	-1E+10	1	-1E+10	1	-1E+10	1
4902643	10	C	09/29/2024	09:27	-134.117	43.763	0	1569.50	0	2.4310	0	34.5320	0	27.571	0	1551.099	0	30.0	4	9.1	4	-1E+10	1	-1E+10	1	-1E+10	1	-1E+10	1	-1E+10	1	-1E+10	1
4902643	10	C	09/29/2024	09:27	-134.117	43.763	0	1589.50	0	2.4060	0	34.5360	0	27.576	0	1570.791	0	31.0	4	9.4	4	-1E+10	1	-1E+10	1	-1E+10	1	-1E+10	1	-1E+10	1	-1E+10	1
4902643	10	C	09/29/2024	09:27	-134.117	43.763	0	1609.50	0	2.3760	0	34.5380	0	27.580	0	1590.480	0	31.6	4	9.6	4	-1E+10	1	-1E+10	1	-1E+10	1	-1E+10	1	-1E+10	1	-1E+10	1
4902643	10	C	09/29/2024	09:27	-134.117	43.763	0	1629.70	0	2.3420	0	34.5410	0	27.585	0	1610.365	0	32.3	4	9.8	4	-1E+10	1	-1E+10	1	-1E+10	1	-1E+10	1	-1E+10	1	-1E+10	1
4902643	10	C	09/29/2024	09:27	-134.117	43.763	0	1649.60	0	2.3120	0	34.5440	0	27.590	0	1629.952	0	33.2	4	10.1	4	-1E+10	1	-1E+10	1	-1E+10	1	-1E+10	1	-1E+10	1	-1E+10	1
4902643	10	C	09/29/2024	09:27	-134.117	43.763	0	1669.60	0	2.2850	0	34.5470	0	27.595	0	1649.636	0	34.2	4	10.4	4	-1E+10	1	-1E+10	1	-1E+10	1	-1E+10	1	-1E+10	1	-1E+10	1
4902643	10	C	09/29/2024	09:27	-134.117	43.763	0	1689.90	0	2.2580	0	34.5500	0	27.600	0	1669.614	0	35.6	4	10.8	4	-1E+10	1	-1E+10	1	-1E+10	1	-1E+10	1	-1E+10	1	-1E+10	1
4902643	10	C	09/29/2024	09:27	-134.117	43.763	0	1709.70	0	2.2320	0	34.5540	0	27.605	0	1689.097	0	36.9	4	11.2	4	-1E+10	1	-1E+10	1	-1E+10	1	-1E+10	1	-1E+10	1	-1E+10	1
4902643	10	C	09/29/2024	09:27	-134.117	43.763	0	1729.70	0	2.2080	0	34.5570	0	27.610	0	1708.775	0	38.0	4	11.5	4	-1E+10	1	-1E+10	1	-1E+10	1	-1E+10	1	-1E+10	1	-1E+10	1
4902643	10	C	09/29/2024	09:27	-134.117	43.763	0	1749.90	0	2.1860	0	34.5600	0	27.614	0	1728.649	0	39.3	4	11.9	4	-1E+10	1	-1E+10	1	-1E+10	1	-1E+10	1	-1E+10	1	-1E+10	1
4902643	10	C	09/29/2024	09:27	-134.117	43.763	0	1769.90	0	2.1650	0	34.5630	0	27.618	0	1748.324	0	40.5	4	12.3	4	-1E+10	1	-1E+10	1	-1E+10	1	-1E+10	1	-1E+10	1	-1E+10	1
4902643	10	C	09/29/2024	09:27	-134.117	43.763	0	1789.90	0	2.1420	0	34.5660	0	27.622	0	1767.997	0	41.9	4	12.7	4	-1E+10	1	-1E+10	1	-1E+10	1	-1E+10	1	-1E+10	1	-1E+10	1
4902643	10	C	09/29/2024	09:27	-134.117	43.763	0	1810.10	0	2.1160	0	34.5690	0	27.627	0	1787.865	0	43.4	4	13.1	4	-1E+10	1	-1E+10	1	-1E+10	1	-1E+10	1	-1E+10	1	-1E+10	1
4902643	10	C	09/29/2024	09:27	-134.117	43.763	0	1829.70	0	2.0920	0	34.5730	0	27.632	0	1807.140	0	44.9	4	13.6	4	-1E+10	1	-1E+10	1	-1E+10	1	-1E+10	1	-1E+10	1	-1E+10	1
4902643	10	C	09/29/2024	09:27	-134.117	43.763	0	1849.70	0	2.0700	0	34.5760	0	27.636	0	1826.808	0	46.2	4	14.0	4	-1E+10	1	-1E+10	1	-1E+10	1	-1E+10	1	-1E+10	1	-1E+10	1
4902643	10	C	09/29/2024	09:27	-134.117	43.763	0	1869.80	0	2.0520	0	34.5790	0	27.640	0	1846.572	0	47.6	4	14.4	4	-1E+10	1	-1E+10	1	-1E+10	1	-1E+10	1	-1E+10	1	-1E+10	1
4902643	10	C	09/29/2024	09:27	-134.117	43.763	0	1889.80	0	2.0320	0	34.5820	0	27.644	0	1866.236	0	48.9	4	14.8	4	-1E+10	1	-1E+10	1	-1E+10	1	-1E+10	1	-1E+10	1	-1E+10	1
4902643	10	C	09/29/2024	09:27	-134.117	43.763	0	1909.80	0	2.0150	0	34.5850	0	27.648	0	1885.898	0	50.2	4	15.2	4	-1E+10	1	-1E+10	1	-1E+10	1	-1E+10	1	-1E+10	1	-1E+10	1
4902643	10	C	09/29/2024	09:27	-134.117	43.763	0	1930.40	0	1.9990	0	34.5880	0	27.652	0	1906.148	0	51.4	4	15.5	4	-1E+10	1	-1E+10	1	-1E+10	1	-1E+10	1	-1E+10	1	-1E+10	1
4902643	10	C	09/29/2024	09:27	-134.117	43.763	0	1949.70	0	1.9830	0	34.5900	0	27.655	0	1925.118	0	52.7	4	15.9	4	-1E+10	1	-1E+10	1	-1E+10	1	-1E+10	1	-1E+10	1	-1E+10	1
4902643	10	C	09/29/2024	09:27	-134.117	43.763	0	1969.40	0	1.9650	0	34.5920	0	27.658	0	1944.480	0	53.9	4	16.2	4	-1E+10	1	-1E+10	1	-1E+10	1	-1E+10	1	-1E+10	1	-1E+10	1
4902643	10	C	09/29/2024	09:27	-134.117	43.763	0	1989.40	0	1.9480	0	34.5950	0	27.662	0	1964.135	0	55.1	4	16.6	4	-1E+10	1	-1E+10	1	-1E+10	1	-1E+10	1	-1E+10	1	-1E+10	1
4902643	10	C	09/29/2024	09:27	-134.117	43.763	0	2010.00	0	1.9340	0	34.5970	4	27.665	0	1984.377	0	56.2	4	16.9	4	-1E+10	1	-1E+10	1	-1E+10	1	-1E+10	1	-1E+10	1	-1E+10	1
4902643	10	C	09/29/2024	09:27	-134.117	43.763	0	2029.50	0	1.9240	0	34.5990	4	27.667	0	2003.537	0	57.1	4	17.2	4	-1E+10	1	-1E+10	1	-1E+10	1	-1E+10	1	-1E+10	1	-1E+10	1
4902643	10	C	09/29/2024	09:27	-134.117	43.763	0	2049.60	0	1.9140	0	34.6010	4	27.670	0	2023.285	0	58.0	4	17.4	4	-1E+10	1	-1E+10	1	-1E+10	1	-1E+10	1	-1E+10	1	-1E+10	1
4902643	10	C	09/29/2024	09:27	-134.117	43.763	0	2069.80	0	1.9050	0	34.6020	4	27.671	0	2043.129	0	58.9	4	17.7	4	-1E+10	1	-1E+10	1	-1E+10	1	-1E+10	1	-1E+10	1	-1E+10	1
4902643	10	C	09/29/2024	09:27	-134.117	43.763	0	2089.70	0	1.8960	0	34.6040	4	27.674	0	2062.676	0	59.8	4	18.0	4	-1E+10	1	-1E+10	1	-1E+10	1	-1E+10	1	-1E+10	1	-1E+10	1
4902643	10	C	09/29/2024	09:27	-134.117	43.763	0	2110.20	0	1.8870	0	34.6060	4	27.676	0	2082.811	0	60.6	4	18.2	4	-1E+10	1	-1E+10	1	-1E+10	1	-1E+10	1	-1E+10	1	-1E+10	1
4902643	10	C	09/29/2024	09:27	-134.117	43.763	0	2129.70	0	1.8810	0	34.6070	4	27.677	0	2101.962	0	61.3	4	18.4	4	-1E+10	1	-1E+10	1	-1E+10	1	-1E+10	1	-1E+10	1	-1E+10	1
4902643	10	C	09/29/2024	09:27	-134.117	43.763	0	2150.00	0	1.8730	0	34.6090	4	27.680	0	2121.897	0	61.9	4	18.6	4	-1E+10	1	-1E+10	1	-1E+10	1	-1E+10	1	-1E+10	1	-1E+10	1
4902643	10	C	09/29/2024	09:27	-134.117	43.763	0	2169.90	0	1.8650	0	34.6100	4	27.681	0	2141.437	0	62.7	4	18.8	4	-1E+10	1	-1E+10	1	-1E+10	1	-1E+10	1	-1E+10	1	-1E+10	1
4902643	10	C	09/29/2024	09:27	-134.117	43.763	0	2189.70	0	1.8570	0	34.6110	4	27.683	0	2160.877	0	63.5	4	19.1	4	-1E+10	1	-1E+10	1	-1E+10	1	-1E+10	1	-1E+10	1	-1E+10	1
4902643	10	C	09/29/2024	09:27	-134.117	43.763	0	2210.30	0	1.8480	0	34.6120	4	27.684	0	2181.101	0	64.1	4	19.3	4	-1E+10	1	-1E+10	1	-1E+10	1	-1E+10	1	-1E+10	1	-1E+10	1
4902643	10	C	09/29/2024	09:27	-134.117	43.763	0	2230.00	0	1.8420	0	34.6130	4	27.686	0	2200.440	0	64.7	4	19.4	4	-1E+10	1	-1E+10	1	-1E+10	1	-1E+10	1	-1E+10	1	-1E+10	1
4902643	10	C	09/29/2024	09:27	-134.117	43.763	0	2249.80	0	1.8340	0	34.6140	4	27.687	0	2219.875	0	65.5	4	19.7	4	-1E+10	1	-1E+10	1	-1E+10	1	-1E+10	1	-1E+10	1	-1E+10	1
4902643	10	C	09/29/2024	09:27	-134.117	43.763	0	2269.40	0	1.8270	0	34.6150	4	27.689	0	2239.112	0	66.2	4	19.9	4	-1E+10	1	-1E+10	1	-1E+10	1	-1E+10	1	-1E+10	1	-1E+10	1
4902643	10	C	09/29/2024	09:27	-134.117	43.763	0	2289.50	0	1.8200	0	34.6160	4	27.690	0	2258.837	0	66.9	4	20.1	4	-1E+10	1	-1E+10	1	-1E+10	1	-1E+10	1	-1E+10	1	-1E+10	1
4902643	10	C	09/29/2024	09:27	-134.117	43.763	0	2310.20	0	1.8140	0	34.6170	4	27.691	0	2279.150	0	67.6	4	20.3	4	-1E+10	1	-1E+10	1	-1E+10	1	-1E+10	1	-1E+10	1	-1E+10	1
4902643	10	C	09/29/2024	09:27	-134.117	43.763	0	2329.50	0	1.8070	0	34.6190	4	27.694	0	2298.087	0	68.2	4	20.5	4	-1E+10	1	-1E+10	1	-1E+10	1	-1E+10	1	-1E+10	1	-1E+10	1
4902643	10	C	09/29/2024	09:27	-134.117	43.763	0	2349.50	0	1.8020	0	34.6200	4	27.695	0	2317.710	0	69.0	4	20.7	4	-1E+10	1	-1E+10	1	-1E+10	1	-1E+10	1	-1E+10	1	-1E+10	1
4902643	10	C	09/29/2024	09:27	-134.117	43.763	0	2369.60	0	1.7950	0	34.6210	4	27.696	0	2337.428	0	69.7	4	20.9	4	-1E+10	1	-1E+10	1	-1E+10	1	-1E+10	1	-1E+10	1	-1E+10	1
4902643	10	C	09/29/2024	09:27	-134.117	43.763	0	2389.80	0	1.7900	0	34.6220	4	27.698	0	2357.243	0	70.4	4	21.1	4	-1E+10	1	-1E+10	1	-1E+10	1	-1E+10	1	-1E+10	1	-1E+10	1
4902643	10	C	09/29/2024	09:27	-134.117	43.763	0	2409.80	0	1.7830	0	34.6230	4	27.699	0	2376.860	0	71.2	4	21.3	4	-1E+10	1	-1E+10	1	-1E+10	1	-1E+10	1	-1E+10	1	-1E+10	1
4902643	10	C	09/29/2024	09:27	-134.117	43.763	0	2430.20	0	1.7770	0	34.6240	4	27.701	0	2396.867	0	71.8	4	21.5	4	-1E+10	1	-1E+10	1	-1E+10	1	-1E+10	1	-1E+10	1	-1E+10	1
4902643	10	C	09/29/2024	09:27	-134.117	43.763	0	2449.50	0	1.7700	0	34.6250	4	27.702	0	2415.794	0	72.6	4	21.8	4	-1E+10	1	-1E+10	1	-1E+10	1	-1E+10	1	-1E+10	1	-1E+10	1
4902643	10	C	09/29/2024	09:27	-134.117	43.763	0	2469.70	0	1.7610	0	34.6260	4	27.704	0	2435.601	0	73.5	4	22.0	4	-1E+10	1	-1E+10	1	-1E+10	1	-1E+10	1	-1E+10	1	-1E+10	1
4902643	10	C	09/29/2024	09:27	-134.117	43.763	0	2490.10	0	1.7540	0	34.6270	4	27.705	0	2455.603	0	74.4	4	22.3	4	-1E+10	1	-1E+10	1	-1E+10	1	-1E+10	1	-1E+10	1	-1E+10	1
4902643	10	C	09/29/2024	09:27	-134.117	43.763	0	2510.00	0	1.7460	0	34.6280	4	27.707	0	2475.113	0	75.3	4	22.6	4	-1E+10	1	-1E+10	1	-1E+10	1	-1E+10	1	-1E+10	1	-1E+10	1
4902643	10	C	09/29/2024	09:27	-134.117	43.763	0	2530.00	0	1.7380	0	34.6290	4	27.708	0	2494.719	0	76.2	4	22.8	4	-1E+10	1	-1E+10	1	-1E+10	1	-1E+10	1	-1E+10	1	-1E+10	1
4902643	10	C	09/29/2024	09:27	-134.117	43.763	0	2549.70	0	1.7320	0	34.6310	4	27.710	0	2514.029	0	77.0	4	23.1	4	-1E+10	1	-1E+10	1	-1E+10	1	-1E+10	1	-1E+10	1	-1E+10	1
4902643	10	C	09/29/2024	09:27	-134.117	43.763	0	2569.30	0	1.7260	0	34.6310	4	27.711	0	2533.240	0	77.6	4	23.3	4	-1E+10	1	-1E+10	1	-1E+10	1	-1E+10	1	-1E+10	1	-1E+10	1
4902643	10	C	09/29/2024	09:27	-134.117	43.763	0	2589.50	0	1.7200	0	34.6320	4	27.712	0	2553.037	0	78.3	4	23.5	4	-1E+10	1	-1E+10	1	-1E+10	1	-1E+10	1	-1E+10	1	-1E+10	1
4902643	10	C	09/29/2024	09:27	-134.117	43.763	0	2609.70	0	1.7140	0	34.6330	4	27.714	0	2572.832	0	79.0	4	23.7	4	-1E+10	1	-1E+10	1	-1E+10	1	-1E+10	1	-1E+10	1	-1E+10	1
4902643	10	C	09/29/2024	09:27	-134.117	43.763	0	2629.70	0	1.7060	0	34.6340	4	27.715	0	2592.429	0	79.8	4	23.9	4	-1E+10	1	-1E+10	1	-1E+10	1	-1E+10	1	-1E+10	1	-1E+10	1
4902643	10	C	09/29/2024	09:27	-134.117	43.763	0	2650.00	0	1.7000	0	34.6350	4	27.716	0	2612.318	0	80.5	4	24.1	4	-1E+10	1	-1E+10	1	-1E+10	1	-1E+10	1	-1E+10	1	-1E+10	1
4902643	10	C	09/29/2024	09:27	-134.117	43.763	0	2670.10	0	1.6950	0	34.6360	4	27.718	0	2632.010	0	81.0	4	24.3	4	-1E+10	1	-1E+10	1	-1E+10	1	-1E+10	1	-1E+10	1	-1E+10	1
4902643	10	C	09/29/2024	09:27	-134.117	43.763	0	2690.60	0	1.6900	0	34.6360	4	27.718	0	2652.091	0	81.7	4	24.5	4	-1E+10	1	-1E+10	1	-1E+10	1	-1E+10	1	-1E+10	1	-1E+10	1
4902643	10	C	09/29/2024	09:27	-134.117	43.763	0	2709.60	0	1.6830	0	34.6370	4	27.720	0	2670.702	0	82.6	4	24.7	4	-1E+10	1	-1E+10	1	-1E+10	1	-1E+10	1	-1E+10	1	-1E+10	1
4902643	10	C	09/29/2024	09:27	-134.117	43.763	0	2729.80	0	1.6780	0	34.6380	4	27.721	0	2690.486	0	83.4	4	25.0	4	-1E+10	1	-1E+10	1	-1E+10	1	-1E+10	1	-1E+10	1	-1E+10	1
4902643	10	C	09/29/2024	09:27	-134.117	43.763	0	2749.80	0	1.6740	0	34.6390	4	27.722	0	2710.072	0	83.9	4	25.1	4	-1E+10	1	-1E+10	1	-1E+10	1	-1E+10	1	-1E+10	1	-1E+10	1
4902643	10	C	09/29/2024	09:27	-134.117	43.763	0	2769.80	0	1.6680	0	34.6400	4	27.724	0	2729.657	0	84.7	4	25.3	4	-1E+10	1	-1E+10	1	-1E+10	1	-1E+10	1	-1E+10	1	-1E+10	1
4902643	10	C	09/29/2024	09:27	-134.117	43.763	0	2789.90	0	1.6630	0	34.6410	4	27.725	0	2749.338	0	85.5	4	25.6	4	-1E+10	1	-1E+10	1	-1E+10	1	-1E+10	1	-1E+10	1	-1E+10	1
4902643	10	C	09/29/2024	09:27	-134.117	43.763	0	2809.80	0	1.6580	0	34.6420	4	27.726	0	2768.821	0	86.3	4	25.8	4	-1E+10	1	-1E+10	1	-1E+10	1	-1E+10	1	-1E+10	1	-1E+10	1
4902643	10	C	09/29/2024	09:27	-134.117	43.763	0	2829.80	0	1.6550	0	34.6430	4	27.727	0	2788.400	0	87.1	4	26.1	4	-1E+10	1	-1E+10	1	-1E+10	1	-1E+10	1	-1E+10	1	-1E+10	1
4902643	10	C	09/29/2024	09:27	-134.117	43.763	0	2849.70	0	1.6500	0	34.6430	4	27.728	0	2807.880	0	87.8	4	26.3	4	-1E+10	1	-1E+10	1	-1E+10	1	-1E+10	1	-1E+10	1	-1E+10	1
4902643	10	C	09/29/2024	09:27	-134.117	43.763	0	2869.40	0	1.6450	0	34.6440	4	27.729	0	2827.162	0	88.5	4	26.5	4	-1E+10	1	-1E+10	1	-1E+10	1	-1E+10	1	-1E+10	1	-1E+10	1
4902643	10	C	09/29/2024	09:27	-134.117	43.763	0	2890.50	0	1.6400	0	34.6450	4	27.730	0	2847.813	0	89.3	4	26.7	4	-1E+10	1	-1E+10	1	-1E+10	1	-1E+10	1	-1E+10	1	-1E+10	1
4902643	10	C	09/29/2024	09:27	-134.117	43.763	0	2910.10	0	1.6350	0	34.6460	4	27.732	0	2866.994	0	90.1	4	26.9	4	-1E+10	1	-1E+10	1	-1E+10	1	-1E+10	1	-1E+10	1	-1E+10	1
4902643	10	C	09/29/2024	09:27	-134.117	43.763	0	2929.70	0	1.6310	0	34.6470	4	27.733	0	2886.173	0	90.8	4	27.1	4	-1E+10	1	-1E+10	1	-1E+10	1	-1E+10	1	-1E+10	1	-1E+10	1
4902643	10	C	09/29/2024	09:27	-134.117	43.763	0	2949.90	0	1.6280	0	34.6470	4	27.733	0	2905.937	0	91.5	4	27.4	4	-1E+10	1	-1E+10	1	-1E+10	1	-1E+10	1	-1E+10	1	-1E+10	1
4902643	10	C	09/29/2024	09:27	-134.117	43.763	0	2969.60	0	1.6220	0	34.6480	4	27.735	0	2925.211	0	92.1	4	27.5	4	-1E+10	1	-1E+10	1	-1E+10	1	-1E+10	1	-1E+10	1	-1E+10	1
4902643	10	C	09/29/2024	09:27	-134.117	43.763	0	2989.50	0	1.6190	0	34.6490	4	27.736	0	2944.678	0	92.8	4	27.7	4	-1E+10	1	-1E+10	1	-1E+10	1	-1E+10	1	-1E+10	1	-1E+10	1
4902643	10	C	09/29/2024	09:27	-134.117	43.763	0	3009.80	0	1.6150	0	34.6490	4	27.736	0	2964.535	0	93.5	4	27.9	4	-1E+10	1	-1E+10	1	-1E+10	1	-1E+10	1	-1E+10	1	-1E+10	1
4902643	10	C	09/29/2024	09:27	-134.117	43.763	0	3029.80	0	1.6100	0	34.6500	4	27.737	0	2984.097	0	94.1	4	28.1	4	-1E+10	1	-1E+10	1	-1E+10	1	-1E+10	1	-1E+10	1	-1E+10	1
4902643	10	C	09/29/2024	09:27	-134.117	43.763	0	3049.50	0	1.6060	0	34.6510	4	27.739	0	3003.363	0	94.8	4	28.3	4	-1E+10	1	-1E+10	1	-1E+10	1	-1E+10	1	-1E+10	1	-1E+10	1
4902643	10	C	09/29/2024	09:27	-134.117	43.763	0	3069.40	0	1.6010	0	34.6520	4	27.740	0	3022.824	0	95.5	4	28.5	4	-1E+10	1	-1E+10	1	-1E+10	1	-1E+10	1	-1E+10	1	-1E+10	1
4902643	10	C	09/29/2024	09:27	-134.117	43.763	0	3089.40	0	1.5970	0	34.6520	4	27.740	0	3042.380	0	96.1	4	28.7	4	-1E+10	1	-1E+10	1	-1E+10	1	-1E+10	1	-1E+10	1	-1E+10	1
4902643	10	C	09/29/2024	09:27	-134.117	43.763	0	3110.50	0	1.5940	0	34.6530	4	27.741	0	3063.010	0	96.6	4	28.8	4	-1E+10	1	-1E+10	1	-1E+10	1	-1E+10	1	-1E+10	1	-1E+10	1
4902643	10	C	09/29/2024	09:27	-134.117	43.763	0	3130.00	0	1.5910	0	34.6530	4	27.742	0	3082.074	0	97.2	4	29.0	4	-1E+10	1	-1E+10	1	-1E+10	1	-1E+10	1	-1E+10	1	-1E+10	1
4902643	10	C	09/29/2024	09:27	-134.117	43.763	0	3149.90	0	1.5880	0	34.6540	4	27.743	0	3101.528	0	97.7	4	29.2	4	-1E+10	1	-1E+10	1	-1E+10	1	-1E+10	1	-1E+10	1	-1E+10	1
4902643	10	C	09/29/2024	09:27	-134.117	43.763	0	3169.80	0	1.5850	0	34.6550	4	27.744	0	3120.979	0	98.2	4	29.3	4	-1E+10	1	-1E+10	1	-1E+10	1	-1E+10	1	-1E+10	1	-1E+10	1
4902643	10	C	09/29/2024	09:27	-134.117	43.763	0	3189.80	0	1.5820	0	34.6550	4	27.744	0	3140.527	0	98.6	4	29.4	4	-1E+10	1	-1E+10	1	-1E+10	1	-1E+10	1	-1E+10	1	-1E+10	1
4902643	10	C	09/29/2024	09:27	-134.117	43.763	0	3210.50	0	1.5810	0	34.6550	4	27.745	0	3160.757	0	99.1	4	29.6	4	-1E+10	1	-1E+10	1	-1E+10	1	-1E+10	1	-1E+10	1	-1E+10	1
4902643	10	C	09/29/2024	09:27	-134.117	43.763	0	3229.80	0	1.5790	0	34.6560	4	27.746	0	3179.617	0	99.5	4	29.7	4	-1E+10	1	-1E+10	1	-1E+10	1	-1E+10	1	-1E+10	1	-1E+10	1
4902643	10	C	09/29/2024	09:27	-134.117	43.763	0	3249.80	0	1.5770	0	34.6560	4	27.746	0	3199.159	0	100.0	4	29.8	4	-1E+10	1	-1E+10	1	-1E+10	1	-1E+10	1	-1E+10	1	-1E+10	1
4902643	10	C	09/29/2024	09:27	-134.117	43.763	0	3269.70	0	1.5740	0	34.6570	4	27.747	0	3218.602	0	100.5	4	30.0	4	-1E+10	1	-1E+10	1	-1E+10	1	-1E+10	1	-1E+10	1	-1E+10	1
4902643	10	C	09/29/2024	09:27	-134.117	43.763	0	3289.70	0	1.5720	0	34.6570	4	27.747	0	3238.141	0	100.9	4	30.1	4	-1E+10	1	-1E+10	1	-1E+10	1	-1E+10	1	-1E+10	1	-1E+10	1
4902643	10	C	09/29/2024	09:27	-134.117	43.763	0	3310.10	0	1.5690	0	34.6580	4	27.749	0	3258.069	0	101.3	4	30.2	4	-1E+10	1	-1E+10	1	-1E+10	1	-1E+10	1	-1E+10	1	-1E+10	1
4902643	10	C	09/29/2024	09:27	-134.117	43.763	0	3329.80	0	1.5670	0	34.6580	4	27.749	0	3277.311	0	101.8	4	30.4	4	-1E+10	1	-1E+10	1	-1E+10	1	-1E+10	1	-1E+10	1	-1E+10	1
4902643	10	C	09/29/2024	09:27	-134.117	43.763	0	3349.80	0	1.5650	0	34.6590	4	27.750	0	3296.845	0	102.3	4	30.5	4	-1E+10	1	-1E+10	1	-1E+10	1	-1E+10	1	-1E+10	1	-1E+10	1
4902643	10	C	09/29/2024	09:27	-134.117	43.763	0	3369.80	0	1.5650	0	34.6590	4	27.750	0	3316.377	0	102.7	4	30.6	4	-1E+10	1	-1E+10	1	-1E+10	1	-1E+10	1	-1E+10	1	-1E+10	1
4902643	10	C	09/29/2024	09:27	-134.117	43.763	0	3390.00	0	1.5630	0	34.6600	4	27.751	0	3336.102	0	103.0	4	30.7	4	-1E+10	1	-1E+10	1	-1E+10	1	-1E+10	1	-1E+10	1	-1E+10	1
4902643	10	C	09/29/2024	09:27	-134.117	43.763	0	3409.90	0	1.5620	0	34.6600	4	27.751	0	3355.533	0	103.3	4	30.8	4	-1E+10	1	-1E+10	1	-1E+10	1	-1E+10	1	-1E+10	1	-1E+10	1
4902643	10	C	09/29/2024	09:27	-134.117	43.763	0	3429.90	0	1.5610	0	34.6600	4	27.752	0	3375.059	0	103.7	4	31.0	4	-1E+10	1	-1E+10	1	-1E+10	1	-1E+10	1	-1E+10	1	-1E+10	1
4902643	10	C	09/29/2024	09:27	-134.117	43.763	0	3450.00	0	1.5590	0	34.6610	4	27.753	0	3394.682	0	104.2	4	31.1	4	-1E+10	1	-1E+10	1	-1E+10	1	-1E+10	1	-1E+10	1	-1E+10	1
4902643	10	C	09/29/2024	09:27	-134.117	43.763	0	3469.70	0	1.5570	0	34.6620	4	27.754	0	3413.912	0	104.6	4	31.2	4	-1E+10	1	-1E+10	1	-1E+10	1	-1E+10	1	-1E+10	1	-1E+10	1
4902643	10	C	09/29/2024	09:27	-134.117	43.763	0	3489.60	0	1.5560	0	34.6620	4	27.754	0	3433.336	0	105.0	4	31.3	4	-1E+10	1	-1E+10	1	-1E+10	1	-1E+10	1	-1E+10	1	-1E+10	1
4902643	10	C	09/29/2024	09:27	-134.117	43.763	0	3509.80	0	1.5560	0	34.6620	4	27.754	0	3453.051	0	105.3	4	31.4	4	-1E+10	1	-1E+10	1	-1E+10	1	-1E+10	1	-1E+10	1	-1E+10	1
4902643	10	C	09/29/2024	09:27	-134.117	43.763	0	3530.60	0	1.5550	0	34.6630	4	27.755	0	3473.350	0	105.8	4	31.6	4	-1E+10	1	-1E+10	1	-1E+10	1	-1E+10	1	-1E+10	1	-1E+10	1
4902643	10	C	09/29/2024	09:27	-134.117	43.763	0	3549.80	0	1.5540	0	34.6630	4	27.755	0	3492.085	0	106.2	4	31.7	4	-1E+10	1	-1E+10	1	-1E+10	1	-1E+10	1	-1E+10	1	-1E+10	1
4902643	10	C	09/29/2024	09:27	-134.117	43.763	0	3569.60	0	1.5530	0	34.6640	4	27.756	0	3511.404	0	106.4	4	31.8	4	-1E+10	1	-1E+10	1	-1E+10	1	-1E+10	1	-1E+10	1	-1E+10	1
4902643	10	C	09/29/2024	09:27	-134.117	43.763	0	3590.40	0	1.5540	0	34.6640	4	27.756	0	3531.698	0	106.8	4	31.9	4	-1E+10	1	-1E+10	1	-1E+10	1	-1E+10	1	-1E+10	1	-1E+10	1
4902643	10	C	09/29/2024	09:27	-134.117	43.763	0	3609.90	0	1.5550	0	34.6650	4	27.757	0	3550.721	0	107.1	4	32.0	4	-1E+10	1	-1E+10	1	-1E+10	1	-1E+10	1	-1E+10	1	-1E+10	1
4902643	10	C	09/29/2024	09:27	-134.117	43.763	0	3629.70	0	1.5540	0	34.6650	4	27.758	0	3570.035	0	107.4	4	32.0	4	-1E+10	1	-1E+10	1	-1E+10	1	-1E+10	1	-1E+10	1	-1E+10	1
4902643	10	C	09/29/2024	09:27	-134.117	43.763	0	3649.70	0	1.5530	0	34.6660	4	27.759	0	3589.542	0	107.6	4	32.1	4	-1E+10	1	-1E+10	1	-1E+10	1	-1E+10	1	-1E+10	1	-1E+10	1
4902643	10	C	09/29/2024	09:27	-134.117	43.763	0	3670.50	0	1.5550	0	34.6660	4	27.759	0	3609.828	0	107.7	4	32.1	4	-1E+10	1	-1E+10	1	-1E+10	1	-1E+10	1	-1E+10	1	-1E+10	1
4902643	10	C	09/29/2024	09:27	-134.117	43.763	0	3690.00	0	1.5560	0	34.6660	4	27.759	0	3628.845	0	107.7	4	32.1	4	-1E+10	1	-1E+10	1	-1E+10	1	-1E+10	1	-1E+10	1	-1E+10	1
4902643	10	C	09/29/2024	09:27	-134.117	43.763	0	3710.10	0	1.5560	0	34.6660	4	27.759	0	3648.445	0	108.0	4	32.2	4	-1E+10	1	-1E+10	1	-1E+10	1	-1E+10	1	-1E+10	1	-1E+10	1
4902643	10	C	09/29/2024	09:27	-134.117	43.763	0	3730.00	0	1.5550	0	34.6670	4	27.760	0	3667.848	0	108.4	4	32.3	4	-1E+10	1	-1E+10	1	-1E+10	1	-1E+10	1	-1E+10	1	-1E+10	1
4902643	10	C	09/29/2024	09:27	-134.117	43.763	0	3749.60	0	1.5560	0	34.6670	4	27.760	0	3686.957	0	108.5	4	32.4	4	-1E+10	1	-1E+10	1	-1E+10	1	-1E+10	1	-1E+10	1	-1E+10	1
4902643	10	C	09/29/2024	09:27	-134.117	43.763	0	3770.30	0	1.5560	0	34.6670	4	27.760	0	3707.136	0	108.6	4	32.4	4	-1E+10	1	-1E+10	1	-1E+10	1	-1E+10	1	-1E+10	1	-1E+10	1
4902643	10	C	09/29/2024	09:27	-134.117	43.763	0	3786.50	0	1.5560	0	34.6680	4	27.761	0	3722.928	0	108.0	4	32.2	4	-1E+10	1	-1E+10	1	-1E+10	1	-1E+10	1	-1E+10	1	-1E+10	1
4902643	10	C	09/29/2024	09:27	-134.117	43.763	0																										
4902643	11	C	10/09/2024	12:33	-134.167	43.775	0	1.70	0	18.1960	0	32.7765	0	23.523	0	1.686	0	221.4	4	93.6	4	-1E+10	1	-1E+10	1	-1E+10	1	-1E+10	1	-1E+10	1	-1E+10	1
4902643	11	C	10/09/2024	12:33	-134.167	43.775	0	1.80	0	18.2005	0	32.7730	0	23.519	0	1.786	0	221.3	4	93.5	4	-1E+10	1	-1E+10	1	-1E+10	1	-1E+10	1	-1E+10	1	-1E+10	1
4902643	11	C	10/09/2024	12:33	-134.167	43.775	0	1.90	0	18.1980	0	32.7740	0	23.521	0	1.885	0	221.3	4	93.5	4	-1E+10	1	-1E+10	1	-1E+10	1	-1E+10	1	-1E+10	1	-1E+10	1
4902643	11	C	10/09/2024	12:33	-134.167	43.775	0	2.00	0	18.1940	0	32.7775	0	23.524	0	1.984	0	221.3	4	93.5	4	-1E+10	1	-1E+10	1	-1E+10	1	-1E+10	1	-1E+10	1	-1E+10	1
4902643	11	C	10/09/2024	12:33	-134.167	43.775	0	2.10	0	18.1900	0	32.7820	0	23.529	0	2.083	0	221.3	4	93.5	4	-1E+10	1	-1E+10	1	-1E+10	1	-1E+10	1	-1E+10	1	-1E+10	1
4902643	11	C	10/09/2024	12:33	-134.167	43.775	0	2.20	0	18.1960	0	32.7755	0	23.522	0	2.182	0	-1e10	1	-1e10	1	-1E+10	1	-1E+10	1	-1E+10	1	-1E+10	1	-1E+10	1	-1E+10	1
4902643	11	C	10/09/2024	12:33	-134.167	43.775	0	2.70	0	18.1950	0	32.7790	0	23.525	0	2.678	0	221.3	4	93.5	4	-1E+10	1	-1E+10	1	-1E+10	1	-1E+10	1	-1E+10	1	-1E+10	1
4902643	11	C	10/09/2024	12:33	-134.167	43.775	0	3.50	0	18.1990	0	32.7830	0	23.528	0	3.472	0	221.3	4	93.5	4	-1E+10	1	-1E+10	1	-1E+10	1	-1E+10	1	-1E+10	1	-1E+10	1
4902643	11	C	10/09/2024	12:33	-134.167	43.775	0	4.40	0	18.2090	0	32.7790	0	23.522	0	4.365	0	221.3	4	93.6	4	-1E+10	1	-1E+10	1	-1E+10	1	-1E+10	1	-1E+10	1	-1E+10	1
4902643	11	C	10/09/2024	12:33	-134.167	43.775	0	5.50	0	18.2110	0	32.7770	0	23.520	0	5.456	0	221.2	4	93.5	4	-1E+10	1	-1E+10	1	-1E+10	1	-1E+10	1	-1E+10	1	-1E+10	1
4902643	11	C	10/09/2024	12:33	-134.167	43.775	0	6.60	0	18.2060	0	32.7780	0	23.522	0	6.547	0	221.3	4	93.5	4	-1E+10	1	-1E+10	1	-1E+10	1	-1E+10	1	-1E+10	1	-1E+10	1
4902643	11	C	10/09/2024	12:33	-134.167	43.775	0	7.40	0	18.2090	0	32.7770	0	23.521	0	7.341	0	221.3	4	93.5	4	-1E+10	1	-1E+10	1	-1E+10	1	-1E+10	1	-1E+10	1	-1E+10	1
4902643	11	C	10/09/2024	12:33	-134.167	43.775	0	8.70	0	18.2120	0	32.7780	0	23.521	0	8.630	0	221.2	4	93.5	4	-1E+10	1	-1E+10	1	-1E+10	1	-1E+10	1	-1E+10	1	-1E+10	1
4902643	11	C	10/09/2024	12:33	-134.167	43.775	0	9.60	0	18.2080	0	32.7770	0	23.521	0	9.523	0	221.2	4	93.5	4	-1E+10	1	-1E+10	1	-1E+10	1	-1E+10	1	-1E+10	1	-1E+10	1
4902643	11	C	10/09/2024	12:33	-134.167	43.775	0	14.80	0	18.2140	0	32.7770	0	23.520	0	14.681	0	221.3	4	93.6	4	-1E+10	1	-1E+10	1	-1E+10	1	-1E+10	1	-1E+10	1	-1E+10	1
4902643	11	C	10/09/2024	12:33	-134.167	43.775	0	25.00	0	18.2240	0	32.7770	0	23.518	0	24.798	0	221.7	4	93.8	4	-1E+10	1	-1E+10	1	-1E+10	1	-1E+10	1	-1E+10	1	-1E+10	1
4902643	11	C	10/09/2024	12:33	-134.167	43.775	0	34.80	0	18.2240	0	32.7760	0	23.517	0	34.519	0	225.0	4	95.1	4	-1E+10	1	-1E+10	1	-1E+10	1	-1E+10	1	-1E+10	1	-1E+10	1
4902643	11	C	10/09/2024	12:33	-134.167	43.775	0	45.00	0	16.6640	0	32.7310	0	23.854	0	44.635	0	248.3	4	101.9	4	-1E+10	1	-1E+10	1	-1E+10	1	-1E+10	1	-1E+10	1	-1E+10	1
4902643	11	C	10/09/2024	12:33	-134.167	43.775	0	54.30	0	13.2520	0	32.6820	0	24.550	0	53.858	0	268.1	4	102.8	4	-1E+10	1	-1E+10	1	-1E+10	1	-1E+10	1	-1E+10	1	-1E+10	1
4902643	11	C	10/09/2024	12:33	-134.167	43.775	0	64.90	0	11.6450	0	32.6940	0	24.866	0	64.370	0	262.4	4	97.3	4	-1E+10	1	-1E+10	1	-1E+10	1	-1E+10	1	-1E+10	1	-1E+10	1
4902643	11	C	10/09/2024	12:33	-134.167	43.775	0	75.20	0	10.8500	0	32.6950	0	25.009	0	74.584	0	254.0	4	92.7	4	-1E+10	1	-1E+10	1	-1E+10	1	-1E+10	1	-1E+10	1	-1E+10	1
4902643	11	C	10/09/2024	12:33	-134.167	43.775	0	85.00	0	10.4370	0	32.7140	0	25.096	0	84.302	0	247.4	4	89.5	4	-1E+10	1	-1E+10	1	-1E+10	1	-1E+10	1	-1E+10	1	-1E+10	1
4902643	11	C	10/09/2024	12:33	-134.167	43.775	0	95.10	0	10.1880	0	32.7260	0	25.147	0	94.317	0	242.5	4	87.2	4	-1E+10	1	-1E+10	1	-1E+10	1	-1E+10	1	-1E+10	1	-1E+10	1
4902643	11	C	10/09/2024	12:33	-134.167	43.775	0	105.20	0	9.9810	0	32.7590	0	25.208	0	104.331	0	238.4	4	85.4	4	-1E+10	1	-1E+10	1	-1E+10	1	-1E+10	1	-1E+10	1	-1E+10	1
4902643	11	C	10/09/2024	12:33	-134.167	43.775	0	114.90	0	9.8150	0	32.7980	0	25.266	0	113.948	0	236.0	4	84.3	4	-1E+10	1	-1E+10	1	-1E+10	1	-1E+10	1	-1E+10	1	-1E+10	1
4902643	11	C	10/09/2024	12:33	-134.167	43.775	0	124.70	0	9.5970	0	32.8410	0	25.335	0	123.664	0	231.5	4	82.3	4	-1E+10	1	-1E+10	1	-1E+10	1	-1E+10	1	-1E+10	1	-1E+10	1
4902643	11	C	10/09/2024	12:33	-134.167	43.775	0	135.60	0	9.4010	0	32.9490	0	25.452	0	134.470	0	222.2	4	78.7	4	-1E+10	1	-1E+10	1	-1E+10	1	-1E+10	1	-1E+10	1	-1E+10	1
4902643	11	C	10/09/2024	12:33	-134.167	43.775	0	145.00	0	9.1750	0	33.0880	0	25.596	0	143.789	0	215.6	4	76.1	4	-1E+10	1	-1E+10	1	-1E+10	1	-1E+10	1	-1E+10	1	-1E+10	1
4902643	11	C	10/09/2024	12:33	-134.167	43.775	0	154.90	0	8.8940	0	33.2720	0	25.785	0	153.602	0	210.1	4	73.8	4	-1E+10	1	-1E+10	1	-1E+10	1	-1E+10	1	-1E+10	1	-1E+10	1
4902643	11	C	10/09/2024	12:33	-134.167	43.775	0	164.80	0	8.6790	0	33.4170	0	25.932	0	163.415	0	206.7	4	72.3	4	-1E+10	1	-1E+10	1	-1E+10	1	-1E+10	1	-1E+10	1	-1E+10	1
4902643	11	C	10/09/2024	12:33	-134.167	43.775	0	174.80	0	8.5310	0	33.5160	0	26.032	0	173.327	0	204.1	4	71.2	4	-1E+10	1	-1E+10	1	-1E+10	1	-1E+10	1	-1E+10	1	-1E+10	1
4902643	11	C	10/09/2024	12:33	-134.167	43.775	0	185.10	0	8.2820	0	33.6050	0	26.139	0	183.536	0	201.8	4	70.1	4	-1E+10	1	-1E+10	1	-1E+10	1	-1E+10	1	-1E+10	1	-1E+10	1
4902643	11	C	10/09/2024	12:33	-134.167	43.775	0	194.60	0	8.1020	0	33.6570	0	26.207	0	192.951	0	199.6	4	69.0	4	-1E+10	1	-1E+10	1	-1E+10	1	-1E+10	1	-1E+10	1	-1E+10	1
4902643	11	C	10/09/2024	12:33	-134.167	43.775	0	209.30	0	7.8120	0	33.7100	0	26.292	0	207.519	0	195.8	4	67.3	4	-1E+10	1	-1E+10	1	-1E+10	1	-1E+10	1	-1E+10	1	-1E+10	1
4902643	11	C	10/09/2024	12:33	-134.167	43.775	0	229.60	0	7.3860	0	33.7520	0	26.386	0	227.635	0	188.5	4	64.2	4	-1E+10	1	-1E+10	1	-1E+10	1	-1E+10	1	-1E+10	1	-1E+10	1
4902643	11	C	10/09/2024	12:33	-134.167	43.775	0	249.80	0	7.0420	0	33.7860	0	26.460	0	247.651	0	177.7	4	60.1	4	-1E+10	1	-1E+10	1	-1E+10	1	-1E+10	1	-1E+10	1	-1E+10	1
4902643	11	C	10/09/2024	12:33	-134.167	43.775	0	269.90	0	6.7380	0	33.7980	0	26.511	0	267.565	0	164.4	4	55.2	4	-1E+10	1	-1E+10	1	-1E+10	1	-1E+10	1	-1E+10	1	-1E+10	1
4902643	11	C	10/09/2024	12:33	-134.167	43.775	0	289.90	0	6.4170	0	33.8040	0	26.558	0	287.378	0	149.0	4	49.7	4	-1E+10	1	-1E+10	1	-1E+10	1	-1E+10	1	-1E+10	1	-1E+10	1
4902643	11	C	10/09/2024	12:33	-134.167	43.775	0	310.60	0	6.0950	0	33.8100	0	26.604	0	307.882	0	134.1	4	44.4	4	-1E+10	1	-1E+10	1	-1E+10	1	-1E+10	1	-1E+10	1	-1E+10	1
4902643	11	C	10/09/2024	12:33	-134.167	43.775	0	329.70	0	5.8250	0	33.8170	0	26.643	0	326.800	0	120.3	4	39.6	4	-1E+10	1	-1E+10	1	-1E+10	1	-1E+10	1	-1E+10	1	-1E+10	1
4902643	11	C	10/09/2024	12:33	-134.167	43.775	0	349.40	0	5.5780	0	33.8330	0	26.686	0	346.310	0	106.2	4	34.7	4	-1E+10	1	-1E+10	1	-1E+10	1	-1E+10	1	-1E+10	1	-1E+10	1
4902643	11	C	10/09/2024	12:33	-134.167	43.775	0	369.20	0	5.3650	0	33.8530	0	26.727	0	365.918	0	94.9	4	30.9	4	-1E+10	1	-1E+10	1	-1E+10	1	-1E+10	1	-1E+10	1	-1E+10	1
4902643	11	C	10/09/2024	12:33	-134.167	43.775	0	390.20	0	5.1750	0	33.8700	0	26.763	0	386.711	0	86.7	4	28.1	4	-1E+10	1	-1E+10	1	-1E+10	1	-1E+10	1	-1E+10	1	-1E+10	1
4902643	11	C	10/09/2024	12:33	-134.167	43.775	0	409.50	0	5.0150	0	33.8820	0	26.791	0	405.820	0	79.0	4	25.5	4	-1E+10	1	-1E+10	1	-1E+10	1	-1E+10	1	-1E+10	1	-1E+10	1
4902643	11	C	10/09/2024	12:33	-134.167	43.775	0	429.80	0	4.8390	0	33.8920	0	26.819	0	425.917	0	72.1	4	23.2	4	-1E+10	1	-1E+10	1	-1E+10	1	-1E+10	1	-1E+10	1	-1E+10	1
4902643	11	C	10/09/2024	12:33	-134.167	43.775	0	449.60	0	4.7070	0	33.9090	0	26.847	0	445.517	0	65.6	4	21.0	4	-1E+10	1	-1E+10	1	-1E+10	1	-1E+10	1	-1E+10	1	-1E+10	1
4902643	11	C	10/09/2024	12:33	-134.167	43.775	0	469.30	0	4.6050	0	33.9250	0	26.871	0	465.016	0	60.2	4	19.3	4	-1E+10	1	-1E+10	1	-1E+10	1	-1E+10	1	-1E+10	1	-1E+10	1
4902643	11	C	10/09/2024	12:33	-134.167	43.775	0	490.10	0	4.5420	0	33.9520	0	26.899	0	485.601	0	55.4	4	17.7	4	-1E+10	1	-1E+10	1	-1E+10	1	-1E+10	1	-1E+10	1	-1E+10	1
4902643	11	C	10/09/2024	12:33	-134.167	43.775	0	509.80	0	4.4960	0	33.9740	0	26.922	0	505.097	0	51.1	4	16.3	4	-1E+10	1	-1E+10	1	-1E+10	1	-1E+10	1	-1E+10	1	-1E+10	1
4902643	11	C	10/09/2024	12:33	-134.167	43.775	0	529.60	0	4.4510	0	33.9950	0	26.944	0	524.689	0	46.7	4	14.9	4	-1E+10	1	-1E+10	1	-1E+10	1	-1E+10	1	-1E+10	1	-1E+10	1
4902643	11	C	10/09/2024	12:33	-134.167	43.775	0	549.70	0	4.3940	0	34.0160	0	26.967	0	544.576	0	42.7	4	13.6	4	-1E+10	1	-1E+10	1	-1E+10	1	-1E+10	1	-1E+10	1	-1E+10	1
4902643	11	C	10/09/2024	12:33	-134.167	43.775	0	569.80	0	4.3440	0	34.0330	0	26.986	0	564.462	0	39.3	4	12.5	4	-1E+10	1	-1E+10	1	-1E+10	1	-1E+10	1	-1E+10	1	-1E+10	1
4902643	11	C	10/09/2024	12:33	-134.167	43.775	0	590.50	0	4.2920	0	34.0520	0	27.006	0	584.939	0	35.6	4	11.3	4	-1E+10	1	-1E+10	1	-1E+10	1	-1E+10	1	-1E+10	1	-1E+10	1
4902643	11	C	10/09/2024	12:33	-134.167	43.775	0	609.90	0	4.2440	0	34.0690	0	27.025	0	604.128	0	32.3	4	10.2	4	-1E+10	1	-1E+10	1	-1E+10	1	-1E+10	1	-1E+10	1	-1E+10	1
4902643	11	C	10/09/2024	12:33	-134.167	43.775	0	630.00	0	4.1890	0	34.0880	0	27.046	0	624.007	0	28.7	4	9.1	4	-1E+10	1	-1E+10	1	-1E+10	1	-1E+10	1	-1E+10	1	-1E+10	1
4902643	11	C	10/09/2024	12:33	-134.167	43.775	0	649.70	0	4.1320	0	34.1060	0	27.066	0	643.490	0	26.1	4	8.3	4	-1E+10	1	-1E+10	1	-1E+10	1	-1E+10	1	-1E+10	1	-1E+10	1
4902643	11	C	10/09/2024	12:33	-134.167	43.775	0	669.40	0	4.0820	0	34.1200	0	27.083	0	662.970	0	23.7	4	7.5	4	-1E+10	1	-1E+10	1	-1E+10	1	-1E+10	1	-1E+10	1	-1E+10	1
4902643	11	C	10/09/2024	12:33	-134.167	43.775	0	689.80	0	4.0310	0	34.1370	0	27.102	0	683.141	0	20.4	4	6.4	4	-1E+10	1	-1E+10	1	-1E+10	1	-1E+10	1	-1E+10	1	-1E+10	1
4902643	11	C	10/09/2024	12:33	-134.167	43.775	0	709.80	0	3.9900	0	34.1530	0	27.119	0	702.914	0	18.4	4	5.8	4	-1E+10	1	-1E+10	1	-1E+10	1	-1E+10	1	-1E+10	1	-1E+10	1
4902643	11	C	10/09/2024	12:33	-134.167	43.775	0	730.30	0	3.9290	0	34.1690	0	27.138	0	723.179	0	16.4	4	5.2	4	-1E+10	1	-1E+10	1	-1E+10	1	-1E+10	1	-1E+10	1	-1E+10	1
4902643	11	C	10/09/2024	12:33	-134.167	43.775	0	750.30	0	3.8690	0	34.1860	0	27.158	0	742.949	0	14.7	4	4.6	4	-1E+10	1	-1E+10	1	-1E+10	1	-1E+10	1	-1E+10	1	-1E+10	1
4902643	11	C	10/09/2024	12:33	-134.167	43.775	0	769.70	0	3.8220	0	34.1990	0	27.173	0	762.123	0	13.6	4	4.3	4	-1E+10	1	-1E+10	1	-1E+10	1	-1E+10	1	-1E+10	1	-1E+10	1
4902643	11	C	10/09/2024	12:33	-134.167	43.775	0	789.70	0	3.7710	0	34.2130	0	27.189	0	781.889	0	12.4	4	3.9	4	-1E+10	1	-1E+10	1	-1E+10	1	-1E+10	1	-1E+10	1	-1E+10	1
4902643	11	C	10/09/2024	12:33	-134.167	43.775	0	810.00	0	3.7220	0	34.2260	0	27.204	0	801.949	0	11.4	4	3.6	4	-1E+10	1	-1E+10	1	-1E+10	1	-1E+10	1	-1E+10	1	-1E+10	1
4902643	11	C	10/09/2024	12:33	-134.167	43.775	0	830.80	0	3.6850	0	34.2390	0	27.219	0	822.502	0	10.3	4	3.2	4	-1E+10	1	-1E+10	1	-1E+10	1	-1E+10	1	-1E+10	1	-1E+10	1
4902643	11	C	10/09/2024	12:33	-134.167	43.775	0	850.20	0	3.6510	0	34.2520	0	27.232	0	841.669	0	9.6	4	3.0	4	-1E+10	1	-1E+10	1	-1E+10	1	-1E+10	1	-1E+10	1	-1E+10	1
4902643	11	C	10/09/2024	12:33	-134.167	43.775	0	870.00	0	3.6020	0	34.2640	0	27.247	0	861.229	0	9.2	4	2.9	4	-1E+10	1	-1E+10	1	-1E+10	1	-1E+10	1	-1E+10	1	-1E+10	1
4902643	11	C	10/09/2024	12:33	-134.167	43.775	0	890.10	0	3.5680	0	34.2730	0	27.257	0	881.084	0	8.7	4	2.7	4	-1E+10	1	-1E+10	1	-1E+10	1	-1E+10	1	-1E+10	1	-1E+10	1
4902643	11	C	10/09/2024	12:33	-134.167	43.775	0	910.20	0	3.5450	0	34.2890	0	27.273	0	900.938	0	8.0	4	2.5	4	-1E+10	1	-1E+10	1	-1E+10	1	-1E+10	1	-1E+10	1	-1E+10	1
4902643	11	C	10/09/2024	12:33	-134.167	43.775	0	930.30	0	3.5260	0	34.3030	0	27.286	0	920.789	0	7.5	4	2.4	4	-1E+10	1	-1E+10	1	-1E+10	1	-1E+10	1	-1E+10	1	-1E+10	1
4902643	11	C	10/09/2024	12:33	-134.167	43.775	0	950.00	0	3.5190	0	34.3180	0	27.298	0	940.243	0	7.2	4	2.2	4	-1E+10	1	-1E+10	1	-1E+10	1	-1E+10	1	-1E+10	1	-1E+10	1
4902643	11	C	10/09/2024	12:33	-134.167	43.775	0	969.90	0	3.4870	0	34.3280	0	27.310	0	959.893	0	7.0	4	2.2	4	-1E+10	1	-1E+10	1	-1E+10	1	-1E+10	1	-1E+10	1	-1E+10	1
4902643	11	C	10/09/2024	12:33	-134.167	43.775	0	989.90	0	3.4870	0	34.3440	0	27.323	0	979.640	0	6.9	4	2.2	4	-1E+10	1	-1E+10	1	-1E+10	1	-1E+10	1	-1E+10	1	-1E+10	1
4902643	11	C	10/09/2024	12:33	-134.167	43.775	0	1010.40	0	3.4600	0	34.3590	0	27.337	0	999.879	0	6.9	4	2.2	4	-1E+10	1	-1E+10	1	-1E+10	1	-1E+10	1	-1E+10	1	-1E+10	1
4902643	11	C	10/09/2024	12:33	-134.167	43.775	0	1030.20	0	3.4170	0	34.3710	0	27.351	0	1019.425	0	7.1	4	2.2	4	-1E+10	1	-1E+10	1	-1E+10	1	-1E+10	1	-1E+10	1	-1E+10	1
4902643	11	C	10/09/2024	12:33	-134.167	43.775	0	1049.90	0	3.3860	0	34.3840	0	27.364	0	1038.870	0	7.5	4	2.3	4	-1E+10	1	-1E+10	1	-1E+10	1	-1E+10	1	-1E+10	1	-1E+10	1
4902643	11	C	10/09/2024	12:33	-134.167	43.775	0	1069.80	0	3.3470	0	34.3920	0	27.375	0	1058.511	0	7.8	4	2.4	4	-1E+10	1	-1E+10	1	-1E+10	1	-1E+10	1	-1E+10	1	-1E+10	1
4902643	11	C	10/09/2024	12:33	-134.167	43.775	0	1089.80	0	3.3120	0	34.4020	0	27.386	0	1078.248	0	8.1	4	2.5	4	-1E+10	1	-1E+10	1	-1E+10	1	-1E+10	1	-1E+10	1	-1E+10	1
4902643	11	C	10/09/2024	12:33	-134.167	43.775	0	1109.60	0	3.2810	0	34.4100	0	27.395	0	1097.786	0	8.6	4	2.7	4	-1E+10	1	-1E+10	1	-1E+10	1	-1E+10	1	-1E+10	1	-1E+10	1
4902643	11	C	10/09/2024	12:33	-134.167	43.775	0	1129.60	0	3.2350	0	34.4200	0	27.408	0	1117.520	0	9.2	4	2.8	4	-1E+10	1	-1E+10	1	-1E+10	1	-1E+10	1	-1E+10	1	-1E+10	1
4902643	11	C	10/09/2024	12:33	-134.167	43.775	0	1150.00	0	3.1890	0	34.4290	0	27.419	0	1137.647	0	9.8	4	3.0	4	-1E+10	1	-1E+10	1	-1E+10	1	-1E+10	1	-1E+10	1	-1E+10	1
4902643	11	C	10/09/2024	12:33	-134.167	43.775	0	1170.20	0	3.1520	0	34.4370	0	27.429	0	1157.574	0	10.5	4	3.2	4	-1E+10	1	-1E+10	1	-1E+10	1	-1E+10	1	-1E+10	1	-1E+10	1
4902643	11	C	10/09/2024	12:33	-134.167	43.775	0	1190.70	0	3.1050	0	34.4440	0	27.439	0	1177.796	0	11.0	4	3.4	4	-1E+10	1	-1E+10	1	-1E+10	1	-1E+10	1	-1E+10	1	-1E+10	1
4902643	11	C	10/09/2024	12:33	-134.167	43.775	0	1209.90	0	3.0530	0	34.4490	0	27.448	0	1196.733	0	11.4	4	3.5	4	-1E+10	1	-1E+10	1	-1E+10	1	-1E+10	1	-1E+10	1	-1E+10	1
4902643	11	C	10/09/2024	12:33	-134.167	43.775	0	1229.90	0	3.0070	0	34.4550	0	27.457	0	1216.458	0	12.3	4	3.8	4	-1E+10	1	-1E+10	1	-1E+10	1	-1E+10	1	-1E+10	1	-1E+10	1
4902643	11	C	10/09/2024	12:33	-134.167	43.775	0	1249.80	0	2.9720	0	34.4630	0	27.467	0	1236.082	0	13.3	4	4.1	4	-1E+10	1	-1E+10	1	-1E+10	1	-1E+10	1	-1E+10	1	-1E+10	1
4902643	11	C	10/09/2024	12:33	-134.167	43.775	0	1269.80	0	2.9340	0	34.4690	0	27.475	0	1255.803	0	14.1	4	4.4	4	-1E+10	1	-1E+10	1	-1E+10	1	-1E+10	1	-1E+10	1	-1E+10	1
4902643	11	C	10/09/2024	12:33	-134.167	43.775	0	1290.70	0	2.8910	0	34.4730	0	27.482	0	1276.409	0	14.5	4	4.5	4	-1E+10	1	-1E+10	1	-1E+10	1	-1E+10	1	-1E+10	1	-1E+10	1
4902643	11	C	10/09/2024	12:33	-134.167	43.775	0	1309.90	0	2.8480	0	34.4770	0	27.489	0	1295.337	0	15.2	4	4.7	4	-1E+10	1	-1E+10	1	-1E+10	1	-1E+10	1	-1E+10	1	-1E+10	1
4902643	11	C	10/09/2024	12:33	-134.167	43.775	0	1329.90	0	2.8210	0	34.4820	0	27.496	0	1315.053	0	16.3	4	5.0	4	-1E+10	1	-1E+10	1	-1E+10	1	-1E+10	1	-1E+10	1	-1E+10	1
4902643	11	C	10/09/2024	12:33	-134.167	43.775	0	1349.60	0	2.7890	0	34.4880	0	27.504	0	1334.470	0	17.4	4	5.4	4	-1E+10	1	-1E+10	1	-1E+10	1	-1E+10	1	-1E+10	1	-1E+10	1
4902643	11	C	10/09/2024	12:33	-134.167	43.775	0	1369.60	0	2.7620	0	34.4920	0	27.509	0	1354.182	0	18.3	4	5.6	4	-1E+10	1	-1E+10	1	-1E+10	1	-1E+10	1	-1E+10	1	-1E+10	1
4902643	11	C	10/09/2024	12:33	-134.167	43.775	0	1389.80	0	2.7320	0	34.4950	0	27.514	0	1374.089	0	19.0	4	5.8	4	-1E+10	1	-1E+10	1	-1E+10	1	-1E+10	1	-1E+10	1	-1E+10	1
4902643	11	C	10/09/2024	12:33	-134.167	43.775	0	1409.90	0	2.6910	0	34.4990	0	27.521	0	1393.895	0	19.9	4	6.1	4	-1E+10	1	-1E+10	1	-1E+10	1	-1E+10	1	-1E+10	1	-1E+10	1
4902643	11	C	10/09/2024	12:33	-134.167	43.775	0	1429.90	0	2.6550	0	34.5030	0	27.528	0	1413.601	0	20.8	4	6.4	4	-1E+10	1	-1E+10	1	-1E+10	1	-1E+10	1	-1E+10	1	-1E+10	1
4902643	11	C	10/09/2024	12:33	-134.167	43.775	0	1450.00	0	2.6300	0	34.5060	0	27.532	0	1433.404	0	21.8	4	6.7	4	-1E+10	1	-1E+10	1	-1E+10	1	-1E+10	1	-1E+10	1	-1E+10	1
4902643	11	C	10/09/2024	12:33	-134.167	43.775	0	1470.00	0	2.5960	0	34.5120	0	27.540	0	1453.106	0	23.6	4	7.2	4	-1E+10	1	-1E+10	1	-1E+10	1	-1E+10	1	-1E+10	1	-1E+10	1
4902643	11	C	10/09/2024	12:33	-134.167	43.775	0	1490.30	0	2.5560	0	34.5180	0	27.548	0	1473.102	0	25.1	4	7.7	4	-1E+10	1	-1E+10	1	-1E+10	1	-1E+10	1	-1E+10	1	-1E+10	1
4902643	11	C	10/09/2024	12:33	-134.167	43.775	0	1510.40	0	2.5160	0	34.5220	0	27.555	0	1492.899	0	26.5	4	8.1	4	-1E+10	1	-1E+10	1	-1E+10	1	-1E+10	1	-1E+10	1	-1E+10	1
4902643	11	C	10/09/2024	12:33	-134.167	43.775	0	1530.70	0	2.4810	0	34.5270	0	27.562	0	1512.891	0	27.6	4	8.4	4	-1E+10	1	-1E+10	1	-1E+10	1	-1E+10	1	-1E+10	1	-1E+10	1
4902643	11	C	10/09/2024	12:33	-134.167	43.775	0	1549.80	0	2.4470	0	34.5300	0	27.567	0	1531.700	0	28.9	4	8.8	4	-1E+10	1	-1E+10	1	-1E+10	1	-1E+10	1	-1E+10	1	-1E+10	1
4902643	11	C	10/09/2024	12:33	-134.167	43.775	0	1569.70	0	2.4050	0	34.5340	0	27.574	0	1551.295	0	30.0	4	9.1	4	-1E+10	1	-1E+10	1	-1E+10	1	-1E+10	1	-1E+10	1	-1E+10	1
4902643	11	C	10/09/2024	12:33	-134.167	43.775	0	1589.70	0	2.3640	0	34.5370	0	27.580	0	1570.986	0	30.6	4	9.3	4	-1E+10	1	-1E+10	1	-1E+10	1	-1E+10	1	-1E+10	1	-1E+10	1
4902643	11	C	10/09/2024	12:33	-134.167	43.775	0	1610.60	0	2.3340	0	34.5400	0	27.585	0	1591.561	0	32.0	4	9.7	4	-1E+10	1	-1E+10	1	-1E+10	1	-1E+10	1	-1E+10	1	-1E+10	1
4902643	11	C	10/09/2024	12:33	-134.167	43.775	0	1630.00	0	2.3000	0	34.5450	0	27.592	0	1610.658	0	33.5	4	10.2	4	-1E+10	1	-1E+10	1	-1E+10	1	-1E+10	1	-1E+10	1	-1E+10	1
4902643	11	C	10/09/2024	12:33	-134.167	43.775	0	1650.20	0	2.2740	0	34.5480	0	27.597	0	1630.541	0	34.6	4	10.5	4	-1E+10	1	-1E+10	1	-1E+10	1	-1E+10	1	-1E+10	1	-1E+10	1
4902643	11	C	10/09/2024	12:33	-134.167	43.775	0	1670.00	0	2.2470	0	34.5520	0	27.602	0	1650.028	0	35.8	4	10.9	4	-1E+10	1	-1E+10	1	-1E+10	1	-1E+10	1	-1E+10	1	-1E+10	1
4902643	11	C	10/09/2024	12:33	-134.167	43.775	0	1690.30	0	2.2170	0	34.5560	0	27.608	0	1670.005	0	37.3	4	11.3	4	-1E+10	1	-1E+10	1	-1E+10	1	-1E+10	1	-1E+10	1	-1E+10	1
4902643	11	C	10/09/2024	12:33	-134.167	43.775	0	1709.80	0	2.1970	0	34.5580	0	27.611	0	1689.194	0	38.3	4	11.6	4	-1E+10	1	-1E+10	1	-1E+10	1	-1E+10	1	-1E+10	1	-1E+10	1
4902643	11	C	10/09/2024	12:33	-134.167	43.775	0	1730.00	0	2.1770	0	34.5610	0	27.615	0	1709.069	0	39.5	4	12.0	4	-1E+10	1	-1E+10	1	-1E+10	1	-1E+10	1	-1E+10	1	-1E+10	1
4902643	11	C	10/09/2024	12:33	-134.167	43.775	0	1749.90	0	2.1550	0	34.5640	0	27.619	0	1728.647	0	40.7	4	12.3	4	-1E+10	1	-1E+10	1	-1E+10	1	-1E+10	1	-1E+10	1	-1E+10	1
4902643	11	C	10/09/2024	12:33	-134.167	43.775	0	1770.10	0	2.1340	0	34.5670	0	27.624	0	1748.519	0	42.0	4	12.7	4	-1E+10	1	-1E+10	1	-1E+10	1	-1E+10	1	-1E+10	1	-1E+10	1
4902643	11	C	10/09/2024	12:33	-134.167	43.775	0	1789.90	0	2.1130	0	34.5700	0	27.628	0	1767.995	0	43.1	4	13.0	4	-1E+10	1	-1E+10	1	-1E+10	1	-1E+10	1	-1E+10	1	-1E+10	1
4902643	11	C	10/09/2024	12:33	-134.167	43.775	0	1809.70	0	2.1000	0	34.5720	0	27.631	0	1787.469	0	44.0	4	13.3	4	-1E+10	1	-1E+10	1	-1E+10	1	-1E+10	1	-1E+10	1	-1E+10	1
4902643	11	C	10/09/2024	12:33	-134.167	43.775	0	1829.70	0	2.0820	0	34.5740	0	27.634	0	1807.139	0	45.2	4	13.7	4	-1E+10	1	-1E+10	1	-1E+10	1	-1E+10	1	-1E+10	1	-1E+10	1
4902643	11	C	10/09/2024	12:33	-134.167	43.775	0	1849.90	0	2.0600	0	34.5770	0	27.638	0	1827.003	0	46.7	4	14.1	4	-1E+10	1	-1E+10	1	-1E+10	1	-1E+10	1	-1E+10	1	-1E+10	1
4902643	11	C	10/09/2024	12:33	-134.167	43.775	0	1870.20	0	2.0430	0	34.5800	0	27.642	0	1846.963	0	48.1	4	14.5	4	-1E+10	1	-1E+10	1	-1E+10	1	-1E+10	1	-1E+10	1	-1E+10	1
4902643	11	C	10/09/2024	12:33	-134.167	43.775	0	1890.20	0	2.0240	0	34.5840	0	27.647	0	1866.627	0	49.4	4	14.9	4	-1E+10	1	-1E+10	1	-1E+10	1	-1E+10	1	-1E+10	1	-1E+10	1
4902643	11	C	10/09/2024	12:33	-134.167	43.775	0	1910.00	0	2.0010	0	34.5860	0	27.650	0	1886.093	0	50.8	4	15.3	4	-1E+10	1	-1E+10	1	-1E+10	1	-1E+10	1	-1E+10	1	-1E+10	1
4902643	11	C	10/09/2024	12:33	-134.167	43.775	0	1930.40	0	1.9840	0	34.5900	0	27.655	0	1906.146	0	52.1	4	15.7	4	-1E+10	1	-1E+10	1	-1E+10	1	-1E+10	1	-1E+10	1	-1E+10	1
4902643	11	C	10/09/2024	12:33	-134.167	43.775	0	1949.90	0	1.9690	0	34.5920	0	27.658	0	1925.313	0	53.1	4	16.0	4	-1E+10	1	-1E+10	1	-1E+10	1	-1E+10	1	-1E+10	1	-1E+10	1
4902643	11	C	10/09/2024	12:33	-134.167	43.775	0	1970.20	0	1.9550	0	34.5930	0	27.660	0	1945.264	0	54.3	4	16.4	4	-1E+10	1	-1E+10	1	-1E+10	1	-1E+10	1	-1E+10	1	-1E+10	1
4902643	11	C	10/09/2024	12:33	-134.167	43.775	0	1990.00	0	1.9430	0	34.5960	0	27.663	0	1964.722	0	55.3	4	16.6	4	-1E+10	1	-1E+10	1	-1E+10	1	-1E+10	1	-1E+10	1	-1E+10	1
4902643	11	C	10/09/2024	12:33	-134.167	43.775	0	2009.60	0	1.9340	0	34.5970	4	27.665	0	1983.982	0	56.1	4	16.9	4	-1E+10	1	-1E+10	1	-1E+10	1	-1E+10	1	-1E+10	1	-1E+10	1
4902643	11	C	10/09/2024	12:33	-134.167	43.775	0	2030.10	0	1.9260	0	34.5990	4	27.667	0	2004.125	0	56.8	4	17.1	4	-1E+10	1	-1E+10	1	-1E+10	1	-1E+10	1	-1E+10	1	-1E+10	1
4902643	11	C	10/09/2024	12:33	-134.167	43.775	0	2049.70	0	1.9180	0	34.6000	4	27.668	0	2023.381	0	57.3	4	17.3	4	-1E+10	1	-1E+10	1	-1E+10	1	-1E+10	1	-1E+10	1	-1E+10	1
4902643	11	C	10/09/2024	12:33	-134.167	43.775	0	2070.00	0	1.9090	0	34.6020	4	27.671	0	2043.323	0	58.3	4	17.5	4	-1E+10	1	-1E+10	1	-1E+10	1	-1E+10	1	-1E+10	1	-1E+10	1
4902643	11	C	10/09/2024	12:33	-134.167	43.775	0	2089.90	0	1.9000	0	34.6030	4	27.672	0	2062.870	0	59.1	4	17.8	4	-1E+10	1	-1E+10	1	-1E+10	1	-1E+10	1	-1E+10	1	-1E+10	1
4902643	11	C	10/09/2024	12:33	-134.167	43.775	0	2109.80	0	1.8920	0	34.6050	4	27.675	0	2082.416	0	59.9	4	18.0	4	-1E+10	1	-1E+10	1	-1E+10	1	-1E+10	1	-1E+10	1	-1E+10	1
4902643	11	C	10/09/2024	12:33	-134.167	43.775	0	2130.00	0	1.8810	0	34.6060	4	27.677	0	2102.255	0	60.8	4	18.3	4	-1E+10	1	-1E+10	1	-1E+10	1	-1E+10	1	-1E+10	1	-1E+10	1
4902643	11	C	10/09/2024	12:33	-134.167	43.775	0	2150.10	0	1.8750	0	34.6070	4	27.678	0	2121.993	0	61.4	4	18.4	4	-1E+10	1	-1E+10	1	-1E+10	1	-1E+10	1	-1E+10	1	-1E+10	1
4902643	11	C	10/09/2024	12:33	-134.167	43.775	0	2169.90	0	1.8680	0	34.6090	4	27.680	0	2141.435	0	62.0	4	18.6	4	-1E+10	1	-1E+10	1	-1E+10	1	-1E+10	1	-1E+10	1	-1E+10	1
4902643	11	C	10/09/2024	12:33	-134.167	43.775	0	2189.70	0	1.8590	0	34.6100	4	27.682	0	2160.875	0	62.8	4	18.9	4	-1E+10	1	-1E+10	1	-1E+10	1	-1E+10	1	-1E+10	1	-1E+10	1
4902643	11	C	10/09/2024	12:33	-134.167	43.775	0	2209.80	0	1.8520	0	34.6110	4	27.683	0	2180.608	0	63.5	4	19.1	4	-1E+10	1	-1E+10	1	-1E+10	1	-1E+10	1	-1E+10	1	-1E+10	1
4902643	11	C	10/09/2024	12:33	-134.167	43.775	0	2230.30	0	1.8430	0	34.6130	4	27.686	0	2200.732	0	64.2	4	19.3	4	-1E+10	1	-1E+10	1	-1E+10	1	-1E+10	1	-1E+10	1	-1E+10	1
4902643	11	C	10/09/2024	12:33	-134.167	43.775	0	2249.80	0	1.8350	0	34.6140	4	27.687	0	2219.873	0	64.9	4	19.5	4	-1E+10	1	-1E+10	1	-1E+10	1	-1E+10	1	-1E+10	1	-1E+10	1
4902643	11	C	10/09/2024	12:33	-134.167	43.775	0	2270.20	0	1.8280	0	34.6150	4	27.689	0	2239.894	0	65.5	4	19.7	4	-1E+10	1	-1E+10	1	-1E+10	1	-1E+10	1	-1E+10	1	-1E+10	1
4902643	11	C	10/09/2024	12:33	-134.167	43.775	0	2290.30	0	1.8220	0	34.6160	4	27.690	0	2259.620	0	66.1	4	19.8	4	-1E+10	1	-1E+10	1	-1E+10	1	-1E+10	1	-1E+10	1	-1E+10	1
4902643	11	C	10/09/2024	12:33	-134.167	43.775	0	2310.10	0	1.8160	0	34.6170	4	27.691	0	2279.050	0	66.8	4	20.0	4	-1E+10	1	-1E+10	1	-1E+10	1	-1E+10	1	-1E+10	1	-1E+10	1
4902643	11	C	10/09/2024	12:33	-134.167	43.775	0	2329.90	0	1.8100	0	34.6180	4	27.693	0	2298.477	0	67.7	4	20.3	4	-1E+10	1	-1E+10	1	-1E+10	1	-1E+10	1	-1E+10	1	-1E+10	1
4902643	11	C	10/09/2024	12:33	-134.167	43.775	0	2350.00	0	1.8050	0	34.6190	4	27.694	0	2318.198	0	68.6	4	20.6	4	-1E+10	1	-1E+10	1	-1E+10	1	-1E+10	1	-1E+10	1	-1E+10	1
4902643	11	C	10/09/2024	12:33	-134.167	43.775	0	2370.10	0	1.7970	0	34.6210	4	27.696	0	2337.916	0	69.5	4	20.8	4	-1E+10	1	-1E+10	1	-1E+10	1	-1E+10	1	-1E+10	1	-1E+10	1
4902643	11	C	10/09/2024	12:33	-134.167	43.775	0	2390.40	0	1.7890	0	34.6220	4	27.698	0	2357.829	0	70.3	4	21.1	4	-1E+10	1	-1E+10	1	-1E+10	1	-1E+10	1	-1E+10	1	-1E+10	1
4902643	11	C	10/09/2024	12:33	-134.167	43.775	0	2410.30	0	1.7810	0	34.6230	4	27.699	0	2377.348	0	71.0	4	21.3	4	-1E+10	1	-1E+10	1	-1E+10	1	-1E+10	1	-1E+10	1	-1E+10	1
4902643	11	C	10/09/2024	12:33	-134.167	43.775	0	2430.20	0	1.7750	0	34.6240	4	27.701	0	2396.865	0	71.6	4	21.5	4	-1E+10	1	-1E+10	1	-1E+10	1	-1E+10	1	-1E+10	1	-1E+10	1
4902643	11	C	10/09/2024	12:33	-134.167	43.775	0	2449.90	0	1.7680	0	34.6250	4	27.702	0	2416.184	0	72.5	4	21.7	4	-1E+10	1	-1E+10	1	-1E+10	1	-1E+10	1	-1E+10	1	-1E+10	1
4902643	11	C	10/09/2024	12:33	-134.167	43.775	0	2470.00	0	1.7600	0	34.6260	4	27.704	0	2435.893	0	73.3	4	22.0	4	-1E+10	1	-1E+10	1	-1E+10	1	-1E+10	1	-1E+10	1	-1E+10	1
4902643	11	C	10/09/2024	12:33	-134.167	43.775	0	2490.30	0	1.7520	0	34.6270	4	27.705	0	2455.797	0	74.3	4	22.3	4	-1E+10	1	-1E+10	1	-1E+10	1	-1E+10	1	-1E+10	1	-1E+10	1
4902643	11	C	10/09/2024	12:33	-134.167	43.775	0	2509.90	0	1.7430	0	34.6280	4	27.707	0	2475.012	0	75.2	4	22.5	4	-1E+10	1	-1E+10	1	-1E+10	1	-1E+10	1	-1E+10	1	-1E+10	1
4902643	11	C	10/09/2024	12:33	-134.167	43.775	0	2529.70	0	1.7360	0	34.6300	4	27.709	0	2494.422	0	76.0	4	22.8	4	-1E+10	1	-1E+10	1	-1E+10	1	-1E+10	1	-1E+10	1	-1E+10	1
4902643	11	C	10/09/2024	12:33	-134.167	43.775	0	2550.10	0	1.7280	0	34.6310	4	27.711	0	2514.419	0	76.9	4	23.0	4	-1E+10	1	-1E+10	1	-1E+10	1	-1E+10	1	-1E+10	1	-1E+10	1
4902643	11	C	10/09/2024	12:33	-134.167	43.775	0	2569.90	0	1.7200	0	34.6320	4	27.712	0	2533.825	0	77.7	4	23.3	4	-1E+10	1	-1E+10	1	-1E+10	1	-1E+10	1	-1E+10	1	-1E+10	1
4902643	11	C	10/09/2024	12:33	-134.167	43.775	0	2589.70	0	1.7140	0	34.6330	4	27.713	0	2553.230	0	78.5	4	23.5	4	-1E+10	1	-1E+10	1	-1E+10	1	-1E+10	1	-1E+10	1	-1E+10	1
4902643	11	C	10/09/2024	12:33	-134.167	43.775	0	2609.90	0	1.7080	0	34.6340	4	27.715	0	2573.025	0	79.4	4	23.8	4	-1E+10	1	-1E+10	1	-1E+10	1	-1E+10	1	-1E+10	1	-1E+10	1
4902643	11	C	10/09/2024	12:33	-134.167	43.775	0	2630.10	0	1.7020	0	34.6350	4	27.716	0	2592.818	0	80.2	4	24.0	4	-1E+10	1	-1E+10	1	-1E+10	1	-1E+10	1	-1E+10	1	-1E+10	1
4902643	11	C	10/09/2024	12:33	-134.167	43.775	0	2650.40	0	1.6970	0	34.6360	4	27.717	0	2612.707	0	80.9	4	24.2	4	-1E+10	1	-1E+10	1	-1E+10	1	-1E+10	1	-1E+10	1	-1E+10	1
4902643	11	C	10/09/2024	12:33	-134.167	43.775	0	2670.20	0	1.6920	0	34.6360	4	27.718	0	2632.105	0	81.5	4	24.4	4	-1E+10	1	-1E+10	1	-1E+10	1	-1E+10	1	-1E+10	1	-1E+10	1
4902643	11	C	10/09/2024	12:33	-134.167	43.775	0	2690.00	0	1.6880	0	34.6370	4	27.719	0	2651.501	0	82.1	4	24.6	4	-1E+10	1	-1E+10	1	-1E+10	1	-1E+10	1	-1E+10	1	-1E+10	1
4902643	11	C	10/09/2024	12:33	-134.167	43.775	0	2710.30	0	1.6830	0	34.6380	4	27.720	0	2671.385	0	82.8	4	24.8	4	-1E+10	1	-1E+10	1	-1E+10	1	-1E+10	1	-1E+10	1	-1E+10	1
4902643	11	C	10/09/2024	12:33	-134.167	43.775	0	2729.90	0	1.6780	0	34.6390	4	27.722	0	2690.581	0	83.4	4	25.0	4	-1E+10	1	-1E+10	1	-1E+10	1	-1E+10	1	-1E+10	1	-1E+10	1
4902643	11	C	10/09/2024	12:33	-134.167	43.775	0	2749.80	0	1.6730	0	34.6390	4	27.722	0	2710.070	0	84.1	4	25.1	4	-1E+10	1	-1E+10	1	-1E+10	1	-1E+10	1	-1E+10	1	-1E+10	1
4902643	11	C	10/09/2024	12:33	-134.167	43.775	0	2769.80	0	1.6680	0	34.6400	4	27.724	0	2729.654	0	84.7	4	25.3	4	-1E+10	1	-1E+10	1	-1E+10	1	-1E+10	1	-1E+10	1	-1E+10	1
4902643	11	C	10/09/2024	12:33	-134.167	43.775	0	2789.80	0	1.6640	0	34.6410	4	27.725	0	2749.237	0	85.4	4	25.5	4	-1E+10	1	-1E+10	1	-1E+10	1	-1E+10	1	-1E+10	1	-1E+10	1
4902643	11	C	10/09/2024	12:33	-134.167	43.775	0	2810.10	0	1.6580	0	34.6420	4	27.726	0	2769.112	0	86.1	4	25.8	4	-1E+10	1	-1E+10	1	-1E+10	1	-1E+10	1	-1E+10	1	-1E+10	1
4902643	11	C	10/09/2024	12:33	-134.167	43.775	0	2830.10	0	1.6540	0	34.6420	4	27.727	0	2788.691	0	86.7	4	25.9	4	-1E+10	1	-1E+10	1	-1E+10	1	-1E+10	1	-1E+10	1	-1E+10	1
4902643	11	C	10/09/2024	12:33	-134.167	43.775	0	2850.20	0	1.6500	0	34.6430	4	27.728	0	2808.367	0	87.4	4	26.1	4	-1E+10	1	-1E+10	1	-1E+10	1	-1E+10	1	-1E+10	1	-1E+10	1
4902643	11	C	10/09/2024	12:33	-134.167	43.775	0	2870.30	0	1.6440	0	34.6440	4	27.729	0	2828.040	0	88.3	4	26.4	4	-1E+10	1	-1E+10	1	-1E+10	1	-1E+10	1	-1E+10	1	-1E+10	1
4902643	11	C	10/09/2024	12:33	-134.167	43.775	0	2890.00	0	1.6390	0	34.6450	4	27.730	0	2847.321	0	89.3	4	26.7	4	-1E+10	1	-1E+10	1	-1E+10	1	-1E+10	1	-1E+10	1	-1E+10	1
4902643	11	C	10/09/2024	12:33	-134.167	43.775	0	2910.00	0	1.6330	0	34.6460	4	27.732	0	2866.893	0	90.2	4	26.9	4	-1E+10	1	-1E+10	1	-1E+10	1	-1E+10	1	-1E+10	1	-1E+10	1
4902643	11	C	10/09/2024	12:33	-134.167	43.775	0	2929.80	0	1.6280	0	34.6470	4	27.733	0	2886.268	0	90.9	4	27.2	4	-1E+10	1	-1E+10	1	-1E+10	1	-1E+10	1	-1E+10	1	-1E+10	1
4902643	11	C	10/09/2024	12:33	-134.167	43.775	0	2950.40	0	1.6240	0	34.6480	4	27.734	0	2906.423	0	91.6	4	27.4	4	-1E+10	1	-1E+10	1	-1E+10	1	-1E+10	1	-1E+10	1	-1E+10	1
4902643	11	C	10/09/2024	12:33	-134.167	43.775	0	2969.90	0	1.6200	0	34.6480	4	27.735	0	2925.501	0	92.2	4	27.6	4	-1E+10	1	-1E+10	1	-1E+10	1	-1E+10	1	-1E+10	1	-1E+10	1
4902643	11	C	10/09/2024	12:33	-134.167	43.775	0	2990.00	0	1.6160	0	34.6490	4	27.736	0	2945.164	0	93.0	4	27.8	4	-1E+10	1	-1E+10	1	-1E+10	1	-1E+10	1	-1E+10	1	-1E+10	1
4902643	11	C	10/09/2024	12:33	-134.167	43.775	0	3010.00	0	1.6130	0	34.6500	4	27.737	0	2964.728	0	93.6	4	28.0	4	-1E+10	1	-1E+10	1	-1E+10	1	-1E+10	1	-1E+10	1	-1E+10	1
4902643	11	C	10/09/2024	12:33	-134.167	43.775	0	3030.00	0	1.6100	0	34.6500	4	27.737	0	2984.289	0	94.1	4	28.1	4	-1E+10	1	-1E+10	1	-1E+10	1	-1E+10	1	-1E+10	1	-1E+10	1
4902643	11	C	10/09/2024	12:33	-134.167	43.775	0	3050.20	0	1.6070	0	34.6510	4	27.739	0	3004.045	0	94.7	4	28.3	4	-1E+10	1	-1E+10	1	-1E+10	1	-1E+10	1	-1E+10	1	-1E+10	1
4902643	11	C	10/09/2024	12:33	-134.167	43.775	0	3070.70	0	1.6020	0	34.6520	4	27.740	0	3024.092	0	95.4	4	28.5	4	-1E+10	1	-1E+10	1	-1E+10	1	-1E+10	1	-1E+10	1	-1E+10	1
4902643	11	C	10/09/2024	12:33	-134.167	43.775	0	3089.90	0	1.5990	0	34.6520	4	27.740	0	3042.866	0	95.9	4	28.6	4	-1E+10	1	-1E+10	1	-1E+10	1	-1E+10	1	-1E+10	1	-1E+10	1
4902643	11	C	10/09/2024	12:33	-134.167	43.775	0	3109.80	0	1.5970	0	34.6530	4	27.741	0	3062.323	0	96.3	4	28.8	4	-1E+10	1	-1E+10	1	-1E+10	1	-1E+10	1	-1E+10	1	-1E+10	1
4902643	11	C	10/09/2024	12:33	-134.167	43.775	0	3129.80	0	1.5940	0	34.6530	4	27.742	0	3081.876	0	96.8	4	28.9	4	-1E+10	1	-1E+10	1	-1E+10	1	-1E+10	1	-1E+10	1	-1E+10	1
4902643	11	C	10/09/2024	12:33	-134.167	43.775	0	3150.00	0	1.5910	0	34.6540	4	27.743	0	3101.622	0	97.3	4	29.1	4	-1E+10	1	-1E+10	1	-1E+10	1	-1E+10	1	-1E+10	1	-1E+10	1
4902643	11	C	10/09/2024	12:33	-134.167	43.775	0	3170.30	0	1.5880	0	34.6540	4	27.743	0	3121.465	0	97.9	4	29.2	4	-1E+10	1	-1E+10	1	-1E+10	1	-1E+10	1	-1E+10	1	-1E+10	1
4902643	11	C	10/09/2024	12:33	-134.167	43.775	0	3190.40	0	1.5850	0	34.6550	4	27.744	0	3141.110	0	98.4	4	29.4	4	-1E+10	1	-1E+10	1	-1E+10	1	-1E+10	1	-1E+10	1	-1E+10	1
4902643	11	C	10/09/2024	12:33	-134.167	43.775	0	3210.10	0	1.5830	0	34.6550	4	27.745	0	3160.363	0	98.8	4	29.5	4	-1E+10	1	-1E+10	1	-1E+10	1	-1E+10	1	-1E+10	1	-1E+10	1
4902643	11	C	10/09/2024	12:33	-134.167	43.775	0	3229.50	0	1.5810	0	34.6560	4	27.746	0	3179.320	0	99.2	4	29.6	4	-1E+10	1	-1E+10	1	-1E+10	1	-1E+10	1	-1E+10	1	-1E+10	1
4902643	11	C	10/09/2024	12:33	-134.167	43.775	0	3249.60	0	1.5800	0	34.6560	4	27.746	0	3198.961	0	99.6	4	29.7	4	-1E+10	1	-1E+10	1	-1E+10	1	-1E+10	1	-1E+10	1	-1E+10	1
4902643	11	C	10/09/2024	12:33	-134.167	43.775	0	3270.00	0	1.5780	0	34.6570	4	27.747	0	3218.892	0	100.0	4	29.9	4	-1E+10	1	-1E+10	1	-1E+10	1	-1E+10	1	-1E+10	1	-1E+10	1
4902643	11	C	10/09/2024	12:33	-134.167	43.775	0	3289.90	0	1.5760	0	34.6570	4	27.747	0	3238.333	0	100.4	4	30.0	4	-1E+10	1	-1E+10	1	-1E+10	1	-1E+10	1	-1E+10	1	-1E+10	1
4902643	11	C	10/09/2024	12:33	-134.167	43.775	0	3309.60	0	1.5740	0	34.6570	4	27.747	0	3257.577	0	100.8	4	30.1	4	-1E+10	1	-1E+10	1	-1E+10	1	-1E+10	1	-1E+10	1	-1E+10	1
4902643	11	C	10/09/2024	12:33	-134.167	43.775	0	3329.80	0	1.5720	0	34.6580	4	27.749	0	3277.308	0	101.2	4	30.2	4	-1E+10	1	-1E+10	1	-1E+10	1	-1E+10	1	-1E+10	1	-1E+10	1
4902643	11	C	10/09/2024	12:33	-134.167	43.775	0	3349.80	0	1.5710	0	34.6580	4	27.749	0	3296.841	0	101.6	4	30.3	4	-1E+10	1	-1E+10	1	-1E+10	1	-1E+10	1	-1E+10	1	-1E+10	1
4902643	11	C	10/09/2024	12:33	-134.167	43.775	0	3369.70	0	1.5700	0	34.6590	4	27.750	0	3316.276	0	102.0	4	30.5	4	-1E+10	1	-1E+10	1	-1E+10	1	-1E+10	1	-1E+10	1	-1E+10	1
4902643	11	C	10/09/2024	12:33	-134.167	43.775	0	3390.30	0	1.5680	0	34.6590	4	27.750	0	3336.392	0	102.5	4	30.6	4	-1E+10	1	-1E+10	1	-1E+10	1	-1E+10	1	-1E+10	1	-1E+10	1
4902643	11	C	10/09/2024	12:33	-134.167	43.775	0	3409.60	0	1.5670	0	34.6600	4	27.751	0	3355.237	0	102.9	4	30.7	4	-1E+10	1	-1E+10	1	-1E+10	1	-1E+10	1	-1E+10	1	-1E+10	1
4902643	11	C	10/09/2024	12:33	-134.167	43.775	0	3429.80	0	1.5650	0	34.6600	4	27.751	0	3374.958	0	103.4	4	30.9	4	-1E+10	1	-1E+10	1	-1E+10	1	-1E+10	1	-1E+10	1	-1E+10	1
4902643	11	C	10/09/2024	12:33	-134.167	43.775	0	3450.20	0	1.5630	0	34.6610	4	27.752	0	3394.874	0	103.8	4	31.0	4	-1E+10	1	-1E+10	1	-1E+10	1	-1E+10	1	-1E+10	1	-1E+10	1
4902643	11	C	10/09/2024	12:33	-134.167	43.775	0	3470.30	0	1.5610	0	34.6610	4	27.753	0	3414.494	0	104.3	4	31.1	4	-1E+10	1	-1E+10	1	-1E+10	1	-1E+10	1	-1E+10	1	-1E+10	1
4902643	11	C	10/09/2024	12:33	-134.167	43.775	0	3490.00	0	1.5600	0	34.6620	4	27.754	0	3433.723	0	104.6	4	31.2	4	-1E+10	1	-1E+10	1	-1E+10	1	-1E+10	1	-1E+10	1	-1E+10	1
4902643	11	C	10/09/2024	12:33	-134.167	43.775	0	3509.90	0	1.5600	0	34.6620	4	27.754	0	3453.145	0	104.9	4	31.3	4	-1E+10	1	-1E+10	1	-1E+10	1	-1E+10	1	-1E+10	1	-1E+10	1
4902643	11	C	10/09/2024	12:33	-134.167	43.775	0	3530.30	0	1.5590	0	34.6620	4	27.754	0	3473.053	0	105.2	4	31.4	4	-1E+10	1	-1E+10	1	-1E+10	1	-1E+10	1	-1E+10	1	-1E+10	1
4902643	11	C	10/09/2024	12:33	-134.167	43.775	0	3550.10	0	1.5580	0	34.6630	4	27.755	0	3492.374	0	105.6	4	31.5	4	-1E+10	1	-1E+10	1	-1E+10	1	-1E+10	1	-1E+10	1	-1E+10	1
4902643	11	C	10/09/2024	12:33	-134.167	43.775	0	3570.00	0	1.5580	0	34.6630	4	27.755	0	3511.791	0	105.8	4	31.6	4	-1E+10	1	-1E+10	1	-1E+10	1	-1E+10	1	-1E+10	1	-1E+10	1
4902643	11	C	10/09/2024	12:33	-134.167	43.775	0	3589.90	0	1.5570	0	34.6630	4	27.755	0	3531.206	0	106.3	4	31.7	4	-1E+10	1	-1E+10	1	-1E+10	1	-1E+10	1	-1E+10	1	-1E+10	1
4902643	11	C	10/09/2024	12:33	-134.167	43.775	0	3610.10	0	1.5560	0	34.6640	4	27.756	0	3550.912	0	106.6	4	31.8	4	-1E+10	1	-1E+10	1	-1E+10	1	-1E+10	1	-1E+10	1	-1E+10	1
4902643	11	C	10/09/2024	12:33	-134.167	43.775	0	3629.70	0	1.5560	0	34.6650	4	27.757	0	3570.031	0	106.9	4	31.9	4	-1E+10	1	-1E+10	1	-1E+10	1	-1E+10	1	-1E+10	1	-1E+10	1
4902643	11	C	10/09/2024	12:33	-134.167	43.775	0	3650.30	0	1.5560	0	34.6650	4	27.758	0	3590.124	0	107.2	4	32.0	4	-1E+10	1	-1E+10	1	-1E+10	1	-1E+10	1	-1E+10	1	-1E+10	1
4902643	11	C	10/09/2024	12:33	-134.167	43.775	0	3669.80	0	1.5550	0	34.6650	4	27.758	0	3609.142	0	107.6	4	32.1	4	-1E+10	1	-1E+10	1	-1E+10	1	-1E+10	1	-1E+10	1	-1E+10	1
4902643	11	C	10/09/2024	12:33	-134.167	43.775	0	3689.80	0	1.5550	0	34.6660	4	27.759	0	3628.646	0	107.8	4	32.2	4	-1E+10	1	-1E+10	1	-1E+10	1	-1E+10	1	-1E+10	1	-1E+10	1
4902643	11	C	10/09/2024	12:33	-134.167	43.775	0	3709.90	0	1.5560	0	34.6660	4	27.759	0	3648.246	0	108.0	4	32.2	4	-1E+10	1	-1E+10	1	-1E+10	1	-1E+10	1	-1E+10	1	-1E+10	1
4902643	11	C	10/09/2024	12:33	-134.167	43.775	0	3729.70	0	1.5560	0	34.6660	4	27.759	0	3667.551	0	108.0	4	32.2	4	-1E+10	1	-1E+10	1	-1E+10	1	-1E+10	1	-1E+10	1	-1E+10	1
4902643	11	C	10/09/2024	12:33	-134.167	43.775	0	3749.80	0	1.5570	0	34.6670	4	27.760	0	3687.148	0	108.2	4	32.3	4	-1E+10	1	-1E+10	1	-1E+10	1	-1E+10	1	-1E+10	1	-1E+10	1
4902643	11	C	10/09/2024	12:33	-134.167	43.775	0	3770.40	0	1.5580	0	34.6670	4	27.760	0	3707.230	0	108.2	4	32.3	4	-1E+10	1	-1E+10	1	-1E+10	1	-1E+10	1	-1E+10	1	-1E+10	1
4902643	11	C	10/09/2024	12:33	-134.167	43.775	0	3786.30	0	1.5590	0	34.6670	4	27.760	0	3722.729	0	107.6	4	32.1	4	-1E+10	1	-1E+10	1	-1E+10	1	-1E+10	1	-1E+10	1	-1E+10	1
4902643	11	C	10/09/2024	12:33	-134.167	43.775	0																										
4902643	13	C	10/29/2024	12:19	-134.296	43.752	0	1.10	0	15.8330	0	32.7100	0	24.025	0	1.091	0	230.4	4	93.0	4	-1E+10	1	-1E+10	1	-1E+10	1	-1E+10	1	-1E+10	1	-1E+10	1
4902643	13	C	10/29/2024	12:19	-134.296	43.752	0	1.20	0	15.8340	0	32.7100	0	24.025	0	1.190	0	230.2	4	93.0	4	-1E+10	1	-1E+10	1	-1E+10	1	-1E+10	1	-1E+10	1	-1E+10	1
4902643	13	C	10/29/2024	12:19	-134.296	43.752	0	1.30	0	15.8290	0	32.7140	0	24.029	0	1.290	0	230.3	4	93.0	4	-1E+10	1	-1E+10	1	-1E+10	1	-1E+10	1	-1E+10	1	-1E+10	1
4902643	13	C	10/29/2024	12:19	-134.296	43.752	0	1.40	0	15.8313	0	32.7110	0	24.026	0	1.389	0	230.2	4	93.0	4	-1E+10	1	-1E+10	1	-1E+10	1	-1E+10	1	-1E+10	1	-1E+10	1
4902643	13	C	10/29/2024	12:19	-134.296	43.752	0	1.50	0	15.8270	0	32.7145	0	24.030	0	1.488	0	230.2	4	92.9	4	-1E+10	1	-1E+10	1	-1E+10	1	-1E+10	1	-1E+10	1	-1E+10	1
4902643	13	C	10/29/2024	12:19	-134.296	43.752	0	1.60	0	15.8260	0	32.7150	0	24.031	0	1.587	0	-1e10	1	-1e10	1	-1E+10	1	-1E+10	1	-1E+10	1	-1E+10	1	-1E+10	1	-1E+10	1
4902643	13	C	10/29/2024	12:19	-134.296	43.752	0	2.00	0	15.8340	0	32.7190	0	24.032	0	1.984	0	229.9	4	92.9	4	-1E+10	1	-1E+10	1	-1E+10	1	-1E+10	1	-1E+10	1	-1E+10	1
4902643	13	C	10/29/2024	12:19	-134.296	43.752	0	2.60	0	15.8410	0	32.7140	0	24.026	0	2.579	0	230.0	4	92.9	4	-1E+10	1	-1E+10	1	-1E+10	1	-1E+10	1	-1E+10	1	-1E+10	1
4902643	13	C	10/29/2024	12:19	-134.296	43.752	0	3.80	0	15.8450	0	32.7120	0	24.024	0	3.770	0	230.0	4	92.9	4	-1E+10	1	-1E+10	1	-1E+10	1	-1E+10	1	-1E+10	1	-1E+10	1
4902643	13	C	10/29/2024	12:19	-134.296	43.752	0	4.60	0	15.8460	0	32.7120	0	24.024	0	4.563	0	230.0	4	92.9	4	-1E+10	1	-1E+10	1	-1E+10	1	-1E+10	1	-1E+10	1	-1E+10	1
4902643	13	C	10/29/2024	12:19	-134.296	43.752	0	5.40	0	15.8440	0	32.7110	0	24.024	0	5.357	0	229.9	4	92.9	4	-1E+10	1	-1E+10	1	-1E+10	1	-1E+10	1	-1E+10	1	-1E+10	1
4902643	13	C	10/29/2024	12:19	-134.296	43.752	0	6.50	0	15.8460	0	32.7120	0	24.024	0	6.448	0	230.0	4	92.9	4	-1E+10	1	-1E+10	1	-1E+10	1	-1E+10	1	-1E+10	1	-1E+10	1
4902643	13	C	10/29/2024	12:19	-134.296	43.752	0	7.50	0	15.8470	0	32.7120	0	24.024	0	7.440	0	229.9	4	92.9	4	-1E+10	1	-1E+10	1	-1E+10	1	-1E+10	1	-1E+10	1	-1E+10	1
4902643	13	C	10/29/2024	12:19	-134.296	43.752	0	8.50	0	15.8460	0	32.7120	0	24.024	0	8.432	0	230.0	4	92.9	4	-1E+10	1	-1E+10	1	-1E+10	1	-1E+10	1	-1E+10	1	-1E+10	1
4902643	13	C	10/29/2024	12:19	-134.296	43.752	0	9.60	0	15.8500	0	32.7110	0	24.022	0	9.523	0	229.9	4	92.9	4	-1E+10	1	-1E+10	1	-1E+10	1	-1E+10	1	-1E+10	1	-1E+10	1
4902643	13	C	10/29/2024	12:19	-134.296	43.752	0	15.00	0	15.8500	0	32.7120	0	24.023	0	14.879	0	229.8	4	92.8	4	-1E+10	1	-1E+10	1	-1E+10	1	-1E+10	1	-1E+10	1	-1E+10	1
4902643	13	C	10/29/2024	12:19	-134.296	43.752	0	25.20	0	15.8520	0	32.7120	0	24.023	0	24.997	0	229.8	4	92.8	4	-1E+10	1	-1E+10	1	-1E+10	1	-1E+10	1	-1E+10	1	-1E+10	1
4902643	13	C	10/29/2024	12:19	-134.296	43.752	0	35.10	0	15.8540	0	32.7120	0	24.023	0	34.816	0	230.0	4	92.9	4	-1E+10	1	-1E+10	1	-1E+10	1	-1E+10	1	-1E+10	1	-1E+10	1
4902643	13	C	10/29/2024	12:19	-134.296	43.752	0	44.80	0	15.8510	0	32.7110	0	24.023	0	44.437	0	230.5	4	93.1	4	-1E+10	1	-1E+10	1	-1E+10	1	-1E+10	1	-1E+10	1	-1E+10	1
4902643	13	C	10/29/2024	12:19	-134.296	43.752	0	54.50	0	15.8510	0	32.7090	0	24.022	0	54.057	0	233.2	4	94.2	4	-1E+10	1	-1E+10	1	-1E+10	1	-1E+10	1	-1E+10	1	-1E+10	1
4902643	13	C	10/29/2024	12:19	-134.296	43.752	0	65.40	0	14.5370	0	32.7070	0	24.306	0	64.866	0	249.5	4	98.2	4	-1E+10	1	-1E+10	1	-1E+10	1	-1E+10	1	-1E+10	1	-1E+10	1
4902643	13	C	10/29/2024	12:19	-134.296	43.752	0	74.80	0	11.7280	0	32.6940	0	24.851	0	74.188	0	258.7	4	96.2	4	-1E+10	1	-1E+10	1	-1E+10	1	-1E+10	1	-1E+10	1	-1E+10	1
4902643	13	C	10/29/2024	12:19	-134.296	43.752	0	85.00	0	11.0010	0	32.7040	0	24.990	0	84.302	0	246.4	4	90.2	4	-1E+10	1	-1E+10	1	-1E+10	1	-1E+10	1	-1E+10	1	-1E+10	1
4902643	13	C	10/29/2024	12:19	-134.296	43.752	0	94.30	0	10.5680	0	32.7270	0	25.084	0	93.524	0	240.6	4	87.3	4	-1E+10	1	-1E+10	1	-1E+10	1	-1E+10	1	-1E+10	1	-1E+10	1
4902643	13	C	10/29/2024	12:19	-134.296	43.752	0	105.00	0	10.2150	0	32.7650	0	25.174	0	104.133	0	235.4	4	84.8	4	-1E+10	1	-1E+10	1	-1E+10	1	-1E+10	1	-1E+10	1	-1E+10	1
4902643	13	C	10/29/2024	12:19	-134.296	43.752	0	114.90	0	9.8970	0	32.8140	0	25.265	0	113.949	0	229.0	4	81.9	4	-1E+10	1	-1E+10	1	-1E+10	1	-1E+10	1	-1E+10	1	-1E+10	1
4902643	13	C	10/29/2024	12:19	-134.296	43.752	0	124.90	0	9.6680	0	32.9380	0	25.400	0	123.863	0	223.7	4	79.7	4	-1E+10	1	-1E+10	1	-1E+10	1	-1E+10	1	-1E+10	1	-1E+10	1
4902643	13	C	10/29/2024	12:19	-134.296	43.752	0	135.00	0	9.3460	0	33.0610	0	25.548	0	133.876	0	215.0	4	76.1	4	-1E+10	1	-1E+10	1	-1E+10	1	-1E+10	1	-1E+10	1	-1E+10	1
4902643	13	C	10/29/2024	12:19	-134.296	43.752	0	145.00	0	9.0340	0	33.2700	0	25.761	0	143.789	0	204.5	4	72.0	4	-1E+10	1	-1E+10	1	-1E+10	1	-1E+10	1	-1E+10	1	-1E+10	1
4902643	13	C	10/29/2024	12:19	-134.296	43.752	0	155.10	0	8.6900	0	33.4740	0	25.974	0	153.801	0	199.2	4	69.7	4	-1E+10	1	-1E+10	1	-1E+10	1	-1E+10	1	-1E+10	1	-1E+10	1
4902643	13	C	10/29/2024	12:19	-134.296	43.752	0	164.50	0	8.5210	0	33.5800	0	26.083	0	163.118	0	197.0	4	68.8	4	-1E+10	1	-1E+10	1	-1E+10	1	-1E+10	1	-1E+10	1	-1E+10	1
4902643	13	C	10/29/2024	12:19	-134.296	43.752	0	175.10	0	8.3820	0	33.6410	0	26.153	0	173.625	0	194.4	4	67.7	4	-1E+10	1	-1E+10	1	-1E+10	1	-1E+10	1	-1E+10	1	-1E+10	1
4902643	13	C	10/29/2024	12:19	-134.296	43.752	0	184.60	0	8.1230	0	33.6990	0	26.237	0	183.041	0	193.1	4	66.8	4	-1E+10	1	-1E+10	1	-1E+10	1	-1E+10	1	-1E+10	1	-1E+10	1
4902643	13	C	10/29/2024	12:19	-134.296	43.752	0	194.50	0	7.9550	0	33.7420	0	26.296	0	192.853	0	195.3	4	67.4	4	-1E+10	1	-1E+10	1	-1E+10	1	-1E+10	1	-1E+10	1	-1E+10	1
4902643	13	C	10/29/2024	12:19	-134.296	43.752	0	210.10	0	7.7510	0	33.7680	0	26.346	0	208.313	0	189.7	4	65.2	4	-1E+10	1	-1E+10	1	-1E+10	1	-1E+10	1	-1E+10	1	-1E+10	1
4902643	13	C	10/29/2024	12:19	-134.296	43.752	0	229.30	0	7.5990	0	33.8190	0	26.408	0	227.339	0	179.4	4	61.4	4	-1E+10	1	-1E+10	1	-1E+10	1	-1E+10	1	-1E+10	1	-1E+10	1
4902643	13	C	10/29/2024	12:19	-134.296	43.752	0	249.60	0	7.3010	0	33.8310	0	26.460	0	247.453	0	170.4	4	58.0	4	-1E+10	1	-1E+10	1	-1E+10	1	-1E+10	1	-1E+10	1	-1E+10	1
4902643	13	C	10/29/2024	12:19	-134.296	43.752	0	269.60	0	7.0780	0	33.8410	0	26.499	0	267.268	0	157.2	4	53.2	4	-1E+10	1	-1E+10	1	-1E+10	1	-1E+10	1	-1E+10	1	-1E+10	1
4902643	13	C	10/29/2024	12:19	-134.296	43.752	0	289.30	0	6.8120	0	33.8420	0	26.536	0	286.784	0	152.4	4	51.3	4	-1E+10	1	-1E+10	1	-1E+10	1	-1E+10	1	-1E+10	1	-1E+10	1
4902643	13	C	10/29/2024	12:19	-134.296	43.752	0	309.70	0	6.4790	0	33.8280	0	26.569	0	306.991	0	146.1	4	48.8	4	-1E+10	1	-1E+10	1	-1E+10	1	-1E+10	1	-1E+10	1	-1E+10	1
4902643	13	C	10/29/2024	12:19	-134.296	43.752	0	329.70	0	6.1450	0	33.8230	0	26.608	0	326.801	0	131.1	4	43.4	4	-1E+10	1	-1E+10	1	-1E+10	1	-1E+10	1	-1E+10	1	-1E+10	1
4902643	13	C	10/29/2024	12:19	-134.296	43.752	0	349.40	0	5.7680	0	33.8250	0	26.657	0	346.311	0	113.3	4	37.2	4	-1E+10	1	-1E+10	1	-1E+10	1	-1E+10	1	-1E+10	1	-1E+10	1
4902643	13	C	10/29/2024	12:19	-134.296	43.752	0	369.60	0	5.4840	0	33.8410	0	26.704	0	366.315	0	99.3	4	32.4	4	-1E+10	1	-1E+10	1	-1E+10	1	-1E+10	1	-1E+10	1	-1E+10	1
4902643	13	C	10/29/2024	12:19	-134.296	43.752	0	390.20	0	5.2340	0	33.8640	0	26.751	0	386.712	0	86.2	4	28.0	4	-1E+10	1	-1E+10	1	-1E+10	1	-1E+10	1	-1E+10	1	-1E+10	1
4902643	13	C	10/29/2024	12:19	-134.296	43.752	0	410.00	0	5.0540	0	33.8820	0	26.787	0	406.316	0	77.0	4	24.9	4	-1E+10	1	-1E+10	1	-1E+10	1	-1E+10	1	-1E+10	1	-1E+10	1
4902643	13	C	10/29/2024	12:19	-134.296	43.752	0	430.00	0	4.8580	0	33.8980	0	26.821	0	426.116	0	70.0	4	22.5	4	-1E+10	1	-1E+10	1	-1E+10	1	-1E+10	1	-1E+10	1	-1E+10	1
4902643	13	C	10/29/2024	12:19	-134.296	43.752	0	450.50	0	4.7230	0	33.9160	0	26.851	0	446.408	0	64.5	4	20.7	4	-1E+10	1	-1E+10	1	-1E+10	1	-1E+10	1	-1E+10	1	-1E+10	1
4902643	13	C	10/29/2024	12:19	-134.296	43.752	0	469.90	0	4.6340	0	33.9380	0	26.878	0	465.610	0	59.8	4	19.1	4	-1E+10	1	-1E+10	1	-1E+10	1	-1E+10	1	-1E+10	1	-1E+10	1
4902643	13	C	10/29/2024	12:19	-134.296	43.752	0	489.60	0	4.5660	0	33.9550	0	26.899	0	485.108	0	55.6	4	17.8	4	-1E+10	1	-1E+10	1	-1E+10	1	-1E+10	1	-1E+10	1	-1E+10	1
4902643	13	C	10/29/2024	12:19	-134.296	43.752	0	509.80	0	4.5180	0	33.9740	0	26.920	0	505.098	0	51.0	4	16.3	4	-1E+10	1	-1E+10	1	-1E+10	1	-1E+10	1	-1E+10	1	-1E+10	1
4902643	13	C	10/29/2024	12:19	-134.296	43.752	0	529.80	0	4.4630	0	33.9950	0	26.942	0	524.888	0	46.7	4	14.9	4	-1E+10	1	-1E+10	1	-1E+10	1	-1E+10	1	-1E+10	1	-1E+10	1
4902643	13	C	10/29/2024	12:19	-134.296	43.752	0	549.60	0	4.4070	0	34.0160	0	26.965	0	544.478	0	42.4	4	13.5	4	-1E+10	1	-1E+10	1	-1E+10	1	-1E+10	1	-1E+10	1	-1E+10	1
4902643	13	C	10/29/2024	12:19	-134.296	43.752	0	569.60	0	4.3530	0	34.0350	0	26.986	0	564.265	0	39.0	4	12.4	4	-1E+10	1	-1E+10	1	-1E+10	1	-1E+10	1	-1E+10	1	-1E+10	1
4902643	13	C	10/29/2024	12:19	-134.296	43.752	0	589.50	0	4.2980	0	34.0520	0	27.006	0	583.951	0	35.6	4	11.3	4	-1E+10	1	-1E+10	1	-1E+10	1	-1E+10	1	-1E+10	1	-1E+10	1
4902643	13	C	10/29/2024	12:19	-134.296	43.752	0	609.40	0	4.2510	0	34.0690	0	27.024	0	603.635	0	31.8	4	10.1	4	-1E+10	1	-1E+10	1	-1E+10	1	-1E+10	1	-1E+10	1	-1E+10	1
4902643	13	C	10/29/2024	12:19	-134.296	43.752	0	629.80	0	4.1940	0	34.0860	0	27.044	0	623.811	0	28.7	4	9.1	4	-1E+10	1	-1E+10	1	-1E+10	1	-1E+10	1	-1E+10	1	-1E+10	1
4902643	13	C	10/29/2024	12:19	-134.296	43.752	0	649.50	0	4.1560	0	34.1030	0	27.062	0	643.293	0	25.6	4	8.1	4	-1E+10	1	-1E+10	1	-1E+10	1	-1E+10	1	-1E+10	1	-1E+10	1
4902643	13	C	10/29/2024	12:19	-134.296	43.752	0	669.70	0	4.0910	0	34.1190	0	27.081	0	663.268	0	22.8	4	7.2	4	-1E+10	1	-1E+10	1	-1E+10	1	-1E+10	1	-1E+10	1	-1E+10	1
4902643	13	C	10/29/2024	12:19	-134.296	43.752	0	689.80	0	4.0270	0	34.1410	0	27.105	0	683.142	0	19.6	4	6.2	4	-1E+10	1	-1E+10	1	-1E+10	1	-1E+10	1	-1E+10	1	-1E+10	1
4902643	13	C	10/29/2024	12:19	-134.296	43.752	0	709.60	0	3.9610	0	34.1590	0	27.126	0	702.718	0	17.6	4	5.5	4	-1E+10	1	-1E+10	1	-1E+10	1	-1E+10	1	-1E+10	1	-1E+10	1
4902643	13	C	10/29/2024	12:19	-134.296	43.752	0	729.70	0	3.9000	0	34.1760	0	27.146	0	722.588	0	15.9	4	5.0	4	-1E+10	1	-1E+10	1	-1E+10	1	-1E+10	1	-1E+10	1	-1E+10	1
4902643	13	C	10/29/2024	12:19	-134.296	43.752	0	749.60	0	3.8430	0	34.1920	0	27.165	0	742.259	0	14.1	4	4.4	4	-1E+10	1	-1E+10	1	-1E+10	1	-1E+10	1	-1E+10	1	-1E+10	1
4902643	13	C	10/29/2024	12:19	-134.296	43.752	0	769.70	0	3.7750	0	34.2110	0	27.187	0	762.125	0	12.9	4	4.0	4	-1E+10	1	-1E+10	1	-1E+10	1	-1E+10	1	-1E+10	1	-1E+10	1
4902643	13	C	10/29/2024	12:19	-134.296	43.752	0	790.20	0	3.7200	0	34.2260	0	27.204	0	782.385	0	11.6	4	3.6	4	-1E+10	1	-1E+10	1	-1E+10	1	-1E+10	1	-1E+10	1	-1E+10	1
4902643	13	C	10/29/2024	12:19	-134.296	43.752	0	809.60	0	3.6730	0	34.2400	0	27.220	0	801.556	0	10.1	4	3.2	4	-1E+10	1	-1E+10	1	-1E+10	1	-1E+10	1	-1E+10	1	-1E+10	1
4902643	13	C	10/29/2024	12:19	-134.296	43.752	0	829.80	0	3.6380	0	34.2620	0	27.241	0	821.515	0	8.6	4	2.7	4	-1E+10	1	-1E+10	1	-1E+10	1	-1E+10	1	-1E+10	1	-1E+10	1
4902643	13	C	10/29/2024	12:19	-134.296	43.752	0	850.20	0	3.6090	0	34.2790	0	27.258	0	841.671	0	8.1	4	2.5	4	-1E+10	1	-1E+10	1	-1E+10	1	-1E+10	1	-1E+10	1	-1E+10	1
4902643	13	C	10/29/2024	12:19	-134.296	43.752	0	869.60	0	3.5520	0	34.2900	0	27.272	0	860.836	0	7.9	4	2.5	4	-1E+10	1	-1E+10	1	-1E+10	1	-1E+10	1	-1E+10	1	-1E+10	1
4902643	13	C	10/29/2024	12:19	-134.296	43.752	0	889.40	0	3.5260	0	34.3030	0	27.285	0	880.395	0	7.5	4	2.3	4	-1E+10	1	-1E+10	1	-1E+10	1	-1E+10	1	-1E+10	1	-1E+10	1
4902643	13	C	10/29/2024	12:19	-134.296	43.752	0	910.60	0	3.5010	0	34.3210	0	27.302	0	901.335	0	7.1	4	2.2	4	-1E+10	1	-1E+10	1	-1E+10	1	-1E+10	1	-1E+10	1	-1E+10	1
4902643	13	C	10/29/2024	12:19	-134.296	43.752	0	929.90	0	3.4710	0	34.3350	0	27.316	0	920.396	0	6.9	4	2.2	4	-1E+10	1	-1E+10	1	-1E+10	1	-1E+10	1	-1E+10	1	-1E+10	1
4902643	13	C	10/29/2024	12:19	-134.296	43.752	0	949.90	0	3.4590	0	34.3510	0	27.330	0	940.147	0	6.9	4	2.1	4	-1E+10	1	-1E+10	1	-1E+10	1	-1E+10	1	-1E+10	1	-1E+10	1
4902643	13	C	10/29/2024	12:19	-134.296	43.752	0	970.50	0	3.4400	0	34.3630	0	27.342	0	960.488	0	7.0	4	2.2	4	-1E+10	1	-1E+10	1	-1E+10	1	-1E+10	1	-1E+10	1	-1E+10	1
4902643	13	C	10/29/2024	12:19	-134.296	43.752	0	989.40	0	3.4040	0	34.3720	0	27.353	0	979.149	0	7.1	4	2.2	4	-1E+10	1	-1E+10	1	-1E+10	1	-1E+10	1	-1E+10	1	-1E+10	1
4902643	13	C	10/29/2024	12:19	-134.296	43.752	0	1010.40	0	3.3700	0	34.3800	0	27.362	0	999.881	0	7.2	4	2.3	4	-1E+10	1	-1E+10	1	-1E+10	1	-1E+10	1	-1E+10	1	-1E+10	1
4902643	13	C	10/29/2024	12:19	-134.296	43.752	0	1030.10	0	3.3330	0	34.3880	0	27.372	0	1019.328	0	7.6	4	2.4	4	-1E+10	1	-1E+10	1	-1E+10	1	-1E+10	1	-1E+10	1	-1E+10	1
4902643	13	C	10/29/2024	12:19	-134.296	43.752	0	1049.90	0	3.3090	0	34.4010	0	27.385	0	1038.872	0	8.0	4	2.5	4	-1E+10	1	-1E+10	1	-1E+10	1	-1E+10	1	-1E+10	1	-1E+10	1
4902643	13	C	10/29/2024	12:19	-134.296	43.752	0	1069.80	0	3.2800	0	34.4080	0	27.394	0	1058.513	0	8.3	4	2.6	4	-1E+10	1	-1E+10	1	-1E+10	1	-1E+10	1	-1E+10	1	-1E+10	1
4902643	13	C	10/29/2024	12:19	-134.296	43.752	0	1089.90	0	3.2420	0	34.4150	0	27.403	0	1078.349	0	8.6	4	2.7	4	-1E+10	1	-1E+10	1	-1E+10	1	-1E+10	1	-1E+10	1	-1E+10	1
4902643	13	C	10/29/2024	12:19	-134.296	43.752	0	1110.10	0	3.2050	0	34.4210	0	27.411	0	1098.282	0	9.2	4	2.9	4	-1E+10	1	-1E+10	1	-1E+10	1	-1E+10	1	-1E+10	1	-1E+10	1
4902643	13	C	10/29/2024	12:19	-134.296	43.752	0	1130.70	0	3.1780	0	34.4330	0	27.423	0	1118.608	0	10.0	4	3.1	4	-1E+10	1	-1E+10	1	-1E+10	1	-1E+10	1	-1E+10	1	-1E+10	1
4902643	13	C	10/29/2024	12:19	-134.296	43.752	0	1149.60	0	3.1240	0	34.4360	0	27.431	0	1137.255	0	10.1	4	3.1	4	-1E+10	1	-1E+10	1	-1E+10	1	-1E+10	1	-1E+10	1	-1E+10	1
4902643	13	C	10/29/2024	12:19	-134.296	43.752	0	1169.60	0	3.0920	0	34.4410	0	27.438	0	1156.985	0	10.5	4	3.2	4	-1E+10	1	-1E+10	1	-1E+10	1	-1E+10	1	-1E+10	1	-1E+10	1
4902643	13	C	10/29/2024	12:19	-134.296	43.752	0	1190.00	0	3.0500	0	34.4460	0	27.446	0	1177.108	0	11.0	4	3.4	4	-1E+10	1	-1E+10	1	-1E+10	1	-1E+10	1	-1E+10	1	-1E+10	1
4902643	13	C	10/29/2024	12:19	-134.296	43.752	0	1210.40	0	3.0220	0	34.4530	0	27.454	0	1197.229	0	11.9	4	3.7	4	-1E+10	1	-1E+10	1	-1E+10	1	-1E+10	1	-1E+10	1	-1E+10	1
4902643	13	C	10/29/2024	12:19	-134.296	43.752	0	1230.90	0	2.9950	0	34.4590	0	27.462	0	1217.446	0	12.5	4	3.9	4	-1E+10	1	-1E+10	1	-1E+10	1	-1E+10	1	-1E+10	1	-1E+10	1
4902643	13	C	10/29/2024	12:19	-134.296	43.752	0	1250.30	0	2.9710	0	34.4610	0	27.465	0	1236.577	0	12.8	4	4.0	4	-1E+10	1	-1E+10	1	-1E+10	1	-1E+10	1	-1E+10	1	-1E+10	1
4902643	13	C	10/29/2024	12:19	-134.296	43.752	0	1270.20	0	2.9350	0	34.4660	0	27.473	0	1256.200	0	13.5	4	4.2	4	-1E+10	1	-1E+10	1	-1E+10	1	-1E+10	1	-1E+10	1	-1E+10	1
4902643	13	C	10/29/2024	12:19	-134.296	43.752	0	1289.90	0	2.9110	0	34.4700	0	27.478	0	1275.623	0	14.1	4	4.3	4	-1E+10	1	-1E+10	1	-1E+10	1	-1E+10	1	-1E+10	1	-1E+10	1
4902643	13	C	10/29/2024	12:19	-134.296	43.752	0	1309.80	0	2.8910	0	34.4740	0	27.483	0	1295.241	0	14.7	4	4.5	4	-1E+10	1	-1E+10	1	-1E+10	1	-1E+10	1	-1E+10	1	-1E+10	1
4902643	13	C	10/29/2024	12:19	-134.296	43.752	0	1330.10	0	2.8540	0	34.4780	0	27.490	0	1315.252	0	15.4	4	4.7	4	-1E+10	1	-1E+10	1	-1E+10	1	-1E+10	1	-1E+10	1	-1E+10	1
4902643	13	C	10/29/2024	12:19	-134.296	43.752	0	1350.20	0	2.8140	0	34.4830	0	27.497	0	1335.064	0	16.4	4	5.1	4	-1E+10	1	-1E+10	1	-1E+10	1	-1E+10	1	-1E+10	1	-1E+10	1
4902643	13	C	10/29/2024	12:19	-134.296	43.752	0	1370.00	0	2.7770	0	34.4890	0	27.506	0	1354.579	0	17.6	4	5.4	4	-1E+10	1	-1E+10	1	-1E+10	1	-1E+10	1	-1E+10	1	-1E+10	1
4902643	13	C	10/29/2024	12:19	-134.296	43.752	0	1390.00	0	2.7300	0	34.4940	0	27.514	0	1374.289	0	18.8	4	5.8	4	-1E+10	1	-1E+10	1	-1E+10	1	-1E+10	1	-1E+10	1	-1E+10	1
4902643	13	C	10/29/2024	12:19	-134.296	43.752	0	1410.00	0	2.6910	0	34.4990	0	27.521	0	1393.997	0	19.9	4	6.1	4	-1E+10	1	-1E+10	1	-1E+10	1	-1E+10	1	-1E+10	1	-1E+10	1
4902643	13	C	10/29/2024	12:19	-134.296	43.752	0	1430.00	0	2.6530	0	34.5040	0	27.529	0	1413.703	0	21.2	4	6.5	4	-1E+10	1	-1E+10	1	-1E+10	1	-1E+10	1	-1E+10	1	-1E+10	1
4902643	13	C	10/29/2024	12:19	-134.296	43.752	0	1449.50	0	2.6240	0	34.5090	0	27.535	0	1432.914	0	22.3	4	6.8	4	-1E+10	1	-1E+10	1	-1E+10	1	-1E+10	1	-1E+10	1	-1E+10	1
4902643	13	C	10/29/2024	12:19	-134.296	43.752	0	1469.70	0	2.5820	0	34.5130	0	27.542	0	1452.814	0	23.4	4	7.1	4	-1E+10	1	-1E+10	1	-1E+10	1	-1E+10	1	-1E+10	1	-1E+10	1
4902643	13	C	10/29/2024	12:19	-134.296	43.752	0	1489.70	0	2.5440	0	34.5170	0	27.549	0	1472.514	0	24.4	4	7.4	4	-1E+10	1	-1E+10	1	-1E+10	1	-1E+10	1	-1E+10	1	-1E+10	1
4902643	13	C	10/29/2024	12:19	-134.296	43.752	0	1510.30	0	2.5050	0	34.5200	0	27.554	0	1492.804	0	25.1	4	7.7	4	-1E+10	1	-1E+10	1	-1E+10	1	-1E+10	1	-1E+10	1	-1E+10	1
4902643	13	C	10/29/2024	12:19	-134.296	43.752	0	1529.60	0	2.4870	0	34.5230	0	27.558	0	1511.811	0	26.2	4	8.0	4	-1E+10	1	-1E+10	1	-1E+10	1	-1E+10	1	-1E+10	1	-1E+10	1
4902643	13	C	10/29/2024	12:19	-134.296	43.752	0	1549.70	0	2.4620	0	34.5250	0	27.562	0	1531.605	0	26.9	4	8.2	4	-1E+10	1	-1E+10	1	-1E+10	1	-1E+10	1	-1E+10	1	-1E+10	1
4902643	13	C	10/29/2024	12:19	-134.296	43.752	0	1570.00	0	2.4320	0	34.5290	0	27.568	0	1551.593	0	28.1	4	8.6	4	-1E+10	1	-1E+10	1	-1E+10	1	-1E+10	1	-1E+10	1	-1E+10	1
4902643	13	C	10/29/2024	12:19	-134.296	43.752	0	1590.00	0	2.4080	0	34.5320	0	27.573	0	1571.285	0	29.1	4	8.9	4	-1E+10	1	-1E+10	1	-1E+10	1	-1E+10	1	-1E+10	1	-1E+10	1
4902643	13	C	10/29/2024	12:19	-134.296	43.752	0	1610.00	0	2.3850	0	34.5350	0	27.577	0	1590.974	0	30.1	4	9.2	4	-1E+10	1	-1E+10	1	-1E+10	1	-1E+10	1	-1E+10	1	-1E+10	1
4902643	13	C	10/29/2024	12:19	-134.296	43.752	0	1630.20	0	2.3610	0	34.5390	0	27.582	0	1610.859	0	31.4	4	9.5	4	-1E+10	1	-1E+10	1	-1E+10	1	-1E+10	1	-1E+10	1	-1E+10	1
4902643	13	C	10/29/2024	12:19	-134.296	43.752	0	1649.80	0	2.3320	0	34.5430	0	27.588	0	1630.151	0	33.0	4	10.0	4	-1E+10	1	-1E+10	1	-1E+10	1	-1E+10	1	-1E+10	1	-1E+10	1
4902643	13	C	10/29/2024	12:19	-134.296	43.752	0	1669.70	0	2.3040	0	34.5470	0	27.593	0	1649.736	0	34.5	4	10.5	4	-1E+10	1	-1E+10	1	-1E+10	1	-1E+10	1	-1E+10	1	-1E+10	1
4902643	13	C	10/29/2024	12:19	-134.296	43.752	0	1689.80	0	2.2700	0	34.5500	0	27.599	0	1669.517	0	35.3	4	10.7	4	-1E+10	1	-1E+10	1	-1E+10	1	-1E+10	1	-1E+10	1	-1E+10	1
4902643	13	C	10/29/2024	12:19	-134.296	43.752	0	1710.00	0	2.2400	0	34.5530	0	27.604	0	1689.394	0	36.5	4	11.1	4	-1E+10	1	-1E+10	1	-1E+10	1	-1E+10	1	-1E+10	1	-1E+10	1
4902643	13	C	10/29/2024	12:19	-134.296	43.752	0	1729.90	0	2.2050	0	34.5580	0	27.611	0	1708.974	0	37.9	4	11.5	4	-1E+10	1	-1E+10	1	-1E+10	1	-1E+10	1	-1E+10	1	-1E+10	1
4902643	13	C	10/29/2024	12:19	-134.296	43.752	0	1750.00	0	2.1810	0	34.5610	0	27.615	0	1728.749	0	39.2	4	11.9	4	-1E+10	1	-1E+10	1	-1E+10	1	-1E+10	1	-1E+10	1	-1E+10	1
4902643	13	C	10/29/2024	12:19	-134.296	43.752	0	1770.20	0	2.1570	0	34.5640	0	27.619	0	1748.621	0	40.5	4	12.3	4	-1E+10	1	-1E+10	1	-1E+10	1	-1E+10	1	-1E+10	1	-1E+10	1
4902643	13	C	10/29/2024	12:19	-134.296	43.752	0	1790.40	0	2.1370	0	34.5670	0	27.624	0	1768.490	0	41.8	4	12.6	4	-1E+10	1	-1E+10	1	-1E+10	1	-1E+10	1	-1E+10	1	-1E+10	1
4902643	13	C	10/29/2024	12:19	-134.296	43.752	0	1809.90	0	2.1140	0	34.5700	0	27.628	0	1787.670	0	43.2	4	13.1	4	-1E+10	1	-1E+10	1	-1E+10	1	-1E+10	1	-1E+10	1	-1E+10	1
4902643	13	C	10/29/2024	12:19	-134.296	43.752	0	1829.90	0	2.0910	0	34.5730	0	27.632	0	1807.339	0	44.5	4	13.4	4	-1E+10	1	-1E+10	1	-1E+10	1	-1E+10	1	-1E+10	1	-1E+10	1
4902643	13	C	10/29/2024	12:19	-134.296	43.752	0	1850.00	0	2.0740	0	34.5760	0	27.636	0	1827.105	0	45.7	4	13.8	4	-1E+10	1	-1E+10	1	-1E+10	1	-1E+10	1	-1E+10	1	-1E+10	1
4902643	13	C	10/29/2024	12:19	-134.296	43.752	0	1870.10	0	2.0580	0	34.5780	0	27.639	0	1846.869	0	46.9	4	14.1	4	-1E+10	1	-1E+10	1	-1E+10	1	-1E+10	1	-1E+10	1	-1E+10	1
4902643	13	C	10/29/2024	12:19	-134.296	43.752	0	1889.90	0	2.0430	0	34.5800	0	27.642	0	1866.336	0	48.1	4	14.5	4	-1E+10	1	-1E+10	1	-1E+10	1	-1E+10	1	-1E+10	1	-1E+10	1
4902643	13	C	10/29/2024	12:19	-134.296	43.752	0	1909.50	0	2.0170	0	34.5840	0	27.647	0	1885.605	0	50.1	4	15.1	4	-1E+10	1	-1E+10	1	-1E+10	1	-1E+10	1	-1E+10	1	-1E+10	1
4902643	13	C	10/29/2024	12:19	-134.296	43.752	0	1929.70	0	1.9860	0	34.5890	0	27.654	0	1905.462	0	52.0	4	15.7	4	-1E+10	1	-1E+10	1	-1E+10	1	-1E+10	1	-1E+10	1	-1E+10	1
4902643	13	C	10/29/2024	12:19	-134.296	43.752	0	1949.60	0	1.9710	0	34.5910	0	27.657	0	1925.022	0	53.0	4	16.0	4	-1E+10	1	-1E+10	1	-1E+10	1	-1E+10	1	-1E+10	1	-1E+10	1
4902643	13	C	10/29/2024	12:19	-134.296	43.752	0	1970.00	0	1.9560	0	34.5930	0	27.659	0	1945.072	0	54.2	4	16.3	4	-1E+10	1	-1E+10	1	-1E+10	1	-1E+10	1	-1E+10	1	-1E+10	1
4902643	13	C	10/29/2024	12:19	-134.296	43.752	0	1989.60	0	1.9360	0	34.5960	0	27.663	0	1964.333	0	55.9	4	16.8	4	-1E+10	1	-1E+10	1	-1E+10	1	-1E+10	1	-1E+10	1	-1E+10	1
4902643	13	C	10/29/2024	12:19	-134.296	43.752	0	2010.10	0	1.9180	0	34.5990	4	27.667	0	1984.478	0	57.3	4	17.2	4	-1E+10	1	-1E+10	1	-1E+10	1	-1E+10	1	-1E+10	1	-1E+10	1
4902643	13	C	10/29/2024	12:19	-134.296	43.752	0	2030.00	0	1.9040	0	34.6010	4	27.670	0	2004.030	0	58.4	4	17.6	4	-1E+10	1	-1E+10	1	-1E+10	1	-1E+10	1	-1E+10	1	-1E+10	1
4902643	13	C	10/29/2024	12:19	-134.296	43.752	0	2049.80	0	1.8950	0	34.6030	4	27.673	0	2023.483	0	59.3	4	17.8	4	-1E+10	1	-1E+10	1	-1E+10	1	-1E+10	1	-1E+10	1	-1E+10	1
4902643	13	C	10/29/2024	12:19	-134.296	43.752	0	2069.70	0	1.8860	0	34.6040	4	27.674	0	2043.033	0	60.1	4	18.1	4	-1E+10	1	-1E+10	1	-1E+10	1	-1E+10	1	-1E+10	1	-1E+10	1
4902643	13	C	10/29/2024	12:19	-134.296	43.752	0	2089.70	0	1.8780	0	34.6060	4	27.676	0	2062.678	0	60.8	4	18.3	4	-1E+10	1	-1E+10	1	-1E+10	1	-1E+10	1	-1E+10	1	-1E+10	1
4902643	13	C	10/29/2024	12:19	-134.296	43.752	0	2109.90	0	1.8710	0	34.6070	4	27.678	0	2082.519	0	61.5	4	18.5	4	-1E+10	1	-1E+10	1	-1E+10	1	-1E+10	1	-1E+10	1	-1E+10	1
4902643	13	C	10/29/2024	12:19	-134.296	43.752	0	2130.00	0	1.8630	0	34.6080	4	27.679	0	2102.259	0	62.2	4	18.7	4	-1E+10	1	-1E+10	1	-1E+10	1	-1E+10	1	-1E+10	1	-1E+10	1
4902643	13	C	10/29/2024	12:19	-134.296	43.752	0	2150.20	0	1.8580	0	34.6090	4	27.681	0	2122.096	0	62.7	4	18.8	4	-1E+10	1	-1E+10	1	-1E+10	1	-1E+10	1	-1E+10	1	-1E+10	1
4902643	13	C	10/29/2024	12:19	-134.296	43.752	0	2170.20	0	1.8540	0	34.6100	4	27.682	0	2141.734	0	63.1	4	19.0	4	-1E+10	1	-1E+10	1	-1E+10	1	-1E+10	1	-1E+10	1	-1E+10	1
4902643	13	C	10/29/2024	12:19	-134.296	43.752	0	2190.10	0	1.8510	0	34.6110	4	27.683	0	2161.273	0	63.4	4	19.1	4	-1E+10	1	-1E+10	1	-1E+10	1	-1E+10	1	-1E+10	1	-1E+10	1
4902643	13	C	10/29/2024	12:19	-134.296	43.752	0	2209.70	0	1.8480	0	34.6110	4	27.683	0	2180.515	0	63.8	4	19.2	4	-1E+10	1	-1E+10	1	-1E+10	1	-1E+10	1	-1E+10	1	-1E+10	1
4902643	13	C	10/29/2024	12:19	-134.296	43.752	0	2229.90	0	1.8450	0	34.6120	4	27.685	0	2200.344	0	64.3	4	19.3	4	-1E+10	1	-1E+10	1	-1E+10	1	-1E+10	1	-1E+10	1	-1E+10	1
4902643	13	C	10/29/2024	12:19	-134.296	43.752	0	2250.20	0	1.8410	0	34.6130	4	27.686	0	2220.270	0	64.7	4	19.4	4	-1E+10	1	-1E+10	1	-1E+10	1	-1E+10	1	-1E+10	1	-1E+10	1
4902643	13	C	10/29/2024	12:19	-134.296	43.752	0	2270.40	0	1.8340	0	34.6140	4	27.687	0	2240.095	0	65.3	4	19.6	4	-1E+10	1	-1E+10	1	-1E+10	1	-1E+10	1	-1E+10	1	-1E+10	1
4902643	13	C	10/29/2024	12:19	-134.296	43.752	0	2289.70	0	1.8290	0	34.6150	4	27.689	0	2259.036	0	65.8	4	19.8	4	-1E+10	1	-1E+10	1	-1E+10	1	-1E+10	1	-1E+10	1	-1E+10	1
4902643	13	C	10/29/2024	12:19	-134.296	43.752	0	2309.60	0	1.8250	0	34.6160	4	27.690	0	2278.564	0	66.4	4	19.9	4	-1E+10	1	-1E+10	1	-1E+10	1	-1E+10	1	-1E+10	1	-1E+10	1
4902643	13	C	10/29/2024	12:19	-134.296	43.752	0	2329.90	0	1.8180	0	34.6170	4	27.691	0	2298.482	0	66.9	4	20.1	4	-1E+10	1	-1E+10	1	-1E+10	1	-1E+10	1	-1E+10	1	-1E+10	1
4902643	13	C	10/29/2024	12:19	-134.296	43.752	0	2350.30	0	1.8180	0	34.6170	4	27.691	0	2318.497	0	67.1	4	20.2	4	-1E+10	1	-1E+10	1	-1E+10	1	-1E+10	1	-1E+10	1	-1E+10	1
4902643	13	C	10/29/2024	12:19	-134.296	43.752	0	2369.90	0	1.8140	0	34.6180	4	27.693	0	2337.725	0	67.5	4	20.3	4	-1E+10	1	-1E+10	1	-1E+10	1	-1E+10	1	-1E+10	1	-1E+10	1
4902643	13	C	10/29/2024	12:19	-134.296	43.752	0	2390.00	0	1.8110	0	34.6180	4	27.693	0	2357.442	0	68.1	4	20.4	4	-1E+10	1	-1E+10	1	-1E+10	1	-1E+10	1	-1E+10	1	-1E+10	1
4902643	13	C	10/29/2024	12:19	-134.296	43.752	0	2409.80	0	1.8020	0	34.6200	4	27.695	0	2376.862	0	69.0	4	20.7	4	-1E+10	1	-1E+10	1	-1E+10	1	-1E+10	1	-1E+10	1	-1E+10	1
4902643	13	C	10/29/2024	12:19	-134.296	43.752	0	2429.80	0	1.7910	0	34.6210	4	27.697	0	2396.477	0	69.9	4	21.0	4	-1E+10	1	-1E+10	1	-1E+10	1	-1E+10	1	-1E+10	1	-1E+10	1
4902643	13	C	10/29/2024	12:19	-134.296	43.752	0	2449.90	0	1.7830	0	34.6230	4	27.699	0	2416.189	0	70.7	4	21.2	4	-1E+10	1	-1E+10	1	-1E+10	1	-1E+10	1	-1E+10	1	-1E+10	1
4902643	13	C	10/29/2024	12:19	-134.296	43.752	0	2470.10	0	1.7730	0	34.6240	4	27.701	0	2435.996	0	71.6	4	21.5	4	-1E+10	1	-1E+10	1	-1E+10	1	-1E+10	1	-1E+10	1	-1E+10	1
4902643	13	C	10/29/2024	12:19	-134.296	43.752	0	2489.80	0	1.7630	0	34.6260	4	27.704	0	2455.312	0	72.7	4	21.8	4	-1E+10	1	-1E+10	1	-1E+10	1	-1E+10	1	-1E+10	1	-1E+10	1
4902643	13	C	10/29/2024	12:19	-134.296	43.752	0	2509.60	0	1.7550	0	34.6270	4	27.705	0	2474.724	0	73.8	4	22.1	4	-1E+10	1	-1E+10	1	-1E+10	1	-1E+10	1	-1E+10	1	-1E+10	1
4902643	13	C	10/29/2024	12:19	-134.296	43.752	0	2529.80	0	1.7480	0	34.6280	4	27.707	0	2494.526	0	74.9	4	22.5	4	-1E+10	1	-1E+10	1	-1E+10	1	-1E+10	1	-1E+10	1	-1E+10	1
4902643	13	C	10/29/2024	12:19	-134.296	43.752	0	2550.20	0	1.7380	0	34.6300	4	27.709	0	2514.522	0	75.8	4	22.7	4	-1E+10	1	-1E+10	1	-1E+10	1	-1E+10	1	-1E+10	1	-1E+10	1
4902643	13	C	10/29/2024	12:19	-134.296	43.752	0	2570.00	0	1.7320	0	34.6310	4	27.710	0	2533.929	0	76.4	4	22.9	4	-1E+10	1	-1E+10	1	-1E+10	1	-1E+10	1	-1E+10	1	-1E+10	1
4902643	13	C	10/29/2024	12:19	-134.296	43.752	0	2590.10	0	1.7280	0	34.6310	4	27.711	0	2553.627	0	77.0	4	23.1	4	-1E+10	1	-1E+10	1	-1E+10	1	-1E+10	1	-1E+10	1	-1E+10	1
4902643	13	C	10/29/2024	12:19	-134.296	43.752	0	2610.20	0	1.7190	0	34.6320	4	27.712	0	2573.324	0	77.8	4	23.3	4	-1E+10	1	-1E+10	1	-1E+10	1	-1E+10	1	-1E+10	1	-1E+10	1
4902643	13	C	10/29/2024	12:19	-134.296	43.752	0	2630.00	0	1.7130	0	34.6330	4	27.714	0	2592.725	0	78.7	4	23.6	4	-1E+10	1	-1E+10	1	-1E+10	1	-1E+10	1	-1E+10	1	-1E+10	1
4902643	13	C	10/29/2024	12:19	-134.296	43.752	0	2650.20	0	1.7070	0	34.6340	4	27.715	0	2612.517	0	79.7	4	23.9	4	-1E+10	1	-1E+10	1	-1E+10	1	-1E+10	1	-1E+10	1	-1E+10	1
4902643	13	C	10/29/2024	12:19	-134.296	43.752	0	2670.00	0	1.7000	0	34.6350	4	27.717	0	2631.914	0	80.6	4	24.1	4	-1E+10	1	-1E+10	1	-1E+10	1	-1E+10	1	-1E+10	1	-1E+10	1
4902643	13	C	10/29/2024	12:19	-134.296	43.752	0	2689.50	0	1.6940	0	34.6360	4	27.718	0	2651.016	0	81.4	4	24.4	4	-1E+10	1	-1E+10	1	-1E+10	1	-1E+10	1	-1E+10	1	-1E+10	1
4902643	13	C	10/29/2024	12:19	-134.296	43.752	0	2710.00	0	1.6860	0	34.6380	4	27.720	0	2671.096	0	82.3	4	24.6	4	-1E+10	1	-1E+10	1	-1E+10	1	-1E+10	1	-1E+10	1	-1E+10	1
4902643	13	C	10/29/2024	12:19	-134.296	43.752	0	2729.80	0	1.6790	0	34.6380	4	27.721	0	2690.489	0	83.0	4	24.8	4	-1E+10	1	-1E+10	1	-1E+10	1	-1E+10	1	-1E+10	1	-1E+10	1
4902643	13	C	10/29/2024	12:19	-134.296	43.752	0	2750.00	0	1.6730	0	34.6390	4	27.722	0	2710.271	0	83.7	4	25.0	4	-1E+10	1	-1E+10	1	-1E+10	1	-1E+10	1	-1E+10	1	-1E+10	1
4902643	13	C	10/29/2024	12:19	-134.296	43.752	0	2770.00	0	1.6690	0	34.6400	4	27.723	0	2729.856	0	84.6	4	25.3	4	-1E+10	1	-1E+10	1	-1E+10	1	-1E+10	1	-1E+10	1	-1E+10	1
4902643	13	C	10/29/2024	12:19	-134.296	43.752	0	2789.70	0	1.6650	0	34.6410	4	27.725	0	2749.145	0	85.1	4	25.5	4	-1E+10	1	-1E+10	1	-1E+10	1	-1E+10	1	-1E+10	1	-1E+10	1
4902643	13	C	10/29/2024	12:19	-134.296	43.752	0	2810.20	0	1.6630	0	34.6420	4	27.726	0	2769.215	0	85.8	4	25.7	4	-1E+10	1	-1E+10	1	-1E+10	1	-1E+10	1	-1E+10	1	-1E+10	1
4902643	13	C	10/29/2024	12:19	-134.296	43.752	0	2829.80	0	1.6580	0	34.6420	4	27.726	0	2788.403	0	86.6	4	25.9	4	-1E+10	1	-1E+10	1	-1E+10	1	-1E+10	1	-1E+10	1	-1E+10	1
4902643	13	C	10/29/2024	12:19	-134.296	43.752	0	2850.00	0	1.6550	0	34.6430	4	27.727	0	2808.177	0	87.3	4	26.1	4	-1E+10	1	-1E+10	1	-1E+10	1	-1E+10	1	-1E+10	1	-1E+10	1
4902643	13	C	10/29/2024	12:19	-134.296	43.752	0	2870.10	0	1.6500	0	34.6440	4	27.729	0	2827.850	0	88.0	4	26.3	4	-1E+10	1	-1E+10	1	-1E+10	1	-1E+10	1	-1E+10	1	-1E+10	1
4902643	13	C	10/29/2024	12:19	-134.296	43.752	0	2890.00	0	1.6440	0	34.6450	4	27.730	0	2847.327	0	88.7	4	26.5	4	-1E+10	1	-1E+10	1	-1E+10	1	-1E+10	1	-1E+10	1	-1E+10	1
4902643	13	C	10/29/2024	12:19	-134.296	43.752	0	2910.40	0	1.6400	0	34.6460	4	27.731	0	2867.290	0	89.4	4	26.7	4	-1E+10	1	-1E+10	1	-1E+10	1	-1E+10	1	-1E+10	1	-1E+10	1
4902643	13	C	10/29/2024	12:19	-134.296	43.752	0	2930.00	0	1.6340	0	34.6460	4	27.732	0	2886.469	0	90.2	4	27.0	4	-1E+10	1	-1E+10	1	-1E+10	1	-1E+10	1	-1E+10	1	-1E+10	1
4902643	13	C	10/29/2024	12:19	-134.296	43.752	0	2949.90	0	1.6300	0	34.6470	4	27.733	0	2905.940	0	90.8	4	27.2	4	-1E+10	1	-1E+10	1	-1E+10	1	-1E+10	1	-1E+10	1	-1E+10	1
4902643	13	C	10/29/2024	12:19	-134.296	43.752	0	2969.60	0	1.6260	0	34.6480	4	27.734	0	2925.214	0	91.5	4	27.4	4	-1E+10	1	-1E+10	1	-1E+10	1	-1E+10	1	-1E+10	1	-1E+10	1
4902643	13	C	10/29/2024	12:19	-134.296	43.752	0	2989.60	0	1.6220	0	34.6490	4	27.735	0	2944.779	0	92.1	4	27.5	4	-1E+10	1	-1E+10	1	-1E+10	1	-1E+10	1	-1E+10	1	-1E+10	1
4902643	13	C	10/29/2024	12:19	-134.296	43.752	0	3009.90	0	1.6200	0	34.6490	4	27.736	0	2964.636	0	92.6	4	27.7	4	-1E+10	1	-1E+10	1	-1E+10	1	-1E+10	1	-1E+10	1	-1E+10	1
4902643	13	C	10/29/2024	12:19	-134.296	43.752	0	3029.90	0	1.6180	0	34.6490	4	27.736	0	2984.198	0	93.0	4	27.8	4	-1E+10	1	-1E+10	1	-1E+10	1	-1E+10	1	-1E+10	1	-1E+10	1
4902643	13	C	10/29/2024	12:19	-134.296	43.752	0	3050.00	0	1.6140	0	34.6500	4	27.737	0	3003.855	0	93.7	4	28.0	4	-1E+10	1	-1E+10	1	-1E+10	1	-1E+10	1	-1E+10	1	-1E+10	1
4902643	13	C	10/29/2024	12:19	-134.296	43.752	0	3070.70	0	1.6090	0	34.6510	4	27.739	0	3024.098	0	94.4	4	28.2	4	-1E+10	1	-1E+10	1	-1E+10	1	-1E+10	1	-1E+10	1	-1E+10	1
4902643	13	C	10/29/2024	12:19	-134.296	43.752	0	3090.00	0	1.6060	0	34.6520	4	27.740	0	3042.970	0	95.1	4	28.4	4	-1E+10	1	-1E+10	1	-1E+10	1	-1E+10	1	-1E+10	1	-1E+10	1
4902643	13	C	10/29/2024	12:19	-134.296	43.752	0	3109.90	0	1.6020	0	34.6520	4	27.740	0	3062.427	0	95.9	4	28.6	4	-1E+10	1	-1E+10	1	-1E+10	1	-1E+10	1	-1E+10	1	-1E+10	1
4902643	13	C	10/29/2024	12:19	-134.296	43.752	0	3130.00	0	1.5970	0	34.6530	4	27.741	0	3082.078	0	96.5	4	28.8	4	-1E+10	1	-1E+10	1	-1E+10	1	-1E+10	1	-1E+10	1	-1E+10	1
4902643	13	C	10/29/2024	12:19	-134.296	43.752	0	3149.70	0	1.5940	0	34.6540	4	27.743	0	3101.335	0	97.1	4	29.0	4	-1E+10	1	-1E+10	1	-1E+10	1	-1E+10	1	-1E+10	1	-1E+10	1
4902643	13	C	10/29/2024	12:19	-134.296	43.752	0	3169.50	0	1.5910	0	34.6540	4	27.743	0	3120.689	0	97.6	4	29.2	4	-1E+10	1	-1E+10	1	-1E+10	1	-1E+10	1	-1E+10	1	-1E+10	1
4902643	13	C	10/29/2024	12:19	-134.296	43.752	0	3189.80	0	1.5870	0	34.6550	4	27.744	0	3140.530	0	98.1	4	29.3	4	-1E+10	1	-1E+10	1	-1E+10	1	-1E+10	1	-1E+10	1	-1E+10	1
4902643	13	C	10/29/2024	12:19	-134.296	43.752	0	3210.20	0	1.5850	0	34.6550	4	27.744	0	3160.467	0	98.5	4	29.4	4	-1E+10	1	-1E+10	1	-1E+10	1	-1E+10	1	-1E+10	1	-1E+10	1
4902643	13	C	10/29/2024	12:19	-134.296	43.752	0	3230.00	0	1.5830	0	34.6560	4	27.745	0	3179.816	0	99.0	4	29.6	4	-1E+10	1	-1E+10	1	-1E+10	1	-1E+10	1	-1E+10	1	-1E+10	1
4902643	13	C	10/29/2024	12:19	-134.296	43.752	0	3249.90	0	1.5810	0	34.6560	4	27.746	0	3199.260	0	99.4	4	29.7	4	-1E+10	1	-1E+10	1	-1E+10	1	-1E+10	1	-1E+10	1	-1E+10	1
4902643	13	C	10/29/2024	12:19	-134.296	43.752	0	3270.10	0	1.5800	0	34.6570	4	27.747	0	3218.996	0	99.8	4	29.8	4	-1E+10	1	-1E+10	1	-1E+10	1	-1E+10	1	-1E+10	1	-1E+10	1
4902643	13	C	10/29/2024	12:19	-134.296	43.752	0	3290.20	0	1.5780	0	34.6570	4	27.747	0	3238.633	0	100.2	4	29.9	4	-1E+10	1	-1E+10	1	-1E+10	1	-1E+10	1	-1E+10	1	-1E+10	1
4902643	13	C	10/29/2024	12:19	-134.296	43.752	0	3309.90	0	1.5770	0	34.6570	4	27.747	0	3257.877	0	100.6	4	30.0	4	-1E+10	1	-1E+10	1	-1E+10	1	-1E+10	1	-1E+10	1	-1E+10	1
4902643	13	C	10/29/2024	12:19	-134.296	43.752	0	3329.80	0	1.5750	0	34.6580	4	27.748	0	3277.315	0	100.9	4	30.1	4	-1E+10	1	-1E+10	1	-1E+10	1	-1E+10	1	-1E+10	1	-1E+10	1
4902643	13	C	10/29/2024	12:19	-134.296	43.752	0	3350.10	0	1.5730	0	34.6580	4	27.749	0	3297.141	0	101.4	4	30.3	4	-1E+10	1	-1E+10	1	-1E+10	1	-1E+10	1	-1E+10	1	-1E+10	1
4902643	13	C	10/29/2024	12:19	-134.296	43.752	0	3370.00	0	1.5700	0	34.6590	4	27.750	0	3316.575	0	101.8	4	30.4	4	-1E+10	1	-1E+10	1	-1E+10	1	-1E+10	1	-1E+10	1	-1E+10	1
4902643	13	C	10/29/2024	12:19	-134.296	43.752	0	3390.30	0	1.5680	0	34.6590	4	27.750	0	3336.399	0	102.2	4	30.5	4	-1E+10	1	-1E+10	1	-1E+10	1	-1E+10	1	-1E+10	1	-1E+10	1
4902643	13	C	10/29/2024	12:19	-134.296	43.752	0	3409.80	0	1.5660	0	34.6590	4	27.750	0	3355.439	0	102.6	4	30.6	4	-1E+10	1	-1E+10	1	-1E+10	1	-1E+10	1	-1E+10	1	-1E+10	1
4902643	13	C	10/29/2024	12:19	-134.296	43.752	0	3430.00	0	1.5640	0	34.6600	4	27.751	0	3375.161	0	103.1	4	30.8	4	-1E+10	1	-1E+10	1	-1E+10	1	-1E+10	1	-1E+10	1	-1E+10	1
4902643	13	C	10/29/2024	12:19	-134.296	43.752	0	3449.70	0	1.5630	0	34.6610	4	27.752	0	3394.393	0	103.4	4	30.9	4	-1E+10	1	-1E+10	1	-1E+10	1	-1E+10	1	-1E+10	1	-1E+10	1
4902643	13	C	10/29/2024	12:19	-134.296	43.752	0	3470.00	0	1.5620	0	34.6610	4	27.753	0	3414.209	0	103.9	4	31.0	4	-1E+10	1	-1E+10	1	-1E+10	1	-1E+10	1	-1E+10	1	-1E+10	1
4902643	13	C	10/29/2024	12:19	-134.296	43.752	0	3489.90	0	1.5600	0	34.6620	4	27.754	0	3433.632	0	104.4	4	31.2	4	-1E+10	1	-1E+10	1	-1E+10	1	-1E+10	1	-1E+10	1	-1E+10	1
4902643	13	C	10/29/2024	12:19	-134.296	43.752	0	3509.80	0	1.5590	0	34.6620	4	27.754	0	3453.055	0	104.9	4	31.3	4	-1E+10	1	-1E+10	1	-1E+10	1	-1E+10	1	-1E+10	1	-1E+10	1
4902643	13	C	10/29/2024	12:19	-134.296	43.752	0	3529.90	0	1.5570	0	34.6630	4	27.755	0	3472.670	0	105.3	4	31.4	4	-1E+10	1	-1E+10	1	-1E+10	1	-1E+10	1	-1E+10	1	-1E+10	1
4902643	13	C	10/29/2024	12:19	-134.296	43.752	0	3549.90	0	1.5560	0	34.6630	4	27.755	0	3492.186	0	105.8	4	31.6	4	-1E+10	1	-1E+10	1	-1E+10	1	-1E+10	1	-1E+10	1	-1E+10	1
4902643	13	C	10/29/2024	12:19	-134.296	43.752	0	3570.10	0	1.5550	0	34.6640	4	27.756	0	3511.896	0	106.2	4	31.7	4	-1E+10	1	-1E+10	1	-1E+10	1	-1E+10	1	-1E+10	1	-1E+10	1
4902643	13	C	10/29/2024	12:19	-134.296	43.752	0	3590.10	0	1.5540	0	34.6640	4	27.756	0	3531.409	0	106.5	4	31.8	4	-1E+10	1	-1E+10	1	-1E+10	1	-1E+10	1	-1E+10	1	-1E+10	1
4902643	13	C	10/29/2024	12:19	-134.296	43.752	0	3610.30	0	1.5530	0	34.6650	4	27.757	0	3551.115	0	106.9	4	31.9	4	-1E+10	1	-1E+10	1	-1E+10	1	-1E+10	1	-1E+10	1	-1E+10	1
4902643	13	C	10/29/2024	12:19	-134.296	43.752	0	3630.20	0	1.5530	0	34.6650	4	27.758	0	3570.526	0	107.1	4	32.0	4	-1E+10	1	-1E+10	1	-1E+10	1	-1E+10	1	-1E+10	1	-1E+10	1
4902643	13	C	10/29/2024	12:19	-134.296	43.752	0	3650.50	0	1.5540	0	34.6660	4	27.759	0	3590.326	0	107.3	4	32.0	4	-1E+10	1	-1E+10	1	-1E+10	1	-1E+10	1	-1E+10	1	-1E+10	1
4902643	13	C	10/29/2024	12:19	-134.296	43.752	0	3670.20	0	1.5540	0	34.6660	4	27.759	0	3609.540	0	107.5	4	32.1	4	-1E+10	1	-1E+10	1	-1E+10	1	-1E+10	1	-1E+10	1	-1E+10	1
4902643	13	C	10/29/2024	12:19	-134.296	43.752	0	3690.00	0	1.5550	0	34.6670	4	27.760	0	3628.849	0	107.7	4	32.1	4	-1E+10	1	-1E+10	1	-1E+10	1	-1E+10	1	-1E+10	1	-1E+10	1
4902643	13	C	10/29/2024	12:19	-134.296	43.752	0	3709.60	0	1.5550	0	34.6670	4	27.760	0	3647.961	0	107.9	4	32.2	4	-1E+10	1	-1E+10	1	-1E+10	1	-1E+10	1	-1E+10	1	-1E+10	1
4902643	13	C	10/29/2024	12:19	-134.296	43.752	0	3729.80	0	1.5540	0	34.6670	4	27.760	0	3667.657	0	108.1	4	32.3	4	-1E+10	1	-1E+10	1	-1E+10	1	-1E+10	1	-1E+10	1	-1E+10	1
4902643	13	C	10/29/2024	12:19	-134.296	43.752	0	3750.70	0	1.5540	0	34.6680	4	27.761	0	3688.033	0	108.3	4	32.3	4	-1E+10	1	-1E+10	1	-1E+10	1	-1E+10	1	-1E+10	1	-1E+10	1
4902643	13	C	10/29/2024	12:19	-134.296	43.752	0	3770.20	0	1.5540	0	34.6680	4	27.761	0	3707.042	0	108.3	4	32.3	4	-1E+10	1	-1E+10	1	-1E+10	1	-1E+10	1	-1E+10	1	-1E+10	1
4902643	13	C	10/29/2024	12:19	-134.296	43.752	0	3782.40	0	1.5540	0	34.6680	4	27.761	0	3718.935	0	107.6	4	32.1	4	-1E+10	1	-1E+10	1	-1E+10	1	-1E+10	1	-1E+10	1	-1E+10	1
4902643	13	C	10/29/2024	12:19	-134.296	43.752	0																										
4902643	14	C	11/08/2024	10:07	-134.340	43.700	0	1.10	0	14.7110	0	32.6030	0	24.187	0	1.091	0	235.9	4	93.1	4	-1E+10	1	-1E+10	1	-1E+10	1	-1E+10	1	-1E+10	1	-1E+10	1
4902643	14	C	11/08/2024	10:07	-134.340	43.700	0	1.20	0	14.7110	0	32.6035	0	24.188	0	1.190	0	235.9	4	93.1	4	-1E+10	1	-1E+10	1	-1E+10	1	-1E+10	1	-1E+10	1	-1E+10	1
4902643	14	C	11/08/2024	10:07	-134.340	43.700	0	1.40	0	14.7105	0	32.6035	0	24.188	0	1.389	0	235.9	4	93.1	4	-1E+10	1	-1E+10	1	-1E+10	1	-1E+10	1	-1E+10	1	-1E+10	1
4902643	14	C	11/08/2024	10:07	-134.340	43.700	0	1.50	0	14.7110	0	32.6020	0	24.186	0	1.488	0	235.8	4	93.1	4	-1E+10	1	-1E+10	1	-1E+10	1	-1E+10	1	-1E+10	1	-1E+10	1
4902643	14	C	11/08/2024	10:07	-134.340	43.700	0	1.60	0	14.7085	0	32.6025	0	24.187	0	1.587	0	-1e10	1	-1e10	1	-1E+10	1	-1E+10	1	-1E+10	1	-1E+10	1	-1E+10	1	-1E+10	1
4902643	14	C	11/08/2024	10:07	-134.340	43.700	0	1.90	0	14.7080	0	32.6050	0	24.189	0	1.885	0	235.6	4	93.0	4	-1E+10	1	-1E+10	1	-1E+10	1	-1E+10	1	-1E+10	1	-1E+10	1
4902643	14	C	11/08/2024	10:07	-134.340	43.700	0	2.40	0	14.7110	0	32.6020	0	24.187	0	2.381	0	235.6	4	93.0	4	-1E+10	1	-1E+10	1	-1E+10	1	-1E+10	1	-1E+10	1	-1E+10	1
4902643	14	C	11/08/2024	10:07	-134.340	43.700	0	3.60	0	14.7090	0	32.6050	0	24.189	0	3.571	0	235.5	4	92.9	4	-1E+10	1	-1E+10	1	-1E+10	1	-1E+10	1	-1E+10	1	-1E+10	1
4902643	14	C	11/08/2024	10:07	-134.340	43.700	0	4.50	0	14.7110	0	32.6040	0	24.188	0	4.464	0	235.6	4	93.0	4	-1E+10	1	-1E+10	1	-1E+10	1	-1E+10	1	-1E+10	1	-1E+10	1
4902643	14	C	11/08/2024	10:07	-134.340	43.700	0	5.50	0	14.7180	0	32.6040	0	24.187	0	5.456	0	235.4	4	92.9	4	-1E+10	1	-1E+10	1	-1E+10	1	-1E+10	1	-1E+10	1	-1E+10	1
4902643	14	C	11/08/2024	10:07	-134.340	43.700	0	6.90	0	14.7180	0	32.6050	0	24.187	0	6.845	0	235.4	4	92.9	4	-1E+10	1	-1E+10	1	-1E+10	1	-1E+10	1	-1E+10	1	-1E+10	1
4902643	14	C	11/08/2024	10:07	-134.340	43.700	0	7.80	0	14.7180	0	32.6060	0	24.188	0	7.737	0	235.4	4	92.9	4	-1E+10	1	-1E+10	1	-1E+10	1	-1E+10	1	-1E+10	1	-1E+10	1
4902643	14	C	11/08/2024	10:07	-134.340	43.700	0	8.60	0	14.7200	0	32.6080	0	24.189	0	8.531	0	235.4	4	92.9	4	-1E+10	1	-1E+10	1	-1E+10	1	-1E+10	1	-1E+10	1	-1E+10	1
4902643	14	C	11/08/2024	10:07	-134.340	43.700	0	9.80	0	14.7220	0	32.6070	0	24.188	0	9.721	0	235.4	4	92.9	4	-1E+10	1	-1E+10	1	-1E+10	1	-1E+10	1	-1E+10	1	-1E+10	1
4902643	14	C	11/08/2024	10:07	-134.340	43.700	0	15.00	0	14.7210	0	32.6070	0	24.189	0	14.879	0	235.3	4	92.9	4	-1E+10	1	-1E+10	1	-1E+10	1	-1E+10	1	-1E+10	1	-1E+10	1
4902643	14	C	11/08/2024	10:07	-134.340	43.700	0	25.30	0	14.7220	0	32.6080	0	24.190	0	25.096	0	234.8	4	92.7	4	-1E+10	1	-1E+10	1	-1E+10	1	-1E+10	1	-1E+10	1	-1E+10	1
4902643	14	C	11/08/2024	10:07	-134.340	43.700	0	34.80	0	14.7370	0	32.6280	0	24.202	0	34.519	0	233.8	4	92.3	4	-1E+10	1	-1E+10	1	-1E+10	1	-1E+10	1	-1E+10	1	-1E+10	1
4902643	14	C	11/08/2024	10:07	-134.340	43.700	0	45.30	0	14.7690	0	32.6460	0	24.209	0	44.933	0	233.3	4	92.2	4	-1E+10	1	-1E+10	1	-1E+10	1	-1E+10	1	-1E+10	1	-1E+10	1
4902643	14	C	11/08/2024	10:07	-134.340	43.700	0	54.40	0	14.7910	0	32.6530	0	24.210	0	53.958	0	234.5	4	92.7	4	-1E+10	1	-1E+10	1	-1E+10	1	-1E+10	1	-1E+10	1	-1E+10	1
4902643	14	C	11/08/2024	10:07	-134.340	43.700	0	64.40	0	13.3450	0	32.7150	0	24.557	0	63.875	0	244.3	4	93.9	4	-1E+10	1	-1E+10	1	-1E+10	1	-1E+10	1	-1E+10	1	-1E+10	1
4902643	14	C	11/08/2024	10:07	-134.340	43.700	0	74.70	0	10.7850	0	32.7300	0	25.048	0	74.089	0	247.7	4	90.2	4	-1E+10	1	-1E+10	1	-1E+10	1	-1E+10	1	-1E+10	1	-1E+10	1
4902643	14	C	11/08/2024	10:07	-134.340	43.700	0	84.60	0	10.1970	0	32.7420	0	25.158	0	83.906	0	243.1	4	87.5	4	-1E+10	1	-1E+10	1	-1E+10	1	-1E+10	1	-1E+10	1	-1E+10	1
4902643	14	C	11/08/2024	10:07	-134.340	43.700	0	94.90	0	9.8990	0	32.7950	0	25.249	0	94.119	0	239.2	4	85.5	4	-1E+10	1	-1E+10	1	-1E+10	1	-1E+10	1	-1E+10	1	-1E+10	1
4902643	14	C	11/08/2024	10:07	-134.340	43.700	0	104.40	0	9.6770	0	32.8390	0	25.320	0	103.539	0	236.4	4	84.2	4	-1E+10	1	-1E+10	1	-1E+10	1	-1E+10	1	-1E+10	1	-1E+10	1
4902643	14	C	11/08/2024	10:07	-134.340	43.700	0	114.60	0	9.5850	0	32.9100	0	25.391	0	113.652	0	232.0	4	82.5	4	-1E+10	1	-1E+10	1	-1E+10	1	-1E+10	1	-1E+10	1	-1E+10	1
4902643	14	C	11/08/2024	10:07	-134.340	43.700	0	124.70	0	8.9530	0	32.9220	0	25.501	0	123.665	0	228.8	4	80.2	4	-1E+10	1	-1E+10	1	-1E+10	1	-1E+10	1	-1E+10	1	-1E+10	1
4902643	14	C	11/08/2024	10:07	-134.340	43.700	0	134.60	0	9.0230	0	33.1030	0	25.632	0	133.480	0	212.0	4	74.6	4	-1E+10	1	-1E+10	1	-1E+10	1	-1E+10	1	-1E+10	1	-1E+10	1
4902643	14	C	11/08/2024	10:07	-134.340	43.700	0	144.80	0	8.7870	0	33.3260	0	25.843	0	143.591	0	202.8	4	71.1	4	-1E+10	1	-1E+10	1	-1E+10	1	-1E+10	1	-1E+10	1	-1E+10	1
4902643	14	C	11/08/2024	10:07	-134.340	43.700	0	155.10	0	8.6310	0	33.4440	0	25.960	0	153.802	0	201.8	4	70.5	4	-1E+10	1	-1E+10	1	-1E+10	1	-1E+10	1	-1E+10	1	-1E+10	1
4902643	14	C	11/08/2024	10:07	-134.340	43.700	0	164.80	0	8.4890	0	33.5710	0	26.081	0	163.417	0	199.8	4	69.7	4	-1E+10	1	-1E+10	1	-1E+10	1	-1E+10	1	-1E+10	1	-1E+10	1
4902643	14	C	11/08/2024	10:07	-134.340	43.700	0	175.60	0	8.2690	0	33.6570	0	26.182	0	174.121	0	194.6	4	67.6	4	-1E+10	1	-1E+10	1	-1E+10	1	-1E+10	1	-1E+10	1	-1E+10	1
4902643	14	C	11/08/2024	10:07	-134.340	43.700	0	184.70	0	8.1270	0	33.7000	0	26.237	0	183.141	0	190.7	4	66.0	4	-1E+10	1	-1E+10	1	-1E+10	1	-1E+10	1	-1E+10	1	-1E+10	1
4902643	14	C	11/08/2024	10:07	-134.340	43.700	0	194.70	0	8.0580	0	33.7520	0	26.288	0	193.052	0	187.7	4	64.9	4	-1E+10	1	-1E+10	1	-1E+10	1	-1E+10	1	-1E+10	1	-1E+10	1
4902643	14	C	11/08/2024	10:07	-134.340	43.700	0	209.50	0	7.7390	0	33.8000	0	26.373	0	207.719	0	181.3	4	62.3	4	-1E+10	1	-1E+10	1	-1E+10	1	-1E+10	1	-1E+10	1	-1E+10	1
4902643	14	C	11/08/2024	10:07	-134.340	43.700	0	229.30	0	7.3570	0	33.8290	0	26.450	0	227.340	0	173.5	4	59.1	4	-1E+10	1	-1E+10	1	-1E+10	1	-1E+10	1	-1E+10	1	-1E+10	1
4902643	14	C	11/08/2024	10:07	-134.340	43.700	0	249.80	0	7.0640	0	33.8340	0	26.495	0	247.652	0	166.9	4	56.5	4	-1E+10	1	-1E+10	1	-1E+10	1	-1E+10	1	-1E+10	1	-1E+10	1
4902643	14	C	11/08/2024	10:07	-134.340	43.700	0	270.20	0	6.7230	0	33.8260	0	26.535	0	267.864	0	159.1	4	53.4	4	-1E+10	1	-1E+10	1	-1E+10	1	-1E+10	1	-1E+10	1	-1E+10	1
4902643	14	C	11/08/2024	10:07	-134.340	43.700	0	289.90	0	6.4480	0	33.8320	0	26.576	0	287.380	0	141.7	4	47.3	4	-1E+10	1	-1E+10	1	-1E+10	1	-1E+10	1	-1E+10	1	-1E+10	1
4902643	14	C	11/08/2024	10:07	-134.340	43.700	0	309.60	0	6.2630	0	33.8460	0	26.611	0	306.894	0	127.6	4	42.4	4	-1E+10	1	-1E+10	1	-1E+10	1	-1E+10	1	-1E+10	1	-1E+10	1
4902643	14	C	11/08/2024	10:07	-134.340	43.700	0	329.50	0	6.0160	0	33.8480	0	26.644	0	326.604	0	118.9	4	39.3	4	-1E+10	1	-1E+10	1	-1E+10	1	-1E+10	1	-1E+10	1	-1E+10	1
4902643	14	C	11/08/2024	10:07	-134.340	43.700	0	349.60	0	5.6010	0	33.8330	0	26.683	0	346.511	0	109.9	4	35.9	4	-1E+10	1	-1E+10	1	-1E+10	1	-1E+10	1	-1E+10	1	-1E+10	1
4902643	14	C	11/08/2024	10:07	-134.340	43.700	0	370.00	0	5.3840	0	33.8420	0	26.716	0	366.712	0	98.5	4	32.1	4	-1E+10	1	-1E+10	1	-1E+10	1	-1E+10	1	-1E+10	1	-1E+10	1
4902643	14	C	11/08/2024	10:07	-134.340	43.700	0	389.80	0	5.2210	0	33.8520	0	26.743	0	386.318	0	90.4	4	29.3	4	-1E+10	1	-1E+10	1	-1E+10	1	-1E+10	1	-1E+10	1	-1E+10	1
4902643	14	C	11/08/2024	10:07	-134.340	43.700	0	410.50	0	5.0390	0	33.8660	0	26.776	0	406.813	0	81.7	4	26.4	4	-1E+10	1	-1E+10	1	-1E+10	1	-1E+10	1	-1E+10	1	-1E+10	1
4902643	14	C	11/08/2024	10:07	-134.340	43.700	0	429.80	0	4.8880	0	33.8860	0	26.809	0	425.920	0	74.2	4	23.9	4	-1E+10	1	-1E+10	1	-1E+10	1	-1E+10	1	-1E+10	1	-1E+10	1
4902643	14	C	11/08/2024	10:07	-134.340	43.700	0	449.50	0	4.7530	0	33.9040	0	26.838	0	445.421	0	67.2	4	21.6	4	-1E+10	1	-1E+10	1	-1E+10	1	-1E+10	1	-1E+10	1	-1E+10	1
4902643	14	C	11/08/2024	10:07	-134.340	43.700	0	468.70	0	4.6410	0	33.9240	0	26.866	0	464.425	0	61.1	4	19.6	4	-1E+10	1	-1E+10	1	-1E+10	1	-1E+10	1	-1E+10	1	-1E+10	1
4902643	14	C	11/08/2024	10:07	-134.340	43.700	0	489.90	0	4.5580	0	33.9490	0	26.895	0	485.407	0	55.4	4	17.7	4	-1E+10	1	-1E+10	1	-1E+10	1	-1E+10	1	-1E+10	1	-1E+10	1
4902643	14	C	11/08/2024	10:07	-134.340	43.700	0	509.80	0	4.5010	0	33.9740	0	26.922	0	505.100	0	50.3	4	16.1	4	-1E+10	1	-1E+10	1	-1E+10	1	-1E+10	1	-1E+10	1	-1E+10	1
4902643	14	C	11/08/2024	10:07	-134.340	43.700	0	529.60	0	4.4420	0	33.9970	0	26.946	0	524.693	0	45.8	4	14.6	4	-1E+10	1	-1E+10	1	-1E+10	1	-1E+10	1	-1E+10	1	-1E+10	1
4902643	14	C	11/08/2024	10:07	-134.340	43.700	0	550.00	0	4.3890	0	34.0170	0	26.968	0	544.877	0	42.3	4	13.5	4	-1E+10	1	-1E+10	1	-1E+10	1	-1E+10	1	-1E+10	1	-1E+10	1
4902643	14	C	11/08/2024	10:07	-134.340	43.700	0	570.10	0	4.3470	0	34.0320	0	26.984	0	564.762	0	39.1	4	12.4	4	-1E+10	1	-1E+10	1	-1E+10	1	-1E+10	1	-1E+10	1	-1E+10	1
4902643	14	C	11/08/2024	10:07	-134.340	43.700	0	589.90	0	4.2920	0	34.0530	0	27.007	0	584.349	0	35.5	4	11.3	4	-1E+10	1	-1E+10	1	-1E+10	1	-1E+10	1	-1E+10	1	-1E+10	1
4902643	14	C	11/08/2024	10:07	-134.340	43.700	0	609.90	0	4.2450	0	34.0690	0	27.025	0	604.132	0	32.1	4	10.2	4	-1E+10	1	-1E+10	1	-1E+10	1	-1E+10	1	-1E+10	1	-1E+10	1
4902643	14	C	11/08/2024	10:07	-134.340	43.700	0	629.10	0	4.1970	0	34.0860	0	27.044	0	623.122	0	28.6	4	9.1	4	-1E+10	1	-1E+10	1	-1E+10	1	-1E+10	1	-1E+10	1	-1E+10	1
4902643	14	C	11/08/2024	10:07	-134.340	43.700	0	649.60	0	4.1310	0	34.1060	0	27.066	0	643.395	0	25.8	4	8.2	4	-1E+10	1	-1E+10	1	-1E+10	1	-1E+10	1	-1E+10	1	-1E+10	1
4902643	14	C	11/08/2024	10:07	-134.340	43.700	0	669.40	0	4.0820	0	34.1210	0	27.084	0	662.975	0	23.3	4	7.4	4	-1E+10	1	-1E+10	1	-1E+10	1	-1E+10	1	-1E+10	1	-1E+10	1
4902643	14	C	11/08/2024	10:07	-134.340	43.700	0	689.40	0	4.0380	0	34.1360	0	27.100	0	682.750	0	20.8	4	6.6	4	-1E+10	1	-1E+10	1	-1E+10	1	-1E+10	1	-1E+10	1	-1E+10	1
4902643	14	C	11/08/2024	10:07	-134.340	43.700	0	709.60	0	3.9760	0	34.1540	0	27.121	0	702.721	0	18.3	4	5.8	4	-1E+10	1	-1E+10	1	-1E+10	1	-1E+10	1	-1E+10	1	-1E+10	1
4902643	14	C	11/08/2024	10:07	-134.340	43.700	0	729.70	0	3.9200	0	34.1710	0	27.140	0	722.591	0	16.2	4	5.1	4	-1E+10	1	-1E+10	1	-1E+10	1	-1E+10	1	-1E+10	1	-1E+10	1
4902643	14	C	11/08/2024	10:07	-134.340	43.700	0	749.70	0	3.8570	0	34.1890	0	27.161	0	742.361	0	14.5	4	4.6	4	-1E+10	1	-1E+10	1	-1E+10	1	-1E+10	1	-1E+10	1	-1E+10	1
4902643	14	C	11/08/2024	10:07	-134.340	43.700	0	769.80	0	3.7980	0	34.2050	0	27.180	0	762.228	0	13.2	4	4.2	4	-1E+10	1	-1E+10	1	-1E+10	1	-1E+10	1	-1E+10	1	-1E+10	1
4902643	14	C	11/08/2024	10:07	-134.340	43.700	0	789.90	0	3.7310	0	34.2220	0	27.200	0	782.092	0	11.8	4	3.7	4	-1E+10	1	-1E+10	1	-1E+10	1	-1E+10	1	-1E+10	1	-1E+10	1
4902643	14	C	11/08/2024	10:07	-134.340	43.700	0	810.50	0	3.6770	0	34.2390	0	27.219	0	802.449	0	10.2	4	3.2	4	-1E+10	1	-1E+10	1	-1E+10	1	-1E+10	1	-1E+10	1	-1E+10	1
4902643	14	C	11/08/2024	10:07	-134.340	43.700	0	829.60	0	3.6420	0	34.2590	0	27.239	0	821.322	0	8.8	4	2.8	4	-1E+10	1	-1E+10	1	-1E+10	1	-1E+10	1	-1E+10	1	-1E+10	1
4902643	14	C	11/08/2024	10:07	-134.340	43.700	0	849.50	0	3.6170	0	34.2730	0	27.252	0	840.983	0	8.2	4	2.6	4	-1E+10	1	-1E+10	1	-1E+10	1	-1E+10	1	-1E+10	1	-1E+10	1
4902643	14	C	11/08/2024	10:07	-134.340	43.700	0	870.10	0	3.5840	0	34.2870	0	27.267	0	861.334	0	7.7	4	2.4	4	-1E+10	1	-1E+10	1	-1E+10	1	-1E+10	1	-1E+10	1	-1E+10	1
4902643	14	C	11/08/2024	10:07	-134.340	43.700	0	889.40	0	3.5640	0	34.3000	0	27.279	0	880.399	0	7.3	4	2.3	4	-1E+10	1	-1E+10	1	-1E+10	1	-1E+10	1	-1E+10	1	-1E+10	1
4902643	14	C	11/08/2024	10:07	-134.340	43.700	0	909.50	0	3.5380	0	34.3120	0	27.292	0	900.253	0	7.1	4	2.2	4	-1E+10	1	-1E+10	1	-1E+10	1	-1E+10	1	-1E+10	1	-1E+10	1
4902643	14	C	11/08/2024	10:07	-134.340	43.700	0	929.80	0	3.5120	0	34.3230	0	27.303	0	920.301	0	7.0	4	2.2	4	-1E+10	1	-1E+10	1	-1E+10	1	-1E+10	1	-1E+10	1	-1E+10	1
4902643	14	C	11/08/2024	10:07	-134.340	43.700	0	949.70	0	3.4790	0	34.3340	0	27.315	0	939.954	0	6.9	4	2.2	4	-1E+10	1	-1E+10	1	-1E+10	1	-1E+10	1	-1E+10	1	-1E+10	1
4902643	14	C	11/08/2024	10:07	-134.340	43.700	0	969.60	0	3.4590	0	34.3440	0	27.325	0	959.604	0	6.9	4	2.1	4	-1E+10	1	-1E+10	1	-1E+10	1	-1E+10	1	-1E+10	1	-1E+10	1
4902643	14	C	11/08/2024	10:07	-134.340	43.700	0	989.80	0	3.4450	0	34.3600	0	27.339	0	979.548	0	7.0	4	2.2	4	-1E+10	1	-1E+10	1	-1E+10	1	-1E+10	1	-1E+10	1	-1E+10	1
4902643	14	C	11/08/2024	10:07	-134.340	43.700	0	1009.70	0	3.4150	0	34.3690	0	27.349	0	999.195	0	7.1	4	2.2	4	-1E+10	1	-1E+10	1	-1E+10	1	-1E+10	1	-1E+10	1	-1E+10	1
4902643	14	C	11/08/2024	10:07	-134.340	43.700	0	1029.40	0	3.3810	0	34.3770	0	27.359	0	1018.642	0	7.2	4	2.3	4	-1E+10	1	-1E+10	1	-1E+10	1	-1E+10	1	-1E+10	1	-1E+10	1
4902643	14	C	11/08/2024	10:07	-134.340	43.700	0	1049.50	0	3.3470	0	34.3860	0	27.370	0	1038.482	0	7.5	4	2.3	4	-1E+10	1	-1E+10	1	-1E+10	1	-1E+10	1	-1E+10	1	-1E+10	1
4902643	14	C	11/08/2024	10:07	-134.340	43.700	0	1069.80	0	3.3270	0	34.3960	0	27.380	0	1058.518	0	7.8	4	2.4	4	-1E+10	1	-1E+10	1	-1E+10	1	-1E+10	1	-1E+10	1	-1E+10	1
4902643	14	C	11/08/2024	10:07	-134.340	43.700	0	1090.00	0	3.2930	0	34.4060	0	27.391	0	1078.453	0	8.3	4	2.6	4	-1E+10	1	-1E+10	1	-1E+10	1	-1E+10	1	-1E+10	1	-1E+10	1
4902643	14	C	11/08/2024	10:07	-134.340	43.700	0	1110.00	0	3.2590	0	34.4130	0	27.400	0	1098.189	0	8.7	4	2.7	4	-1E+10	1	-1E+10	1	-1E+10	1	-1E+10	1	-1E+10	1	-1E+10	1
4902643	14	C	11/08/2024	10:07	-134.340	43.700	0	1129.90	0	3.2310	0	34.4210	0	27.409	0	1117.824	0	9.2	4	2.9	4	-1E+10	1	-1E+10	1	-1E+10	1	-1E+10	1	-1E+10	1	-1E+10	1
4902643	14	C	11/08/2024	10:07	-134.340	43.700	0	1149.60	0	3.1940	0	34.4290	0	27.419	0	1137.260	0	9.8	4	3.0	4	-1E+10	1	-1E+10	1	-1E+10	1	-1E+10	1	-1E+10	1	-1E+10	1
4902643	14	C	11/08/2024	10:07	-134.340	43.700	0	1170.30	0	3.1630	0	34.4350	0	27.427	0	1157.681	0	10.3	4	3.2	4	-1E+10	1	-1E+10	1	-1E+10	1	-1E+10	1	-1E+10	1	-1E+10	1
4902643	14	C	11/08/2024	10:07	-134.340	43.700	0	1189.80	0	3.1310	0	34.4390	0	27.433	0	1176.916	0	10.5	4	3.3	4	-1E+10	1	-1E+10	1	-1E+10	1	-1E+10	1	-1E+10	1	-1E+10	1
4902643	14	C	11/08/2024	10:07	-134.340	43.700	0	1210.00	0	3.0880	0	34.4430	0	27.440	0	1196.840	0	10.9	4	3.4	4	-1E+10	1	-1E+10	1	-1E+10	1	-1E+10	1	-1E+10	1	-1E+10	1
4902643	14	C	11/08/2024	10:07	-134.340	43.700	0	1229.80	0	3.0410	0	34.4490	0	27.449	0	1216.368	0	11.6	4	3.6	4	-1E+10	1	-1E+10	1	-1E+10	1	-1E+10	1	-1E+10	1	-1E+10	1
4902643	14	C	11/08/2024	10:07	-134.340	43.700	0	1249.40	0	3.0090	0	34.4560	0	27.458	0	1235.696	0	12.4	4	3.8	4	-1E+10	1	-1E+10	1	-1E+10	1	-1E+10	1	-1E+10	1	-1E+10	1
4902643	14	C	11/08/2024	10:07	-134.340	43.700	0	1268.80	0	2.9550	0	34.4630	0	27.469	0	1254.825	0	13.2	4	4.1	4	-1E+10	1	-1E+10	1	-1E+10	1	-1E+10	1	-1E+10	1	-1E+10	1
4902643	14	C	11/08/2024	10:07	-134.340	43.700	0	1289.80	0	2.9010	0	34.4700	0	27.479	0	1275.530	0	14.1	4	4.3	4	-1E+10	1	-1E+10	1	-1E+10	1	-1E+10	1	-1E+10	1	-1E+10	1
4902643	14	C	11/08/2024	10:07	-134.340	43.700	0	1309.80	0	2.8610	0	34.4750	0	27.487	0	1295.248	0	15.0	4	4.6	4	-1E+10	1	-1E+10	1	-1E+10	1	-1E+10	1	-1E+10	1	-1E+10	1
4902643	14	C	11/08/2024	10:07	-134.340	43.700	0	1329.50	0	2.8300	0	34.4800	0	27.494	0	1314.667	0	16.0	4	4.9	4	-1E+10	1	-1E+10	1	-1E+10	1	-1E+10	1	-1E+10	1	-1E+10	1
4902643	14	C	11/08/2024	10:07	-134.340	43.700	0	1349.70	0	2.7990	0	34.4850	0	27.500	0	1334.578	0	16.9	4	5.2	4	-1E+10	1	-1E+10	1	-1E+10	1	-1E+10	1	-1E+10	1	-1E+10	1
4902643	14	C	11/08/2024	10:07	-134.340	43.700	0	1369.90	0	2.7630	0	34.4900	0	27.508	0	1354.487	0	17.8	4	5.5	4	-1E+10	1	-1E+10	1	-1E+10	1	-1E+10	1	-1E+10	1	-1E+10	1
4902643	14	C	11/08/2024	10:07	-134.340	43.700	0	1389.80	0	2.7300	0	34.4940	0	27.514	0	1374.098	0	18.8	4	5.8	4	-1E+10	1	-1E+10	1	-1E+10	1	-1E+10	1	-1E+10	1	-1E+10	1
4902643	14	C	11/08/2024	10:07	-134.340	43.700	0	1410.30	0	2.6960	0	34.4990	0	27.521	0	1394.299	0	19.8	4	6.1	4	-1E+10	1	-1E+10	1	-1E+10	1	-1E+10	1	-1E+10	1	-1E+10	1
4902643	14	C	11/08/2024	10:07	-134.340	43.700	0	1429.70	0	2.6660	0	34.5020	0	27.526	0	1413.414	0	20.6	4	6.3	4	-1E+10	1	-1E+10	1	-1E+10	1	-1E+10	1	-1E+10	1	-1E+10	1
4902643	14	C	11/08/2024	10:07	-134.340	43.700	0	1449.70	0	2.6290	0	34.5060	0	27.532	0	1433.118	0	21.6	4	6.6	4	-1E+10	1	-1E+10	1	-1E+10	1	-1E+10	1	-1E+10	1	-1E+10	1
4902643	14	C	11/08/2024	10:07	-134.340	43.700	0	1469.90	0	2.5960	0	34.5100	0	27.539	0	1453.018	0	22.6	4	6.9	4	-1E+10	1	-1E+10	1	-1E+10	1	-1E+10	1	-1E+10	1	-1E+10	1
4902643	14	C	11/08/2024	10:07	-134.340	43.700	0	1489.90	0	2.5610	0	34.5140	0	27.545	0	1472.718	0	23.6	4	7.2	4	-1E+10	1	-1E+10	1	-1E+10	1	-1E+10	1	-1E+10	1	-1E+10	1
4902643	14	C	11/08/2024	10:07	-134.340	43.700	0	1510.20	0	2.5210	0	34.5180	0	27.551	0	1492.713	0	24.6	4	7.5	4	-1E+10	1	-1E+10	1	-1E+10	1	-1E+10	1	-1E+10	1	-1E+10	1
4902643	14	C	11/08/2024	10:07	-134.340	43.700	0	1529.70	0	2.4870	0	34.5220	0	27.558	0	1511.917	0	26.2	4	8.0	4	-1E+10	1	-1E+10	1	-1E+10	1	-1E+10	1	-1E+10	1	-1E+10	1
4902643	14	C	11/08/2024	10:07	-134.340	43.700	0	1550.00	0	2.4580	0	34.5270	0	27.564	0	1531.908	0	27.5	4	8.4	4	-1E+10	1	-1E+10	1	-1E+10	1	-1E+10	1	-1E+10	1	-1E+10	1
4902643	14	C	11/08/2024	10:07	-134.340	43.700	0	1570.00	0	2.4300	0	34.5300	0	27.569	0	1551.601	0	28.3	4	8.6	4	-1E+10	1	-1E+10	1	-1E+10	1	-1E+10	1	-1E+10	1	-1E+10	1
4902643	14	C	11/08/2024	10:07	-134.340	43.700	0	1589.90	0	2.3950	0	34.5330	0	27.574	0	1571.194	0	29.3	4	8.9	4	-1E+10	1	-1E+10	1	-1E+10	1	-1E+10	1	-1E+10	1	-1E+10	1
4902643	14	C	11/08/2024	10:07	-134.340	43.700	0	1609.60	0	2.3700	0	34.5370	0	27.580	0	1590.588	0	30.4	4	9.3	4	-1E+10	1	-1E+10	1	-1E+10	1	-1E+10	1	-1E+10	1	-1E+10	1
4902643	14	C	11/08/2024	10:07	-134.340	43.700	0	1629.60	0	2.3480	0	34.5400	0	27.584	0	1610.276	0	31.5	4	9.6	4	-1E+10	1	-1E+10	1	-1E+10	1	-1E+10	1	-1E+10	1	-1E+10	1
4902643	14	C	11/08/2024	10:07	-134.340	43.700	0	1649.70	0	2.3150	0	34.5440	0	27.590	0	1630.060	0	32.8	4	10.0	4	-1E+10	1	-1E+10	1	-1E+10	1	-1E+10	1	-1E+10	1	-1E+10	1
4902643	14	C	11/08/2024	10:07	-134.340	43.700	0	1669.60	0	2.2860	0	34.5470	0	27.595	0	1649.646	0	34.0	4	10.3	4	-1E+10	1	-1E+10	1	-1E+10	1	-1E+10	1	-1E+10	1	-1E+10	1
4902643	14	C	11/08/2024	10:07	-134.340	43.700	0	1689.70	0	2.2600	0	34.5500	0	27.600	0	1669.427	0	35.2	4	10.7	4	-1E+10	1	-1E+10	1	-1E+10	1	-1E+10	1	-1E+10	1	-1E+10	1
4902643	14	C	11/08/2024	10:07	-134.340	43.700	0	1709.60	0	2.2380	0	34.5530	0	27.604	0	1689.009	0	36.4	4	11.0	4	-1E+10	1	-1E+10	1	-1E+10	1	-1E+10	1	-1E+10	1	-1E+10	1
4902643	14	C	11/08/2024	10:07	-134.340	43.700	0	1729.60	0	2.2110	0	34.5560	0	27.609	0	1708.687	0	37.9	4	11.5	4	-1E+10	1	-1E+10	1	-1E+10	1	-1E+10	1	-1E+10	1	-1E+10	1
4902643	14	C	11/08/2024	10:07	-134.340	43.700	0	1749.70	0	2.1780	0	34.5610	0	27.615	0	1728.462	0	39.6	4	12.0	4	-1E+10	1	-1E+10	1	-1E+10	1	-1E+10	1	-1E+10	1	-1E+10	1
4902643	14	C	11/08/2024	10:07	-134.340	43.700	0	1770.30	0	2.1490	0	34.5650	0	27.621	0	1748.728	0	41.2	4	12.5	4	-1E+10	1	-1E+10	1	-1E+10	1	-1E+10	1	-1E+10	1	-1E+10	1
4902643	14	C	11/08/2024	10:07	-134.340	43.700	0	1789.80	0	2.1280	0	34.5680	0	27.625	0	1767.909	0	42.4	4	12.8	4	-1E+10	1	-1E+10	1	-1E+10	1	-1E+10	1	-1E+10	1	-1E+10	1
4902643	14	C	11/08/2024	10:07	-134.340	43.700	0	1809.70	0	2.1080	0	34.5700	0	27.628	0	1787.482	0	43.7	4	13.2	4	-1E+10	1	-1E+10	1	-1E+10	1	-1E+10	1	-1E+10	1	-1E+10	1
4902643	14	C	11/08/2024	10:07	-134.340	43.700	0	1830.20	0	2.0850	0	34.5740	0	27.633	0	1807.643	0	45.1	4	13.6	4	-1E+10	1	-1E+10	1	-1E+10	1	-1E+10	1	-1E+10	1	-1E+10	1
4902643	14	C	11/08/2024	10:07	-134.340	43.700	0	1849.70	0	2.0670	0	34.5760	0	27.637	0	1826.819	0	46.3	4	14.0	4	-1E+10	1	-1E+10	1	-1E+10	1	-1E+10	1	-1E+10	1	-1E+10	1
4902643	14	C	11/08/2024	10:07	-134.340	43.700	0	1869.80	0	2.0510	0	34.5790	0	27.640	0	1846.583	0	47.4	4	14.3	4	-1E+10	1	-1E+10	1	-1E+10	1	-1E+10	1	-1E+10	1	-1E+10	1
4902643	14	C	11/08/2024	10:07	-134.340	43.700	0	1889.80	0	2.0330	0	34.5820	0	27.644	0	1866.247	0	48.7	4	14.7	4	-1E+10	1	-1E+10	1	-1E+10	1	-1E+10	1	-1E+10	1	-1E+10	1
4902643	14	C	11/08/2024	10:07	-134.340	43.700	0	1909.60	0	2.0160	0	34.5840	0	27.647	0	1885.712	0	49.9	4	15.1	4	-1E+10	1	-1E+10	1	-1E+10	1	-1E+10	1	-1E+10	1	-1E+10	1
4902643	14	C	11/08/2024	10:07	-134.340	43.700	0	1929.70	0	2.0010	0	34.5870	0	27.651	0	1905.471	0	51.0	4	15.4	4	-1E+10	1	-1E+10	1	-1E+10	1	-1E+10	1	-1E+10	1	-1E+10	1
4902643	14	C	11/08/2024	10:07	-134.340	43.700	0	1949.60	0	1.9860	0	34.5890	0	27.654	0	1925.031	0	52.3	4	15.8	4	-1E+10	1	-1E+10	1	-1E+10	1	-1E+10	1	-1E+10	1	-1E+10	1
4902643	14	C	11/08/2024	10:07	-134.340	43.700	0	1969.30	0	1.9690	0	34.5920	0	27.658	0	1944.393	0	53.4	4	16.1	4	-1E+10	1	-1E+10	1	-1E+10	1	-1E+10	1	-1E+10	1	-1E+10	1
4902643	14	C	11/08/2024	10:07	-134.340	43.700	0	1990.20	0	1.9580	0	34.5940	0	27.660	0	1964.932	0	54.3	4	16.4	4	-1E+10	1	-1E+10	1	-1E+10	1	-1E+10	1	-1E+10	1	-1E+10	1
4902643	14	C	11/08/2024	10:07	-134.340	43.700	0	2009.90	0	1.9460	0	34.5950	4	27.662	0	1984.291	0	55.2	4	16.6	4	-1E+10	1	-1E+10	1	-1E+10	1	-1E+10	1	-1E+10	1	-1E+10	1
4902643	14	C	11/08/2024	10:07	-134.340	43.700	0	2030.10	0	1.9360	0	34.5970	4	27.665	0	2004.138	0	56.1	4	16.9	4	-1E+10	1	-1E+10	1	-1E+10	1	-1E+10	1	-1E+10	1	-1E+10	1
4902643	14	C	11/08/2024	10:07	-134.340	43.700	0	2049.70	0	1.9270	0	34.5990	4	27.667	0	2023.395	0	56.9	4	17.1	4	-1E+10	1	-1E+10	1	-1E+10	1	-1E+10	1	-1E+10	1	-1E+10	1
4902643	14	C	11/08/2024	10:07	-134.340	43.700	0	2069.50	0	1.9200	0	34.6000	4	27.668	0	2042.846	0	57.6	4	17.3	4	-1E+10	1	-1E+10	1	-1E+10	1	-1E+10	1	-1E+10	1	-1E+10	1
4902643	14	C	11/08/2024	10:07	-134.340	43.700	0	2089.60	0	1.9100	0	34.6020	4	27.671	0	2062.590	0	58.5	4	17.6	4	-1E+10	1	-1E+10	1	-1E+10	1	-1E+10	1	-1E+10	1	-1E+10	1
4902643	14	C	11/08/2024	10:07	-134.340	43.700	0	2109.70	0	1.9010	0	34.6030	4	27.672	0	2082.332	0	59.2	4	17.8	4	-1E+10	1	-1E+10	1	-1E+10	1	-1E+10	1	-1E+10	1	-1E+10	1
4902643	14	C	11/08/2024	10:07	-134.340	43.700	0	2130.10	0	1.8930	0	34.6050	4	27.675	0	2102.367	0	60.0	4	18.0	4	-1E+10	1	-1E+10	1	-1E+10	1	-1E+10	1	-1E+10	1	-1E+10	1
4902643	14	C	11/08/2024	10:07	-134.340	43.700	0	2149.70	0	1.8850	0	34.6060	4	27.676	0	2121.615	0	60.8	4	18.3	4	-1E+10	1	-1E+10	1	-1E+10	1	-1E+10	1	-1E+10	1	-1E+10	1
4902643	14	C	11/08/2024	10:07	-134.340	43.700	0	2169.50	0	1.8730	0	34.6080	4	27.679	0	2141.057	0	61.6	4	18.5	4	-1E+10	1	-1E+10	1	-1E+10	1	-1E+10	1	-1E+10	1	-1E+10	1
4902643	14	C	11/08/2024	10:07	-134.340	43.700	0	2189.90	0	1.8660	0	34.6090	4	27.680	0	2161.087	0	62.3	4	18.7	4	-1E+10	1	-1E+10	1	-1E+10	1	-1E+10	1	-1E+10	1	-1E+10	1
4902643	14	C	11/08/2024	10:07	-134.340	43.700	0	2210.40	0	1.8570	0	34.6110	4	27.683	0	2181.212	0	63.1	4	19.0	4	-1E+10	1	-1E+10	1	-1E+10	1	-1E+10	1	-1E+10	1	-1E+10	1
4902643	14	C	11/08/2024	10:07	-134.340	43.700	0	2229.70	0	1.8510	0	34.6120	4	27.684	0	2200.158	0	63.6	4	19.1	4	-1E+10	1	-1E+10	1	-1E+10	1	-1E+10	1	-1E+10	1	-1E+10	1
4902643	14	C	11/08/2024	10:07	-134.340	43.700	0	2249.70	0	1.8460	0	34.6130	4	27.686	0	2219.790	0	64.3	4	19.3	4	-1E+10	1	-1E+10	1	-1E+10	1	-1E+10	1	-1E+10	1	-1E+10	1
4902643	14	C	11/08/2024	10:07	-134.340	43.700	0	2269.50	0	1.8390	0	34.6140	4	27.687	0	2239.223	0	65.0	4	19.5	4	-1E+10	1	-1E+10	1	-1E+10	1	-1E+10	1	-1E+10	1	-1E+10	1
4902643	14	C	11/08/2024	10:07	-134.340	43.700	0	2289.80	0	1.8320	0	34.6150	4	27.688	0	2259.145	0	65.7	4	19.7	4	-1E+10	1	-1E+10	1	-1E+10	1	-1E+10	1	-1E+10	1	-1E+10	1
4902643	14	C	11/08/2024	10:07	-134.340	43.700	0	2310.00	0	1.8260	0	34.6160	4	27.690	0	2278.967	0	66.4	4	19.9	4	-1E+10	1	-1E+10	1	-1E+10	1	-1E+10	1	-1E+10	1	-1E+10	1
4902643	14	C	11/08/2024	10:07	-134.340	43.700	0	2329.80	0	1.8210	0	34.6170	4	27.691	0	2298.395	0	67.1	4	20.2	4	-1E+10	1	-1E+10	1	-1E+10	1	-1E+10	1	-1E+10	1	-1E+10	1
4902643	14	C	11/08/2024	10:07	-134.340	43.700	0	2349.80	0	1.8110	0	34.6190	4	27.694	0	2318.018	0	68.1	4	20.4	4	-1E+10	1	-1E+10	1	-1E+10	1	-1E+10	1	-1E+10	1	-1E+10	1
4902643	14	C	11/08/2024	10:07	-134.340	43.700	0	2369.80	0	1.8020	0	34.6200	4	27.695	0	2337.638	0	69.0	4	20.7	4	-1E+10	1	-1E+10	1	-1E+10	1	-1E+10	1	-1E+10	1	-1E+10	1
4902643	14	C	11/08/2024	10:07	-134.340	43.700	0	2390.00	0	1.7910	0	34.6220	4	27.698	0	2357.453	0	69.8	4	20.9	4	-1E+10	1	-1E+10	1	-1E+10	1	-1E+10	1	-1E+10	1	-1E+10	1
4902643	14	C	11/08/2024	10:07	-134.340	43.700	0	2409.70	0	1.7820	0	34.6230	4	27.699	0	2376.776	0	70.6	4	21.2	4	-1E+10	1	-1E+10	1	-1E+10	1	-1E+10	1	-1E+10	1	-1E+10	1
4902643	14	C	11/08/2024	10:07	-134.340	43.700	0	2429.70	0	1.7740	0	34.6240	4	27.701	0	2396.391	0	71.4	4	21.4	4	-1E+10	1	-1E+10	1	-1E+10	1	-1E+10	1	-1E+10	1	-1E+10	1
4902643	14	C	11/08/2024	10:07	-134.340	43.700	0	2450.00	0	1.7680	0	34.6250	4	27.702	0	2416.298	0	72.2	4	21.6	4	-1E+10	1	-1E+10	1	-1E+10	1	-1E+10	1	-1E+10	1	-1E+10	1
4902643	14	C	11/08/2024	10:07	-134.340	43.700	0	2470.00	0	1.7600	0	34.6260	4	27.704	0	2435.910	0	73.0	4	21.9	4	-1E+10	1	-1E+10	1	-1E+10	1	-1E+10	1	-1E+10	1	-1E+10	1
4902643	14	C	11/08/2024	10:07	-134.340	43.700	0	2490.70	0	1.7540	0	34.6270	4	27.705	0	2456.206	0	73.6	4	22.1	4	-1E+10	1	-1E+10	1	-1E+10	1	-1E+10	1	-1E+10	1	-1E+10	1
4902643	14	C	11/08/2024	10:07	-134.340	43.700	0	2509.70	0	1.7480	0	34.6280	4	27.706	0	2474.834	0	74.3	4	22.3	4	-1E+10	1	-1E+10	1	-1E+10	1	-1E+10	1	-1E+10	1	-1E+10	1
4902643	14	C	11/08/2024	10:07	-134.340	43.700	0	2529.70	0	1.7390	0	34.6290	4	27.708	0	2494.440	0	75.3	4	22.6	4	-1E+10	1	-1E+10	1	-1E+10	1	-1E+10	1	-1E+10	1	-1E+10	1
4902643	14	C	11/08/2024	10:07	-134.340	43.700	0	2549.40	0	1.7310	0	34.6300	4	27.710	0	2513.750	0	76.2	4	22.8	4	-1E+10	1	-1E+10	1	-1E+10	1	-1E+10	1	-1E+10	1	-1E+10	1
4902643	14	C	11/08/2024	10:07	-134.340	43.700	0	2569.70	0	1.7220	0	34.6310	4	27.711	0	2533.647	0	77.2	4	23.1	4	-1E+10	1	-1E+10	1	-1E+10	1	-1E+10	1	-1E+10	1	-1E+10	1
4902643	14	C	11/08/2024	10:07	-134.340	43.700	0	2589.90	0	1.7140	0	34.6320	4	27.713	0	2553.444	0	78.1	4	23.4	4	-1E+10	1	-1E+10	1	-1E+10	1	-1E+10	1	-1E+10	1	-1E+10	1
4902643	14	C	11/08/2024	10:07	-134.340	43.700	0	2609.60	0	1.7080	0	34.6330	4	27.714	0	2572.749	0	78.9	4	23.6	4	-1E+10	1	-1E+10	1	-1E+10	1	-1E+10	1	-1E+10	1	-1E+10	1
4902643	14	C	11/08/2024	10:07	-134.340	43.700	0	2628.80	0	1.7030	0	34.6340	4	27.715	0	2591.562	0	79.4	4	23.8	4	-1E+10	1	-1E+10	1	-1E+10	1	-1E+10	1	-1E+10	1	-1E+10	1
4902643	14	C	11/08/2024	10:07	-134.340	43.700	0	2649.60	0	1.6980	0	34.6350	4	27.717	0	2611.942	0	80.1	4	24.0	4	-1E+10	1	-1E+10	1	-1E+10	1	-1E+10	1	-1E+10	1	-1E+10	1
4902643	14	C	11/08/2024	10:07	-134.340	43.700	0	2669.40	0	1.6910	0	34.6360	4	27.718	0	2631.339	0	80.9	4	24.2	4	-1E+10	1	-1E+10	1	-1E+10	1	-1E+10	1	-1E+10	1	-1E+10	1
4902643	14	C	11/08/2024	10:07	-134.340	43.700	0	2689.50	0	1.6860	0	34.6370	4	27.719	0	2651.029	0	81.7	4	24.4	4	-1E+10	1	-1E+10	1	-1E+10	1	-1E+10	1	-1E+10	1	-1E+10	1
4902643	14	C	11/08/2024	10:07	-134.340	43.700	0	2709.70	0	1.6810	0	34.6380	4	27.721	0	2670.815	0	82.5	4	24.7	4	-1E+10	1	-1E+10	1	-1E+10	1	-1E+10	1	-1E+10	1	-1E+10	1
4902643	14	C	11/08/2024	10:07	-134.340	43.700	0	2730.60	0	1.6740	0	34.6390	4	27.722	0	2691.285	0	83.4	4	24.9	4	-1E+10	1	-1E+10	1	-1E+10	1	-1E+10	1	-1E+10	1	-1E+10	1
4902643	14	C	11/08/2024	10:07	-134.340	43.700	0	2749.70	0	1.6710	0	34.6400	4	27.723	0	2709.990	0	84.2	4	25.2	4	-1E+10	1	-1E+10	1	-1E+10	1	-1E+10	1	-1E+10	1	-1E+10	1
4902643	14	C	11/08/2024	10:07	-134.340	43.700	0	2769.70	0	1.6660	0	34.6410	4	27.724	0	2729.575	0	85.0	4	25.4	4	-1E+10	1	-1E+10	1	-1E+10	1	-1E+10	1	-1E+10	1	-1E+10	1
4902643	14	C	11/08/2024	10:07	-134.340	43.700	0	2789.90	0	1.6610	0	34.6420	4	27.726	0	2749.354	0	85.7	4	25.6	4	-1E+10	1	-1E+10	1	-1E+10	1	-1E+10	1	-1E+10	1	-1E+10	1
4902643	14	C	11/08/2024	10:07	-134.340	43.700	0	2809.90	0	1.6570	0	34.6420	4	27.726	0	2768.935	0	86.2	4	25.8	4	-1E+10	1	-1E+10	1	-1E+10	1	-1E+10	1	-1E+10	1	-1E+10	1
4902643	14	C	11/08/2024	10:07	-134.340	43.700	0	2829.60	0	1.6500	0	34.6430	4	27.728	0	2788.221	0	87.1	4	26.1	4	-1E+10	1	-1E+10	1	-1E+10	1	-1E+10	1	-1E+10	1	-1E+10	1
4902643	14	C	11/08/2024	10:07	-134.340	43.700	0	2849.70	0	1.6430	0	34.6440	4	27.729	0	2807.897	0	87.8	4	26.2	4	-1E+10	1	-1E+10	1	-1E+10	1	-1E+10	1	-1E+10	1	-1E+10	1
4902643	14	C	11/08/2024	10:07	-134.340	43.700	0	2870.40	0	1.6370	0	34.6440	4	27.730	0	2828.158	0	88.6	4	26.5	4	-1E+10	1	-1E+10	1	-1E+10	1	-1E+10	1	-1E+10	1	-1E+10	1
4902643	14	C	11/08/2024	10:07	-134.340	43.700	0	2889.50	0	1.6320	0	34.6450	4	27.731	0	2846.851	0	89.5	4	26.8	4	-1E+10	1	-1E+10	1	-1E+10	1	-1E+10	1	-1E+10	1	-1E+10	1
4902643	14	C	11/08/2024	10:07	-134.340	43.700	0	2909.30	0	1.6270	0	34.6460	4	27.732	0	2866.228	0	90.3	4	27.0	4	-1E+10	1	-1E+10	1	-1E+10	1	-1E+10	1	-1E+10	1	-1E+10	1
4902643	14	C	11/08/2024	10:07	-134.340	43.700	0	2929.50	0	1.6220	0	34.6470	4	27.733	0	2885.994	0	91.0	4	27.2	4	-1E+10	1	-1E+10	1	-1E+10	1	-1E+10	1	-1E+10	1	-1E+10	1
4902643	14	C	11/08/2024	10:07	-134.340	43.700	0	2949.90	0	1.6160	0	34.6480	4	27.735	0	2905.954	0	91.6	4	27.4	4	-1E+10	1	-1E+10	1	-1E+10	1	-1E+10	1	-1E+10	1	-1E+10	1
4902643	14	C	11/08/2024	10:07	-134.340	43.700	0	2969.80	0	1.6120	0	34.6480	4	27.735	0	2925.424	0	92.2	4	27.5	4	-1E+10	1	-1E+10	1	-1E+10	1	-1E+10	1	-1E+10	1	-1E+10	1
4902643	14	C	11/08/2024	10:07	-134.340	43.700	0	2989.90	0	1.6080	0	34.6490	4	27.736	0	2945.087	0	92.8	4	27.7	4	-1E+10	1	-1E+10	1	-1E+10	1	-1E+10	1	-1E+10	1	-1E+10	1
4902643	14	C	11/08/2024	10:07	-134.340	43.700	0	3009.80	0	1.6030	0	34.6500	4	27.738	0	2964.553	0	93.4	4	27.9	4	-1E+10	1	-1E+10	1	-1E+10	1	-1E+10	1	-1E+10	1	-1E+10	1
4902643	14	C	11/08/2024	10:07	-134.340	43.700	0	3030.00	0	1.6000	0	34.6500	4	27.738	0	2984.310	0	94.1	4	28.1	4	-1E+10	1	-1E+10	1	-1E+10	1	-1E+10	1	-1E+10	1	-1E+10	1
4902643	14	C	11/08/2024	10:07	-134.340	43.700	0	3050.00	0	1.5950	0	34.6510	4	27.739	0	3003.870	0	94.9	4	28.3	4	-1E+10	1	-1E+10	1	-1E+10	1	-1E+10	1	-1E+10	1	-1E+10	1
4902643	14	C	11/08/2024	10:07	-134.340	43.700	0	3070.50	0	1.5900	0	34.6520	4	27.741	0	3023.917	0	95.6	4	28.6	4	-1E+10	1	-1E+10	1	-1E+10	1	-1E+10	1	-1E+10	1	-1E+10	1
4902643	14	C	11/08/2024	10:07	-134.340	43.700	0	3089.80	0	1.5860	0	34.6520	4	27.741	0	3042.789	0	96.2	4	28.7	4	-1E+10	1	-1E+10	1	-1E+10	1	-1E+10	1	-1E+10	1	-1E+10	1
4902643	14	C	11/08/2024	10:07	-134.340	43.700	0	3110.00	0	1.5830	0	34.6530	4	27.742	0	3062.540	0	96.8	4	28.9	4	-1E+10	1	-1E+10	1	-1E+10	1	-1E+10	1	-1E+10	1	-1E+10	1
4902643	14	C	11/08/2024	10:07	-134.340	43.700	0	3130.00	0	1.5800	0	34.6540	4	27.743	0	3082.092	0	97.4	4	29.1	4	-1E+10	1	-1E+10	1	-1E+10	1	-1E+10	1	-1E+10	1	-1E+10	1
4902643	14	C	11/08/2024	10:07	-134.340	43.700	0	3149.70	0	1.5790	0	34.6540	4	27.744	0	3101.350	0	97.8	4	29.2	4	-1E+10	1	-1E+10	1	-1E+10	1	-1E+10	1	-1E+10	1	-1E+10	1
4902643	14	C	11/08/2024	10:07	-134.340	43.700	0	3169.80	0	1.5760	0	34.6550	4	27.745	0	3120.998	0	98.3	4	29.4	4	-1E+10	1	-1E+10	1	-1E+10	1	-1E+10	1	-1E+10	1	-1E+10	1
4902643	14	C	11/08/2024	10:07	-134.340	43.700	0	3190.00	0	1.5740	0	34.6550	4	27.745	0	3140.741	0	98.9	4	29.5	4	-1E+10	1	-1E+10	1	-1E+10	1	-1E+10	1	-1E+10	1	-1E+10	1
4902643	14	C	11/08/2024	10:07	-134.340	43.700	0	3209.80	0	1.5710	0	34.6560	4	27.746	0	3160.091	0	99.4	4	29.7	4	-1E+10	1	-1E+10	1	-1E+10	1	-1E+10	1	-1E+10	1	-1E+10	1
4902643	14	C	11/08/2024	10:07	-134.340	43.700	0	3229.60	0	1.5700	0	34.6560	4	27.746	0	3179.440	0	99.8	4	29.8	4	-1E+10	1	-1E+10	1	-1E+10	1	-1E+10	1	-1E+10	1	-1E+10	1
4902643	14	C	11/08/2024	10:07	-134.340	43.700	0	3249.70	0	1.5670	0	34.6570	4	27.748	0	3199.080	0	100.4	4	30.0	4	-1E+10	1	-1E+10	1	-1E+10	1	-1E+10	1	-1E+10	1	-1E+10	1
4902643	14	C	11/08/2024	10:07	-134.340	43.700	0	3269.80	0	1.5660	0	34.6570	4	27.748	0	3218.719	0	100.8	4	30.1	4	-1E+10	1	-1E+10	1	-1E+10	1	-1E+10	1	-1E+10	1	-1E+10	1
4902643	14	C	11/08/2024	10:07	-134.340	43.700	0	3289.70	0	1.5640	0	34.6580	4	27.749	0	3238.160	0	101.4	4	30.2	4	-1E+10	1	-1E+10	1	-1E+10	1	-1E+10	1	-1E+10	1	-1E+10	1
4902643	14	C	11/08/2024	10:07	-134.340	43.700	0	3310.20	0	1.5620	0	34.6580	4	27.749	0	3258.186	0	101.8	4	30.4	4	-1E+10	1	-1E+10	1	-1E+10	1	-1E+10	1	-1E+10	1	-1E+10	1
4902643	14	C	11/08/2024	10:07	-134.340	43.700	0	3330.40	0	1.5600	0	34.6590	4	27.750	0	3277.916	0	102.3	4	30.5	4	-1E+10	1	-1E+10	1	-1E+10	1	-1E+10	1	-1E+10	1	-1E+10	1
4902643	14	C	11/08/2024	10:07	-134.340	43.700	0	3350.30	0	1.5570	0	34.6600	4	27.751	0	3297.353	0	102.8	4	30.7	4	-1E+10	1	-1E+10	1	-1E+10	1	-1E+10	1	-1E+10	1	-1E+10	1
4902643	14	C	11/08/2024	10:07	-134.340	43.700	0	3370.00	0	1.5560	0	34.6600	4	27.752	0	3316.592	0	103.2	4	30.8	4	-1E+10	1	-1E+10	1	-1E+10	1	-1E+10	1	-1E+10	1	-1E+10	1
4902643	14	C	11/08/2024	10:07	-134.340	43.700	0	3389.60	0	1.5550	0	34.6600	4	27.752	0	3335.731	0	103.6	4	30.9	4	-1E+10	1	-1E+10	1	-1E+10	1	-1E+10	1	-1E+10	1	-1E+10	1
4902643	14	C	11/08/2024	10:07	-134.340	43.700	0	3409.60	0	1.5540	0	34.6610	4	27.753	0	3355.260	0	104.0	4	31.0	4	-1E+10	1	-1E+10	1	-1E+10	1	-1E+10	1	-1E+10	1	-1E+10	1
4902643	14	C	11/08/2024	10:07	-134.340	43.700	0	3429.60	0	1.5540	0	34.6620	4	27.754	0	3374.787	0	104.3	4	31.1	4	-1E+10	1	-1E+10	1	-1E+10	1	-1E+10	1	-1E+10	1	-1E+10	1
4902643	14	C	11/08/2024	10:07	-134.340	43.700	0	3449.90	0	1.5530	0	34.6620	4	27.754	0	3394.604	0	104.6	4	31.2	4	-1E+10	1	-1E+10	1	-1E+10	1	-1E+10	1	-1E+10	1	-1E+10	1
4902643	14	C	11/08/2024	10:07	-134.340	43.700	0	3469.90	0	1.5530	0	34.6630	4	27.755	0	3414.127	0	104.9	4	31.3	4	-1E+10	1	-1E+10	1	-1E+10	1	-1E+10	1	-1E+10	1	-1E+10	1
4902643	14	C	11/08/2024	10:07	-134.340	43.700	0	3490.30	0	1.5530	0	34.6630	4	27.755	0	3434.040	0	105.3	4	31.4	4	-1E+10	1	-1E+10	1	-1E+10	1	-1E+10	1	-1E+10	1	-1E+10	1
4902643	14	C	11/08/2024	10:07	-134.340	43.700	0	3510.40	0	1.5530	0	34.6630	4	27.755	0	3453.657	0	105.6	4	31.5	4	-1E+10	1	-1E+10	1	-1E+10	1	-1E+10	1	-1E+10	1	-1E+10	1
4902643	14	C	11/08/2024	10:07	-134.340	43.700	0	3530.20	0	1.5520	0	34.6640	4	27.756	0	3472.980	0	105.9	4	31.6	4	-1E+10	1	-1E+10	1	-1E+10	1	-1E+10	1	-1E+10	1	-1E+10	1
4902643	14	C	11/08/2024	10:07	-134.340	43.700	0	3550.30	0	1.5520	0	34.6640	4	27.756	0	3492.594	0	106.2	4	31.7	4	-1E+10	1	-1E+10	1	-1E+10	1	-1E+10	1	-1E+10	1	-1E+10	1
4902643	14	C	11/08/2024	10:07	-134.340	43.700	0	3569.90	0	1.5510	0	34.6650	4	27.757	0	3511.718	0	106.6	4	31.8	4	-1E+10	1	-1E+10	1	-1E+10	1	-1E+10	1	-1E+10	1	-1E+10	1
4902643	14	C	11/08/2024	10:07	-134.340	43.700	0	3590.10	0	1.5510	0	34.6650	4	27.757	0	3531.426	0	106.9	4	31.9	4	-1E+10	1	-1E+10	1	-1E+10	1	-1E+10	1	-1E+10	1	-1E+10	1
4902643	14	C	11/08/2024	10:07	-134.340	43.700	0	3610.10	0	1.5520	0	34.6660	4	27.758	0	3550.937	0	107.0	4	31.9	4	-1E+10	1	-1E+10	1	-1E+10	1	-1E+10	1	-1E+10	1	-1E+10	1
4902643	14	C	11/08/2024	10:07	-134.340	43.700	0	3630.20	0	1.5520	0	34.6660	4	27.758	0	3570.544	0	107.3	4	32.0	4	-1E+10	1	-1E+10	1	-1E+10	1	-1E+10	1	-1E+10	1	-1E+10	1
4902643	14	C	11/08/2024	10:07	-134.340	43.700	0	3650.30	0	1.5520	0	34.6660	4	27.759	0	3590.149	0	107.5	4	32.1	4	-1E+10	1	-1E+10	1	-1E+10	1	-1E+10	1	-1E+10	1	-1E+10	1
4902643	14	C	11/08/2024	10:07	-134.340	43.700	0	3669.80	0	1.5520	0	34.6660	4	27.759	0	3609.167	0	107.6	4	32.1	4	-1E+10	1	-1E+10	1	-1E+10	1	-1E+10	1	-1E+10	1	-1E+10	1
4902643	14	C	11/08/2024	10:07	-134.340	43.700	0	3690.00	0	1.5530	0	34.6670	4	27.760	0	3628.866	0	107.8	4	32.2	4	-1E+10	1	-1E+10	1	-1E+10	1	-1E+10	1	-1E+10	1	-1E+10	1
4902643	14	C	11/08/2024	10:07	-134.340	43.700	0	3709.80	0	1.5530	0	34.6670	4	27.760	0	3648.174	0	108.0	4	32.2	4	-1E+10	1	-1E+10	1	-1E+10	1	-1E+10	1	-1E+10	1	-1E+10	1
4902643	14	C	11/08/2024	10:07	-134.340	43.700	0	3729.80	0	1.5540	0	34.6670	4	27.760	0	3667.674	0	108.1	4	32.3	4	-1E+10	1	-1E+10	1	-1E+10	1	-1E+10	1	-1E+10	1	-1E+10	1
4902643	14	C	11/08/2024	10:07	-134.340	43.700	0	3750.10	0	1.5540	0	34.6680	4	27.761	0	3687.466	0	108.1	4	32.3	4	-1E+10	1	-1E+10	1	-1E+10	1	-1E+10	1	-1E+10	1	-1E+10	1
4902643	14	C	11/08/2024	10:07	-134.340	43.700	0	3770.30	0	1.5560	0	34.6680	4	27.761	0	3707.158	0	108.1	4	32.2	4	-1E+10	1	-1E+10	1	-1E+10	1	-1E+10	1	-1E+10	1	-1E+10	1
4902643	14	C	11/08/2024	10:07	-134.340	43.700	0	3782.70	0	1.5560	0	34.6680	4	27.761	0	3719.245	0	107.5	4	32.1	4	-1E+10	1	-1E+10	1	-1E+10	1	-1E+10	1	-1E+10	1	-1E+10	1
4902643	14	C	11/08/2024	10:07	-134.340	43.700	0																										
4902643	15	C	11/18/2024	12:32	-134.345	43.641	0	0.90	0	14.0770	0	32.7500	0	24.434	0	0.893	0	238.0	4	92.9	4	-1E+10	1	-1E+10	1	-1E+10	1	-1E+10	1	-1E+10	1	-1E+10	1
4902643	15	C	11/18/2024	12:32	-134.345	43.641	0	1.10	0	14.0820	0	32.7460	0	24.430	0	1.091	0	239.3	4	93.4	4	-1E+10	1	-1E+10	1	-1E+10	1	-1E+10	1	-1E+10	1	-1E+10	1
4902643	15	C	11/18/2024	12:32	-134.345	43.641	0	1.20	0	14.0855	0	32.7438	0	24.427	0	1.190	0	238.0	4	92.9	4	-1E+10	1	-1E+10	1	-1E+10	1	-1E+10	1	-1E+10	1	-1E+10	1
4902643	15	C	11/18/2024	12:32	-134.345	43.641	0	1.30	0	14.0840	0	32.7450	0	24.428	0	1.290	0	238.0	4	92.8	4	-1E+10	1	-1E+10	1	-1E+10	1	-1E+10	1	-1E+10	1	-1E+10	1
4902643	15	C	11/18/2024	12:32	-134.345	43.641	0	1.40	0	14.0810	0	32.7480	0	24.431	0	1.389	0	238.0	4	92.8	4	-1E+10	1	-1E+10	1	-1E+10	1	-1E+10	1	-1E+10	1	-1E+10	1
4902643	15	C	11/18/2024	12:32	-134.345	43.641	0	1.50	0	14.0790	0	32.7500	0	24.433	0	1.488	0	-1e10	1	-1e10	1	-1E+10	1	-1E+10	1	-1E+10	1	-1E+10	1	-1E+10	1	-1E+10	1
4902643	15	C	11/18/2024	12:32	-134.345	43.641	0	1.70	0	14.0930	0	32.7550	0	24.434	0	1.686	0	241.5	4	94.2	4	-1E+10	1	-1E+10	1	-1E+10	1	-1E+10	1	-1E+10	1	-1E+10	1
4902643	15	C	11/18/2024	12:32	-134.345	43.641	0	2.50	0	14.1080	0	32.7440	0	24.423	0	2.480	0	237.6	4	92.7	4	-1E+10	1	-1E+10	1	-1E+10	1	-1E+10	1	-1E+10	1	-1E+10	1
4902643	15	C	11/18/2024	12:32	-134.345	43.641	0	3.70	0	14.1080	0	32.7440	0	24.423	0	3.670	0	237.5	4	92.7	4	-1E+10	1	-1E+10	1	-1E+10	1	-1E+10	1	-1E+10	1	-1E+10	1
4902643	15	C	11/18/2024	12:32	-134.345	43.641	0	4.70	0	14.1150	0	32.7440	0	24.421	0	4.662	0	237.5	4	92.7	4	-1E+10	1	-1E+10	1	-1E+10	1	-1E+10	1	-1E+10	1	-1E+10	1
4902643	15	C	11/18/2024	12:32	-134.345	43.641	0	5.70	0	14.1150	0	32.7440	0	24.421	0	5.654	0	237.5	4	92.7	4	-1E+10	1	-1E+10	1	-1E+10	1	-1E+10	1	-1E+10	1	-1E+10	1
4902643	15	C	11/18/2024	12:32	-134.345	43.641	0	6.40	0	14.1150	0	32.7440	0	24.421	0	6.349	0	237.5	4	92.7	4	-1E+10	1	-1E+10	1	-1E+10	1	-1E+10	1	-1E+10	1	-1E+10	1
4902643	15	C	11/18/2024	12:32	-134.345	43.641	0	7.40	0	14.1160	0	32.7440	0	24.421	0	7.341	0	237.5	4	92.7	4	-1E+10	1	-1E+10	1	-1E+10	1	-1E+10	1	-1E+10	1	-1E+10	1
4902643	15	C	11/18/2024	12:32	-134.345	43.641	0	8.50	0	14.1160	0	32.7440	0	24.421	0	8.432	0	237.4	4	92.7	4	-1E+10	1	-1E+10	1	-1E+10	1	-1E+10	1	-1E+10	1	-1E+10	1
4902643	15	C	11/18/2024	12:32	-134.345	43.641	0	10.00	0	14.1160	0	32.7440	0	24.421	0	9.920	0	237.4	4	92.7	4	-1E+10	1	-1E+10	1	-1E+10	1	-1E+10	1	-1E+10	1	-1E+10	1
4902643	15	C	11/18/2024	12:32	-134.345	43.641	0	15.10	0	14.1130	0	32.7430	0	24.421	0	14.979	0	237.3	4	92.6	4	-1E+10	1	-1E+10	1	-1E+10	1	-1E+10	1	-1E+10	1	-1E+10	1
4902643	15	C	11/18/2024	12:32	-134.345	43.641	0	24.90	0	14.1180	0	32.7430	0	24.420	0	24.699	0	237.1	4	92.6	4	-1E+10	1	-1E+10	1	-1E+10	1	-1E+10	1	-1E+10	1	-1E+10	1
4902643	15	C	11/18/2024	12:32	-134.345	43.641	0	34.40	0	14.1190	0	32.7430	0	24.421	0	34.122	0	237.0	4	92.5	4	-1E+10	1	-1E+10	1	-1E+10	1	-1E+10	1	-1E+10	1	-1E+10	1
4902643	15	C	11/18/2024	12:32	-134.345	43.641	0	44.90	0	14.1230	0	32.7430	0	24.420	0	44.536	0	236.7	4	92.4	4	-1E+10	1	-1E+10	1	-1E+10	1	-1E+10	1	-1E+10	1	-1E+10	1
4902643	15	C	11/18/2024	12:32	-134.345	43.641	0	55.00	0	14.1250	0	32.7430	0	24.420	0	54.553	0	236.4	4	92.3	4	-1E+10	1	-1E+10	1	-1E+10	1	-1E+10	1	-1E+10	1	-1E+10	1
4902643	15	C	11/18/2024	12:32	-134.345	43.641	0	64.30	0	14.1260	0	32.7380	0	24.416	0	63.776	0	235.9	4	92.1	4	-1E+10	1	-1E+10	1	-1E+10	1	-1E+10	1	-1E+10	1	-1E+10	1
4902643	15	C	11/18/2024	12:32	-134.345	43.641	0	74.80	0	12.2020	0	32.7170	0	24.781	0	74.189	0	239.4	4	89.9	4	-1E+10	1	-1E+10	1	-1E+10	1	-1E+10	1	-1E+10	1	-1E+10	1
4902643	15	C	11/18/2024	12:32	-134.345	43.641	0	85.00	0	10.4470	0	32.7300	0	25.107	0	84.303	0	242.0	4	87.5	4	-1E+10	1	-1E+10	1	-1E+10	1	-1E+10	1	-1E+10	1	-1E+10	1
4902643	15	C	11/18/2024	12:32	-134.345	43.641	0	94.50	0	10.2750	0	32.7640	0	25.162	0	93.723	0	241.2	4	86.9	4	-1E+10	1	-1E+10	1	-1E+10	1	-1E+10	1	-1E+10	1	-1E+10	1
4902643	15	C	11/18/2024	12:32	-134.345	43.641	0	104.90	0	10.1100	0	32.8030	0	25.221	0	104.035	0	240.2	4	86.3	4	-1E+10	1	-1E+10	1	-1E+10	1	-1E+10	1	-1E+10	1	-1E+10	1
4902643	15	C	11/18/2024	12:32	-134.345	43.641	0	114.70	0	9.8440	0	32.8420	0	25.296	0	113.752	0	238.2	4	85.1	4	-1E+10	1	-1E+10	1	-1E+10	1	-1E+10	1	-1E+10	1	-1E+10	1
4902643	15	C	11/18/2024	12:32	-134.345	43.641	0	124.40	0	9.5600	0	32.8560	0	25.353	0	123.368	0	233.1	4	82.8	4	-1E+10	1	-1E+10	1	-1E+10	1	-1E+10	1	-1E+10	1	-1E+10	1
4902643	15	C	11/18/2024	12:32	-134.345	43.641	0	134.80	0	9.3880	0	32.9410	0	25.447	0	133.679	0	220.3	4	78.0	4	-1E+10	1	-1E+10	1	-1E+10	1	-1E+10	1	-1E+10	1	-1E+10	1
4902643	15	C	11/18/2024	12:32	-134.345	43.641	0	144.60	0	9.2060	0	33.1320	0	25.626	0	143.394	0	208.4	4	73.6	4	-1E+10	1	-1E+10	1	-1E+10	1	-1E+10	1	-1E+10	1	-1E+10	1
4902643	15	C	11/18/2024	12:32	-134.345	43.641	0	154.10	0	8.9510	0	33.2740	0	25.777	0	152.811	0	204.1	4	71.7	4	-1E+10	1	-1E+10	1	-1E+10	1	-1E+10	1	-1E+10	1	-1E+10	1
4902643	15	C	11/18/2024	12:32	-134.345	43.641	0	164.80	0	8.7310	0	33.4130	0	25.920	0	163.418	0	204.3	4	71.6	4	-1E+10	1	-1E+10	1	-1E+10	1	-1E+10	1	-1E+10	1	-1E+10	1
4902643	15	C	11/18/2024	12:32	-134.345	43.641	0	175.00	0	8.4340	0	33.5330	0	26.060	0	173.528	0	203.0	4	70.7	4	-1E+10	1	-1E+10	1	-1E+10	1	-1E+10	1	-1E+10	1	-1E+10	1
4902643	15	C	11/18/2024	12:32	-134.345	43.641	0	184.80	0	8.1610	0	33.6350	0	26.181	0	183.241	0	199.7	4	69.2	4	-1E+10	1	-1E+10	1	-1E+10	1	-1E+10	1	-1E+10	1	-1E+10	1
4902643	15	C	11/18/2024	12:32	-134.345	43.641	0	194.70	0	7.8940	0	33.7140	0	26.283	0	193.053	0	193.4	4	66.6	4	-1E+10	1	-1E+10	1	-1E+10	1	-1E+10	1	-1E+10	1	-1E+10	1
4902643	15	C	11/18/2024	12:32	-134.345	43.641	0	209.60	0	7.7060	0	33.7920	0	26.371	0	207.819	0	183.5	4	63.0	4	-1E+10	1	-1E+10	1	-1E+10	1	-1E+10	1	-1E+10	1	-1E+10	1
4902643	15	C	11/18/2024	12:32	-134.345	43.641	0	229.80	0	7.4670	0	33.8200	0	26.428	0	227.836	0	177.6	4	60.7	4	-1E+10	1	-1E+10	1	-1E+10	1	-1E+10	1	-1E+10	1	-1E+10	1
4902643	15	C	11/18/2024	12:32	-134.345	43.641	0	249.80	0	7.2390	0	33.8320	0	26.469	0	247.654	0	168.7	4	57.3	4	-1E+10	1	-1E+10	1	-1E+10	1	-1E+10	1	-1E+10	1	-1E+10	1
4902643	15	C	11/18/2024	12:32	-134.345	43.641	0	269.80	0	6.9430	0	33.8350	0	26.512	0	267.469	0	159.5	4	53.8	4	-1E+10	1	-1E+10	1	-1E+10	1	-1E+10	1	-1E+10	1	-1E+10	1
4902643	15	C	11/18/2024	12:32	-134.345	43.641	0	289.70	0	6.6090	0	33.8330	0	26.556	0	287.183	0	149.6	4	50.1	4	-1E+10	1	-1E+10	1	-1E+10	1	-1E+10	1	-1E+10	1	-1E+10	1
4902643	15	C	11/18/2024	12:32	-134.345	43.641	0	309.50	0	6.2780	0	33.8340	0	26.600	0	306.796	0	136.8	4	45.5	4	-1E+10	1	-1E+10	1	-1E+10	1	-1E+10	1	-1E+10	1	-1E+10	1
4902643	15	C	11/18/2024	12:32	-134.345	43.641	0	329.40	0	5.9550	0	33.8360	0	26.642	0	326.507	0	123.1	4	40.6	4	-1E+10	1	-1E+10	1	-1E+10	1	-1E+10	1	-1E+10	1	-1E+10	1
4902643	15	C	11/18/2024	12:32	-134.345	43.641	0	350.30	0	5.7110	0	33.8430	0	26.678	0	347.206	0	109.9	4	36.0	4	-1E+10	1	-1E+10	1	-1E+10	1	-1E+10	1	-1E+10	1	-1E+10	1
4902643	15	C	11/18/2024	12:32	-134.345	43.641	0	370.40	0	5.3560	0	33.8440	0	26.721	0	367.110	0	96.3	4	31.3	4	-1E+10	1	-1E+10	1	-1E+10	1	-1E+10	1	-1E+10	1	-1E+10	1
4902643	15	C	11/18/2024	12:32	-134.345	43.641	0	389.80	0	5.0590	0	33.8530	0	26.763	0	386.320	0	86.4	4	27.9	4	-1E+10	1	-1E+10	1	-1E+10	1	-1E+10	1	-1E+10	1	-1E+10	1
4902643	15	C	11/18/2024	12:32	-134.345	43.641	0	409.70	0	4.9740	0	33.8730	0	26.788	0	406.023	0	80.0	4	25.8	4	-1E+10	1	-1E+10	1	-1E+10	1	-1E+10	1	-1E+10	1	-1E+10	1
4902643	15	C	11/18/2024	12:32	-134.345	43.641	0	429.70	0	4.8610	0	33.8980	0	26.821	0	425.823	0	73.4	4	23.6	4	-1E+10	1	-1E+10	1	-1E+10	1	-1E+10	1	-1E+10	1	-1E+10	1
4902643	15	C	11/18/2024	12:32	-134.345	43.641	0	449.70	0	4.7540	0	33.9210	0	26.851	0	445.621	0	67.2	4	21.6	4	-1E+10	1	-1E+10	1	-1E+10	1	-1E+10	1	-1E+10	1	-1E+10	1
4902643	15	C	11/18/2024	12:32	-134.345	43.641	0	469.40	0	4.6610	0	33.9380	0	26.875	0	465.120	0	60.7	4	19.4	4	-1E+10	1	-1E+10	1	-1E+10	1	-1E+10	1	-1E+10	1	-1E+10	1
4902643	15	C	11/18/2024	12:32	-134.345	43.641	0	489.60	0	4.5550	0	33.9570	0	26.902	0	485.113	0	54.2	4	17.3	4	-1E+10	1	-1E+10	1	-1E+10	1	-1E+10	1	-1E+10	1	-1E+10	1
4902643	15	C	11/18/2024	12:32	-134.345	43.641	0	510.00	0	4.4880	0	33.9830	0	26.930	0	505.301	0	48.7	4	15.5	4	-1E+10	1	-1E+10	1	-1E+10	1	-1E+10	1	-1E+10	1	-1E+10	1
4902643	15	C	11/18/2024	12:32	-134.345	43.641	0	529.20	0	4.4240	0	34.0070	0	26.956	0	524.300	0	44.2	4	14.1	4	-1E+10	1	-1E+10	1	-1E+10	1	-1E+10	1	-1E+10	1	-1E+10	1
4902643	15	C	11/18/2024	12:32	-134.345	43.641	0	550.00	0	4.3720	0	34.0270	0	26.978	0	544.880	0	40.0	4	12.7	4	-1E+10	1	-1E+10	1	-1E+10	1	-1E+10	1	-1E+10	1	-1E+10	1
4902643	15	C	11/18/2024	12:32	-134.345	43.641	0	570.00	0	4.3180	0	34.0460	0	26.999	0	564.667	0	35.7	4	11.4	4	-1E+10	1	-1E+10	1	-1E+10	1	-1E+10	1	-1E+10	1	-1E+10	1
4902643	15	C	11/18/2024	12:32	-134.345	43.641	0	590.00	0	4.2500	0	34.0690	0	27.024	0	584.451	0	31.4	4	10.0	4	-1E+10	1	-1E+10	1	-1E+10	1	-1E+10	1	-1E+10	1	-1E+10	1
4902643	15	C	11/18/2024	12:32	-134.345	43.641	0	610.00	0	4.2050	0	34.0860	0	27.043	0	604.234	0	27.9	4	8.8	4	-1E+10	1	-1E+10	1	-1E+10	1	-1E+10	1	-1E+10	1	-1E+10	1
4902643	15	C	11/18/2024	12:32	-134.345	43.641	0	629.90	0	4.1590	0	34.1030	0	27.061	0	623.916	0	24.7	4	7.8	4	-1E+10	1	-1E+10	1	-1E+10	1	-1E+10	1	-1E+10	1	-1E+10	1
4902643	15	C	11/18/2024	12:32	-134.345	43.641	0	650.50	0	4.0870	0	34.1240	0	27.085	0	644.289	0	21.6	4	6.8	4	-1E+10	1	-1E+10	1	-1E+10	1	-1E+10	1	-1E+10	1	-1E+10	1
4902643	15	C	11/18/2024	12:32	-134.345	43.641	0	669.70	0	4.0380	0	34.1400	0	27.103	0	663.275	0	19.5	4	6.2	4	-1E+10	1	-1E+10	1	-1E+10	1	-1E+10	1	-1E+10	1	-1E+10	1
4902643	15	C	11/18/2024	12:32	-134.345	43.641	0	689.30	0	4.0000	0	34.1520	0	27.117	0	682.655	0	18.1	4	5.7	4	-1E+10	1	-1E+10	1	-1E+10	1	-1E+10	1	-1E+10	1	-1E+10	1
4902643	15	C	11/18/2024	12:32	-134.345	43.641	0	710.00	0	3.9480	0	34.1650	0	27.133	0	703.120	0	16.9	4	5.3	4	-1E+10	1	-1E+10	1	-1E+10	1	-1E+10	1	-1E+10	1	-1E+10	1
4902643	15	C	11/18/2024	12:32	-134.345	43.641	0	729.40	0	3.9060	0	34.1760	0	27.146	0	722.299	0	15.8	4	5.0	4	-1E+10	1	-1E+10	1	-1E+10	1	-1E+10	1	-1E+10	1	-1E+10	1
4902643	15	C	11/18/2024	12:32	-134.345	43.641	0	749.80	0	3.8560	0	34.1890	0	27.161	0	742.464	0	14.7	4	4.6	4	-1E+10	1	-1E+10	1	-1E+10	1	-1E+10	1	-1E+10	1	-1E+10	1
4902643	15	C	11/18/2024	12:32	-134.345	43.641	0	769.90	0	3.8060	0	34.2030	0	27.177	0	762.331	0	13.5	4	4.3	4	-1E+10	1	-1E+10	1	-1E+10	1	-1E+10	1	-1E+10	1	-1E+10	1
4902643	15	C	11/18/2024	12:32	-134.345	43.641	0	789.90	0	3.7570	0	34.2160	0	27.193	0	782.096	0	12.5	4	3.9	4	-1E+10	1	-1E+10	1	-1E+10	1	-1E+10	1	-1E+10	1	-1E+10	1
4902643	15	C	11/18/2024	12:32	-134.345	43.641	0	810.10	0	3.7060	0	34.2300	0	27.209	0	802.058	0	11.3	4	3.5	4	-1E+10	1	-1E+10	1	-1E+10	1	-1E+10	1	-1E+10	1	-1E+10	1
4902643	15	C	11/18/2024	12:32	-134.345	43.641	0	830.00	0	3.6640	0	34.2440	0	27.225	0	821.721	0	10.2	4	3.2	4	-1E+10	1	-1E+10	1	-1E+10	1	-1E+10	1	-1E+10	1	-1E+10	1
4902643	15	C	11/18/2024	12:32	-134.345	43.641	0	849.70	0	3.6340	0	34.2640	0	27.244	0	841.185	0	8.7	4	2.7	4	-1E+10	1	-1E+10	1	-1E+10	1	-1E+10	1	-1E+10	1	-1E+10	1
4902643	15	C	11/18/2024	12:32	-134.345	43.641	0	869.60	0	3.6000	0	34.2770	0	27.257	0	860.845	0	8.2	4	2.6	4	-1E+10	1	-1E+10	1	-1E+10	1	-1E+10	1	-1E+10	1	-1E+10	1
4902643	15	C	11/18/2024	12:32	-134.345	43.641	0	890.40	0	3.5600	0	34.2930	0	27.274	0	881.392	0	7.7	4	2.4	4	-1E+10	1	-1E+10	1	-1E+10	1	-1E+10	1	-1E+10	1	-1E+10	1
4902643	15	C	11/18/2024	12:32	-134.345	43.641	0	910.00	0	3.5460	0	34.3110	0	27.290	0	900.751	0	7.1	4	2.2	4	-1E+10	1	-1E+10	1	-1E+10	1	-1E+10	1	-1E+10	1	-1E+10	1
4902643	15	C	11/18/2024	12:32	-134.345	43.641	0	930.10	0	3.5270	0	34.3250	0	27.303	0	920.603	0	6.9	4	2.2	4	-1E+10	1	-1E+10	1	-1E+10	1	-1E+10	1	-1E+10	1	-1E+10	1
4902643	15	C	11/18/2024	12:32	-134.345	43.641	0	949.70	0	3.4900	0	34.3380	0	27.317	0	939.959	0	6.9	4	2.1	4	-1E+10	1	-1E+10	1	-1E+10	1	-1E+10	1	-1E+10	1	-1E+10	1
4902643	15	C	11/18/2024	12:32	-134.345	43.641	0	969.50	0	3.4700	0	34.3530	0	27.331	0	959.510	0	6.9	4	2.1	4	-1E+10	1	-1E+10	1	-1E+10	1	-1E+10	1	-1E+10	1	-1E+10	1
4902643	15	C	11/18/2024	12:32	-134.345	43.641	0	989.90	0	3.4450	0	34.3610	0	27.340	0	979.652	0	7.0	4	2.2	4	-1E+10	1	-1E+10	1	-1E+10	1	-1E+10	1	-1E+10	1	-1E+10	1
4902643	15	C	11/18/2024	12:32	-134.345	43.641	0	1010.10	0	3.4180	0	34.3710	0	27.351	0	999.595	0	7.1	4	2.2	4	-1E+10	1	-1E+10	1	-1E+10	1	-1E+10	1	-1E+10	1	-1E+10	1
4902643	15	C	11/18/2024	12:32	-134.345	43.641	0	1029.90	0	3.3850	0	34.3790	0	27.360	0	1019.141	0	7.4	4	2.3	4	-1E+10	1	-1E+10	1	-1E+10	1	-1E+10	1	-1E+10	1	-1E+10	1
4902643	15	C	11/18/2024	12:32	-134.345	43.641	0	1050.10	0	3.3460	0	34.3880	0	27.371	0	1039.080	0	7.6	4	2.4	4	-1E+10	1	-1E+10	1	-1E+10	1	-1E+10	1	-1E+10	1	-1E+10	1
4902643	15	C	11/18/2024	12:32	-134.345	43.641	0	1070.00	0	3.3160	0	34.3970	0	27.382	0	1058.721	0	7.9	4	2.5	4	-1E+10	1	-1E+10	1	-1E+10	1	-1E+10	1	-1E+10	1	-1E+10	1
4902643	15	C	11/18/2024	12:32	-134.345	43.641	0	1090.20	0	3.2750	0	34.4050	0	27.392	0	1078.656	0	8.2	4	2.5	4	-1E+10	1	-1E+10	1	-1E+10	1	-1E+10	1	-1E+10	1	-1E+10	1
4902643	15	C	11/18/2024	12:32	-134.345	43.641	0	1110.00	0	3.2440	0	34.4120	0	27.400	0	1098.195	0	8.5	4	2.6	4	-1E+10	1	-1E+10	1	-1E+10	1	-1E+10	1	-1E+10	1	-1E+10	1
4902643	15	C	11/18/2024	12:32	-134.345	43.641	0	1129.90	0	3.2180	0	34.4210	0	27.410	0	1117.830	0	9.1	4	2.8	4	-1E+10	1	-1E+10	1	-1E+10	1	-1E+10	1	-1E+10	1	-1E+10	1
4902643	15	C	11/18/2024	12:32	-134.345	43.641	0	1150.20	0	3.1750	0	34.4310	0	27.422	0	1137.858	0	9.8	4	3.0	4	-1E+10	1	-1E+10	1	-1E+10	1	-1E+10	1	-1E+10	1	-1E+10	1
4902643	15	C	11/18/2024	12:32	-134.345	43.641	0	1169.90	0	3.1260	0	34.4380	0	27.432	0	1157.293	0	10.3	4	3.2	4	-1E+10	1	-1E+10	1	-1E+10	1	-1E+10	1	-1E+10	1	-1E+10	1
4902643	15	C	11/18/2024	12:32	-134.345	43.641	0	1189.60	0	3.0870	0	34.4430	0	27.440	0	1176.725	0	10.7	4	3.3	4	-1E+10	1	-1E+10	1	-1E+10	1	-1E+10	1	-1E+10	1	-1E+10	1
4902643	15	C	11/18/2024	12:32	-134.345	43.641	0	1209.50	0	3.0520	0	34.4470	0	27.447	0	1196.353	0	11.2	4	3.4	4	-1E+10	1	-1E+10	1	-1E+10	1	-1E+10	1	-1E+10	1	-1E+10	1
4902643	15	C	11/18/2024	12:32	-134.345	43.641	0	1229.80	0	3.0080	0	34.4540	0	27.456	0	1216.374	0	11.8	4	3.6	4	-1E+10	1	-1E+10	1	-1E+10	1	-1E+10	1	-1E+10	1	-1E+10	1
4902643	15	C	11/18/2024	12:32	-134.345	43.641	0	1250.00	0	2.9740	0	34.4590	0	27.464	0	1236.294	0	12.5	4	3.9	4	-1E+10	1	-1E+10	1	-1E+10	1	-1E+10	1	-1E+10	1	-1E+10	1
4902643	15	C	11/18/2024	12:32	-134.345	43.641	0	1269.90	0	2.9350	0	34.4650	0	27.472	0	1255.917	0	13.2	4	4.1	4	-1E+10	1	-1E+10	1	-1E+10	1	-1E+10	1	-1E+10	1	-1E+10	1
4902643	15	C	11/18/2024	12:32	-134.345	43.641	0	1289.70	0	2.8920	0	34.4710	0	27.481	0	1275.439	0	14.1	4	4.3	4	-1E+10	1	-1E+10	1	-1E+10	1	-1E+10	1	-1E+10	1	-1E+10	1
4902643	15	C	11/18/2024	12:32	-134.345	43.641	0	1309.50	0	2.8610	0	34.4750	0	27.487	0	1294.959	0	14.9	4	4.6	4	-1E+10	1	-1E+10	1	-1E+10	1	-1E+10	1	-1E+10	1	-1E+10	1
4902643	15	C	11/18/2024	12:32	-134.345	43.641	0	1330.10	0	2.8260	0	34.4810	0	27.495	0	1315.266	0	16.0	4	4.9	4	-1E+10	1	-1E+10	1	-1E+10	1	-1E+10	1	-1E+10	1	-1E+10	1
4902643	15	C	11/18/2024	12:32	-134.345	43.641	0	1349.80	0	2.7920	0	34.4870	0	27.503	0	1334.684	0	17.1	4	5.3	4	-1E+10	1	-1E+10	1	-1E+10	1	-1E+10	1	-1E+10	1	-1E+10	1
4902643	15	C	11/18/2024	12:32	-134.345	43.641	0	1370.10	0	2.7550	0	34.4910	0	27.509	0	1354.691	0	18.0	4	5.5	4	-1E+10	1	-1E+10	1	-1E+10	1	-1E+10	1	-1E+10	1	-1E+10	1
4902643	15	C	11/18/2024	12:32	-134.345	43.641	0	1389.70	0	2.7210	0	34.4950	0	27.515	0	1374.007	0	18.8	4	5.8	4	-1E+10	1	-1E+10	1	-1E+10	1	-1E+10	1	-1E+10	1	-1E+10	1
4902643	15	C	11/18/2024	12:32	-134.345	43.641	0	1410.40	0	2.6770	0	34.5000	0	27.523	0	1394.405	0	20.0	4	6.1	4	-1E+10	1	-1E+10	1	-1E+10	1	-1E+10	1	-1E+10	1	-1E+10	1
4902643	15	C	11/18/2024	12:32	-134.345	43.641	0	1430.30	0	2.6480	0	34.5040	0	27.529	0	1414.013	0	20.8	4	6.4	4	-1E+10	1	-1E+10	1	-1E+10	1	-1E+10	1	-1E+10	1	-1E+10	1
4902643	15	C	11/18/2024	12:32	-134.345	43.641	0	1450.20	0	2.6240	0	34.5070	0	27.534	0	1433.619	0	21.5	4	6.6	4	-1E+10	1	-1E+10	1	-1E+10	1	-1E+10	1	-1E+10	1	-1E+10	1
4902643	15	C	11/18/2024	12:32	-134.345	43.641	0	1470.20	0	2.5870	0	34.5110	0	27.540	0	1453.321	0	22.7	4	6.9	4	-1E+10	1	-1E+10	1	-1E+10	1	-1E+10	1	-1E+10	1	-1E+10	1
4902643	15	C	11/18/2024	12:32	-134.345	43.641	0	1490.20	0	2.5590	0	34.5140	0	27.545	0	1473.022	0	23.5	4	7.2	4	-1E+10	1	-1E+10	1	-1E+10	1	-1E+10	1	-1E+10	1	-1E+10	1
4902643	15	C	11/18/2024	12:32	-134.345	43.641	0	1509.90	0	2.5330	0	34.5180	0	27.550	0	1492.425	0	25.3	4	7.7	4	-1E+10	1	-1E+10	1	-1E+10	1	-1E+10	1	-1E+10	1	-1E+10	1
4902643	15	C	11/18/2024	12:32	-134.345	43.641	0	1530.00	0	2.5050	0	34.5240	0	27.558	0	1512.221	0	26.8	4	8.2	4	-1E+10	1	-1E+10	1	-1E+10	1	-1E+10	1	-1E+10	1	-1E+10	1
4902643	15	C	11/18/2024	12:32	-134.345	43.641	0	1549.90	0	2.4620	0	34.5270	0	27.564	0	1531.817	0	27.5	4	8.4	4	-1E+10	1	-1E+10	1	-1E+10	1	-1E+10	1	-1E+10	1	-1E+10	1
4902643	15	C	11/18/2024	12:32	-134.345	43.641	0	1569.70	0	2.4270	0	34.5310	0	27.570	0	1551.314	0	28.4	4	8.7	4	-1E+10	1	-1E+10	1	-1E+10	1	-1E+10	1	-1E+10	1	-1E+10	1
4902643	15	C	11/18/2024	12:32	-134.345	43.641	0	1590.00	0	2.3960	0	34.5340	0	27.575	0	1571.301	0	29.7	4	9.0	4	-1E+10	1	-1E+10	1	-1E+10	1	-1E+10	1	-1E+10	1	-1E+10	1
4902643	15	C	11/18/2024	12:32	-134.345	43.641	0	1610.00	0	2.3580	0	34.5380	0	27.582	0	1590.990	0	31.0	4	9.4	4	-1E+10	1	-1E+10	1	-1E+10	1	-1E+10	1	-1E+10	1	-1E+10	1
4902643	15	C	11/18/2024	12:32	-134.345	43.641	0	1630.30	0	2.3250	0	34.5430	0	27.588	0	1610.974	0	32.4	4	9.9	4	-1E+10	1	-1E+10	1	-1E+10	1	-1E+10	1	-1E+10	1	-1E+10	1
4902643	15	C	11/18/2024	12:32	-134.345	43.641	0	1650.00	0	2.2880	0	34.5470	0	27.595	0	1630.364	0	34.2	4	10.4	4	-1E+10	1	-1E+10	1	-1E+10	1	-1E+10	1	-1E+10	1	-1E+10	1
4902643	15	C	11/18/2024	12:32	-134.345	43.641	0	1670.10	0	2.2610	0	34.5510	0	27.600	0	1650.147	0	35.9	4	10.9	4	-1E+10	1	-1E+10	1	-1E+10	1	-1E+10	1	-1E+10	1	-1E+10	1
4902643	15	C	11/18/2024	12:32	-134.345	43.641	0	1690.00	0	2.2240	0	34.5550	0	27.606	0	1669.731	0	37.1	4	11.3	4	-1E+10	1	-1E+10	1	-1E+10	1	-1E+10	1	-1E+10	1	-1E+10	1
4902643	15	C	11/18/2024	12:32	-134.345	43.641	0	1709.90	0	2.1920	0	34.5590	0	27.612	0	1689.313	0	38.5	4	11.7	4	-1E+10	1	-1E+10	1	-1E+10	1	-1E+10	1	-1E+10	1	-1E+10	1
4902643	15	C	11/18/2024	12:32	-134.345	43.641	0	1730.00	0	2.1660	0	34.5620	0	27.617	0	1709.090	0	39.9	4	12.1	4	-1E+10	1	-1E+10	1	-1E+10	1	-1E+10	1	-1E+10	1	-1E+10	1
4902643	15	C	11/18/2024	12:32	-134.345	43.641	0	1750.10	0	2.1460	0	34.5660	0	27.622	0	1728.865	0	41.1	4	12.4	4	-1E+10	1	-1E+10	1	-1E+10	1	-1E+10	1	-1E+10	1	-1E+10	1
4902643	15	C	11/18/2024	12:32	-134.345	43.641	0	1770.10	0	2.1270	0	34.5680	0	27.625	0	1748.540	0	42.2	4	12.8	4	-1E+10	1	-1E+10	1	-1E+10	1	-1E+10	1	-1E+10	1	-1E+10	1
4902643	15	C	11/18/2024	12:32	-134.345	43.641	0	1790.20	0	2.1120	0	34.5700	0	27.628	0	1768.312	0	43.4	4	13.1	4	-1E+10	1	-1E+10	1	-1E+10	1	-1E+10	1	-1E+10	1	-1E+10	1
4902643	15	C	11/18/2024	12:32	-134.345	43.641	0	1810.00	0	2.0990	0	34.5730	0	27.631	0	1787.786	0	44.6	4	13.5	4	-1E+10	1	-1E+10	1	-1E+10	1	-1E+10	1	-1E+10	1	-1E+10	1
4902643	15	C	11/18/2024	12:32	-134.345	43.641	0	1829.70	0	2.0780	0	34.5750	0	27.635	0	1807.161	0	45.6	4	13.8	4	-1E+10	1	-1E+10	1	-1E+10	1	-1E+10	1	-1E+10	1	-1E+10	1
4902643	15	C	11/18/2024	12:32	-134.345	43.641	0	1849.80	0	2.0650	0	34.5770	0	27.638	0	1826.927	0	46.5	4	14.1	4	-1E+10	1	-1E+10	1	-1E+10	1	-1E+10	1	-1E+10	1	-1E+10	1
4902643	15	C	11/18/2024	12:32	-134.345	43.641	0	1869.60	0	2.0490	0	34.5790	0	27.640	0	1846.396	0	47.5	4	14.3	4	-1E+10	1	-1E+10	1	-1E+10	1	-1E+10	1	-1E+10	1	-1E+10	1
4902643	15	C	11/18/2024	12:32	-134.345	43.641	0	1889.90	0	2.0310	0	34.5820	0	27.644	0	1866.355	0	48.6	4	14.7	4	-1E+10	1	-1E+10	1	-1E+10	1	-1E+10	1	-1E+10	1	-1E+10	1
4902643	15	C	11/18/2024	12:32	-134.345	43.641	0	1910.00	0	2.0150	0	34.5850	0	27.648	0	1886.116	0	49.8	4	15.0	4	-1E+10	1	-1E+10	1	-1E+10	1	-1E+10	1	-1E+10	1	-1E+10	1
4902643	15	C	11/18/2024	12:32	-134.345	43.641	0	1930.10	0	2.0000	0	34.5870	0	27.651	0	1905.875	0	50.9	4	15.4	4	-1E+10	1	-1E+10	1	-1E+10	1	-1E+10	1	-1E+10	1	-1E+10	1
4902643	15	C	11/18/2024	12:32	-134.345	43.641	0	1950.00	0	1.9890	0	34.5890	0	27.654	0	1925.435	0	51.9	4	15.6	4	-1E+10	1	-1E+10	1	-1E+10	1	-1E+10	1	-1E+10	1	-1E+10	1
4902643	15	C	11/18/2024	12:32	-134.345	43.641	0	1969.70	0	1.9760	0	34.5910	0	27.656	0	1944.797	0	52.9	4	15.9	4	-1E+10	1	-1E+10	1	-1E+10	1	-1E+10	1	-1E+10	1	-1E+10	1
4902643	15	C	11/18/2024	12:32	-134.345	43.641	0	1990.00	0	1.9650	0	34.5930	0	27.659	0	1964.747	0	53.7	4	16.2	4	-1E+10	1	-1E+10	1	-1E+10	1	-1E+10	1	-1E+10	1	-1E+10	1
4902643	15	C	11/18/2024	12:32	-134.345	43.641	0	2010.00	0	1.9560	0	34.5950	4	27.661	0	1984.400	0	54.5	4	16.4	4	-1E+10	1	-1E+10	1	-1E+10	1	-1E+10	1	-1E+10	1	-1E+10	1
4902643	15	C	11/18/2024	12:32	-134.345	43.641	0	2030.00	0	1.9480	0	34.5960	4	27.663	0	2004.051	0	55.4	4	16.7	4	-1E+10	1	-1E+10	1	-1E+10	1	-1E+10	1	-1E+10	1	-1E+10	1
4902643	15	C	11/18/2024	12:32	-134.345	43.641	0	2049.90	0	1.9370	0	34.5980	4	27.665	0	2023.602	0	56.2	4	16.9	4	-1E+10	1	-1E+10	1	-1E+10	1	-1E+10	1	-1E+10	1	-1E+10	1
4902643	15	C	11/18/2024	12:32	-134.345	43.641	0	2069.60	0	1.9270	0	34.6000	4	27.668	0	2042.955	0	57.1	4	17.2	4	-1E+10	1	-1E+10	1	-1E+10	1	-1E+10	1	-1E+10	1	-1E+10	1
4902643	15	C	11/18/2024	12:32	-134.345	43.641	0	2089.80	0	1.9190	0	34.6010	4	27.669	0	2062.798	0	57.9	4	17.4	4	-1E+10	1	-1E+10	1	-1E+10	1	-1E+10	1	-1E+10	1	-1E+10	1
4902643	15	C	11/18/2024	12:32	-134.345	43.641	0	2110.00	0	1.9080	0	34.6030	4	27.672	0	2082.638	0	58.7	4	17.7	4	-1E+10	1	-1E+10	1	-1E+10	1	-1E+10	1	-1E+10	1	-1E+10	1
4902643	15	C	11/18/2024	12:32	-134.345	43.641	0	2129.80	0	1.9000	0	34.6050	4	27.674	0	2102.084	0	59.6	4	17.9	4	-1E+10	1	-1E+10	1	-1E+10	1	-1E+10	1	-1E+10	1	-1E+10	1
4902643	15	C	11/18/2024	12:32	-134.345	43.641	0	2149.90	0	1.8880	0	34.6060	4	27.676	0	2121.823	0	60.5	4	18.2	4	-1E+10	1	-1E+10	1	-1E+10	1	-1E+10	1	-1E+10	1	-1E+10	1
4902643	15	C	11/18/2024	12:32	-134.345	43.641	0	2169.90	0	1.8790	0	34.6080	4	27.679	0	2141.461	0	61.3	4	18.4	4	-1E+10	1	-1E+10	1	-1E+10	1	-1E+10	1	-1E+10	1	-1E+10	1
4902643	15	C	11/18/2024	12:32	-134.345	43.641	0	2189.60	0	1.8700	0	34.6090	4	27.680	0	2160.804	0	62.2	4	18.7	4	-1E+10	1	-1E+10	1	-1E+10	1	-1E+10	1	-1E+10	1	-1E+10	1
4902643	15	C	11/18/2024	12:32	-134.345	43.641	0	2209.70	0	1.8620	0	34.6110	4	27.682	0	2180.537	0	62.9	4	18.9	4	-1E+10	1	-1E+10	1	-1E+10	1	-1E+10	1	-1E+10	1	-1E+10	1
4902643	15	C	11/18/2024	12:32	-134.345	43.641	0	2229.60	0	1.8560	0	34.6120	4	27.684	0	2200.072	0	63.5	4	19.1	4	-1E+10	1	-1E+10	1	-1E+10	1	-1E+10	1	-1E+10	1	-1E+10	1
4902643	15	C	11/18/2024	12:32	-134.345	43.641	0	2249.60	0	1.8490	0	34.6130	4	27.685	0	2219.704	0	64.1	4	19.3	4	-1E+10	1	-1E+10	1	-1E+10	1	-1E+10	1	-1E+10	1	-1E+10	1
4902643	15	C	11/18/2024	12:32	-134.345	43.641	0	2269.80	0	1.8430	0	34.6140	4	27.687	0	2239.530	0	64.7	4	19.4	4	-1E+10	1	-1E+10	1	-1E+10	1	-1E+10	1	-1E+10	1	-1E+10	1
4902643	15	C	11/18/2024	12:32	-134.345	43.641	0	2290.20	0	1.8360	0	34.6150	4	27.688	0	2259.550	0	65.4	4	19.7	4	-1E+10	1	-1E+10	1	-1E+10	1	-1E+10	1	-1E+10	1	-1E+10	1
4902643	15	C	11/18/2024	12:32	-134.345	43.641	0	2310.30	0	1.8290	0	34.6160	4	27.690	0	2279.274	0	66.1	4	19.9	4	-1E+10	1	-1E+10	1	-1E+10	1	-1E+10	1	-1E+10	1	-1E+10	1
4902643	15	C	11/18/2024	12:32	-134.345	43.641	0	2330.00	0	1.8220	0	34.6170	4	27.691	0	2298.604	0	66.9	4	20.1	4	-1E+10	1	-1E+10	1	-1E+10	1	-1E+10	1	-1E+10	1	-1E+10	1
4902643	15	C	11/18/2024	12:32	-134.345	43.641	0	2349.70	0	1.8150	0	34.6180	4	27.692	0	2317.932	0	67.6	4	20.3	4	-1E+10	1	-1E+10	1	-1E+10	1	-1E+10	1	-1E+10	1	-1E+10	1
4902643	15	C	11/18/2024	12:32	-134.345	43.641	0	2369.70	0	1.8080	0	34.6190	4	27.694	0	2337.553	0	68.3	4	20.5	4	-1E+10	1	-1E+10	1	-1E+10	1	-1E+10	1	-1E+10	1	-1E+10	1
4902643	15	C	11/18/2024	12:32	-134.345	43.641	0	2389.80	0	1.8010	0	34.6200	4	27.695	0	2357.270	0	69.0	4	20.7	4	-1E+10	1	-1E+10	1	-1E+10	1	-1E+10	1	-1E+10	1	-1E+10	1
4902643	15	C	11/18/2024	12:32	-134.345	43.641	0	2410.00	0	1.7930	0	34.6210	4	27.697	0	2377.083	0	69.7	4	20.9	4	-1E+10	1	-1E+10	1	-1E+10	1	-1E+10	1	-1E+10	1	-1E+10	1
4902643	15	C	11/18/2024	12:32	-134.345	43.641	0	2429.80	0	1.7870	0	34.6220	4	27.698	0	2396.502	0	70.4	4	21.1	4	-1E+10	1	-1E+10	1	-1E+10	1	-1E+10	1	-1E+10	1	-1E+10	1
4902643	15	C	11/18/2024	12:32	-134.345	43.641	0	2450.10	0	1.7800	0	34.6240	4	27.700	0	2416.410	0	71.3	4	21.4	4	-1E+10	1	-1E+10	1	-1E+10	1	-1E+10	1	-1E+10	1	-1E+10	1
4902643	15	C	11/18/2024	12:32	-134.345	43.641	0	2470.00	0	1.7720	0	34.6250	4	27.702	0	2435.923	0	72.1	4	21.6	4	-1E+10	1	-1E+10	1	-1E+10	1	-1E+10	1	-1E+10	1	-1E+10	1
4902643	15	C	11/18/2024	12:32	-134.345	43.641	0	2489.80	0	1.7650	0	34.6260	4	27.703	0	2455.337	0	73.1	4	21.9	4	-1E+10	1	-1E+10	1	-1E+10	1	-1E+10	1	-1E+10	1	-1E+10	1
4902643	15	C	11/18/2024	12:32	-134.345	43.641	0	2509.80	0	1.7560	0	34.6270	4	27.705	0	2474.945	0	73.9	4	22.2	4	-1E+10	1	-1E+10	1	-1E+10	1	-1E+10	1	-1E+10	1	-1E+10	1
4902643	15	C	11/18/2024	12:32	-134.345	43.641	0	2529.80	0	1.7500	0	34.6280	4	27.706	0	2494.551	0	74.7	4	22.4	4	-1E+10	1	-1E+10	1	-1E+10	1	-1E+10	1	-1E+10	1	-1E+10	1
4902643	15	C	11/18/2024	12:32	-134.345	43.641	0	2549.90	0	1.7440	0	34.6290	4	27.708	0	2514.254	0	75.4	4	22.6	4	-1E+10	1	-1E+10	1	-1E+10	1	-1E+10	1	-1E+10	1	-1E+10	1
4902643	15	C	11/18/2024	12:32	-134.345	43.641	0	2570.10	0	1.7370	0	34.6300	4	27.709	0	2534.053	0	76.3	4	22.9	4	-1E+10	1	-1E+10	1	-1E+10	1	-1E+10	1	-1E+10	1	-1E+10	1
4902643	15	C	11/18/2024	12:32	-134.345	43.641	0	2590.10	0	1.7300	0	34.6310	4	27.711	0	2553.654	0	77.0	4	23.1	4	-1E+10	1	-1E+10	1	-1E+10	1	-1E+10	1	-1E+10	1	-1E+10	1
4902643	15	C	11/18/2024	12:32	-134.345	43.641	0	2609.90	0	1.7240	0	34.6320	4	27.712	0	2573.057	0	77.8	4	23.3	4	-1E+10	1	-1E+10	1	-1E+10	1	-1E+10	1	-1E+10	1	-1E+10	1
4902643	15	C	11/18/2024	12:32	-134.345	43.641	0	2630.40	0	1.7170	0	34.6330	4	27.713	0	2593.144	0	78.6	4	23.5	4	-1E+10	1	-1E+10	1	-1E+10	1	-1E+10	1	-1E+10	1	-1E+10	1
4902643	15	C	11/18/2024	12:32	-134.345	43.641	0	2650.20	0	1.7110	0	34.6340	4	27.715	0	2612.544	0	79.2	4	23.7	4	-1E+10	1	-1E+10	1	-1E+10	1	-1E+10	1	-1E+10	1	-1E+10	1
4902643	15	C	11/18/2024	12:32	-134.345	43.641	0	2670.10	0	1.7050	0	34.6350	4	27.716	0	2632.040	0	79.9	4	23.9	4	-1E+10	1	-1E+10	1	-1E+10	1	-1E+10	1	-1E+10	1	-1E+10	1
4902643	15	C	11/18/2024	12:32	-134.345	43.641	0	2690.00	0	1.6990	0	34.6360	4	27.718	0	2651.533	0	80.6	4	24.1	4	-1E+10	1	-1E+10	1	-1E+10	1	-1E+10	1	-1E+10	1	-1E+10	1
4902643	15	C	11/18/2024	12:32	-134.345	43.641	0	2710.00	0	1.6920	0	34.6370	4	27.719	0	2671.124	0	81.5	4	24.4	4	-1E+10	1	-1E+10	1	-1E+10	1	-1E+10	1	-1E+10	1	-1E+10	1
4902643	15	C	11/18/2024	12:32	-134.345	43.641	0	2729.90	0	1.6860	0	34.6380	4	27.720	0	2690.614	0	82.4	4	24.7	4	-1E+10	1	-1E+10	1	-1E+10	1	-1E+10	1	-1E+10	1	-1E+10	1
4902643	15	C	11/18/2024	12:32	-134.345	43.641	0	2749.80	0	1.6810	0	34.6390	4	27.722	0	2710.103	0	83.2	4	24.9	4	-1E+10	1	-1E+10	1	-1E+10	1	-1E+10	1	-1E+10	1	-1E+10	1
4902643	15	C	11/18/2024	12:32	-134.345	43.641	0	2770.10	0	1.6760	0	34.6400	4	27.723	0	2729.982	0	83.9	4	25.1	4	-1E+10	1	-1E+10	1	-1E+10	1	-1E+10	1	-1E+10	1	-1E+10	1
4902643	15	C	11/18/2024	12:32	-134.345	43.641	0	2790.20	0	1.6700	0	34.6400	4	27.724	0	2749.663	0	84.8	4	25.4	4	-1E+10	1	-1E+10	1	-1E+10	1	-1E+10	1	-1E+10	1	-1E+10	1
4902643	15	C	11/18/2024	12:32	-134.345	43.641	0	2810.30	0	1.6630	0	34.6410	4	27.725	0	2769.342	0	85.6	4	25.6	4	-1E+10	1	-1E+10	1	-1E+10	1	-1E+10	1	-1E+10	1	-1E+10	1
4902643	15	C	11/18/2024	12:32	-134.345	43.641	0	2829.90	0	1.6580	0	34.6420	4	27.726	0	2788.530	0	86.3	4	25.8	4	-1E+10	1	-1E+10	1	-1E+10	1	-1E+10	1	-1E+10	1	-1E+10	1
4902643	15	C	11/18/2024	12:32	-134.345	43.641	0	2849.70	0	1.6530	0	34.6430	4	27.728	0	2807.912	0	87.0	4	26.0	4	-1E+10	1	-1E+10	1	-1E+10	1	-1E+10	1	-1E+10	1	-1E+10	1
4902643	15	C	11/18/2024	12:32	-134.345	43.641	0	2870.00	0	1.6470	0	34.6440	4	27.729	0	2827.782	0	87.7	4	26.2	4	-1E+10	1	-1E+10	1	-1E+10	1	-1E+10	1	-1E+10	1	-1E+10	1
4902643	15	C	11/18/2024	12:32	-134.345	43.641	0	2890.20	0	1.6410	0	34.6450	4	27.730	0	2847.552	0	88.4	4	26.4	4	-1E+10	1	-1E+10	1	-1E+10	1	-1E+10	1	-1E+10	1	-1E+10	1
4902643	15	C	11/18/2024	12:32	-134.345	43.641	0	2909.90	0	1.6360	0	34.6450	4	27.731	0	2866.830	0	89.0	4	26.6	4	-1E+10	1	-1E+10	1	-1E+10	1	-1E+10	1	-1E+10	1	-1E+10	1
4902643	15	C	11/18/2024	12:32	-134.345	43.641	0	2929.70	0	1.6300	0	34.6460	4	27.732	0	2886.205	0	89.8	4	26.8	4	-1E+10	1	-1E+10	1	-1E+10	1	-1E+10	1	-1E+10	1	-1E+10	1
4902643	15	C	11/18/2024	12:32	-134.345	43.641	0	2949.60	0	1.6250	0	34.6470	4	27.733	0	2905.677	0	90.6	4	27.1	4	-1E+10	1	-1E+10	1	-1E+10	1	-1E+10	1	-1E+10	1	-1E+10	1
4902643	15	C	11/18/2024	12:32	-134.345	43.641	0	2969.80	0	1.6200	0	34.6480	4	27.735	0	2925.440	0	91.4	4	27.3	4	-1E+10	1	-1E+10	1	-1E+10	1	-1E+10	1	-1E+10	1	-1E+10	1
4902643	15	C	11/18/2024	12:32	-134.345	43.641	0	2990.00	0	1.6140	0	34.6480	4	27.735	0	2945.201	0	92.0	4	27.5	4	-1E+10	1	-1E+10	1	-1E+10	1	-1E+10	1	-1E+10	1	-1E+10	1
4902643	15	C	11/18/2024	12:32	-134.345	43.641	0	3010.40	0	1.6080	0	34.6490	4	27.737	0	2965.155	0	92.9	4	27.7	4	-1E+10	1	-1E+10	1	-1E+10	1	-1E+10	1	-1E+10	1	-1E+10	1
4902643	15	C	11/18/2024	12:32	-134.345	43.641	0	3029.70	0	1.6020	0	34.6500	4	27.738	0	2984.033	0	93.7	4	28.0	4	-1E+10	1	-1E+10	1	-1E+10	1	-1E+10	1	-1E+10	1	-1E+10	1
4902643	15	C	11/18/2024	12:32	-134.345	43.641	0	3049.80	0	1.5960	0	34.6510	4	27.739	0	3003.691	0	94.6	4	28.2	4	-1E+10	1	-1E+10	1	-1E+10	1	-1E+10	1	-1E+10	1	-1E+10	1
4902643	15	C	11/18/2024	12:32	-134.345	43.641	0	3070.20	0	1.5920	0	34.6520	4	27.741	0	3023.640	0	95.3	4	28.5	4	-1E+10	1	-1E+10	1	-1E+10	1	-1E+10	1	-1E+10	1	-1E+10	1
4902643	15	C	11/18/2024	12:32	-134.345	43.641	0	3090.30	0	1.5880	0	34.6520	4	27.741	0	3043.295	0	96.0	4	28.7	4	-1E+10	1	-1E+10	1	-1E+10	1	-1E+10	1	-1E+10	1	-1E+10	1
4902643	15	C	11/18/2024	12:32	-134.345	43.641	0	3109.90	0	1.5840	0	34.6530	4	27.742	0	3062.458	0	96.7	4	28.9	4	-1E+10	1	-1E+10	1	-1E+10	1	-1E+10	1	-1E+10	1	-1E+10	1
4902643	15	C	11/18/2024	12:32	-134.345	43.641	0	3129.60	0	1.5800	0	34.6540	4	27.743	0	3081.718	0	97.5	4	29.1	4	-1E+10	1	-1E+10	1	-1E+10	1	-1E+10	1	-1E+10	1	-1E+10	1
4902643	15	C	11/18/2024	12:32	-134.345	43.641	0	3150.30	0	1.5770	0	34.6550	4	27.745	0	3101.954	0	98.1	4	29.3	4	-1E+10	1	-1E+10	1	-1E+10	1	-1E+10	1	-1E+10	1	-1E+10	1
4902643	15	C	11/18/2024	12:32	-134.345	43.641	0	3170.10	0	1.5740	0	34.6550	4	27.745	0	3121.308	0	98.6	4	29.4	4	-1E+10	1	-1E+10	1	-1E+10	1	-1E+10	1	-1E+10	1	-1E+10	1
4902643	15	C	11/18/2024	12:32	-134.345	43.641	0	3190.00	0	1.5700	0	34.6560	4	27.746	0	3140.758	0	99.3	4	29.6	4	-1E+10	1	-1E+10	1	-1E+10	1	-1E+10	1	-1E+10	1	-1E+10	1
4902643	15	C	11/18/2024	12:32	-134.345	43.641	0	3209.90	0	1.5670	0	34.6560	4	27.746	0	3160.206	0	99.8	4	29.8	4	-1E+10	1	-1E+10	1	-1E+10	1	-1E+10	1	-1E+10	1	-1E+10	1
4902643	15	C	11/18/2024	12:32	-134.345	43.641	0	3229.70	0	1.5660	0	34.6570	4	27.747	0	3179.555	0	100.3	4	29.9	4	-1E+10	1	-1E+10	1	-1E+10	1	-1E+10	1	-1E+10	1	-1E+10	1
4902643	15	C	11/18/2024	12:32	-134.345	43.641	0	3250.10	0	1.5640	0	34.6570	4	27.748	0	3199.489	0	100.7	4	30.1	4	-1E+10	1	-1E+10	1	-1E+10	1	-1E+10	1	-1E+10	1	-1E+10	1
4902643	15	C	11/18/2024	12:32	-134.345	43.641	0	3269.60	0	1.5630	0	34.6580	4	27.749	0	3218.541	0	101.2	4	30.2	4	-1E+10	1	-1E+10	1	-1E+10	1	-1E+10	1	-1E+10	1	-1E+10	1
4902643	15	C	11/18/2024	12:32	-134.345	43.641	0	3289.70	0	1.5610	0	34.6590	4	27.750	0	3238.178	0	101.8	4	30.4	4	-1E+10	1	-1E+10	1	-1E+10	1	-1E+10	1	-1E+10	1	-1E+10	1
4902643	15	C	11/18/2024	12:32	-134.345	43.641	0	3309.80	0	1.5590	0	34.6590	4	27.750	0	3257.813	0	102.3	4	30.5	4	-1E+10	1	-1E+10	1	-1E+10	1	-1E+10	1	-1E+10	1	-1E+10	1
4902643	15	C	11/18/2024	12:32	-134.345	43.641	0	3330.10	0	1.5560	0	34.6600	4	27.751	0	3277.641	0	102.7	4	30.6	4	-1E+10	1	-1E+10	1	-1E+10	1	-1E+10	1	-1E+10	1	-1E+10	1
4902643	15	C	11/18/2024	12:32	-134.345	43.641	0	3350.20	0	1.5550	0	34.6600	4	27.751	0	3297.273	0	103.1	4	30.8	4	-1E+10	1	-1E+10	1	-1E+10	1	-1E+10	1	-1E+10	1	-1E+10	1
4902643	15	C	11/18/2024	12:32	-134.345	43.641	0	3369.70	0	1.5540	0	34.6610	4	27.752	0	3316.316	0	103.4	4	30.9	4	-1E+10	1	-1E+10	1	-1E+10	1	-1E+10	1	-1E+10	1	-1E+10	1
4902643	15	C	11/18/2024	12:32	-134.345	43.641	0	3389.90	0	1.5530	0	34.6610	4	27.753	0	3336.042	0	103.8	4	31.0	4	-1E+10	1	-1E+10	1	-1E+10	1	-1E+10	1	-1E+10	1	-1E+10	1
4902643	15	C	11/18/2024	12:32	-134.345	43.641	0	3409.90	0	1.5530	0	34.6610	4	27.753	0	3355.571	0	104.1	4	31.1	4	-1E+10	1	-1E+10	1	-1E+10	1	-1E+10	1	-1E+10	1	-1E+10	1
4902643	15	C	11/18/2024	12:32	-134.345	43.641	0	3429.90	0	1.5530	0	34.6620	4	27.754	0	3375.098	0	104.3	4	31.1	4	-1E+10	1	-1E+10	1	-1E+10	1	-1E+10	1	-1E+10	1	-1E+10	1
4902643	15	C	11/18/2024	12:32	-134.345	43.641	0	3449.90	0	1.5530	0	34.6620	4	27.754	0	3394.623	0	104.6	4	31.2	4	-1E+10	1	-1E+10	1	-1E+10	1	-1E+10	1	-1E+10	1	-1E+10	1
4902643	15	C	11/18/2024	12:32	-134.345	43.641	0	3470.10	0	1.5530	0	34.6630	4	27.755	0	3414.341	0	104.9	4	31.3	4	-1E+10	1	-1E+10	1	-1E+10	1	-1E+10	1	-1E+10	1	-1E+10	1
4902643	15	C	11/18/2024	12:32	-134.345	43.641	0	3489.90	0	1.5530	0	34.6630	4	27.755	0	3433.668	0	105.3	4	31.4	4	-1E+10	1	-1E+10	1	-1E+10	1	-1E+10	1	-1E+10	1	-1E+10	1
4902643	15	C	11/18/2024	12:32	-134.345	43.641	0	3510.00	0	1.5520	0	34.6630	4	27.755	0	3453.285	0	105.6	4	31.5	4	-1E+10	1	-1E+10	1	-1E+10	1	-1E+10	1	-1E+10	1	-1E+10	1
4902643	15	C	11/18/2024	12:32	-134.345	43.641	0	3529.80	0	1.5520	0	34.6640	4	27.756	0	3472.608	0	105.8	4	31.6	4	-1E+10	1	-1E+10	1	-1E+10	1	-1E+10	1	-1E+10	1	-1E+10	1
4902643	15	C	11/18/2024	12:32	-134.345	43.641	0	3550.10	0	1.5530	0	34.6640	4	27.756	0	3492.417	0	106.1	4	31.6	4	-1E+10	1	-1E+10	1	-1E+10	1	-1E+10	1	-1E+10	1	-1E+10	1
4902643	15	C	11/18/2024	12:32	-134.345	43.641	0	3570.40	0	1.5530	0	34.6640	4	27.756	0	3512.225	0	106.3	4	31.7	4	-1E+10	1	-1E+10	1	-1E+10	1	-1E+10	1	-1E+10	1	-1E+10	1
4902643	15	C	11/18/2024	12:32	-134.345	43.641	0	3590.30	0	1.5530	0	34.6650	4	27.757	0	3531.640	0	106.5	4	31.8	4	-1E+10	1	-1E+10	1	-1E+10	1	-1E+10	1	-1E+10	1	-1E+10	1
4902643	15	C	11/18/2024	12:32	-134.345	43.641	0	3610.80	0	1.5530	0	34.6650	4	27.757	0	3551.639	0	106.8	4	31.9	4	-1E+10	1	-1E+10	1	-1E+10	1	-1E+10	1	-1E+10	1	-1E+10	1
4902643	15	C	11/18/2024	12:32	-134.345	43.641	0	3630.10	0	1.5530	0	34.6650	4	27.758	0	3570.466	0	107.1	4	31.9	4	-1E+10	1	-1E+10	1	-1E+10	1	-1E+10	1	-1E+10	1	-1E+10	1
4902643	15	C	11/18/2024	12:32	-134.345	43.641	0	3650.00	0	1.5540	0	34.6660	4	27.759	0	3589.876	0	107.3	4	32.0	4	-1E+10	1	-1E+10	1	-1E+10	1	-1E+10	1	-1E+10	1	-1E+10	1
4902643	15	C	11/18/2024	12:32	-134.345	43.641	0	3670.10	0	1.5540	0	34.6660	4	27.759	0	3609.479	0	107.4	4	32.1	4	-1E+10	1	-1E+10	1	-1E+10	1	-1E+10	1	-1E+10	1	-1E+10	1
4902643	15	C	11/18/2024	12:32	-134.345	43.641	0	3690.00	0	1.5550	0	34.6660	4	27.759	0	3628.886	0	107.7	4	32.1	4	-1E+10	1	-1E+10	1	-1E+10	1	-1E+10	1	-1E+10	1	-1E+10	1
4902643	15	C	11/18/2024	12:32	-134.345	43.641	0	3709.70	0	1.5550	0	34.6660	4	27.759	0	3648.096	0	107.8	4	32.2	4	-1E+10	1	-1E+10	1	-1E+10	1	-1E+10	1	-1E+10	1	-1E+10	1
4902643	15	C	11/18/2024	12:32	-134.345	43.641	0	3729.80	0	1.5550	0	34.6670	4	27.760	0	3667.694	0	107.9	4	32.2	4	-1E+10	1	-1E+10	1	-1E+10	1	-1E+10	1	-1E+10	1	-1E+10	1
4902643	15	C	11/18/2024	12:32	-134.345	43.641	0	3749.90	0	1.5570	0	34.6670	4	27.760	0	3687.291	0	107.9	4	32.2	4	-1E+10	1	-1E+10	1	-1E+10	1	-1E+10	1	-1E+10	1	-1E+10	1
4902643	15	C	11/18/2024	12:32	-134.345	43.641	0	3770.50	0	1.5580	0	34.6670	4	27.760	0	3707.373	0	108.0	4	32.2	4	-1E+10	1	-1E+10	1	-1E+10	1	-1E+10	1	-1E+10	1	-1E+10	1
4902643	15	C	11/18/2024	12:32	-134.345	43.641	0	3787.60	0	1.5580	0	34.6680	4	27.761	0	3724.042	0	107.7	4	32.1	4	-1E+10	1	-1E+10	1	-1E+10	1	-1E+10	1	-1E+10	1	-1E+10	1
4902643	15	C	11/18/2024	12:32	-134.345	43.641	0																										
4902643	16	C	11/28/2024	09:49	-134.317	43.583	0	0.90	0	12.3880	0	32.6090	0	24.660	0	0.893	0	242.5	4	91.3	4	-1E+10	1	-1E+10	1	-1E+10	1	-1E+10	1	-1E+10	1	-1E+10	1
4902643	16	C	11/28/2024	09:49	-134.317	43.583	0	1.00	0	12.3925	0	32.6095	0	24.660	0	0.992	0	242.5	4	91.3	4	-1E+10	1	-1E+10	1	-1E+10	1	-1E+10	1	-1E+10	1	-1E+10	1
4902643	16	C	11/28/2024	09:49	-134.317	43.583	0	1.10	0	12.4038	0	32.6044	0	24.653	0	1.091	0	242.4	4	91.3	4	-1E+10	1	-1E+10	1	-1E+10	1	-1E+10	1	-1E+10	1	-1E+10	1
4902643	16	C	11/28/2024	09:49	-134.317	43.583	0	1.20	0	12.4075	0	32.6015	0	24.651	0	1.190	0	-1e10	1	-1e10	1	-1E+10	1	-1E+10	1	-1E+10	1	-1E+10	1	-1E+10	1	-1E+10	1
4902643	16	C	11/28/2024	09:49	-134.317	43.583	0	1.40	0	12.4120	0	32.6000	0	24.649	0	1.389	0	242.1	4	91.2	4	-1E+10	1	-1E+10	1	-1E+10	1	-1E+10	1	-1E+10	1	-1E+10	1
4902643	16	C	11/28/2024	09:49	-134.317	43.583	0	2.60	0	12.4090	0	32.6020	0	24.651	0	2.579	0	241.9	4	91.1	4	-1E+10	1	-1E+10	1	-1E+10	1	-1E+10	1	-1E+10	1	-1E+10	1
4902643	16	C	11/28/2024	09:49	-134.317	43.583	0	3.60	0	12.4060	0	32.6070	0	24.655	0	3.571	0	242.1	4	91.2	4	-1E+10	1	-1E+10	1	-1E+10	1	-1E+10	1	-1E+10	1	-1E+10	1
4902643	16	C	11/28/2024	09:49	-134.317	43.583	0	4.60	0	12.4130	0	32.6020	0	24.650	0	4.563	0	241.9	4	91.1	4	-1E+10	1	-1E+10	1	-1E+10	1	-1E+10	1	-1E+10	1	-1E+10	1
4902643	16	C	11/28/2024	09:49	-134.317	43.583	0	5.60	0	12.4120	0	32.6030	0	24.651	0	5.555	0	242.0	4	91.1	4	-1E+10	1	-1E+10	1	-1E+10	1	-1E+10	1	-1E+10	1	-1E+10	1
4902643	16	C	11/28/2024	09:49	-134.317	43.583	0	6.30	0	12.4160	0	32.6020	0	24.649	0	6.250	0	242.0	4	91.2	4	-1E+10	1	-1E+10	1	-1E+10	1	-1E+10	1	-1E+10	1	-1E+10	1
4902643	16	C	11/28/2024	09:49	-134.317	43.583	0	7.10	0	12.4140	0	32.6040	0	24.651	0	7.043	0	241.9	4	91.1	4	-1E+10	1	-1E+10	1	-1E+10	1	-1E+10	1	-1E+10	1	-1E+10	1
4902643	16	C	11/28/2024	09:49	-134.317	43.583	0	8.10	0	12.4160	0	32.6040	0	24.651	0	8.035	0	241.9	4	91.1	4	-1E+10	1	-1E+10	1	-1E+10	1	-1E+10	1	-1E+10	1	-1E+10	1
4902643	16	C	11/28/2024	09:49	-134.317	43.583	0	9.40	0	12.4170	0	32.6030	0	24.650	0	9.325	0	241.9	4	91.1	4	-1E+10	1	-1E+10	1	-1E+10	1	-1E+10	1	-1E+10	1	-1E+10	1
4902643	16	C	11/28/2024	09:49	-134.317	43.583	0	14.70	0	12.4150	0	32.6020	0	24.650	0	14.582	0	242.0	4	91.1	4	-1E+10	1	-1E+10	1	-1E+10	1	-1E+10	1	-1E+10	1	-1E+10	1
4902643	16	C	11/28/2024	09:49	-134.317	43.583	0	24.80	0	12.4220	0	32.6040	0	24.650	0	24.600	0	241.9	4	91.1	4	-1E+10	1	-1E+10	1	-1E+10	1	-1E+10	1	-1E+10	1	-1E+10	1
4902643	16	C	11/28/2024	09:49	-134.317	43.583	0	34.90	0	12.4250	0	32.6060	0	24.652	0	34.618	0	241.8	4	91.1	4	-1E+10	1	-1E+10	1	-1E+10	1	-1E+10	1	-1E+10	1	-1E+10	1
4902643	16	C	11/28/2024	09:49	-134.317	43.583	0	45.00	0	12.4240	0	32.6060	0	24.652	0	44.636	0	241.7	4	91.1	4	-1E+10	1	-1E+10	1	-1E+10	1	-1E+10	1	-1E+10	1	-1E+10	1
4902643	16	C	11/28/2024	09:49	-134.317	43.583	0	55.10	0	12.4240	0	32.6060	0	24.652	0	54.653	0	241.5	4	91.0	4	-1E+10	1	-1E+10	1	-1E+10	1	-1E+10	1	-1E+10	1	-1E+10	1
4902643	16	C	11/28/2024	09:49	-134.317	43.583	0	65.70	0	12.4260	0	32.6050	0	24.651	0	65.165	0	240.9	4	90.8	4	-1E+10	1	-1E+10	1	-1E+10	1	-1E+10	1	-1E+10	1	-1E+10	1
4902643	16	C	11/28/2024	09:49	-134.317	43.583	0	74.10	0	12.1430	0	32.6400	0	24.732	0	73.495	0	240.5	4	90.1	4	-1E+10	1	-1E+10	1	-1E+10	1	-1E+10	1	-1E+10	1	-1E+10	1
4902643	16	C	11/28/2024	09:49	-134.317	43.583	0	84.80	0	10.6600	0	32.7800	0	25.109	0	84.105	0	241.5	4	87.8	4	-1E+10	1	-1E+10	1	-1E+10	1	-1E+10	1	-1E+10	1	-1E+10	1
4902643	16	C	11/28/2024	09:49	-134.317	43.583	0	94.50	0	10.2550	0	32.8130	0	25.204	0	93.724	0	236.9	4	85.4	4	-1E+10	1	-1E+10	1	-1E+10	1	-1E+10	1	-1E+10	1	-1E+10	1
4902643	16	C	11/28/2024	09:49	-134.317	43.583	0	104.90	0	9.9450	0	32.8740	0	25.304	0	104.036	0	235.2	4	84.2	4	-1E+10	1	-1E+10	1	-1E+10	1	-1E+10	1	-1E+10	1	-1E+10	1
4902643	16	C	11/28/2024	09:49	-134.317	43.583	0	115.20	0	9.4340	0	32.8660	0	25.381	0	114.248	0	233.7	4	82.8	4	-1E+10	1	-1E+10	1	-1E+10	1	-1E+10	1	-1E+10	1	-1E+10	1
4902643	16	C	11/28/2024	09:49	-134.317	43.583	0	124.90	0	9.4000	0	32.9510	0	25.453	0	123.865	0	223.5	4	79.1	4	-1E+10	1	-1E+10	1	-1E+10	1	-1E+10	1	-1E+10	1	-1E+10	1
4902643	16	C	11/28/2024	09:49	-134.317	43.583	0	134.80	0	9.2260	0	33.0830	0	25.584	0	133.680	0	209.7	4	74.1	4	-1E+10	1	-1E+10	1	-1E+10	1	-1E+10	1	-1E+10	1	-1E+10	1
4902643	16	C	11/28/2024	09:49	-134.317	43.583	0	145.00	0	8.8670	0	33.3170	0	25.824	0	143.791	0	202.2	4	71.0	4	-1E+10	1	-1E+10	1	-1E+10	1	-1E+10	1	-1E+10	1	-1E+10	1
4902643	16	C	11/28/2024	09:49	-134.317	43.583	0	154.40	0	8.5700	0	33.5090	0	26.020	0	153.109	0	201.3	4	70.3	4	-1E+10	1	-1E+10	1	-1E+10	1	-1E+10	1	-1E+10	1	-1E+10	1
4902643	16	C	11/28/2024	09:49	-134.317	43.583	0	164.90	0	8.3500	0	33.5990	0	26.124	0	163.517	0	201.0	4	69.9	4	-1E+10	1	-1E+10	1	-1E+10	1	-1E+10	1	-1E+10	1	-1E+10	1
4902643	16	C	11/28/2024	09:49	-134.317	43.583	0	175.10	0	8.1130	0	33.6650	0	26.212	0	173.628	0	198.2	4	68.6	4	-1E+10	1	-1E+10	1	-1E+10	1	-1E+10	1	-1E+10	1	-1E+10	1
4902643	16	C	11/28/2024	09:49	-134.317	43.583	0	184.80	0	7.9450	0	33.7240	0	26.283	0	183.242	0	194.2	4	67.0	4	-1E+10	1	-1E+10	1	-1E+10	1	-1E+10	1	-1E+10	1	-1E+10	1
4902643	16	C	11/28/2024	09:49	-134.317	43.583	0	194.50	0	7.8340	0	33.7490	0	26.319	0	192.856	0	192.5	4	66.2	4	-1E+10	1	-1E+10	1	-1E+10	1	-1E+10	1	-1E+10	1	-1E+10	1
4902643	16	C	11/28/2024	09:49	-134.317	43.583	0	209.60	0	7.6690	0	33.7710	0	26.360	0	207.820	0	189.6	4	65.0	4	-1E+10	1	-1E+10	1	-1E+10	1	-1E+10	1	-1E+10	1	-1E+10	1
4902643	16	C	11/28/2024	09:49	-134.317	43.583	0	229.50	0	7.4940	0	33.8090	0	26.415	0	227.540	0	179.4	4	61.3	4	-1E+10	1	-1E+10	1	-1E+10	1	-1E+10	1	-1E+10	1	-1E+10	1
4902643	16	C	11/28/2024	09:49	-134.317	43.583	0	249.50	0	7.1950	0	33.8310	0	26.475	0	247.358	0	168.3	4	57.1	4	-1E+10	1	-1E+10	1	-1E+10	1	-1E+10	1	-1E+10	1	-1E+10	1
4902643	16	C	11/28/2024	09:49	-134.317	43.583	0	269.60	0	6.8360	0	33.8320	0	26.524	0	267.272	0	159.3	4	53.6	4	-1E+10	1	-1E+10	1	-1E+10	1	-1E+10	1	-1E+10	1	-1E+10	1
4902643	16	C	11/28/2024	09:49	-134.317	43.583	0	290.20	0	6.5330	0	33.8290	0	26.563	0	287.680	0	150.0	4	50.1	4	-1E+10	1	-1E+10	1	-1E+10	1	-1E+10	1	-1E+10	1	-1E+10	1
4902643	16	C	11/28/2024	09:49	-134.317	43.583	0	310.00	0	6.2350	0	33.8350	0	26.606	0	307.293	0	133.8	4	44.4	4	-1E+10	1	-1E+10	1	-1E+10	1	-1E+10	1	-1E+10	1	-1E+10	1
4902643	16	C	11/28/2024	09:49	-134.317	43.583	0	329.70	0	5.9580	0	33.8360	0	26.642	0	326.806	0	121.0	4	39.9	4	-1E+10	1	-1E+10	1	-1E+10	1	-1E+10	1	-1E+10	1	-1E+10	1
4902643	16	C	11/28/2024	09:49	-134.317	43.583	0	349.90	0	5.6410	0	33.8440	0	26.687	0	346.811	0	108.0	4	35.4	4	-1E+10	1	-1E+10	1	-1E+10	1	-1E+10	1	-1E+10	1	-1E+10	1
4902643	16	C	11/28/2024	09:49	-134.317	43.583	0	369.40	0	5.3620	0	33.8450	0	26.721	0	366.122	0	97.0	4	31.6	4	-1E+10	1	-1E+10	1	-1E+10	1	-1E+10	1	-1E+10	1	-1E+10	1
4902643	16	C	11/28/2024	09:49	-134.317	43.583	0	389.80	0	5.0890	0	33.8530	0	26.759	0	386.322	0	85.7	4	27.7	4	-1E+10	1	-1E+10	1	-1E+10	1	-1E+10	1	-1E+10	1	-1E+10	1
4902643	16	C	11/28/2024	09:49	-134.317	43.583	0	409.90	0	4.8910	0	33.8720	0	26.797	0	406.223	0	76.8	4	24.7	4	-1E+10	1	-1E+10	1	-1E+10	1	-1E+10	1	-1E+10	1	-1E+10	1
4902643	16	C	11/28/2024	09:49	-134.317	43.583	0	430.50	0	4.8000	0	33.8970	0	26.827	0	426.617	0	72.3	4	23.2	4	-1E+10	1	-1E+10	1	-1E+10	1	-1E+10	1	-1E+10	1	-1E+10	1
4902643	16	C	11/28/2024	09:49	-134.317	43.583	0	449.50	0	4.7460	0	33.9240	0	26.855	0	445.425	0	68.1	4	21.8	4	-1E+10	1	-1E+10	1	-1E+10	1	-1E+10	1	-1E+10	1	-1E+10	1
4902643	16	C	11/28/2024	09:49	-134.317	43.583	0	469.60	0	4.6660	0	33.9420	0	26.878	0	465.321	0	62.6	4	20.1	4	-1E+10	1	-1E+10	1	-1E+10	1	-1E+10	1	-1E+10	1	-1E+10	1
4902643	16	C	11/28/2024	09:49	-134.317	43.583	0	489.70	0	4.5640	0	33.9660	0	26.908	0	485.214	0	56.0	4	17.9	4	-1E+10	1	-1E+10	1	-1E+10	1	-1E+10	1	-1E+10	1	-1E+10	1
4902643	16	C	11/28/2024	09:49	-134.317	43.583	0	509.60	0	4.4960	0	33.9880	0	26.933	0	504.908	0	51.3	4	16.4	4	-1E+10	1	-1E+10	1	-1E+10	1	-1E+10	1	-1E+10	1	-1E+10	1
4902643	16	C	11/28/2024	09:49	-134.317	43.583	0	529.60	0	4.4420	0	34.0060	0	26.953	0	524.698	0	45.5	4	14.5	4	-1E+10	1	-1E+10	1	-1E+10	1	-1E+10	1	-1E+10	1	-1E+10	1
4902643	16	C	11/28/2024	09:49	-134.317	43.583	0	549.40	0	4.3600	0	34.0320	0	26.983	0	544.289	0	38.5	4	12.3	4	-1E+10	1	-1E+10	1	-1E+10	1	-1E+10	1	-1E+10	1	-1E+10	1
4902643	16	C	11/28/2024	09:49	-134.317	43.583	0	569.70	0	4.3050	0	34.0540	0	27.006	0	564.373	0	34.0	4	10.8	4	-1E+10	1	-1E+10	1	-1E+10	1	-1E+10	1	-1E+10	1	-1E+10	1
4902643	16	C	11/28/2024	09:49	-134.317	43.583	0	589.90	0	4.2520	0	34.0730	0	27.027	0	584.355	0	30.3	4	9.6	4	-1E+10	1	-1E+10	1	-1E+10	1	-1E+10	1	-1E+10	1	-1E+10	1
4902643	16	C	11/28/2024	09:49	-134.317	43.583	0	609.70	0	4.2030	0	34.0890	0	27.045	0	603.941	0	27.1	4	8.6	4	-1E+10	1	-1E+10	1	-1E+10	1	-1E+10	1	-1E+10	1	-1E+10	1
4902643	16	C	11/28/2024	09:49	-134.317	43.583	0	630.30	0	4.1440	0	34.1070	0	27.066	0	624.315	0	24.2	4	7.7	4	-1E+10	1	-1E+10	1	-1E+10	1	-1E+10	1	-1E+10	1	-1E+10	1
4902643	16	C	11/28/2024	09:49	-134.317	43.583	0	650.00	0	4.0910	0	34.1240	0	27.085	0	643.798	0	21.9	4	6.9	4	-1E+10	1	-1E+10	1	-1E+10	1	-1E+10	1	-1E+10	1	-1E+10	1
4902643	16	C	11/28/2024	09:49	-134.317	43.583	0	669.90	0	4.0440	0	34.1380	0	27.101	0	663.476	0	19.7	4	6.2	4	-1E+10	1	-1E+10	1	-1E+10	1	-1E+10	1	-1E+10	1	-1E+10	1
4902643	16	C	11/28/2024	09:49	-134.317	43.583	0	689.90	0	3.9970	0	34.1520	0	27.117	0	683.252	0	18.1	4	5.7	4	-1E+10	1	-1E+10	1	-1E+10	1	-1E+10	1	-1E+10	1	-1E+10	1
4902643	16	C	11/28/2024	09:49	-134.317	43.583	0	709.60	0	3.9540	0	34.1630	0	27.130	0	702.729	0	17.1	4	5.4	4	-1E+10	1	-1E+10	1	-1E+10	1	-1E+10	1	-1E+10	1	-1E+10	1
4902643	16	C	11/28/2024	09:49	-134.317	43.583	0	729.70	0	3.8930	0	34.1780	0	27.149	0	722.599	0	15.4	4	4.9	4	-1E+10	1	-1E+10	1	-1E+10	1	-1E+10	1	-1E+10	1	-1E+10	1
4902643	16	C	11/28/2024	09:49	-134.317	43.583	0	750.00	0	3.8290	0	34.1960	0	27.169	0	742.665	0	13.9	4	4.4	4	-1E+10	1	-1E+10	1	-1E+10	1	-1E+10	1	-1E+10	1	-1E+10	1
4902643	16	C	11/28/2024	09:49	-134.317	43.583	0	769.90	0	3.7790	0	34.2090	0	27.185	0	762.335	0	12.9	4	4.0	4	-1E+10	1	-1E+10	1	-1E+10	1	-1E+10	1	-1E+10	1	-1E+10	1
4902643	16	C	11/28/2024	09:49	-134.317	43.583	0	789.90	0	3.7340	0	34.2220	0	27.200	0	782.101	0	11.8	4	3.7	4	-1E+10	1	-1E+10	1	-1E+10	1	-1E+10	1	-1E+10	1	-1E+10	1
4902643	16	C	11/28/2024	09:49	-134.317	43.583	0	809.70	0	3.6880	0	34.2360	0	27.216	0	801.667	0	10.7	4	3.4	4	-1E+10	1	-1E+10	1	-1E+10	1	-1E+10	1	-1E+10	1	-1E+10	1
4902643	16	C	11/28/2024	09:49	-134.317	43.583	0	829.70	0	3.6520	0	34.2490	0	27.230	0	821.429	0	9.5	4	3.0	4	-1E+10	1	-1E+10	1	-1E+10	1	-1E+10	1	-1E+10	1	-1E+10	1
4902643	16	C	11/28/2024	09:49	-134.317	43.583	0	849.60	0	3.6230	0	34.2670	0	27.247	0	841.091	0	8.5	4	2.7	4	-1E+10	1	-1E+10	1	-1E+10	1	-1E+10	1	-1E+10	1	-1E+10	1
4902643	16	C	11/28/2024	09:49	-134.317	43.583	0	870.20	0	3.5890	0	34.2820	0	27.262	0	861.442	0	7.9	4	2.5	4	-1E+10	1	-1E+10	1	-1E+10	1	-1E+10	1	-1E+10	1	-1E+10	1
4902643	16	C	11/28/2024	09:49	-134.317	43.583	0	889.90	0	3.5620	0	34.2960	0	27.276	0	880.903	0	7.4	4	2.3	4	-1E+10	1	-1E+10	1	-1E+10	1	-1E+10	1	-1E+10	1	-1E+10	1
4902643	16	C	11/28/2024	09:49	-134.317	43.583	0	909.90	0	3.5400	0	34.3150	0	27.294	0	900.657	0	7.0	4	2.2	4	-1E+10	1	-1E+10	1	-1E+10	1	-1E+10	1	-1E+10	1	-1E+10	1
4902643	16	C	11/28/2024	09:49	-134.317	43.583	0	930.00	0	3.5070	0	34.3290	0	27.308	0	920.509	0	6.9	4	2.1	4	-1E+10	1	-1E+10	1	-1E+10	1	-1E+10	1	-1E+10	1	-1E+10	1
4902643	16	C	11/28/2024	09:49	-134.317	43.583	0	950.50	0	3.4750	0	34.3400	0	27.320	0	940.754	0	6.8	4	2.1	4	-1E+10	1	-1E+10	1	-1E+10	1	-1E+10	1	-1E+10	1	-1E+10	1
4902643	16	C	11/28/2024	09:49	-134.317	43.583	0	970.00	0	3.4530	0	34.3540	0	27.334	0	960.009	0	6.8	4	2.1	4	-1E+10	1	-1E+10	1	-1E+10	1	-1E+10	1	-1E+10	1	-1E+10	1
4902643	16	C	11/28/2024	09:49	-134.317	43.583	0	990.10	0	3.4210	0	34.3640	0	27.345	0	979.855	0	7.0	4	2.2	4	-1E+10	1	-1E+10	1	-1E+10	1	-1E+10	1	-1E+10	1	-1E+10	1
4902643	16	C	11/28/2024	09:49	-134.317	43.583	0	1009.80	0	3.3880	0	34.3780	0	27.359	0	999.304	0	7.2	4	2.3	4	-1E+10	1	-1E+10	1	-1E+10	1	-1E+10	1	-1E+10	1	-1E+10	1
4902643	16	C	11/28/2024	09:49	-134.317	43.583	0	1029.90	0	3.3490	0	34.3890	0	27.372	0	1019.146	0	7.6	4	2.4	4	-1E+10	1	-1E+10	1	-1E+10	1	-1E+10	1	-1E+10	1	-1E+10	1
4902643	16	C	11/28/2024	09:49	-134.317	43.583	0	1049.80	0	3.3110	0	34.3990	0	27.383	0	1038.789	0	7.9	4	2.5	4	-1E+10	1	-1E+10	1	-1E+10	1	-1E+10	1	-1E+10	1	-1E+10	1
4902643	16	C	11/28/2024	09:49	-134.317	43.583	0	1069.70	0	3.2800	0	34.4070	0	27.393	0	1058.430	0	8.3	4	2.6	4	-1E+10	1	-1E+10	1	-1E+10	1	-1E+10	1	-1E+10	1	-1E+10	1
4902643	16	C	11/28/2024	09:49	-134.317	43.583	0	1089.80	0	3.2390	0	34.4170	0	27.405	0	1078.267	0	8.8	4	2.7	4	-1E+10	1	-1E+10	1	-1E+10	1	-1E+10	1	-1E+10	1	-1E+10	1
4902643	16	C	11/28/2024	09:49	-134.317	43.583	0	1109.90	0	3.1990	0	34.4240	0	27.414	0	1098.102	0	9.2	4	2.9	4	-1E+10	1	-1E+10	1	-1E+10	1	-1E+10	1	-1E+10	1	-1E+10	1
4902643	16	C	11/28/2024	09:49	-134.317	43.583	0	1129.70	0	3.1670	0	34.4290	0	27.421	0	1117.639	0	9.6	4	3.0	4	-1E+10	1	-1E+10	1	-1E+10	1	-1E+10	1	-1E+10	1	-1E+10	1
4902643	16	C	11/28/2024	09:49	-134.317	43.583	0	1149.80	0	3.1290	0	34.4340	0	27.429	0	1137.470	0	10.0	4	3.1	4	-1E+10	1	-1E+10	1	-1E+10	1	-1E+10	1	-1E+10	1	-1E+10	1
4902643	16	C	11/28/2024	09:49	-134.317	43.583	0	1170.00	0	3.0910	0	34.4390	0	27.436	0	1157.398	0	10.2	4	3.1	4	-1E+10	1	-1E+10	1	-1E+10	1	-1E+10	1	-1E+10	1	-1E+10	1
4902643	16	C	11/28/2024	09:49	-134.317	43.583	0	1190.00	0	3.0510	0	34.4420	0	27.443	0	1177.126	0	10.5	4	3.2	4	-1E+10	1	-1E+10	1	-1E+10	1	-1E+10	1	-1E+10	1	-1E+10	1
4902643	16	C	11/28/2024	09:49	-134.317	43.583	0	1210.00	0	3.0170	0	34.4460	0	27.449	0	1196.853	0	10.9	4	3.4	4	-1E+10	1	-1E+10	1	-1E+10	1	-1E+10	1	-1E+10	1	-1E+10	1
4902643	16	C	11/28/2024	09:49	-134.317	43.583	0	1229.70	0	2.9850	0	34.4520	0	27.457	0	1216.282	0	11.5	4	3.5	4	-1E+10	1	-1E+10	1	-1E+10	1	-1E+10	1	-1E+10	1	-1E+10	1
4902643	16	C	11/28/2024	09:49	-134.317	43.583	0	1249.90	0	2.9480	0	34.4580	0	27.465	0	1236.202	0	12.2	4	3.8	4	-1E+10	1	-1E+10	1	-1E+10	1	-1E+10	1	-1E+10	1	-1E+10	1
4902643	16	C	11/28/2024	09:49	-134.317	43.583	0	1269.80	0	2.9110	0	34.4640	0	27.473	0	1255.825	0	12.9	4	4.0	4	-1E+10	1	-1E+10	1	-1E+10	1	-1E+10	1	-1E+10	1	-1E+10	1
4902643	16	C	11/28/2024	09:49	-134.317	43.583	0	1289.60	0	2.8800	0	34.4680	0	27.479	0	1275.347	0	13.5	4	4.1	4	-1E+10	1	-1E+10	1	-1E+10	1	-1E+10	1	-1E+10	1	-1E+10	1
4902643	16	C	11/28/2024	09:49	-134.317	43.583	0	1309.70	0	2.8560	0	34.4720	0	27.485	0	1295.163	0	14.3	4	4.4	4	-1E+10	1	-1E+10	1	-1E+10	1	-1E+10	1	-1E+10	1	-1E+10	1
4902643	16	C	11/28/2024	09:49	-134.317	43.583	0	1329.60	0	2.8260	0	34.4780	0	27.492	0	1314.780	0	15.4	4	4.7	4	-1E+10	1	-1E+10	1	-1E+10	1	-1E+10	1	-1E+10	1	-1E+10	1
4902643	16	C	11/28/2024	09:49	-134.317	43.583	0	1349.70	0	2.7820	0	34.4840	0	27.501	0	1334.592	0	16.5	4	5.1	4	-1E+10	1	-1E+10	1	-1E+10	1	-1E+10	1	-1E+10	1	-1E+10	1
4902643	16	C	11/28/2024	09:49	-134.317	43.583	0	1369.50	0	2.7450	0	34.4900	0	27.509	0	1354.107	0	17.6	4	5.4	4	-1E+10	1	-1E+10	1	-1E+10	1	-1E+10	1	-1E+10	1	-1E+10	1
4902643	16	C	11/28/2024	09:49	-134.317	43.583	0	1389.50	0	2.7070	0	34.4940	0	27.516	0	1373.817	0	18.8	4	5.8	4	-1E+10	1	-1E+10	1	-1E+10	1	-1E+10	1	-1E+10	1	-1E+10	1
4902643	16	C	11/28/2024	09:49	-134.317	43.583	0	1409.60	0	2.6580	0	34.5010	0	27.526	0	1393.624	0	20.2	4	6.2	4	-1E+10	1	-1E+10	1	-1E+10	1	-1E+10	1	-1E+10	1	-1E+10	1
4902643	16	C	11/28/2024	09:49	-134.317	43.583	0	1429.60	0	2.6310	0	34.5050	0	27.531	0	1413.330	0	21.2	4	6.5	4	-1E+10	1	-1E+10	1	-1E+10	1	-1E+10	1	-1E+10	1	-1E+10	1
4902643	16	C	11/28/2024	09:49	-134.317	43.583	0	1449.70	0	2.5940	0	34.5090	0	27.538	0	1433.134	0	22.4	4	6.9	4	-1E+10	1	-1E+10	1	-1E+10	1	-1E+10	1	-1E+10	1	-1E+10	1
4902643	16	C	11/28/2024	09:49	-134.317	43.583	0	1469.90	0	2.5530	0	34.5150	0	27.546	0	1453.033	0	24.0	4	7.3	4	-1E+10	1	-1E+10	1	-1E+10	1	-1E+10	1	-1E+10	1	-1E+10	1
4902643	16	C	11/28/2024	09:49	-134.317	43.583	0	1490.40	0	2.5130	0	34.5190	0	27.553	0	1473.227	0	25.4	4	7.7	4	-1E+10	1	-1E+10	1	-1E+10	1	-1E+10	1	-1E+10	1	-1E+10	1
4902643	16	C	11/28/2024	09:49	-134.317	43.583	0	1509.30	0	2.4810	0	34.5240	0	27.560	0	1491.842	0	27.0	4	8.2	4	-1E+10	1	-1E+10	1	-1E+10	1	-1E+10	1	-1E+10	1	-1E+10	1
4902643	16	C	11/28/2024	09:49	-134.317	43.583	0	1530.00	0	2.4540	0	34.5290	0	27.566	0	1512.229	0	28.3	4	8.6	4	-1E+10	1	-1E+10	1	-1E+10	1	-1E+10	1	-1E+10	1	-1E+10	1
4902643	16	C	11/28/2024	09:49	-134.317	43.583	0	1549.60	0	2.4310	0	34.5320	0	27.570	0	1531.530	0	29.5	4	9.0	4	-1E+10	1	-1E+10	1	-1E+10	1	-1E+10	1	-1E+10	1	-1E+10	1
4902643	16	C	11/28/2024	09:49	-134.317	43.583	0	1569.70	0	2.3960	0	34.5360	0	27.577	0	1551.322	0	30.7	4	9.4	4	-1E+10	1	-1E+10	1	-1E+10	1	-1E+10	1	-1E+10	1	-1E+10	1
4902643	16	C	11/28/2024	09:49	-134.317	43.583	0	1589.80	0	2.3540	0	34.5400	0	27.583	0	1571.112	0	31.9	4	9.7	4	-1E+10	1	-1E+10	1	-1E+10	1	-1E+10	1	-1E+10	1	-1E+10	1
4902643	16	C	11/28/2024	09:49	-134.317	43.583	0	1609.80	0	2.3310	0	34.5440	0	27.589	0	1590.802	0	33.2	4	10.1	4	-1E+10	1	-1E+10	1	-1E+10	1	-1E+10	1	-1E+10	1	-1E+10	1
4902643	16	C	11/28/2024	09:49	-134.317	43.583	0	1630.60	0	2.3000	0	34.5460	0	27.593	0	1611.277	0	33.8	4	10.3	4	-1E+10	1	-1E+10	1	-1E+10	1	-1E+10	1	-1E+10	1	-1E+10	1
4902643	16	C	11/28/2024	09:49	-134.317	43.583	0	1649.80	0	2.2680	0	34.5490	0	27.598	0	1630.176	0	35.0	4	10.6	4	-1E+10	1	-1E+10	1	-1E+10	1	-1E+10	1	-1E+10	1	-1E+10	1
4902643	16	C	11/28/2024	09:49	-134.317	43.583	0	1669.70	0	2.2430	0	34.5530	0	27.603	0	1649.762	0	36.2	4	11.0	4	-1E+10	1	-1E+10	1	-1E+10	1	-1E+10	1	-1E+10	1	-1E+10	1
4902643	16	C	11/28/2024	09:49	-134.317	43.583	0	1689.70	0	2.2230	0	34.5550	0	27.606	0	1669.444	0	37.5	4	11.4	4	-1E+10	1	-1E+10	1	-1E+10	1	-1E+10	1	-1E+10	1	-1E+10	1
4902643	16	C	11/28/2024	09:49	-134.317	43.583	0	1709.60	0	2.1980	0	34.5590	0	27.612	0	1689.027	0	39.0	4	11.8	4	-1E+10	1	-1E+10	1	-1E+10	1	-1E+10	1	-1E+10	1	-1E+10	1
4902643	16	C	11/28/2024	09:49	-134.317	43.583	0	1729.70	0	2.1800	0	34.5620	0	27.616	0	1708.804	0	40.5	4	12.3	4	-1E+10	1	-1E+10	1	-1E+10	1	-1E+10	1	-1E+10	1	-1E+10	1
4902643	16	C	11/28/2024	09:49	-134.317	43.583	0	1749.70	0	2.1500	0	34.5660	0	27.621	0	1728.481	0	41.7	4	12.6	4	-1E+10	1	-1E+10	1	-1E+10	1	-1E+10	1	-1E+10	1	-1E+10	1
4902643	16	C	11/28/2024	09:49	-134.317	43.583	0	1769.90	0	2.1300	0	34.5680	0	27.625	0	1748.353	0	42.8	4	12.9	4	-1E+10	1	-1E+10	1	-1E+10	1	-1E+10	1	-1E+10	1	-1E+10	1
4902643	16	C	11/28/2024	09:49	-134.317	43.583	0	1790.00	0	2.1120	0	34.5710	0	27.629	0	1768.124	0	44.1	4	13.3	4	-1E+10	1	-1E+10	1	-1E+10	1	-1E+10	1	-1E+10	1	-1E+10	1
4902643	16	C	11/28/2024	09:49	-134.317	43.583	0	1809.80	0	2.0980	0	34.5730	0	27.631	0	1787.599	0	45.1	4	13.6	4	-1E+10	1	-1E+10	1	-1E+10	1	-1E+10	1	-1E+10	1	-1E+10	1
4902643	16	C	11/28/2024	09:49	-134.317	43.583	0	1829.60	0	2.0840	0	34.5750	0	27.634	0	1807.072	0	45.8	4	13.9	4	-1E+10	1	-1E+10	1	-1E+10	1	-1E+10	1	-1E+10	1	-1E+10	1
4902643	16	C	11/28/2024	09:49	-134.317	43.583	0	1849.80	0	2.0630	0	34.5780	0	27.638	0	1826.937	0	47.0	4	14.2	4	-1E+10	1	-1E+10	1	-1E+10	1	-1E+10	1	-1E+10	1	-1E+10	1
4902643	16	C	11/28/2024	09:49	-134.317	43.583	0	1870.70	0	2.0410	0	34.5810	0	27.643	0	1847.488	0	48.5	4	14.6	4	-1E+10	1	-1E+10	1	-1E+10	1	-1E+10	1	-1E+10	1	-1E+10	1
4902643	16	C	11/28/2024	09:49	-134.317	43.583	0	1889.80	0	2.0200	0	34.5840	0	27.647	0	1866.267	0	50.0	4	15.1	4	-1E+10	1	-1E+10	1	-1E+10	1	-1E+10	1	-1E+10	1	-1E+10	1
4902643	16	C	11/28/2024	09:49	-134.317	43.583	0	1909.60	0	2.0050	0	34.5870	0	27.651	0	1885.733	0	51.2	4	15.5	4	-1E+10	1	-1E+10	1	-1E+10	1	-1E+10	1	-1E+10	1	-1E+10	1
4902643	16	C	11/28/2024	09:49	-134.317	43.583	0	1929.80	0	1.9920	0	34.5890	0	27.653	0	1905.590	0	52.3	4	15.8	4	-1E+10	1	-1E+10	1	-1E+10	1	-1E+10	1	-1E+10	1	-1E+10	1
4902643	16	C	11/28/2024	09:49	-134.317	43.583	0	1950.00	0	1.9800	0	34.5910	0	27.656	0	1925.445	0	53.2	4	16.0	4	-1E+10	1	-1E+10	1	-1E+10	1	-1E+10	1	-1E+10	1	-1E+10	1
4902643	16	C	11/28/2024	09:49	-134.317	43.583	0	1969.80	0	1.9680	0	34.5930	0	27.659	0	1944.905	0	54.1	4	16.3	4	-1E+10	1	-1E+10	1	-1E+10	1	-1E+10	1	-1E+10	1	-1E+10	1
4902643	16	C	11/28/2024	09:49	-134.317	43.583	0	1990.10	0	1.9560	0	34.5950	0	27.661	0	1964.855	0	55.0	4	16.6	4	-1E+10	1	-1E+10	1	-1E+10	1	-1E+10	1	-1E+10	1	-1E+10	1
4902643	16	C	11/28/2024	09:49	-134.317	43.583	0	2009.40	0	1.9440	0	34.5970	4	27.664	0	1983.821	0	55.8	4	16.8	4	-1E+10	1	-1E+10	1	-1E+10	1	-1E+10	1	-1E+10	1	-1E+10	1
4902643	16	C	11/28/2024	09:49	-134.317	43.583	0	2029.50	0	1.9320	0	34.5990	4	27.666	0	2003.570	0	56.8	4	17.1	4	-1E+10	1	-1E+10	1	-1E+10	1	-1E+10	1	-1E+10	1	-1E+10	1
4902643	16	C	11/28/2024	09:49	-134.317	43.583	0	2049.20	0	1.9200	0	34.6000	4	27.668	0	2022.925	0	57.8	4	17.4	4	-1E+10	1	-1E+10	1	-1E+10	1	-1E+10	1	-1E+10	1	-1E+10	1
4902643	16	C	11/28/2024	09:49	-134.317	43.583	0	2069.70	0	1.9080	0	34.6030	4	27.672	0	2043.064	0	58.7	4	17.7	4	-1E+10	1	-1E+10	1	-1E+10	1	-1E+10	1	-1E+10	1	-1E+10	1
4902643	16	C	11/28/2024	09:49	-134.317	43.583	0	2089.70	0	1.8980	0	34.6040	4	27.673	0	2062.710	0	59.6	4	17.9	4	-1E+10	1	-1E+10	1	-1E+10	1	-1E+10	1	-1E+10	1	-1E+10	1
4902643	16	C	11/28/2024	09:49	-134.317	43.583	0	2109.90	0	1.8900	0	34.6060	4	27.676	0	2082.551	0	60.2	4	18.1	4	-1E+10	1	-1E+10	1	-1E+10	1	-1E+10	1	-1E+10	1	-1E+10	1
4902643	16	C	11/28/2024	09:49	-134.317	43.583	0	2129.90	0	1.8830	0	34.6070	4	27.677	0	2102.193	0	61.0	4	18.3	4	-1E+10	1	-1E+10	1	-1E+10	1	-1E+10	1	-1E+10	1	-1E+10	1
4902643	16	C	11/28/2024	09:49	-134.317	43.583	0	2149.60	0	1.8750	0	34.6080	4	27.679	0	2121.540	0	61.7	4	18.5	4	-1E+10	1	-1E+10	1	-1E+10	1	-1E+10	1	-1E+10	1	-1E+10	1
4902643	16	C	11/28/2024	09:49	-134.317	43.583	0	2169.60	0	1.8670	0	34.6100	4	27.681	0	2141.178	0	62.4	4	18.8	4	-1E+10	1	-1E+10	1	-1E+10	1	-1E+10	1	-1E+10	1	-1E+10	1
4902643	16	C	11/28/2024	09:49	-134.317	43.583	0	2189.90	0	1.8600	0	34.6110	4	27.682	0	2161.110	0	63.1	4	18.9	4	-1E+10	1	-1E+10	1	-1E+10	1	-1E+10	1	-1E+10	1	-1E+10	1
4902643	16	C	11/28/2024	09:49	-134.317	43.583	0	2210.10	0	1.8540	0	34.6120	4	27.684	0	2180.941	0	63.7	4	19.1	4	-1E+10	1	-1E+10	1	-1E+10	1	-1E+10	1	-1E+10	1	-1E+10	1
4902643	16	C	11/28/2024	09:49	-134.317	43.583	0	2229.70	0	1.8450	0	34.6130	4	27.685	0	2200.182	0	64.4	4	19.4	4	-1E+10	1	-1E+10	1	-1E+10	1	-1E+10	1	-1E+10	1	-1E+10	1
4902643	16	C	11/28/2024	09:49	-134.317	43.583	0	2248.80	0	1.8370	0	34.6150	4	27.688	0	2218.930	0	65.1	4	19.5	4	-1E+10	1	-1E+10	1	-1E+10	1	-1E+10	1	-1E+10	1	-1E+10	1
4902643	16	C	11/28/2024	09:49	-134.317	43.583	0	2269.80	0	1.8310	0	34.6160	4	27.689	0	2239.541	0	65.8	4	19.8	4	-1E+10	1	-1E+10	1	-1E+10	1	-1E+10	1	-1E+10	1	-1E+10	1
4902643	16	C	11/28/2024	09:49	-134.317	43.583	0	2289.90	0	1.8230	0	34.6170	4	27.691	0	2259.267	0	66.6	4	20.0	4	-1E+10	1	-1E+10	1	-1E+10	1	-1E+10	1	-1E+10	1	-1E+10	1
4902643	16	C	11/28/2024	09:49	-134.317	43.583	0	2309.80	0	1.8170	0	34.6180	4	27.692	0	2278.796	0	67.3	4	20.2	4	-1E+10	1	-1E+10	1	-1E+10	1	-1E+10	1	-1E+10	1	-1E+10	1
4902643	16	C	11/28/2024	09:49	-134.317	43.583	0	2329.90	0	1.8090	0	34.6190	4	27.694	0	2298.518	0	68.1	4	20.4	4	-1E+10	1	-1E+10	1	-1E+10	1	-1E+10	1	-1E+10	1	-1E+10	1
4902643	16	C	11/28/2024	09:49	-134.317	43.583	0	2349.70	0	1.8020	0	34.6200	4	27.695	0	2317.944	0	68.8	4	20.7	4	-1E+10	1	-1E+10	1	-1E+10	1	-1E+10	1	-1E+10	1	-1E+10	1
4902643	16	C	11/28/2024	09:49	-134.317	43.583	0	2369.80	0	1.7950	0	34.6210	4	27.696	0	2337.663	0	69.6	4	20.9	4	-1E+10	1	-1E+10	1	-1E+10	1	-1E+10	1	-1E+10	1	-1E+10	1
4902643	16	C	11/28/2024	09:49	-134.317	43.583	0	2389.70	0	1.7870	0	34.6230	4	27.699	0	2357.184	0	70.3	4	21.1	4	-1E+10	1	-1E+10	1	-1E+10	1	-1E+10	1	-1E+10	1	-1E+10	1
4902643	16	C	11/28/2024	09:49	-134.317	43.583	0	2409.80	0	1.7810	0	34.6230	4	27.699	0	2376.899	0	71.0	4	21.3	4	-1E+10	1	-1E+10	1	-1E+10	1	-1E+10	1	-1E+10	1	-1E+10	1
4902643	16	C	11/28/2024	09:49	-134.317	43.583	0	2429.80	0	1.7750	0	34.6240	4	27.701	0	2396.515	0	71.7	4	21.5	4	-1E+10	1	-1E+10	1	-1E+10	1	-1E+10	1	-1E+10	1	-1E+10	1
4902643	16	C	11/28/2024	09:49	-134.317	43.583	0	2449.80	0	1.7680	0	34.6250	4	27.702	0	2416.128	0	72.6	4	21.8	4	-1E+10	1	-1E+10	1	-1E+10	1	-1E+10	1	-1E+10	1	-1E+10	1
4902643	16	C	11/28/2024	09:49	-134.317	43.583	0	2469.60	0	1.7600	0	34.6270	4	27.704	0	2435.544	0	73.5	4	22.0	4	-1E+10	1	-1E+10	1	-1E+10	1	-1E+10	1	-1E+10	1	-1E+10	1
4902643	16	C	11/28/2024	09:49	-134.317	43.583	0	2489.40	0	1.7540	0	34.6280	4	27.706	0	2454.958	0	74.5	4	22.3	4	-1E+10	1	-1E+10	1	-1E+10	1	-1E+10	1	-1E+10	1	-1E+10	1
4902643	16	C	11/28/2024	09:49	-134.317	43.583	0	2509.80	0	1.7480	0	34.6290	4	27.707	0	2474.958	0	75.5	4	22.6	4	-1E+10	1	-1E+10	1	-1E+10	1	-1E+10	1	-1E+10	1	-1E+10	1
4902643	16	C	11/28/2024	09:49	-134.317	43.583	0	2529.90	0	1.7390	0	34.6310	4	27.710	0	2494.662	0	76.5	4	22.9	4	-1E+10	1	-1E+10	1	-1E+10	1	-1E+10	1	-1E+10	1	-1E+10	1
4902643	16	C	11/28/2024	09:49	-134.317	43.583	0	2549.40	0	1.7280	0	34.6320	4	27.711	0	2513.777	0	77.3	4	23.2	4	-1E+10	1	-1E+10	1	-1E+10	1	-1E+10	1	-1E+10	1	-1E+10	1
4902643	16	C	11/28/2024	09:49	-134.317	43.583	0	2569.70	0	1.7230	0	34.6330	4	27.713	0	2533.674	0	78.2	4	23.4	4	-1E+10	1	-1E+10	1	-1E+10	1	-1E+10	1	-1E+10	1	-1E+10	1
4902643	16	C	11/28/2024	09:49	-134.317	43.583	0	2590.20	0	1.7160	0	34.6340	4	27.714	0	2553.765	0	79.2	4	23.7	4	-1E+10	1	-1E+10	1	-1E+10	1	-1E+10	1	-1E+10	1	-1E+10	1
4902643	16	C	11/28/2024	09:49	-134.317	43.583	0	2610.70	0	1.7060	0	34.6350	4	27.716	0	2573.854	0	80.3	4	24.0	4	-1E+10	1	-1E+10	1	-1E+10	1	-1E+10	1	-1E+10	1	-1E+10	1
4902643	16	C	11/28/2024	09:49	-134.317	43.583	0	2629.90	0	1.7000	0	34.6360	4	27.717	0	2592.668	0	81.2	4	24.3	4	-1E+10	1	-1E+10	1	-1E+10	1	-1E+10	1	-1E+10	1	-1E+10	1
4902643	16	C	11/28/2024	09:49	-134.317	43.583	0	2650.00	0	1.6940	0	34.6370	4	27.718	0	2612.361	0	81.8	4	24.5	4	-1E+10	1	-1E+10	1	-1E+10	1	-1E+10	1	-1E+10	1	-1E+10	1
4902643	16	C	11/28/2024	09:49	-134.317	43.583	0	2669.70	0	1.6860	0	34.6380	4	27.720	0	2631.661	0	82.5	4	24.7	4	-1E+10	1	-1E+10	1	-1E+10	1	-1E+10	1	-1E+10	1	-1E+10	1
4902643	16	C	11/28/2024	09:49	-134.317	43.583	0	2690.20	0	1.6800	0	34.6390	4	27.721	0	2651.743	0	83.5	4	25.0	4	-1E+10	1	-1E+10	1	-1E+10	1	-1E+10	1	-1E+10	1	-1E+10	1
4902643	16	C	11/28/2024	09:49	-134.317	43.583	0	2710.00	0	1.6740	0	34.6400	4	27.723	0	2671.138	0	84.4	4	25.3	4	-1E+10	1	-1E+10	1	-1E+10	1	-1E+10	1	-1E+10	1	-1E+10	1
4902643	16	C	11/28/2024	09:49	-134.317	43.583	0	2729.80	0	1.6680	0	34.6410	4	27.724	0	2690.531	0	85.2	4	25.5	4	-1E+10	1	-1E+10	1	-1E+10	1	-1E+10	1	-1E+10	1	-1E+10	1
4902643	16	C	11/28/2024	09:49	-134.317	43.583	0	2749.50	0	1.6620	0	34.6420	4	27.725	0	2709.823	0	85.8	4	25.7	4	-1E+10	1	-1E+10	1	-1E+10	1	-1E+10	1	-1E+10	1	-1E+10	1
4902643	16	C	11/28/2024	09:49	-134.317	43.583	0	2768.60	0	1.6580	0	34.6420	4	27.726	0	2728.527	0	86.4	4	25.8	4	-1E+10	1	-1E+10	1	-1E+10	1	-1E+10	1	-1E+10	1	-1E+10	1
4902643	16	C	11/28/2024	09:49	-134.317	43.583	0	2789.90	0	1.6550	0	34.6430	4	27.727	0	2749.383	0	87.0	4	26.0	4	-1E+10	1	-1E+10	1	-1E+10	1	-1E+10	1	-1E+10	1	-1E+10	1
4902643	16	C	11/28/2024	09:49	-134.317	43.583	0	2810.00	0	1.6490	0	34.6440	4	27.728	0	2769.063	0	87.8	4	26.2	4	-1E+10	1	-1E+10	1	-1E+10	1	-1E+10	1	-1E+10	1	-1E+10	1
4902643	16	C	11/28/2024	09:49	-134.317	43.583	0	2829.70	0	1.6430	0	34.6450	4	27.730	0	2788.349	0	88.5	4	26.5	4	-1E+10	1	-1E+10	1	-1E+10	1	-1E+10	1	-1E+10	1	-1E+10	1
4902643	16	C	11/28/2024	09:49	-134.317	43.583	0	2849.70	0	1.6370	0	34.6460	4	27.731	0	2807.927	0	89.4	4	26.7	4	-1E+10	1	-1E+10	1	-1E+10	1	-1E+10	1	-1E+10	1	-1E+10	1
4902643	16	C	11/28/2024	09:49	-134.317	43.583	0	2869.70	0	1.6310	0	34.6460	4	27.732	0	2827.503	0	90.1	4	26.9	4	-1E+10	1	-1E+10	1	-1E+10	1	-1E+10	1	-1E+10	1	-1E+10	1
4902643	16	C	11/28/2024	09:49	-134.317	43.583	0	2890.40	0	1.6260	0	34.6470	4	27.733	0	2847.762	0	90.8	4	27.1	4	-1E+10	1	-1E+10	1	-1E+10	1	-1E+10	1	-1E+10	1	-1E+10	1
4902643	16	C	11/28/2024	09:49	-134.317	43.583	0	2910.00	0	1.6220	0	34.6480	4	27.734	0	2866.943	0	91.3	4	27.3	4	-1E+10	1	-1E+10	1	-1E+10	1	-1E+10	1	-1E+10	1	-1E+10	1
4902643	16	C	11/28/2024	09:49	-134.317	43.583	0	2929.80	0	1.6170	0	34.6480	4	27.735	0	2886.319	0	91.9	4	27.5	4	-1E+10	1	-1E+10	1	-1E+10	1	-1E+10	1	-1E+10	1	-1E+10	1
4902643	16	C	11/28/2024	09:49	-134.317	43.583	0	2949.70	0	1.6130	0	34.6490	4	27.736	0	2905.790	0	92.5	4	27.6	4	-1E+10	1	-1E+10	1	-1E+10	1	-1E+10	1	-1E+10	1	-1E+10	1
4902643	16	C	11/28/2024	09:49	-134.317	43.583	0	2969.70	0	1.6080	0	34.6490	4	27.736	0	2925.357	0	93.1	4	27.8	4	-1E+10	1	-1E+10	1	-1E+10	1	-1E+10	1	-1E+10	1	-1E+10	1
4902643	16	C	11/28/2024	09:49	-134.317	43.583	0	2990.20	0	1.6030	0	34.6500	4	27.738	0	2945.412	0	93.9	4	28.0	4	-1E+10	1	-1E+10	1	-1E+10	1	-1E+10	1	-1E+10	1	-1E+10	1
4902643	16	C	11/28/2024	09:49	-134.317	43.583	0	3009.90	0	1.5980	0	34.6510	4	27.739	0	2964.682	0	94.7	4	28.3	4	-1E+10	1	-1E+10	1	-1E+10	1	-1E+10	1	-1E+10	1	-1E+10	1
4902643	16	C	11/28/2024	09:49	-134.317	43.583	0	3029.60	0	1.5940	0	34.6520	4	27.740	0	2983.951	0	95.3	4	28.5	4	-1E+10	1	-1E+10	1	-1E+10	1	-1E+10	1	-1E+10	1	-1E+10	1
4902643	16	C	11/28/2024	09:49	-134.317	43.583	0	3049.60	0	1.5920	0	34.6530	4	27.741	0	3003.511	0	95.9	4	28.6	4	-1E+10	1	-1E+10	1	-1E+10	1	-1E+10	1	-1E+10	1	-1E+10	1
4902643	16	C	11/28/2024	09:49	-134.317	43.583	0	3069.90	0	1.5890	0	34.6530	4	27.742	0	3023.363	0	96.5	4	28.8	4	-1E+10	1	-1E+10	1	-1E+10	1	-1E+10	1	-1E+10	1	-1E+10	1
4902643	16	C	11/28/2024	09:49	-134.317	43.583	0	3089.10	0	1.5860	0	34.6540	4	27.743	0	3042.137	0	96.9	4	28.9	4	-1E+10	1	-1E+10	1	-1E+10	1	-1E+10	1	-1E+10	1	-1E+10	1
4902643	16	C	11/28/2024	09:49	-134.317	43.583	0	3109.80	0	1.5840	0	34.6540	4	27.743	0	3062.377	0	97.4	4	29.1	4	-1E+10	1	-1E+10	1	-1E+10	1	-1E+10	1	-1E+10	1	-1E+10	1
4902643	16	C	11/28/2024	09:49	-134.317	43.583	0	3129.80	0	1.5820	0	34.6550	4	27.744	0	3081.930	0	97.8	4	29.2	4	-1E+10	1	-1E+10	1	-1E+10	1	-1E+10	1	-1E+10	1	-1E+10	1
4902643	16	C	11/28/2024	09:49	-134.317	43.583	0	3149.60	0	1.5810	0	34.6550	4	27.744	0	3101.286	0	98.2	4	29.3	4	-1E+10	1	-1E+10	1	-1E+10	1	-1E+10	1	-1E+10	1	-1E+10	1
4902643	16	C	11/28/2024	09:49	-134.317	43.583	0	3170.00	0	1.5790	0	34.6550	4	27.745	0	3121.227	0	98.6	4	29.4	4	-1E+10	1	-1E+10	1	-1E+10	1	-1E+10	1	-1E+10	1	-1E+10	1
4902643	16	C	11/28/2024	09:49	-134.317	43.583	0	3189.70	0	1.5780	0	34.6560	4	27.746	0	3140.481	0	98.9	4	29.5	4	-1E+10	1	-1E+10	1	-1E+10	1	-1E+10	1	-1E+10	1	-1E+10	1
4902643	16	C	11/28/2024	09:49	-134.317	43.583	0	3210.40	0	1.5760	0	34.6560	4	27.746	0	3160.711	0	99.4	4	29.7	4	-1E+10	1	-1E+10	1	-1E+10	1	-1E+10	1	-1E+10	1	-1E+10	1
4902643	16	C	11/28/2024	09:49	-134.317	43.583	0	3231.10	0	1.5740	0	34.6570	4	27.747	0	3180.940	0	99.8	4	29.8	4	-1E+10	1	-1E+10	1	-1E+10	1	-1E+10	1	-1E+10	1	-1E+10	1
4902643	16	C	11/28/2024	09:49	-134.317	43.583	0	3250.10	0	1.5730	0	34.6570	4	27.747	0	3199.506	0	100.1	4	29.9	4	-1E+10	1	-1E+10	1	-1E+10	1	-1E+10	1	-1E+10	1	-1E+10	1
4902643	16	C	11/28/2024	09:49	-134.317	43.583	0	3269.90	0	1.5720	0	34.6570	4	27.747	0	3218.851	0	100.4	4	30.0	4	-1E+10	1	-1E+10	1	-1E+10	1	-1E+10	1	-1E+10	1	-1E+10	1
4902643	16	C	11/28/2024	09:49	-134.317	43.583	0	3289.90	0	1.5710	0	34.6580	4	27.748	0	3238.390	0	100.9	4	30.1	4	-1E+10	1	-1E+10	1	-1E+10	1	-1E+10	1	-1E+10	1	-1E+10	1
4902643	16	C	11/28/2024	09:49	-134.317	43.583	0	3310.20	0	1.5690	0	34.6580	4	27.749	0	3258.221	0	101.3	4	30.2	4	-1E+10	1	-1E+10	1	-1E+10	1	-1E+10	1	-1E+10	1	-1E+10	1
4902643	16	C	11/28/2024	09:49	-134.317	43.583	0	3329.90	0	1.5680	0	34.6590	4	27.750	0	3277.463	0	101.6	4	30.3	4	-1E+10	1	-1E+10	1	-1E+10	1	-1E+10	1	-1E+10	1	-1E+10	1
4902643	16	C	11/28/2024	09:49	-134.317	43.583	0	3349.90	0	1.5670	0	34.6590	4	27.750	0	3296.997	0	101.9	4	30.4	4	-1E+10	1	-1E+10	1	-1E+10	1	-1E+10	1	-1E+10	1	-1E+10	1
4902643	16	C	11/28/2024	09:49	-134.317	43.583	0	3369.90	0	1.5660	0	34.6590	4	27.750	0	3316.529	0	102.4	4	30.6	4	-1E+10	1	-1E+10	1	-1E+10	1	-1E+10	1	-1E+10	1	-1E+10	1
4902643	16	C	11/28/2024	09:49	-134.317	43.583	0	3390.00	0	1.5640	0	34.6600	4	27.751	0	3336.157	0	102.8	4	30.7	4	-1E+10	1	-1E+10	1	-1E+10	1	-1E+10	1	-1E+10	1	-1E+10	1
4902643	16	C	11/28/2024	09:49	-134.317	43.583	0	3410.20	0	1.5630	0	34.6600	4	27.751	0	3355.881	0	103.2	4	30.8	4	-1E+10	1	-1E+10	1	-1E+10	1	-1E+10	1	-1E+10	1	-1E+10	1
4902643	16	C	11/28/2024	09:49	-134.317	43.583	0	3429.90	0	1.5610	0	34.6610	4	27.752	0	3375.115	0	103.6	4	30.9	4	-1E+10	1	-1E+10	1	-1E+10	1	-1E+10	1	-1E+10	1	-1E+10	1
4902643	16	C	11/28/2024	09:49	-134.317	43.583	0	3449.70	0	1.5600	0	34.6610	4	27.753	0	3394.445	0	103.9	4	31.0	4	-1E+10	1	-1E+10	1	-1E+10	1	-1E+10	1	-1E+10	1	-1E+10	1
4902643	16	C	11/28/2024	09:49	-134.317	43.583	0	3469.80	0	1.5590	0	34.6620	4	27.754	0	3414.067	0	104.3	4	31.1	4	-1E+10	1	-1E+10	1	-1E+10	1	-1E+10	1	-1E+10	1	-1E+10	1
4902643	16	C	11/28/2024	09:49	-134.317	43.583	0	3489.80	0	1.5580	0	34.6620	4	27.754	0	3433.588	0	104.7	4	31.2	4	-1E+10	1	-1E+10	1	-1E+10	1	-1E+10	1	-1E+10	1	-1E+10	1
4902643	16	C	11/28/2024	09:49	-134.317	43.583	0	3510.20	0	1.5570	0	34.6620	4	27.754	0	3453.499	0	105.1	4	31.3	4	-1E+10	1	-1E+10	1	-1E+10	1	-1E+10	1	-1E+10	1	-1E+10	1
4902643	16	C	11/28/2024	09:49	-134.317	43.583	0	3529.90	0	1.5560	0	34.6630	4	27.755	0	3472.724	0	105.4	4	31.4	4	-1E+10	1	-1E+10	1	-1E+10	1	-1E+10	1	-1E+10	1	-1E+10	1
4902643	16	C	11/28/2024	09:49	-134.317	43.583	0	3549.90	0	1.5550	0	34.6630	4	27.755	0	3492.240	0	105.8	4	31.6	4	-1E+10	1	-1E+10	1	-1E+10	1	-1E+10	1	-1E+10	1	-1E+10	1
4902643	16	C	11/28/2024	09:49	-134.317	43.583	0	3569.70	0	1.5540	0	34.6640	4	27.756	0	3511.560	0	106.0	4	31.6	4	-1E+10	1	-1E+10	1	-1E+10	1	-1E+10	1	-1E+10	1	-1E+10	1
4902643	16	C	11/28/2024	09:49	-134.317	43.583	0	3589.90	0	1.5550	0	34.6640	4	27.756	0	3531.268	0	106.3	4	31.7	4	-1E+10	1	-1E+10	1	-1E+10	1	-1E+10	1	-1E+10	1	-1E+10	1
4902643	16	C	11/28/2024	09:49	-134.317	43.583	0	3610.10	0	1.5540	0	34.6650	4	27.757	0	3550.975	0	106.6	4	31.8	4	-1E+10	1	-1E+10	1	-1E+10	1	-1E+10	1	-1E+10	1	-1E+10	1
4902643	16	C	11/28/2024	09:49	-134.317	43.583	0	3629.80	0	1.5540	0	34.6650	4	27.758	0	3570.192	0	107.0	4	31.9	4	-1E+10	1	-1E+10	1	-1E+10	1	-1E+10	1	-1E+10	1	-1E+10	1
4902643	16	C	11/28/2024	09:49	-134.317	43.583	0	3649.60	0	1.5530	0	34.6650	4	27.758	0	3589.505	0	107.2	4	32.0	4	-1E+10	1	-1E+10	1	-1E+10	1	-1E+10	1	-1E+10	1	-1E+10	1
4902643	16	C	11/28/2024	09:49	-134.317	43.583	0	3669.50	0	1.5530	0	34.6660	4	27.759	0	3608.913	0	107.5	4	32.1	4	-1E+10	1	-1E+10	1	-1E+10	1	-1E+10	1	-1E+10	1	-1E+10	1
4902643	16	C	11/28/2024	09:49	-134.317	43.583	0	3690.20	0	1.5540	0	34.6660	4	27.759	0	3629.100	0	107.7	4	32.1	4	-1E+10	1	-1E+10	1	-1E+10	1	-1E+10	1	-1E+10	1	-1E+10	1
4902643	16	C	11/28/2024	09:49	-134.317	43.583	0	3710.20	0	1.5540	0	34.6670	4	27.760	0	3648.603	0	107.8	4	32.2	4	-1E+10	1	-1E+10	1	-1E+10	1	-1E+10	1	-1E+10	1	-1E+10	1
4902643	16	C	11/28/2024	09:49	-134.317	43.583	0	3730.30	0	1.5550	0	34.6670	4	27.760	0	3668.201	0	107.9	4	32.2	4	-1E+10	1	-1E+10	1	-1E+10	1	-1E+10	1	-1E+10	1	-1E+10	1
4902643	16	C	11/28/2024	09:49	-134.317	43.583	0	3750.10	0	1.5560	0	34.6670	4	27.760	0	3687.505	0	108.1	4	32.2	4	-1E+10	1	-1E+10	1	-1E+10	1	-1E+10	1	-1E+10	1	-1E+10	1
4902643	16	C	11/28/2024	09:49	-134.317	43.583	0	3770.10	0	1.5570	0	34.6680	4	27.761	0	3707.003	0	108.1	4	32.2	4	-1E+10	1	-1E+10	1	-1E+10	1	-1E+10	1	-1E+10	1	-1E+10	1
4902643	16	C	11/28/2024	09:49	-134.317	43.583	0	3787.10	0	1.5580	0	34.6680	4	27.761	0	3723.574	0	107.8	4	32.1	4	-1E+10	1	-1E+10	1	-1E+10	1	-1E+10	1	-1E+10	1	-1E+10	1
4902643	16	C	11/28/2024	09:49	-134.317	43.583	0																										
4902643	17	C	12/08/2024	09:33	-134.307	43.522	0	0.90	0	12.9900	0	32.7380	0	24.644	0	0.893	0	241.2	4	92.0	4	-1E+10	1	-1E+10	1	-1E+10	1	-1E+10	1	-1E+10	1	-1E+10	1
4902643	17	C	12/08/2024	09:33	-134.307	43.522	0	1.00	0	13.0040	0	32.7300	0	24.635	0	0.992	0	241.2	4	92.0	4	-1E+10	1	-1E+10	1	-1E+10	1	-1E+10	1	-1E+10	1	-1E+10	1
4902643	17	C	12/08/2024	09:33	-134.307	43.522	0	1.10	0	12.9983	0	32.7350	0	24.640	0	1.091	0	241.2	4	92.0	4	-1E+10	1	-1E+10	1	-1E+10	1	-1E+10	1	-1E+10	1	-1E+10	1
4902643	17	C	12/08/2024	09:33	-134.307	43.522	0	1.20	0	13.0000	0	32.7290	0	24.635	0	1.190	0	241.2	4	92.0	4	-1E+10	1	-1E+10	1	-1E+10	1	-1E+10	1	-1E+10	1	-1E+10	1
4902643	17	C	12/08/2024	09:33	-134.307	43.522	0	1.30	0	12.9960	0	32.7340	0	24.639	0	1.290	0	241.2	4	92.0	4	-1E+10	1	-1E+10	1	-1E+10	1	-1E+10	1	-1E+10	1	-1E+10	1
4902643	17	C	12/08/2024	09:33	-134.307	43.522	0	1.40	0	13.0020	0	32.7270	0	24.633	0	1.389	0	-1e10	1	-1e10	1	-1E+10	1	-1E+10	1	-1E+10	1	-1E+10	1	-1E+10	1	-1E+10	1
4902643	17	C	12/08/2024	09:33	-134.307	43.522	0	1.60	0	13.0050	0	32.7460	0	24.647	0	1.587	0	240.8	4	91.9	4	-1E+10	1	-1E+10	1	-1E+10	1	-1E+10	1	-1E+10	1	-1E+10	1
4902643	17	C	12/08/2024	09:33	-134.307	43.522	0	2.60	0	13.0230	0	32.7330	0	24.633	0	2.579	0	240.6	4	91.9	4	-1E+10	1	-1E+10	1	-1E+10	1	-1E+10	1	-1E+10	1	-1E+10	1
4902643	17	C	12/08/2024	09:33	-134.307	43.522	0	3.60	0	13.0230	0	32.7350	0	24.635	0	3.571	0	240.6	4	91.9	4	-1E+10	1	-1E+10	1	-1E+10	1	-1E+10	1	-1E+10	1	-1E+10	1
4902643	17	C	12/08/2024	09:33	-134.307	43.522	0	4.70	0	13.0220	0	32.7360	0	24.636	0	4.662	0	240.7	4	91.9	4	-1E+10	1	-1E+10	1	-1E+10	1	-1E+10	1	-1E+10	1	-1E+10	1
4902643	17	C	12/08/2024	09:33	-134.307	43.522	0	5.60	0	13.0230	0	32.7340	0	24.634	0	5.555	0	240.6	4	91.9	4	-1E+10	1	-1E+10	1	-1E+10	1	-1E+10	1	-1E+10	1	-1E+10	1
4902643	17	C	12/08/2024	09:33	-134.307	43.522	0	6.40	0	13.0230	0	32.7350	0	24.635	0	6.349	0	240.5	4	91.8	4	-1E+10	1	-1E+10	1	-1E+10	1	-1E+10	1	-1E+10	1	-1E+10	1
4902643	17	C	12/08/2024	09:33	-134.307	43.522	0	7.40	0	13.0240	0	32.7340	0	24.634	0	7.341	0	240.6	4	91.9	4	-1E+10	1	-1E+10	1	-1E+10	1	-1E+10	1	-1E+10	1	-1E+10	1
4902643	17	C	12/08/2024	09:33	-134.307	43.522	0	8.40	0	13.0230	0	32.7350	0	24.635	0	8.333	0	240.5	4	91.8	4	-1E+10	1	-1E+10	1	-1E+10	1	-1E+10	1	-1E+10	1	-1E+10	1
4902643	17	C	12/08/2024	09:33	-134.307	43.522	0	9.40	0	13.0250	0	32.7350	0	24.635	0	9.325	0	240.6	4	91.9	4	-1E+10	1	-1E+10	1	-1E+10	1	-1E+10	1	-1E+10	1	-1E+10	1
4902643	17	C	12/08/2024	09:33	-134.307	43.522	0	14.80	0	13.0260	0	32.7350	0	24.635	0	14.681	0	240.5	4	91.8	4	-1E+10	1	-1E+10	1	-1E+10	1	-1E+10	1	-1E+10	1	-1E+10	1
4902643	17	C	12/08/2024	09:33	-134.307	43.522	0	24.60	0	13.0270	0	32.7350	0	24.635	0	24.402	0	240.3	4	91.8	4	-1E+10	1	-1E+10	1	-1E+10	1	-1E+10	1	-1E+10	1	-1E+10	1
4902643	17	C	12/08/2024	09:33	-134.307	43.522	0	34.80	0	13.0300	0	32.7350	0	24.634	0	34.519	0	240.1	4	91.7	4	-1E+10	1	-1E+10	1	-1E+10	1	-1E+10	1	-1E+10	1	-1E+10	1
4902643	17	C	12/08/2024	09:33	-134.307	43.522	0	44.70	0	13.0290	0	32.7350	0	24.635	0	44.338	0	239.9	4	91.6	4	-1E+10	1	-1E+10	1	-1E+10	1	-1E+10	1	-1E+10	1	-1E+10	1
4902643	17	C	12/08/2024	09:33	-134.307	43.522	0	54.70	0	13.0180	0	32.7300	0	24.633	0	54.256	0	239.5	4	91.4	4	-1E+10	1	-1E+10	1	-1E+10	1	-1E+10	1	-1E+10	1	-1E+10	1
4902643	17	C	12/08/2024	09:33	-134.307	43.522	0	64.90	0	12.8010	0	32.6990	0	24.652	0	64.372	0	238.9	4	90.8	4	-1E+10	1	-1E+10	1	-1E+10	1	-1E+10	1	-1E+10	1	-1E+10	1
4902643	17	C	12/08/2024	09:33	-134.307	43.522	0	75.00	0	12.4790	0	32.6590	0	24.683	0	74.388	0	238.3	4	89.9	4	-1E+10	1	-1E+10	1	-1E+10	1	-1E+10	1	-1E+10	1	-1E+10	1
4902643	17	C	12/08/2024	09:33	-134.307	43.522	0	85.10	0	11.4830	0	32.7270	0	24.922	0	84.403	0	238.0	4	88.0	4	-1E+10	1	-1E+10	1	-1E+10	1	-1E+10	1	-1E+10	1	-1E+10	1
4902643	17	C	12/08/2024	09:33	-134.307	43.522	0	94.90	0	10.3830	0	32.8080	0	25.178	0	94.121	0	238.5	4	86.2	4	-1E+10	1	-1E+10	1	-1E+10	1	-1E+10	1	-1E+10	1	-1E+10	1
4902643	17	C	12/08/2024	09:33	-134.307	43.522	0	104.80	0	10.1230	0	32.8370	0	25.245	0	103.937	0	237.3	4	85.3	4	-1E+10	1	-1E+10	1	-1E+10	1	-1E+10	1	-1E+10	1	-1E+10	1
4902643	17	C	12/08/2024	09:33	-134.307	43.522	0	114.80	0	9.9550	0	32.8690	0	25.298	0	113.852	0	234.4	4	84.0	4	-1E+10	1	-1E+10	1	-1E+10	1	-1E+10	1	-1E+10	1	-1E+10	1
4902643	17	C	12/08/2024	09:33	-134.307	43.522	0	125.00	0	9.8450	0	32.9240	0	25.360	0	123.965	0	230.6	4	82.5	4	-1E+10	1	-1E+10	1	-1E+10	1	-1E+10	1	-1E+10	1	-1E+10	1
4902643	17	C	12/08/2024	09:33	-134.307	43.522	0	134.60	0	9.5640	0	32.9770	0	25.447	0	133.482	0	223.7	4	79.5	4	-1E+10	1	-1E+10	1	-1E+10	1	-1E+10	1	-1E+10	1	-1E+10	1
4902643	17	C	12/08/2024	09:33	-134.307	43.522	0	144.70	0	9.3950	0	33.1080	0	25.577	0	143.495	0	210.5	4	74.6	4	-1E+10	1	-1E+10	1	-1E+10	1	-1E+10	1	-1E+10	1	-1E+10	1
4902643	17	C	12/08/2024	09:33	-134.307	43.522	0	154.10	0	9.0230	0	33.2700	0	25.763	0	152.813	0	204.4	4	72.0	4	-1E+10	1	-1E+10	1	-1E+10	1	-1E+10	1	-1E+10	1	-1E+10	1
4902643	17	C	12/08/2024	09:33	-134.307	43.522	0	165.00	0	8.6940	0	33.4520	0	25.957	0	163.618	0	200.3	4	70.1	4	-1E+10	1	-1E+10	1	-1E+10	1	-1E+10	1	-1E+10	1	-1E+10	1
4902643	17	C	12/08/2024	09:33	-134.307	43.522	0	175.10	0	8.3870	0	33.5950	0	26.116	0	173.629	0	198.4	4	69.1	4	-1E+10	1	-1E+10	1	-1E+10	1	-1E+10	1	-1E+10	1	-1E+10	1
4902643	17	C	12/08/2024	09:33	-134.307	43.522	0	184.80	0	8.1770	0	33.6750	0	26.210	0	183.243	0	195.4	4	67.7	4	-1E+10	1	-1E+10	1	-1E+10	1	-1E+10	1	-1E+10	1	-1E+10	1
4902643	17	C	12/08/2024	09:33	-134.307	43.522	0	194.50	0	7.9830	0	33.7580	0	26.304	0	192.857	0	191.9	4	66.3	4	-1E+10	1	-1E+10	1	-1E+10	1	-1E+10	1	-1E+10	1	-1E+10	1
4902643	17	C	12/08/2024	09:33	-134.307	43.522	0	209.70	0	7.6750	0	33.7890	0	26.373	0	207.921	0	187.7	4	64.4	4	-1E+10	1	-1E+10	1	-1E+10	1	-1E+10	1	-1E+10	1	-1E+10	1
4902643	17	C	12/08/2024	09:33	-134.307	43.522	0	230.00	0	7.2260	0	33.8090	0	26.453	0	228.037	0	179.2	4	60.8	4	-1E+10	1	-1E+10	1	-1E+10	1	-1E+10	1	-1E+10	1	-1E+10	1
4902643	17	C	12/08/2024	09:33	-134.307	43.522	0	250.30	0	6.9310	0	33.8130	0	26.496	0	248.152	0	171.3	4	57.8	4	-1E+10	1	-1E+10	1	-1E+10	1	-1E+10	1	-1E+10	1	-1E+10	1
4902643	17	C	12/08/2024	09:33	-134.307	43.522	0	269.40	0	6.7400	0	33.8220	0	26.529	0	267.075	0	161.1	4	54.1	4	-1E+10	1	-1E+10	1	-1E+10	1	-1E+10	1	-1E+10	1	-1E+10	1
4902643	17	C	12/08/2024	09:33	-134.307	43.522	0	289.60	0	6.4300	0	33.8240	0	26.572	0	287.087	0	148.0	4	49.3	4	-1E+10	1	-1E+10	1	-1E+10	1	-1E+10	1	-1E+10	1	-1E+10	1
4902643	17	C	12/08/2024	09:33	-134.307	43.522	0	309.90	0	6.1180	0	33.8280	0	26.615	0	307.196	0	133.4	4	44.2	4	-1E+10	1	-1E+10	1	-1E+10	1	-1E+10	1	-1E+10	1	-1E+10	1
4902643	17	C	12/08/2024	09:33	-134.307	43.522	0	329.60	0	5.8360	0	33.8320	0	26.654	0	326.709	0	120.2	4	39.5	4	-1E+10	1	-1E+10	1	-1E+10	1	-1E+10	1	-1E+10	1	-1E+10	1
4902643	17	C	12/08/2024	09:33	-134.307	43.522	0	350.00	0	5.5210	0	33.8350	0	26.694	0	346.912	0	105.6	4	34.5	4	-1E+10	1	-1E+10	1	-1E+10	1	-1E+10	1	-1E+10	1	-1E+10	1
4902643	17	C	12/08/2024	09:33	-134.307	43.522	0	369.50	0	5.2370	0	33.8400	0	26.732	0	366.223	0	93.9	4	30.5	4	-1E+10	1	-1E+10	1	-1E+10	1	-1E+10	1	-1E+10	1	-1E+10	1
4902643	17	C	12/08/2024	09:33	-134.307	43.522	0	389.80	0	5.0310	0	33.8560	0	26.768	0	386.324	0	83.2	4	26.9	4	-1E+10	1	-1E+10	1	-1E+10	1	-1E+10	1	-1E+10	1	-1E+10	1
4902643	17	C	12/08/2024	09:33	-134.307	43.522	0	409.70	0	4.8940	0	33.8800	0	26.803	0	406.027	0	77.1	4	24.8	4	-1E+10	1	-1E+10	1	-1E+10	1	-1E+10	1	-1E+10	1	-1E+10	1
4902643	17	C	12/08/2024	09:33	-134.307	43.522	0	429.40	0	4.8330	0	33.9040	0	26.829	0	425.531	0	72.4	4	23.3	4	-1E+10	1	-1E+10	1	-1E+10	1	-1E+10	1	-1E+10	1	-1E+10	1
4902643	17	C	12/08/2024	09:33	-134.307	43.522	0	449.70	0	4.7460	0	33.9250	0	26.855	0	445.626	0	67.3	4	21.6	4	-1E+10	1	-1E+10	1	-1E+10	1	-1E+10	1	-1E+10	1	-1E+10	1
4902643	17	C	12/08/2024	09:33	-134.307	43.522	0	469.60	0	4.6510	0	33.9460	0	26.883	0	465.323	0	60.9	4	19.5	4	-1E+10	1	-1E+10	1	-1E+10	1	-1E+10	1	-1E+10	1	-1E+10	1
4902643	17	C	12/08/2024	09:33	-134.307	43.522	0	489.40	0	4.5510	0	33.9710	0	26.914	0	484.920	0	54.4	4	17.4	4	-1E+10	1	-1E+10	1	-1E+10	1	-1E+10	1	-1E+10	1	-1E+10	1
4902643	17	C	12/08/2024	09:33	-134.307	43.522	0	509.60	0	4.4600	0	33.9990	0	26.946	0	504.910	0	47.7	4	15.2	4	-1E+10	1	-1E+10	1	-1E+10	1	-1E+10	1	-1E+10	1	-1E+10	1
4902643	17	C	12/08/2024	09:33	-134.307	43.522	0	530.70	0	4.3810	0	34.0250	0	26.975	0	525.790	0	41.2	4	13.1	4	-1E+10	1	-1E+10	1	-1E+10	1	-1E+10	1	-1E+10	1	-1E+10	1
4902643	17	C	12/08/2024	09:33	-134.307	43.522	0	550.00	0	4.3380	0	34.0420	0	26.993	0	544.886	0	37.1	4	11.8	4	-1E+10	1	-1E+10	1	-1E+10	1	-1E+10	1	-1E+10	1	-1E+10	1
4902643	17	C	12/08/2024	09:33	-134.307	43.522	0	569.90	0	4.2970	0	34.0560	0	27.009	0	564.574	0	33.5	4	10.6	4	-1E+10	1	-1E+10	1	-1E+10	1	-1E+10	1	-1E+10	1	-1E+10	1
4902643	17	C	12/08/2024	09:33	-134.307	43.522	0	589.70	0	4.2370	0	34.0760	0	27.031	0	584.161	0	29.6	4	9.4	4	-1E+10	1	-1E+10	1	-1E+10	1	-1E+10	1	-1E+10	1	-1E+10	1
4902643	17	C	12/08/2024	09:33	-134.307	43.522	0	609.60	0	4.1770	0	34.0960	0	27.053	0	603.845	0	26.2	4	8.3	4	-1E+10	1	-1E+10	1	-1E+10	1	-1E+10	1	-1E+10	1	-1E+10	1
4902643	17	C	12/08/2024	09:33	-134.307	43.522	0	629.50	0	4.1310	0	34.1110	0	27.070	0	623.527	0	23.5	4	7.4	4	-1E+10	1	-1E+10	1	-1E+10	1	-1E+10	1	-1E+10	1	-1E+10	1
4902643	17	C	12/08/2024	09:33	-134.307	43.522	0	649.80	0	4.0710	0	34.1290	0	27.091	0	643.604	0	20.8	4	6.6	4	-1E+10	1	-1E+10	1	-1E+10	1	-1E+10	1	-1E+10	1	-1E+10	1
4902643	17	C	12/08/2024	09:33	-134.307	43.522	0	669.80	0	4.0080	0	34.1470	0	27.112	0	663.381	0	18.9	4	6.0	4	-1E+10	1	-1E+10	1	-1E+10	1	-1E+10	1	-1E+10	1	-1E+10	1
4902643	17	C	12/08/2024	09:33	-134.307	43.522	0	689.60	0	3.9500	0	34.1620	0	27.130	0	682.959	0	17.1	4	5.4	4	-1E+10	1	-1E+10	1	-1E+10	1	-1E+10	1	-1E+10	1	-1E+10	1
4902643	17	C	12/08/2024	09:33	-134.307	43.522	0	709.80	0	3.8870	0	34.1800	0	27.151	0	702.930	0	15.3	4	4.8	4	-1E+10	1	-1E+10	1	-1E+10	1	-1E+10	1	-1E+10	1	-1E+10	1
4902643	17	C	12/08/2024	09:33	-134.307	43.522	0	730.00	0	3.8250	0	34.1970	0	27.171	0	722.900	0	13.6	4	4.3	4	-1E+10	1	-1E+10	1	-1E+10	1	-1E+10	1	-1E+10	1	-1E+10	1
4902643	17	C	12/08/2024	09:33	-134.307	43.522	0	749.90	0	3.7730	0	34.2120	0	27.188	0	742.571	0	12.3	4	3.8	4	-1E+10	1	-1E+10	1	-1E+10	1	-1E+10	1	-1E+10	1	-1E+10	1
4902643	17	C	12/08/2024	09:33	-134.307	43.522	0	770.00	0	3.7390	0	34.2280	0	27.204	0	762.438	0	11.1	4	3.5	4	-1E+10	1	-1E+10	1	-1E+10	1	-1E+10	1	-1E+10	1	-1E+10	1
4902643	17	C	12/08/2024	09:33	-134.307	43.522	0	790.00	0	3.6910	0	34.2390	0	27.218	0	782.204	0	10.4	4	3.3	4	-1E+10	1	-1E+10	1	-1E+10	1	-1E+10	1	-1E+10	1	-1E+10	1
4902643	17	C	12/08/2024	09:33	-134.307	43.522	0	809.70	0	3.6500	0	34.2500	0	27.231	0	801.672	0	9.4	4	3.0	4	-1E+10	1	-1E+10	1	-1E+10	1	-1E+10	1	-1E+10	1	-1E+10	1
4902643	17	C	12/08/2024	09:33	-134.307	43.522	0	830.30	0	3.6150	0	34.2700	0	27.250	0	822.027	0	8.4	4	2.6	4	-1E+10	1	-1E+10	1	-1E+10	1	-1E+10	1	-1E+10	1	-1E+10	1
4902643	17	C	12/08/2024	09:33	-134.307	43.522	0	849.70	0	3.6090	0	34.2830	0	27.261	0	841.195	0	7.9	4	2.5	4	-1E+10	1	-1E+10	1	-1E+10	1	-1E+10	1	-1E+10	1	-1E+10	1
4902643	17	C	12/08/2024	09:33	-134.307	43.522	0	869.80	0	3.5970	0	34.2960	0	27.273	0	861.052	0	7.4	4	2.3	4	-1E+10	1	-1E+10	1	-1E+10	1	-1E+10	1	-1E+10	1	-1E+10	1
4902643	17	C	12/08/2024	09:33	-134.307	43.522	0	889.80	0	3.5900	0	34.3090	0	27.284	0	880.809	0	7.0	4	2.2	4	-1E+10	1	-1E+10	1	-1E+10	1	-1E+10	1	-1E+10	1	-1E+10	1
4902643	17	C	12/08/2024	09:33	-134.307	43.522	0	909.60	0	3.5690	0	34.3230	0	27.297	0	900.366	0	6.8	4	2.1	4	-1E+10	1	-1E+10	1	-1E+10	1	-1E+10	1	-1E+10	1	-1E+10	1
4902643	17	C	12/08/2024	09:33	-134.307	43.522	0	929.80	0	3.5420	0	34.3330	0	27.308	0	920.317	0	6.7	4	2.1	4	-1E+10	1	-1E+10	1	-1E+10	1	-1E+10	1	-1E+10	1	-1E+10	1
4902643	17	C	12/08/2024	09:33	-134.307	43.522	0	950.60	0	3.5110	0	34.3450	0	27.321	0	940.858	0	6.7	4	2.1	4	-1E+10	1	-1E+10	1	-1E+10	1	-1E+10	1	-1E+10	1	-1E+10	1
4902643	17	C	12/08/2024	09:33	-134.307	43.522	0	970.00	0	3.4690	0	34.3550	0	27.333	0	960.014	0	6.8	4	2.1	4	-1E+10	1	-1E+10	1	-1E+10	1	-1E+10	1	-1E+10	1	-1E+10	1
4902643	17	C	12/08/2024	09:33	-134.307	43.522	0	989.90	0	3.4290	0	34.3670	0	27.346	0	979.663	0	6.9	4	2.2	4	-1E+10	1	-1E+10	1	-1E+10	1	-1E+10	1	-1E+10	1	-1E+10	1
4902643	17	C	12/08/2024	09:33	-134.307	43.522	0	1009.60	0	3.3930	0	34.3770	0	27.358	0	999.112	0	7.2	4	2.2	4	-1E+10	1	-1E+10	1	-1E+10	1	-1E+10	1	-1E+10	1	-1E+10	1
4902643	17	C	12/08/2024	09:33	-134.307	43.522	0	1029.50	0	3.3600	0	34.3860	0	27.368	0	1018.757	0	7.5	4	2.3	4	-1E+10	1	-1E+10	1	-1E+10	1	-1E+10	1	-1E+10	1	-1E+10	1
4902643	17	C	12/08/2024	09:33	-134.307	43.522	0	1049.40	0	3.3290	0	34.3970	0	27.380	0	1038.400	0	8.0	4	2.5	4	-1E+10	1	-1E+10	1	-1E+10	1	-1E+10	1	-1E+10	1	-1E+10	1
4902643	17	C	12/08/2024	09:33	-134.307	43.522	0	1070.30	0	3.3150	0	34.4090	0	27.391	0	1059.029	0	8.5	4	2.7	4	-1E+10	1	-1E+10	1	-1E+10	1	-1E+10	1	-1E+10	1	-1E+10	1
4902643	17	C	12/08/2024	09:33	-134.307	43.522	0	1089.80	0	3.2790	0	34.4150	0	27.399	0	1078.273	0	8.8	4	2.7	4	-1E+10	1	-1E+10	1	-1E+10	1	-1E+10	1	-1E+10	1	-1E+10	1
4902643	17	C	12/08/2024	09:33	-134.307	43.522	0	1109.90	0	3.2420	0	34.4200	0	27.407	0	1098.108	0	9.1	4	2.8	4	-1E+10	1	-1E+10	1	-1E+10	1	-1E+10	1	-1E+10	1	-1E+10	1
4902643	17	C	12/08/2024	09:33	-134.307	43.522	0	1129.60	0	3.2030	0	34.4260	0	27.416	0	1117.546	0	9.6	4	3.0	4	-1E+10	1	-1E+10	1	-1E+10	1	-1E+10	1	-1E+10	1	-1E+10	1
4902643	17	C	12/08/2024	09:33	-134.307	43.522	0	1149.80	0	3.1550	0	34.4330	0	27.426	0	1137.476	0	10.0	4	3.1	4	-1E+10	1	-1E+10	1	-1E+10	1	-1E+10	1	-1E+10	1	-1E+10	1
4902643	17	C	12/08/2024	09:33	-134.307	43.522	0	1170.50	0	3.1100	0	34.4400	0	27.436	0	1157.897	0	10.4	4	3.2	4	-1E+10	1	-1E+10	1	-1E+10	1	-1E+10	1	-1E+10	1	-1E+10	1
4902643	17	C	12/08/2024	09:33	-134.307	43.522	0	1189.60	0	3.0680	0	34.4430	0	27.442	0	1176.738	0	10.6	4	3.3	4	-1E+10	1	-1E+10	1	-1E+10	1	-1E+10	1	-1E+10	1	-1E+10	1
4902643	17	C	12/08/2024	09:33	-134.307	43.522	0	1209.40	0	3.0240	0	34.4480	0	27.450	0	1196.268	0	11.1	4	3.4	4	-1E+10	1	-1E+10	1	-1E+10	1	-1E+10	1	-1E+10	1	-1E+10	1
4902643	17	C	12/08/2024	09:33	-134.307	43.522	0	1229.50	0	2.9860	0	34.4520	0	27.457	0	1216.091	0	11.5	4	3.5	4	-1E+10	1	-1E+10	1	-1E+10	1	-1E+10	1	-1E+10	1	-1E+10	1
4902643	17	C	12/08/2024	09:33	-134.307	43.522	0	1249.80	0	2.9530	0	34.4580	0	27.465	0	1236.111	0	12.2	4	3.8	4	-1E+10	1	-1E+10	1	-1E+10	1	-1E+10	1	-1E+10	1	-1E+10	1
4902643	17	C	12/08/2024	09:33	-134.307	43.522	0	1269.70	0	2.9040	0	34.4640	0	27.474	0	1255.733	0	13.0	4	4.0	4	-1E+10	1	-1E+10	1	-1E+10	1	-1E+10	1	-1E+10	1	-1E+10	1
4902643	17	C	12/08/2024	09:33	-134.307	43.522	0	1289.70	0	2.8590	0	34.4710	0	27.484	0	1275.453	0	14.0	4	4.3	4	-1E+10	1	-1E+10	1	-1E+10	1	-1E+10	1	-1E+10	1	-1E+10	1
4902643	17	C	12/08/2024	09:33	-134.307	43.522	0	1309.70	0	2.8240	0	34.4770	0	27.492	0	1295.170	0	14.9	4	4.6	4	-1E+10	1	-1E+10	1	-1E+10	1	-1E+10	1	-1E+10	1	-1E+10	1
4902643	17	C	12/08/2024	09:33	-134.307	43.522	0	1329.80	0	2.7860	0	34.4820	0	27.499	0	1314.985	0	15.9	4	4.9	4	-1E+10	1	-1E+10	1	-1E+10	1	-1E+10	1	-1E+10	1	-1E+10	1
4902643	17	C	12/08/2024	09:33	-134.307	43.522	0	1349.20	0	2.7510	0	34.4860	0	27.505	0	1334.107	0	16.8	4	5.1	4	-1E+10	1	-1E+10	1	-1E+10	1	-1E+10	1	-1E+10	1	-1E+10	1
4902643	17	C	12/08/2024	09:33	-134.307	43.522	0	1369.80	0	2.7150	0	34.4910	0	27.513	0	1354.411	0	17.7	4	5.4	4	-1E+10	1	-1E+10	1	-1E+10	1	-1E+10	1	-1E+10	1	-1E+10	1
4902643	17	C	12/08/2024	09:33	-134.307	43.522	0	1389.40	0	2.6810	0	34.4950	0	27.519	0	1373.727	0	18.6	4	5.7	4	-1E+10	1	-1E+10	1	-1E+10	1	-1E+10	1	-1E+10	1	-1E+10	1
4902643	17	C	12/08/2024	09:33	-134.307	43.522	0	1409.40	0	2.6570	0	34.4990	0	27.524	0	1393.435	0	19.6	4	6.0	4	-1E+10	1	-1E+10	1	-1E+10	1	-1E+10	1	-1E+10	1	-1E+10	1
4902643	17	C	12/08/2024	09:33	-134.307	43.522	0	1429.40	0	2.6270	0	34.5030	0	27.530	0	1413.141	0	20.7	4	6.3	4	-1E+10	1	-1E+10	1	-1E+10	1	-1E+10	1	-1E+10	1	-1E+10	1
4902643	17	C	12/08/2024	09:33	-134.307	43.522	0	1449.50	0	2.5870	0	34.5080	0	27.538	0	1432.945	0	21.9	4	6.7	4	-1E+10	1	-1E+10	1	-1E+10	1	-1E+10	1	-1E+10	1	-1E+10	1
4902643	17	C	12/08/2024	09:33	-134.307	43.522	0	1469.80	0	2.5560	0	34.5120	0	27.543	0	1452.943	0	23.1	4	7.1	4	-1E+10	1	-1E+10	1	-1E+10	1	-1E+10	1	-1E+10	1	-1E+10	1
4902643	17	C	12/08/2024	09:33	-134.307	43.522	0	1490.40	0	2.5230	0	34.5170	0	27.550	0	1473.235	0	24.3	4	7.4	4	-1E+10	1	-1E+10	1	-1E+10	1	-1E+10	1	-1E+10	1	-1E+10	1
4902643	17	C	12/08/2024	09:33	-134.307	43.522	0	1509.90	0	2.4940	0	34.5210	0	27.556	0	1492.442	0	25.5	4	7.8	4	-1E+10	1	-1E+10	1	-1E+10	1	-1E+10	1	-1E+10	1	-1E+10	1
4902643	17	C	12/08/2024	09:33	-134.307	43.522	0	1529.80	0	2.4670	0	34.5240	0	27.561	0	1512.040	0	26.5	4	8.1	4	-1E+10	1	-1E+10	1	-1E+10	1	-1E+10	1	-1E+10	1	-1E+10	1
4902643	17	C	12/08/2024	09:33	-134.307	43.522	0	1549.60	0	2.4460	0	34.5270	0	27.565	0	1531.539	0	27.6	4	8.4	4	-1E+10	1	-1E+10	1	-1E+10	1	-1E+10	1	-1E+10	1	-1E+10	1
4902643	17	C	12/08/2024	09:33	-134.307	43.522	0	1569.70	0	2.4200	0	34.5310	0	27.571	0	1551.331	0	28.7	4	8.7	4	-1E+10	1	-1E+10	1	-1E+10	1	-1E+10	1	-1E+10	1	-1E+10	1
4902643	17	C	12/08/2024	09:33	-134.307	43.522	0	1589.80	0	2.3960	0	34.5340	0	27.575	0	1571.121	0	29.5	4	9.0	4	-1E+10	1	-1E+10	1	-1E+10	1	-1E+10	1	-1E+10	1	-1E+10	1
4902643	17	C	12/08/2024	09:33	-134.307	43.522	0	1609.00	0	2.3750	0	34.5360	0	27.579	0	1590.023	0	30.4	4	9.2	4	-1E+10	1	-1E+10	1	-1E+10	1	-1E+10	1	-1E+10	1	-1E+10	1
4902643	17	C	12/08/2024	09:33	-134.307	43.522	0	1629.90	0	2.3400	0	34.5400	0	27.585	0	1610.597	0	31.9	4	9.7	4	-1E+10	1	-1E+10	1	-1E+10	1	-1E+10	1	-1E+10	1	-1E+10	1
4902643	17	C	12/08/2024	09:33	-134.307	43.522	0	1649.60	0	2.3170	0	34.5440	0	27.590	0	1629.988	0	33.1	4	10.1	4	-1E+10	1	-1E+10	1	-1E+10	1	-1E+10	1	-1E+10	1	-1E+10	1
4902643	17	C	12/08/2024	09:33	-134.307	43.522	0	1669.40	0	2.2870	0	34.5470	0	27.595	0	1649.476	0	34.4	4	10.4	4	-1E+10	1	-1E+10	1	-1E+10	1	-1E+10	1	-1E+10	1	-1E+10	1
4902643	17	C	12/08/2024	09:33	-134.307	43.522	0	1689.50	0	2.2550	0	34.5510	0	27.601	0	1669.257	0	35.9	4	10.9	4	-1E+10	1	-1E+10	1	-1E+10	1	-1E+10	1	-1E+10	1	-1E+10	1
4902643	17	C	12/08/2024	09:33	-134.307	43.522	0	1709.60	0	2.2240	0	34.5550	0	27.607	0	1689.036	0	37.5	4	11.4	4	-1E+10	1	-1E+10	1	-1E+10	1	-1E+10	1	-1E+10	1	-1E+10	1
4902643	17	C	12/08/2024	09:33	-134.307	43.522	0	1729.50	0	2.1990	0	34.5590	0	27.612	0	1708.617	0	38.6	4	11.7	4	-1E+10	1	-1E+10	1	-1E+10	1	-1E+10	1	-1E+10	1	-1E+10	1
4902643	17	C	12/08/2024	09:33	-134.307	43.522	0	1749.60	0	2.1790	0	34.5610	0	27.615	0	1728.392	0	39.9	4	12.1	4	-1E+10	1	-1E+10	1	-1E+10	1	-1E+10	1	-1E+10	1	-1E+10	1
4902643	17	C	12/08/2024	09:33	-134.307	43.522	0	1769.70	0	2.1580	0	34.5650	0	27.620	0	1748.166	0	41.4	4	12.5	4	-1E+10	1	-1E+10	1	-1E+10	1	-1E+10	1	-1E+10	1	-1E+10	1
4902643	17	C	12/08/2024	09:33	-134.307	43.522	0	1789.60	0	2.1310	0	34.5680	0	27.625	0	1767.741	0	42.8	4	13.0	4	-1E+10	1	-1E+10	1	-1E+10	1	-1E+10	1	-1E+10	1	-1E+10	1
4902643	17	C	12/08/2024	09:33	-134.307	43.522	0	1809.80	0	2.1160	0	34.5710	0	27.628	0	1787.609	0	44.0	4	13.3	4	-1E+10	1	-1E+10	1	-1E+10	1	-1E+10	1	-1E+10	1	-1E+10	1
4902643	17	C	12/08/2024	09:33	-134.307	43.522	0	1830.00	0	2.0940	0	34.5740	0	27.633	0	1807.476	0	45.5	4	13.7	4	-1E+10	1	-1E+10	1	-1E+10	1	-1E+10	1	-1E+10	1	-1E+10	1
4902643	17	C	12/08/2024	09:33	-134.307	43.522	0	1849.60	0	2.0750	0	34.5770	0	27.637	0	1826.750	0	46.7	4	14.1	4	-1E+10	1	-1E+10	1	-1E+10	1	-1E+10	1	-1E+10	1	-1E+10	1
4902643	17	C	12/08/2024	09:33	-134.307	43.522	0	1869.80	0	2.0570	0	34.5800	0	27.641	0	1846.613	0	47.9	4	14.5	4	-1E+10	1	-1E+10	1	-1E+10	1	-1E+10	1	-1E+10	1	-1E+10	1
4902643	17	C	12/08/2024	09:33	-134.307	43.522	0	1889.80	0	2.0410	0	34.5820	0	27.644	0	1866.277	0	49.0	4	14.8	4	-1E+10	1	-1E+10	1	-1E+10	1	-1E+10	1	-1E+10	1	-1E+10	1
4902643	17	C	12/08/2024	09:33	-134.307	43.522	0	1909.70	0	2.0260	0	34.5840	0	27.647	0	1885.841	0	50.0	4	15.1	4	-1E+10	1	-1E+10	1	-1E+10	1	-1E+10	1	-1E+10	1	-1E+10	1
4902643	17	C	12/08/2024	09:33	-134.307	43.522	0	1930.40	0	2.0070	0	34.5870	0	27.650	0	1906.190	0	51.1	4	15.4	4	-1E+10	1	-1E+10	1	-1E+10	1	-1E+10	1	-1E+10	1	-1E+10	1
4902643	17	C	12/08/2024	09:33	-134.307	43.522	0	1949.70	0	1.9940	0	34.5890	0	27.653	0	1925.161	0	52.0	4	15.7	4	-1E+10	1	-1E+10	1	-1E+10	1	-1E+10	1	-1E+10	1	-1E+10	1
4902643	17	C	12/08/2024	09:33	-134.307	43.522	0	1969.70	0	1.9760	0	34.5920	0	27.657	0	1944.818	0	53.3	4	16.1	4	-1E+10	1	-1E+10	1	-1E+10	1	-1E+10	1	-1E+10	1	-1E+10	1
4902643	17	C	12/08/2024	09:33	-134.307	43.522	0	1989.50	0	1.9590	0	34.5950	0	27.661	0	1964.277	0	54.7	4	16.5	4	-1E+10	1	-1E+10	1	-1E+10	1	-1E+10	1	-1E+10	1	-1E+10	1
4902643	17	C	12/08/2024	09:33	-134.307	43.522	0	2009.50	0	1.9390	0	34.5980	4	27.665	0	1983.930	0	56.1	4	16.9	4	-1E+10	1	-1E+10	1	-1E+10	1	-1E+10	1	-1E+10	1	-1E+10	1
4902643	17	C	12/08/2024	09:33	-134.307	43.522	0	2029.90	0	1.9250	0	34.6000	4	27.668	0	2003.975	0	57.1	4	17.2	4	-1E+10	1	-1E+10	1	-1E+10	1	-1E+10	1	-1E+10	1	-1E+10	1
4902643	17	C	12/08/2024	09:33	-134.307	43.522	0	2049.90	0	1.9170	0	34.6020	4	27.670	0	2023.624	0	58.0	4	17.4	4	-1E+10	1	-1E+10	1	-1E+10	1	-1E+10	1	-1E+10	1	-1E+10	1
4902643	17	C	12/08/2024	09:33	-134.307	43.522	0	2069.80	0	1.9020	0	34.6040	4	27.673	0	2043.174	0	59.2	4	17.8	4	-1E+10	1	-1E+10	1	-1E+10	1	-1E+10	1	-1E+10	1	-1E+10	1
4902643	17	C	12/08/2024	09:33	-134.307	43.522	0	2089.80	0	1.8890	0	34.6060	4	27.676	0	2062.820	0	60.2	4	18.1	4	-1E+10	1	-1E+10	1	-1E+10	1	-1E+10	1	-1E+10	1	-1E+10	1
4902643	17	C	12/08/2024	09:33	-134.307	43.522	0	2109.20	0	1.8820	0	34.6070	4	27.677	0	2081.875	0	60.8	4	18.3	4	-1E+10	1	-1E+10	1	-1E+10	1	-1E+10	1	-1E+10	1	-1E+10	1
4902643	17	C	12/08/2024	09:33	-134.307	43.522	0	2129.60	0	1.8750	0	34.6080	4	27.679	0	2101.911	0	61.6	4	18.5	4	-1E+10	1	-1E+10	1	-1E+10	1	-1E+10	1	-1E+10	1	-1E+10	1
4902643	17	C	12/08/2024	09:33	-134.307	43.522	0	2149.30	0	1.8640	0	34.6100	4	27.681	0	2121.257	0	62.5	4	18.8	4	-1E+10	1	-1E+10	1	-1E+10	1	-1E+10	1	-1E+10	1	-1E+10	1
4902643	17	C	12/08/2024	09:33	-134.307	43.522	0	2169.80	0	1.8570	0	34.6120	4	27.683	0	2141.387	0	63.3	4	19.0	4	-1E+10	1	-1E+10	1	-1E+10	1	-1E+10	1	-1E+10	1	-1E+10	1
4902643	17	C	12/08/2024	09:33	-134.307	43.522	0	2189.80	0	1.8480	0	34.6130	4	27.685	0	2161.024	0	64.0	4	19.2	4	-1E+10	1	-1E+10	1	-1E+10	1	-1E+10	1	-1E+10	1	-1E+10	1
4902643	17	C	12/08/2024	09:33	-134.307	43.522	0	2209.20	0	1.8410	0	34.6140	4	27.686	0	2180.070	0	64.7	4	19.4	4	-1E+10	1	-1E+10	1	-1E+10	1	-1E+10	1	-1E+10	1	-1E+10	1
4902643	17	C	12/08/2024	09:33	-134.307	43.522	0	2230.00	0	1.8330	0	34.6150	4	27.688	0	2200.489	0	65.5	4	19.7	4	-1E+10	1	-1E+10	1	-1E+10	1	-1E+10	1	-1E+10	1	-1E+10	1
4902643	17	C	12/08/2024	09:33	-134.307	43.522	0	2249.50	0	1.8260	0	34.6160	4	27.689	0	2219.630	0	66.2	4	19.9	4	-1E+10	1	-1E+10	1	-1E+10	1	-1E+10	1	-1E+10	1	-1E+10	1
4902643	17	C	12/08/2024	09:33	-134.307	43.522	0	2269.50	0	1.8200	0	34.6170	4	27.691	0	2239.260	0	66.9	4	20.1	4	-1E+10	1	-1E+10	1	-1E+10	1	-1E+10	1	-1E+10	1	-1E+10	1
4902643	17	C	12/08/2024	09:33	-134.307	43.522	0	2289.60	0	1.8130	0	34.6190	4	27.693	0	2258.986	0	67.7	4	20.3	4	-1E+10	1	-1E+10	1	-1E+10	1	-1E+10	1	-1E+10	1	-1E+10	1
4902643	17	C	12/08/2024	09:33	-134.307	43.522	0	2310.50	0	1.8050	0	34.6200	4	27.695	0	2279.495	0	68.6	4	20.6	4	-1E+10	1	-1E+10	1	-1E+10	1	-1E+10	1	-1E+10	1	-1E+10	1
4902643	17	C	12/08/2024	09:33	-134.307	43.522	0	2329.90	0	1.7990	0	34.6210	4	27.696	0	2298.531	0	69.5	4	20.8	4	-1E+10	1	-1E+10	1	-1E+10	1	-1E+10	1	-1E+10	1	-1E+10	1
4902643	17	C	12/08/2024	09:33	-134.307	43.522	0	2349.70	0	1.7920	0	34.6220	4	27.697	0	2317.957	0	70.2	4	21.1	4	-1E+10	1	-1E+10	1	-1E+10	1	-1E+10	1	-1E+10	1	-1E+10	1
4902643	17	C	12/08/2024	09:33	-134.307	43.522	0	2369.50	0	1.7840	0	34.6240	4	27.700	0	2337.382	0	71.1	4	21.3	4	-1E+10	1	-1E+10	1	-1E+10	1	-1E+10	1	-1E+10	1	-1E+10	1
4902643	17	C	12/08/2024	09:33	-134.307	43.522	0	2389.70	0	1.7760	0	34.6250	4	27.701	0	2357.197	0	71.8	4	21.5	4	-1E+10	1	-1E+10	1	-1E+10	1	-1E+10	1	-1E+10	1	-1E+10	1
4902643	17	C	12/08/2024	09:33	-134.307	43.522	0	2409.70	0	1.7700	0	34.6260	4	27.703	0	2376.815	0	72.5	4	21.7	4	-1E+10	1	-1E+10	1	-1E+10	1	-1E+10	1	-1E+10	1	-1E+10	1
4902643	17	C	12/08/2024	09:33	-134.307	43.522	0	2429.80	0	1.7630	0	34.6270	4	27.704	0	2396.528	0	73.4	4	22.0	4	-1E+10	1	-1E+10	1	-1E+10	1	-1E+10	1	-1E+10	1	-1E+10	1
4902643	17	C	12/08/2024	09:33	-134.307	43.522	0	2450.10	0	1.7550	0	34.6280	4	27.706	0	2416.436	0	74.1	4	22.2	4	-1E+10	1	-1E+10	1	-1E+10	1	-1E+10	1	-1E+10	1	-1E+10	1
4902643	17	C	12/08/2024	09:33	-134.307	43.522	0	2470.10	0	1.7480	0	34.6290	4	27.707	0	2436.048	0	74.9	4	22.5	4	-1E+10	1	-1E+10	1	-1E+10	1	-1E+10	1	-1E+10	1	-1E+10	1
4902643	17	C	12/08/2024	09:33	-134.307	43.522	0	2490.70	0	1.7420	0	34.6300	4	27.708	0	2456.246	0	75.8	4	22.7	4	-1E+10	1	-1E+10	1	-1E+10	1	-1E+10	1	-1E+10	1	-1E+10	1
4902643	17	C	12/08/2024	09:33	-134.307	43.522	0	2509.60	0	1.7330	0	34.6310	4	27.710	0	2474.776	0	76.8	4	23.0	4	-1E+10	1	-1E+10	1	-1E+10	1	-1E+10	1	-1E+10	1	-1E+10	1
4902643	17	C	12/08/2024	09:33	-134.307	43.522	0	2529.50	0	1.7240	0	34.6320	4	27.711	0	2494.285	0	77.8	4	23.3	4	-1E+10	1	-1E+10	1	-1E+10	1	-1E+10	1	-1E+10	1	-1E+10	1
4902643	17	C	12/08/2024	09:33	-134.307	43.522	0	2549.70	0	1.7150	0	34.6340	4	27.714	0	2514.085	0	78.7	4	23.6	4	-1E+10	1	-1E+10	1	-1E+10	1	-1E+10	1	-1E+10	1	-1E+10	1
4902643	17	C	12/08/2024	09:33	-134.307	43.522	0	2570.40	0	1.7070	0	34.6340	4	27.715	0	2534.374	0	79.6	4	23.8	4	-1E+10	1	-1E+10	1	-1E+10	1	-1E+10	1	-1E+10	1	-1E+10	1
4902643	17	C	12/08/2024	09:33	-134.307	43.522	0	2589.90	0	1.7010	0	34.6360	4	27.717	0	2553.485	0	80.3	4	24.0	4	-1E+10	1	-1E+10	1	-1E+10	1	-1E+10	1	-1E+10	1	-1E+10	1
4902643	17	C	12/08/2024	09:33	-134.307	43.522	0	2610.00	0	1.6960	0	34.6360	4	27.717	0	2573.183	0	81.1	4	24.3	4	-1E+10	1	-1E+10	1	-1E+10	1	-1E+10	1	-1E+10	1	-1E+10	1
4902643	17	C	12/08/2024	09:33	-134.307	43.522	0	2629.80	0	1.6900	0	34.6370	4	27.719	0	2592.584	0	81.9	4	24.5	4	-1E+10	1	-1E+10	1	-1E+10	1	-1E+10	1	-1E+10	1	-1E+10	1
4902643	17	C	12/08/2024	09:33	-134.307	43.522	0	2649.70	0	1.6830	0	34.6380	4	27.720	0	2612.082	0	82.7	4	24.8	4	-1E+10	1	-1E+10	1	-1E+10	1	-1E+10	1	-1E+10	1	-1E+10	1
4902643	17	C	12/08/2024	09:33	-134.307	43.522	0	2670.00	0	1.6780	0	34.6390	4	27.721	0	2631.970	0	83.5	4	25.0	4	-1E+10	1	-1E+10	1	-1E+10	1	-1E+10	1	-1E+10	1	-1E+10	1
4902643	17	C	12/08/2024	09:33	-134.307	43.522	0	2689.70	0	1.6710	0	34.6400	4	27.723	0	2651.268	0	84.4	4	25.3	4	-1E+10	1	-1E+10	1	-1E+10	1	-1E+10	1	-1E+10	1	-1E+10	1
4902643	17	C	12/08/2024	09:33	-134.307	43.522	0	2708.80	0	1.6680	0	34.6410	4	27.724	0	2669.978	0	85.2	4	25.5	4	-1E+10	1	-1E+10	1	-1E+10	1	-1E+10	1	-1E+10	1	-1E+10	1
4902643	17	C	12/08/2024	09:33	-134.307	43.522	0	2729.70	0	1.6620	0	34.6420	4	27.725	0	2690.448	0	86.2	4	25.8	4	-1E+10	1	-1E+10	1	-1E+10	1	-1E+10	1	-1E+10	1	-1E+10	1
4902643	17	C	12/08/2024	09:33	-134.307	43.522	0	2749.80	0	1.6570	0	34.6430	4	27.727	0	2710.133	0	86.9	4	26.0	4	-1E+10	1	-1E+10	1	-1E+10	1	-1E+10	1	-1E+10	1	-1E+10	1
4902643	17	C	12/08/2024	09:33	-134.307	43.522	0	2769.80	0	1.6540	0	34.6440	4	27.728	0	2729.718	0	87.4	4	26.1	4	-1E+10	1	-1E+10	1	-1E+10	1	-1E+10	1	-1E+10	1	-1E+10	1
4902643	17	C	12/08/2024	09:33	-134.307	43.522	0	2789.50	0	1.6490	0	34.6440	4	27.728	0	2749.007	0	88.1	4	26.3	4	-1E+10	1	-1E+10	1	-1E+10	1	-1E+10	1	-1E+10	1	-1E+10	1
4902643	17	C	12/08/2024	09:33	-134.307	43.522	0	2809.50	0	1.6450	0	34.6450	4	27.729	0	2768.589	0	88.7	4	26.5	4	-1E+10	1	-1E+10	1	-1E+10	1	-1E+10	1	-1E+10	1	-1E+10	1
4902643	17	C	12/08/2024	09:33	-134.307	43.522	0	2829.70	0	1.6410	0	34.6460	4	27.731	0	2788.364	0	89.4	4	26.7	4	-1E+10	1	-1E+10	1	-1E+10	1	-1E+10	1	-1E+10	1	-1E+10	1
4902643	17	C	12/08/2024	09:33	-134.307	43.522	0	2849.80	0	1.6340	0	34.6460	4	27.731	0	2808.040	0	90.1	4	26.9	4	-1E+10	1	-1E+10	1	-1E+10	1	-1E+10	1	-1E+10	1	-1E+10	1
4902643	17	C	12/08/2024	09:33	-134.307	43.522	0	2869.60	0	1.6300	0	34.6470	4	27.732	0	2827.421	0	90.7	4	27.1	4	-1E+10	1	-1E+10	1	-1E+10	1	-1E+10	1	-1E+10	1	-1E+10	1
4902643	17	C	12/08/2024	09:33	-134.307	43.522	0	2890.10	0	1.6260	0	34.6480	4	27.734	0	2847.485	0	91.3	4	27.3	4	-1E+10	1	-1E+10	1	-1E+10	1	-1E+10	1	-1E+10	1	-1E+10	1
4902643	17	C	12/08/2024	09:33	-134.307	43.522	0	2909.60	0	1.6210	0	34.6480	4	27.734	0	2866.568	0	91.8	4	27.4	4	-1E+10	1	-1E+10	1	-1E+10	1	-1E+10	1	-1E+10	1	-1E+10	1
4902643	17	C	12/08/2024	09:33	-134.307	43.522	0	2929.40	0	1.6180	0	34.6490	4	27.735	0	2885.943	0	92.3	4	27.6	4	-1E+10	1	-1E+10	1	-1E+10	1	-1E+10	1	-1E+10	1	-1E+10	1
4902643	17	C	12/08/2024	09:33	-134.307	43.522	0	2949.60	0	1.6160	0	34.6490	4	27.736	0	2905.708	0	92.6	4	27.7	4	-1E+10	1	-1E+10	1	-1E+10	1	-1E+10	1	-1E+10	1	-1E+10	1
4902643	17	C	12/08/2024	09:33	-134.307	43.522	0	2969.90	0	1.6150	0	34.6500	4	27.737	0	2925.569	0	93.0	4	27.8	4	-1E+10	1	-1E+10	1	-1E+10	1	-1E+10	1	-1E+10	1	-1E+10	1
4902643	17	C	12/08/2024	09:33	-134.307	43.522	0	2989.70	0	1.6110	0	34.6500	4	27.737	0	2944.939	0	93.6	4	28.0	4	-1E+10	1	-1E+10	1	-1E+10	1	-1E+10	1	-1E+10	1	-1E+10	1
4902643	17	C	12/08/2024	09:33	-134.307	43.522	0	3009.50	0	1.6080	0	34.6510	4	27.738	0	2964.308	0	94.1	4	28.1	4	-1E+10	1	-1E+10	1	-1E+10	1	-1E+10	1	-1E+10	1	-1E+10	1
4902643	17	C	12/08/2024	09:33	-134.307	43.522	0	3029.70	0	1.6050	0	34.6510	4	27.739	0	2984.065	0	94.6	4	28.3	4	-1E+10	1	-1E+10	1	-1E+10	1	-1E+10	1	-1E+10	1	-1E+10	1
4902643	17	C	12/08/2024	09:33	-134.307	43.522	0	3049.20	0	1.6030	0	34.6520	4	27.740	0	3003.137	0	95.1	4	28.4	4	-1E+10	1	-1E+10	1	-1E+10	1	-1E+10	1	-1E+10	1	-1E+10	1
4902643	17	C	12/08/2024	09:33	-134.307	43.522	0	3069.70	0	1.5980	0	34.6530	4	27.741	0	3023.184	0	95.8	4	28.6	4	-1E+10	1	-1E+10	1	-1E+10	1	-1E+10	1	-1E+10	1	-1E+10	1
4902643	17	C	12/08/2024	09:33	-134.307	43.522	0	3089.80	0	1.5940	0	34.6530	4	27.741	0	3042.839	0	96.3	4	28.8	4	-1E+10	1	-1E+10	1	-1E+10	1	-1E+10	1	-1E+10	1	-1E+10	1
4902643	17	C	12/08/2024	09:33	-134.307	43.522	0	3109.50	0	1.5910	0	34.6540	4	27.742	0	3062.101	0	96.9	4	28.9	4	-1E+10	1	-1E+10	1	-1E+10	1	-1E+10	1	-1E+10	1	-1E+10	1
4902643	17	C	12/08/2024	09:33	-134.307	43.522	0	3129.50	0	1.5880	0	34.6540	4	27.743	0	3081.654	0	97.4	4	29.1	4	-1E+10	1	-1E+10	1	-1E+10	1	-1E+10	1	-1E+10	1	-1E+10	1
4902643	17	C	12/08/2024	09:33	-134.307	43.522	0	3150.10	0	1.5850	0	34.6550	4	27.744	0	3101.792	0	97.7	4	29.2	4	-1E+10	1	-1E+10	1	-1E+10	1	-1E+10	1	-1E+10	1	-1E+10	1
4902643	17	C	12/08/2024	09:33	-134.307	43.522	0	3169.80	0	1.5830	0	34.6550	4	27.744	0	3121.049	0	98.1	4	29.3	4	-1E+10	1	-1E+10	1	-1E+10	1	-1E+10	1	-1E+10	1	-1E+10	1
4902643	17	C	12/08/2024	09:33	-134.307	43.522	0	3189.70	0	1.5800	0	34.6550	4	27.745	0	3140.499	0	98.6	4	29.4	4	-1E+10	1	-1E+10	1	-1E+10	1	-1E+10	1	-1E+10	1	-1E+10	1
4902643	17	C	12/08/2024	09:33	-134.307	43.522	0	3209.70	0	1.5790	0	34.6560	4	27.746	0	3160.045	0	99.0	4	29.6	4	-1E+10	1	-1E+10	1	-1E+10	1	-1E+10	1	-1E+10	1	-1E+10	1
4902643	17	C	12/08/2024	09:33	-134.307	43.522	0	3229.90	0	1.5780	0	34.6560	4	27.746	0	3179.785	0	99.3	4	29.7	4	-1E+10	1	-1E+10	1	-1E+10	1	-1E+10	1	-1E+10	1	-1E+10	1
4902643	17	C	12/08/2024	09:33	-134.307	43.522	0	3249.80	0	1.5770	0	34.6570	4	27.747	0	3199.230	0	99.8	4	29.8	4	-1E+10	1	-1E+10	1	-1E+10	1	-1E+10	1	-1E+10	1	-1E+10	1
4902643	17	C	12/08/2024	09:33	-134.307	43.522	0	3270.70	0	1.5730	0	34.6570	4	27.747	0	3219.651	0	100.4	4	30.0	4	-1E+10	1	-1E+10	1	-1E+10	1	-1E+10	1	-1E+10	1	-1E+10	1
4902643	17	C	12/08/2024	09:33	-134.307	43.522	0	3289.90	0	1.5720	0	34.6580	4	27.748	0	3238.408	0	100.8	4	30.1	4	-1E+10	1	-1E+10	1	-1E+10	1	-1E+10	1	-1E+10	1	-1E+10	1
4902643	17	C	12/08/2024	09:33	-134.307	43.522	0	3309.90	0	1.5690	0	34.6580	4	27.749	0	3257.946	0	101.4	4	30.3	4	-1E+10	1	-1E+10	1	-1E+10	1	-1E+10	1	-1E+10	1	-1E+10	1
4902643	17	C	12/08/2024	09:33	-134.307	43.522	0	3329.80	0	1.5670	0	34.6590	4	27.750	0	3277.384	0	101.8	4	30.4	4	-1E+10	1	-1E+10	1	-1E+10	1	-1E+10	1	-1E+10	1	-1E+10	1
4902643	17	C	12/08/2024	09:33	-134.307	43.522	0	3349.50	0	1.5660	0	34.6590	4	27.750	0	3296.625	0	102.2	4	30.5	4	-1E+10	1	-1E+10	1	-1E+10	1	-1E+10	1	-1E+10	1	-1E+10	1
4902643	17	C	12/08/2024	09:33	-134.307	43.522	0	3369.50	0	1.5650	0	34.6600	4	27.751	0	3316.157	0	102.6	4	30.6	4	-1E+10	1	-1E+10	1	-1E+10	1	-1E+10	1	-1E+10	1	-1E+10	1
4902643	17	C	12/08/2024	09:33	-134.307	43.522	0	3389.50	0	1.5630	0	34.6600	4	27.751	0	3335.688	0	103.1	4	30.8	4	-1E+10	1	-1E+10	1	-1E+10	1	-1E+10	1	-1E+10	1	-1E+10	1
4902643	17	C	12/08/2024	09:33	-134.307	43.522	0	3409.70	0	1.5610	0	34.6600	4	27.751	0	3355.412	0	103.4	4	30.9	4	-1E+10	1	-1E+10	1	-1E+10	1	-1E+10	1	-1E+10	1	-1E+10	1
4902643	17	C	12/08/2024	09:33	-134.307	43.522	0	3429.60	0	1.5600	0	34.6610	4	27.752	0	3374.842	0	103.8	4	31.0	4	-1E+10	1	-1E+10	1	-1E+10	1	-1E+10	1	-1E+10	1	-1E+10	1
4902643	17	C	12/08/2024	09:33	-134.307	43.522	0	3448.80	0	1.5590	0	34.6610	4	27.753	0	3393.586	0	104.2	4	31.1	4	-1E+10	1	-1E+10	1	-1E+10	1	-1E+10	1	-1E+10	1	-1E+10	1
4902643	17	C	12/08/2024	09:33	-134.307	43.522	0	3469.60	0	1.5560	0	34.6620	4	27.754	0	3413.891	0	104.7	4	31.2	4	-1E+10	1	-1E+10	1	-1E+10	1	-1E+10	1	-1E+10	1	-1E+10	1
4902643	17	C	12/08/2024	09:33	-134.307	43.522	0	3489.70	0	1.5550	0	34.6620	4	27.754	0	3433.510	0	105.1	4	31.3	4	-1E+10	1	-1E+10	1	-1E+10	1	-1E+10	1	-1E+10	1	-1E+10	1
4902643	17	C	12/08/2024	09:33	-134.307	43.522	0	3509.80	0	1.5540	0	34.6630	4	27.755	0	3453.128	0	105.5	4	31.5	4	-1E+10	1	-1E+10	1	-1E+10	1	-1E+10	1	-1E+10	1	-1E+10	1
4902643	17	C	12/08/2024	09:33	-134.307	43.522	0	3530.60	0	1.5530	0	34.6630	4	27.755	0	3473.427	0	105.9	4	31.6	4	-1E+10	1	-1E+10	1	-1E+10	1	-1E+10	1	-1E+10	1	-1E+10	1
4902643	17	C	12/08/2024	09:33	-134.307	43.522	0	3550.30	0	1.5520	0	34.6640	4	27.756	0	3492.651	0	106.2	4	31.7	4	-1E+10	1	-1E+10	1	-1E+10	1	-1E+10	1	-1E+10	1	-1E+10	1
4902643	17	C	12/08/2024	09:33	-134.307	43.522	0	3570.80	0	1.5510	0	34.6640	4	27.757	0	3512.653	0	106.5	4	31.8	4	-1E+10	1	-1E+10	1	-1E+10	1	-1E+10	1	-1E+10	1	-1E+10	1
4902643	17	C	12/08/2024	09:33	-134.307	43.522	0	3590.20	0	1.5500	0	34.6640	4	27.757	0	3531.581	0	106.9	4	31.9	4	-1E+10	1	-1E+10	1	-1E+10	1	-1E+10	1	-1E+10	1	-1E+10	1
4902643	17	C	12/08/2024	09:33	-134.307	43.522	0	3610.10	0	1.5500	0	34.6650	4	27.758	0	3550.995	0	107.3	4	32.0	4	-1E+10	1	-1E+10	1	-1E+10	1	-1E+10	1	-1E+10	1	-1E+10	1
4902643	17	C	12/08/2024	09:33	-134.307	43.522	0	3629.90	0	1.5490	0	34.6650	4	27.758	0	3570.309	0	107.6	4	32.1	4	-1E+10	1	-1E+10	1	-1E+10	1	-1E+10	1	-1E+10	1	-1E+10	1
4902643	17	C	12/08/2024	09:33	-134.307	43.522	0	3650.10	0	1.5490	0	34.6660	4	27.759	0	3590.012	0	107.8	4	32.2	4	-1E+10	1	-1E+10	1	-1E+10	1	-1E+10	1	-1E+10	1	-1E+10	1
4902643	17	C	12/08/2024	09:33	-134.307	43.522	0	3669.90	0	1.5490	0	34.6660	4	27.759	0	3609.323	0	108.0	4	32.2	4	-1E+10	1	-1E+10	1	-1E+10	1	-1E+10	1	-1E+10	1	-1E+10	1
4902643	17	C	12/08/2024	09:33	-134.307	43.522	0	3689.70	0	1.5500	0	34.6660	4	27.759	0	3628.633	0	108.2	4	32.3	4	-1E+10	1	-1E+10	1	-1E+10	1	-1E+10	1	-1E+10	1	-1E+10	1
4902643	17	C	12/08/2024	09:33	-134.307	43.522	0	3709.90	0	1.5510	0	34.6670	4	27.760	0	3648.331	0	108.4	4	32.3	4	-1E+10	1	-1E+10	1	-1E+10	1	-1E+10	1	-1E+10	1	-1E+10	1
4902643	17	C	12/08/2024	09:33	-134.307	43.522	0	3730.20	0	1.5510	0	34.6670	4	27.760	0	3668.124	0	108.6	4	32.4	4	-1E+10	1	-1E+10	1	-1E+10	1	-1E+10	1	-1E+10	1	-1E+10	1
4902643	17	C	12/08/2024	09:33	-134.307	43.522	0	3750.00	0	1.5510	0	34.6670	4	27.760	0	3687.429	0	108.8	4	32.5	4	-1E+10	1	-1E+10	1	-1E+10	1	-1E+10	1	-1E+10	1	-1E+10	1
4902643	17	C	12/08/2024	09:33	-134.307	43.522	0	3770.60	0	1.5520	0	34.6680	4	27.761	0	3707.511	0	108.9	4	32.5	4	-1E+10	1	-1E+10	1	-1E+10	1	-1E+10	1	-1E+10	1	-1E+10	1
4902643	17	C	12/08/2024	09:33	-134.307	43.522	0	3781.10	0	1.5520	0	34.6680	4	27.761	0	3717.747	0	108.9	4	32.5	4	-1E+10	1	-1E+10	1	-1E+10	1	-1E+10	1	-1E+10	1	-1E+10	1
4902643	17	C	12/08/2024	09:33	-134.307	43.522	0																										
4902643	18	C	12/18/2024	09:25	-134.198	43.504	0	0.70	0	12.4830	0	32.7400	0	24.743	0	0.694	0	241.5	4	91.2	4	-1E+10	1	-1E+10	1	-1E+10	1	-1E+10	1	-1E+10	1	-1E+10	1
4902643	18	C	12/18/2024	09:25	-134.198	43.504	0	0.80	0	12.4770	0	32.7423	0	24.746	0	0.794	0	241.4	4	91.2	4	-1E+10	1	-1E+10	1	-1E+10	1	-1E+10	1	-1E+10	1	-1E+10	1
4902643	18	C	12/18/2024	09:25	-134.198	43.504	0	0.90	0	12.4790	0	32.7420	0	24.746	0	0.893	0	241.4	4	91.1	4	-1E+10	1	-1E+10	1	-1E+10	1	-1E+10	1	-1E+10	1	-1E+10	1
4902643	18	C	12/18/2024	09:25	-134.198	43.504	0	1.00	0	12.4770	0	32.7410	0	24.745	0	0.992	0	241.3	4	91.1	4	-1E+10	1	-1E+10	1	-1E+10	1	-1E+10	1	-1E+10	1	-1E+10	1
4902643	18	C	12/18/2024	09:25	-134.198	43.504	0	1.30	0	12.4830	0	32.7430	0	24.746	0	1.290	0	241.1	4	91.0	4	-1E+10	1	-1E+10	1	-1E+10	1	-1E+10	1	-1E+10	1	-1E+10	1
4902643	18	C	12/18/2024	09:25	-134.198	43.504	0	2.50	0	12.4910	0	32.7410	0	24.743	0	2.480	0	240.9	4	91.0	4	-1E+10	1	-1E+10	1	-1E+10	1	-1E+10	1	-1E+10	1	-1E+10	1
4902643	18	C	12/18/2024	09:25	-134.198	43.504	0	3.50	0	12.4900	0	32.7420	0	24.744	0	3.472	0	240.9	4	91.0	4	-1E+10	1	-1E+10	1	-1E+10	1	-1E+10	1	-1E+10	1	-1E+10	1
4902643	18	C	12/18/2024	09:25	-134.198	43.504	0	4.90	0	12.5010	0	32.7410	0	24.741	0	4.861	0	240.8	4	91.0	4	-1E+10	1	-1E+10	1	-1E+10	1	-1E+10	1	-1E+10	1	-1E+10	1
4902643	18	C	12/18/2024	09:25	-134.198	43.504	0	5.80	0	12.4980	0	32.7400	0	24.741	0	5.754	0	240.9	4	91.0	4	-1E+10	1	-1E+10	1	-1E+10	1	-1E+10	1	-1E+10	1	-1E+10	1
4902643	18	C	12/18/2024	09:25	-134.198	43.504	0	6.60	0	12.4930	0	32.7410	0	24.742	0	6.547	0	240.8	4	90.9	4	-1E+10	1	-1E+10	1	-1E+10	1	-1E+10	1	-1E+10	1	-1E+10	1
4902643	18	C	12/18/2024	09:25	-134.198	43.504	0	7.70	0	12.4940	0	32.7410	0	24.742	0	7.638	0	240.8	4	90.9	4	-1E+10	1	-1E+10	1	-1E+10	1	-1E+10	1	-1E+10	1	-1E+10	1
4902643	18	C	12/18/2024	09:25	-134.198	43.504	0	8.60	0	12.4980	0	32.7380	0	24.739	0	8.531	0	240.8	4	91.0	4	-1E+10	1	-1E+10	1	-1E+10	1	-1E+10	1	-1E+10	1	-1E+10	1
4902643	18	C	12/18/2024	09:25	-134.198	43.504	0	9.60	0	12.5000	0	32.7400	0	24.740	0	9.523	0	240.8	4	91.0	4	-1E+10	1	-1E+10	1	-1E+10	1	-1E+10	1	-1E+10	1	-1E+10	1
4902643	18	C	12/18/2024	09:25	-134.198	43.504	0	14.90	0	12.4970	0	32.7400	0	24.741	0	14.781	0	240.7	4	90.9	4	-1E+10	1	-1E+10	1	-1E+10	1	-1E+10	1	-1E+10	1	-1E+10	1
4902643	18	C	12/18/2024	09:25	-134.198	43.504	0	24.90	0	12.5030	0	32.7410	0	24.741	0	24.700	0	240.5	4	90.9	4	-1E+10	1	-1E+10	1	-1E+10	1	-1E+10	1	-1E+10	1	-1E+10	1
4902643	18	C	12/18/2024	09:25	-134.198	43.504	0	35.20	0	12.5160	0	32.7490	0	24.745	0	34.916	0	240.2	4	90.8	4	-1E+10	1	-1E+10	1	-1E+10	1	-1E+10	1	-1E+10	1	-1E+10	1
4902643	18	C	12/18/2024	09:25	-134.198	43.504	0	45.30	0	12.5170	0	32.7520	0	24.747	0	44.934	0	240.0	4	90.7	4	-1E+10	1	-1E+10	1	-1E+10	1	-1E+10	1	-1E+10	1	-1E+10	1
4902643	18	C	12/18/2024	09:25	-134.198	43.504	0	54.80	0	12.5040	0	32.7510	0	24.749	0	54.355	0	239.8	4	90.6	4	-1E+10	1	-1E+10	1	-1E+10	1	-1E+10	1	-1E+10	1	-1E+10	1
4902643	18	C	12/18/2024	09:25	-134.198	43.504	0	64.50	0	12.4800	0	32.7480	0	24.752	0	63.975	0	239.5	4	90.4	4	-1E+10	1	-1E+10	1	-1E+10	1	-1E+10	1	-1E+10	1	-1E+10	1
4902643	18	C	12/18/2024	09:25	-134.198	43.504	0	74.70	0	12.4350	0	32.7440	0	24.758	0	74.090	0	238.8	4	90.1	4	-1E+10	1	-1E+10	1	-1E+10	1	-1E+10	1	-1E+10	1	-1E+10	1
4902643	18	C	12/18/2024	09:25	-134.198	43.504	0	85.10	0	12.2070	0	32.7460	0	24.803	0	84.403	0	236.1	4	88.6	4	-1E+10	1	-1E+10	1	-1E+10	1	-1E+10	1	-1E+10	1	-1E+10	1
4902643	18	C	12/18/2024	09:25	-134.198	43.504	0	94.80	0	10.8950	0	32.8100	0	25.091	0	94.022	0	234.1	4	85.6	4	-1E+10	1	-1E+10	1	-1E+10	1	-1E+10	1	-1E+10	1	-1E+10	1
4902643	18	C	12/18/2024	09:25	-134.198	43.504	0	105.10	0	9.9330	0	32.8820	0	25.312	0	104.235	0	234.5	4	84.0	4	-1E+10	1	-1E+10	1	-1E+10	1	-1E+10	1	-1E+10	1	-1E+10	1
4902643	18	C	12/18/2024	09:25	-134.198	43.504	0	115.10	0	9.7070	0	32.9270	0	25.384	0	114.150	0	230.8	4	82.3	4	-1E+10	1	-1E+10	1	-1E+10	1	-1E+10	1	-1E+10	1	-1E+10	1
4902643	18	C	12/18/2024	09:25	-134.198	43.504	0	124.90	0	9.5330	0	33.0030	0	25.472	0	123.866	0	220.6	4	78.4	4	-1E+10	1	-1E+10	1	-1E+10	1	-1E+10	1	-1E+10	1	-1E+10	1
4902643	18	C	12/18/2024	09:25	-134.198	43.504	0	135.20	0	9.3400	0	33.1560	0	25.623	0	134.077	0	209.5	4	74.2	4	-1E+10	1	-1E+10	1	-1E+10	1	-1E+10	1	-1E+10	1	-1E+10	1
4902643	18	C	12/18/2024	09:25	-134.198	43.504	0	144.70	0	9.1180	0	33.2950	0	25.767	0	143.495	0	202.4	4	71.4	4	-1E+10	1	-1E+10	1	-1E+10	1	-1E+10	1	-1E+10	1	-1E+10	1
4902643	18	C	12/18/2024	09:25	-134.198	43.504	0	154.90	0	8.7520	0	33.4570	0	25.952	0	153.606	0	197.8	4	69.3	4	-1E+10	1	-1E+10	1	-1E+10	1	-1E+10	1	-1E+10	1	-1E+10	1
4902643	18	C	12/18/2024	09:25	-134.198	43.504	0	164.90	0	8.4440	0	33.5790	0	26.094	0	163.519	0	194.7	4	67.8	4	-1E+10	1	-1E+10	1	-1E+10	1	-1E+10	1	-1E+10	1	-1E+10	1
4902643	18	C	12/18/2024	09:25	-134.198	43.504	0	174.60	0	8.2800	0	33.6570	0	26.180	0	173.133	0	193.2	4	67.1	4	-1E+10	1	-1E+10	1	-1E+10	1	-1E+10	1	-1E+10	1	-1E+10	1
4902643	18	C	12/18/2024	09:25	-134.198	43.504	0	184.60	0	8.1450	0	33.7200	0	26.250	0	183.045	0	192.6	4	66.7	4	-1E+10	1	-1E+10	1	-1E+10	1	-1E+10	1	-1E+10	1	-1E+10	1
4902643	18	C	12/18/2024	09:25	-134.198	43.504	0	194.80	0	8.0000	0	33.7460	0	26.292	0	193.154	0	191.2	4	66.0	4	-1E+10	1	-1E+10	1	-1E+10	1	-1E+10	1	-1E+10	1	-1E+10	1
4902643	18	C	12/18/2024	09:25	-134.198	43.504	0	209.80	0	7.7890	0	33.7880	0	26.356	0	208.020	0	186.1	4	64.0	4	-1E+10	1	-1E+10	1	-1E+10	1	-1E+10	1	-1E+10	1	-1E+10	1
4902643	18	C	12/18/2024	09:25	-134.198	43.504	0	229.90	0	7.4160	0	33.8270	0	26.440	0	227.938	0	178.6	4	60.9	4	-1E+10	1	-1E+10	1	-1E+10	1	-1E+10	1	-1E+10	1	-1E+10	1
4902643	18	C	12/18/2024	09:25	-134.198	43.504	0	249.80	0	7.1030	0	33.8300	0	26.486	0	247.657	0	170.7	4	57.8	4	-1E+10	1	-1E+10	1	-1E+10	1	-1E+10	1	-1E+10	1	-1E+10	1
4902643	18	C	12/18/2024	09:25	-134.198	43.504	0	270.30	0	6.7880	0	33.8280	0	26.528	0	267.968	0	159.2	4	53.5	4	-1E+10	1	-1E+10	1	-1E+10	1	-1E+10	1	-1E+10	1	-1E+10	1
4902643	18	C	12/18/2024	09:25	-134.198	43.504	0	289.80	0	6.3030	0	33.8230	0	26.588	0	287.286	0	142.9	4	47.5	4	-1E+10	1	-1E+10	1	-1E+10	1	-1E+10	1	-1E+10	1	-1E+10	1
4902643	18	C	12/18/2024	09:25	-134.198	43.504	0	309.20	0	5.9770	0	33.8270	0	26.632	0	306.503	0	126.7	4	41.8	4	-1E+10	1	-1E+10	1	-1E+10	1	-1E+10	1	-1E+10	1	-1E+10	1
4902643	18	C	12/18/2024	09:25	-134.198	43.504	0	329.80	0	5.6750	0	33.8360	0	26.676	0	326.907	0	111.0	4	36.4	4	-1E+10	1	-1E+10	1	-1E+10	1	-1E+10	1	-1E+10	1	-1E+10	1
4902643	18	C	12/18/2024	09:25	-134.198	43.504	0	349.60	0	5.4370	0	33.8480	0	26.715	0	346.517	0	100.2	4	32.7	4	-1E+10	1	-1E+10	1	-1E+10	1	-1E+10	1	-1E+10	1	-1E+10	1
4902643	18	C	12/18/2024	09:25	-134.198	43.504	0	370.00	0	5.2250	0	33.8580	0	26.748	0	366.719	0	90.7	4	29.4	4	-1E+10	1	-1E+10	1	-1E+10	1	-1E+10	1	-1E+10	1	-1E+10	1
4902643	18	C	12/18/2024	09:25	-134.198	43.504	0	389.70	0	5.0110	0	33.8630	0	26.776	0	386.226	0	81.9	4	26.4	4	-1E+10	1	-1E+10	1	-1E+10	1	-1E+10	1	-1E+10	1	-1E+10	1
4902643	18	C	12/18/2024	09:25	-134.198	43.504	0	409.90	0	4.8420	0	33.8800	0	26.809	0	406.226	0	74.1	4	23.8	4	-1E+10	1	-1E+10	1	-1E+10	1	-1E+10	1	-1E+10	1	-1E+10	1
4902643	18	C	12/18/2024	09:25	-134.198	43.504	0	429.70	0	4.7640	0	33.9090	0	26.841	0	425.828	0	69.4	4	22.3	4	-1E+10	1	-1E+10	1	-1E+10	1	-1E+10	1	-1E+10	1	-1E+10	1
4902643	18	C	12/18/2024	09:25	-134.198	43.504	0	449.70	0	4.7000	0	33.9310	0	26.865	0	445.627	0	64.8	4	20.8	4	-1E+10	1	-1E+10	1	-1E+10	1	-1E+10	1	-1E+10	1	-1E+10	1
4902643	18	C	12/18/2024	09:25	-134.198	43.504	0	469.80	0	4.6350	0	33.9500	0	26.888	0	465.522	0	60.4	4	19.3	4	-1E+10	1	-1E+10	1	-1E+10	1	-1E+10	1	-1E+10	1	-1E+10	1
4902643	18	C	12/18/2024	09:25	-134.198	43.504	0	490.00	0	4.5640	0	33.9690	0	26.911	0	485.515	0	55.7	4	17.8	4	-1E+10	1	-1E+10	1	-1E+10	1	-1E+10	1	-1E+10	1	-1E+10	1
4902643	18	C	12/18/2024	09:25	-134.198	43.504	0	509.90	0	4.4960	0	33.9880	0	26.933	0	505.208	0	50.6	4	16.2	4	-1E+10	1	-1E+10	1	-1E+10	1	-1E+10	1	-1E+10	1	-1E+10	1
4902643	18	C	12/18/2024	09:25	-134.198	43.504	0	529.70	0	4.4340	0	34.0090	0	26.957	0	524.801	0	46.3	4	14.8	4	-1E+10	1	-1E+10	1	-1E+10	1	-1E+10	1	-1E+10	1	-1E+10	1
4902643	18	C	12/18/2024	09:25	-134.198	43.504	0	549.90	0	4.3820	0	34.0260	0	26.976	0	544.788	0	41.9	4	13.3	4	-1E+10	1	-1E+10	1	-1E+10	1	-1E+10	1	-1E+10	1	-1E+10	1
4902643	18	C	12/18/2024	09:25	-134.198	43.504	0	570.00	0	4.3350	0	34.0420	0	26.994	0	564.674	0	37.1	4	11.8	4	-1E+10	1	-1E+10	1	-1E+10	1	-1E+10	1	-1E+10	1	-1E+10	1
4902643	18	C	12/18/2024	09:25	-134.198	43.504	0	590.10	0	4.2910	0	34.0570	0	27.010	0	584.558	0	33.0	4	10.5	4	-1E+10	1	-1E+10	1	-1E+10	1	-1E+10	1	-1E+10	1	-1E+10	1
4902643	18	C	12/18/2024	09:25	-134.198	43.504	0	609.80	0	4.2430	0	34.0750	0	27.030	0	604.044	0	29.3	4	9.3	4	-1E+10	1	-1E+10	1	-1E+10	1	-1E+10	1	-1E+10	1	-1E+10	1
4902643	18	C	12/18/2024	09:25	-134.198	43.504	0	629.70	0	4.1930	0	34.0940	0	27.050	0	623.726	0	26.0	4	8.2	4	-1E+10	1	-1E+10	1	-1E+10	1	-1E+10	1	-1E+10	1	-1E+10	1
4902643	18	C	12/18/2024	09:25	-134.198	43.504	0	649.80	0	4.1500	0	34.1080	0	27.066	0	643.605	0	23.8	4	7.5	4	-1E+10	1	-1E+10	1	-1E+10	1	-1E+10	1	-1E+10	1	-1E+10	1
4902643	18	C	12/18/2024	09:25	-134.198	43.504	0	670.30	0	4.1000	0	34.1230	0	27.083	0	663.877	0	21.3	4	6.7	4	-1E+10	1	-1E+10	1	-1E+10	1	-1E+10	1	-1E+10	1	-1E+10	1
4902643	18	C	12/18/2024	09:25	-134.198	43.504	0	689.60	0	4.0410	0	34.1410	0	27.104	0	682.960	0	18.8	4	5.9	4	-1E+10	1	-1E+10	1	-1E+10	1	-1E+10	1	-1E+10	1	-1E+10	1
4902643	18	C	12/18/2024	09:25	-134.198	43.504	0	709.50	0	3.9570	0	34.1630	0	27.130	0	702.635	0	16.5	4	5.2	4	-1E+10	1	-1E+10	1	-1E+10	1	-1E+10	1	-1E+10	1	-1E+10	1
4902643	18	C	12/18/2024	09:25	-134.198	43.504	0	730.30	0	3.8750	0	34.1830	0	27.154	0	723.198	0	14.6	4	4.6	4	-1E+10	1	-1E+10	1	-1E+10	1	-1E+10	1	-1E+10	1	-1E+10	1
4902643	18	C	12/18/2024	09:25	-134.198	43.504	0	749.50	0	3.8030	0	34.2020	0	27.177	0	742.177	0	13.1	4	4.1	4	-1E+10	1	-1E+10	1	-1E+10	1	-1E+10	1	-1E+10	1	-1E+10	1
4902643	18	C	12/18/2024	09:25	-134.198	43.504	0	769.70	0	3.7380	0	34.2210	0	27.199	0	762.142	0	11.6	4	3.6	4	-1E+10	1	-1E+10	1	-1E+10	1	-1E+10	1	-1E+10	1	-1E+10	1
4902643	18	C	12/18/2024	09:25	-134.198	43.504	0	789.60	0	3.6920	0	34.2350	0	27.214	0	781.810	0	10.6	4	3.3	4	-1E+10	1	-1E+10	1	-1E+10	1	-1E+10	1	-1E+10	1	-1E+10	1
4902643	18	C	12/18/2024	09:25	-134.198	43.504	0	810.10	0	3.6620	0	34.2460	0	27.226	0	802.068	0	9.8	4	3.1	4	-1E+10	1	-1E+10	1	-1E+10	1	-1E+10	1	-1E+10	1	-1E+10	1
4902643	18	C	12/18/2024	09:25	-134.198	43.504	0	829.80	0	3.6360	0	34.2580	0	27.238	0	821.534	0	9.0	4	2.8	4	-1E+10	1	-1E+10	1	-1E+10	1	-1E+10	1	-1E+10	1	-1E+10	1
4902643	18	C	12/18/2024	09:25	-134.198	43.504	0	849.70	0	3.6160	0	34.2690	0	27.249	0	841.196	0	8.4	4	2.6	4	-1E+10	1	-1E+10	1	-1E+10	1	-1E+10	1	-1E+10	1	-1E+10	1
4902643	18	C	12/18/2024	09:25	-134.198	43.504	0	869.60	0	3.5870	0	34.2830	0	27.263	0	860.856	0	7.8	4	2.4	4	-1E+10	1	-1E+10	1	-1E+10	1	-1E+10	1	-1E+10	1	-1E+10	1
4902643	18	C	12/18/2024	09:25	-134.198	43.504	0	889.80	0	3.5630	0	34.2980	0	27.278	0	880.810	0	7.3	4	2.3	4	-1E+10	1	-1E+10	1	-1E+10	1	-1E+10	1	-1E+10	1	-1E+10	1
4902643	18	C	12/18/2024	09:25	-134.198	43.504	0	909.70	0	3.5590	0	34.3130	0	27.290	0	900.466	0	7.0	4	2.2	4	-1E+10	1	-1E+10	1	-1E+10	1	-1E+10	1	-1E+10	1	-1E+10	1
4902643	18	C	12/18/2024	09:25	-134.198	43.504	0	929.60	0	3.5430	0	34.3280	0	27.304	0	920.121	0	6.8	4	2.1	4	-1E+10	1	-1E+10	1	-1E+10	1	-1E+10	1	-1E+10	1	-1E+10	1
4902643	18	C	12/18/2024	09:25	-134.198	43.504	0	949.30	0	3.5250	0	34.3380	0	27.314	0	939.575	0	6.7	4	2.1	4	-1E+10	1	-1E+10	1	-1E+10	1	-1E+10	1	-1E+10	1	-1E+10	1
4902643	18	C	12/18/2024	09:25	-134.198	43.504	0	970.00	0	3.4970	0	34.3460	0	27.323	0	960.016	0	6.7	4	2.1	4	-1E+10	1	-1E+10	1	-1E+10	1	-1E+10	1	-1E+10	1	-1E+10	1
4902643	18	C	12/18/2024	09:25	-134.198	43.504	0	989.50	0	3.4470	0	34.3550	0	27.335	0	979.270	0	6.8	4	2.1	4	-1E+10	1	-1E+10	1	-1E+10	1	-1E+10	1	-1E+10	1	-1E+10	1
4902643	18	C	12/18/2024	09:25	-134.198	43.504	0	1009.80	0	3.4270	0	34.3680	0	27.348	0	999.311	0	7.0	4	2.2	4	-1E+10	1	-1E+10	1	-1E+10	1	-1E+10	1	-1E+10	1	-1E+10	1
4902643	18	C	12/18/2024	09:25	-134.198	43.504	0	1030.60	0	3.4070	0	34.3800	0	27.359	0	1019.845	0	7.3	4	2.3	4	-1E+10	1	-1E+10	1	-1E+10	1	-1E+10	1	-1E+10	1	-1E+10	1
4902643	18	C	12/18/2024	09:25	-134.198	43.504	0	1049.60	0	3.3880	0	34.3880	0	27.367	0	1038.600	0	7.5	4	2.3	4	-1E+10	1	-1E+10	1	-1E+10	1	-1E+10	1	-1E+10	1	-1E+10	1
4902643	18	C	12/18/2024	09:25	-134.198	43.504	0	1069.40	0	3.3530	0	34.3940	0	27.376	0	1058.142	0	7.7	4	2.4	4	-1E+10	1	-1E+10	1	-1E+10	1	-1E+10	1	-1E+10	1	-1E+10	1
4902643	18	C	12/18/2024	09:25	-134.198	43.504	0	1089.50	0	3.3180	0	34.4010	0	27.385	0	1077.979	0	8.1	4	2.5	4	-1E+10	1	-1E+10	1	-1E+10	1	-1E+10	1	-1E+10	1	-1E+10	1
4902643	18	C	12/18/2024	09:25	-134.198	43.504	0	1109.40	0	3.2990	0	34.4080	0	27.392	0	1097.617	0	8.3	4	2.6	4	-1E+10	1	-1E+10	1	-1E+10	1	-1E+10	1	-1E+10	1	-1E+10	1
4902643	18	C	12/18/2024	09:25	-134.198	43.504	0	1129.40	0	3.2760	0	34.4130	0	27.398	0	1117.351	0	8.7	4	2.7	4	-1E+10	1	-1E+10	1	-1E+10	1	-1E+10	1	-1E+10	1	-1E+10	1
4902643	18	C	12/18/2024	09:25	-134.198	43.504	0	1149.50	0	3.2480	0	34.4200	0	27.407	0	1137.182	0	9.1	4	2.8	4	-1E+10	1	-1E+10	1	-1E+10	1	-1E+10	1	-1E+10	1	-1E+10	1
4902643	18	C	12/18/2024	09:25	-134.198	43.504	0	1169.60	0	3.1970	0	34.4260	0	27.416	0	1157.011	0	9.4	4	2.9	4	-1E+10	1	-1E+10	1	-1E+10	1	-1E+10	1	-1E+10	1	-1E+10	1
4902643	18	C	12/18/2024	09:25	-134.198	43.504	0	1189.70	0	3.1540	0	34.4310	0	27.424	0	1176.839	0	9.6	4	3.0	4	-1E+10	1	-1E+10	1	-1E+10	1	-1E+10	1	-1E+10	1	-1E+10	1
4902643	18	C	12/18/2024	09:25	-134.198	43.504	0	1209.90	0	3.1160	0	34.4360	0	27.432	0	1196.763	0	10.0	4	3.1	4	-1E+10	1	-1E+10	1	-1E+10	1	-1E+10	1	-1E+10	1	-1E+10	1
4902643	18	C	12/18/2024	09:25	-134.198	43.504	0	1229.70	0	3.0750	0	34.4410	0	27.440	0	1216.291	0	10.4	4	3.2	4	-1E+10	1	-1E+10	1	-1E+10	1	-1E+10	1	-1E+10	1	-1E+10	1
4902643	18	C	12/18/2024	09:25	-134.198	43.504	0	1249.50	0	3.0300	0	34.4470	0	27.449	0	1235.817	0	11.0	4	3.4	4	-1E+10	1	-1E+10	1	-1E+10	1	-1E+10	1	-1E+10	1	-1E+10	1
4902643	18	C	12/18/2024	09:25	-134.198	43.504	0	1269.90	0	2.9790	0	34.4530	0	27.458	0	1255.933	0	11.7	4	3.6	4	-1E+10	1	-1E+10	1	-1E+10	1	-1E+10	1	-1E+10	1	-1E+10	1
4902643	18	C	12/18/2024	09:25	-134.198	43.504	0	1289.70	0	2.9390	0	34.4600	0	27.468	0	1275.455	0	12.6	4	3.9	4	-1E+10	1	-1E+10	1	-1E+10	1	-1E+10	1	-1E+10	1	-1E+10	1
4902643	18	C	12/18/2024	09:25	-134.198	43.504	0	1309.60	0	2.8930	0	34.4670	0	27.477	0	1295.074	0	13.4	4	4.1	4	-1E+10	1	-1E+10	1	-1E+10	1	-1E+10	1	-1E+10	1	-1E+10	1
4902643	18	C	12/18/2024	09:25	-134.198	43.504	0	1329.90	0	2.8570	0	34.4730	0	27.486	0	1315.085	0	14.4	4	4.4	4	-1E+10	1	-1E+10	1	-1E+10	1	-1E+10	1	-1E+10	1	-1E+10	1
4902643	18	C	12/18/2024	09:25	-134.198	43.504	0	1349.90	0	2.8140	0	34.4790	0	27.494	0	1334.799	0	15.3	4	4.7	4	-1E+10	1	-1E+10	1	-1E+10	1	-1E+10	1	-1E+10	1	-1E+10	1
4902643	18	C	12/18/2024	09:25	-134.198	43.504	0	1370.30	0	2.7710	0	34.4840	0	27.502	0	1354.906	0	16.5	4	5.1	4	-1E+10	1	-1E+10	1	-1E+10	1	-1E+10	1	-1E+10	1	-1E+10	1
4902643	18	C	12/18/2024	09:25	-134.198	43.504	0	1389.80	0	2.7210	0	34.4910	0	27.512	0	1374.123	0	17.8	4	5.5	4	-1E+10	1	-1E+10	1	-1E+10	1	-1E+10	1	-1E+10	1	-1E+10	1
4902643	18	C	12/18/2024	09:25	-134.198	43.504	0	1409.90	0	2.6800	0	34.4960	0	27.520	0	1393.930	0	18.9	4	5.8	4	-1E+10	1	-1E+10	1	-1E+10	1	-1E+10	1	-1E+10	1	-1E+10	1
4902643	18	C	12/18/2024	09:25	-134.198	43.504	0	1429.80	0	2.6460	0	34.5010	0	27.527	0	1413.538	0	19.9	4	6.1	4	-1E+10	1	-1E+10	1	-1E+10	1	-1E+10	1	-1E+10	1	-1E+10	1
4902643	18	C	12/18/2024	09:25	-134.198	43.504	0	1450.00	0	2.6150	0	34.5050	0	27.533	0	1433.440	0	20.9	4	6.4	4	-1E+10	1	-1E+10	1	-1E+10	1	-1E+10	1	-1E+10	1	-1E+10	1
4902643	18	C	12/18/2024	09:25	-134.198	43.504	0	1470.00	0	2.5820	0	34.5090	0	27.539	0	1453.142	0	21.9	4	6.7	4	-1E+10	1	-1E+10	1	-1E+10	1	-1E+10	1	-1E+10	1	-1E+10	1
4902643	18	C	12/18/2024	09:25	-134.198	43.504	0	1489.70	0	2.5620	0	34.5120	0	27.543	0	1472.548	0	22.8	4	7.0	4	-1E+10	1	-1E+10	1	-1E+10	1	-1E+10	1	-1E+10	1	-1E+10	1
4902643	18	C	12/18/2024	09:25	-134.198	43.504	0	1509.70	0	2.5370	0	34.5150	0	27.548	0	1492.247	0	24.0	4	7.3	4	-1E+10	1	-1E+10	1	-1E+10	1	-1E+10	1	-1E+10	1	-1E+10	1
4902643	18	C	12/18/2024	09:25	-134.198	43.504	0	1529.80	0	2.5060	0	34.5200	0	27.554	0	1512.043	0	25.4	4	7.7	4	-1E+10	1	-1E+10	1	-1E+10	1	-1E+10	1	-1E+10	1	-1E+10	1
4902643	18	C	12/18/2024	09:25	-134.198	43.504	0	1550.30	0	2.4720	0	34.5240	0	27.561	0	1532.231	0	27.0	4	8.2	4	-1E+10	1	-1E+10	1	-1E+10	1	-1E+10	1	-1E+10	1	-1E+10	1
4902643	18	C	12/18/2024	09:25	-134.198	43.504	0	1569.80	0	2.4290	0	34.5300	0	27.569	0	1551.432	0	28.8	4	8.8	4	-1E+10	1	-1E+10	1	-1E+10	1	-1E+10	1	-1E+10	1	-1E+10	1
4902643	18	C	12/18/2024	09:25	-134.198	43.504	0	1589.90	0	2.3990	0	34.5350	0	27.576	0	1571.222	0	30.2	4	9.2	4	-1E+10	1	-1E+10	1	-1E+10	1	-1E+10	1	-1E+10	1	-1E+10	1
4902643	18	C	12/18/2024	09:25	-134.198	43.504	0	1609.90	0	2.3680	0	34.5390	0	27.582	0	1590.912	0	31.3	4	9.5	4	-1E+10	1	-1E+10	1	-1E+10	1	-1E+10	1	-1E+10	1	-1E+10	1
4902643	18	C	12/18/2024	09:25	-134.198	43.504	0	1630.10	0	2.3270	0	34.5420	0	27.587	0	1610.797	0	32.5	4	9.9	4	-1E+10	1	-1E+10	1	-1E+10	1	-1E+10	1	-1E+10	1	-1E+10	1
4902643	18	C	12/18/2024	09:25	-134.198	43.504	0	1649.60	0	2.2940	0	34.5460	0	27.593	0	1629.991	0	33.8	4	10.3	4	-1E+10	1	-1E+10	1	-1E+10	1	-1E+10	1	-1E+10	1	-1E+10	1
4902643	18	C	12/18/2024	09:25	-134.198	43.504	0	1670.20	0	2.2740	0	34.5490	0	27.597	0	1650.266	0	35.6	4	10.8	4	-1E+10	1	-1E+10	1	-1E+10	1	-1E+10	1	-1E+10	1	-1E+10	1
4902643	18	C	12/18/2024	09:25	-134.198	43.504	0	1689.50	0	2.2470	0	34.5540	0	27.604	0	1669.260	0	37.0	4	11.2	4	-1E+10	1	-1E+10	1	-1E+10	1	-1E+10	1	-1E+10	1	-1E+10	1
4902643	18	C	12/18/2024	09:25	-134.198	43.504	0	1709.50	0	2.2210	0	34.5570	0	27.608	0	1688.941	0	38.1	4	11.5	4	-1E+10	1	-1E+10	1	-1E+10	1	-1E+10	1	-1E+10	1	-1E+10	1
4902643	18	C	12/18/2024	09:25	-134.198	43.504	0	1729.50	0	2.2030	0	34.5590	0	27.612	0	1708.620	0	39.2	4	11.9	4	-1E+10	1	-1E+10	1	-1E+10	1	-1E+10	1	-1E+10	1	-1E+10	1
4902643	18	C	12/18/2024	09:25	-134.198	43.504	0	1749.70	0	2.1780	0	34.5620	0	27.616	0	1728.493	0	40.3	4	12.2	4	-1E+10	1	-1E+10	1	-1E+10	1	-1E+10	1	-1E+10	1	-1E+10	1
4902643	18	C	12/18/2024	09:25	-134.198	43.504	0	1770.40	0	2.1520	0	34.5660	0	27.621	0	1748.857	0	41.7	4	12.6	4	-1E+10	1	-1E+10	1	-1E+10	1	-1E+10	1	-1E+10	1	-1E+10	1
4902643	18	C	12/18/2024	09:25	-134.198	43.504	0	1789.80	0	2.1330	0	34.5680	0	27.625	0	1767.941	0	42.8	4	12.9	4	-1E+10	1	-1E+10	1	-1E+10	1	-1E+10	1	-1E+10	1	-1E+10	1
4902643	18	C	12/18/2024	09:25	-134.198	43.504	0	1809.80	0	2.1140	0	34.5710	0	27.629	0	1787.612	0	44.0	4	13.3	4	-1E+10	1	-1E+10	1	-1E+10	1	-1E+10	1	-1E+10	1	-1E+10	1
4902643	18	C	12/18/2024	09:25	-134.198	43.504	0	1829.60	0	2.0920	0	34.5740	0	27.633	0	1807.085	0	45.6	4	13.8	4	-1E+10	1	-1E+10	1	-1E+10	1	-1E+10	1	-1E+10	1	-1E+10	1
4902643	18	C	12/18/2024	09:25	-134.198	43.504	0	1849.80	0	2.0710	0	34.5770	0	27.637	0	1826.950	0	47.0	4	14.2	4	-1E+10	1	-1E+10	1	-1E+10	1	-1E+10	1	-1E+10	1	-1E+10	1
4902643	18	C	12/18/2024	09:25	-134.198	43.504	0	1870.00	0	2.0470	0	34.5810	0	27.642	0	1846.813	0	48.5	4	14.6	4	-1E+10	1	-1E+10	1	-1E+10	1	-1E+10	1	-1E+10	1	-1E+10	1
4902643	18	C	12/18/2024	09:25	-134.198	43.504	0	1889.80	0	2.0300	0	34.5840	0	27.646	0	1866.280	0	49.5	4	14.9	4	-1E+10	1	-1E+10	1	-1E+10	1	-1E+10	1	-1E+10	1	-1E+10	1
4902643	18	C	12/18/2024	09:25	-134.198	43.504	0	1910.30	0	2.0120	0	34.5870	0	27.650	0	1886.435	0	50.5	4	15.2	4	-1E+10	1	-1E+10	1	-1E+10	1	-1E+10	1	-1E+10	1	-1E+10	1
4902643	18	C	12/18/2024	09:25	-134.198	43.504	0	1929.70	0	1.9980	0	34.5890	0	27.653	0	1905.505	0	51.5	4	15.5	4	-1E+10	1	-1E+10	1	-1E+10	1	-1E+10	1	-1E+10	1	-1E+10	1
4902643	18	C	12/18/2024	09:25	-134.198	43.504	0	1949.50	0	1.9830	0	34.5910	0	27.656	0	1924.968	0	52.8	4	15.9	4	-1E+10	1	-1E+10	1	-1E+10	1	-1E+10	1	-1E+10	1	-1E+10	1
4902643	18	C	12/18/2024	09:25	-134.198	43.504	0	1969.30	0	1.9660	0	34.5940	0	27.659	0	1944.428	0	54.0	4	16.3	4	-1E+10	1	-1E+10	1	-1E+10	1	-1E+10	1	-1E+10	1	-1E+10	1
4902643	18	C	12/18/2024	09:25	-134.198	43.504	0	1989.50	0	1.9500	0	34.5960	0	27.662	0	1964.280	0	55.1	4	16.6	4	-1E+10	1	-1E+10	1	-1E+10	1	-1E+10	1	-1E+10	1	-1E+10	1
4902643	18	C	12/18/2024	09:25	-134.198	43.504	0	2009.90	0	1.9380	0	34.5980	4	27.665	0	1984.326	0	56.0	4	16.9	4	-1E+10	1	-1E+10	1	-1E+10	1	-1E+10	1	-1E+10	1	-1E+10	1
4902643	18	C	12/18/2024	09:25	-134.198	43.504	0	2029.90	0	1.9290	0	34.6000	4	27.667	0	2003.978	0	56.9	4	17.1	4	-1E+10	1	-1E+10	1	-1E+10	1	-1E+10	1	-1E+10	1	-1E+10	1
4902643	18	C	12/18/2024	09:25	-134.198	43.504	0	2049.60	0	1.9190	0	34.6010	4	27.669	0	2023.333	0	57.7	4	17.4	4	-1E+10	1	-1E+10	1	-1E+10	1	-1E+10	1	-1E+10	1	-1E+10	1
4902643	18	C	12/18/2024	09:25	-134.198	43.504	0	2069.80	0	1.9100	0	34.6030	4	27.672	0	2043.178	0	58.5	4	17.6	4	-1E+10	1	-1E+10	1	-1E+10	1	-1E+10	1	-1E+10	1	-1E+10	1
4902643	18	C	12/18/2024	09:25	-134.198	43.504	0	2090.00	0	1.9010	0	34.6040	4	27.673	0	2063.020	0	59.3	4	17.8	4	-1E+10	1	-1E+10	1	-1E+10	1	-1E+10	1	-1E+10	1	-1E+10	1
4902643	18	C	12/18/2024	09:25	-134.198	43.504	0	2109.90	0	1.8920	0	34.6060	4	27.676	0	2082.566	0	60.1	4	18.1	4	-1E+10	1	-1E+10	1	-1E+10	1	-1E+10	1	-1E+10	1	-1E+10	1
4902643	18	C	12/18/2024	09:25	-134.198	43.504	0	2129.60	0	1.8840	0	34.6070	4	27.677	0	2101.914	0	61.0	4	18.3	4	-1E+10	1	-1E+10	1	-1E+10	1	-1E+10	1	-1E+10	1	-1E+10	1
4902643	18	C	12/18/2024	09:25	-134.198	43.504	0	2149.80	0	1.8710	0	34.6090	4	27.680	0	2121.751	0	62.0	4	18.6	4	-1E+10	1	-1E+10	1	-1E+10	1	-1E+10	1	-1E+10	1	-1E+10	1
4902643	18	C	12/18/2024	09:25	-134.198	43.504	0	2169.70	0	1.8660	0	34.6100	4	27.681	0	2141.292	0	62.5	4	18.8	4	-1E+10	1	-1E+10	1	-1E+10	1	-1E+10	1	-1E+10	1	-1E+10	1
4902643	18	C	12/18/2024	09:25	-134.198	43.504	0	2189.50	0	1.8600	0	34.6110	4	27.682	0	2160.733	0	63.3	4	19.0	4	-1E+10	1	-1E+10	1	-1E+10	1	-1E+10	1	-1E+10	1	-1E+10	1
4902643	18	C	12/18/2024	09:25	-134.198	43.504	0	2210.00	0	1.8500	0	34.6130	4	27.685	0	2180.859	0	64.3	4	19.3	4	-1E+10	1	-1E+10	1	-1E+10	1	-1E+10	1	-1E+10	1	-1E+10	1
4902643	18	C	12/18/2024	09:25	-134.198	43.504	0	2230.70	0	1.8400	0	34.6140	4	27.687	0	2201.180	0	65.1	4	19.6	4	-1E+10	1	-1E+10	1	-1E+10	1	-1E+10	1	-1E+10	1	-1E+10	1
4902643	18	C	12/18/2024	09:25	-134.198	43.504	0	2249.50	0	1.8320	0	34.6160	4	27.689	0	2219.633	0	66.0	4	19.8	4	-1E+10	1	-1E+10	1	-1E+10	1	-1E+10	1	-1E+10	1	-1E+10	1
4902643	18	C	12/18/2024	09:25	-134.198	43.504	0	2269.70	0	1.8220	0	34.6170	4	27.691	0	2239.460	0	67.0	4	20.1	4	-1E+10	1	-1E+10	1	-1E+10	1	-1E+10	1	-1E+10	1	-1E+10	1
4902643	18	C	12/18/2024	09:25	-134.198	43.504	0	2290.60	0	1.8130	0	34.6190	4	27.693	0	2259.971	0	67.9	4	20.4	4	-1E+10	1	-1E+10	1	-1E+10	1	-1E+10	1	-1E+10	1	-1E+10	1
4902643	18	C	12/18/2024	09:25	-134.198	43.504	0	2309.70	0	1.8030	0	34.6200	4	27.695	0	2278.714	0	68.5	4	20.5	4	-1E+10	1	-1E+10	1	-1E+10	1	-1E+10	1	-1E+10	1	-1E+10	1
4902643	18	C	12/18/2024	09:25	-134.198	43.504	0	2329.80	0	1.7970	0	34.6210	4	27.696	0	2298.437	0	68.9	4	20.7	4	-1E+10	1	-1E+10	1	-1E+10	1	-1E+10	1	-1E+10	1	-1E+10	1
4902643	18	C	12/18/2024	09:25	-134.198	43.504	0	2350.00	0	1.7930	0	34.6210	4	27.696	0	2318.256	0	69.6	4	20.9	4	-1E+10	1	-1E+10	1	-1E+10	1	-1E+10	1	-1E+10	1	-1E+10	1
4902643	18	C	12/18/2024	09:25	-134.198	43.504	0	2369.30	0	1.7820	0	34.6230	4	27.699	0	2337.190	0	70.7	4	21.2	4	-1E+10	1	-1E+10	1	-1E+10	1	-1E+10	1	-1E+10	1	-1E+10	1
4902643	18	C	12/18/2024	09:25	-134.198	43.504	0	2389.50	0	1.7710	0	34.6240	4	27.701	0	2357.005	0	71.8	4	21.5	4	-1E+10	1	-1E+10	1	-1E+10	1	-1E+10	1	-1E+10	1	-1E+10	1
4902643	18	C	12/18/2024	09:25	-134.198	43.504	0	2409.70	0	1.7630	0	34.6250	4	27.702	0	2376.818	0	72.4	4	21.7	4	-1E+10	1	-1E+10	1	-1E+10	1	-1E+10	1	-1E+10	1	-1E+10	1
4902643	18	C	12/18/2024	09:25	-134.198	43.504	0	2429.60	0	1.7600	0	34.6260	4	27.703	0	2396.336	0	73.3	4	22.0	4	-1E+10	1	-1E+10	1	-1E+10	1	-1E+10	1	-1E+10	1	-1E+10	1
4902643	18	C	12/18/2024	09:25	-134.198	43.504	0	2449.60	0	1.7500	0	34.6270	4	27.705	0	2415.950	0	74.1	4	22.2	4	-1E+10	1	-1E+10	1	-1E+10	1	-1E+10	1	-1E+10	1	-1E+10	1
4902643	18	C	12/18/2024	09:25	-134.198	43.504	0	2469.60	0	1.7420	0	34.6290	4	27.707	0	2435.562	0	75.0	4	22.5	4	-1E+10	1	-1E+10	1	-1E+10	1	-1E+10	1	-1E+10	1	-1E+10	1
4902643	18	C	12/18/2024	09:25	-134.198	43.504	0	2489.40	0	1.7350	0	34.6300	4	27.709	0	2454.976	0	75.8	4	22.7	4	-1E+10	1	-1E+10	1	-1E+10	1	-1E+10	1	-1E+10	1	-1E+10	1
4902643	18	C	12/18/2024	09:25	-134.198	43.504	0	2509.70	0	1.7280	0	34.6310	4	27.710	0	2474.878	0	76.7	4	23.0	4	-1E+10	1	-1E+10	1	-1E+10	1	-1E+10	1	-1E+10	1	-1E+10	1
4902643	18	C	12/18/2024	09:25	-134.198	43.504	0	2529.90	0	1.7170	0	34.6320	4	27.712	0	2494.681	0	77.8	4	23.3	4	-1E+10	1	-1E+10	1	-1E+10	1	-1E+10	1	-1E+10	1	-1E+10	1
4902643	18	C	12/18/2024	09:25	-134.198	43.504	0	2550.50	0	1.7080	0	34.6330	4	27.714	0	2514.874	0	78.8	4	23.6	4	-1E+10	1	-1E+10	1	-1E+10	1	-1E+10	1	-1E+10	1	-1E+10	1
4902643	18	C	12/18/2024	09:25	-134.198	43.504	0	2569.60	0	1.7030	0	34.6340	4	27.715	0	2533.595	0	79.4	4	23.8	4	-1E+10	1	-1E+10	1	-1E+10	1	-1E+10	1	-1E+10	1	-1E+10	1
4902643	18	C	12/18/2024	09:25	-134.198	43.504	0	2589.60	0	1.6970	0	34.6350	4	27.716	0	2553.196	0	80.2	4	24.0	4	-1E+10	1	-1E+10	1	-1E+10	1	-1E+10	1	-1E+10	1	-1E+10	1
4902643	18	C	12/18/2024	09:25	-134.198	43.504	0	2609.80	0	1.6910	0	34.6360	4	27.718	0	2572.991	0	80.9	4	24.2	4	-1E+10	1	-1E+10	1	-1E+10	1	-1E+10	1	-1E+10	1	-1E+10	1
4902643	18	C	12/18/2024	09:25	-134.198	43.504	0	2629.70	0	1.6860	0	34.6370	4	27.719	0	2592.491	0	81.6	4	24.4	4	-1E+10	1	-1E+10	1	-1E+10	1	-1E+10	1	-1E+10	1	-1E+10	1
4902643	18	C	12/18/2024	09:25	-134.198	43.504	0	2649.70	0	1.6800	0	34.6380	4	27.720	0	2612.087	0	82.3	4	24.6	4	-1E+10	1	-1E+10	1	-1E+10	1	-1E+10	1	-1E+10	1	-1E+10	1
4902643	18	C	12/18/2024	09:25	-134.198	43.504	0	2669.70	0	1.6750	0	34.6380	4	27.721	0	2631.681	0	83.0	4	24.8	4	-1E+10	1	-1E+10	1	-1E+10	1	-1E+10	1	-1E+10	1	-1E+10	1
4902643	18	C	12/18/2024	09:25	-134.198	43.504	0	2689.50	0	1.6710	0	34.6390	4	27.722	0	2651.077	0	83.6	4	25.0	4	-1E+10	1	-1E+10	1	-1E+10	1	-1E+10	1	-1E+10	1	-1E+10	1
4902643	18	C	12/18/2024	09:25	-134.198	43.504	0	2709.50	0	1.6670	0	34.6400	4	27.723	0	2670.668	0	84.4	4	25.2	4	-1E+10	1	-1E+10	1	-1E+10	1	-1E+10	1	-1E+10	1	-1E+10	1
4902643	18	C	12/18/2024	09:25	-134.198	43.504	0	2730.30	0	1.6600	0	34.6410	4	27.725	0	2691.040	0	85.4	4	25.5	4	-1E+10	1	-1E+10	1	-1E+10	1	-1E+10	1	-1E+10	1	-1E+10	1
4902643	18	C	12/18/2024	09:25	-134.198	43.504	0	2749.90	0	1.6530	0	34.6420	4	27.726	0	2710.235	0	86.2	4	25.8	4	-1E+10	1	-1E+10	1	-1E+10	1	-1E+10	1	-1E+10	1	-1E+10	1
4902643	18	C	12/18/2024	09:25	-134.198	43.504	0	2769.90	0	1.6490	0	34.6430	4	27.727	0	2729.820	0	86.8	4	26.0	4	-1E+10	1	-1E+10	1	-1E+10	1	-1E+10	1	-1E+10	1	-1E+10	1
4902643	18	C	12/18/2024	09:25	-134.198	43.504	0	2790.40	0	1.6430	0	34.6440	4	27.729	0	2749.893	0	87.6	4	26.2	4	-1E+10	1	-1E+10	1	-1E+10	1	-1E+10	1	-1E+10	1	-1E+10	1
4902643	18	C	12/18/2024	09:25	-134.198	43.504	0	2809.90	0	1.6380	0	34.6440	4	27.729	0	2768.985	0	88.3	4	26.4	4	-1E+10	1	-1E+10	1	-1E+10	1	-1E+10	1	-1E+10	1	-1E+10	1
4902643	18	C	12/18/2024	09:25	-134.198	43.504	0	2829.60	0	1.6350	0	34.6450	4	27.730	0	2788.271	0	89.0	4	26.6	4	-1E+10	1	-1E+10	1	-1E+10	1	-1E+10	1	-1E+10	1	-1E+10	1
4902643	18	C	12/18/2024	09:25	-134.198	43.504	0	2849.60	0	1.6300	0	34.6460	4	27.732	0	2807.849	0	89.8	4	26.8	4	-1E+10	1	-1E+10	1	-1E+10	1	-1E+10	1	-1E+10	1	-1E+10	1
4902643	18	C	12/18/2024	09:25	-134.198	43.504	0	2869.90	0	1.6260	0	34.6470	4	27.733	0	2827.719	0	90.4	4	27.0	4	-1E+10	1	-1E+10	1	-1E+10	1	-1E+10	1	-1E+10	1	-1E+10	1
4902643	18	C	12/18/2024	09:25	-134.198	43.504	0	2889.80	0	1.6220	0	34.6480	4	27.734	0	2847.196	0	91.2	4	27.2	4	-1E+10	1	-1E+10	1	-1E+10	1	-1E+10	1	-1E+10	1	-1E+10	1
4902643	18	C	12/18/2024	09:25	-134.198	43.504	0	2909.50	0	1.6180	0	34.6480	4	27.734	0	2866.475	0	91.9	4	27.4	4	-1E+10	1	-1E+10	1	-1E+10	1	-1E+10	1	-1E+10	1	-1E+10	1
4902643	18	C	12/18/2024	09:25	-134.198	43.504	0	2930.20	0	1.6150	0	34.6490	4	27.736	0	2886.731	0	92.4	4	27.6	4	-1E+10	1	-1E+10	1	-1E+10	1	-1E+10	1	-1E+10	1	-1E+10	1
4902643	18	C	12/18/2024	09:25	-134.198	43.504	0	2949.60	0	1.6110	0	34.6500	4	27.737	0	2905.713	0	93.0	4	27.8	4	-1E+10	1	-1E+10	1	-1E+10	1	-1E+10	1	-1E+10	1	-1E+10	1
4902643	18	C	12/18/2024	09:25	-134.198	43.504	0	2969.70	0	1.6080	0	34.6500	4	27.737	0	2925.378	0	93.6	4	28.0	4	-1E+10	1	-1E+10	1	-1E+10	1	-1E+10	1	-1E+10	1	-1E+10	1
4902643	18	C	12/18/2024	09:25	-134.198	43.504	0	2989.70	0	1.6030	0	34.6510	4	27.738	0	2944.944	0	94.4	4	28.2	4	-1E+10	1	-1E+10	1	-1E+10	1	-1E+10	1	-1E+10	1	-1E+10	1
4902643	18	C	12/18/2024	09:25	-134.198	43.504	0	3010.50	0	1.5980	0	34.6520	4	27.740	0	2965.291	0	95.0	4	28.4	4	-1E+10	1	-1E+10	1	-1E+10	1	-1E+10	1	-1E+10	1	-1E+10	1
4902643	18	C	12/18/2024	09:25	-134.198	43.504	0	3030.00	0	1.5960	0	34.6520	4	27.740	0	2984.364	0	95.5	4	28.5	4	-1E+10	1	-1E+10	1	-1E+10	1	-1E+10	1	-1E+10	1	-1E+10	1
4902643	18	C	12/18/2024	09:25	-134.198	43.504	0	3049.70	0	1.5920	0	34.6530	4	27.741	0	3003.631	0	96.1	4	28.7	4	-1E+10	1	-1E+10	1	-1E+10	1	-1E+10	1	-1E+10	1	-1E+10	1
4902643	18	C	12/18/2024	09:25	-134.198	43.504	0	3069.70	0	1.5900	0	34.6530	4	27.741	0	3023.189	0	96.6	4	28.8	4	-1E+10	1	-1E+10	1	-1E+10	1	-1E+10	1	-1E+10	1	-1E+10	1
4902643	18	C	12/18/2024	09:25	-134.198	43.504	0	3089.70	0	1.5850	0	34.6540	4	27.743	0	3042.746	0	97.4	4	29.1	4	-1E+10	1	-1E+10	1	-1E+10	1	-1E+10	1	-1E+10	1	-1E+10	1
4902643	18	C	12/18/2024	09:25	-134.198	43.504	0	3109.80	0	1.5800	0	34.6550	4	27.744	0	3062.399	0	98.1	4	29.3	4	-1E+10	1	-1E+10	1	-1E+10	1	-1E+10	1	-1E+10	1	-1E+10	1
4902643	18	C	12/18/2024	09:25	-134.198	43.504	0	3129.90	0	1.5750	0	34.6560	4	27.745	0	3082.050	0	98.9	4	29.5	4	-1E+10	1	-1E+10	1	-1E+10	1	-1E+10	1	-1E+10	1	-1E+10	1
4902643	18	C	12/18/2024	09:25	-134.198	43.504	0	3149.80	0	1.5710	0	34.6560	4	27.746	0	3101.504	0	99.5	4	29.7	4	-1E+10	1	-1E+10	1	-1E+10	1	-1E+10	1	-1E+10	1	-1E+10	1
4902643	18	C	12/18/2024	09:25	-134.198	43.504	0	3169.80	0	1.5660	0	34.6570	4	27.747	0	3121.054	0	100.2	4	29.9	4	-1E+10	1	-1E+10	1	-1E+10	1	-1E+10	1	-1E+10	1	-1E+10	1
4902643	18	C	12/18/2024	09:25	-134.198	43.504	0	3190.00	0	1.5630	0	34.6580	4	27.748	0	3140.797	0	100.8	4	30.1	4	-1E+10	1	-1E+10	1	-1E+10	1	-1E+10	1	-1E+10	1	-1E+10	1
4902643	18	C	12/18/2024	09:25	-134.198	43.504	0	3209.70	0	1.5600	0	34.6590	4	27.749	0	3160.051	0	101.4	4	30.2	4	-1E+10	1	-1E+10	1	-1E+10	1	-1E+10	1	-1E+10	1	-1E+10	1
4902643	18	C	12/18/2024	09:25	-134.198	43.504	0	3230.30	0	1.5570	0	34.6590	4	27.750	0	3180.182	0	101.9	4	30.4	4	-1E+10	1	-1E+10	1	-1E+10	1	-1E+10	1	-1E+10	1	-1E+10	1
4902643	18	C	12/18/2024	09:25	-134.198	43.504	0	3249.90	0	1.5550	0	34.6600	4	27.751	0	3199.333	0	102.4	4	30.5	4	-1E+10	1	-1E+10	1	-1E+10	1	-1E+10	1	-1E+10	1	-1E+10	1
4902643	18	C	12/18/2024	09:25	-134.198	43.504	0	3270.10	0	1.5520	0	34.6600	4	27.751	0	3219.070	0	102.8	4	30.7	4	-1E+10	1	-1E+10	1	-1E+10	1	-1E+10	1	-1E+10	1	-1E+10	1
4902643	18	C	12/18/2024	09:25	-134.198	43.504	0	3289.90	0	1.5510	0	34.6600	4	27.751	0	3238.414	0	103.2	4	30.8	4	-1E+10	1	-1E+10	1	-1E+10	1	-1E+10	1	-1E+10	1	-1E+10	1
4902643	18	C	12/18/2024	09:25	-134.198	43.504	0	3309.80	0	1.5500	0	34.6610	4	27.752	0	3257.854	0	103.6	4	30.9	4	-1E+10	1	-1E+10	1	-1E+10	1	-1E+10	1	-1E+10	1	-1E+10	1
4902643	18	C	12/18/2024	09:25	-134.198	43.504	0	3330.00	0	1.5490	0	34.6610	4	27.753	0	3277.585	0	104.0	4	31.0	4	-1E+10	1	-1E+10	1	-1E+10	1	-1E+10	1	-1E+10	1	-1E+10	1
4902643	18	C	12/18/2024	09:25	-134.198	43.504	0	3349.80	0	1.5470	0	34.6620	4	27.754	0	3296.924	0	104.5	4	31.2	4	-1E+10	1	-1E+10	1	-1E+10	1	-1E+10	1	-1E+10	1	-1E+10	1
4902643	18	C	12/18/2024	09:25	-134.198	43.504	0	3370.40	0	1.5450	0	34.6620	4	27.754	0	3317.042	0	105.0	4	31.3	4	-1E+10	1	-1E+10	1	-1E+10	1	-1E+10	1	-1E+10	1	-1E+10	1
4902643	18	C	12/18/2024	09:25	-134.198	43.504	0	3390.00	0	1.5440	0	34.6630	4	27.755	0	3336.182	0	105.2	4	31.4	4	-1E+10	1	-1E+10	1	-1E+10	1	-1E+10	1	-1E+10	1	-1E+10	1
4902643	18	C	12/18/2024	09:25	-134.198	43.504	0	3409.90	0	1.5440	0	34.6630	4	27.755	0	3355.613	0	105.5	4	31.5	4	-1E+10	1	-1E+10	1	-1E+10	1	-1E+10	1	-1E+10	1	-1E+10	1
4902643	18	C	12/18/2024	09:25	-134.198	43.504	0	3430.00	0	1.5430	0	34.6630	4	27.755	0	3375.238	0	105.8	4	31.6	4	-1E+10	1	-1E+10	1	-1E+10	1	-1E+10	1	-1E+10	1	-1E+10	1
4902643	18	C	12/18/2024	09:25	-134.198	43.504	0	3449.60	0	1.5420	0	34.6640	4	27.756	0	3394.373	0	106.2	4	31.7	4	-1E+10	1	-1E+10	1	-1E+10	1	-1E+10	1	-1E+10	1	-1E+10	1
4902643	18	C	12/18/2024	09:25	-134.198	43.504	0	3469.80	0	1.5410	0	34.6640	4	27.756	0	3414.091	0	106.5	4	31.8	4	-1E+10	1	-1E+10	1	-1E+10	1	-1E+10	1	-1E+10	1	-1E+10	1
4902643	18	C	12/18/2024	09:25	-134.198	43.504	0	3490.80	0	1.5420	0	34.6640	4	27.757	0	3434.589	0	106.7	4	31.8	4	-1E+10	1	-1E+10	1	-1E+10	1	-1E+10	1	-1E+10	1	-1E+10	1
4902643	18	C	12/18/2024	09:25	-134.198	43.504	0	3509.80	0	1.5420	0	34.6650	4	27.758	0	3453.133	0	106.9	4	31.9	4	-1E+10	1	-1E+10	1	-1E+10	1	-1E+10	1	-1E+10	1	-1E+10	1
4902643	18	C	12/18/2024	09:25	-134.198	43.504	0	3530.40	0	1.5410	0	34.6650	4	27.758	0	3473.237	0	107.2	4	32.0	4	-1E+10	1	-1E+10	1	-1E+10	1	-1E+10	1	-1E+10	1	-1E+10	1
4902643	18	C	12/18/2024	09:25	-134.198	43.504	0	3550.30	0	1.5410	0	34.6650	4	27.758	0	3492.656	0	107.4	4	32.0	4	-1E+10	1	-1E+10	1	-1E+10	1	-1E+10	1	-1E+10	1	-1E+10	1
4902643	18	C	12/18/2024	09:25	-134.198	43.504	0	3570.70	0	1.5420	0	34.6660	4	27.759	0	3512.561	0	107.7	4	32.1	4	-1E+10	1	-1E+10	1	-1E+10	1	-1E+10	1	-1E+10	1	-1E+10	1
4902643	18	C	12/18/2024	09:25	-134.198	43.504	0	3589.90	0	1.5420	0	34.6660	4	27.759	0	3531.294	0	107.9	4	32.2	4	-1E+10	1	-1E+10	1	-1E+10	1	-1E+10	1	-1E+10	1	-1E+10	1
4902643	18	C	12/18/2024	09:25	-134.198	43.504	0	3610.10	0	1.5420	0	34.6660	4	27.759	0	3551.001	0	108.1	4	32.2	4	-1E+10	1	-1E+10	1	-1E+10	1	-1E+10	1	-1E+10	1	-1E+10	1
4902643	18	C	12/18/2024	09:25	-134.198	43.504	0	3630.00	0	1.5430	0	34.6660	4	27.759	0	3570.413	0	108.3	4	32.3	4	-1E+10	1	-1E+10	1	-1E+10	1	-1E+10	1	-1E+10	1	-1E+10	1
4902643	18	C	12/18/2024	09:25	-134.198	43.504	0	3649.90	0	1.5430	0	34.6670	4	27.760	0	3589.823	0	108.5	4	32.3	4	-1E+10	1	-1E+10	1	-1E+10	1	-1E+10	1	-1E+10	1	-1E+10	1
4902643	18	C	12/18/2024	09:25	-134.198	43.504	0	3669.60	0	1.5440	0	34.6670	4	27.760	0	3609.037	0	108.7	4	32.4	4	-1E+10	1	-1E+10	1	-1E+10	1	-1E+10	1	-1E+10	1	-1E+10	1
4902643	18	C	12/18/2024	09:25	-134.198	43.504	0	3689.60	0	1.5430	0	34.6670	4	27.760	0	3628.542	0	109.0	4	32.5	4	-1E+10	1	-1E+10	1	-1E+10	1	-1E+10	1	-1E+10	1	-1E+10	1
4902643	18	C	12/18/2024	09:25	-134.198	43.504	0	3709.80	0	1.5440	0	34.6680	4	27.761	0	3648.239	0	109.1	4	32.5	4	-1E+10	1	-1E+10	1	-1E+10	1	-1E+10	1	-1E+10	1	-1E+10	1
4902643	18	C	12/18/2024	09:25	-134.198	43.504	0	3730.30	0	1.5450	0	34.6680	4	27.761	0	3668.228	0	109.2	4	32.6	4	-1E+10	1	-1E+10	1	-1E+10	1	-1E+10	1	-1E+10	1	-1E+10	1
4902643	18	C	12/18/2024	09:25	-134.198	43.504	0	3749.90	0	1.5460	0	34.6690	4	27.762	0	3687.337	0	109.3	4	32.6	4	-1E+10	1	-1E+10	1	-1E+10	1	-1E+10	1	-1E+10	1	-1E+10	1
4902643	18	C	12/18/2024	09:25	-134.198	43.504	0	3769.90	0	1.5470	0	34.6690	4	27.762	0	3706.835	0	109.2	4	32.6	4	-1E+10	1	-1E+10	1	-1E+10	1	-1E+10	1	-1E+10	1	-1E+10	1
4902643	18	C	12/18/2024	09:25	-134.198	43.504	0	3783.50	0	1.5480	0	34.6690	4	27.762	0	3720.092	0	109.0	4	32.5	4	-1E+10	1	-1E+10	1	-1E+10	1	-1E+10	1	-1E+10	1	-1E+10	1
4902643	18	C	12/18/2024	09:25	-134.198	43.504	0																										
4902643	19	C	12/28/2024	11:47	-134.154	43.434	0	0.70	0	11.9610	0	32.7480	0	24.848	0	0.694	0	242.8	4	90.7	4	-1E+10	1	-1E+10	1	-1E+10	1	-1E+10	1	-1E+10	1	-1E+10	1
4902643	19	C	12/28/2024	11:47	-134.154	43.434	0	0.80	0	11.9620	0	32.7500	0	24.850	0	0.794	0	242.8	4	90.7	4	-1E+10	1	-1E+10	1	-1E+10	1	-1E+10	1	-1E+10	1	-1E+10	1
4902643	19	C	12/28/2024	11:47	-134.154	43.434	0	0.90	0	11.9565	0	32.7530	0	24.853	0	0.893	0	242.7	4	90.7	4	-1E+10	1	-1E+10	1	-1E+10	1	-1E+10	1	-1E+10	1	-1E+10	1
4902643	19	C	12/28/2024	11:47	-134.154	43.434	0	1.00	0	11.9560	0	32.7530	0	24.853	0	0.992	0	242.5	4	90.6	4	-1E+10	1	-1E+10	1	-1E+10	1	-1E+10	1	-1E+10	1	-1E+10	1
4902643	19	C	12/28/2024	11:47	-134.154	43.434	0	1.10	0	11.9565	0	32.7528	0	24.853	0	1.091	0	242.5	4	90.6	4	-1E+10	1	-1E+10	1	-1E+10	1	-1E+10	1	-1E+10	1	-1E+10	1
4902643	19	C	12/28/2024	11:47	-134.154	43.434	0	1.60	0	11.9590	0	32.7520	0	24.852	0	1.587	0	242.3	4	90.5	4	-1E+10	1	-1E+10	1	-1E+10	1	-1E+10	1	-1E+10	1	-1E+10	1
4902643	19	C	12/28/2024	11:47	-134.154	43.434	0	2.60	0	11.9590	0	32.7530	0	24.853	0	2.579	0	242.3	4	90.5	4	-1E+10	1	-1E+10	1	-1E+10	1	-1E+10	1	-1E+10	1	-1E+10	1
4902643	19	C	12/28/2024	11:47	-134.154	43.434	0	3.40	0	11.9590	0	32.7530	0	24.853	0	3.373	0	242.3	4	90.5	4	-1E+10	1	-1E+10	1	-1E+10	1	-1E+10	1	-1E+10	1	-1E+10	1
4902643	19	C	12/28/2024	11:47	-134.154	43.434	0	4.50	0	11.9590	0	32.7530	0	24.853	0	4.464	0	242.2	4	90.5	4	-1E+10	1	-1E+10	1	-1E+10	1	-1E+10	1	-1E+10	1	-1E+10	1
4902643	19	C	12/28/2024	11:47	-134.154	43.434	0	5.70	0	11.9630	0	32.7530	0	24.852	0	5.654	0	242.2	4	90.5	4	-1E+10	1	-1E+10	1	-1E+10	1	-1E+10	1	-1E+10	1	-1E+10	1
4902643	19	C	12/28/2024	11:47	-134.154	43.434	0	6.60	0	11.9650	0	32.7530	0	24.852	0	6.547	0	242.1	4	90.4	4	-1E+10	1	-1E+10	1	-1E+10	1	-1E+10	1	-1E+10	1	-1E+10	1
4902643	19	C	12/28/2024	11:47	-134.154	43.434	0	8.00	0	11.9700	0	32.7530	0	24.851	0	7.936	0	242.0	4	90.4	4	-1E+10	1	-1E+10	1	-1E+10	1	-1E+10	1	-1E+10	1	-1E+10	1
4902643	19	C	12/28/2024	11:47	-134.154	43.434	0	9.00	0	11.9720	0	32.7540	0	24.851	0	8.928	0	242.0	4	90.4	4	-1E+10	1	-1E+10	1	-1E+10	1	-1E+10	1	-1E+10	1	-1E+10	1
4902643	19	C	12/28/2024	11:47	-134.154	43.434	0	9.90	0	11.9700	0	32.7540	0	24.851	0	9.821	0	242.1	4	90.4	4	-1E+10	1	-1E+10	1	-1E+10	1	-1E+10	1	-1E+10	1	-1E+10	1
4902643	19	C	12/28/2024	11:47	-134.154	43.434	0	14.90	0	11.9720	0	32.7530	0	24.850	0	14.781	0	242.0	4	90.4	4	-1E+10	1	-1E+10	1	-1E+10	1	-1E+10	1	-1E+10	1	-1E+10	1
4902643	19	C	12/28/2024	11:47	-134.154	43.434	0	24.70	0	11.9730	0	32.7530	0	24.851	0	24.502	0	241.8	4	90.3	4	-1E+10	1	-1E+10	1	-1E+10	1	-1E+10	1	-1E+10	1	-1E+10	1
4902643	19	C	12/28/2024	11:47	-134.154	43.434	0	35.10	0	11.9720	0	32.7520	0	24.850	0	34.817	0	241.7	4	90.3	4	-1E+10	1	-1E+10	1	-1E+10	1	-1E+10	1	-1E+10	1	-1E+10	1
4902643	19	C	12/28/2024	11:47	-134.154	43.434	0	45.30	0	11.9750	0	32.7530	0	24.851	0	44.934	0	241.5	4	90.2	4	-1E+10	1	-1E+10	1	-1E+10	1	-1E+10	1	-1E+10	1	-1E+10	1
4902643	19	C	12/28/2024	11:47	-134.154	43.434	0	55.00	0	11.9770	0	32.7520	0	24.850	0	54.554	0	241.2	4	90.1	4	-1E+10	1	-1E+10	1	-1E+10	1	-1E+10	1	-1E+10	1	-1E+10	1
4902643	19	C	12/28/2024	11:47	-134.154	43.434	0	65.20	0	11.9770	0	32.7520	0	24.850	0	64.670	0	240.8	4	90.0	4	-1E+10	1	-1E+10	1	-1E+10	1	-1E+10	1	-1E+10	1	-1E+10	1
4902643	19	C	12/28/2024	11:47	-134.154	43.434	0	74.80	0	11.9780	0	32.7520	0	24.850	0	74.190	0	239.8	4	89.6	4	-1E+10	1	-1E+10	1	-1E+10	1	-1E+10	1	-1E+10	1	-1E+10	1
4902643	19	C	12/28/2024	11:47	-134.154	43.434	0	85.20	0	11.9780	0	32.7510	0	24.849	0	84.503	0	236.9	4	88.5	4	-1E+10	1	-1E+10	1	-1E+10	1	-1E+10	1	-1E+10	1	-1E+10	1
4902643	19	C	12/28/2024	11:47	-134.154	43.434	0	95.40	0	10.9940	0	32.8300	0	25.090	0	94.617	0	229.8	4	84.2	4	-1E+10	1	-1E+10	1	-1E+10	1	-1E+10	1	-1E+10	1	-1E+10	1
4902643	19	C	12/28/2024	11:47	-134.154	43.434	0	105.00	0	9.7440	0	32.9400	0	25.388	0	104.136	0	228.1	4	81.4	4	-1E+10	1	-1E+10	1	-1E+10	1	-1E+10	1	-1E+10	1	-1E+10	1
4902643	19	C	12/28/2024	11:47	-134.154	43.434	0	114.80	0	9.5500	0	33.0200	0	25.483	0	113.853	0	218.8	4	77.8	4	-1E+10	1	-1E+10	1	-1E+10	1	-1E+10	1	-1E+10	1	-1E+10	1
4902643	19	C	12/28/2024	11:47	-134.154	43.434	0	124.90	0	9.2930	0	33.2070	0	25.670	0	123.867	0	207.1	4	73.3	4	-1E+10	1	-1E+10	1	-1E+10	1	-1E+10	1	-1E+10	1	-1E+10	1
4902643	19	C	12/28/2024	11:47	-134.154	43.434	0	134.90	0	9.0820	0	33.3060	0	25.781	0	133.781	0	200.8	4	70.8	4	-1E+10	1	-1E+10	1	-1E+10	1	-1E+10	1	-1E+10	1	-1E+10	1
4902643	19	C	12/28/2024	11:47	-134.154	43.434	0	144.80	0	8.7920	0	33.4280	0	25.922	0	143.595	0	198.2	4	69.5	4	-1E+10	1	-1E+10	1	-1E+10	1	-1E+10	1	-1E+10	1	-1E+10	1
4902643	19	C	12/28/2024	11:47	-134.154	43.434	0	155.10	0	8.6160	0	33.4930	0	26.001	0	153.805	0	196.9	4	68.8	4	-1E+10	1	-1E+10	1	-1E+10	1	-1E+10	1	-1E+10	1	-1E+10	1
4902643	19	C	12/28/2024	11:47	-134.154	43.434	0	164.60	0	8.3990	0	33.6040	0	26.121	0	163.222	0	194.9	4	67.8	4	-1E+10	1	-1E+10	1	-1E+10	1	-1E+10	1	-1E+10	1	-1E+10	1
4902643	19	C	12/28/2024	11:47	-134.154	43.434	0	174.70	0	8.1810	0	33.6990	0	26.228	0	173.234	0	192.9	4	66.9	4	-1E+10	1	-1E+10	1	-1E+10	1	-1E+10	1	-1E+10	1	-1E+10	1
4902643	19	C	12/28/2024	11:47	-134.154	43.434	0	184.80	0	8.1080	0	33.7350	0	26.267	0	183.244	0	190.4	4	65.9	4	-1E+10	1	-1E+10	1	-1E+10	1	-1E+10	1	-1E+10	1	-1E+10	1
4902643	19	C	12/28/2024	11:47	-134.154	43.434	0	194.90	0	8.0190	0	33.7630	0	26.303	0	193.255	0	186.9	4	64.6	4	-1E+10	1	-1E+10	1	-1E+10	1	-1E+10	1	-1E+10	1	-1E+10	1
4902643	19	C	12/28/2024	11:47	-134.154	43.434	0	209.70	0	7.7690	0	33.8020	0	26.370	0	207.922	0	180.5	4	62.0	4	-1E+10	1	-1E+10	1	-1E+10	1	-1E+10	1	-1E+10	1	-1E+10	1
4902643	19	C	12/28/2024	11:47	-134.154	43.434	0	229.30	0	7.4510	0	33.8290	0	26.437	0	227.345	0	172.1	4	58.7	4	-1E+10	1	-1E+10	1	-1E+10	1	-1E+10	1	-1E+10	1	-1E+10	1
4902643	19	C	12/28/2024	11:47	-134.154	43.434	0	250.20	0	7.0960	0	33.8330	0	26.490	0	248.055	0	166.4	4	56.3	4	-1E+10	1	-1E+10	1	-1E+10	1	-1E+10	1	-1E+10	1	-1E+10	1
4902643	19	C	12/28/2024	11:47	-134.154	43.434	0	269.60	0	6.8260	0	33.8310	0	26.525	0	267.276	0	159.2	4	53.6	4	-1E+10	1	-1E+10	1	-1E+10	1	-1E+10	1	-1E+10	1	-1E+10	1
4902643	19	C	12/28/2024	11:47	-134.154	43.434	0	289.60	0	6.5270	0	33.8270	0	26.562	0	287.089	0	149.5	4	50.0	4	-1E+10	1	-1E+10	1	-1E+10	1	-1E+10	1	-1E+10	1	-1E+10	1
4902643	19	C	12/28/2024	11:47	-134.154	43.434	0	309.60	0	6.1410	0	33.8230	0	26.608	0	306.901	0	136.1	4	45.1	4	-1E+10	1	-1E+10	1	-1E+10	1	-1E+10	1	-1E+10	1	-1E+10	1
4902643	19	C	12/28/2024	11:47	-134.154	43.434	0	329.50	0	5.9020	0	33.8280	0	26.642	0	326.612	0	123.4	4	40.6	4	-1E+10	1	-1E+10	1	-1E+10	1	-1E+10	1	-1E+10	1	-1E+10	1
4902643	19	C	12/28/2024	11:47	-134.154	43.434	0	349.50	0	5.6760	0	33.8360	0	26.677	0	346.420	0	111.1	4	36.4	4	-1E+10	1	-1E+10	1	-1E+10	1	-1E+10	1	-1E+10	1	-1E+10	1
4902643	19	C	12/28/2024	11:47	-134.154	43.434	0	369.50	0	5.4820	0	33.8460	0	26.708	0	366.226	0	100.7	4	32.9	4	-1E+10	1	-1E+10	1	-1E+10	1	-1E+10	1	-1E+10	1	-1E+10	1
4902643	19	C	12/28/2024	11:47	-134.154	43.434	0	389.60	0	5.2450	0	33.8600	0	26.747	0	386.129	0	90.0	4	29.2	4	-1E+10	1	-1E+10	1	-1E+10	1	-1E+10	1	-1E+10	1	-1E+10	1
4902643	19	C	12/28/2024	11:47	-134.154	43.434	0	409.80	0	5.0390	0	33.8710	0	26.780	0	406.130	0	81.3	4	26.3	4	-1E+10	1	-1E+10	1	-1E+10	1	-1E+10	1	-1E+10	1	-1E+10	1
4902643	19	C	12/28/2024	11:47	-134.154	43.434	0	430.30	0	4.8240	0	33.8840	0	26.814	0	426.425	0	72.6	4	23.3	4	-1E+10	1	-1E+10	1	-1E+10	1	-1E+10	1	-1E+10	1	-1E+10	1
4902643	19	C	12/28/2024	11:47	-134.154	43.434	0	449.70	0	4.7000	0	33.8990	0	26.840	0	445.630	0	66.5	4	21.3	4	-1E+10	1	-1E+10	1	-1E+10	1	-1E+10	1	-1E+10	1	-1E+10	1
4902643	19	C	12/28/2024	11:47	-134.154	43.434	0	468.90	0	4.6000	0	33.9180	0	26.866	0	464.634	0	61.6	4	19.7	4	-1E+10	1	-1E+10	1	-1E+10	1	-1E+10	1	-1E+10	1	-1E+10	1
4902643	19	C	12/28/2024	11:47	-134.154	43.434	0	489.40	0	4.5580	0	33.9540	0	26.899	0	484.924	0	56.8	4	18.2	4	-1E+10	1	-1E+10	1	-1E+10	1	-1E+10	1	-1E+10	1	-1E+10	1
4902643	19	C	12/28/2024	11:47	-134.154	43.434	0	509.70	0	4.4850	0	33.9810	0	26.929	0	505.014	0	51.1	4	16.3	4	-1E+10	1	-1E+10	1	-1E+10	1	-1E+10	1	-1E+10	1	-1E+10	1
4902643	19	C	12/28/2024	11:47	-134.154	43.434	0	530.00	0	4.4260	0	34.0040	0	26.954	0	525.101	0	46.7	4	14.9	4	-1E+10	1	-1E+10	1	-1E+10	1	-1E+10	1	-1E+10	1	-1E+10	1
4902643	19	C	12/28/2024	11:47	-134.154	43.434	0	549.70	0	4.3830	0	34.0220	0	26.973	0	544.593	0	42.8	4	13.6	4	-1E+10	1	-1E+10	1	-1E+10	1	-1E+10	1	-1E+10	1	-1E+10	1
4902643	19	C	12/28/2024	11:47	-134.154	43.434	0	569.80	0	4.3210	0	34.0420	0	26.995	0	564.479	0	38.2	4	12.1	4	-1E+10	1	-1E+10	1	-1E+10	1	-1E+10	1	-1E+10	1	-1E+10	1
4902643	19	C	12/28/2024	11:47	-134.154	43.434	0	589.70	0	4.2800	0	34.0590	0	27.013	0	584.166	0	33.6	4	10.7	4	-1E+10	1	-1E+10	1	-1E+10	1	-1E+10	1	-1E+10	1	-1E+10	1
4902643	19	C	12/28/2024	11:47	-134.154	43.434	0	610.30	0	4.2070	0	34.0850	0	27.042	0	604.542	0	28.4	4	9.0	4	-1E+10	1	-1E+10	1	-1E+10	1	-1E+10	1	-1E+10	1	-1E+10	1
4902643	19	C	12/28/2024	11:47	-134.154	43.434	0	629.90	0	4.1550	0	34.1020	0	27.061	0	623.928	0	25.0	4	7.9	4	-1E+10	1	-1E+10	1	-1E+10	1	-1E+10	1	-1E+10	1	-1E+10	1
4902643	19	C	12/28/2024	11:47	-134.154	43.434	0	649.80	0	4.0970	0	34.1220	0	27.083	0	643.609	0	21.5	4	6.8	4	-1E+10	1	-1E+10	1	-1E+10	1	-1E+10	1	-1E+10	1	-1E+10	1
4902643	19	C	12/28/2024	11:47	-134.154	43.434	0	669.90	0	4.0470	0	34.1390	0	27.102	0	663.485	0	19.2	4	6.1	4	-1E+10	1	-1E+10	1	-1E+10	1	-1E+10	1	-1E+10	1	-1E+10	1
4902643	19	C	12/28/2024	11:47	-134.154	43.434	0	689.80	0	3.9840	0	34.1560	0	27.122	0	683.162	0	17.3	4	5.5	4	-1E+10	1	-1E+10	1	-1E+10	1	-1E+10	1	-1E+10	1	-1E+10	1
4902643	19	C	12/28/2024	11:47	-134.154	43.434	0	709.60	0	3.9130	0	34.1740	0	27.143	0	702.738	0	15.6	4	4.9	4	-1E+10	1	-1E+10	1	-1E+10	1	-1E+10	1	-1E+10	1	-1E+10	1
4902643	19	C	12/28/2024	11:47	-134.154	43.434	0	729.60	0	3.8430	0	34.1910	0	27.164	0	722.510	0	14.0	4	4.4	4	-1E+10	1	-1E+10	1	-1E+10	1	-1E+10	1	-1E+10	1	-1E+10	1
4902643	19	C	12/28/2024	11:47	-134.154	43.434	0	749.70	0	3.7780	0	34.2090	0	27.185	0	742.379	0	12.6	4	4.0	4	-1E+10	1	-1E+10	1	-1E+10	1	-1E+10	1	-1E+10	1	-1E+10	1
4902643	19	C	12/28/2024	11:47	-134.154	43.434	0	769.80	0	3.7380	0	34.2210	0	27.199	0	762.246	0	11.7	4	3.7	4	-1E+10	1	-1E+10	1	-1E+10	1	-1E+10	1	-1E+10	1	-1E+10	1
4902643	19	C	12/28/2024	11:47	-134.154	43.434	0	790.10	0	3.7020	0	34.2320	0	27.211	0	782.309	0	10.8	4	3.4	4	-1E+10	1	-1E+10	1	-1E+10	1	-1E+10	1	-1E+10	1	-1E+10	1
4902643	19	C	12/28/2024	11:47	-134.154	43.434	0	809.80	0	3.6670	0	34.2430	0	27.223	0	801.777	0	10.0	4	3.1	4	-1E+10	1	-1E+10	1	-1E+10	1	-1E+10	1	-1E+10	1	-1E+10	1
4902643	19	C	12/28/2024	11:47	-134.154	43.434	0	829.80	0	3.6260	0	34.2590	0	27.240	0	821.539	0	9.1	4	2.8	4	-1E+10	1	-1E+10	1	-1E+10	1	-1E+10	1	-1E+10	1	-1E+10	1
4902643	19	C	12/28/2024	11:47	-134.154	43.434	0	849.60	0	3.6090	0	34.2690	0	27.250	0	841.103	0	8.5	4	2.7	4	-1E+10	1	-1E+10	1	-1E+10	1	-1E+10	1	-1E+10	1	-1E+10	1
4902643	19	C	12/28/2024	11:47	-134.154	43.434	0	869.60	0	3.5840	0	34.2820	0	27.263	0	860.861	0	8.0	4	2.5	4	-1E+10	1	-1E+10	1	-1E+10	1	-1E+10	1	-1E+10	1	-1E+10	1
4902643	19	C	12/28/2024	11:47	-134.154	43.434	0	889.50	0	3.5510	0	34.2970	0	27.278	0	880.519	0	7.5	4	2.3	4	-1E+10	1	-1E+10	1	-1E+10	1	-1E+10	1	-1E+10	1	-1E+10	1
4902643	19	C	12/28/2024	11:47	-134.154	43.434	0	909.80	0	3.5300	0	34.3120	0	27.292	0	900.571	0	7.1	4	2.2	4	-1E+10	1	-1E+10	1	-1E+10	1	-1E+10	1	-1E+10	1	-1E+10	1
4902643	19	C	12/28/2024	11:47	-134.154	43.434	0	929.90	0	3.5110	0	34.3270	0	27.306	0	920.423	0	6.9	4	2.2	4	-1E+10	1	-1E+10	1	-1E+10	1	-1E+10	1	-1E+10	1	-1E+10	1
4902643	19	C	12/28/2024	11:47	-134.154	43.434	0	950.50	0	3.4880	0	34.3400	0	27.319	0	940.767	0	6.8	4	2.1	4	-1E+10	1	-1E+10	1	-1E+10	1	-1E+10	1	-1E+10	1	-1E+10	1
4902643	19	C	12/28/2024	11:47	-134.154	43.434	0	969.70	0	3.4600	0	34.3520	0	27.331	0	959.726	0	6.9	4	2.1	4	-1E+10	1	-1E+10	1	-1E+10	1	-1E+10	1	-1E+10	1	-1E+10	1
4902643	19	C	12/28/2024	11:47	-134.154	43.434	0	989.60	0	3.4460	0	34.3670	0	27.345	0	979.375	0	7.0	4	2.2	4	-1E+10	1	-1E+10	1	-1E+10	1	-1E+10	1	-1E+10	1	-1E+10	1
4902643	19	C	12/28/2024	11:47	-134.154	43.434	0	1009.50	0	3.4320	0	34.3750	0	27.353	0	999.022	0	7.3	4	2.3	4	-1E+10	1	-1E+10	1	-1E+10	1	-1E+10	1	-1E+10	1	-1E+10	1
4902643	19	C	12/28/2024	11:47	-134.154	43.434	0	1029.80	0	3.3930	0	34.3850	0	27.364	0	1019.062	0	7.5	4	2.3	4	-1E+10	1	-1E+10	1	-1E+10	1	-1E+10	1	-1E+10	1	-1E+10	1
4902643	19	C	12/28/2024	11:47	-134.154	43.434	0	1050.60	0	3.3510	0	34.3940	0	27.376	0	1039.593	0	7.9	4	2.4	4	-1E+10	1	-1E+10	1	-1E+10	1	-1E+10	1	-1E+10	1	-1E+10	1
4902643	19	C	12/28/2024	11:47	-134.154	43.434	0	1069.70	0	3.3200	0	34.4060	0	27.388	0	1058.445	0	8.5	4	2.6	4	-1E+10	1	-1E+10	1	-1E+10	1	-1E+10	1	-1E+10	1	-1E+10	1
4902643	19	C	12/28/2024	11:47	-134.154	43.434	0	1089.50	0	3.2680	0	34.4160	0	27.401	0	1077.986	0	8.9	4	2.8	4	-1E+10	1	-1E+10	1	-1E+10	1	-1E+10	1	-1E+10	1	-1E+10	1
4902643	19	C	12/28/2024	11:47	-134.154	43.434	0	1109.80	0	3.2200	0	34.4220	0	27.411	0	1098.018	0	9.2	4	2.9	4	-1E+10	1	-1E+10	1	-1E+10	1	-1E+10	1	-1E+10	1	-1E+10	1
4902643	19	C	12/28/2024	11:47	-134.154	43.434	0	1129.70	0	3.1770	0	34.4280	0	27.420	0	1117.654	0	9.7	4	3.0	4	-1E+10	1	-1E+10	1	-1E+10	1	-1E+10	1	-1E+10	1	-1E+10	1
4902643	19	C	12/28/2024	11:47	-134.154	43.434	0	1149.70	0	3.1380	0	34.4360	0	27.430	0	1137.387	0	10.2	4	3.2	4	-1E+10	1	-1E+10	1	-1E+10	1	-1E+10	1	-1E+10	1	-1E+10	1
4902643	19	C	12/28/2024	11:47	-134.154	43.434	0	1170.10	0	3.0970	0	34.4410	0	27.438	0	1157.512	0	10.6	4	3.3	4	-1E+10	1	-1E+10	1	-1E+10	1	-1E+10	1	-1E+10	1	-1E+10	1
4902643	19	C	12/28/2024	11:47	-134.154	43.434	0	1189.80	0	3.0540	0	34.4460	0	27.446	0	1176.945	0	11.1	4	3.4	4	-1E+10	1	-1E+10	1	-1E+10	1	-1E+10	1	-1E+10	1	-1E+10	1
4902643	19	C	12/28/2024	11:47	-134.154	43.434	0	1210.30	0	3.0180	0	34.4520	0	27.454	0	1197.165	0	11.8	4	3.6	4	-1E+10	1	-1E+10	1	-1E+10	1	-1E+10	1	-1E+10	1	-1E+10	1
4902643	19	C	12/28/2024	11:47	-134.154	43.434	0	1229.40	0	2.9740	0	34.4590	0	27.463	0	1216.003	0	12.5	4	3.8	4	-1E+10	1	-1E+10	1	-1E+10	1	-1E+10	1	-1E+10	1	-1E+10	1
4902643	19	C	12/28/2024	11:47	-134.154	43.434	0	1249.40	0	2.9310	0	34.4640	0	27.471	0	1235.726	0	13.1	4	4.0	4	-1E+10	1	-1E+10	1	-1E+10	1	-1E+10	1	-1E+10	1	-1E+10	1
4902643	19	C	12/28/2024	11:47	-134.154	43.434	0	1269.50	0	2.8880	0	34.4700	0	27.480	0	1255.546	0	14.0	4	4.3	4	-1E+10	1	-1E+10	1	-1E+10	1	-1E+10	1	-1E+10	1	-1E+10	1
4902643	19	C	12/28/2024	11:47	-134.154	43.434	0	1289.80	0	2.8480	0	34.4760	0	27.488	0	1275.562	0	15.1	4	4.6	4	-1E+10	1	-1E+10	1	-1E+10	1	-1E+10	1	-1E+10	1	-1E+10	1
4902643	19	C	12/28/2024	11:47	-134.154	43.434	0	1309.90	0	2.8210	0	34.4810	0	27.495	0	1295.378	0	15.9	4	4.9	4	-1E+10	1	-1E+10	1	-1E+10	1	-1E+10	1	-1E+10	1	-1E+10	1
4902643	19	C	12/28/2024	11:47	-134.154	43.434	0	1329.70	0	2.7930	0	34.4850	0	27.501	0	1314.897	0	16.7	4	5.1	4	-1E+10	1	-1E+10	1	-1E+10	1	-1E+10	1	-1E+10	1	-1E+10	1
4902643	19	C	12/28/2024	11:47	-134.154	43.434	0	1349.60	0	2.7580	0	34.4890	0	27.507	0	1334.512	0	17.6	4	5.4	4	-1E+10	1	-1E+10	1	-1E+10	1	-1E+10	1	-1E+10	1	-1E+10	1
4902643	19	C	12/28/2024	11:47	-134.154	43.434	0	1369.00	0	2.7290	0	34.4930	0	27.513	0	1353.633	0	18.2	4	5.6	4	-1E+10	1	-1E+10	1	-1E+10	1	-1E+10	1	-1E+10	1	-1E+10	1
4902643	19	C	12/28/2024	11:47	-134.154	43.434	0	1389.70	0	2.6980	0	34.4960	0	27.518	0	1374.033	0	18.8	4	5.8	4	-1E+10	1	-1E+10	1	-1E+10	1	-1E+10	1	-1E+10	1	-1E+10	1
4902643	19	C	12/28/2024	11:47	-134.154	43.434	0	1409.50	0	2.6630	0	34.4990	0	27.524	0	1393.545	0	19.4	4	6.0	4	-1E+10	1	-1E+10	1	-1E+10	1	-1E+10	1	-1E+10	1	-1E+10	1
4902643	19	C	12/28/2024	11:47	-134.154	43.434	0	1429.60	0	2.6380	0	34.5020	0	27.528	0	1413.350	0	20.3	4	6.2	4	-1E+10	1	-1E+10	1	-1E+10	1	-1E+10	1	-1E+10	1	-1E+10	1
4902643	19	C	12/28/2024	11:47	-134.154	43.434	0	1449.80	0	2.6130	0	34.5050	0	27.533	0	1433.252	0	21.1	4	6.5	4	-1E+10	1	-1E+10	1	-1E+10	1	-1E+10	1	-1E+10	1	-1E+10	1
4902643	19	C	12/28/2024	11:47	-134.154	43.434	0	1469.90	0	2.5840	0	34.5090	0	27.539	0	1453.053	0	22.3	4	6.8	4	-1E+10	1	-1E+10	1	-1E+10	1	-1E+10	1	-1E+10	1	-1E+10	1
4902643	19	C	12/28/2024	11:47	-134.154	43.434	0	1489.80	0	2.5570	0	34.5130	0	27.544	0	1472.656	0	23.5	4	7.2	4	-1E+10	1	-1E+10	1	-1E+10	1	-1E+10	1	-1E+10	1	-1E+10	1
4902643	19	C	12/28/2024	11:47	-134.154	43.434	0	1510.10	0	2.5220	0	34.5190	0	27.552	0	1492.651	0	24.9	4	7.6	4	-1E+10	1	-1E+10	1	-1E+10	1	-1E+10	1	-1E+10	1	-1E+10	1
4902643	19	C	12/28/2024	11:47	-134.154	43.434	0	1530.40	0	2.4810	0	34.5230	0	27.559	0	1512.643	0	26.1	4	8.0	4	-1E+10	1	-1E+10	1	-1E+10	1	-1E+10	1	-1E+10	1	-1E+10	1
4902643	19	C	12/28/2024	11:47	-134.154	43.434	0	1550.00	0	2.4580	0	34.5270	0	27.564	0	1531.945	0	27.4	4	8.4	4	-1E+10	1	-1E+10	1	-1E+10	1	-1E+10	1	-1E+10	1	-1E+10	1
4902643	19	C	12/28/2024	11:47	-134.154	43.434	0	1570.20	0	2.4310	0	34.5300	0	27.569	0	1551.836	0	28.6	4	8.7	4	-1E+10	1	-1E+10	1	-1E+10	1	-1E+10	1	-1E+10	1	-1E+10	1
4902643	19	C	12/28/2024	11:47	-134.154	43.434	0	1590.70	0	2.4060	0	34.5340	0	27.574	0	1572.020	0	29.8	4	9.1	4	-1E+10	1	-1E+10	1	-1E+10	1	-1E+10	1	-1E+10	1	-1E+10	1
4902643	19	C	12/28/2024	11:47	-134.154	43.434	0	1609.90	0	2.3710	0	34.5380	0	27.580	0	1590.922	0	31.1	4	9.5	4	-1E+10	1	-1E+10	1	-1E+10	1	-1E+10	1	-1E+10	1	-1E+10	1
4902643	19	C	12/28/2024	11:47	-134.154	43.434	0	1630.00	0	2.3340	0	34.5420	0	27.587	0	1610.709	0	32.3	4	9.8	4	-1E+10	1	-1E+10	1	-1E+10	1	-1E+10	1	-1E+10	1	-1E+10	1
4902643	19	C	12/28/2024	11:47	-134.154	43.434	0	1650.00	0	2.2970	0	34.5460	0	27.593	0	1630.395	0	33.6	4	10.2	4	-1E+10	1	-1E+10	1	-1E+10	1	-1E+10	1	-1E+10	1	-1E+10	1
4902643	19	C	12/28/2024	11:47	-134.154	43.434	0	1669.90	0	2.2640	0	34.5490	0	27.598	0	1649.982	0	34.8	4	10.6	4	-1E+10	1	-1E+10	1	-1E+10	1	-1E+10	1	-1E+10	1	-1E+10	1
4902643	19	C	12/28/2024	11:47	-134.154	43.434	0	1690.20	0	2.2420	0	34.5530	0	27.603	0	1669.959	0	36.0	4	10.9	4	-1E+10	1	-1E+10	1	-1E+10	1	-1E+10	1	-1E+10	1	-1E+10	1
4902643	19	C	12/28/2024	11:47	-134.154	43.434	0	1710.40	0	2.2180	0	34.5560	0	27.608	0	1689.837	0	37.3	4	11.3	4	-1E+10	1	-1E+10	1	-1E+10	1	-1E+10	1	-1E+10	1	-1E+10	1
4902643	19	C	12/28/2024	11:47	-134.154	43.434	0	1730.40	0	2.1930	0	34.5590	0	27.612	0	1709.516	0	38.6	4	11.7	4	-1E+10	1	-1E+10	1	-1E+10	1	-1E+10	1	-1E+10	1	-1E+10	1
4902643	19	C	12/28/2024	11:47	-134.154	43.434	0	1749.90	0	2.1740	0	34.5620	0	27.616	0	1728.701	0	39.8	4	12.0	4	-1E+10	1	-1E+10	1	-1E+10	1	-1E+10	1	-1E+10	1	-1E+10	1
4902643	19	C	12/28/2024	11:47	-134.154	43.434	0	1769.70	0	2.1530	0	34.5660	0	27.621	0	1748.180	0	41.2	4	12.5	4	-1E+10	1	-1E+10	1	-1E+10	1	-1E+10	1	-1E+10	1	-1E+10	1
4902643	19	C	12/28/2024	11:47	-134.154	43.434	0	1789.70	0	2.1300	0	34.5680	0	27.625	0	1767.854	0	42.5	4	12.9	4	-1E+10	1	-1E+10	1	-1E+10	1	-1E+10	1	-1E+10	1	-1E+10	1
4902643	19	C	12/28/2024	11:47	-134.154	43.434	0	1809.70	0	2.1160	0	34.5720	0	27.629	0	1787.525	0	44.6	4	13.5	4	-1E+10	1	-1E+10	1	-1E+10	1	-1E+10	1	-1E+10	1	-1E+10	1
4902643	19	C	12/28/2024	11:47	-134.154	43.434	0	1829.60	0	2.0920	0	34.5750	0	27.634	0	1807.097	0	46.0	4	13.9	4	-1E+10	1	-1E+10	1	-1E+10	1	-1E+10	1	-1E+10	1	-1E+10	1
4902643	19	C	12/28/2024	11:47	-134.154	43.434	0	1849.80	0	2.0710	0	34.5780	0	27.638	0	1826.962	0	47.2	4	14.2	4	-1E+10	1	-1E+10	1	-1E+10	1	-1E+10	1	-1E+10	1	-1E+10	1
4902643	19	C	12/28/2024	11:47	-134.154	43.434	0	1869.90	0	2.0510	0	34.5800	0	27.641	0	1846.726	0	47.9	4	14.5	4	-1E+10	1	-1E+10	1	-1E+10	1	-1E+10	1	-1E+10	1	-1E+10	1
4902643	19	C	12/28/2024	11:47	-134.154	43.434	0	1889.90	0	2.0340	0	34.5830	0	27.645	0	1866.391	0	48.8	4	14.7	4	-1E+10	1	-1E+10	1	-1E+10	1	-1E+10	1	-1E+10	1	-1E+10	1
4902643	19	C	12/28/2024	11:47	-134.154	43.434	0	1909.80	0	2.0210	0	34.5850	0	27.648	0	1885.955	0	50.0	4	15.1	4	-1E+10	1	-1E+10	1	-1E+10	1	-1E+10	1	-1E+10	1	-1E+10	1
4902643	19	C	12/28/2024	11:47	-134.154	43.434	0	1930.20	0	2.0040	0	34.5870	0	27.651	0	1906.009	0	51.4	4	15.5	4	-1E+10	1	-1E+10	1	-1E+10	1	-1E+10	1	-1E+10	1	-1E+10	1
4902643	19	C	12/28/2024	11:47	-134.154	43.434	0	1949.90	0	1.9860	0	34.5900	0	27.655	0	1925.373	0	52.4	4	15.8	4	-1E+10	1	-1E+10	1	-1E+10	1	-1E+10	1	-1E+10	1	-1E+10	1
4902643	19	C	12/28/2024	11:47	-134.154	43.434	0	1970.10	0	1.9710	0	34.5930	0	27.658	0	1945.227	0	53.6	4	16.2	4	-1E+10	1	-1E+10	1	-1E+10	1	-1E+10	1	-1E+10	1	-1E+10	1
4902643	19	C	12/28/2024	11:47	-134.154	43.434	0	1990.10	0	1.9560	0	34.5950	0	27.661	0	1964.882	0	54.6	4	16.4	4	-1E+10	1	-1E+10	1	-1E+10	1	-1E+10	1	-1E+10	1	-1E+10	1
4902643	19	C	12/28/2024	11:47	-134.154	43.434	0	2010.20	0	1.9420	0	34.5970	4	27.664	0	1984.634	0	55.6	4	16.7	4	-1E+10	1	-1E+10	1	-1E+10	1	-1E+10	1	-1E+10	1	-1E+10	1
4902643	19	C	12/28/2024	11:47	-134.154	43.434	0	2029.90	0	1.9320	0	34.5990	4	27.666	0	2003.991	0	56.7	4	17.1	4	-1E+10	1	-1E+10	1	-1E+10	1	-1E+10	1	-1E+10	1	-1E+10	1
4902643	19	C	12/28/2024	11:47	-134.154	43.434	0	2050.20	0	1.9200	0	34.6010	4	27.669	0	2023.936	0	57.7	4	17.4	4	-1E+10	1	-1E+10	1	-1E+10	1	-1E+10	1	-1E+10	1	-1E+10	1
4902643	19	C	12/28/2024	11:47	-134.154	43.434	0	2070.00	0	1.9090	0	34.6020	4	27.671	0	2043.387	0	58.6	4	17.6	4	-1E+10	1	-1E+10	1	-1E+10	1	-1E+10	1	-1E+10	1	-1E+10	1
4902643	19	C	12/28/2024	11:47	-134.154	43.434	0	2090.20	0	1.8950	0	34.6040	4	27.674	0	2063.230	0	59.5	4	17.9	4	-1E+10	1	-1E+10	1	-1E+10	1	-1E+10	1	-1E+10	1	-1E+10	1
4902643	19	C	12/28/2024	11:47	-134.154	43.434	0	2110.10	0	1.8870	0	34.6060	4	27.676	0	2082.776	0	60.3	4	18.1	4	-1E+10	1	-1E+10	1	-1E+10	1	-1E+10	1	-1E+10	1	-1E+10	1
4902643	19	C	12/28/2024	11:47	-134.154	43.434	0	2130.00	0	1.8780	0	34.6070	4	27.678	0	2102.321	0	61.2	4	18.4	4	-1E+10	1	-1E+10	1	-1E+10	1	-1E+10	1	-1E+10	1	-1E+10	1
4902643	19	C	12/28/2024	11:47	-134.154	43.434	0	2150.10	0	1.8680	0	34.6090	4	27.680	0	2122.060	0	62.1	4	18.7	4	-1E+10	1	-1E+10	1	-1E+10	1	-1E+10	1	-1E+10	1	-1E+10	1
4902643	19	C	12/28/2024	11:47	-134.154	43.434	0	2170.20	0	1.8580	0	34.6100	4	27.682	0	2141.797	0	62.9	4	18.9	4	-1E+10	1	-1E+10	1	-1E+10	1	-1E+10	1	-1E+10	1	-1E+10	1
4902643	19	C	12/28/2024	11:47	-134.154	43.434	0	2190.20	0	1.8500	0	34.6120	4	27.684	0	2161.434	0	63.7	4	19.1	4	-1E+10	1	-1E+10	1	-1E+10	1	-1E+10	1	-1E+10	1	-1E+10	1
4902643	19	C	12/28/2024	11:47	-134.154	43.434	0	2210.10	0	1.8420	0	34.6130	4	27.686	0	2180.971	0	64.4	4	19.3	4	-1E+10	1	-1E+10	1	-1E+10	1	-1E+10	1	-1E+10	1	-1E+10	1
4902643	19	C	12/28/2024	11:47	-134.154	43.434	0	2230.00	0	1.8350	0	34.6140	4	27.687	0	2200.507	0	65.1	4	19.5	4	-1E+10	1	-1E+10	1	-1E+10	1	-1E+10	1	-1E+10	1	-1E+10	1
4902643	19	C	12/28/2024	11:47	-134.154	43.434	0	2249.70	0	1.8260	0	34.6160	4	27.689	0	2219.844	0	66.0	4	19.8	4	-1E+10	1	-1E+10	1	-1E+10	1	-1E+10	1	-1E+10	1	-1E+10	1
4902643	19	C	12/28/2024	11:47	-134.154	43.434	0	2269.70	0	1.8190	0	34.6170	4	27.691	0	2239.474	0	66.6	4	20.0	4	-1E+10	1	-1E+10	1	-1E+10	1	-1E+10	1	-1E+10	1	-1E+10	1
4902643	19	C	12/28/2024	11:47	-134.154	43.434	0	2289.70	0	1.8110	0	34.6180	4	27.692	0	2259.102	0	67.5	4	20.3	4	-1E+10	1	-1E+10	1	-1E+10	1	-1E+10	1	-1E+10	1	-1E+10	1
4902643	19	C	12/28/2024	11:47	-134.154	43.434	0	2310.00	0	1.8010	0	34.6200	4	27.695	0	2279.023	0	68.5	4	20.5	4	-1E+10	1	-1E+10	1	-1E+10	1	-1E+10	1	-1E+10	1	-1E+10	1
4902643	19	C	12/28/2024	11:47	-134.154	43.434	0	2330.00	0	1.7940	0	34.6210	4	27.696	0	2298.648	0	69.2	4	20.8	4	-1E+10	1	-1E+10	1	-1E+10	1	-1E+10	1	-1E+10	1	-1E+10	1
4902643	19	C	12/28/2024	11:47	-134.154	43.434	0	2349.90	0	1.7870	0	34.6220	4	27.698	0	2318.172	0	70.2	4	21.1	4	-1E+10	1	-1E+10	1	-1E+10	1	-1E+10	1	-1E+10	1	-1E+10	1
4902643	19	C	12/28/2024	11:47	-134.154	43.434	0	2369.90	0	1.7790	0	34.6240	4	27.700	0	2337.793	0	71.2	4	21.4	4	-1E+10	1	-1E+10	1	-1E+10	1	-1E+10	1	-1E+10	1	-1E+10	1
4902643	19	C	12/28/2024	11:47	-134.154	43.434	0	2390.40	0	1.7690	0	34.6260	4	27.703	0	2357.903	0	72.3	4	21.7	4	-1E+10	1	-1E+10	1	-1E+10	1	-1E+10	1	-1E+10	1	-1E+10	1
4902643	19	C	12/28/2024	11:47	-134.154	43.434	0	2410.00	0	1.7620	0	34.6270	4	27.704	0	2377.128	0	73.0	4	21.9	4	-1E+10	1	-1E+10	1	-1E+10	1	-1E+10	1	-1E+10	1	-1E+10	1
4902643	19	C	12/28/2024	11:47	-134.154	43.434	0	2429.90	0	1.7580	0	34.6280	4	27.705	0	2396.646	0	73.7	4	22.1	4	-1E+10	1	-1E+10	1	-1E+10	1	-1E+10	1	-1E+10	1	-1E+10	1
4902643	19	C	12/28/2024	11:47	-134.154	43.434	0	2449.60	0	1.7520	0	34.6280	4	27.706	0	2415.965	0	74.4	4	22.3	4	-1E+10	1	-1E+10	1	-1E+10	1	-1E+10	1	-1E+10	1	-1E+10	1
4902643	19	C	12/28/2024	11:47	-134.154	43.434	0	2470.20	0	1.7450	0	34.6290	4	27.707	0	2436.166	0	75.2	4	22.5	4	-1E+10	1	-1E+10	1	-1E+10	1	-1E+10	1	-1E+10	1	-1E+10	1
4902643	19	C	12/28/2024	11:47	-134.154	43.434	0	2490.20	0	1.7380	0	34.6300	4	27.709	0	2455.776	0	76.1	4	22.8	4	-1E+10	1	-1E+10	1	-1E+10	1	-1E+10	1	-1E+10	1	-1E+10	1
4902643	19	C	12/28/2024	11:47	-134.154	43.434	0	2509.80	0	1.7310	0	34.6320	4	27.711	0	2474.992	0	77.1	4	23.1	4	-1E+10	1	-1E+10	1	-1E+10	1	-1E+10	1	-1E+10	1	-1E+10	1
4902643	19	C	12/28/2024	11:47	-134.154	43.434	0	2529.70	0	1.7220	0	34.6330	4	27.712	0	2494.501	0	78.1	4	23.4	4	-1E+10	1	-1E+10	1	-1E+10	1	-1E+10	1	-1E+10	1	-1E+10	1
4902643	19	C	12/28/2024	11:47	-134.154	43.434	0	2549.80	0	1.7140	0	34.6330	4	27.713	0	2514.204	0	78.5	4	23.5	4	-1E+10	1	-1E+10	1	-1E+10	1	-1E+10	1	-1E+10	1	-1E+10	1
4902643	19	C	12/28/2024	11:47	-134.154	43.434	0	2569.80	0	1.7060	0	34.6340	4	27.715	0	2533.807	0	79.3	4	23.8	4	-1E+10	1	-1E+10	1	-1E+10	1	-1E+10	1	-1E+10	1	-1E+10	1
4902643	19	C	12/28/2024	11:47	-134.154	43.434	0	2589.70	0	1.6990	0	34.6350	4	27.716	0	2553.310	0	80.1	4	24.0	4	-1E+10	1	-1E+10	1	-1E+10	1	-1E+10	1	-1E+10	1	-1E+10	1
4902643	19	C	12/28/2024	11:47	-134.154	43.434	0	2610.10	0	1.6920	0	34.6360	4	27.718	0	2573.302	0	80.8	4	24.2	4	-1E+10	1	-1E+10	1	-1E+10	1	-1E+10	1	-1E+10	1	-1E+10	1
4902643	19	C	12/28/2024	11:47	-134.154	43.434	0	2629.70	0	1.6860	0	34.6370	4	27.719	0	2592.507	0	81.6	4	24.4	4	-1E+10	1	-1E+10	1	-1E+10	1	-1E+10	1	-1E+10	1	-1E+10	1
4902643	19	C	12/28/2024	11:47	-134.154	43.434	0	2649.80	0	1.6790	0	34.6380	4	27.720	0	2612.201	0	82.4	4	24.6	4	-1E+10	1	-1E+10	1	-1E+10	1	-1E+10	1	-1E+10	1	-1E+10	1
4902643	19	C	12/28/2024	11:47	-134.154	43.434	0	2669.70	0	1.6740	0	34.6390	4	27.722	0	2631.698	0	83.1	4	24.9	4	-1E+10	1	-1E+10	1	-1E+10	1	-1E+10	1	-1E+10	1	-1E+10	1
4902643	19	C	12/28/2024	11:47	-134.154	43.434	0	2689.80	0	1.6670	0	34.6400	4	27.723	0	2651.388	0	83.9	4	25.1	4	-1E+10	1	-1E+10	1	-1E+10	1	-1E+10	1	-1E+10	1	-1E+10	1
4902643	19	C	12/28/2024	11:47	-134.154	43.434	0	2709.90	0	1.6640	0	34.6400	4	27.723	0	2671.076	0	84.3	4	25.2	4	-1E+10	1	-1E+10	1	-1E+10	1	-1E+10	1	-1E+10	1	-1E+10	1
4902643	19	C	12/28/2024	11:47	-134.154	43.434	0	2730.50	0	1.6600	0	34.6410	4	27.725	0	2691.253	0	84.9	4	25.4	4	-1E+10	1	-1E+10	1	-1E+10	1	-1E+10	1	-1E+10	1	-1E+10	1
4902643	19	C	12/28/2024	11:47	-134.154	43.434	0	2749.90	0	1.6570	0	34.6410	4	27.725	0	2710.252	0	85.5	4	25.6	4	-1E+10	1	-1E+10	1	-1E+10	1	-1E+10	1	-1E+10	1	-1E+10	1
4902643	19	C	12/28/2024	11:47	-134.154	43.434	0	2769.70	0	1.6520	0	34.6420	4	27.726	0	2729.642	0	86.2	4	25.8	4	-1E+10	1	-1E+10	1	-1E+10	1	-1E+10	1	-1E+10	1	-1E+10	1
4902643	19	C	12/28/2024	11:47	-134.154	43.434	0	2789.70	0	1.6470	0	34.6430	4	27.728	0	2749.225	0	87.0	4	26.0	4	-1E+10	1	-1E+10	1	-1E+10	1	-1E+10	1	-1E+10	1	-1E+10	1
4902643	19	C	12/28/2024	11:47	-134.154	43.434	0	2810.00	0	1.6420	0	34.6440	4	27.729	0	2769.101	0	87.8	4	26.3	4	-1E+10	1	-1E+10	1	-1E+10	1	-1E+10	1	-1E+10	1	-1E+10	1
4902643	19	C	12/28/2024	11:47	-134.154	43.434	0	2830.20	0	1.6380	0	34.6450	4	27.730	0	2788.877	0	88.6	4	26.5	4	-1E+10	1	-1E+10	1	-1E+10	1	-1E+10	1	-1E+10	1	-1E+10	1
4902643	19	C	12/28/2024	11:47	-134.154	43.434	0	2850.00	0	1.6340	0	34.6460	4	27.731	0	2808.259	0	89.3	4	26.7	4	-1E+10	1	-1E+10	1	-1E+10	1	-1E+10	1	-1E+10	1	-1E+10	1
4902643	19	C	12/28/2024	11:47	-134.154	43.434	0	2869.90	0	1.6310	0	34.6460	4	27.732	0	2827.737	0	89.9	4	26.9	4	-1E+10	1	-1E+10	1	-1E+10	1	-1E+10	1	-1E+10	1	-1E+10	1
4902643	19	C	12/28/2024	11:47	-134.154	43.434	0	2890.20	0	1.6280	0	34.6470	4	27.733	0	2847.606	0	90.5	4	27.0	4	-1E+10	1	-1E+10	1	-1E+10	1	-1E+10	1	-1E+10	1	-1E+10	1
4902643	19	C	12/28/2024	11:47	-134.154	43.434	0	2910.20	0	1.6250	0	34.6480	4	27.734	0	2867.179	0	91.0	4	27.2	4	-1E+10	1	-1E+10	1	-1E+10	1	-1E+10	1	-1E+10	1	-1E+10	1
4902643	19	C	12/28/2024	11:47	-134.154	43.434	0	2929.90	0	1.6220	0	34.6480	4	27.734	0	2886.456	0	91.5	4	27.3	4	-1E+10	1	-1E+10	1	-1E+10	1	-1E+10	1	-1E+10	1	-1E+10	1
4902643	19	C	12/28/2024	11:47	-134.154	43.434	0	2949.90	0	1.6180	0	34.6490	4	27.735	0	2906.025	0	92.2	4	27.5	4	-1E+10	1	-1E+10	1	-1E+10	1	-1E+10	1	-1E+10	1	-1E+10	1
4902643	19	C	12/28/2024	11:47	-134.154	43.434	0	2969.90	0	1.6130	0	34.6490	4	27.736	0	2925.593	0	92.8	4	27.7	4	-1E+10	1	-1E+10	1	-1E+10	1	-1E+10	1	-1E+10	1	-1E+10	1
4902643	19	C	12/28/2024	11:47	-134.154	43.434	0	2990.10	0	1.6090	0	34.6500	4	27.737	0	2945.355	0	93.5	4	27.9	4	-1E+10	1	-1E+10	1	-1E+10	1	-1E+10	1	-1E+10	1	-1E+10	1
4902643	19	C	12/28/2024	11:47	-134.154	43.434	0	3010.00	0	1.6040	0	34.6510	4	27.738	0	2964.821	0	94.3	4	28.2	4	-1E+10	1	-1E+10	1	-1E+10	1	-1E+10	1	-1E+10	1	-1E+10	1
4902643	19	C	12/28/2024	11:47	-134.154	43.434	0	3029.70	0	1.5990	0	34.6520	4	27.740	0	2984.090	0	95.1	4	28.4	4	-1E+10	1	-1E+10	1	-1E+10	1	-1E+10	1	-1E+10	1	-1E+10	1
4902643	19	C	12/28/2024	11:47	-134.154	43.434	0	3049.80	0	1.5940	0	34.6530	4	27.741	0	3003.748	0	95.8	4	28.6	4	-1E+10	1	-1E+10	1	-1E+10	1	-1E+10	1	-1E+10	1	-1E+10	1
4902643	19	C	12/28/2024	11:47	-134.154	43.434	0	3069.90	0	1.5910	0	34.6530	4	27.741	0	3023.404	0	96.5	4	28.8	4	-1E+10	1	-1E+10	1	-1E+10	1	-1E+10	1	-1E+10	1	-1E+10	1
4902643	19	C	12/28/2024	11:47	-134.154	43.434	0	3089.80	0	1.5860	0	34.6540	4	27.743	0	3042.864	0	97.0	4	29.0	4	-1E+10	1	-1E+10	1	-1E+10	1	-1E+10	1	-1E+10	1	-1E+10	1
4902643	19	C	12/28/2024	11:47	-134.154	43.434	0	3110.10	0	1.5850	0	34.6540	4	27.743	0	3062.712	0	97.5	4	29.1	4	-1E+10	1	-1E+10	1	-1E+10	1	-1E+10	1	-1E+10	1	-1E+10	1
4902643	19	C	12/28/2024	11:47	-134.154	43.434	0	3129.80	0	1.5790	0	34.6550	4	27.744	0	3081.972	0	98.4	4	29.4	4	-1E+10	1	-1E+10	1	-1E+10	1	-1E+10	1	-1E+10	1	-1E+10	1
4902643	19	C	12/28/2024	11:47	-134.154	43.434	0	3149.70	0	1.5750	0	34.6560	4	27.745	0	3101.426	0	98.9	4	29.5	4	-1E+10	1	-1E+10	1	-1E+10	1	-1E+10	1	-1E+10	1	-1E+10	1
4902643	19	C	12/28/2024	11:47	-134.154	43.434	0	3169.80	0	1.5720	0	34.6560	4	27.746	0	3121.074	0	99.4	4	29.7	4	-1E+10	1	-1E+10	1	-1E+10	1	-1E+10	1	-1E+10	1	-1E+10	1
4902643	19	C	12/28/2024	11:47	-134.154	43.434	0	3190.10	0	1.5710	0	34.6570	4	27.747	0	3140.916	0	99.7	4	29.8	4	-1E+10	1	-1E+10	1	-1E+10	1	-1E+10	1	-1E+10	1	-1E+10	1
4902643	19	C	12/28/2024	11:47	-134.154	43.434	0	3210.10	0	1.5710	0	34.6570	4	27.747	0	3160.462	0	100.0	4	29.9	4	-1E+10	1	-1E+10	1	-1E+10	1	-1E+10	1	-1E+10	1	-1E+10	1
4902643	19	C	12/28/2024	11:47	-134.154	43.434	0	3229.90	0	1.5690	0	34.6570	4	27.747	0	3179.811	0	100.5	4	30.0	4	-1E+10	1	-1E+10	1	-1E+10	1	-1E+10	1	-1E+10	1	-1E+10	1
4902643	19	C	12/28/2024	11:47	-134.154	43.434	0	3250.30	0	1.5670	0	34.6580	4	27.748	0	3199.745	0	100.9	4	30.1	4	-1E+10	1	-1E+10	1	-1E+10	1	-1E+10	1	-1E+10	1	-1E+10	1
4902643	19	C	12/28/2024	11:47	-134.154	43.434	0	3270.10	0	1.5670	0	34.6580	4	27.748	0	3219.091	0	101.2	4	30.2	4	-1E+10	1	-1E+10	1	-1E+10	1	-1E+10	1	-1E+10	1	-1E+10	1
4902643	19	C	12/28/2024	11:47	-134.154	43.434	0	3290.00	0	1.5630	0	34.6590	4	27.750	0	3238.532	0	101.9	4	30.4	4	-1E+10	1	-1E+10	1	-1E+10	1	-1E+10	1	-1E+10	1	-1E+10	1
4902643	19	C	12/28/2024	11:47	-134.154	43.434	0	3310.30	0	1.5600	0	34.6590	4	27.750	0	3258.363	0	102.4	4	30.5	4	-1E+10	1	-1E+10	1	-1E+10	1	-1E+10	1	-1E+10	1	-1E+10	1
4902643	19	C	12/28/2024	11:47	-134.154	43.434	0	3330.10	0	1.5600	0	34.6600	4	27.751	0	3277.704	0	102.6	4	30.6	4	-1E+10	1	-1E+10	1	-1E+10	1	-1E+10	1	-1E+10	1	-1E+10	1
4902643	19	C	12/28/2024	11:47	-134.154	43.434	0	3350.20	0	1.5590	0	34.6600	4	27.751	0	3297.335	0	102.9	4	30.7	4	-1E+10	1	-1E+10	1	-1E+10	1	-1E+10	1	-1E+10	1	-1E+10	1
4902643	19	C	12/28/2024	11:47	-134.154	43.434	0	3370.60	0	1.5580	0	34.6610	4	27.752	0	3317.259	0	103.4	4	30.8	4	-1E+10	1	-1E+10	1	-1E+10	1	-1E+10	1	-1E+10	1	-1E+10	1
4902643	19	C	12/28/2024	11:47	-134.154	43.434	0	3390.00	0	1.5550	0	34.6610	4	27.753	0	3336.203	0	103.9	4	31.0	4	-1E+10	1	-1E+10	1	-1E+10	1	-1E+10	1	-1E+10	1	-1E+10	1
4902643	19	C	12/28/2024	11:47	-134.154	43.434	0	3409.90	0	1.5540	0	34.6620	4	27.754	0	3355.635	0	104.1	4	31.1	4	-1E+10	1	-1E+10	1	-1E+10	1	-1E+10	1	-1E+10	1	-1E+10	1
4902643	19	C	12/28/2024	11:47	-134.154	43.434	0	3429.80	0	1.5540	0	34.6620	4	27.754	0	3375.064	0	104.6	4	31.2	4	-1E+10	1	-1E+10	1	-1E+10	1	-1E+10	1	-1E+10	1	-1E+10	1
4902643	19	C	12/28/2024	11:47	-134.154	43.434	0	3450.00	0	1.5500	0	34.6620	4	27.754	0	3394.785	0	105.3	4	31.4	4	-1E+10	1	-1E+10	1	-1E+10	1	-1E+10	1	-1E+10	1	-1E+10	1
4902643	19	C	12/28/2024	11:47	-134.154	43.434	0	3470.20	0	1.5470	0	34.6630	4	27.755	0	3414.504	0	105.8	4	31.6	4	-1E+10	1	-1E+10	1	-1E+10	1	-1E+10	1	-1E+10	1	-1E+10	1
4902643	19	C	12/28/2024	11:47	-134.154	43.434	0	3490.10	0	1.5460	0	34.6640	4	27.756	0	3433.928	0	106.3	4	31.7	4	-1E+10	1	-1E+10	1	-1E+10	1	-1E+10	1	-1E+10	1	-1E+10	1
4902643	19	C	12/28/2024	11:47	-134.154	43.434	0	3509.90	0	1.5430	0	34.6640	4	27.757	0	3453.253	0	106.8	4	31.9	4	-1E+10	1	-1E+10	1	-1E+10	1	-1E+10	1	-1E+10	1	-1E+10	1
4902643	19	C	12/28/2024	11:47	-134.154	43.434	0	3530.20	0	1.5420	0	34.6650	4	27.758	0	3473.065	0	107.1	4	32.0	4	-1E+10	1	-1E+10	1	-1E+10	1	-1E+10	1	-1E+10	1	-1E+10	1
4902643	19	C	12/28/2024	11:47	-134.154	43.434	0	3550.00	0	1.5420	0	34.6650	4	27.758	0	3492.386	0	107.4	4	32.0	4	-1E+10	1	-1E+10	1	-1E+10	1	-1E+10	1	-1E+10	1	-1E+10	1
4902643	19	C	12/28/2024	11:47	-134.154	43.434	0	3569.60	0	1.5410	0	34.6660	4	27.759	0	3511.511	0	107.7	4	32.1	4	-1E+10	1	-1E+10	1	-1E+10	1	-1E+10	1	-1E+10	1	-1E+10	1
4902643	19	C	12/28/2024	11:47	-134.154	43.434	0	3589.90	0	1.5410	0	34.6660	4	27.759	0	3531.317	0	108.0	4	32.2	4	-1E+10	1	-1E+10	1	-1E+10	1	-1E+10	1	-1E+10	1	-1E+10	1
4902643	19	C	12/28/2024	11:47	-134.154	43.434	0	3610.50	0	1.5410	0	34.6660	4	27.759	0	3551.414	0	108.2	4	32.3	4	-1E+10	1	-1E+10	1	-1E+10	1	-1E+10	1	-1E+10	1	-1E+10	1
4902643	19	C	12/28/2024	11:47	-134.154	43.434	0	3630.10	0	1.5420	0	34.6670	4	27.760	0	3570.534	0	108.3	4	32.3	4	-1E+10	1	-1E+10	1	-1E+10	1	-1E+10	1	-1E+10	1	-1E+10	1
4902643	19	C	12/28/2024	11:47	-134.154	43.434	0	3650.10	0	1.5430	0	34.6670	4	27.760	0	3590.042	0	108.5	4	32.4	4	-1E+10	1	-1E+10	1	-1E+10	1	-1E+10	1	-1E+10	1	-1E+10	1
4902643	19	C	12/28/2024	11:47	-134.154	43.434	0	3670.00	0	1.5440	0	34.6670	4	27.760	0	3609.450	0	108.6	4	32.4	4	-1E+10	1	-1E+10	1	-1E+10	1	-1E+10	1	-1E+10	1	-1E+10	1
4902643	19	C	12/28/2024	11:47	-134.154	43.434	0	3690.20	0	1.5450	0	34.6670	4	27.760	0	3629.150	0	108.7	4	32.4	4	-1E+10	1	-1E+10	1	-1E+10	1	-1E+10	1	-1E+10	1	-1E+10	1
4902643	19	C	12/28/2024	11:47	-134.154	43.434	0	3710.30	0	1.5460	0	34.6680	4	27.761	0	3648.750	0	108.9	4	32.5	4	-1E+10	1	-1E+10	1	-1E+10	1	-1E+10	1	-1E+10	1	-1E+10	1
4902643	19	C	12/28/2024	11:47	-134.154	43.434	0	3730.00	0	1.5470	0	34.6680	4	27.761	0	3667.959	0	109.1	4	32.5	4	-1E+10	1	-1E+10	1	-1E+10	1	-1E+10	1	-1E+10	1	-1E+10	1
4902643	19	C	12/28/2024	11:47	-134.154	43.434	0	3750.30	0	1.5480	0	34.6680	4	27.761	0	3687.751	0	109.1	4	32.6	4	-1E+10	1	-1E+10	1	-1E+10	1	-1E+10	1	-1E+10	1	-1E+10	1
4902643	19	C	12/28/2024	11:47	-134.154	43.434	0	3770.30	0	1.5490	0	34.6690	4	27.762	0	3707.249	0	109.0	4	32.5	4	-1E+10	1	-1E+10	1	-1E+10	1	-1E+10	1	-1E+10	1	-1E+10	1
4902643	19	C	12/28/2024	11:47	-134.154	43.434	0	3781.70	0	1.5490	0	34.6690	4	27.762	0	3718.362	0	108.4	4	32.3	4	-1E+10	1	-1E+10	1	-1E+10	1	-1E+10	1	-1E+10	1	-1E+10	1
4902643	19	C	12/28/2024	11:47	-134.154	43.434	0																										
4902643	20	C	01/07/2025	10:15	-134.053	43.391	0	0.90	0	11.9100	0	32.7790	0	24.882	0	0.893	0	245.9	4	91.8	4	-1E+10	1	-1E+10	1	-1E+10	1	-1E+10	1	-1E+10	1	-1E+10	1
4902643	20	C	01/07/2025	10:15	-134.053	43.391	0	1.00	0	11.9120	0	32.7790	0	24.881	0	0.992	0	245.7	4	91.7	4	-1E+10	1	-1E+10	1	-1E+10	1	-1E+10	1	-1E+10	1	-1E+10	1
4902643	20	C	01/07/2025	10:15	-134.053	43.391	0	1.10	0	11.9115	0	32.7790	0	24.882	0	1.091	0	245.8	4	91.7	4	-1E+10	1	-1E+10	1	-1E+10	1	-1E+10	1	-1E+10	1	-1E+10	1
4902643	20	C	01/07/2025	10:15	-134.053	43.391	0	1.20	0	11.9117	0	32.7780	0	24.881	0	1.190	0	245.6	4	91.7	4	-1E+10	1	-1E+10	1	-1E+10	1	-1E+10	1	-1E+10	1	-1E+10	1
4902643	20	C	01/07/2025	10:15	-134.053	43.391	0	1.30	0	11.9120	0	32.7770	0	24.880	0	1.290	0	245.6	4	91.7	4	-1E+10	1	-1E+10	1	-1E+10	1	-1E+10	1	-1E+10	1	-1E+10	1
4902643	20	C	01/07/2025	10:15	-134.053	43.391	0	1.40	0	11.9110	0	32.7760	0	24.879	0	1.389	0	-1e10	1	-1e10	1	-1E+10	1	-1E+10	1	-1E+10	1	-1E+10	1	-1E+10	1	-1E+10	1
4902643	20	C	01/07/2025	10:15	-134.053	43.391	0	1.60	0	11.9090	0	32.7780	0	24.881	0	1.587	0	245.2	4	91.5	4	-1E+10	1	-1E+10	1	-1E+10	1	-1E+10	1	-1E+10	1	-1E+10	1
4902643	20	C	01/07/2025	10:15	-134.053	43.391	0	2.60	0	11.9090	0	32.7780	0	24.881	0	2.579	0	245.1	4	91.5	4	-1E+10	1	-1E+10	1	-1E+10	1	-1E+10	1	-1E+10	1	-1E+10	1
4902643	20	C	01/07/2025	10:15	-134.053	43.391	0	3.70	0	11.9090	0	32.7790	0	24.882	0	3.670	0	245.0	4	91.5	4	-1E+10	1	-1E+10	1	-1E+10	1	-1E+10	1	-1E+10	1	-1E+10	1
4902643	20	C	01/07/2025	10:15	-134.053	43.391	0	4.60	0	11.9080	0	32.7790	0	24.882	0	4.563	0	245.0	4	91.5	4	-1E+10	1	-1E+10	1	-1E+10	1	-1E+10	1	-1E+10	1	-1E+10	1
4902643	20	C	01/07/2025	10:15	-134.053	43.391	0	5.60	0	11.9080	0	32.7790	0	24.882	0	5.555	0	244.9	4	91.4	4	-1E+10	1	-1E+10	1	-1E+10	1	-1E+10	1	-1E+10	1	-1E+10	1
4902643	20	C	01/07/2025	10:15	-134.053	43.391	0	7.00	0	11.9080	0	32.7800	0	24.883	0	6.944	0	245.0	4	91.4	4	-1E+10	1	-1E+10	1	-1E+10	1	-1E+10	1	-1E+10	1	-1E+10	1
4902643	20	C	01/07/2025	10:15	-134.053	43.391	0	7.50	0	11.9080	0	32.7800	0	24.883	0	7.440	0	244.9	4	91.4	4	-1E+10	1	-1E+10	1	-1E+10	1	-1E+10	1	-1E+10	1	-1E+10	1
4902643	20	C	01/07/2025	10:15	-134.053	43.391	0	8.30	0	11.9080	0	32.7800	0	24.883	0	8.234	0	244.9	4	91.4	4	-1E+10	1	-1E+10	1	-1E+10	1	-1E+10	1	-1E+10	1	-1E+10	1
4902643	20	C	01/07/2025	10:15	-134.053	43.391	0	9.20	0	11.9070	0	32.7800	0	24.883	0	9.126	0	244.8	4	91.4	4	-1E+10	1	-1E+10	1	-1E+10	1	-1E+10	1	-1E+10	1	-1E+10	1
4902643	20	C	01/07/2025	10:15	-134.053	43.391	0	14.60	0	11.9080	0	32.7790	0	24.883	0	14.483	0	244.8	4	91.4	4	-1E+10	1	-1E+10	1	-1E+10	1	-1E+10	1	-1E+10	1	-1E+10	1
4902643	20	C	01/07/2025	10:15	-134.053	43.391	0	25.00	0	11.9080	0	32.7790	0	24.883	0	24.799	0	244.6	4	91.3	4	-1E+10	1	-1E+10	1	-1E+10	1	-1E+10	1	-1E+10	1	-1E+10	1
4902643	20	C	01/07/2025	10:15	-134.053	43.391	0	35.10	0	11.9070	0	32.7800	0	24.884	0	34.817	0	244.2	4	91.2	4	-1E+10	1	-1E+10	1	-1E+10	1	-1E+10	1	-1E+10	1	-1E+10	1
4902643	20	C	01/07/2025	10:15	-134.053	43.391	0	44.90	0	11.9020	0	32.7810	0	24.886	0	44.537	0	243.6	4	90.9	4	-1E+10	1	-1E+10	1	-1E+10	1	-1E+10	1	-1E+10	1	-1E+10	1
4902643	20	C	01/07/2025	10:15	-134.053	43.391	0	55.10	0	11.8850	0	32.7830	0	24.891	0	54.654	0	242.0	4	90.3	4	-1E+10	1	-1E+10	1	-1E+10	1	-1E+10	1	-1E+10	1	-1E+10	1
4902643	20	C	01/07/2025	10:15	-134.053	43.391	0	64.70	0	11.7860	0	32.7930	0	24.917	0	64.174	0	238.3	4	88.7	4	-1E+10	1	-1E+10	1	-1E+10	1	-1E+10	1	-1E+10	1	-1E+10	1
4902643	20	C	01/07/2025	10:15	-134.053	43.391	0	74.90	0	11.2810	0	32.8200	0	25.030	0	74.290	0	234.7	4	86.5	4	-1E+10	1	-1E+10	1	-1E+10	1	-1E+10	1	-1E+10	1	-1E+10	1
4902643	20	C	01/07/2025	10:15	-134.053	43.391	0	85.10	0	10.6600	0	32.8620	0	25.173	0	84.404	0	233.8	4	85.1	4	-1E+10	1	-1E+10	1	-1E+10	1	-1E+10	1	-1E+10	1	-1E+10	1
4902643	20	C	01/07/2025	10:15	-134.053	43.391	0	95.10	0	10.1850	0	32.9020	0	25.285	0	94.320	0	231.4	4	83.3	4	-1E+10	1	-1E+10	1	-1E+10	1	-1E+10	1	-1E+10	1	-1E+10	1
4902643	20	C	01/07/2025	10:15	-134.053	43.391	0	104.60	0	9.8540	0	32.9240	0	25.358	0	103.740	0	228.6	4	81.7	4	-1E+10	1	-1E+10	1	-1E+10	1	-1E+10	1	-1E+10	1	-1E+10	1
4902643	20	C	01/07/2025	10:15	-134.053	43.391	0	115.10	0	9.6940	0	32.9580	0	25.411	0	114.151	0	227.5	4	81.1	4	-1E+10	1	-1E+10	1	-1E+10	1	-1E+10	1	-1E+10	1	-1E+10	1
4902643	20	C	01/07/2025	10:15	-134.053	43.391	0	124.80	0	9.4840	0	33.0470	0	25.515	0	123.768	0	221.2	4	78.6	4	-1E+10	1	-1E+10	1	-1E+10	1	-1E+10	1	-1E+10	1	-1E+10	1
4902643	20	C	01/07/2025	10:15	-134.053	43.391	0	134.70	0	9.2860	0	33.1970	0	25.664	0	133.583	0	212.6	4	75.3	4	-1E+10	1	-1E+10	1	-1E+10	1	-1E+10	1	-1E+10	1	-1E+10	1
4902643	20	C	01/07/2025	10:15	-134.053	43.391	0	144.90	0	9.0400	0	33.3490	0	25.822	0	143.695	0	205.5	4	72.4	4	-1E+10	1	-1E+10	1	-1E+10	1	-1E+10	1	-1E+10	1	-1E+10	1
4902643	20	C	01/07/2025	10:15	-134.053	43.391	0	154.80	0	8.6180	0	33.5130	0	26.016	0	153.509	0	201.6	4	70.5	4	-1E+10	1	-1E+10	1	-1E+10	1	-1E+10	1	-1E+10	1	-1E+10	1
4902643	20	C	01/07/2025	10:15	-134.053	43.391	0	164.90	0	8.2670	0	33.6450	0	26.173	0	163.520	0	199.2	4	69.2	4	-1E+10	1	-1E+10	1	-1E+10	1	-1E+10	1	-1E+10	1	-1E+10	1
4902643	20	C	01/07/2025	10:15	-134.053	43.391	0	175.10	0	8.1440	0	33.6970	0	26.232	0	173.631	0	196.2	4	67.9	4	-1E+10	1	-1E+10	1	-1E+10	1	-1E+10	1	-1E+10	1	-1E+10	1
4902643	20	C	01/07/2025	10:15	-134.053	43.391	0	185.00	0	7.9700	0	33.7440	0	26.295	0	183.443	0	191.8	4	66.2	4	-1E+10	1	-1E+10	1	-1E+10	1	-1E+10	1	-1E+10	1	-1E+10	1
4902643	20	C	01/07/2025	10:15	-134.053	43.391	0	194.70	0	7.8760	0	33.7710	0	26.330	0	193.057	0	186.8	4	64.3	4	-1E+10	1	-1E+10	1	-1E+10	1	-1E+10	1	-1E+10	1	-1E+10	1
4902643	20	C	01/07/2025	10:15	-134.053	43.391	0	209.80	0	7.7070	0	33.8090	0	26.384	0	208.022	0	177.5	4	60.9	4	-1E+10	1	-1E+10	1	-1E+10	1	-1E+10	1	-1E+10	1	-1E+10	1
4902643	20	C	01/07/2025	10:15	-134.053	43.391	0	229.90	0	7.3990	0	33.8340	0	26.448	0	227.941	0	168.4	4	57.4	4	-1E+10	1	-1E+10	1	-1E+10	1	-1E+10	1	-1E+10	1	-1E+10	1
4902643	20	C	01/07/2025	10:15	-134.053	43.391	0	249.60	0	7.1050	0	33.8390	0	26.493	0	247.461	0	159.4	4	54.0	4	-1E+10	1	-1E+10	1	-1E+10	1	-1E+10	1	-1E+10	1	-1E+10	1
4902643	20	C	01/07/2025	10:15	-134.053	43.391	0	269.60	0	6.8170	0	33.8390	0	26.533	0	267.277	0	151.1	4	50.8	4	-1E+10	1	-1E+10	1	-1E+10	1	-1E+10	1	-1E+10	1	-1E+10	1
4902643	20	C	01/07/2025	10:15	-134.053	43.391	0	289.40	0	6.4830	0	33.8350	0	26.574	0	286.892	0	139.9	4	46.7	4	-1E+10	1	-1E+10	1	-1E+10	1	-1E+10	1	-1E+10	1	-1E+10	1
4902643	20	C	01/07/2025	10:15	-134.053	43.391	0	309.70	0	6.1530	0	33.8330	0	26.615	0	307.002	0	128.5	4	42.6	4	-1E+10	1	-1E+10	1	-1E+10	1	-1E+10	1	-1E+10	1	-1E+10	1
4902643	20	C	01/07/2025	10:15	-134.053	43.391	0	330.10	0	5.8290	0	33.8350	0	26.657	0	327.208	0	116.8	4	38.4	4	-1E+10	1	-1E+10	1	-1E+10	1	-1E+10	1	-1E+10	1	-1E+10	1
4902643	20	C	01/07/2025	10:15	-134.053	43.391	0	350.40	0	5.6000	0	33.8420	0	26.690	0	347.313	0	105.0	4	34.3	4	-1E+10	1	-1E+10	1	-1E+10	1	-1E+10	1	-1E+10	1	-1E+10	1
4902643	20	C	01/07/2025	10:15	-134.053	43.391	0	369.30	0	5.3530	0	33.8560	0	26.731	0	366.030	0	94.8	4	30.8	4	-1E+10	1	-1E+10	1	-1E+10	1	-1E+10	1	-1E+10	1	-1E+10	1
4902643	20	C	01/07/2025	10:15	-134.053	43.391	0	389.80	0	5.1520	0	33.8670	0	26.763	0	386.329	0	86.6	4	28.0	4	-1E+10	1	-1E+10	1	-1E+10	1	-1E+10	1	-1E+10	1	-1E+10	1
4902643	20	C	01/07/2025	10:15	-134.053	43.391	0	410.00	0	4.9690	0	33.8790	0	26.794	0	406.329	0	78.4	4	25.3	4	-1E+10	1	-1E+10	1	-1E+10	1	-1E+10	1	-1E+10	1	-1E+10	1
4902643	20	C	01/07/2025	10:15	-134.053	43.391	0	430.00	0	4.7980	0	33.8940	0	26.825	0	426.130	0	70.6	4	22.7	4	-1E+10	1	-1E+10	1	-1E+10	1	-1E+10	1	-1E+10	1	-1E+10	1
4902643	20	C	01/07/2025	10:15	-134.053	43.391	0	450.20	0	4.6660	0	33.9080	0	26.851	0	446.126	0	64.2	4	20.5	4	-1E+10	1	-1E+10	1	-1E+10	1	-1E+10	1	-1E+10	1	-1E+10	1
4902643	20	C	01/07/2025	10:15	-134.053	43.391	0	469.60	0	4.5500	0	33.9280	0	26.879	0	465.329	0	58.2	4	18.6	4	-1E+10	1	-1E+10	1	-1E+10	1	-1E+10	1	-1E+10	1	-1E+10	1
4902643	20	C	01/07/2025	10:15	-134.053	43.391	0	490.00	0	4.4770	0	33.9510	0	26.906	0	485.520	0	53.7	4	17.1	4	-1E+10	1	-1E+10	1	-1E+10	1	-1E+10	1	-1E+10	1	-1E+10	1
4902643	20	C	01/07/2025	10:15	-134.053	43.391	0	509.80	0	4.4350	0	33.9800	0	26.933	0	505.114	0	49.2	4	15.7	4	-1E+10	1	-1E+10	1	-1E+10	1	-1E+10	1	-1E+10	1	-1E+10	1
4902643	20	C	01/07/2025	10:15	-134.053	43.391	0	529.50	0	4.4000	0	34.0110	0	26.962	0	524.609	0	44.6	4	14.2	4	-1E+10	1	-1E+10	1	-1E+10	1	-1E+10	1	-1E+10	1	-1E+10	1
4902643	20	C	01/07/2025	10:15	-134.053	43.391	0	549.10	0	4.3480	0	34.0310	0	26.983	0	544.002	0	40.5	4	12.9	4	-1E+10	1	-1E+10	1	-1E+10	1	-1E+10	1	-1E+10	1	-1E+10	1
4902643	20	C	01/07/2025	10:15	-134.053	43.391	0	569.90	0	4.2880	0	34.0500	0	27.005	0	564.581	0	36.2	4	11.5	4	-1E+10	1	-1E+10	1	-1E+10	1	-1E+10	1	-1E+10	1	-1E+10	1
4902643	20	C	01/07/2025	10:15	-134.053	43.391	0	589.60	0	4.2290	0	34.0700	0	27.027	0	584.069	0	31.9	4	10.1	4	-1E+10	1	-1E+10	1	-1E+10	1	-1E+10	1	-1E+10	1	-1E+10	1
4902643	20	C	01/07/2025	10:15	-134.053	43.391	0	609.40	0	4.1680	0	34.0940	0	27.053	0	603.655	0	28.3	4	9.0	4	-1E+10	1	-1E+10	1	-1E+10	1	-1E+10	1	-1E+10	1	-1E+10	1
4902643	20	C	01/07/2025	10:15	-134.053	43.391	0	629.60	0	4.1390	0	34.1030	0	27.063	0	623.634	0	26.1	4	8.3	4	-1E+10	1	-1E+10	1	-1E+10	1	-1E+10	1	-1E+10	1	-1E+10	1
4902643	20	C	01/07/2025	10:15	-134.053	43.391	0	649.60	0	4.0980	0	34.1170	0	27.079	0	643.414	0	23.5	4	7.4	4	-1E+10	1	-1E+10	1	-1E+10	1	-1E+10	1	-1E+10	1	-1E+10	1
4902643	20	C	01/07/2025	10:15	-134.053	43.391	0	669.70	0	4.0530	0	34.1320	0	27.095	0	663.290	0	20.5	4	6.5	4	-1E+10	1	-1E+10	1	-1E+10	1	-1E+10	1	-1E+10	1	-1E+10	1
4902643	20	C	01/07/2025	10:15	-134.053	43.391	0	689.70	0	4.0020	0	34.1500	0	27.115	0	683.066	0	18.1	4	5.7	4	-1E+10	1	-1E+10	1	-1E+10	1	-1E+10	1	-1E+10	1	-1E+10	1
4902643	20	C	01/07/2025	10:15	-134.053	43.391	0	709.50	0	3.9430	0	34.1650	0	27.133	0	702.642	0	16.5	4	5.2	4	-1E+10	1	-1E+10	1	-1E+10	1	-1E+10	1	-1E+10	1	-1E+10	1
4902643	20	C	01/07/2025	10:15	-134.053	43.391	0	729.50	0	3.8940	0	34.1790	0	27.149	0	722.414	0	15.2	4	4.8	4	-1E+10	1	-1E+10	1	-1E+10	1	-1E+10	1	-1E+10	1	-1E+10	1
4902643	20	C	01/07/2025	10:15	-134.053	43.391	0	750.20	0	3.8410	0	34.1930	0	27.166	0	742.876	0	13.7	4	4.3	4	-1E+10	1	-1E+10	1	-1E+10	1	-1E+10	1	-1E+10	1	-1E+10	1
4902643	20	C	01/07/2025	10:15	-134.053	43.391	0	769.80	0	3.7780	0	34.2090	0	27.185	0	762.249	0	12.5	4	3.9	4	-1E+10	1	-1E+10	1	-1E+10	1	-1E+10	1	-1E+10	1	-1E+10	1
4902643	20	C	01/07/2025	10:15	-134.053	43.391	0	789.40	0	3.7270	0	34.2240	0	27.202	0	781.620	0	11.2	4	3.5	4	-1E+10	1	-1E+10	1	-1E+10	1	-1E+10	1	-1E+10	1	-1E+10	1
4902643	20	C	01/07/2025	10:15	-134.053	43.391	0	809.40	0	3.6790	0	34.2390	0	27.219	0	801.385	0	10.2	4	3.2	4	-1E+10	1	-1E+10	1	-1E+10	1	-1E+10	1	-1E+10	1	-1E+10	1
4902643	20	C	01/07/2025	10:15	-134.053	43.391	0	829.60	0	3.6400	0	34.2530	0	27.234	0	821.345	0	9.4	4	2.9	4	-1E+10	1	-1E+10	1	-1E+10	1	-1E+10	1	-1E+10	1	-1E+10	1
4902643	20	C	01/07/2025	10:15	-134.053	43.391	0	849.50	0	3.6120	0	34.2660	0	27.247	0	841.007	0	8.6	4	2.7	4	-1E+10	1	-1E+10	1	-1E+10	1	-1E+10	1	-1E+10	1	-1E+10	1
4902643	20	C	01/07/2025	10:15	-134.053	43.391	0	870.30	0	3.5860	0	34.2850	0	27.265	0	861.556	0	7.8	4	2.4	4	-1E+10	1	-1E+10	1	-1E+10	1	-1E+10	1	-1E+10	1	-1E+10	1
4902643	20	C	01/07/2025	10:15	-134.053	43.391	0	890.00	0	3.5630	0	34.2980	0	27.278	0	881.017	0	7.4	4	2.3	4	-1E+10	1	-1E+10	1	-1E+10	1	-1E+10	1	-1E+10	1	-1E+10	1
4902643	20	C	01/07/2025	10:15	-134.053	43.391	0	909.90	0	3.5320	0	34.3120	0	27.292	0	900.673	0	7.1	4	2.2	4	-1E+10	1	-1E+10	1	-1E+10	1	-1E+10	1	-1E+10	1	-1E+10	1
4902643	20	C	01/07/2025	10:15	-134.053	43.391	0	929.70	0	3.5100	0	34.3300	0	27.309	0	920.229	0	6.8	4	2.1	4	-1E+10	1	-1E+10	1	-1E+10	1	-1E+10	1	-1E+10	1	-1E+10	1
4902643	20	C	01/07/2025	10:15	-134.053	43.391	0	949.80	0	3.4850	0	34.3440	0	27.322	0	940.079	0	6.8	4	2.1	4	-1E+10	1	-1E+10	1	-1E+10	1	-1E+10	1	-1E+10	1	-1E+10	1
4902643	20	C	01/07/2025	10:15	-134.053	43.391	0	970.10	0	3.4610	0	34.3560	0	27.334	0	960.125	0	6.8	4	2.1	4	-1E+10	1	-1E+10	1	-1E+10	1	-1E+10	1	-1E+10	1	-1E+10	1
4902643	20	C	01/07/2025	10:15	-134.053	43.391	0	989.90	0	3.4380	0	34.3680	0	27.346	0	979.675	0	7.1	4	2.2	4	-1E+10	1	-1E+10	1	-1E+10	1	-1E+10	1	-1E+10	1	-1E+10	1
4902643	20	C	01/07/2025	10:15	-134.053	43.391	0	1009.90	0	3.4030	0	34.3790	0	27.359	0	999.421	0	7.3	4	2.3	4	-1E+10	1	-1E+10	1	-1E+10	1	-1E+10	1	-1E+10	1	-1E+10	1
4902643	20	C	01/07/2025	10:15	-134.053	43.391	0	1029.90	0	3.3610	0	34.3900	0	27.371	0	1019.165	0	7.7	4	2.4	4	-1E+10	1	-1E+10	1	-1E+10	1	-1E+10	1	-1E+10	1	-1E+10	1
4902643	20	C	01/07/2025	10:15	-134.053	43.391	0	1049.70	0	3.3200	0	34.4020	0	27.385	0	1038.709	0	8.2	4	2.5	4	-1E+10	1	-1E+10	1	-1E+10	1	-1E+10	1	-1E+10	1	-1E+10	1
4902643	20	C	01/07/2025	10:15	-134.053	43.391	0	1069.80	0	3.2680	0	34.4120	0	27.398	0	1058.548	0	8.6	4	2.7	4	-1E+10	1	-1E+10	1	-1E+10	1	-1E+10	1	-1E+10	1	-1E+10	1
4902643	20	C	01/07/2025	10:15	-134.053	43.391	0	1090.20	0	3.2310	0	34.4180	0	27.406	0	1078.681	0	8.9	4	2.8	4	-1E+10	1	-1E+10	1	-1E+10	1	-1E+10	1	-1E+10	1	-1E+10	1
4902643	20	C	01/07/2025	10:15	-134.053	43.391	0	1109.90	0	3.1900	0	34.4250	0	27.416	0	1098.121	0	9.4	4	2.9	4	-1E+10	1	-1E+10	1	-1E+10	1	-1E+10	1	-1E+10	1	-1E+10	1
4902643	20	C	01/07/2025	10:15	-134.053	43.391	0	1129.70	0	3.1690	0	34.4310	0	27.423	0	1117.658	0	9.8	4	3.0	4	-1E+10	1	-1E+10	1	-1E+10	1	-1E+10	1	-1E+10	1	-1E+10	1
4902643	20	C	01/07/2025	10:15	-134.053	43.391	0	1149.70	0	3.1350	0	34.4370	0	27.431	0	1137.391	0	10.2	4	3.2	4	-1E+10	1	-1E+10	1	-1E+10	1	-1E+10	1	-1E+10	1	-1E+10	1
4902643	20	C	01/07/2025	10:15	-134.053	43.391	0	1169.70	0	3.0930	0	34.4420	0	27.439	0	1157.122	0	10.7	4	3.3	4	-1E+10	1	-1E+10	1	-1E+10	1	-1E+10	1	-1E+10	1	-1E+10	1
4902643	20	C	01/07/2025	10:15	-134.053	43.391	0	1190.40	0	3.0510	0	34.4480	0	27.447	0	1177.542	0	11.2	4	3.5	4	-1E+10	1	-1E+10	1	-1E+10	1	-1E+10	1	-1E+10	1	-1E+10	1
4902643	20	C	01/07/2025	10:15	-134.053	43.391	0	1209.70	0	3.0150	0	34.4530	0	27.455	0	1196.578	0	11.7	4	3.6	4	-1E+10	1	-1E+10	1	-1E+10	1	-1E+10	1	-1E+10	1	-1E+10	1
4902643	20	C	01/07/2025	10:15	-134.053	43.391	0	1229.70	0	2.9820	0	34.4580	0	27.462	0	1216.303	0	12.4	4	3.8	4	-1E+10	1	-1E+10	1	-1E+10	1	-1E+10	1	-1E+10	1	-1E+10	1
4902643	20	C	01/07/2025	10:15	-134.053	43.391	0	1249.90	0	2.9410	0	34.4620	0	27.469	0	1236.224	0	12.8	4	3.9	4	-1E+10	1	-1E+10	1	-1E+10	1	-1E+10	1	-1E+10	1	-1E+10	1
4902643	20	C	01/07/2025	10:15	-134.053	43.391	0	1269.90	0	2.9150	0	34.4670	0	27.475	0	1255.946	0	13.6	4	4.2	4	-1E+10	1	-1E+10	1	-1E+10	1	-1E+10	1	-1E+10	1	-1E+10	1
4902643	20	C	01/07/2025	10:15	-134.053	43.391	0	1289.50	0	2.8800	0	34.4720	0	27.482	0	1275.271	0	14.3	4	4.4	4	-1E+10	1	-1E+10	1	-1E+10	1	-1E+10	1	-1E+10	1	-1E+10	1
4902643	20	C	01/07/2025	10:15	-134.053	43.391	0	1310.40	0	2.8430	0	34.4770	0	27.490	0	1295.876	0	15.2	4	4.7	4	-1E+10	1	-1E+10	1	-1E+10	1	-1E+10	1	-1E+10	1	-1E+10	1
4902643	20	C	01/07/2025	10:15	-134.053	43.391	0	1330.00	0	2.8130	0	34.4820	0	27.497	0	1315.198	0	15.9	4	4.9	4	-1E+10	1	-1E+10	1	-1E+10	1	-1E+10	1	-1E+10	1	-1E+10	1
4902643	20	C	01/07/2025	10:15	-134.053	43.391	0	1350.00	0	2.7850	0	34.4850	0	27.502	0	1334.912	0	16.7	4	5.1	4	-1E+10	1	-1E+10	1	-1E+10	1	-1E+10	1	-1E+10	1	-1E+10	1
4902643	20	C	01/07/2025	10:15	-134.053	43.391	0	1369.80	0	2.7570	0	34.4900	0	27.508	0	1354.427	0	17.8	4	5.5	4	-1E+10	1	-1E+10	1	-1E+10	1	-1E+10	1	-1E+10	1	-1E+10	1
4902643	20	C	01/07/2025	10:15	-134.053	43.391	0	1389.50	0	2.7150	0	34.4940	0	27.515	0	1373.842	0	18.7	4	5.7	4	-1E+10	1	-1E+10	1	-1E+10	1	-1E+10	1	-1E+10	1	-1E+10	1
4902643	20	C	01/07/2025	10:15	-134.053	43.391	0	1409.60	0	2.6760	0	34.4990	0	27.523	0	1393.649	0	19.7	4	6.0	4	-1E+10	1	-1E+10	1	-1E+10	1	-1E+10	1	-1E+10	1	-1E+10	1
4902643	20	C	01/07/2025	10:15	-134.053	43.391	0	1429.40	0	2.6450	0	34.5030	0	27.529	0	1413.159	0	21.0	4	6.4	4	-1E+10	1	-1E+10	1	-1E+10	1	-1E+10	1	-1E+10	1	-1E+10	1
4902643	20	C	01/07/2025	10:15	-134.053	43.391	0	1450.10	0	2.6110	0	34.5090	0	27.536	0	1433.553	0	22.6	4	6.9	4	-1E+10	1	-1E+10	1	-1E+10	1	-1E+10	1	-1E+10	1	-1E+10	1
4902643	20	C	01/07/2025	10:15	-134.053	43.391	0	1469.50	0	2.5800	0	34.5130	0	27.542	0	1452.665	0	23.9	4	7.3	4	-1E+10	1	-1E+10	1	-1E+10	1	-1E+10	1	-1E+10	1	-1E+10	1
4902643	20	C	01/07/2025	10:15	-134.053	43.391	0	1489.60	0	2.5390	0	34.5180	0	27.550	0	1472.465	0	25.2	4	7.7	4	-1E+10	1	-1E+10	1	-1E+10	1	-1E+10	1	-1E+10	1	-1E+10	1
4902643	20	C	01/07/2025	10:15	-134.053	43.391	0	1509.40	0	2.5080	0	34.5210	0	27.555	0	1491.967	0	26.0	4	7.9	4	-1E+10	1	-1E+10	1	-1E+10	1	-1E+10	1	-1E+10	1	-1E+10	1
4902643	20	C	01/07/2025	10:15	-134.053	43.391	0	1529.40	0	2.4710	0	34.5250	0	27.561	0	1511.665	0	27.1	4	8.3	4	-1E+10	1	-1E+10	1	-1E+10	1	-1E+10	1	-1E+10	1	-1E+10	1
4902643	20	C	01/07/2025	10:15	-134.053	43.391	0	1549.50	0	2.4260	0	34.5300	0	27.569	0	1531.459	0	28.6	4	8.7	4	-1E+10	1	-1E+10	1	-1E+10	1	-1E+10	1	-1E+10	1	-1E+10	1
4902643	20	C	01/07/2025	10:15	-134.053	43.391	0	1569.80	0	2.3960	0	34.5340	0	27.575	0	1551.448	0	30.1	4	9.1	4	-1E+10	1	-1E+10	1	-1E+10	1	-1E+10	1	-1E+10	1	-1E+10	1
4902643	20	C	01/07/2025	10:15	-134.053	43.391	0	1589.70	0	2.3680	0	34.5380	0	27.581	0	1571.042	0	31.3	4	9.5	4	-1E+10	1	-1E+10	1	-1E+10	1	-1E+10	1	-1E+10	1	-1E+10	1
4902643	20	C	01/07/2025	10:15	-134.053	43.391	0	1609.00	0	2.3410	0	34.5410	0	27.585	0	1590.043	0	32.4	4	9.8	4	-1E+10	1	-1E+10	1	-1E+10	1	-1E+10	1	-1E+10	1	-1E+10	1
4902643	20	C	01/07/2025	10:15	-134.053	43.391	0	1629.90	0	2.3160	0	34.5450	0	27.591	0	1610.617	0	33.7	4	10.2	4	-1E+10	1	-1E+10	1	-1E+10	1	-1E+10	1	-1E+10	1	-1E+10	1
4902643	20	C	01/07/2025	10:15	-134.053	43.391	0	1650.00	0	2.2880	0	34.5480	0	27.595	0	1630.402	0	34.8	4	10.6	4	-1E+10	1	-1E+10	1	-1E+10	1	-1E+10	1	-1E+10	1	-1E+10	1
4902643	20	C	01/07/2025	10:15	-134.053	43.391	0	1669.70	0	2.2500	0	34.5520	0	27.602	0	1649.791	0	35.7	4	10.8	4	-1E+10	1	-1E+10	1	-1E+10	1	-1E+10	1	-1E+10	1	-1E+10	1
4902643	20	C	01/07/2025	10:15	-134.053	43.391	0	1689.70	0	2.2280	0	34.5540	0	27.605	0	1669.474	0	36.7	4	11.1	4	-1E+10	1	-1E+10	1	-1E+10	1	-1E+10	1	-1E+10	1	-1E+10	1
4902643	20	C	01/07/2025	10:15	-134.053	43.391	0	1709.90	0	2.2000	0	34.5580	0	27.611	0	1689.352	0	38.2	4	11.6	4	-1E+10	1	-1E+10	1	-1E+10	1	-1E+10	1	-1E+10	1	-1E+10	1
4902643	20	C	01/07/2025	10:15	-134.053	43.391	0	1729.70	0	2.1750	0	34.5620	0	27.616	0	1708.834	0	39.5	4	12.0	4	-1E+10	1	-1E+10	1	-1E+10	1	-1E+10	1	-1E+10	1	-1E+10	1
4902643	20	C	01/07/2025	10:15	-134.053	43.391	0	1749.70	0	2.1550	0	34.5650	0	27.620	0	1728.511	0	40.8	4	12.3	4	-1E+10	1	-1E+10	1	-1E+10	1	-1E+10	1	-1E+10	1	-1E+10	1
4902643	20	C	01/07/2025	10:15	-134.053	43.391	0	1769.60	0	2.1300	0	34.5690	0	27.626	0	1748.089	0	42.2	4	12.8	4	-1E+10	1	-1E+10	1	-1E+10	1	-1E+10	1	-1E+10	1	-1E+10	1
4902643	20	C	01/07/2025	10:15	-134.053	43.391	0	1789.60	0	2.1110	0	34.5710	0	27.629	0	1767.762	0	43.4	4	13.1	4	-1E+10	1	-1E+10	1	-1E+10	1	-1E+10	1	-1E+10	1	-1E+10	1
4902643	20	C	01/07/2025	10:15	-134.053	43.391	0	1809.90	0	2.0920	0	34.5740	0	27.633	0	1787.729	0	44.7	4	13.5	4	-1E+10	1	-1E+10	1	-1E+10	1	-1E+10	1	-1E+10	1	-1E+10	1
4902643	20	C	01/07/2025	10:15	-134.053	43.391	0	1829.90	0	2.0720	0	34.5770	0	27.637	0	1807.399	0	46.2	4	13.9	4	-1E+10	1	-1E+10	1	-1E+10	1	-1E+10	1	-1E+10	1	-1E+10	1
4902643	20	C	01/07/2025	10:15	-134.053	43.391	0	1849.50	0	2.0520	0	34.5800	0	27.641	0	1826.674	0	47.4	4	14.3	4	-1E+10	1	-1E+10	1	-1E+10	1	-1E+10	1	-1E+10	1	-1E+10	1
4902643	20	C	01/07/2025	10:15	-134.053	43.391	0	1869.40	0	2.0310	0	34.5830	0	27.645	0	1846.242	0	48.8	4	14.7	4	-1E+10	1	-1E+10	1	-1E+10	1	-1E+10	1	-1E+10	1	-1E+10	1
4902643	20	C	01/07/2025	10:15	-134.053	43.391	0	1890.50	0	2.0100	0	34.5860	0	27.649	0	1866.988	0	50.2	4	15.1	4	-1E+10	1	-1E+10	1	-1E+10	1	-1E+10	1	-1E+10	1	-1E+10	1
4902643	20	C	01/07/2025	10:15	-134.053	43.391	0	1909.90	0	1.9910	0	34.5890	0	27.653	0	1886.061	0	51.4	4	15.5	4	-1E+10	1	-1E+10	1	-1E+10	1	-1E+10	1	-1E+10	1	-1E+10	1
4902643	20	C	01/07/2025	10:15	-134.053	43.391	0	1929.90	0	1.9740	0	34.5910	0	27.656	0	1905.722	0	52.7	4	15.9	4	-1E+10	1	-1E+10	1	-1E+10	1	-1E+10	1	-1E+10	1	-1E+10	1
4902643	20	C	01/07/2025	10:15	-134.053	43.391	0	1950.00	0	1.9580	0	34.5930	0	27.659	0	1925.479	0	54.1	4	16.3	4	-1E+10	1	-1E+10	1	-1E+10	1	-1E+10	1	-1E+10	1	-1E+10	1
4902643	20	C	01/07/2025	10:15	-134.053	43.391	0	1969.90	0	1.9440	0	34.5960	0	27.663	0	1945.038	0	55.2	4	16.6	4	-1E+10	1	-1E+10	1	-1E+10	1	-1E+10	1	-1E+10	1	-1E+10	1
4902643	20	C	01/07/2025	10:15	-134.053	43.391	0	1989.00	0	1.9300	0	34.5980	0	27.666	0	1963.809	0	56.1	4	16.9	4	-1E+10	1	-1E+10	1	-1E+10	1	-1E+10	1	-1E+10	1	-1E+10	1
4902643	20	C	01/07/2025	10:15	-134.053	43.391	0	2009.50	0	1.9210	0	34.6000	4	27.668	0	1983.954	0	57.0	4	17.2	4	-1E+10	1	-1E+10	1	-1E+10	1	-1E+10	1	-1E+10	1	-1E+10	1
4902643	20	C	01/07/2025	10:15	-134.053	43.391	0	2029.50	0	1.9140	0	34.6010	4	27.669	0	2003.606	0	57.7	4	17.4	4	-1E+10	1	-1E+10	1	-1E+10	1	-1E+10	1	-1E+10	1	-1E+10	1
4902643	20	C	01/07/2025	10:15	-134.053	43.391	0	2049.70	0	1.9030	0	34.6020	4	27.671	0	2023.452	0	58.7	4	17.7	4	-1E+10	1	-1E+10	1	-1E+10	1	-1E+10	1	-1E+10	1	-1E+10	1
4902643	20	C	01/07/2025	10:15	-134.053	43.391	0	2069.60	0	1.8920	0	34.6040	4	27.674	0	2043.002	0	59.6	4	17.9	4	-1E+10	1	-1E+10	1	-1E+10	1	-1E+10	1	-1E+10	1	-1E+10	1
4902643	20	C	01/07/2025	10:15	-134.053	43.391	0	2090.20	0	1.8790	0	34.6060	4	27.676	0	2063.238	0	60.6	4	18.2	4	-1E+10	1	-1E+10	1	-1E+10	1	-1E+10	1	-1E+10	1	-1E+10	1
4902643	20	C	01/07/2025	10:15	-134.053	43.391	0	2109.80	0	1.8710	0	34.6080	4	27.679	0	2082.490	0	61.2	4	18.4	4	-1E+10	1	-1E+10	1	-1E+10	1	-1E+10	1	-1E+10	1	-1E+10	1
4902643	20	C	01/07/2025	10:15	-134.053	43.391	0	2129.70	0	1.8630	0	34.6090	4	27.680	0	2102.034	0	61.9	4	18.6	4	-1E+10	1	-1E+10	1	-1E+10	1	-1E+10	1	-1E+10	1	-1E+10	1
4902643	20	C	01/07/2025	10:15	-134.053	43.391	0	2149.70	0	1.8560	0	34.6100	4	27.682	0	2121.675	0	62.5	4	18.8	4	-1E+10	1	-1E+10	1	-1E+10	1	-1E+10	1	-1E+10	1	-1E+10	1
4902643	20	C	01/07/2025	10:15	-134.053	43.391	0	2169.80	0	1.8500	0	34.6110	4	27.683	0	2141.413	0	63.1	4	19.0	4	-1E+10	1	-1E+10	1	-1E+10	1	-1E+10	1	-1E+10	1	-1E+10	1
4902643	20	C	01/07/2025	10:15	-134.053	43.391	0	2189.50	0	1.8460	0	34.6120	4	27.684	0	2160.755	0	63.7	4	19.1	4	-1E+10	1	-1E+10	1	-1E+10	1	-1E+10	1	-1E+10	1	-1E+10	1
4902643	20	C	01/07/2025	10:15	-134.053	43.391	0	2209.90	0	1.8390	0	34.6130	4	27.686	0	2180.783	0	64.4	4	19.4	4	-1E+10	1	-1E+10	1	-1E+10	1	-1E+10	1	-1E+10	1	-1E+10	1
4902643	20	C	01/07/2025	10:15	-134.053	43.391	0	2229.50	0	1.8340	0	34.6140	4	27.687	0	2200.025	0	64.9	4	19.5	4	-1E+10	1	-1E+10	1	-1E+10	1	-1E+10	1	-1E+10	1	-1E+10	1
4902643	20	C	01/07/2025	10:15	-134.053	43.391	0	2249.50	0	1.8300	0	34.6150	4	27.688	0	2219.657	0	65.4	4	19.6	4	-1E+10	1	-1E+10	1	-1E+10	1	-1E+10	1	-1E+10	1	-1E+10	1
4902643	20	C	01/07/2025	10:15	-134.053	43.391	0	2269.70	0	1.8250	0	34.6160	4	27.690	0	2239.483	0	66.1	4	19.8	4	-1E+10	1	-1E+10	1	-1E+10	1	-1E+10	1	-1E+10	1	-1E+10	1
4902643	20	C	01/07/2025	10:15	-134.053	43.391	0	2290.00	0	1.8180	0	34.6170	4	27.691	0	2259.406	0	66.9	4	20.1	4	-1E+10	1	-1E+10	1	-1E+10	1	-1E+10	1	-1E+10	1	-1E+10	1
4902643	20	C	01/07/2025	10:15	-134.053	43.391	0	2310.00	0	1.8090	0	34.6190	4	27.693	0	2279.032	0	67.7	4	20.3	4	-1E+10	1	-1E+10	1	-1E+10	1	-1E+10	1	-1E+10	1	-1E+10	1
4902643	20	C	01/07/2025	10:15	-134.053	43.391	0	2329.60	0	1.8020	0	34.6200	4	27.695	0	2298.264	0	68.4	4	20.5	4	-1E+10	1	-1E+10	1	-1E+10	1	-1E+10	1	-1E+10	1	-1E+10	1
4902643	20	C	01/07/2025	10:15	-134.053	43.391	0	2349.80	0	1.7970	0	34.6200	4	27.695	0	2318.084	0	69.0	4	20.7	4	-1E+10	1	-1E+10	1	-1E+10	1	-1E+10	1	-1E+10	1	-1E+10	1
4902643	20	C	01/07/2025	10:15	-134.053	43.391	0	2370.00	0	1.7900	0	34.6210	4	27.697	0	2337.901	0	69.8	4	20.9	4	-1E+10	1	-1E+10	1	-1E+10	1	-1E+10	1	-1E+10	1	-1E+10	1
4902643	20	C	01/07/2025	10:15	-134.053	43.391	0	2389.70	0	1.7810	0	34.6230	4	27.699	0	2357.226	0	70.7	4	21.2	4	-1E+10	1	-1E+10	1	-1E+10	1	-1E+10	1	-1E+10	1	-1E+10	1
4902643	20	C	01/07/2025	10:15	-134.053	43.391	0	2409.80	0	1.7730	0	34.6240	4	27.701	0	2376.941	0	71.5	4	21.4	4	-1E+10	1	-1E+10	1	-1E+10	1	-1E+10	1	-1E+10	1	-1E+10	1
4902643	20	C	01/07/2025	10:15	-134.053	43.391	0	2429.90	0	1.7650	0	34.6250	4	27.702	0	2396.655	0	72.4	4	21.7	4	-1E+10	1	-1E+10	1	-1E+10	1	-1E+10	1	-1E+10	1	-1E+10	1
4902643	20	C	01/07/2025	10:15	-134.053	43.391	0	2449.80	0	1.7550	0	34.6270	4	27.705	0	2416.171	0	73.3	4	22.0	4	-1E+10	1	-1E+10	1	-1E+10	1	-1E+10	1	-1E+10	1	-1E+10	1
4902643	20	C	01/07/2025	10:15	-134.053	43.391	0	2469.80	0	1.7480	0	34.6280	4	27.706	0	2435.783	0	74.2	4	22.2	4	-1E+10	1	-1E+10	1	-1E+10	1	-1E+10	1	-1E+10	1	-1E+10	1
4902643	20	C	01/07/2025	10:15	-134.053	43.391	0	2489.80	0	1.7420	0	34.6280	4	27.707	0	2455.394	0	74.8	4	22.4	4	-1E+10	1	-1E+10	1	-1E+10	1	-1E+10	1	-1E+10	1	-1E+10	1
4902643	20	C	01/07/2025	10:15	-134.053	43.391	0	2509.90	0	1.7360	0	34.6300	4	27.709	0	2475.100	0	75.8	4	22.7	4	-1E+10	1	-1E+10	1	-1E+10	1	-1E+10	1	-1E+10	1	-1E+10	1
4902643	20	C	01/07/2025	10:15	-134.053	43.391	0	2529.70	0	1.7280	0	34.6310	4	27.710	0	2494.511	0	76.7	4	23.0	4	-1E+10	1	-1E+10	1	-1E+10	1	-1E+10	1	-1E+10	1	-1E+10	1
4902643	20	C	01/07/2025	10:15	-134.053	43.391	0	2549.60	0	1.7240	0	34.6320	4	27.712	0	2514.018	0	77.8	4	23.3	4	-1E+10	1	-1E+10	1	-1E+10	1	-1E+10	1	-1E+10	1	-1E+10	1
4902643	20	C	01/07/2025	10:15	-134.053	43.391	0	2569.60	0	1.7170	0	34.6340	4	27.714	0	2533.621	0	78.8	4	23.6	4	-1E+10	1	-1E+10	1	-1E+10	1	-1E+10	1	-1E+10	1	-1E+10	1
4902643	20	C	01/07/2025	10:15	-134.053	43.391	0	2590.20	0	1.7080	0	34.6350	4	27.715	0	2553.810	0	79.9	4	23.9	4	-1E+10	1	-1E+10	1	-1E+10	1	-1E+10	1	-1E+10	1	-1E+10	1
4902643	20	C	01/07/2025	10:15	-134.053	43.391	0	2609.50	0	1.7000	0	34.6360	4	27.717	0	2572.724	0	80.6	4	24.1	4	-1E+10	1	-1E+10	1	-1E+10	1	-1E+10	1	-1E+10	1	-1E+10	1
4902643	20	C	01/07/2025	10:15	-134.053	43.391	0	2629.70	0	1.6960	0	34.6370	4	27.718	0	2592.518	0	81.3	4	24.3	4	-1E+10	1	-1E+10	1	-1E+10	1	-1E+10	1	-1E+10	1	-1E+10	1
4902643	20	C	01/07/2025	10:15	-134.053	43.391	0	2649.70	0	1.6870	0	34.6380	4	27.720	0	2612.114	0	82.0	4	24.5	4	-1E+10	1	-1E+10	1	-1E+10	1	-1E+10	1	-1E+10	1	-1E+10	1
4902643	20	C	01/07/2025	10:15	-134.053	43.391	0	2669.60	0	1.6820	0	34.6380	4	27.720	0	2631.610	0	82.4	4	24.7	4	-1E+10	1	-1E+10	1	-1E+10	1	-1E+10	1	-1E+10	1	-1E+10	1
4902643	20	C	01/07/2025	10:15	-134.053	43.391	0	2689.60	0	1.6770	0	34.6390	4	27.722	0	2651.203	0	83.1	4	24.9	4	-1E+10	1	-1E+10	1	-1E+10	1	-1E+10	1	-1E+10	1	-1E+10	1
4902643	20	C	01/07/2025	10:15	-134.053	43.391	0	2709.90	0	1.6700	0	34.6390	4	27.722	0	2671.087	0	83.9	4	25.1	4	-1E+10	1	-1E+10	1	-1E+10	1	-1E+10	1	-1E+10	1	-1E+10	1
4902643	20	C	01/07/2025	10:15	-134.053	43.391	0	2730.20	0	1.6640	0	34.6400	4	27.724	0	2690.970	0	84.8	4	25.4	4	-1E+10	1	-1E+10	1	-1E+10	1	-1E+10	1	-1E+10	1	-1E+10	1
4902643	20	C	01/07/2025	10:15	-134.053	43.391	0	2749.40	0	1.6570	0	34.6410	4	27.725	0	2709.774	0	85.8	4	25.6	4	-1E+10	1	-1E+10	1	-1E+10	1	-1E+10	1	-1E+10	1	-1E+10	1
4902643	20	C	01/07/2025	10:15	-134.053	43.391	0	2769.40	0	1.6520	0	34.6420	4	27.726	0	2729.359	0	86.6	4	25.9	4	-1E+10	1	-1E+10	1	-1E+10	1	-1E+10	1	-1E+10	1	-1E+10	1
4902643	20	C	01/07/2025	10:15	-134.053	43.391	0	2790.00	0	1.6460	0	34.6440	4	27.728	0	2749.530	0	87.4	4	26.1	4	-1E+10	1	-1E+10	1	-1E+10	1	-1E+10	1	-1E+10	1	-1E+10	1
4902643	20	C	01/07/2025	10:15	-134.053	43.391	0	2810.00	0	1.6410	0	34.6440	4	27.729	0	2769.112	0	88.2	4	26.4	4	-1E+10	1	-1E+10	1	-1E+10	1	-1E+10	1	-1E+10	1	-1E+10	1
4902643	20	C	01/07/2025	10:15	-134.053	43.391	0	2829.90	0	1.6360	0	34.6450	4	27.730	0	2788.594	0	89.1	4	26.6	4	-1E+10	1	-1E+10	1	-1E+10	1	-1E+10	1	-1E+10	1	-1E+10	1
4902643	20	C	01/07/2025	10:15	-134.053	43.391	0	2850.00	0	1.6300	0	34.6460	4	27.732	0	2808.270	0	89.9	4	26.9	4	-1E+10	1	-1E+10	1	-1E+10	1	-1E+10	1	-1E+10	1	-1E+10	1
4902643	20	C	01/07/2025	10:15	-134.053	43.391	0	2869.10	0	1.6270	0	34.6470	4	27.733	0	2826.966	0	90.4	4	27.0	4	-1E+10	1	-1E+10	1	-1E+10	1	-1E+10	1	-1E+10	1	-1E+10	1
4902643	20	C	01/07/2025	10:15	-134.053	43.391	0	2889.00	0	1.6220	0	34.6470	4	27.733	0	2846.443	0	91.1	4	27.2	4	-1E+10	1	-1E+10	1	-1E+10	1	-1E+10	1	-1E+10	1	-1E+10	1
4902643	20	C	01/07/2025	10:15	-134.053	43.391	0	2910.10	0	1.6190	0	34.6480	4	27.734	0	2867.092	0	91.7	4	27.4	4	-1E+10	1	-1E+10	1	-1E+10	1	-1E+10	1	-1E+10	1	-1E+10	1
4902643	20	C	01/07/2025	10:15	-134.053	43.391	0	2930.20	0	1.6130	0	34.6490	4	27.736	0	2886.761	0	92.5	4	27.6	4	-1E+10	1	-1E+10	1	-1E+10	1	-1E+10	1	-1E+10	1	-1E+10	1
4902643	20	C	01/07/2025	10:15	-134.053	43.391	0	2949.90	0	1.6090	0	34.6500	4	27.737	0	2906.037	0	93.2	4	27.8	4	-1E+10	1	-1E+10	1	-1E+10	1	-1E+10	1	-1E+10	1	-1E+10	1
4902643	20	C	01/07/2025	10:15	-134.053	43.391	0	2970.40	0	1.6040	0	34.6510	4	27.738	0	2926.094	0	93.8	4	28.0	4	-1E+10	1	-1E+10	1	-1E+10	1	-1E+10	1	-1E+10	1	-1E+10	1
4902643	20	C	01/07/2025	10:15	-134.053	43.391	0	2990.00	0	1.6010	0	34.6510	4	27.739	0	2945.268	0	94.3	4	28.2	4	-1E+10	1	-1E+10	1	-1E+10	1	-1E+10	1	-1E+10	1	-1E+10	1
4902643	20	C	01/07/2025	10:15	-134.053	43.391	0	3009.80	0	1.5970	0	34.6520	4	27.740	0	2964.637	0	95.1	4	28.4	4	-1E+10	1	-1E+10	1	-1E+10	1	-1E+10	1	-1E+10	1	-1E+10	1
4902643	20	C	01/07/2025	10:15	-134.053	43.391	0	3029.40	0	1.5910	0	34.6530	4	27.741	0	2983.808	0	95.9	4	28.6	4	-1E+10	1	-1E+10	1	-1E+10	1	-1E+10	1	-1E+10	1	-1E+10	1
4902643	20	C	01/07/2025	10:15	-134.053	43.391	0	3049.50	0	1.5900	0	34.6530	4	27.741	0	3003.466	0	96.3	4	28.8	4	-1E+10	1	-1E+10	1	-1E+10	1	-1E+10	1	-1E+10	1	-1E+10	1
4902643	20	C	01/07/2025	10:15	-134.053	43.391	0	3070.20	0	1.5870	0	34.6540	4	27.742	0	3023.710	0	96.8	4	28.9	4	-1E+10	1	-1E+10	1	-1E+10	1	-1E+10	1	-1E+10	1	-1E+10	1
4902643	20	C	01/07/2025	10:15	-134.053	43.391	0	3089.70	0	1.5850	0	34.6540	4	27.743	0	3042.778	0	97.3	4	29.0	4	-1E+10	1	-1E+10	1	-1E+10	1	-1E+10	1	-1E+10	1	-1E+10	1
4902643	20	C	01/07/2025	10:15	-134.053	43.391	0	3109.90	0	1.5820	0	34.6550	4	27.744	0	3062.529	0	97.8	4	29.2	4	-1E+10	1	-1E+10	1	-1E+10	1	-1E+10	1	-1E+10	1	-1E+10	1
4902643	20	C	01/07/2025	10:15	-134.053	43.391	0	3130.30	0	1.5790	0	34.6550	4	27.744	0	3082.473	0	98.2	4	29.3	4	-1E+10	1	-1E+10	1	-1E+10	1	-1E+10	1	-1E+10	1	-1E+10	1
4902643	20	C	01/07/2025	10:15	-134.053	43.391	0	3150.10	0	1.5770	0	34.6560	4	27.745	0	3101.830	0	98.7	4	29.4	4	-1E+10	1	-1E+10	1	-1E+10	1	-1E+10	1	-1E+10	1	-1E+10	1
4902643	20	C	01/07/2025	10:15	-134.053	43.391	0	3170.50	0	1.5750	0	34.6560	4	27.746	0	3121.771	0	99.1	4	29.6	4	-1E+10	1	-1E+10	1	-1E+10	1	-1E+10	1	-1E+10	1	-1E+10	1
4902643	20	C	01/07/2025	10:15	-134.053	43.391	0	3190.20	0	1.5730	0	34.6560	4	27.746	0	3141.026	0	99.5	4	29.7	4	-1E+10	1	-1E+10	1	-1E+10	1	-1E+10	1	-1E+10	1	-1E+10	1
4902643	20	C	01/07/2025	10:15	-134.053	43.391	0	3210.10	0	1.5720	0	34.6570	4	27.747	0	3160.475	0	99.9	4	29.8	4	-1E+10	1	-1E+10	1	-1E+10	1	-1E+10	1	-1E+10	1	-1E+10	1
4902643	20	C	01/07/2025	10:15	-134.053	43.391	0	3229.80	0	1.5710	0	34.6580	4	27.748	0	3179.726	0	100.2	4	29.9	4	-1E+10	1	-1E+10	1	-1E+10	1	-1E+10	1	-1E+10	1	-1E+10	1
4902643	20	C	01/07/2025	10:15	-134.053	43.391	0	3249.70	0	1.5700	0	34.6580	4	27.748	0	3199.171	0	100.6	4	30.0	4	-1E+10	1	-1E+10	1	-1E+10	1	-1E+10	1	-1E+10	1	-1E+10	1
4902643	20	C	01/07/2025	10:15	-134.053	43.391	0	3269.90	0	1.5680	0	34.6580	4	27.748	0	3218.908	0	101.0	4	30.1	4	-1E+10	1	-1E+10	1	-1E+10	1	-1E+10	1	-1E+10	1	-1E+10	1
4902643	20	C	01/07/2025	10:15	-134.053	43.391	0	3290.00	0	1.5670	0	34.6590	4	27.749	0	3238.545	0	101.4	4	30.2	4	-1E+10	1	-1E+10	1	-1E+10	1	-1E+10	1	-1E+10	1	-1E+10	1
4902643	20	C	01/07/2025	10:15	-134.053	43.391	0	3309.90	0	1.5640	0	34.6590	4	27.750	0	3257.985	0	101.9	4	30.4	4	-1E+10	1	-1E+10	1	-1E+10	1	-1E+10	1	-1E+10	1	-1E+10	1
4902643	20	C	01/07/2025	10:15	-134.053	43.391	0	3330.20	0	1.5620	0	34.6600	4	27.751	0	3277.814	0	102.3	4	30.5	4	-1E+10	1	-1E+10	1	-1E+10	1	-1E+10	1	-1E+10	1	-1E+10	1
4902643	20	C	01/07/2025	10:15	-134.053	43.391	0	3350.10	0	1.5620	0	34.6600	4	27.751	0	3297.251	0	102.6	4	30.6	4	-1E+10	1	-1E+10	1	-1E+10	1	-1E+10	1	-1E+10	1	-1E+10	1
4902643	20	C	01/07/2025	10:15	-134.053	43.391	0	3370.20	0	1.5600	0	34.6600	4	27.751	0	3316.881	0	103.1	4	30.8	4	-1E+10	1	-1E+10	1	-1E+10	1	-1E+10	1	-1E+10	1	-1E+10	1
4902643	20	C	01/07/2025	10:15	-134.053	43.391	0	3389.70	0	1.5580	0	34.6610	4	27.752	0	3335.924	0	103.4	4	30.9	4	-1E+10	1	-1E+10	1	-1E+10	1	-1E+10	1	-1E+10	1	-1E+10	1
4902643	20	C	01/07/2025	10:15	-134.053	43.391	0	3409.90	0	1.5570	0	34.6610	4	27.753	0	3355.648	0	103.8	4	31.0	4	-1E+10	1	-1E+10	1	-1E+10	1	-1E+10	1	-1E+10	1	-1E+10	1
4902643	20	C	01/07/2025	10:15	-134.053	43.391	0	3429.70	0	1.5550	0	34.6620	4	27.754	0	3374.980	0	104.4	4	31.1	4	-1E+10	1	-1E+10	1	-1E+10	1	-1E+10	1	-1E+10	1	-1E+10	1
4902643	20	C	01/07/2025	10:15	-134.053	43.391	0	3449.60	0	1.5530	0	34.6620	4	27.754	0	3394.408	0	104.8	4	31.3	4	-1E+10	1	-1E+10	1	-1E+10	1	-1E+10	1	-1E+10	1	-1E+10	1
4902643	20	C	01/07/2025	10:15	-134.053	43.391	0	3469.80	0	1.5510	0	34.6630	4	27.755	0	3414.127	0	105.4	4	31.4	4	-1E+10	1	-1E+10	1	-1E+10	1	-1E+10	1	-1E+10	1	-1E+10	1
4902643	20	C	01/07/2025	10:15	-134.053	43.391	0	3489.70	0	1.5470	0	34.6640	4	27.756	0	3433.551	0	106.0	4	31.6	4	-1E+10	1	-1E+10	1	-1E+10	1	-1E+10	1	-1E+10	1	-1E+10	1
4902643	20	C	01/07/2025	10:15	-134.053	43.391	0	3509.80	0	1.5460	0	34.6640	4	27.756	0	3453.169	0	106.4	4	31.7	4	-1E+10	1	-1E+10	1	-1E+10	1	-1E+10	1	-1E+10	1	-1E+10	1
4902643	20	C	01/07/2025	10:15	-134.053	43.391	0	3529.70	0	1.5440	0	34.6650	4	27.758	0	3472.590	0	106.8	4	31.9	4	-1E+10	1	-1E+10	1	-1E+10	1	-1E+10	1	-1E+10	1	-1E+10	1
4902643	20	C	01/07/2025	10:15	-134.053	43.391	0	3549.90	0	1.5430	0	34.6650	4	27.758	0	3492.302	0	107.2	4	32.0	4	-1E+10	1	-1E+10	1	-1E+10	1	-1E+10	1	-1E+10	1	-1E+10	1
4902643	20	C	01/07/2025	10:15	-134.053	43.391	0	3569.90	0	1.5420	0	34.6660	4	27.759	0	3511.818	0	107.5	4	32.1	4	-1E+10	1	-1E+10	1	-1E+10	1	-1E+10	1	-1E+10	1	-1E+10	1
4902643	20	C	01/07/2025	10:15	-134.053	43.391	0	3590.20	0	1.5430	0	34.6660	4	27.759	0	3531.624	0	107.7	4	32.1	4	-1E+10	1	-1E+10	1	-1E+10	1	-1E+10	1	-1E+10	1	-1E+10	1
4902643	20	C	01/07/2025	10:15	-134.053	43.391	0	3610.10	0	1.5440	0	34.6660	4	27.759	0	3551.038	0	107.8	4	32.1	4	-1E+10	1	-1E+10	1	-1E+10	1	-1E+10	1	-1E+10	1	-1E+10	1
4902643	20	C	01/07/2025	10:15	-134.053	43.391	0	3629.80	0	1.5450	0	34.6660	4	27.759	0	3570.255	0	107.9	4	32.2	4	-1E+10	1	-1E+10	1	-1E+10	1	-1E+10	1	-1E+10	1	-1E+10	1
4902643	20	C	01/07/2025	10:15	-134.053	43.391	0	3649.60	0	1.5460	0	34.6670	4	27.760	0	3589.568	0	108.0	4	32.2	4	-1E+10	1	-1E+10	1	-1E+10	1	-1E+10	1	-1E+10	1	-1E+10	1
4902643	20	C	01/07/2025	10:15	-134.053	43.391	0	3669.80	0	1.5470	0	34.6670	4	27.760	0	3609.270	0	108.1	4	32.2	4	-1E+10	1	-1E+10	1	-1E+10	1	-1E+10	1	-1E+10	1	-1E+10	1
4902643	20	C	01/07/2025	10:15	-134.053	43.391	0	3690.00	0	1.5480	0	34.6670	4	27.760	0	3628.969	0	108.2	4	32.3	4	-1E+10	1	-1E+10	1	-1E+10	1	-1E+10	1	-1E+10	1	-1E+10	1
4902643	20	C	01/07/2025	10:15	-134.053	43.391	0	3710.00	0	1.5490	0	34.6670	4	27.760	0	3648.472	0	108.4	4	32.3	4	-1E+10	1	-1E+10	1	-1E+10	1	-1E+10	1	-1E+10	1	-1E+10	1
4902643	20	C	01/07/2025	10:15	-134.053	43.391	0	3730.00	0	1.5500	0	34.6670	4	27.760	0	3667.974	0	108.5	4	32.4	4	-1E+10	1	-1E+10	1	-1E+10	1	-1E+10	1	-1E+10	1	-1E+10	1
4902643	20	C	01/07/2025	10:15	-134.053	43.391	0	3750.20	0	1.5510	0	34.6680	4	27.761	0	3687.668	0	108.8	4	32.5	4	-1E+10	1	-1E+10	1	-1E+10	1	-1E+10	1	-1E+10	1	-1E+10	1
4902643	20	C	01/07/2025	10:15	-134.053	43.391	0	3770.00	0	1.5510	0	34.6680	4	27.761	0	3706.971	0	109.0	4	32.5	4	-1E+10	1	-1E+10	1	-1E+10	1	-1E+10	1	-1E+10	1	-1E+10	1
4902643	20	C	01/07/2025	10:15	-134.053	43.391	0	3789.80	0	1.5520	0	34.6680	4	27.761	0	3726.272	0	109.0	4	32.5	4	-1E+10	1	-1E+10	1	-1E+10	1	-1E+10	1	-1E+10	1	-1E+10	1
4902643	20	C	01/07/2025	10:15	-134.053	43.391	0																										
4902643	21	C	01/17/2025	09:59	-133.934	43.308	0	1.00	0	12.1510	0	32.7720	0	24.831	0	0.992	0	245.7	4	92.2	4	-1E+10	1	-1E+10	1	-1E+10	1	-1E+10	1	-1E+10	1	-1E+10	1
4902643	21	C	01/17/2025	09:59	-133.934	43.308	0	1.10	0	12.1490	0	32.7745	0	24.834	0	1.091	0	245.7	4	92.2	4	-1E+10	1	-1E+10	1	-1E+10	1	-1E+10	1	-1E+10	1	-1E+10	1
4902643	21	C	01/17/2025	09:59	-133.934	43.308	0	1.20	0	12.1510	0	32.7740	0	24.833	0	1.190	0	245.7	4	92.2	4	-1E+10	1	-1E+10	1	-1E+10	1	-1E+10	1	-1E+10	1	-1E+10	1
4902643	21	C	01/17/2025	09:59	-133.934	43.308	0	1.30	0	12.1512	0	32.7720	0	24.831	0	1.290	0	-1e10	1	-1e10	1	-1E+10	1	-1E+10	1	-1E+10	1	-1E+10	1	-1E+10	1	-1E+10	1
4902643	21	C	01/17/2025	09:59	-133.934	43.308	0	1.70	0	12.1550	0	32.7720	0	24.831	0	1.686	0	245.2	4	92.0	4	-1E+10	1	-1E+10	1	-1E+10	1	-1E+10	1	-1E+10	1	-1E+10	1
4902643	21	C	01/17/2025	09:59	-133.934	43.308	0	2.80	0	12.1560	0	32.7710	0	24.830	0	2.778	0	245.1	4	91.9	4	-1E+10	1	-1E+10	1	-1E+10	1	-1E+10	1	-1E+10	1	-1E+10	1
4902643	21	C	01/17/2025	09:59	-133.934	43.308	0	3.50	0	12.1550	0	32.7740	0	24.832	0	3.472	0	245.0	4	91.9	4	-1E+10	1	-1E+10	1	-1E+10	1	-1E+10	1	-1E+10	1	-1E+10	1
4902643	21	C	01/17/2025	09:59	-133.934	43.308	0	4.50	0	12.1620	0	32.7720	0	24.829	0	4.464	0	244.9	4	91.9	4	-1E+10	1	-1E+10	1	-1E+10	1	-1E+10	1	-1E+10	1	-1E+10	1
4902643	21	C	01/17/2025	09:59	-133.934	43.308	0	5.60	0	12.1590	0	32.7720	0	24.830	0	5.555	0	245.0	4	91.9	4	-1E+10	1	-1E+10	1	-1E+10	1	-1E+10	1	-1E+10	1	-1E+10	1
4902643	21	C	01/17/2025	09:59	-133.934	43.308	0	6.90	0	12.1500	0	32.7730	0	24.832	0	6.845	0	244.9	4	91.9	4	-1E+10	1	-1E+10	1	-1E+10	1	-1E+10	1	-1E+10	1	-1E+10	1
4902643	21	C	01/17/2025	09:59	-133.934	43.308	0	7.90	0	12.1500	0	32.7720	0	24.832	0	7.837	0	244.9	4	91.9	4	-1E+10	1	-1E+10	1	-1E+10	1	-1E+10	1	-1E+10	1	-1E+10	1
4902643	21	C	01/17/2025	09:59	-133.934	43.308	0	8.80	0	12.1530	0	32.7730	0	24.832	0	8.730	0	245.0	4	91.9	4	-1E+10	1	-1E+10	1	-1E+10	1	-1E+10	1	-1E+10	1	-1E+10	1
4902643	21	C	01/17/2025	09:59	-133.934	43.308	0	9.90	0	12.1540	0	32.7720	0	24.831	0	9.821	0	245.0	4	91.9	4	-1E+10	1	-1E+10	1	-1E+10	1	-1E+10	1	-1E+10	1	-1E+10	1
4902643	21	C	01/17/2025	09:59	-133.934	43.308	0	14.60	0	12.1600	0	32.7720	0	24.830	0	14.483	0	244.8	4	91.8	4	-1E+10	1	-1E+10	1	-1E+10	1	-1E+10	1	-1E+10	1	-1E+10	1
4902643	21	C	01/17/2025	09:59	-133.934	43.308	0	24.80	0	12.1620	0	32.7710	0	24.829	0	24.601	0	244.5	4	91.7	4	-1E+10	1	-1E+10	1	-1E+10	1	-1E+10	1	-1E+10	1	-1E+10	1
4902643	21	C	01/17/2025	09:59	-133.934	43.308	0	35.00	0	12.1150	0	32.7760	0	24.842	0	34.718	0	243.7	4	91.3	4	-1E+10	1	-1E+10	1	-1E+10	1	-1E+10	1	-1E+10	1	-1E+10	1
4902643	21	C	01/17/2025	09:59	-133.934	43.308	0	44.70	0	12.0070	0	32.7970	0	24.879	0	44.339	0	242.7	4	90.8	4	-1E+10	1	-1E+10	1	-1E+10	1	-1E+10	1	-1E+10	1	-1E+10	1
4902643	21	C	01/17/2025	09:59	-133.934	43.308	0	54.60	0	11.7390	0	32.7930	0	24.926	0	54.158	0	245.8	4	91.4	4	-1E+10	1	-1E+10	1	-1E+10	1	-1E+10	1	-1E+10	1	-1E+10	1
4902643	21	C	01/17/2025	09:59	-133.934	43.308	0	64.70	0	11.4390	0	32.7780	0	24.969	0	64.175	0	246.9	4	91.2	4	-1E+10	1	-1E+10	1	-1E+10	1	-1E+10	1	-1E+10	1	-1E+10	1
4902643	21	C	01/17/2025	09:59	-133.934	43.308	0	74.90	0	11.3080	0	32.7730	0	24.989	0	74.290	0	245.6	4	90.5	4	-1E+10	1	-1E+10	1	-1E+10	1	-1E+10	1	-1E+10	1	-1E+10	1
4902643	21	C	01/17/2025	09:59	-133.934	43.308	0	84.80	0	11.1730	0	32.7580	0	25.002	0	84.107	0	242.6	4	89.1	4	-1E+10	1	-1E+10	1	-1E+10	1	-1E+10	1	-1E+10	1	-1E+10	1
4902643	21	C	01/17/2025	09:59	-133.934	43.308	0	95.20	0	11.1330	0	32.7850	0	25.030	0	94.420	0	237.3	4	87.1	4	-1E+10	1	-1E+10	1	-1E+10	1	-1E+10	1	-1E+10	1	-1E+10	1
4902643	21	C	01/17/2025	09:59	-133.934	43.308	0	104.80	0	10.7400	0	32.8610	0	25.158	0	103.939	0	227.7	4	83.0	4	-1E+10	1	-1E+10	1	-1E+10	1	-1E+10	1	-1E+10	1	-1E+10	1
4902643	21	C	01/17/2025	09:59	-133.934	43.308	0	115.20	0	9.7000	0	33.0250	0	25.462	0	114.251	0	215.0	4	76.7	4	-1E+10	1	-1E+10	1	-1E+10	1	-1E+10	1	-1E+10	1	-1E+10	1
4902643	21	C	01/17/2025	09:59	-133.934	43.308	0	125.50	0	9.3840	0	33.1230	0	25.590	0	124.463	0	203.3	4	72.1	4	-1E+10	1	-1E+10	1	-1E+10	1	-1E+10	1	-1E+10	1	-1E+10	1
4902643	21	C	01/17/2025	09:59	-133.934	43.308	0	134.80	0	9.1630	0	33.2500	0	25.725	0	133.683	0	195.4	4	69.0	4	-1E+10	1	-1E+10	1	-1E+10	1	-1E+10	1	-1E+10	1	-1E+10	1
4902643	21	C	01/17/2025	09:59	-133.934	43.308	0	145.10	0	8.9640	0	33.3780	0	25.857	0	143.894	0	195.4	4	68.8	4	-1E+10	1	-1E+10	1	-1E+10	1	-1E+10	1	-1E+10	1	-1E+10	1
4902643	21	C	01/17/2025	09:59	-133.934	43.308	0	155.00	0	8.7530	0	33.5430	0	26.019	0	153.708	0	197.5	4	69.3	4	-1E+10	1	-1E+10	1	-1E+10	1	-1E+10	1	-1E+10	1	-1E+10	1
4902643	21	C	01/17/2025	09:59	-133.934	43.308	0	164.80	0	8.5540	0	33.6340	0	26.121	0	163.423	0	194.4	4	67.9	4	-1E+10	1	-1E+10	1	-1E+10	1	-1E+10	1	-1E+10	1	-1E+10	1
4902643	21	C	01/17/2025	09:59	-133.934	43.308	0	174.80	0	8.3880	0	33.6940	0	26.193	0	173.335	0	191.2	4	66.6	4	-1E+10	1	-1E+10	1	-1E+10	1	-1E+10	1	-1E+10	1	-1E+10	1
4902643	21	C	01/17/2025	09:59	-133.934	43.308	0	184.90	0	8.2520	0	33.7340	0	26.245	0	183.346	0	189.7	4	65.9	4	-1E+10	1	-1E+10	1	-1E+10	1	-1E+10	1	-1E+10	1	-1E+10	1
4902643	21	C	01/17/2025	09:59	-133.934	43.308	0	194.90	0	8.0610	0	33.7680	0	26.300	0	193.257	0	188.3	4	65.1	4	-1E+10	1	-1E+10	1	-1E+10	1	-1E+10	1	-1E+10	1	-1E+10	1
4902643	21	C	01/17/2025	09:59	-133.934	43.308	0	209.80	0	7.6640	0	33.7960	0	26.380	0	208.024	0	184.1	4	63.1	4	-1E+10	1	-1E+10	1	-1E+10	1	-1E+10	1	-1E+10	1	-1E+10	1
4902643	21	C	01/17/2025	09:59	-133.934	43.308	0	230.20	0	7.3500	0	33.8220	0	26.446	0	228.240	0	176.1	4	60.0	4	-1E+10	1	-1E+10	1	-1E+10	1	-1E+10	1	-1E+10	1	-1E+10	1
4902643	21	C	01/17/2025	09:59	-133.934	43.308	0	249.50	0	7.0740	0	33.8350	0	26.494	0	247.364	0	163.9	4	55.5	4	-1E+10	1	-1E+10	1	-1E+10	1	-1E+10	1	-1E+10	1	-1E+10	1
4902643	21	C	01/17/2025	09:59	-133.934	43.308	0	269.80	0	6.6420	0	33.8380	0	26.555	0	267.477	0	148.3	4	49.7	4	-1E+10	1	-1E+10	1	-1E+10	1	-1E+10	1	-1E+10	1	-1E+10	1
4902643	21	C	01/17/2025	09:59	-133.934	43.308	0	289.80	0	6.4020	0	33.8430	0	26.591	0	287.291	0	131.3	4	43.8	4	-1E+10	1	-1E+10	1	-1E+10	1	-1E+10	1	-1E+10	1	-1E+10	1
4902643	21	C	01/17/2025	09:59	-133.934	43.308	0	309.70	0	6.1080	0	33.8530	0	26.636	0	307.004	0	119.0	4	39.4	4	-1E+10	1	-1E+10	1	-1E+10	1	-1E+10	1	-1E+10	1	-1E+10	1
4902643	21	C	01/17/2025	09:59	-133.934	43.308	0	330.30	0	5.8500	0	33.8580	0	26.673	0	327.408	0	109.7	4	36.1	4	-1E+10	1	-1E+10	1	-1E+10	1	-1E+10	1	-1E+10	1	-1E+10	1
4902643	21	C	01/17/2025	09:59	-133.934	43.308	0	349.50	0	5.6940	0	33.8650	0	26.697	0	346.424	0	101.6	4	33.3	4	-1E+10	1	-1E+10	1	-1E+10	1	-1E+10	1	-1E+10	1	-1E+10	1
4902643	21	C	01/17/2025	09:59	-133.934	43.308	0	369.40	0	5.4740	0	33.8750	0	26.732	0	366.131	0	92.5	4	30.2	4	-1E+10	1	-1E+10	1	-1E+10	1	-1E+10	1	-1E+10	1	-1E+10	1
4902643	21	C	01/17/2025	09:59	-133.934	43.308	0	389.60	0	5.2270	0	33.8830	0	26.767	0	386.134	0	85.6	4	27.8	4	-1E+10	1	-1E+10	1	-1E+10	1	-1E+10	1	-1E+10	1	-1E+10	1
4902643	21	C	01/17/2025	09:59	-133.934	43.308	0	410.00	0	5.0150	0	33.8860	0	26.794	0	406.332	0	79.6	4	25.7	4	-1E+10	1	-1E+10	1	-1E+10	1	-1E+10	1	-1E+10	1	-1E+10	1
4902643	21	C	01/17/2025	09:59	-133.934	43.308	0	430.10	0	4.8880	0	33.8950	0	26.816	0	426.232	0	74.4	4	23.9	4	-1E+10	1	-1E+10	1	-1E+10	1	-1E+10	1	-1E+10	1	-1E+10	1
4902643	21	C	01/17/2025	09:59	-133.934	43.308	0	449.70	0	4.7440	0	33.9080	0	26.842	0	445.635	0	67.7	4	21.7	4	-1E+10	1	-1E+10	1	-1E+10	1	-1E+10	1	-1E+10	1	-1E+10	1
4902643	21	C	01/17/2025	09:59	-133.934	43.308	0	469.80	0	4.6030	0	33.9260	0	26.872	0	465.530	0	60.1	4	19.2	4	-1E+10	1	-1E+10	1	-1E+10	1	-1E+10	1	-1E+10	1	-1E+10	1
4902643	21	C	01/17/2025	09:59	-133.934	43.308	0	490.00	0	4.5000	0	33.9460	0	26.899	0	485.523	0	55.2	4	17.6	4	-1E+10	1	-1E+10	1	-1E+10	1	-1E+10	1	-1E+10	1	-1E+10	1
4902643	21	C	01/17/2025	09:59	-133.934	43.308	0	509.70	0	4.4470	0	33.9670	0	26.922	0	505.019	0	51.2	4	16.3	4	-1E+10	1	-1E+10	1	-1E+10	1	-1E+10	1	-1E+10	1	-1E+10	1
4902643	21	C	01/17/2025	09:59	-133.934	43.308	0	530.40	0	4.4060	0	33.9940	0	26.948	0	525.503	0	46.7	4	14.9	4	-1E+10	1	-1E+10	1	-1E+10	1	-1E+10	1	-1E+10	1	-1E+10	1
4902643	21	C	01/17/2025	09:59	-133.934	43.308	0	549.60	0	4.3580	0	34.0110	0	26.966	0	544.501	0	42.7	4	13.6	4	-1E+10	1	-1E+10	1	-1E+10	1	-1E+10	1	-1E+10	1	-1E+10	1
4902643	21	C	01/17/2025	09:59	-133.934	43.308	0	569.70	0	4.3080	0	34.0350	0	26.991	0	564.387	0	38.2	4	12.1	4	-1E+10	1	-1E+10	1	-1E+10	1	-1E+10	1	-1E+10	1	-1E+10	1
4902643	21	C	01/17/2025	09:59	-133.934	43.308	0	589.90	0	4.2580	0	34.0560	0	27.013	0	584.370	0	34.2	4	10.9	4	-1E+10	1	-1E+10	1	-1E+10	1	-1E+10	1	-1E+10	1	-1E+10	1
4902643	21	C	01/17/2025	09:59	-133.934	43.308	0	609.70	0	4.1860	0	34.0800	0	27.040	0	603.956	0	30.0	4	9.5	4	-1E+10	1	-1E+10	1	-1E+10	1	-1E+10	1	-1E+10	1	-1E+10	1
4902643	21	C	01/17/2025	09:59	-133.934	43.308	0	629.40	0	4.1310	0	34.0980	0	27.060	0	623.441	0	26.5	4	8.4	4	-1E+10	1	-1E+10	1	-1E+10	1	-1E+10	1	-1E+10	1	-1E+10	1
4902643	21	C	01/17/2025	09:59	-133.934	43.308	0	650.40	0	4.0610	0	34.1270	0	27.090	0	644.210	0	21.1	4	6.7	4	-1E+10	1	-1E+10	1	-1E+10	1	-1E+10	1	-1E+10	1	-1E+10	1
4902643	21	C	01/17/2025	09:59	-133.934	43.308	0	669.90	0	3.9940	0	34.1500	0	27.116	0	663.493	0	18.5	4	5.9	4	-1E+10	1	-1E+10	1	-1E+10	1	-1E+10	1	-1E+10	1	-1E+10	1
4902643	21	C	01/17/2025	09:59	-133.934	43.308	0	690.10	0	3.9440	0	34.1650	0	27.133	0	683.467	0	16.6	4	5.2	4	-1E+10	1	-1E+10	1	-1E+10	1	-1E+10	1	-1E+10	1	-1E+10	1
4902643	21	C	01/17/2025	09:59	-133.934	43.308	0	709.60	0	3.8830	0	34.1810	0	27.152	0	702.746	0	15.2	4	4.8	4	-1E+10	1	-1E+10	1	-1E+10	1	-1E+10	1	-1E+10	1	-1E+10	1
4902643	21	C	01/17/2025	09:59	-133.934	43.308	0	729.40	0	3.8350	0	34.1930	0	27.166	0	722.321	0	14.0	4	4.4	4	-1E+10	1	-1E+10	1	-1E+10	1	-1E+10	1	-1E+10	1	-1E+10	1
4902643	21	C	01/17/2025	09:59	-133.934	43.308	0	749.70	0	3.7870	0	34.2070	0	27.182	0	742.388	0	12.9	4	4.1	4	-1E+10	1	-1E+10	1	-1E+10	1	-1E+10	1	-1E+10	1	-1E+10	1
4902643	21	C	01/17/2025	09:59	-133.934	43.308	0	770.10	0	3.7510	0	34.2170	0	27.194	0	762.551	0	12.0	4	3.8	4	-1E+10	1	-1E+10	1	-1E+10	1	-1E+10	1	-1E+10	1	-1E+10	1
4902643	21	C	01/17/2025	09:59	-133.934	43.308	0	789.70	0	3.7190	0	34.2270	0	27.205	0	781.923	0	11.2	4	3.5	4	-1E+10	1	-1E+10	1	-1E+10	1	-1E+10	1	-1E+10	1	-1E+10	1
4902643	21	C	01/17/2025	09:59	-133.934	43.308	0	810.10	0	3.6820	0	34.2380	0	27.218	0	802.083	0	10.3	4	3.2	4	-1E+10	1	-1E+10	1	-1E+10	1	-1E+10	1	-1E+10	1	-1E+10	1
4902643	21	C	01/17/2025	09:59	-133.934	43.308	0	829.80	0	3.6460	0	34.2510	0	27.232	0	821.549	0	9.4	4	3.0	4	-1E+10	1	-1E+10	1	-1E+10	1	-1E+10	1	-1E+10	1	-1E+10	1
4902643	21	C	01/17/2025	09:59	-133.934	43.308	0	849.70	0	3.6160	0	34.2640	0	27.245	0	841.211	0	8.7	4	2.7	4	-1E+10	1	-1E+10	1	-1E+10	1	-1E+10	1	-1E+10	1	-1E+10	1
4902643	21	C	01/17/2025	09:59	-133.934	43.308	0	869.80	0	3.5960	0	34.2770	0	27.258	0	861.069	0	8.1	4	2.5	4	-1E+10	1	-1E+10	1	-1E+10	1	-1E+10	1	-1E+10	1	-1E+10	1
4902643	21	C	01/17/2025	09:59	-133.934	43.308	0	889.80	0	3.5700	0	34.2920	0	27.272	0	880.826	0	7.6	4	2.4	4	-1E+10	1	-1E+10	1	-1E+10	1	-1E+10	1	-1E+10	1	-1E+10	1
4902643	21	C	01/17/2025	09:59	-133.934	43.308	0	909.70	0	3.5410	0	34.3050	0	27.286	0	900.483	0	7.2	4	2.3	4	-1E+10	1	-1E+10	1	-1E+10	1	-1E+10	1	-1E+10	1	-1E+10	1
4902643	21	C	01/17/2025	09:59	-133.934	43.308	0	929.40	0	3.5250	0	34.3190	0	27.299	0	919.940	0	6.9	4	2.2	4	-1E+10	1	-1E+10	1	-1E+10	1	-1E+10	1	-1E+10	1	-1E+10	1
4902643	21	C	01/17/2025	09:59	-133.934	43.308	0	949.50	0	3.5200	0	34.3350	0	27.312	0	939.790	0	6.8	4	2.1	4	-1E+10	1	-1E+10	1	-1E+10	1	-1E+10	1	-1E+10	1	-1E+10	1
4902643	21	C	01/17/2025	09:59	-133.934	43.308	0	969.50	0	3.4960	0	34.3460	0	27.323	0	959.540	0	6.8	4	2.1	4	-1E+10	1	-1E+10	1	-1E+10	1	-1E+10	1	-1E+10	1	-1E+10	1
4902643	21	C	01/17/2025	09:59	-133.934	43.308	0	989.70	0	3.4720	0	34.3590	0	27.336	0	979.485	0	6.8	4	2.1	4	-1E+10	1	-1E+10	1	-1E+10	1	-1E+10	1	-1E+10	1	-1E+10	1
4902643	21	C	01/17/2025	09:59	-133.934	43.308	0	1010.00	0	3.4450	0	34.3670	0	27.345	0	999.527	0	7.0	4	2.2	4	-1E+10	1	-1E+10	1	-1E+10	1	-1E+10	1	-1E+10	1	-1E+10	1
4902643	21	C	01/17/2025	09:59	-133.934	43.308	0	1029.90	0	3.4040	0	34.3820	0	27.361	0	1019.172	0	7.3	4	2.3	4	-1E+10	1	-1E+10	1	-1E+10	1	-1E+10	1	-1E+10	1	-1E+10	1
4902643	21	C	01/17/2025	09:59	-133.934	43.308	0	1049.70	0	3.3480	0	34.3910	0	27.374	0	1038.717	0	7.6	4	2.4	4	-1E+10	1	-1E+10	1	-1E+10	1	-1E+10	1	-1E+10	1	-1E+10	1
4902643	21	C	01/17/2025	09:59	-133.934	43.308	0	1069.70	0	3.2980	0	34.4020	0	27.387	0	1058.457	0	8.0	4	2.5	4	-1E+10	1	-1E+10	1	-1E+10	1	-1E+10	1	-1E+10	1	-1E+10	1
4902643	21	C	01/17/2025	09:59	-133.934	43.308	0	1090.60	0	3.2540	0	34.4120	0	27.399	0	1079.084	0	8.5	4	2.7	4	-1E+10	1	-1E+10	1	-1E+10	1	-1E+10	1	-1E+10	1	-1E+10	1
4902643	21	C	01/17/2025	09:59	-133.934	43.308	0	1110.00	0	3.2120	0	34.4190	0	27.409	0	1098.228	0	9.0	4	2.8	4	-1E+10	1	-1E+10	1	-1E+10	1	-1E+10	1	-1E+10	1	-1E+10	1
4902643	21	C	01/17/2025	09:59	-133.934	43.308	0	1130.60	0	3.1820	0	34.4280	0	27.419	0	1118.555	0	9.7	4	3.0	4	-1E+10	1	-1E+10	1	-1E+10	1	-1E+10	1	-1E+10	1	-1E+10	1
4902643	21	C	01/17/2025	09:59	-133.934	43.308	0	1149.70	0	3.1430	0	34.4360	0	27.429	0	1137.400	0	10.3	4	3.2	4	-1E+10	1	-1E+10	1	-1E+10	1	-1E+10	1	-1E+10	1	-1E+10	1
4902643	21	C	01/17/2025	09:59	-133.934	43.308	0	1169.40	0	3.0930	0	34.4420	0	27.439	0	1156.835	0	10.7	4	3.3	4	-1E+10	1	-1E+10	1	-1E+10	1	-1E+10	1	-1E+10	1	-1E+10	1
4902643	21	C	01/17/2025	09:59	-133.934	43.308	0	1189.60	0	3.0510	0	34.4470	0	27.447	0	1176.761	0	11.2	4	3.5	4	-1E+10	1	-1E+10	1	-1E+10	1	-1E+10	1	-1E+10	1	-1E+10	1
4902643	21	C	01/17/2025	09:59	-133.934	43.308	0	1209.70	0	3.0170	0	34.4530	0	27.455	0	1196.587	0	11.9	4	3.7	4	-1E+10	1	-1E+10	1	-1E+10	1	-1E+10	1	-1E+10	1	-1E+10	1
4902643	21	C	01/17/2025	09:59	-133.934	43.308	0	1229.30	0	2.9860	0	34.4580	0	27.461	0	1215.918	0	12.7	4	3.9	4	-1E+10	1	-1E+10	1	-1E+10	1	-1E+10	1	-1E+10	1	-1E+10	1
4902643	21	C	01/17/2025	09:59	-133.934	43.308	0	1249.50	0	2.9420	0	34.4650	0	27.471	0	1235.839	0	13.4	4	4.1	4	-1E+10	1	-1E+10	1	-1E+10	1	-1E+10	1	-1E+10	1	-1E+10	1
4902643	21	C	01/17/2025	09:59	-133.934	43.308	0	1269.80	0	2.9050	0	34.4710	0	27.479	0	1255.857	0	14.6	4	4.5	4	-1E+10	1	-1E+10	1	-1E+10	1	-1E+10	1	-1E+10	1	-1E+10	1
4902643	21	C	01/17/2025	09:59	-133.934	43.308	0	1289.60	0	2.8750	0	34.4770	0	27.487	0	1275.379	0	15.5	4	4.8	4	-1E+10	1	-1E+10	1	-1E+10	1	-1E+10	1	-1E+10	1	-1E+10	1
4902643	21	C	01/17/2025	09:59	-133.934	43.308	0	1309.50	0	2.8480	0	34.4800	0	27.492	0	1294.999	0	16.1	4	5.0	4	-1E+10	1	-1E+10	1	-1E+10	1	-1E+10	1	-1E+10	1	-1E+10	1
4902643	21	C	01/17/2025	09:59	-133.934	43.308	0	1329.70	0	2.8110	0	34.4850	0	27.499	0	1314.912	0	16.9	4	5.2	4	-1E+10	1	-1E+10	1	-1E+10	1	-1E+10	1	-1E+10	1	-1E+10	1
4902643	21	C	01/17/2025	09:59	-133.934	43.308	0	1349.80	0	2.7760	0	34.4890	0	27.506	0	1334.725	0	17.8	4	5.5	4	-1E+10	1	-1E+10	1	-1E+10	1	-1E+10	1	-1E+10	1	-1E+10	1
4902643	21	C	01/17/2025	09:59	-133.934	43.308	0	1369.10	0	2.7370	0	34.4940	0	27.513	0	1353.747	0	18.6	4	5.7	4	-1E+10	1	-1E+10	1	-1E+10	1	-1E+10	1	-1E+10	1	-1E+10	1
4902643	21	C	01/17/2025	09:59	-133.934	43.308	0	1389.80	0	2.7110	0	34.4970	0	27.518	0	1374.148	0	19.5	4	6.0	4	-1E+10	1	-1E+10	1	-1E+10	1	-1E+10	1	-1E+10	1	-1E+10	1
4902643	21	C	01/17/2025	09:59	-133.934	43.308	0	1410.00	0	2.6850	0	34.5010	0	27.523	0	1394.054	0	20.6	4	6.3	4	-1E+10	1	-1E+10	1	-1E+10	1	-1E+10	1	-1E+10	1	-1E+10	1
4902643	21	C	01/17/2025	09:59	-133.934	43.308	0	1429.80	0	2.6480	0	34.5060	0	27.531	0	1413.563	0	21.9	4	6.7	4	-1E+10	1	-1E+10	1	-1E+10	1	-1E+10	1	-1E+10	1	-1E+10	1
4902643	21	C	01/17/2025	09:59	-133.934	43.308	0	1449.90	0	2.5940	0	34.5120	0	27.540	0	1433.367	0	23.4	4	7.2	4	-1E+10	1	-1E+10	1	-1E+10	1	-1E+10	1	-1E+10	1	-1E+10	1
4902643	21	C	01/17/2025	09:59	-133.934	43.308	0	1469.60	0	2.5530	0	34.5170	0	27.548	0	1452.775	0	24.6	4	7.5	4	-1E+10	1	-1E+10	1	-1E+10	1	-1E+10	1	-1E+10	1	-1E+10	1
4902643	21	C	01/17/2025	09:59	-133.934	43.308	0	1489.70	0	2.5100	0	34.5210	0	27.555	0	1472.574	0	25.9	4	7.9	4	-1E+10	1	-1E+10	1	-1E+10	1	-1E+10	1	-1E+10	1	-1E+10	1
4902643	21	C	01/17/2025	09:59	-133.934	43.308	0	1510.50	0	2.4730	0	34.5260	0	27.562	0	1493.062	0	27.1	4	8.3	4	-1E+10	1	-1E+10	1	-1E+10	1	-1E+10	1	-1E+10	1	-1E+10	1
4902643	21	C	01/17/2025	09:59	-133.934	43.308	0	1530.10	0	2.4490	0	34.5290	0	27.566	0	1512.365	0	28.3	4	8.6	4	-1E+10	1	-1E+10	1	-1E+10	1	-1E+10	1	-1E+10	1	-1E+10	1
4902643	21	C	01/17/2025	09:59	-133.934	43.308	0	1549.80	0	2.4130	0	34.5330	0	27.573	0	1531.766	0	29.9	4	9.1	4	-1E+10	1	-1E+10	1	-1E+10	1	-1E+10	1	-1E+10	1	-1E+10	1
4902643	21	C	01/17/2025	09:59	-133.934	43.308	0	1569.80	0	2.3820	0	34.5370	0	27.579	0	1551.460	0	31.0	4	9.4	4	-1E+10	1	-1E+10	1	-1E+10	1	-1E+10	1	-1E+10	1	-1E+10	1
4902643	21	C	01/17/2025	09:59	-133.934	43.308	0	1590.00	0	2.3580	0	34.5410	0	27.584	0	1571.349	0	32.4	4	9.8	4	-1E+10	1	-1E+10	1	-1E+10	1	-1E+10	1	-1E+10	1	-1E+10	1
4902643	21	C	01/17/2025	09:59	-133.934	43.308	0	1610.60	0	2.3320	0	34.5440	0	27.588	0	1591.630	0	33.5	4	10.2	4	-1E+10	1	-1E+10	1	-1E+10	1	-1E+10	1	-1E+10	1	-1E+10	1
4902643	21	C	01/17/2025	09:59	-133.934	43.308	0	1629.70	0	2.2950	0	34.5470	0	27.594	0	1610.432	0	34.2	4	10.4	4	-1E+10	1	-1E+10	1	-1E+10	1	-1E+10	1	-1E+10	1	-1E+10	1
4902643	21	C	01/17/2025	09:59	-133.934	43.308	0	1650.50	0	2.2630	0	34.5520	0	27.601	0	1630.906	0	36.5	4	11.1	4	-1E+10	1	-1E+10	1	-1E+10	1	-1E+10	1	-1E+10	1	-1E+10	1
4902643	21	C	01/17/2025	09:59	-133.934	43.308	0	1669.50	0	2.2450	0	34.5550	0	27.605	0	1649.607	0	37.2	4	11.3	4	-1E+10	1	-1E+10	1	-1E+10	1	-1E+10	1	-1E+10	1	-1E+10	1
4902643	21	C	01/17/2025	09:59	-133.934	43.308	0	1689.60	0	2.2140	0	34.5560	0	27.608	0	1669.388	0	37.6	4	11.4	4	-1E+10	1	-1E+10	1	-1E+10	1	-1E+10	1	-1E+10	1	-1E+10	1
4902643	21	C	01/17/2025	09:59	-133.934	43.308	0	1709.70	0	2.1880	0	34.5590	0	27.613	0	1689.168	0	38.7	4	11.7	4	-1E+10	1	-1E+10	1	-1E+10	1	-1E+10	1	-1E+10	1	-1E+10	1
4902643	21	C	01/17/2025	09:59	-133.934	43.308	0	1729.80	0	2.1650	0	34.5620	0	27.617	0	1708.946	0	39.9	4	12.1	4	-1E+10	1	-1E+10	1	-1E+10	1	-1E+10	1	-1E+10	1	-1E+10	1
4902643	21	C	01/17/2025	09:59	-133.934	43.308	0	1750.00	0	2.1470	0	34.5650	0	27.621	0	1728.820	0	41.0	4	12.4	4	-1E+10	1	-1E+10	1	-1E+10	1	-1E+10	1	-1E+10	1	-1E+10	1
4902643	21	C	01/17/2025	09:59	-133.934	43.308	0	1770.00	0	2.1270	0	34.5680	0	27.625	0	1748.495	0	42.3	4	12.8	4	-1E+10	1	-1E+10	1	-1E+10	1	-1E+10	1	-1E+10	1	-1E+10	1
4902643	21	C	01/17/2025	09:59	-133.934	43.308	0	1790.00	0	2.1010	0	34.5720	0	27.630	0	1768.169	0	43.9	4	13.3	4	-1E+10	1	-1E+10	1	-1E+10	1	-1E+10	1	-1E+10	1	-1E+10	1
4902643	21	C	01/17/2025	09:59	-133.934	43.308	0	1809.80	0	2.0820	0	34.5750	0	27.634	0	1787.644	0	45.0	4	13.6	4	-1E+10	1	-1E+10	1	-1E+10	1	-1E+10	1	-1E+10	1	-1E+10	1
4902643	21	C	01/17/2025	09:59	-133.934	43.308	0	1830.40	0	2.0640	0	34.5780	0	27.638	0	1807.905	0	46.1	4	13.9	4	-1E+10	1	-1E+10	1	-1E+10	1	-1E+10	1	-1E+10	1	-1E+10	1
4902643	21	C	01/17/2025	09:59	-133.934	43.308	0	1850.00	0	2.0530	0	34.5800	0	27.641	0	1827.180	0	47.2	4	14.2	4	-1E+10	1	-1E+10	1	-1E+10	1	-1E+10	1	-1E+10	1	-1E+10	1
4902643	21	C	01/17/2025	09:59	-133.934	43.308	0	1870.00	0	2.0350	0	34.5820	0	27.644	0	1846.846	0	48.6	4	14.7	4	-1E+10	1	-1E+10	1	-1E+10	1	-1E+10	1	-1E+10	1	-1E+10	1
4902643	21	C	01/17/2025	09:59	-133.934	43.308	0	1889.70	0	2.0150	0	34.5850	0	27.648	0	1866.216	0	49.9	4	15.1	4	-1E+10	1	-1E+10	1	-1E+10	1	-1E+10	1	-1E+10	1	-1E+10	1
4902643	21	C	01/17/2025	09:59	-133.934	43.308	0	1909.60	0	1.9970	0	34.5880	0	27.652	0	1885.780	0	51.3	4	15.5	4	-1E+10	1	-1E+10	1	-1E+10	1	-1E+10	1	-1E+10	1	-1E+10	1
4902643	21	C	01/17/2025	09:59	-133.934	43.308	0	1929.70	0	1.9800	0	34.5910	0	27.656	0	1905.540	0	52.5	4	15.8	4	-1E+10	1	-1E+10	1	-1E+10	1	-1E+10	1	-1E+10	1	-1E+10	1
4902643	21	C	01/17/2025	09:59	-133.934	43.308	0	1949.90	0	1.9650	0	34.5940	0	27.659	0	1925.396	0	53.6	4	16.1	4	-1E+10	1	-1E+10	1	-1E+10	1	-1E+10	1	-1E+10	1	-1E+10	1
4902643	21	C	01/17/2025	09:59	-133.934	43.308	0	1969.80	0	1.9510	0	34.5950	0	27.661	0	1944.955	0	54.7	4	16.5	4	-1E+10	1	-1E+10	1	-1E+10	1	-1E+10	1	-1E+10	1	-1E+10	1
4902643	21	C	01/17/2025	09:59	-133.934	43.308	0	1989.70	0	1.9370	0	34.5980	0	27.665	0	1964.512	0	55.8	4	16.8	4	-1E+10	1	-1E+10	1	-1E+10	1	-1E+10	1	-1E+10	1	-1E+10	1
4902643	21	C	01/17/2025	09:59	-133.934	43.308	0	2009.90	0	1.9230	0	34.6000	4	27.668	0	1984.362	0	56.8	4	17.1	4	-1E+10	1	-1E+10	1	-1E+10	1	-1E+10	1	-1E+10	1	-1E+10	1
4902643	21	C	01/17/2025	09:59	-133.934	43.308	0	2029.70	0	1.9140	0	34.6010	4	27.669	0	2003.818	0	57.5	4	17.3	4	-1E+10	1	-1E+10	1	-1E+10	1	-1E+10	1	-1E+10	1	-1E+10	1
4902643	21	C	01/17/2025	09:59	-133.934	43.308	0	2049.80	0	1.9050	0	34.6030	4	27.672	0	2023.566	0	58.4	4	17.6	4	-1E+10	1	-1E+10	1	-1E+10	1	-1E+10	1	-1E+10	1	-1E+10	1
4902643	21	C	01/17/2025	09:59	-133.934	43.308	0	2070.40	0	1.8930	0	34.6050	4	27.674	0	2043.804	0	59.1	4	17.8	4	-1E+10	1	-1E+10	1	-1E+10	1	-1E+10	1	-1E+10	1	-1E+10	1
4902643	21	C	01/17/2025	09:59	-133.934	43.308	0	2089.80	0	1.8850	0	34.6060	4	27.676	0	2062.861	0	59.8	4	18.0	4	-1E+10	1	-1E+10	1	-1E+10	1	-1E+10	1	-1E+10	1	-1E+10	1
4902643	21	C	01/17/2025	09:59	-133.934	43.308	0	2109.70	0	1.8760	0	34.6070	4	27.678	0	2082.407	0	60.6	4	18.2	4	-1E+10	1	-1E+10	1	-1E+10	1	-1E+10	1	-1E+10	1	-1E+10	1
4902643	21	C	01/17/2025	09:59	-133.934	43.308	0	2129.80	0	1.8680	0	34.6090	4	27.680	0	2102.149	0	61.4	4	18.5	4	-1E+10	1	-1E+10	1	-1E+10	1	-1E+10	1	-1E+10	1	-1E+10	1
4902643	21	C	01/17/2025	09:59	-133.934	43.308	0	2150.00	0	1.8590	0	34.6100	4	27.681	0	2121.986	0	62.3	4	18.7	4	-1E+10	1	-1E+10	1	-1E+10	1	-1E+10	1	-1E+10	1	-1E+10	1
4902643	21	C	01/17/2025	09:59	-133.934	43.308	0	2169.90	0	1.8470	0	34.6120	4	27.684	0	2141.527	0	63.4	4	19.0	4	-1E+10	1	-1E+10	1	-1E+10	1	-1E+10	1	-1E+10	1	-1E+10	1
4902643	21	C	01/17/2025	09:59	-133.934	43.308	0	2189.50	0	1.8380	0	34.6130	4	27.686	0	2160.772	0	64.1	4	19.3	4	-1E+10	1	-1E+10	1	-1E+10	1	-1E+10	1	-1E+10	1	-1E+10	1
4902643	21	C	01/17/2025	09:59	-133.934	43.308	0	2209.80	0	1.8310	0	34.6140	4	27.687	0	2180.702	0	64.9	4	19.5	4	-1E+10	1	-1E+10	1	-1E+10	1	-1E+10	1	-1E+10	1	-1E+10	1
4902643	21	C	01/17/2025	09:59	-133.934	43.308	0	2230.40	0	1.8220	0	34.6160	4	27.690	0	2200.925	0	65.8	4	19.7	4	-1E+10	1	-1E+10	1	-1E+10	1	-1E+10	1	-1E+10	1	-1E+10	1
4902643	21	C	01/17/2025	09:59	-133.934	43.308	0	2249.70	0	1.8140	0	34.6170	4	27.691	0	2219.870	0	66.5	4	20.0	4	-1E+10	1	-1E+10	1	-1E+10	1	-1E+10	1	-1E+10	1	-1E+10	1
4902643	21	C	01/17/2025	09:59	-133.934	43.308	0	2269.90	0	1.8080	0	34.6180	4	27.692	0	2239.696	0	67.2	4	20.2	4	-1E+10	1	-1E+10	1	-1E+10	1	-1E+10	1	-1E+10	1	-1E+10	1
4902643	21	C	01/17/2025	09:59	-133.934	43.308	0	2290.00	0	1.7990	0	34.6200	4	27.695	0	2259.423	0	68.1	4	20.4	4	-1E+10	1	-1E+10	1	-1E+10	1	-1E+10	1	-1E+10	1	-1E+10	1
4902643	21	C	01/17/2025	09:59	-133.934	43.308	0	2309.80	0	1.7930	0	34.6210	4	27.696	0	2278.853	0	68.9	4	20.7	4	-1E+10	1	-1E+10	1	-1E+10	1	-1E+10	1	-1E+10	1	-1E+10	1
4902643	21	C	01/17/2025	09:59	-133.934	43.308	0	2330.60	0	1.7820	0	34.6220	4	27.698	0	2299.263	0	70.0	4	21.0	4	-1E+10	1	-1E+10	1	-1E+10	1	-1E+10	1	-1E+10	1	-1E+10	1
4902643	21	C	01/17/2025	09:59	-133.934	43.308	0	2349.70	0	1.7740	0	34.6230	4	27.699	0	2318.003	0	70.9	4	21.3	4	-1E+10	1	-1E+10	1	-1E+10	1	-1E+10	1	-1E+10	1	-1E+10	1
4902643	21	C	01/17/2025	09:59	-133.934	43.308	0	2369.60	0	1.7670	0	34.6250	4	27.702	0	2337.526	0	71.6	4	21.5	4	-1E+10	1	-1E+10	1	-1E+10	1	-1E+10	1	-1E+10	1	-1E+10	1
4902643	21	C	01/17/2025	09:59	-133.934	43.308	0	2389.70	0	1.7610	0	34.6250	4	27.702	0	2357.244	0	72.3	4	21.7	4	-1E+10	1	-1E+10	1	-1E+10	1	-1E+10	1	-1E+10	1	-1E+10	1
4902643	21	C	01/17/2025	09:59	-133.934	43.308	0	2409.50	0	1.7540	0	34.6260	4	27.704	0	2376.665	0	73.0	4	21.9	4	-1E+10	1	-1E+10	1	-1E+10	1	-1E+10	1	-1E+10	1	-1E+10	1
4902643	21	C	01/17/2025	09:59	-133.934	43.308	0	2429.70	0	1.7490	0	34.6270	4	27.705	0	2396.477	0	73.7	4	22.1	4	-1E+10	1	-1E+10	1	-1E+10	1	-1E+10	1	-1E+10	1	-1E+10	1
4902643	21	C	01/17/2025	09:59	-133.934	43.308	0	2449.70	0	1.7430	0	34.6280	4	27.706	0	2416.091	0	74.2	4	22.2	4	-1E+10	1	-1E+10	1	-1E+10	1	-1E+10	1	-1E+10	1	-1E+10	1
4902643	21	C	01/17/2025	09:59	-133.934	43.308	0	2469.60	0	1.7380	0	34.6290	4	27.708	0	2435.606	0	74.8	4	22.4	4	-1E+10	1	-1E+10	1	-1E+10	1	-1E+10	1	-1E+10	1	-1E+10	1
4902643	21	C	01/17/2025	09:59	-133.934	43.308	0	2489.90	0	1.7320	0	34.6300	4	27.709	0	2455.510	0	75.5	4	22.6	4	-1E+10	1	-1E+10	1	-1E+10	1	-1E+10	1	-1E+10	1	-1E+10	1
4902643	21	C	01/17/2025	09:59	-133.934	43.308	0	2509.90	0	1.7270	0	34.6300	4	27.710	0	2475.119	0	76.1	4	22.8	4	-1E+10	1	-1E+10	1	-1E+10	1	-1E+10	1	-1E+10	1	-1E+10	1
4902643	21	C	01/17/2025	09:59	-133.934	43.308	0	2529.60	0	1.7200	0	34.6310	4	27.711	0	2494.432	0	77.0	4	23.1	4	-1E+10	1	-1E+10	1	-1E+10	1	-1E+10	1	-1E+10	1	-1E+10	1
4902643	21	C	01/17/2025	09:59	-133.934	43.308	0	2549.50	0	1.7120	0	34.6320	4	27.712	0	2513.939	0	77.9	4	23.3	4	-1E+10	1	-1E+10	1	-1E+10	1	-1E+10	1	-1E+10	1	-1E+10	1
4902643	21	C	01/17/2025	09:59	-133.934	43.308	0	2569.80	0	1.7060	0	34.6330	4	27.714	0	2533.836	0	78.5	4	23.5	4	-1E+10	1	-1E+10	1	-1E+10	1	-1E+10	1	-1E+10	1	-1E+10	1
4902643	21	C	01/17/2025	09:59	-133.934	43.308	0	2589.90	0	1.7020	0	34.6340	4	27.715	0	2553.536	0	79.3	4	23.7	4	-1E+10	1	-1E+10	1	-1E+10	1	-1E+10	1	-1E+10	1	-1E+10	1
4902643	21	C	01/17/2025	09:59	-133.934	43.308	0	2609.70	0	1.6970	0	34.6350	4	27.716	0	2572.939	0	80.1	4	24.0	4	-1E+10	1	-1E+10	1	-1E+10	1	-1E+10	1	-1E+10	1	-1E+10	1
4902643	21	C	01/17/2025	09:59	-133.934	43.308	0	2629.80	0	1.6880	0	34.6360	4	27.718	0	2592.636	0	81.0	4	24.3	4	-1E+10	1	-1E+10	1	-1E+10	1	-1E+10	1	-1E+10	1	-1E+10	1
4902643	21	C	01/17/2025	09:59	-133.934	43.308	0	2649.70	0	1.6810	0	34.6370	4	27.719	0	2612.134	0	81.7	4	24.4	4	-1E+10	1	-1E+10	1	-1E+10	1	-1E+10	1	-1E+10	1	-1E+10	1
4902643	21	C	01/17/2025	09:59	-133.934	43.308	0	2669.70	0	1.6790	0	34.6380	4	27.720	0	2631.728	0	82.3	4	24.6	4	-1E+10	1	-1E+10	1	-1E+10	1	-1E+10	1	-1E+10	1	-1E+10	1
4902643	21	C	01/17/2025	09:59	-133.934	43.308	0	2689.90	0	1.6730	0	34.6390	4	27.722	0	2651.517	0	83.0	4	24.8	4	-1E+10	1	-1E+10	1	-1E+10	1	-1E+10	1	-1E+10	1	-1E+10	1
4902643	21	C	01/17/2025	09:59	-133.934	43.308	0	2709.70	0	1.6700	0	34.6390	4	27.722	0	2670.912	0	83.4	4	25.0	4	-1E+10	1	-1E+10	1	-1E+10	1	-1E+10	1	-1E+10	1	-1E+10	1
4902643	21	C	01/17/2025	09:59	-133.934	43.308	0	2730.30	0	1.6650	0	34.6400	4	27.723	0	2691.088	0	84.0	4	25.1	4	-1E+10	1	-1E+10	1	-1E+10	1	-1E+10	1	-1E+10	1	-1E+10	1
4902643	21	C	01/17/2025	09:59	-133.934	43.308	0	2749.60	0	1.6630	0	34.6400	4	27.724	0	2709.990	0	84.5	4	25.3	4	-1E+10	1	-1E+10	1	-1E+10	1	-1E+10	1	-1E+10	1	-1E+10	1
4902643	21	C	01/17/2025	09:59	-133.934	43.308	0	2769.90	0	1.6610	0	34.6410	4	27.725	0	2729.869	0	85.1	4	25.5	4	-1E+10	1	-1E+10	1	-1E+10	1	-1E+10	1	-1E+10	1	-1E+10	1
4902643	21	C	01/17/2025	09:59	-133.934	43.308	0	2790.50	0	1.6580	0	34.6420	4	27.726	0	2750.041	0	85.6	4	25.6	4	-1E+10	1	-1E+10	1	-1E+10	1	-1E+10	1	-1E+10	1	-1E+10	1
4902643	21	C	01/17/2025	09:59	-133.934	43.308	0	2809.70	0	1.6530	0	34.6420	4	27.726	0	2768.839	0	86.3	4	25.8	4	-1E+10	1	-1E+10	1	-1E+10	1	-1E+10	1	-1E+10	1	-1E+10	1
4902643	21	C	01/17/2025	09:59	-133.934	43.308	0	2829.60	0	1.6470	0	34.6430	4	27.728	0	2788.322	0	87.0	4	26.0	4	-1E+10	1	-1E+10	1	-1E+10	1	-1E+10	1	-1E+10	1	-1E+10	1
4902643	21	C	01/17/2025	09:59	-133.934	43.308	0	2849.80	0	1.6420	0	34.6440	4	27.729	0	2808.096	0	87.9	4	26.3	4	-1E+10	1	-1E+10	1	-1E+10	1	-1E+10	1	-1E+10	1	-1E+10	1
4902643	21	C	01/17/2025	09:59	-133.934	43.308	0	2869.80	0	1.6370	0	34.6450	4	27.730	0	2827.672	0	88.6	4	26.5	4	-1E+10	1	-1E+10	1	-1E+10	1	-1E+10	1	-1E+10	1	-1E+10	1
4902643	21	C	01/17/2025	09:59	-133.934	43.308	0	2889.60	0	1.6340	0	34.6450	4	27.731	0	2847.052	0	89.2	4	26.7	4	-1E+10	1	-1E+10	1	-1E+10	1	-1E+10	1	-1E+10	1	-1E+10	1
4902643	21	C	01/17/2025	09:59	-133.934	43.308	0	2909.60	0	1.6280	0	34.6460	4	27.732	0	2866.625	0	90.0	4	26.9	4	-1E+10	1	-1E+10	1	-1E+10	1	-1E+10	1	-1E+10	1	-1E+10	1
4902643	21	C	01/17/2025	09:59	-133.934	43.308	0	2930.00	0	1.6240	0	34.6470	4	27.733	0	2886.587	0	90.8	4	27.1	4	-1E+10	1	-1E+10	1	-1E+10	1	-1E+10	1	-1E+10	1	-1E+10	1
4902643	21	C	01/17/2025	09:59	-133.934	43.308	0	2949.60	0	1.6210	0	34.6480	4	27.734	0	2905.766	0	91.4	4	27.3	4	-1E+10	1	-1E+10	1	-1E+10	1	-1E+10	1	-1E+10	1	-1E+10	1
4902643	21	C	01/17/2025	09:59	-133.934	43.308	0	2969.40	0	1.6160	0	34.6490	4	27.736	0	2925.138	0	91.9	4	27.5	4	-1E+10	1	-1E+10	1	-1E+10	1	-1E+10	1	-1E+10	1	-1E+10	1
4902643	21	C	01/17/2025	09:59	-133.934	43.308	0	2989.40	0	1.6120	0	34.6490	4	27.736	0	2944.704	0	92.4	4	27.6	4	-1E+10	1	-1E+10	1	-1E+10	1	-1E+10	1	-1E+10	1	-1E+10	1
4902643	21	C	01/17/2025	09:59	-133.934	43.308	0	3009.70	0	1.6080	0	34.6490	4	27.737	0	2964.562	0	92.9	4	27.8	4	-1E+10	1	-1E+10	1	-1E+10	1	-1E+10	1	-1E+10	1	-1E+10	1
4902643	21	C	01/17/2025	09:59	-133.934	43.308	0	3029.80	0	1.6040	0	34.6500	4	27.738	0	2984.222	0	93.7	4	28.0	4	-1E+10	1	-1E+10	1	-1E+10	1	-1E+10	1	-1E+10	1	-1E+10	1
4902643	21	C	01/17/2025	09:59	-133.934	43.308	0	3050.50	0	1.5990	0	34.6510	4	27.739	0	3004.467	0	94.5	4	28.2	4	-1E+10	1	-1E+10	1	-1E+10	1	-1E+10	1	-1E+10	1	-1E+10	1
4902643	21	C	01/17/2025	09:59	-133.934	43.308	0	3070.50	0	1.5930	0	34.6520	4	27.740	0	3024.026	0	95.2	4	28.4	4	-1E+10	1	-1E+10	1	-1E+10	1	-1E+10	1	-1E+10	1	-1E+10	1
4902643	21	C	01/17/2025	09:59	-133.934	43.308	0	3090.20	0	1.5890	0	34.6530	4	27.742	0	3043.290	0	96.0	4	28.7	4	-1E+10	1	-1E+10	1	-1E+10	1	-1E+10	1	-1E+10	1	-1E+10	1
4902643	21	C	01/17/2025	09:59	-133.934	43.308	0	3109.90	0	1.5860	0	34.6530	4	27.742	0	3062.552	0	96.8	4	28.9	4	-1E+10	1	-1E+10	1	-1E+10	1	-1E+10	1	-1E+10	1	-1E+10	1
4902643	21	C	01/17/2025	09:59	-133.934	43.308	0	3130.00	0	1.5840	0	34.6540	4	27.743	0	3082.204	0	97.2	4	29.0	4	-1E+10	1	-1E+10	1	-1E+10	1	-1E+10	1	-1E+10	1	-1E+10	1
4902643	21	C	01/17/2025	09:59	-133.934	43.308	0	3150.00	0	1.5820	0	34.6550	4	27.744	0	3101.755	0	97.8	4	29.2	4	-1E+10	1	-1E+10	1	-1E+10	1	-1E+10	1	-1E+10	1	-1E+10	1
4902643	21	C	01/17/2025	09:59	-133.934	43.308	0	3170.00	0	1.5800	0	34.6550	4	27.744	0	3121.306	0	98.1	4	29.3	4	-1E+10	1	-1E+10	1	-1E+10	1	-1E+10	1	-1E+10	1	-1E+10	1
4902643	21	C	01/17/2025	09:59	-133.934	43.308	0	3190.30	0	1.5780	0	34.6560	4	27.746	0	3141.147	0	98.6	4	29.4	4	-1E+10	1	-1E+10	1	-1E+10	1	-1E+10	1	-1E+10	1	-1E+10	1
4902643	21	C	01/17/2025	09:59	-133.934	43.308	0	3210.10	0	1.5750	0	34.6560	4	27.746	0	3160.499	0	99.1	4	29.6	4	-1E+10	1	-1E+10	1	-1E+10	1	-1E+10	1	-1E+10	1	-1E+10	1
4902643	21	C	01/17/2025	09:59	-133.934	43.308	0	3229.90	0	1.5720	0	34.6560	4	27.746	0	3179.848	0	99.5	4	29.7	4	-1E+10	1	-1E+10	1	-1E+10	1	-1E+10	1	-1E+10	1	-1E+10	1
4902643	21	C	01/17/2025	09:59	-133.934	43.308	0	3250.00	0	1.5690	0	34.6570	4	27.747	0	3199.489	0	100.0	4	29.9	4	-1E+10	1	-1E+10	1	-1E+10	1	-1E+10	1	-1E+10	1	-1E+10	1
4902643	21	C	01/17/2025	09:59	-133.934	43.308	0	3270.10	0	1.5670	0	34.6570	4	27.748	0	3219.128	0	100.5	4	30.0	4	-1E+10	1	-1E+10	1	-1E+10	1	-1E+10	1	-1E+10	1	-1E+10	1
4902643	21	C	01/17/2025	09:59	-133.934	43.308	0	3289.80	0	1.5640	0	34.6580	4	27.749	0	3238.375	0	101.1	4	30.2	4	-1E+10	1	-1E+10	1	-1E+10	1	-1E+10	1	-1E+10	1	-1E+10	1
4902643	21	C	01/17/2025	09:59	-133.934	43.308	0	3310.10	0	1.5620	0	34.6590	4	27.750	0	3258.206	0	101.7	4	30.3	4	-1E+10	1	-1E+10	1	-1E+10	1	-1E+10	1	-1E+10	1	-1E+10	1
4902643	21	C	01/17/2025	09:59	-133.934	43.308	0	3330.20	0	1.5600	0	34.6590	4	27.750	0	3277.839	0	102.2	4	30.5	4	-1E+10	1	-1E+10	1	-1E+10	1	-1E+10	1	-1E+10	1	-1E+10	1
4902643	21	C	01/17/2025	09:59	-133.934	43.308	0	3350.40	0	1.5560	0	34.6600	4	27.751	0	3297.569	0	102.8	4	30.7	4	-1E+10	1	-1E+10	1	-1E+10	1	-1E+10	1	-1E+10	1	-1E+10	1
4902643	21	C	01/17/2025	09:59	-133.934	43.308	0	3369.90	0	1.5530	0	34.6610	4	27.753	0	3316.613	0	103.5	4	30.9	4	-1E+10	1	-1E+10	1	-1E+10	1	-1E+10	1	-1E+10	1	-1E+10	1
4902643	21	C	01/17/2025	09:59	-133.934	43.308	0	3389.90	0	1.5510	0	34.6610	4	27.753	0	3336.144	0	104.0	4	31.0	4	-1E+10	1	-1E+10	1	-1E+10	1	-1E+10	1	-1E+10	1	-1E+10	1
4902643	21	C	01/17/2025	09:59	-133.934	43.308	0	3409.90	0	1.5510	0	34.6620	4	27.754	0	3355.673	0	104.3	4	31.1	4	-1E+10	1	-1E+10	1	-1E+10	1	-1E+10	1	-1E+10	1	-1E+10	1
4902643	21	C	01/17/2025	09:59	-133.934	43.308	0	3430.10	0	1.5500	0	34.6620	4	27.754	0	3375.396	0	104.7	4	31.2	4	-1E+10	1	-1E+10	1	-1E+10	1	-1E+10	1	-1E+10	1	-1E+10	1
4902643	21	C	01/17/2025	09:59	-133.934	43.308	0	3450.10	0	1.5490	0	34.6630	4	27.755	0	3394.922	0	105.1	4	31.3	4	-1E+10	1	-1E+10	1	-1E+10	1	-1E+10	1	-1E+10	1	-1E+10	1
4902643	21	C	01/17/2025	09:59	-133.934	43.308	0	3470.20	0	1.5480	0	34.6630	4	27.755	0	3414.543	0	105.5	4	31.5	4	-1E+10	1	-1E+10	1	-1E+10	1	-1E+10	1	-1E+10	1	-1E+10	1
4902643	21	C	01/17/2025	09:59	-133.934	43.308	0	3490.10	0	1.5470	0	34.6640	4	27.756	0	3433.968	0	105.9	4	31.6	4	-1E+10	1	-1E+10	1	-1E+10	1	-1E+10	1	-1E+10	1	-1E+10	1
4902643	21	C	01/17/2025	09:59	-133.934	43.308	0	3509.80	0	1.5460	0	34.6640	4	27.756	0	3453.196	0	106.3	4	31.7	4	-1E+10	1	-1E+10	1	-1E+10	1	-1E+10	1	-1E+10	1	-1E+10	1
4902643	21	C	01/17/2025	09:59	-133.934	43.308	0	3529.80	0	1.5450	0	34.6650	4	27.757	0	3472.714	0	106.6	4	31.8	4	-1E+10	1	-1E+10	1	-1E+10	1	-1E+10	1	-1E+10	1	-1E+10	1
4902643	21	C	01/17/2025	09:59	-133.934	43.308	0	3550.30	0	1.5450	0	34.6650	4	27.758	0	3492.719	0	106.9	4	31.9	4	-1E+10	1	-1E+10	1	-1E+10	1	-1E+10	1	-1E+10	1	-1E+10	1
4902643	21	C	01/17/2025	09:59	-133.934	43.308	0	3569.70	0	1.5450	0	34.6650	4	27.758	0	3511.649	0	107.2	4	32.0	4	-1E+10	1	-1E+10	1	-1E+10	1	-1E+10	1	-1E+10	1	-1E+10	1
4902643	21	C	01/17/2025	09:59	-133.934	43.308	0	3589.80	0	1.5440	0	34.6660	4	27.759	0	3531.260	0	107.5	4	32.1	4	-1E+10	1	-1E+10	1	-1E+10	1	-1E+10	1	-1E+10	1	-1E+10	1
4902643	21	C	01/17/2025	09:59	-133.934	43.308	0	3609.80	0	1.5450	0	34.6660	4	27.759	0	3550.772	0	107.8	4	32.1	4	-1E+10	1	-1E+10	1	-1E+10	1	-1E+10	1	-1E+10	1	-1E+10	1
4902643	21	C	01/17/2025	09:59	-133.934	43.308	0	3629.70	0	1.5460	0	34.6660	4	27.759	0	3570.185	0	107.9	4	32.2	4	-1E+10	1	-1E+10	1	-1E+10	1	-1E+10	1	-1E+10	1	-1E+10	1
4902643	21	C	01/17/2025	09:59	-133.934	43.308	0	3649.80	0	1.5450	0	34.6670	4	27.760	0	3589.791	0	108.2	4	32.3	4	-1E+10	1	-1E+10	1	-1E+10	1	-1E+10	1	-1E+10	1	-1E+10	1
4902643	21	C	01/17/2025	09:59	-133.934	43.308	0	3670.30	0	1.5460	0	34.6670	4	27.760	0	3609.785	0	108.3	4	32.3	4	-1E+10	1	-1E+10	1	-1E+10	1	-1E+10	1	-1E+10	1	-1E+10	1
4902643	21	C	01/17/2025	09:59	-133.934	43.308	0	3689.90	0	1.5470	0	34.6670	4	27.760	0	3628.899	0	108.6	4	32.4	4	-1E+10	1	-1E+10	1	-1E+10	1	-1E+10	1	-1E+10	1	-1E+10	1
4902643	21	C	01/17/2025	09:59	-133.934	43.308	0	3710.20	0	1.5470	0	34.6670	4	27.760	0	3648.695	0	108.8	4	32.4	4	-1E+10	1	-1E+10	1	-1E+10	1	-1E+10	1	-1E+10	1	-1E+10	1
4902643	21	C	01/17/2025	09:59	-133.934	43.308	0	3730.20	0	1.5480	0	34.6680	4	27.761	0	3668.196	0	108.8	4	32.5	4	-1E+10	1	-1E+10	1	-1E+10	1	-1E+10	1	-1E+10	1	-1E+10	1
4902643	21	C	01/17/2025	09:59	-133.934	43.308	0	3750.00	0	1.5500	0	34.6680	4	27.761	0	3687.501	0	108.8	4	32.4	4	-1E+10	1	-1E+10	1	-1E+10	1	-1E+10	1	-1E+10	1	-1E+10	1
4902643	21	C	01/17/2025	09:59	-133.934	43.308	0	3770.30	0	1.5510	0	34.6680	4	27.761	0	3707.292	0	108.8	4	32.4	4	-1E+10	1	-1E+10	1	-1E+10	1	-1E+10	1	-1E+10	1	-1E+10	1
4902643	21	C	01/17/2025	09:59	-133.934	43.308	0	3785.30	0	1.5510	0	34.6680	4	27.761	0	3721.914	0	108.5	4	32.4	4	-1E+10	1	-1E+10	1	-1E+10	1	-1E+10	1	-1E+10	1	-1E+10	1
4902643	21	C	01/17/2025	09:59	-133.934	43.308	0																										
4902643	22	C	01/27/2025	13:03	-133.922	43.196	0	0.50	0	12.2400	0	32.7980	0	24.835	0	0.496	0	247.2	4	92.9	4	-1E+10	1	-1E+10	1	-1E+10	1	-1E+10	1	-1E+10	1	-1E+10	1
4902643	22	C	01/27/2025	13:03	-133.922	43.196	0	0.60	0	12.2390	0	32.8000	0	24.836	0	0.595	0	247.1	4	92.9	4	-1E+10	1	-1E+10	1	-1E+10	1	-1E+10	1	-1E+10	1	-1E+10	1
4902643	22	C	01/27/2025	13:03	-133.922	43.196	0	0.70	0	12.2404	0	32.7976	0	24.834	0	0.694	0	247.1	4	92.9	4	-1E+10	1	-1E+10	1	-1E+10	1	-1E+10	1	-1E+10	1	-1E+10	1
4902643	22	C	01/27/2025	13:03	-133.922	43.196	0	0.80	0	12.2440	0	32.7940	0	24.831	0	0.794	0	247.1	4	92.9	4	-1E+10	1	-1E+10	1	-1E+10	1	-1E+10	1	-1E+10	1	-1E+10	1
4902643	22	C	01/27/2025	13:03	-133.922	43.196	0	0.90	0	12.2400	0	32.7965	0	24.834	0	0.893	0	-1e10	1	-1e10	1	-1E+10	1	-1E+10	1	-1E+10	1	-1E+10	1	-1E+10	1	-1E+10	1
4902643	22	C	01/27/2025	13:03	-133.922	43.196	0	1.00	0	12.2480	0	32.7970	0	24.832	0	0.992	0	246.9	4	92.8	4	-1E+10	1	-1E+10	1	-1E+10	1	-1E+10	1	-1E+10	1	-1E+10	1
4902643	22	C	01/27/2025	13:03	-133.922	43.196	0	1.60	0	12.2500	0	32.7990	0	24.834	0	1.587	0	246.9	4	92.8	4	-1E+10	1	-1E+10	1	-1E+10	1	-1E+10	1	-1E+10	1	-1E+10	1
4902643	22	C	01/27/2025	13:03	-133.922	43.196	0	2.80	0	12.2500	0	32.8010	0	24.835	0	2.778	0	246.8	4	92.8	4	-1E+10	1	-1E+10	1	-1E+10	1	-1E+10	1	-1E+10	1	-1E+10	1
4902643	22	C	01/27/2025	13:03	-133.922	43.196	0	3.70	0	12.2570	0	32.7970	0	24.831	0	3.671	0	246.7	4	92.8	4	-1E+10	1	-1E+10	1	-1E+10	1	-1E+10	1	-1E+10	1	-1E+10	1
4902643	22	C	01/27/2025	13:03	-133.922	43.196	0	4.60	0	12.2570	0	32.7970	0	24.831	0	4.563	0	246.7	4	92.7	4	-1E+10	1	-1E+10	1	-1E+10	1	-1E+10	1	-1E+10	1	-1E+10	1
4902643	22	C	01/27/2025	13:03	-133.922	43.196	0	5.40	0	12.2570	0	32.7960	0	24.830	0	5.357	0	246.7	4	92.7	4	-1E+10	1	-1E+10	1	-1E+10	1	-1E+10	1	-1E+10	1	-1E+10	1
4902643	22	C	01/27/2025	13:03	-133.922	43.196	0	6.50	0	12.2560	0	32.7960	0	24.830	0	6.448	0	246.6	4	92.7	4	-1E+10	1	-1E+10	1	-1E+10	1	-1E+10	1	-1E+10	1	-1E+10	1
4902643	22	C	01/27/2025	13:03	-133.922	43.196	0	7.50	0	12.2560	0	32.7970	0	24.831	0	7.440	0	246.7	4	92.8	4	-1E+10	1	-1E+10	1	-1E+10	1	-1E+10	1	-1E+10	1	-1E+10	1
4902643	22	C	01/27/2025	13:03	-133.922	43.196	0	8.50	0	12.2560	0	32.7970	0	24.831	0	8.432	0	246.7	4	92.7	4	-1E+10	1	-1E+10	1	-1E+10	1	-1E+10	1	-1E+10	1	-1E+10	1
4902643	22	C	01/27/2025	13:03	-133.922	43.196	0	9.50	0	12.2560	0	32.7970	0	24.831	0	9.424	0	246.7	4	92.7	4	-1E+10	1	-1E+10	1	-1E+10	1	-1E+10	1	-1E+10	1	-1E+10	1
4902643	22	C	01/27/2025	13:03	-133.922	43.196	0	14.50	0	12.2560	0	32.7970	0	24.831	0	14.384	0	246.6	4	92.7	4	-1E+10	1	-1E+10	1	-1E+10	1	-1E+10	1	-1E+10	1	-1E+10	1
4902643	22	C	01/27/2025	13:03	-133.922	43.196	0	24.60	0	12.2550	0	32.7960	0	24.831	0	24.403	0	246.5	4	92.7	4	-1E+10	1	-1E+10	1	-1E+10	1	-1E+10	1	-1E+10	1	-1E+10	1
4902643	22	C	01/27/2025	13:03	-133.922	43.196	0	34.90	0	12.2560	0	32.7960	0	24.831	0	34.620	0	246.3	4	92.6	4	-1E+10	1	-1E+10	1	-1E+10	1	-1E+10	1	-1E+10	1	-1E+10	1
4902643	22	C	01/27/2025	13:03	-133.922	43.196	0	45.40	0	12.2590	0	32.7960	0	24.831	0	45.034	0	246.1	4	92.5	4	-1E+10	1	-1E+10	1	-1E+10	1	-1E+10	1	-1E+10	1	-1E+10	1
4902643	22	C	01/27/2025	13:03	-133.922	43.196	0	55.30	0	12.2580	0	32.7960	0	24.831	0	54.853	0	245.6	4	92.3	4	-1E+10	1	-1E+10	1	-1E+10	1	-1E+10	1	-1E+10	1	-1E+10	1
4902643	22	C	01/27/2025	13:03	-133.922	43.196	0	64.80	0	12.2570	0	32.7950	0	24.831	0	64.275	0	244.0	4	91.7	4	-1E+10	1	-1E+10	1	-1E+10	1	-1E+10	1	-1E+10	1	-1E+10	1
4902643	22	C	01/27/2025	13:03	-133.922	43.196	0	74.90	0	12.1180	0	32.8000	0	24.861	0	74.291	0	240.0	4	90.0	4	-1E+10	1	-1E+10	1	-1E+10	1	-1E+10	1	-1E+10	1	-1E+10	1
4902643	22	C	01/27/2025	13:03	-133.922	43.196	0	84.80	0	11.7890	0	32.8130	0	24.933	0	84.108	0	237.4	4	88.4	4	-1E+10	1	-1E+10	1	-1E+10	1	-1E+10	1	-1E+10	1	-1E+10	1
4902643	22	C	01/27/2025	13:03	-133.922	43.196	0	94.60	0	11.4240	0	32.8290	0	25.012	0	93.826	0	235.9	4	87.2	4	-1E+10	1	-1E+10	1	-1E+10	1	-1E+10	1	-1E+10	1	-1E+10	1
4902643	22	C	01/27/2025	13:03	-133.922	43.196	0	104.60	0	11.1040	0	32.8400	0	25.078	0	103.742	0	233.0	4	85.5	4	-1E+10	1	-1E+10	1	-1E+10	1	-1E+10	1	-1E+10	1	-1E+10	1
4902643	22	C	01/27/2025	13:03	-133.922	43.196	0	115.10	0	10.6280	0	32.8950	0	25.205	0	114.153	0	227.4	4	82.7	4	-1E+10	1	-1E+10	1	-1E+10	1	-1E+10	1	-1E+10	1	-1E+10	1
4902643	22	C	01/27/2025	13:03	-133.922	43.196	0	124.90	0	10.1050	0	32.9590	0	25.344	0	123.869	0	220.1	4	79.2	4	-1E+10	1	-1E+10	1	-1E+10	1	-1E+10	1	-1E+10	1	-1E+10	1
4902643	22	C	01/27/2025	13:03	-133.922	43.196	0	134.80	0	9.6290	0	33.0480	0	25.492	0	133.684	0	213.8	4	76.2	4	-1E+10	1	-1E+10	1	-1E+10	1	-1E+10	1	-1E+10	1	-1E+10	1
4902643	22	C	01/27/2025	13:03	-133.922	43.196	0	144.50	0	9.4020	0	33.1440	0	25.604	0	143.301	0	208.7	4	74.0	4	-1E+10	1	-1E+10	1	-1E+10	1	-1E+10	1	-1E+10	1	-1E+10	1
4902643	22	C	01/27/2025	13:03	-133.922	43.196	0	155.00	0	9.1750	0	33.2370	0	25.713	0	153.710	0	202.9	4	71.7	4	-1E+10	1	-1E+10	1	-1E+10	1	-1E+10	1	-1E+10	1	-1E+10	1
4902643	22	C	01/27/2025	13:03	-133.922	43.196	0	165.50	0	8.9350	0	33.3540	0	25.843	0	164.118	0	194.1	4	68.3	4	-1E+10	1	-1E+10	1	-1E+10	1	-1E+10	1	-1E+10	1	-1E+10	1
4902643	22	C	01/27/2025	13:03	-133.922	43.196	0	174.90	0	8.6260	0	33.5260	0	26.025	0	173.436	0	191.1	4	66.8	4	-1E+10	1	-1E+10	1	-1E+10	1	-1E+10	1	-1E+10	1	-1E+10	1
4902643	22	C	01/27/2025	13:03	-133.922	43.196	0	185.10	0	8.4510	0	33.6110	0	26.119	0	183.546	0	187.5	4	65.3	4	-1E+10	1	-1E+10	1	-1E+10	1	-1E+10	1	-1E+10	1	-1E+10	1
4902643	22	C	01/27/2025	13:03	-133.922	43.196	0	194.90	0	8.2600	0	33.6850	0	26.206	0	193.259	0	184.1	4	63.9	4	-1E+10	1	-1E+10	1	-1E+10	1	-1E+10	1	-1E+10	1	-1E+10	1
4902643	22	C	01/27/2025	13:03	-133.922	43.196	0	209.80	0	8.0090	0	33.7430	0	26.289	0	208.026	0	183.9	4	63.5	4	-1E+10	1	-1E+10	1	-1E+10	1	-1E+10	1	-1E+10	1	-1E+10	1
4902643	22	C	01/27/2025	13:03	-133.922	43.196	0	230.00	0	7.6710	0	33.8030	0	26.385	0	228.044	0	180.1	4	61.8	4	-1E+10	1	-1E+10	1	-1E+10	1	-1E+10	1	-1E+10	1	-1E+10	1
4902643	22	C	01/27/2025	13:03	-133.922	43.196	0	250.10	0	7.2890	0	33.8320	0	26.462	0	247.961	0	168.9	4	57.4	4	-1E+10	1	-1E+10	1	-1E+10	1	-1E+10	1	-1E+10	1	-1E+10	1
4902643	22	C	01/27/2025	13:03	-133.922	43.196	0	269.60	0	6.9610	0	33.8380	0	26.512	0	267.282	0	160.8	4	54.3	4	-1E+10	1	-1E+10	1	-1E+10	1	-1E+10	1	-1E+10	1	-1E+10	1
4902643	22	C	01/27/2025	13:03	-133.922	43.196	0	290.10	0	6.5910	0	33.8370	0	26.561	0	287.591	0	146.5	4	49.0	4	-1E+10	1	-1E+10	1	-1E+10	1	-1E+10	1	-1E+10	1	-1E+10	1
4902643	22	C	01/27/2025	13:03	-133.922	43.196	0	309.40	0	6.3370	0	33.8480	0	26.603	0	306.710	0	128.3	4	42.7	4	-1E+10	1	-1E+10	1	-1E+10	1	-1E+10	1	-1E+10	1	-1E+10	1
4902643	22	C	01/27/2025	13:03	-133.922	43.196	0	329.60	0	6.0670	0	33.8540	0	26.642	0	326.718	0	118.3	4	39.1	4	-1E+10	1	-1E+10	1	-1E+10	1	-1E+10	1	-1E+10	1	-1E+10	1
4902643	22	C	01/27/2025	13:03	-133.922	43.196	0	349.70	0	5.8520	0	33.8570	0	26.672	0	346.626	0	109.5	4	36.0	4	-1E+10	1	-1E+10	1	-1E+10	1	-1E+10	1	-1E+10	1	-1E+10	1
4902643	22	C	01/27/2025	13:03	-133.922	43.196	0	369.80	0	5.6860	0	33.8640	0	26.698	0	366.531	0	103.0	4	33.8	4	-1E+10	1	-1E+10	1	-1E+10	1	-1E+10	1	-1E+10	1	-1E+10	1
4902643	22	C	01/27/2025	13:03	-133.922	43.196	0	390.00	0	5.5170	0	33.8720	0	26.725	0	386.534	0	95.5	4	31.2	4	-1E+10	1	-1E+10	1	-1E+10	1	-1E+10	1	-1E+10	1	-1E+10	1
4902643	22	C	01/27/2025	13:03	-133.922	43.196	0	409.90	0	5.3190	0	33.8790	0	26.754	0	406.238	0	89.0	4	28.9	4	-1E+10	1	-1E+10	1	-1E+10	1	-1E+10	1	-1E+10	1	-1E+10	1
4902643	22	C	01/27/2025	13:03	-133.922	43.196	0	429.70	0	5.1240	0	33.8870	0	26.783	0	425.840	0	82.0	4	26.5	4	-1E+10	1	-1E+10	1	-1E+10	1	-1E+10	1	-1E+10	1	-1E+10	1
4902643	22	C	01/27/2025	13:03	-133.922	43.196	0	449.90	0	4.8730	0	33.8930	0	26.816	0	445.837	0	73.4	4	23.6	4	-1E+10	1	-1E+10	1	-1E+10	1	-1E+10	1	-1E+10	1	-1E+10	1
4902643	22	C	01/27/2025	13:03	-133.922	43.196	0	470.30	0	4.6950	0	33.9100	0	26.849	0	466.030	0	65.7	4	21.1	4	-1E+10	1	-1E+10	1	-1E+10	1	-1E+10	1	-1E+10	1	-1E+10	1
4902643	22	C	01/27/2025	13:03	-133.922	43.196	0	490.70	0	4.5560	0	33.9310	0	26.881	0	486.221	0	58.6	4	18.7	4	-1E+10	1	-1E+10	1	-1E+10	1	-1E+10	1	-1E+10	1	-1E+10	1
4902643	22	C	01/27/2025	13:03	-133.922	43.196	0	509.60	0	4.4810	0	33.9540	0	26.908	0	504.926	0	54.5	4	17.4	4	-1E+10	1	-1E+10	1	-1E+10	1	-1E+10	1	-1E+10	1	-1E+10	1
4902643	22	C	01/27/2025	13:03	-133.922	43.196	0	529.50	0	4.4470	0	33.9810	0	26.933	0	524.618	0	50.4	4	16.1	4	-1E+10	1	-1E+10	1	-1E+10	1	-1E+10	1	-1E+10	1	-1E+10	1
4902643	22	C	01/27/2025	13:03	-133.922	43.196	0	549.80	0	4.4160	0	34.0060	0	26.956	0	544.704	0	46.0	4	14.7	4	-1E+10	1	-1E+10	1	-1E+10	1	-1E+10	1	-1E+10	1	-1E+10	1
4902643	22	C	01/27/2025	13:03	-133.922	43.196	0	569.70	0	4.3550	0	34.0280	0	26.980	0	564.393	0	41.0	4	13.0	4	-1E+10	1	-1E+10	1	-1E+10	1	-1E+10	1	-1E+10	1	-1E+10	1
4902643	22	C	01/27/2025	13:03	-133.922	43.196	0	590.00	0	4.2910	0	34.0510	0	27.006	0	584.475	0	36.4	4	11.6	4	-1E+10	1	-1E+10	1	-1E+10	1	-1E+10	1	-1E+10	1	-1E+10	1
4902643	22	C	01/27/2025	13:03	-133.922	43.196	0	609.90	0	4.2190	0	34.0710	0	27.029	0	604.160	0	32.0	4	10.2	4	-1E+10	1	-1E+10	1	-1E+10	1	-1E+10	1	-1E+10	1	-1E+10	1
4902643	22	C	01/27/2025	13:03	-133.922	43.196	0	630.00	0	4.1620	0	34.0940	0	27.054	0	624.041	0	27.9	4	8.8	4	-1E+10	1	-1E+10	1	-1E+10	1	-1E+10	1	-1E+10	1	-1E+10	1
4902643	22	C	01/27/2025	13:03	-133.922	43.196	0	650.00	0	4.0890	0	34.1130	0	27.076	0	643.821	0	24.5	4	7.7	4	-1E+10	1	-1E+10	1	-1E+10	1	-1E+10	1	-1E+10	1	-1E+10	1
4902643	22	C	01/27/2025	13:03	-133.922	43.196	0	670.10	0	4.0550	0	34.1330	0	27.096	0	663.698	0	20.7	4	6.5	4	-1E+10	1	-1E+10	1	-1E+10	1	-1E+10	1	-1E+10	1	-1E+10	1
4902643	22	C	01/27/2025	13:03	-133.922	43.196	0	690.60	0	3.9910	0	34.1520	0	27.118	0	683.968	0	19.0	4	6.0	4	-1E+10	1	-1E+10	1	-1E+10	1	-1E+10	1	-1E+10	1	-1E+10	1
4902643	22	C	01/27/2025	13:03	-133.922	43.196	0	709.70	0	3.9390	0	34.1610	0	27.130	0	702.853	0	18.2	4	5.7	4	-1E+10	1	-1E+10	1	-1E+10	1	-1E+10	1	-1E+10	1	-1E+10	1
4902643	22	C	01/27/2025	13:03	-133.922	43.196	0	730.00	0	3.8940	0	34.1740	0	27.145	0	722.922	0	16.5	4	5.2	4	-1E+10	1	-1E+10	1	-1E+10	1	-1E+10	1	-1E+10	1	-1E+10	1
4902643	22	C	01/27/2025	13:03	-133.922	43.196	0	750.00	0	3.8440	0	34.1890	0	27.162	0	742.692	0	14.8	4	4.6	4	-1E+10	1	-1E+10	1	-1E+10	1	-1E+10	1	-1E+10	1	-1E+10	1
4902643	22	C	01/27/2025	13:03	-133.922	43.196	0	769.90	0	3.8030	0	34.2020	0	27.177	0	762.362	0	13.5	4	4.2	4	-1E+10	1	-1E+10	1	-1E+10	1	-1E+10	1	-1E+10	1	-1E+10	1
4902643	22	C	01/27/2025	13:03	-133.922	43.196	0	790.10	0	3.7570	0	34.2160	0	27.193	0	782.326	0	12.3	4	3.9	4	-1E+10	1	-1E+10	1	-1E+10	1	-1E+10	1	-1E+10	1	-1E+10	1
4902643	22	C	01/27/2025	13:03	-133.922	43.196	0	810.20	0	3.7110	0	34.2290	0	27.208	0	802.190	0	11.3	4	3.5	4	-1E+10	1	-1E+10	1	-1E+10	1	-1E+10	1	-1E+10	1	-1E+10	1
4902643	22	C	01/27/2025	13:03	-133.922	43.196	0	830.30	0	3.6780	0	34.2400	0	27.220	0	822.052	0	10.5	4	3.3	4	-1E+10	1	-1E+10	1	-1E+10	1	-1E+10	1	-1E+10	1	-1E+10	1
4902643	22	C	01/27/2025	13:03	-133.922	43.196	0	849.80	0	3.6360	0	34.2540	0	27.235	0	841.319	0	9.4	4	2.9	4	-1E+10	1	-1E+10	1	-1E+10	1	-1E+10	1	-1E+10	1	-1E+10	1
4902643	22	C	01/27/2025	13:03	-133.922	43.196	0	869.80	0	3.6090	0	34.2690	0	27.250	0	861.078	0	8.5	4	2.7	4	-1E+10	1	-1E+10	1	-1E+10	1	-1E+10	1	-1E+10	1	-1E+10	1
4902643	22	C	01/27/2025	13:03	-133.922	43.196	0	889.80	0	3.5880	0	34.2820	0	27.263	0	880.835	0	8.0	4	2.5	4	-1E+10	1	-1E+10	1	-1E+10	1	-1E+10	1	-1E+10	1	-1E+10	1
4902643	22	C	01/27/2025	13:03	-133.922	43.196	0	909.70	0	3.5660	0	34.2930	0	27.274	0	900.492	0	7.5	4	2.4	4	-1E+10	1	-1E+10	1	-1E+10	1	-1E+10	1	-1E+10	1	-1E+10	1
4902643	22	C	01/27/2025	13:03	-133.922	43.196	0	929.60	0	3.5590	0	34.3100	0	27.288	0	920.147	0	7.1	4	2.2	4	-1E+10	1	-1E+10	1	-1E+10	1	-1E+10	1	-1E+10	1	-1E+10	1
4902643	22	C	01/27/2025	13:03	-133.922	43.196	0	949.70	0	3.5510	0	34.3240	0	27.300	0	939.997	0	6.9	4	2.1	4	-1E+10	1	-1E+10	1	-1E+10	1	-1E+10	1	-1E+10	1	-1E+10	1
4902643	22	C	01/27/2025	13:03	-133.922	43.196	0	970.00	0	3.5220	0	34.3370	0	27.313	0	960.043	0	6.8	4	2.1	4	-1E+10	1	-1E+10	1	-1E+10	1	-1E+10	1	-1E+10	1	-1E+10	1
4902643	22	C	01/27/2025	13:03	-133.922	43.196	0	989.80	0	3.4960	0	34.3510	0	27.327	0	979.594	0	6.8	4	2.1	4	-1E+10	1	-1E+10	1	-1E+10	1	-1E+10	1	-1E+10	1	-1E+10	1
4902643	22	C	01/27/2025	13:03	-133.922	43.196	0	1009.70	0	3.4730	0	34.3610	0	27.338	0	999.241	0	6.9	4	2.2	4	-1E+10	1	-1E+10	1	-1E+10	1	-1E+10	1	-1E+10	1	-1E+10	1
4902643	22	C	01/27/2025	13:03	-133.922	43.196	0	1029.70	0	3.4430	0	34.3760	0	27.353	0	1018.985	0	7.2	4	2.2	4	-1E+10	1	-1E+10	1	-1E+10	1	-1E+10	1	-1E+10	1	-1E+10	1
4902643	22	C	01/27/2025	13:03	-133.922	43.196	0	1050.20	0	3.3930	0	34.3840	0	27.364	0	1039.221	0	7.3	4	2.3	4	-1E+10	1	-1E+10	1	-1E+10	1	-1E+10	1	-1E+10	1	-1E+10	1
4902643	22	C	01/27/2025	13:03	-133.922	43.196	0	1070.10	0	3.3420	0	34.3930	0	27.376	0	1058.863	0	7.6	4	2.4	4	-1E+10	1	-1E+10	1	-1E+10	1	-1E+10	1	-1E+10	1	-1E+10	1
4902643	22	C	01/27/2025	13:03	-133.922	43.196	0	1089.70	0	3.3060	0	34.4010	0	27.386	0	1078.207	0	8.0	4	2.5	4	-1E+10	1	-1E+10	1	-1E+10	1	-1E+10	1	-1E+10	1	-1E+10	1
4902643	22	C	01/27/2025	13:03	-133.922	43.196	0	1110.30	0	3.2690	0	34.4110	0	27.397	0	1098.536	0	8.5	4	2.6	4	-1E+10	1	-1E+10	1	-1E+10	1	-1E+10	1	-1E+10	1	-1E+10	1
4902643	22	C	01/27/2025	13:03	-133.922	43.196	0	1129.60	0	3.2280	0	34.4190	0	27.408	0	1117.580	0	8.9	4	2.8	4	-1E+10	1	-1E+10	1	-1E+10	1	-1E+10	1	-1E+10	1	-1E+10	1
4902643	22	C	01/27/2025	13:03	-133.922	43.196	0	1149.90	0	3.1910	0	34.4250	0	27.416	0	1137.609	0	9.3	4	2.9	4	-1E+10	1	-1E+10	1	-1E+10	1	-1E+10	1	-1E+10	1	-1E+10	1
4902643	22	C	01/27/2025	13:03	-133.922	43.196	0	1170.30	0	3.1590	0	34.4310	0	27.424	0	1157.735	0	9.8	4	3.0	4	-1E+10	1	-1E+10	1	-1E+10	1	-1E+10	1	-1E+10	1	-1E+10	1
4902643	22	C	01/27/2025	13:03	-133.922	43.196	0	1189.90	0	3.1290	0	34.4400	0	27.434	0	1177.070	0	10.7	4	3.3	4	-1E+10	1	-1E+10	1	-1E+10	1	-1E+10	1	-1E+10	1	-1E+10	1
4902643	22	C	01/27/2025	13:03	-133.922	43.196	0	1209.70	0	3.0900	0	34.4460	0	27.442	0	1196.600	0	11.2	4	3.5	4	-1E+10	1	-1E+10	1	-1E+10	1	-1E+10	1	-1E+10	1	-1E+10	1
4902643	22	C	01/27/2025	13:03	-133.922	43.196	0	1230.10	0	3.0590	0	34.4510	0	27.449	0	1216.720	0	11.8	4	3.7	4	-1E+10	1	-1E+10	1	-1E+10	1	-1E+10	1	-1E+10	1	-1E+10	1
4902643	22	C	01/27/2025	13:03	-133.922	43.196	0	1250.40	0	3.0160	0	34.4580	0	27.459	0	1236.739	0	12.6	4	3.9	4	-1E+10	1	-1E+10	1	-1E+10	1	-1E+10	1	-1E+10	1	-1E+10	1
4902643	22	C	01/27/2025	13:03	-133.922	43.196	0	1270.20	0	2.9790	0	34.4640	0	27.467	0	1256.264	0	13.4	4	4.1	4	-1E+10	1	-1E+10	1	-1E+10	1	-1E+10	1	-1E+10	1	-1E+10	1
4902643	22	C	01/27/2025	13:03	-133.922	43.196	0	1289.80	0	2.9270	0	34.4690	0	27.476	0	1275.590	0	14.0	4	4.3	4	-1E+10	1	-1E+10	1	-1E+10	1	-1E+10	1	-1E+10	1	-1E+10	1
4902643	22	C	01/27/2025	13:03	-133.922	43.196	0	1309.80	0	2.8970	0	34.4740	0	27.483	0	1295.308	0	14.9	4	4.6	4	-1E+10	1	-1E+10	1	-1E+10	1	-1E+10	1	-1E+10	1	-1E+10	1
4902643	22	C	01/27/2025	13:03	-133.922	43.196	0	1330.10	0	2.8640	0	34.4790	0	27.490	0	1315.320	0	15.7	4	4.8	4	-1E+10	1	-1E+10	1	-1E+10	1	-1E+10	1	-1E+10	1	-1E+10	1
4902643	22	C	01/27/2025	13:03	-133.922	43.196	0	1349.80	0	2.8310	0	34.4840	0	27.497	0	1334.739	0	16.7	4	5.1	4	-1E+10	1	-1E+10	1	-1E+10	1	-1E+10	1	-1E+10	1	-1E+10	1
4902643	22	C	01/27/2025	13:03	-133.922	43.196	0	1370.30	0	2.7910	0	34.4890	0	27.504	0	1354.944	0	17.7	4	5.4	4	-1E+10	1	-1E+10	1	-1E+10	1	-1E+10	1	-1E+10	1	-1E+10	1
4902643	22	C	01/27/2025	13:03	-133.922	43.196	0	1390.00	0	2.7580	0	34.4930	0	27.511	0	1374.359	0	18.6	4	5.7	4	-1E+10	1	-1E+10	1	-1E+10	1	-1E+10	1	-1E+10	1	-1E+10	1
4902643	22	C	01/27/2025	13:03	-133.922	43.196	0	1409.90	0	2.7230	0	34.4970	0	27.517	0	1393.970	0	19.5	4	6.0	4	-1E+10	1	-1E+10	1	-1E+10	1	-1E+10	1	-1E+10	1	-1E+10	1
4902643	22	C	01/27/2025	13:03	-133.922	43.196	0	1429.90	0	2.6820	0	34.5020	0	27.525	0	1413.677	0	20.6	4	6.3	4	-1E+10	1	-1E+10	1	-1E+10	1	-1E+10	1	-1E+10	1	-1E+10	1
4902643	22	C	01/27/2025	13:03	-133.922	43.196	0	1449.90	0	2.6420	0	34.5070	0	27.532	0	1433.382	0	21.7	4	6.6	4	-1E+10	1	-1E+10	1	-1E+10	1	-1E+10	1	-1E+10	1	-1E+10	1
4902643	22	C	01/27/2025	13:03	-133.922	43.196	0	1470.00	0	2.6110	0	34.5100	0	27.537	0	1453.184	0	22.6	4	6.9	4	-1E+10	1	-1E+10	1	-1E+10	1	-1E+10	1	-1E+10	1	-1E+10	1
4902643	22	C	01/27/2025	13:03	-133.922	43.196	0	1490.40	0	2.5720	0	34.5150	0	27.545	0	1473.279	0	23.7	4	7.2	4	-1E+10	1	-1E+10	1	-1E+10	1	-1E+10	1	-1E+10	1	-1E+10	1
4902643	22	C	01/27/2025	13:03	-133.922	43.196	0	1509.70	0	2.5400	0	34.5180	0	27.550	0	1492.289	0	24.7	4	7.5	4	-1E+10	1	-1E+10	1	-1E+10	1	-1E+10	1	-1E+10	1	-1E+10	1
4902643	22	C	01/27/2025	13:03	-133.922	43.196	0	1529.90	0	2.5120	0	34.5220	0	27.556	0	1512.184	0	26.2	4	8.0	4	-1E+10	1	-1E+10	1	-1E+10	1	-1E+10	1	-1E+10	1	-1E+10	1
4902643	22	C	01/27/2025	13:03	-133.922	43.196	0	1550.00	0	2.4810	0	34.5270	0	27.562	0	1531.979	0	27.8	4	8.5	4	-1E+10	1	-1E+10	1	-1E+10	1	-1E+10	1	-1E+10	1	-1E+10	1
4902643	22	C	01/27/2025	13:03	-133.922	43.196	0	1570.20	0	2.4440	0	34.5310	0	27.569	0	1551.870	0	29.0	4	8.8	4	-1E+10	1	-1E+10	1	-1E+10	1	-1E+10	1	-1E+10	1	-1E+10	1
4902643	22	C	01/27/2025	13:03	-133.922	43.196	0	1589.80	0	2.4090	0	34.5340	0	27.574	0	1571.168	0	29.9	4	9.1	4	-1E+10	1	-1E+10	1	-1E+10	1	-1E+10	1	-1E+10	1	-1E+10	1
4902643	22	C	01/27/2025	13:03	-133.922	43.196	0	1610.00	0	2.3770	0	34.5380	0	27.580	0	1591.056	0	31.1	4	9.5	4	-1E+10	1	-1E+10	1	-1E+10	1	-1E+10	1	-1E+10	1	-1E+10	1
4902643	22	C	01/27/2025	13:03	-133.922	43.196	0	1630.20	0	2.3420	0	34.5420	0	27.586	0	1610.941	0	32.2	4	9.8	4	-1E+10	1	-1E+10	1	-1E+10	1	-1E+10	1	-1E+10	1	-1E+10	1
4902643	22	C	01/27/2025	13:03	-133.922	43.196	0	1650.80	0	2.3100	0	34.5450	0	27.591	0	1631.219	0	32.9	4	10.0	4	-1E+10	1	-1E+10	1	-1E+10	1	-1E+10	1	-1E+10	1	-1E+10	1
4902643	22	C	01/27/2025	13:03	-133.922	43.196	0	1670.40	0	2.2810	0	34.5480	0	27.596	0	1650.510	0	34.1	4	10.3	4	-1E+10	1	-1E+10	1	-1E+10	1	-1E+10	1	-1E+10	1	-1E+10	1
4902643	22	C	01/27/2025	13:03	-133.922	43.196	0	1690.20	0	2.2520	0	34.5510	0	27.601	0	1669.996	0	35.5	4	10.8	4	-1E+10	1	-1E+10	1	-1E+10	1	-1E+10	1	-1E+10	1	-1E+10	1
4902643	22	C	01/27/2025	13:03	-133.922	43.196	0	1710.20	0	2.2180	0	34.5550	0	27.607	0	1689.677	0	37.1	4	11.2	4	-1E+10	1	-1E+10	1	-1E+10	1	-1E+10	1	-1E+10	1	-1E+10	1
4902643	22	C	01/27/2025	13:03	-133.922	43.196	0	1730.00	0	2.1880	0	34.5590	0	27.613	0	1709.160	0	38.5	4	11.7	4	-1E+10	1	-1E+10	1	-1E+10	1	-1E+10	1	-1E+10	1	-1E+10	1
4902643	22	C	01/27/2025	13:03	-133.922	43.196	0	1749.90	0	2.1630	0	34.5630	0	27.618	0	1728.739	0	39.9	4	12.1	4	-1E+10	1	-1E+10	1	-1E+10	1	-1E+10	1	-1E+10	1	-1E+10	1
4902643	22	C	01/27/2025	13:03	-133.922	43.196	0	1769.80	0	2.1420	0	34.5660	0	27.622	0	1748.317	0	41.2	4	12.5	4	-1E+10	1	-1E+10	1	-1E+10	1	-1E+10	1	-1E+10	1	-1E+10	1
4902643	22	C	01/27/2025	13:03	-133.922	43.196	0	1790.30	0	2.1200	0	34.5690	0	27.626	0	1768.483	0	42.4	4	12.8	4	-1E+10	1	-1E+10	1	-1E+10	1	-1E+10	1	-1E+10	1	-1E+10	1
4902643	22	C	01/27/2025	13:03	-133.922	43.196	0	1809.80	0	2.1070	0	34.5710	0	27.629	0	1787.663	0	43.3	4	13.1	4	-1E+10	1	-1E+10	1	-1E+10	1	-1E+10	1	-1E+10	1	-1E+10	1
4902643	22	C	01/27/2025	13:03	-133.922	43.196	0	1829.90	0	2.0910	0	34.5730	0	27.632	0	1807.432	0	44.3	4	13.4	4	-1E+10	1	-1E+10	1	-1E+10	1	-1E+10	1	-1E+10	1	-1E+10	1
4902643	22	C	01/27/2025	13:03	-133.922	43.196	0	1850.00	0	2.0730	0	34.5760	0	27.636	0	1827.199	0	45.8	4	13.8	4	-1E+10	1	-1E+10	1	-1E+10	1	-1E+10	1	-1E+10	1	-1E+10	1
4902643	22	C	01/27/2025	13:03	-133.922	43.196	0	1869.70	0	2.0450	0	34.5800	0	27.642	0	1846.570	0	47.5	4	14.3	4	-1E+10	1	-1E+10	1	-1E+10	1	-1E+10	1	-1E+10	1	-1E+10	1
4902643	22	C	01/27/2025	13:03	-133.922	43.196	0	1890.00	0	2.0260	0	34.5830	0	27.646	0	1866.530	0	48.9	4	14.7	4	-1E+10	1	-1E+10	1	-1E+10	1	-1E+10	1	-1E+10	1	-1E+10	1
4902643	22	C	01/27/2025	13:03	-133.922	43.196	0	1910.00	0	2.0070	0	34.5850	0	27.649	0	1886.193	0	50.4	4	15.2	4	-1E+10	1	-1E+10	1	-1E+10	1	-1E+10	1	-1E+10	1	-1E+10	1
4902643	22	C	01/27/2025	13:03	-133.922	43.196	0	1929.70	0	1.9900	0	34.5880	0	27.653	0	1905.559	0	51.7	4	15.6	4	-1E+10	1	-1E+10	1	-1E+10	1	-1E+10	1	-1E+10	1	-1E+10	1
4902643	22	C	01/27/2025	13:03	-133.922	43.196	0	1950.30	0	1.9750	0	34.5910	0	27.656	0	1925.809	0	52.7	4	15.9	4	-1E+10	1	-1E+10	1	-1E+10	1	-1E+10	1	-1E+10	1	-1E+10	1
4902643	22	C	01/27/2025	13:03	-133.922	43.196	0	1970.00	0	1.9610	0	34.5930	0	27.659	0	1945.171	0	53.7	4	16.2	4	-1E+10	1	-1E+10	1	-1E+10	1	-1E+10	1	-1E+10	1	-1E+10	1
4902643	22	C	01/27/2025	13:03	-133.922	43.196	0	1990.10	0	1.9480	0	34.5950	0	27.662	0	1964.925	0	54.8	4	16.5	4	-1E+10	1	-1E+10	1	-1E+10	1	-1E+10	1	-1E+10	1	-1E+10	1
4902643	22	C	01/27/2025	13:03	-133.922	43.196	0	2010.20	0	1.9330	0	34.5980	4	27.665	0	1984.678	0	56.1	4	16.9	4	-1E+10	1	-1E+10	1	-1E+10	1	-1E+10	1	-1E+10	1	-1E+10	1
4902643	22	C	01/27/2025	13:03	-133.922	43.196	0	2030.10	0	1.9200	0	34.6000	4	27.668	0	2004.232	0	56.9	4	17.1	4	-1E+10	1	-1E+10	1	-1E+10	1	-1E+10	1	-1E+10	1	-1E+10	1
4902643	22	C	01/27/2025	13:03	-133.922	43.196	0	2049.70	0	1.9130	0	34.6010	4	27.670	0	2023.489	0	57.9	4	17.4	4	-1E+10	1	-1E+10	1	-1E+10	1	-1E+10	1	-1E+10	1	-1E+10	1
4902643	22	C	01/27/2025	13:03	-133.922	43.196	0	2069.90	0	1.9010	0	34.6030	4	27.672	0	2043.334	0	58.8	4	17.7	4	-1E+10	1	-1E+10	1	-1E+10	1	-1E+10	1	-1E+10	1	-1E+10	1
4902643	22	C	01/27/2025	13:03	-133.922	43.196	0	2089.80	0	1.8900	0	34.6050	4	27.675	0	2062.882	0	59.6	4	17.9	4	-1E+10	1	-1E+10	1	-1E+10	1	-1E+10	1	-1E+10	1	-1E+10	1
4902643	22	C	01/27/2025	13:03	-133.922	43.196	0	2110.00	0	1.8810	0	34.6060	4	27.676	0	2082.724	0	60.3	4	18.1	4	-1E+10	1	-1E+10	1	-1E+10	1	-1E+10	1	-1E+10	1	-1E+10	1
4902643	22	C	01/27/2025	13:03	-133.922	43.196	0	2129.80	0	1.8760	0	34.6070	4	27.678	0	2102.170	0	60.8	4	18.3	4	-1E+10	1	-1E+10	1	-1E+10	1	-1E+10	1	-1E+10	1	-1E+10	1
4902643	22	C	01/27/2025	13:03	-133.922	43.196	0	2149.60	0	1.8690	0	34.6090	4	27.680	0	2121.615	0	61.4	4	18.5	4	-1E+10	1	-1E+10	1	-1E+10	1	-1E+10	1	-1E+10	1	-1E+10	1
4902643	22	C	01/27/2025	13:03	-133.922	43.196	0	2169.90	0	1.8640	0	34.6100	4	27.681	0	2141.549	0	62.0	4	18.6	4	-1E+10	1	-1E+10	1	-1E+10	1	-1E+10	1	-1E+10	1	-1E+10	1
4902643	22	C	01/27/2025	13:03	-133.922	43.196	0	2190.50	0	1.8560	0	34.6110	4	27.683	0	2161.776	0	62.9	4	18.9	4	-1E+10	1	-1E+10	1	-1E+10	1	-1E+10	1	-1E+10	1	-1E+10	1
4902643	22	C	01/27/2025	13:03	-133.922	43.196	0	2209.80	0	1.8430	0	34.6130	4	27.685	0	2180.725	0	64.0	4	19.2	4	-1E+10	1	-1E+10	1	-1E+10	1	-1E+10	1	-1E+10	1	-1E+10	1
4902643	22	C	01/27/2025	13:03	-133.922	43.196	0	2229.60	0	1.8350	0	34.6140	4	27.687	0	2200.162	0	64.8	4	19.5	4	-1E+10	1	-1E+10	1	-1E+10	1	-1E+10	1	-1E+10	1	-1E+10	1
4902643	22	C	01/27/2025	13:03	-133.922	43.196	0	2249.70	0	1.8280	0	34.6150	4	27.688	0	2219.893	0	65.5	4	19.7	4	-1E+10	1	-1E+10	1	-1E+10	1	-1E+10	1	-1E+10	1	-1E+10	1
4902643	22	C	01/27/2025	13:03	-133.922	43.196	0	2269.80	0	1.8220	0	34.6170	4	27.691	0	2239.621	0	66.2	4	19.9	4	-1E+10	1	-1E+10	1	-1E+10	1	-1E+10	1	-1E+10	1	-1E+10	1
4902643	22	C	01/27/2025	13:03	-133.922	43.196	0	2289.90	0	1.8160	0	34.6180	4	27.692	0	2259.348	0	66.8	4	20.1	4	-1E+10	1	-1E+10	1	-1E+10	1	-1E+10	1	-1E+10	1	-1E+10	1
4902643	22	C	01/27/2025	13:03	-133.922	43.196	0	2309.70	0	1.8120	0	34.6180	4	27.692	0	2278.779	0	67.2	4	20.2	4	-1E+10	1	-1E+10	1	-1E+10	1	-1E+10	1	-1E+10	1	-1E+10	1
4902643	22	C	01/27/2025	13:03	-133.922	43.196	0	2330.20	0	1.8080	0	34.6190	4	27.694	0	2298.894	0	67.7	4	20.3	4	-1E+10	1	-1E+10	1	-1E+10	1	-1E+10	1	-1E+10	1	-1E+10	1
4902643	22	C	01/27/2025	13:03	-133.922	43.196	0	2349.80	0	1.8030	0	34.6200	4	27.695	0	2318.125	0	68.2	4	20.5	4	-1E+10	1	-1E+10	1	-1E+10	1	-1E+10	1	-1E+10	1	-1E+10	1
4902643	22	C	01/27/2025	13:03	-133.922	43.196	0	2369.80	0	1.7990	0	34.6210	4	27.696	0	2337.747	0	68.7	4	20.6	4	-1E+10	1	-1E+10	1	-1E+10	1	-1E+10	1	-1E+10	1	-1E+10	1
4902643	22	C	01/27/2025	13:03	-133.922	43.196	0	2389.70	0	1.7930	0	34.6220	4	27.698	0	2357.268	0	69.4	4	20.8	4	-1E+10	1	-1E+10	1	-1E+10	1	-1E+10	1	-1E+10	1	-1E+10	1
4902643	22	C	01/27/2025	13:03	-133.922	43.196	0	2409.70	0	1.7850	0	34.6230	4	27.699	0	2376.886	0	70.4	4	21.1	4	-1E+10	1	-1E+10	1	-1E+10	1	-1E+10	1	-1E+10	1	-1E+10	1
4902643	22	C	01/27/2025	13:03	-133.922	43.196	0	2429.70	0	1.7760	0	34.6240	4	27.701	0	2396.502	0	71.3	4	21.4	4	-1E+10	1	-1E+10	1	-1E+10	1	-1E+10	1	-1E+10	1	-1E+10	1
4902643	22	C	01/27/2025	13:03	-133.922	43.196	0	2449.90	0	1.7660	0	34.6260	4	27.703	0	2416.312	0	72.3	4	21.7	4	-1E+10	1	-1E+10	1	-1E+10	1	-1E+10	1	-1E+10	1	-1E+10	1
4902643	22	C	01/27/2025	13:03	-133.922	43.196	0	2469.70	0	1.7580	0	34.6270	4	27.705	0	2435.729	0	73.1	4	21.9	4	-1E+10	1	-1E+10	1	-1E+10	1	-1E+10	1	-1E+10	1	-1E+10	1
4902643	22	C	01/27/2025	13:03	-133.922	43.196	0	2489.60	0	1.7520	0	34.6280	4	27.706	0	2455.242	0	73.9	4	22.2	4	-1E+10	1	-1E+10	1	-1E+10	1	-1E+10	1	-1E+10	1	-1E+10	1
4902643	22	C	01/27/2025	13:03	-133.922	43.196	0	2509.70	0	1.7440	0	34.6290	4	27.708	0	2474.949	0	74.7	4	22.4	4	-1E+10	1	-1E+10	1	-1E+10	1	-1E+10	1	-1E+10	1	-1E+10	1
4902643	22	C	01/27/2025	13:03	-133.922	43.196	0	2529.90	0	1.7370	0	34.6300	4	27.709	0	2494.752	0	75.5	4	22.6	4	-1E+10	1	-1E+10	1	-1E+10	1	-1E+10	1	-1E+10	1	-1E+10	1
4902643	22	C	01/27/2025	13:03	-133.922	43.196	0	2550.70	0	1.7300	0	34.6310	4	27.710	0	2515.141	0	76.4	4	22.9	4	-1E+10	1	-1E+10	1	-1E+10	1	-1E+10	1	-1E+10	1	-1E+10	1
4902643	22	C	01/27/2025	13:03	-133.922	43.196	0	2570.10	0	1.7230	0	34.6320	4	27.712	0	2534.157	0	77.2	4	23.1	4	-1E+10	1	-1E+10	1	-1E+10	1	-1E+10	1	-1E+10	1	-1E+10	1
4902643	22	C	01/27/2025	13:03	-133.922	43.196	0	2590.00	0	1.7170	0	34.6330	4	27.713	0	2553.660	0	77.7	4	23.3	4	-1E+10	1	-1E+10	1	-1E+10	1	-1E+10	1	-1E+10	1	-1E+10	1
4902643	22	C	01/27/2025	13:03	-133.922	43.196	0	2609.90	0	1.7120	0	34.6330	4	27.714	0	2573.162	0	78.6	4	23.5	4	-1E+10	1	-1E+10	1	-1E+10	1	-1E+10	1	-1E+10	1	-1E+10	1
4902643	22	C	01/27/2025	13:03	-133.922	43.196	0	2630.00	0	1.7070	0	34.6350	4	27.716	0	2592.858	0	79.3	4	23.7	4	-1E+10	1	-1E+10	1	-1E+10	1	-1E+10	1	-1E+10	1	-1E+10	1
4902643	22	C	01/27/2025	13:03	-133.922	43.196	0	2650.20	0	1.7010	0	34.6350	4	27.716	0	2612.651	0	80.1	4	24.0	4	-1E+10	1	-1E+10	1	-1E+10	1	-1E+10	1	-1E+10	1	-1E+10	1
4902643	22	C	01/27/2025	13:03	-133.922	43.196	0	2670.10	0	1.6950	0	34.6360	4	27.718	0	2632.147	0	80.8	4	24.2	4	-1E+10	1	-1E+10	1	-1E+10	1	-1E+10	1	-1E+10	1	-1E+10	1
4902643	22	C	01/27/2025	13:03	-133.922	43.196	0	2689.80	0	1.6870	0	34.6370	4	27.719	0	2651.446	0	81.8	4	24.5	4	-1E+10	1	-1E+10	1	-1E+10	1	-1E+10	1	-1E+10	1	-1E+10	1
4902643	22	C	01/27/2025	13:03	-133.922	43.196	0	2709.90	0	1.6800	0	34.6380	4	27.721	0	2671.135	0	82.7	4	24.7	4	-1E+10	1	-1E+10	1	-1E+10	1	-1E+10	1	-1E+10	1	-1E+10	1
4902643	22	C	01/27/2025	13:03	-133.922	43.196	0	2730.50	0	1.6730	0	34.6390	4	27.722	0	2691.312	0	83.4	4	24.9	4	-1E+10	1	-1E+10	1	-1E+10	1	-1E+10	1	-1E+10	1	-1E+10	1
4902643	22	C	01/27/2025	13:03	-133.922	43.196	0	2749.90	0	1.6700	0	34.6400	4	27.723	0	2710.312	0	84.0	4	25.1	4	-1E+10	1	-1E+10	1	-1E+10	1	-1E+10	1	-1E+10	1	-1E+10	1
4902643	22	C	01/27/2025	13:03	-133.922	43.196	0	2769.80	0	1.6650	0	34.6410	4	27.725	0	2729.800	0	84.7	4	25.3	4	-1E+10	1	-1E+10	1	-1E+10	1	-1E+10	1	-1E+10	1	-1E+10	1
4902643	22	C	01/27/2025	13:03	-133.922	43.196	0	2790.00	0	1.6580	0	34.6420	4	27.726	0	2749.580	0	85.6	4	25.6	4	-1E+10	1	-1E+10	1	-1E+10	1	-1E+10	1	-1E+10	1	-1E+10	1
4902643	22	C	01/27/2025	13:03	-133.922	43.196	0	2810.20	0	1.6530	0	34.6430	4	27.727	0	2769.358	0	86.5	4	25.9	4	-1E+10	1	-1E+10	1	-1E+10	1	-1E+10	1	-1E+10	1	-1E+10	1
4902643	22	C	01/27/2025	13:03	-133.922	43.196	0	2829.90	0	1.6480	0	34.6440	4	27.729	0	2788.644	0	87.4	4	26.1	4	-1E+10	1	-1E+10	1	-1E+10	1	-1E+10	1	-1E+10	1	-1E+10	1
4902643	22	C	01/27/2025	13:03	-133.922	43.196	0	2849.80	0	1.6410	0	34.6450	4	27.730	0	2808.125	0	88.3	4	26.4	4	-1E+10	1	-1E+10	1	-1E+10	1	-1E+10	1	-1E+10	1	-1E+10	1
4902643	22	C	01/27/2025	13:03	-133.922	43.196	0	2870.10	0	1.6350	0	34.6460	4	27.731	0	2827.996	0	89.1	4	26.6	4	-1E+10	1	-1E+10	1	-1E+10	1	-1E+10	1	-1E+10	1	-1E+10	1
4902643	22	C	01/27/2025	13:03	-133.922	43.196	0	2889.90	0	1.6300	0	34.6460	4	27.732	0	2847.375	0	89.8	4	26.8	4	-1E+10	1	-1E+10	1	-1E+10	1	-1E+10	1	-1E+10	1	-1E+10	1
4902643	22	C	01/27/2025	13:03	-133.922	43.196	0	2909.70	0	1.6260	0	34.6470	4	27.733	0	2866.752	0	90.5	4	27.0	4	-1E+10	1	-1E+10	1	-1E+10	1	-1E+10	1	-1E+10	1	-1E+10	1
4902643	22	C	01/27/2025	13:03	-133.922	43.196	0	2929.80	0	1.6220	0	34.6480	4	27.734	0	2886.422	0	90.9	4	27.2	4	-1E+10	1	-1E+10	1	-1E+10	1	-1E+10	1	-1E+10	1	-1E+10	1
4902643	22	C	01/27/2025	13:03	-133.922	43.196	0	2950.00	0	1.6190	0	34.6480	4	27.735	0	2906.187	0	91.5	4	27.3	4	-1E+10	1	-1E+10	1	-1E+10	1	-1E+10	1	-1E+10	1	-1E+10	1
4902643	22	C	01/27/2025	13:03	-133.922	43.196	0	2970.00	0	1.6150	0	34.6490	4	27.736	0	2925.755	0	92.3	4	27.6	4	-1E+10	1	-1E+10	1	-1E+10	1	-1E+10	1	-1E+10	1	-1E+10	1
4902643	22	C	01/27/2025	13:03	-133.922	43.196	0	2989.60	0	1.6090	0	34.6500	4	27.737	0	2944.930	0	92.9	4	27.8	4	-1E+10	1	-1E+10	1	-1E+10	1	-1E+10	1	-1E+10	1	-1E+10	1
4902643	22	C	01/27/2025	13:03	-133.922	43.196	0	3009.90	0	1.6050	0	34.6500	4	27.738	0	2964.788	0	93.4	4	27.9	4	-1E+10	1	-1E+10	1	-1E+10	1	-1E+10	1	-1E+10	1	-1E+10	1
4902643	22	C	01/27/2025	13:03	-133.922	43.196	0	3030.00	0	1.5990	0	34.6510	4	27.739	0	2984.449	0	94.2	4	28.1	4	-1E+10	1	-1E+10	1	-1E+10	1	-1E+10	1	-1E+10	1	-1E+10	1
4902643	22	C	01/27/2025	13:03	-133.922	43.196	0	3050.00	0	1.5950	0	34.6520	4	27.740	0	3004.009	0	95.1	4	28.4	4	-1E+10	1	-1E+10	1	-1E+10	1	-1E+10	1	-1E+10	1	-1E+10	1
4902643	22	C	01/27/2025	13:03	-133.922	43.196	0	3070.00	0	1.5920	0	34.6530	4	27.741	0	3023.569	0	95.8	4	28.6	4	-1E+10	1	-1E+10	1	-1E+10	1	-1E+10	1	-1E+10	1	-1E+10	1
4902643	22	C	01/27/2025	13:03	-133.922	43.196	0	3089.90	0	1.5860	0	34.6530	4	27.742	0	3043.028	0	96.5	4	28.8	4	-1E+10	1	-1E+10	1	-1E+10	1	-1E+10	1	-1E+10	1	-1E+10	1
4902643	22	C	01/27/2025	13:03	-133.922	43.196	0	3110.40	0	1.5830	0	34.6540	4	27.743	0	3063.073	0	97.0	4	29.0	4	-1E+10	1	-1E+10	1	-1E+10	1	-1E+10	1	-1E+10	1	-1E+10	1
4902643	22	C	01/27/2025	13:03	-133.922	43.196	0	3130.20	0	1.5810	0	34.6550	4	27.744	0	3082.431	0	97.5	4	29.1	4	-1E+10	1	-1E+10	1	-1E+10	1	-1E+10	1	-1E+10	1	-1E+10	1
4902643	22	C	01/27/2025	13:03	-133.922	43.196	0	3150.20	0	1.5780	0	34.6550	4	27.744	0	3101.983	0	98.0	4	29.3	4	-1E+10	1	-1E+10	1	-1E+10	1	-1E+10	1	-1E+10	1	-1E+10	1
4902643	22	C	01/27/2025	13:03	-133.922	43.196	0	3169.80	0	1.5760	0	34.6560	4	27.746	0	3121.143	0	98.4	4	29.4	4	-1E+10	1	-1E+10	1	-1E+10	1	-1E+10	1	-1E+10	1	-1E+10	1
4902643	22	C	01/27/2025	13:03	-133.922	43.196	0	3189.90	0	1.5740	0	34.6560	4	27.746	0	3140.789	0	98.9	4	29.5	4	-1E+10	1	-1E+10	1	-1E+10	1	-1E+10	1	-1E+10	1	-1E+10	1
4902643	22	C	01/27/2025	13:03	-133.922	43.196	0	3210.20	0	1.5720	0	34.6570	4	27.747	0	3160.629	0	99.3	4	29.6	4	-1E+10	1	-1E+10	1	-1E+10	1	-1E+10	1	-1E+10	1	-1E+10	1
4902643	22	C	01/27/2025	13:03	-133.922	43.196	0	3229.90	0	1.5700	0	34.6570	4	27.747	0	3179.881	0	99.7	4	29.8	4	-1E+10	1	-1E+10	1	-1E+10	1	-1E+10	1	-1E+10	1	-1E+10	1
4902643	22	C	01/27/2025	13:03	-133.922	43.196	0	3250.10	0	1.5680	0	34.6570	4	27.747	0	3199.620	0	100.1	4	29.9	4	-1E+10	1	-1E+10	1	-1E+10	1	-1E+10	1	-1E+10	1	-1E+10	1
4902643	22	C	01/27/2025	13:03	-133.922	43.196	0	3269.70	0	1.5660	0	34.6580	4	27.749	0	3218.771	0	100.6	4	30.0	4	-1E+10	1	-1E+10	1	-1E+10	1	-1E+10	1	-1E+10	1	-1E+10	1
4902643	22	C	01/27/2025	13:03	-133.922	43.196	0	3289.90	0	1.5640	0	34.6580	4	27.749	0	3238.506	0	101.1	4	30.2	4	-1E+10	1	-1E+10	1	-1E+10	1	-1E+10	1	-1E+10	1	-1E+10	1
4902643	22	C	01/27/2025	13:03	-133.922	43.196	0	3309.90	0	1.5620	0	34.6590	4	27.750	0	3258.044	0	101.6	4	30.3	4	-1E+10	1	-1E+10	1	-1E+10	1	-1E+10	1	-1E+10	1	-1E+10	1
4902643	22	C	01/27/2025	13:03	-133.922	43.196	0	3329.70	0	1.5600	0	34.6590	4	27.750	0	3277.385	0	102.0	4	30.4	4	-1E+10	1	-1E+10	1	-1E+10	1	-1E+10	1	-1E+10	1	-1E+10	1
4902643	22	C	01/27/2025	13:03	-133.922	43.196	0	3349.60	0	1.5580	0	34.6600	4	27.751	0	3296.822	0	102.5	4	30.6	4	-1E+10	1	-1E+10	1	-1E+10	1	-1E+10	1	-1E+10	1	-1E+10	1
4902643	22	C	01/27/2025	13:03	-133.922	43.196	0	3370.10	0	1.5580	0	34.6600	4	27.751	0	3316.843	0	102.9	4	30.7	4	-1E+10	1	-1E+10	1	-1E+10	1	-1E+10	1	-1E+10	1	-1E+10	1
4902643	22	C	01/27/2025	13:03	-133.922	43.196	0	3390.30	0	1.5570	0	34.6610	4	27.752	0	3336.570	0	103.2	4	30.8	4	-1E+10	1	-1E+10	1	-1E+10	1	-1E+10	1	-1E+10	1	-1E+10	1
4902643	22	C	01/27/2025	13:03	-133.922	43.196	0	3410.30	0	1.5560	0	34.6610	4	27.753	0	3356.099	0	103.7	4	30.9	4	-1E+10	1	-1E+10	1	-1E+10	1	-1E+10	1	-1E+10	1	-1E+10	1
4902643	22	C	01/27/2025	13:03	-133.922	43.196	0	3429.80	0	1.5550	0	34.6610	4	27.753	0	3375.138	0	104.1	4	31.1	4	-1E+10	1	-1E+10	1	-1E+10	1	-1E+10	1	-1E+10	1	-1E+10	1
4902643	22	C	01/27/2025	13:03	-133.922	43.196	0	3450.00	0	1.5540	0	34.6620	4	27.754	0	3394.860	0	104.5	4	31.2	4	-1E+10	1	-1E+10	1	-1E+10	1	-1E+10	1	-1E+10	1	-1E+10	1
4902643	22	C	01/27/2025	13:03	-133.922	43.196	0	3470.00	0	1.5530	0	34.6630	4	27.755	0	3414.384	0	104.7	4	31.2	4	-1E+10	1	-1E+10	1	-1E+10	1	-1E+10	1	-1E+10	1	-1E+10	1
4902643	22	C	01/27/2025	13:03	-133.922	43.196	0	3489.90	0	1.5530	0	34.6630	4	27.755	0	3433.808	0	105.2	4	31.4	4	-1E+10	1	-1E+10	1	-1E+10	1	-1E+10	1	-1E+10	1	-1E+10	1
4902643	22	C	01/27/2025	13:03	-133.922	43.196	0	3509.90	0	1.5510	0	34.6630	4	27.755	0	3453.329	0	105.6	4	31.5	4	-1E+10	1	-1E+10	1	-1E+10	1	-1E+10	1	-1E+10	1	-1E+10	1
4902643	22	C	01/27/2025	13:03	-133.922	43.196	0	3530.40	0	1.5510	0	34.6640	4	27.756	0	3473.336	0	105.9	4	31.6	4	-1E+10	1	-1E+10	1	-1E+10	1	-1E+10	1	-1E+10	1	-1E+10	1
4902643	22	C	01/27/2025	13:03	-133.922	43.196	0	3549.90	0	1.5510	0	34.6640	4	27.756	0	3492.365	0	106.1	4	31.7	4	-1E+10	1	-1E+10	1	-1E+10	1	-1E+10	1	-1E+10	1	-1E+10	1
4902643	22	C	01/27/2025	13:03	-133.922	43.196	0	3569.80	0	1.5500	0	34.6640	4	27.757	0	3511.783	0	106.4	4	31.7	4	-1E+10	1	-1E+10	1	-1E+10	1	-1E+10	1	-1E+10	1	-1E+10	1
4902643	22	C	01/27/2025	13:03	-133.922	43.196	0	3589.80	0	1.5500	0	34.6650	4	27.758	0	3531.297	0	106.7	4	31.8	4	-1E+10	1	-1E+10	1	-1E+10	1	-1E+10	1	-1E+10	1	-1E+10	1
4902643	22	C	01/27/2025	13:03	-133.922	43.196	0	3609.70	0	1.5510	0	34.6650	4	27.758	0	3550.711	0	106.9	4	31.9	4	-1E+10	1	-1E+10	1	-1E+10	1	-1E+10	1	-1E+10	1	-1E+10	1
4902643	22	C	01/27/2025	13:03	-133.922	43.196	0	3629.90	0	1.5510	0	34.6660	4	27.759	0	3570.417	0	107.2	4	32.0	4	-1E+10	1	-1E+10	1	-1E+10	1	-1E+10	1	-1E+10	1	-1E+10	1
4902643	22	C	01/27/2025	13:03	-133.922	43.196	0	3650.20	0	1.5520	0	34.6660	4	27.759	0	3590.218	0	107.3	4	32.0	4	-1E+10	1	-1E+10	1	-1E+10	1	-1E+10	1	-1E+10	1	-1E+10	1
4902643	22	C	01/27/2025	13:03	-133.922	43.196	0	3670.10	0	1.5530	0	34.6660	4	27.759	0	3609.627	0	107.5	4	32.1	4	-1E+10	1	-1E+10	1	-1E+10	1	-1E+10	1	-1E+10	1	-1E+10	1
4902643	22	C	01/27/2025	13:03	-133.922	43.196	0	3690.10	0	1.5530	0	34.6670	4	27.760	0	3629.132	0	107.7	4	32.1	4	-1E+10	1	-1E+10	1	-1E+10	1	-1E+10	1	-1E+10	1	-1E+10	1
4902643	22	C	01/27/2025	13:03	-133.922	43.196	0	3710.40	0	1.5540	0	34.6670	4	27.760	0	3648.928	0	107.8	4	32.2	4	-1E+10	1	-1E+10	1	-1E+10	1	-1E+10	1	-1E+10	1	-1E+10	1
4902643	22	C	01/27/2025	13:03	-133.922	43.196	0	3730.20	0	1.5550	0	34.6670	4	27.760	0	3668.235	0	108.0	4	32.2	4	-1E+10	1	-1E+10	1	-1E+10	1	-1E+10	1	-1E+10	1	-1E+10	1
4902643	22	C	01/27/2025	13:03	-133.922	43.196	0	3750.20	0	1.5540	0	34.6670	4	27.760	0	3687.735	0	108.4	4	32.3	4	-1E+10	1	-1E+10	1	-1E+10	1	-1E+10	1	-1E+10	1	-1E+10	1
4902643	22	C	01/27/2025	13:03	-133.922	43.196	0	3770.10	0	1.5540	0	34.6680	4	27.761	0	3707.135	0	108.5	4	32.4	4	-1E+10	1	-1E+10	1	-1E+10	1	-1E+10	1	-1E+10	1	-1E+10	1
4902643	22	C	01/27/2025	13:03	-133.922	43.196	0	3789.70	0	1.5550	0	34.6680	4	27.761	0	3726.242	0	108.1	4	32.2	4	-1E+10	1	-1E+10	1	-1E+10	1	-1E+10	1	-1E+10	1	-1E+10	1
4902643	22	C	01/27/2025	13:03	-133.922	43.196	0																										
4902643	23	C	02/06/2025	09:51	-133.837	43.187	0	0.60	0	11.5535	0	32.8230	0	24.982	0	0.595	0	248.2	4	92.0	4	-1E+10	1	-1E+10	1	-1E+10	1	-1E+10	1	-1E+10	1	-1E+10	1
4902643	23	C	02/06/2025	09:51	-133.837	43.187	0	0.70	0	11.5485	0	32.8265	0	24.985	0	0.694	0	248.1	4	91.9	4	-1E+10	1	-1E+10	1	-1E+10	1	-1E+10	1	-1E+10	1	-1E+10	1
4902643	23	C	02/06/2025	09:51	-133.837	43.187	0	0.80	0	11.5537	0	32.8243	0	24.983	0	0.794	0	248.1	4	91.9	4	-1E+10	1	-1E+10	1	-1E+10	1	-1E+10	1	-1E+10	1	-1E+10	1
4902643	23	C	02/06/2025	09:51	-133.837	43.187	0	0.90	0	11.5535	0	32.8245	0	24.983	0	0.893	0	248.1	4	91.9	4	-1E+10	1	-1E+10	1	-1E+10	1	-1E+10	1	-1E+10	1	-1E+10	1
4902643	23	C	02/06/2025	09:51	-133.837	43.187	0	1.00	0	11.5660	0	32.8270	0	24.983	0	0.992	0	248.1	4	92.0	4	-1E+10	1	-1E+10	1	-1E+10	1	-1E+10	1	-1E+10	1	-1E+10	1
4902643	23	C	02/06/2025	09:51	-133.837	43.187	0	1.70	0	11.5690	0	32.8240	0	24.980	0	1.686	0	247.7	4	91.8	4	-1E+10	1	-1E+10	1	-1E+10	1	-1E+10	1	-1E+10	1	-1E+10	1
4902643	23	C	02/06/2025	09:51	-133.837	43.187	0	2.40	0	11.5690	0	32.8240	0	24.980	0	2.381	0	247.6	4	91.8	4	-1E+10	1	-1E+10	1	-1E+10	1	-1E+10	1	-1E+10	1	-1E+10	1
4902643	23	C	02/06/2025	09:51	-133.837	43.187	0	3.30	0	11.5680	0	32.8250	0	24.981	0	3.274	0	247.6	4	91.8	4	-1E+10	1	-1E+10	1	-1E+10	1	-1E+10	1	-1E+10	1	-1E+10	1
4902643	23	C	02/06/2025	09:51	-133.837	43.187	0	4.40	0	11.5770	0	32.8200	0	24.975	0	4.365	0	247.7	4	91.8	4	-1E+10	1	-1E+10	1	-1E+10	1	-1E+10	1	-1E+10	1	-1E+10	1
4902643	23	C	02/06/2025	09:51	-133.837	43.187	0	5.20	0	11.5770	0	32.8230	0	24.977	0	5.159	0	247.6	4	91.8	4	-1E+10	1	-1E+10	1	-1E+10	1	-1E+10	1	-1E+10	1	-1E+10	1
4902643	23	C	02/06/2025	09:51	-133.837	43.187	0	6.30	0	11.5800	0	32.8250	0	24.979	0	6.250	0	247.6	4	91.8	4	-1E+10	1	-1E+10	1	-1E+10	1	-1E+10	1	-1E+10	1	-1E+10	1
4902643	23	C	02/06/2025	09:51	-133.837	43.187	0	7.40	0	11.5820	0	32.8230	0	24.977	0	7.341	0	247.6	4	91.8	4	-1E+10	1	-1E+10	1	-1E+10	1	-1E+10	1	-1E+10	1	-1E+10	1
4902643	23	C	02/06/2025	09:51	-133.837	43.187	0	8.60	0	11.5770	0	32.8240	0	24.978	0	8.531	0	247.5	4	91.8	4	-1E+10	1	-1E+10	1	-1E+10	1	-1E+10	1	-1E+10	1	-1E+10	1
4902643	23	C	02/06/2025	09:51	-133.837	43.187	0	9.70	0	11.5760	0	32.8230	0	24.978	0	9.623	0	247.6	4	91.8	4	-1E+10	1	-1E+10	1	-1E+10	1	-1E+10	1	-1E+10	1	-1E+10	1
4902643	23	C	02/06/2025	09:51	-133.837	43.187	0	14.90	0	11.5750	0	32.8220	0	24.977	0	14.781	0	247.5	4	91.8	4	-1E+10	1	-1E+10	1	-1E+10	1	-1E+10	1	-1E+10	1	-1E+10	1
4902643	23	C	02/06/2025	09:51	-133.837	43.187	0	25.00	0	11.5800	0	32.8230	0	24.977	0	24.800	0	247.3	4	91.7	4	-1E+10	1	-1E+10	1	-1E+10	1	-1E+10	1	-1E+10	1	-1E+10	1
4902643	23	C	02/06/2025	09:51	-133.837	43.187	0	34.90	0	11.5800	0	32.8230	0	24.978	0	34.620	0	247.2	4	91.7	4	-1E+10	1	-1E+10	1	-1E+10	1	-1E+10	1	-1E+10	1	-1E+10	1
4902643	23	C	02/06/2025	09:51	-133.837	43.187	0	44.90	0	11.5810	0	32.8230	0	24.978	0	44.538	0	247.0	4	91.6	4	-1E+10	1	-1E+10	1	-1E+10	1	-1E+10	1	-1E+10	1	-1E+10	1
4902643	23	C	02/06/2025	09:51	-133.837	43.187	0	55.00	0	11.5790	0	32.8210	0	24.977	0	54.555	0	246.7	4	91.5	4	-1E+10	1	-1E+10	1	-1E+10	1	-1E+10	1	-1E+10	1	-1E+10	1
4902643	23	C	02/06/2025	09:51	-133.837	43.187	0	64.70	0	11.5620	0	32.8190	0	24.978	0	64.175	0	246.5	4	91.3	4	-1E+10	1	-1E+10	1	-1E+10	1	-1E+10	1	-1E+10	1	-1E+10	1
4902643	23	C	02/06/2025	09:51	-133.837	43.187	0	74.90	0	11.5430	0	32.8160	0	24.980	0	74.291	0	246.0	4	91.1	4	-1E+10	1	-1E+10	1	-1E+10	1	-1E+10	1	-1E+10	1	-1E+10	1
4902643	23	C	02/06/2025	09:51	-133.837	43.187	0	86.10	0	11.5200	0	32.8110	0	24.980	0	85.398	0	244.4	4	90.5	4	-1E+10	1	-1E+10	1	-1E+10	1	-1E+10	1	-1E+10	1	-1E+10	1
4902643	23	C	02/06/2025	09:51	-133.837	43.187	0	94.70	0	11.4000	0	32.8040	0	24.997	0	93.925	0	240.4	4	88.8	4	-1E+10	1	-1E+10	1	-1E+10	1	-1E+10	1	-1E+10	1	-1E+10	1
4902643	23	C	02/06/2025	09:51	-133.837	43.187	0	104.80	0	11.1110	0	32.8160	0	25.058	0	103.940	0	234.8	4	86.2	4	-1E+10	1	-1E+10	1	-1E+10	1	-1E+10	1	-1E+10	1	-1E+10	1
4902643	23	C	02/06/2025	09:51	-133.837	43.187	0	115.50	0	10.6440	0	32.8760	0	25.187	0	114.550	0	229.5	4	83.5	4	-1E+10	1	-1E+10	1	-1E+10	1	-1E+10	1	-1E+10	1	-1E+10	1
4902643	23	C	02/06/2025	09:51	-133.837	43.187	0	125.10	0	10.1230	0	32.9410	0	25.327	0	124.068	0	224.3	4	80.7	4	-1E+10	1	-1E+10	1	-1E+10	1	-1E+10	1	-1E+10	1	-1E+10	1
4902643	23	C	02/06/2025	09:51	-133.837	43.187	0	135.10	0	9.5650	0	33.0740	0	25.523	0	133.982	0	215.3	4	76.6	4	-1E+10	1	-1E+10	1	-1E+10	1	-1E+10	1	-1E+10	1	-1E+10	1
4902643	23	C	02/06/2025	09:51	-133.837	43.187	0	145.30	0	9.3010	0	33.1970	0	25.662	0	144.094	0	206.0	4	72.9	4	-1E+10	1	-1E+10	1	-1E+10	1	-1E+10	1	-1E+10	1	-1E+10	1
4902643	23	C	02/06/2025	09:51	-133.837	43.187	0	155.10	0	9.0150	0	33.3470	0	25.824	0	153.809	0	197.5	4	69.6	4	-1E+10	1	-1E+10	1	-1E+10	1	-1E+10	1	-1E+10	1	-1E+10	1
4902643	23	C	02/06/2025	09:51	-133.837	43.187	0	165.20	0	8.8410	0	33.4530	0	25.935	0	163.821	0	195.6	4	68.7	4	-1E+10	1	-1E+10	1	-1E+10	1	-1E+10	1	-1E+10	1	-1E+10	1
4902643	23	C	02/06/2025	09:51	-133.837	43.187	0	175.60	0	8.5770	0	33.5640	0	26.063	0	174.130	0	191.5	4	66.9	4	-1E+10	1	-1E+10	1	-1E+10	1	-1E+10	1	-1E+10	1	-1E+10	1
4902643	23	C	02/06/2025	09:51	-133.837	43.187	0	184.90	0	8.2810	0	33.6720	0	26.192	0	183.348	0	183.9	4	63.9	4	-1E+10	1	-1E+10	1	-1E+10	1	-1E+10	1	-1E+10	1	-1E+10	1
4902643	23	C	02/06/2025	09:51	-133.837	43.187	0	194.60	0	8.0630	0	33.7430	0	26.281	0	192.962	0	169.7	4	58.7	4	-1E+10	1	-1E+10	1	-1E+10	1	-1E+10	1	-1E+10	1	-1E+10	1
4902643	23	C	02/06/2025	09:51	-133.837	43.187	0	209.80	0	7.8570	0	33.8030	0	26.358	0	208.026	0	153.2	4	52.8	4	-1E+10	1	-1E+10	1	-1E+10	1	-1E+10	1	-1E+10	1	-1E+10	1
4902643	23	C	02/06/2025	09:51	-133.837	43.187	0	229.90	0	7.5290	0	33.8370	0	26.432	0	227.945	0	159.1	4	54.4	4	-1E+10	1	-1E+10	1	-1E+10	1	-1E+10	1	-1E+10	1	-1E+10	1
4902643	23	C	02/06/2025	09:51	-133.837	43.187	0	249.90	0	7.1630	0	33.8270	0	26.476	0	247.763	0	171.8	4	58.2	4	-1E+10	1	-1E+10	1	-1E+10	1	-1E+10	1	-1E+10	1	-1E+10	1
4902643	23	C	02/06/2025	09:51	-133.837	43.187	0	269.50	0	6.9890	0	33.8250	0	26.498	0	267.183	0	163.8	4	55.3	4	-1E+10	1	-1E+10	1	-1E+10	1	-1E+10	1	-1E+10	1	-1E+10	1
4902643	23	C	02/06/2025	09:51	-133.837	43.187	0	290.30	0	6.5640	0	33.8270	0	26.557	0	287.789	0	148.8	4	49.8	4	-1E+10	1	-1E+10	1	-1E+10	1	-1E+10	1	-1E+10	1	-1E+10	1
4902643	23	C	02/06/2025	09:51	-133.837	43.187	0	309.80	0	6.3100	0	33.8270	0	26.590	0	307.106	0	138.4	4	46.0	4	-1E+10	1	-1E+10	1	-1E+10	1	-1E+10	1	-1E+10	1	-1E+10	1
4902643	23	C	02/06/2025	09:51	-133.837	43.187	0	329.50	0	6.0600	0	33.8350	0	26.628	0	326.620	0	124.3	4	41.1	4	-1E+10	1	-1E+10	1	-1E+10	1	-1E+10	1	-1E+10	1	-1E+10	1
4902643	23	C	02/06/2025	09:51	-133.837	43.187	0	349.80	0	5.7590	0	33.8410	0	26.670	0	346.725	0	112.0	4	36.8	4	-1E+10	1	-1E+10	1	-1E+10	1	-1E+10	1	-1E+10	1	-1E+10	1
4902643	23	C	02/06/2025	09:51	-133.837	43.187	0	369.70	0	5.5670	0	33.8490	0	26.700	0	366.433	0	103.0	4	33.7	4	-1E+10	1	-1E+10	1	-1E+10	1	-1E+10	1	-1E+10	1	-1E+10	1
4902643	23	C	02/06/2025	09:51	-133.837	43.187	0	389.60	0	5.3870	0	33.8590	0	26.730	0	386.138	0	94.1	4	30.6	4	-1E+10	1	-1E+10	1	-1E+10	1	-1E+10	1	-1E+10	1	-1E+10	1
4902643	23	C	02/06/2025	09:51	-133.837	43.187	0	409.70	0	5.1780	0	33.8690	0	26.762	0	406.040	0	85.8	4	27.8	4	-1E+10	1	-1E+10	1	-1E+10	1	-1E+10	1	-1E+10	1	-1E+10	1
4902643	23	C	02/06/2025	09:51	-133.837	43.187	0	429.70	0	4.9810	0	33.8780	0	26.792	0	425.841	0	78.3	4	25.2	4	-1E+10	1	-1E+10	1	-1E+10	1	-1E+10	1	-1E+10	1	-1E+10	1
4902643	23	C	02/06/2025	09:51	-133.837	43.187	0	450.00	0	4.8120	0	33.8890	0	26.820	0	445.937	0	72.1	4	23.2	4	-1E+10	1	-1E+10	1	-1E+10	1	-1E+10	1	-1E+10	1	-1E+10	1
4902643	23	C	02/06/2025	09:51	-133.837	43.187	0	469.90	0	4.7360	0	33.9040	0	26.840	0	465.635	0	67.7	4	21.7	4	-1E+10	1	-1E+10	1	-1E+10	1	-1E+10	1	-1E+10	1	-1E+10	1
4902643	23	C	02/06/2025	09:51	-133.837	43.187	0	489.90	0	4.6320	0	33.9300	0	26.872	0	485.430	0	60.8	4	19.4	4	-1E+10	1	-1E+10	1	-1E+10	1	-1E+10	1	-1E+10	1	-1E+10	1
4902643	23	C	02/06/2025	09:51	-133.837	43.187	0	510.00	0	4.5300	0	33.9580	0	26.906	0	505.322	0	54.7	4	17.5	4	-1E+10	1	-1E+10	1	-1E+10	1	-1E+10	1	-1E+10	1	-1E+10	1
4902643	23	C	02/06/2025	09:51	-133.837	43.187	0	530.10	0	4.4640	0	33.9910	0	26.939	0	525.212	0	47.9	4	15.3	4	-1E+10	1	-1E+10	1	-1E+10	1	-1E+10	1	-1E+10	1	-1E+10	1
4902643	23	C	02/06/2025	09:51	-133.837	43.187	0	549.50	0	4.3920	0	34.0190	0	26.969	0	544.408	0	42.0	4	13.4	4	-1E+10	1	-1E+10	1	-1E+10	1	-1E+10	1	-1E+10	1	-1E+10	1
4902643	23	C	02/06/2025	09:51	-133.837	43.187	0	569.50	0	4.3220	0	34.0470	0	26.999	0	564.195	0	35.8	4	11.4	4	-1E+10	1	-1E+10	1	-1E+10	1	-1E+10	1	-1E+10	1	-1E+10	1
4902643	23	C	02/06/2025	09:51	-133.837	43.187	0	589.60	0	4.2550	0	34.0700	0	27.025	0	584.080	0	30.6	4	9.7	4	-1E+10	1	-1E+10	1	-1E+10	1	-1E+10	1	-1E+10	1	-1E+10	1
4902643	23	C	02/06/2025	09:51	-133.837	43.187	0	610.00	0	4.1870	0	34.0930	0	27.050	0	604.259	0	26.6	4	8.4	4	-1E+10	1	-1E+10	1	-1E+10	1	-1E+10	1	-1E+10	1	-1E+10	1
4902643	23	C	02/06/2025	09:51	-133.837	43.187	0	629.40	0	4.1290	0	34.1120	0	27.071	0	623.448	0	23.2	4	7.4	4	-1E+10	1	-1E+10	1	-1E+10	1	-1E+10	1	-1E+10	1	-1E+10	1
4902643	23	C	02/06/2025	09:51	-133.837	43.187	0	649.40	0	4.0730	0	34.1290	0	27.091	0	643.228	0	20.8	4	6.6	4	-1E+10	1	-1E+10	1	-1E+10	1	-1E+10	1	-1E+10	1	-1E+10	1
4902643	23	C	02/06/2025	09:51	-133.837	43.187	0	669.70	0	4.0290	0	34.1430	0	27.107	0	663.303	0	19.0	4	6.0	4	-1E+10	1	-1E+10	1	-1E+10	1	-1E+10	1	-1E+10	1	-1E+10	1
4902643	23	C	02/06/2025	09:51	-133.837	43.187	0	689.70	0	3.9740	0	34.1580	0	27.124	0	683.079	0	17.0	4	5.4	4	-1E+10	1	-1E+10	1	-1E+10	1	-1E+10	1	-1E+10	1	-1E+10	1
4902643	23	C	02/06/2025	09:51	-133.837	43.187	0	709.80	0	3.9010	0	34.1770	0	27.147	0	702.952	0	15.0	4	4.7	4	-1E+10	1	-1E+10	1	-1E+10	1	-1E+10	1	-1E+10	1	-1E+10	1
4902643	23	C	02/06/2025	09:51	-133.837	43.187	0	729.80	0	3.8420	0	34.1960	0	27.168	0	722.724	0	13.2	4	4.2	4	-1E+10	1	-1E+10	1	-1E+10	1	-1E+10	1	-1E+10	1	-1E+10	1
4902643	23	C	02/06/2025	09:51	-133.837	43.187	0	749.60	0	3.8000	0	34.2150	0	27.187	0	742.297	0	11.9	4	3.7	4	-1E+10	1	-1E+10	1	-1E+10	1	-1E+10	1	-1E+10	1	-1E+10	1
4902643	23	C	02/06/2025	09:51	-133.837	43.187	0	769.80	0	3.7550	0	34.2270	0	27.202	0	762.263	0	11.0	4	3.4	4	-1E+10	1	-1E+10	1	-1E+10	1	-1E+10	1	-1E+10	1	-1E+10	1
4902643	23	C	02/06/2025	09:51	-133.837	43.187	0	789.90	0	3.7040	0	34.2410	0	27.218	0	782.129	0	10.1	4	3.2	4	-1E+10	1	-1E+10	1	-1E+10	1	-1E+10	1	-1E+10	1	-1E+10	1
4902643	23	C	02/06/2025	09:51	-133.837	43.187	0	809.70	0	3.6660	0	34.2530	0	27.231	0	801.696	0	9.4	4	2.9	4	-1E+10	1	-1E+10	1	-1E+10	1	-1E+10	1	-1E+10	1	-1E+10	1
4902643	23	C	02/06/2025	09:51	-133.837	43.187	0	829.80	0	3.6220	0	34.2660	0	27.246	0	821.558	0	8.7	4	2.7	4	-1E+10	1	-1E+10	1	-1E+10	1	-1E+10	1	-1E+10	1	-1E+10	1
4902643	23	C	02/06/2025	09:51	-133.837	43.187	0	850.00	0	3.5880	0	34.2810	0	27.262	0	841.517	0	7.9	4	2.5	4	-1E+10	1	-1E+10	1	-1E+10	1	-1E+10	1	-1E+10	1	-1E+10	1
4902643	23	C	02/06/2025	09:51	-133.837	43.187	0	870.40	0	3.5610	0	34.2960	0	27.276	0	861.671	0	7.4	4	2.3	4	-1E+10	1	-1E+10	1	-1E+10	1	-1E+10	1	-1E+10	1	-1E+10	1
4902643	23	C	02/06/2025	09:51	-133.837	43.187	0	889.70	0	3.5380	0	34.3100	0	27.290	0	880.737	0	7.1	4	2.2	4	-1E+10	1	-1E+10	1	-1E+10	1	-1E+10	1	-1E+10	1	-1E+10	1
4902643	23	C	02/06/2025	09:51	-133.837	43.187	0	909.50	0	3.5140	0	34.3250	0	27.304	0	900.295	0	6.9	4	2.1	4	-1E+10	1	-1E+10	1	-1E+10	1	-1E+10	1	-1E+10	1	-1E+10	1
4902643	23	C	02/06/2025	09:51	-133.837	43.187	0	929.70	0	3.4960	0	34.3350	0	27.314	0	920.246	0	6.8	4	2.1	4	-1E+10	1	-1E+10	1	-1E+10	1	-1E+10	1	-1E+10	1	-1E+10	1
4902643	23	C	02/06/2025	09:51	-133.837	43.187	0	949.60	0	3.4840	0	34.3500	0	27.327	0	939.899	0	6.8	4	2.1	4	-1E+10	1	-1E+10	1	-1E+10	1	-1E+10	1	-1E+10	1	-1E+10	1
4902643	23	C	02/06/2025	09:51	-133.837	43.187	0	969.60	0	3.4690	0	34.3600	0	27.337	0	959.649	0	6.9	4	2.1	4	-1E+10	1	-1E+10	1	-1E+10	1	-1E+10	1	-1E+10	1	-1E+10	1
4902643	23	C	02/06/2025	09:51	-133.837	43.187	0	989.90	0	3.4390	0	34.3720	0	27.349	0	979.693	0	7.1	4	2.2	4	-1E+10	1	-1E+10	1	-1E+10	1	-1E+10	1	-1E+10	1	-1E+10	1
4902643	23	C	02/06/2025	09:51	-133.837	43.187	0	1010.00	0	3.4030	0	34.3800	0	27.359	0	999.538	0	7.3	4	2.3	4	-1E+10	1	-1E+10	1	-1E+10	1	-1E+10	1	-1E+10	1	-1E+10	1
4902643	23	C	02/06/2025	09:51	-133.837	43.187	0	1029.60	0	3.3650	0	34.3900	0	27.371	0	1018.887	0	7.6	4	2.4	4	-1E+10	1	-1E+10	1	-1E+10	1	-1E+10	1	-1E+10	1	-1E+10	1
4902643	23	C	02/06/2025	09:51	-133.837	43.187	0	1049.70	0	3.3170	0	34.3990	0	27.383	0	1038.729	0	7.9	4	2.4	4	-1E+10	1	-1E+10	1	-1E+10	1	-1E+10	1	-1E+10	1	-1E+10	1
4902643	23	C	02/06/2025	09:51	-133.837	43.187	0	1070.00	0	3.2740	0	34.4070	0	27.393	0	1058.765	0	8.2	4	2.6	4	-1E+10	1	-1E+10	1	-1E+10	1	-1E+10	1	-1E+10	1	-1E+10	1
4902643	23	C	02/06/2025	09:51	-133.837	43.187	0	1089.60	0	3.2350	0	34.4140	0	27.403	0	1078.109	0	8.7	4	2.7	4	-1E+10	1	-1E+10	1	-1E+10	1	-1E+10	1	-1E+10	1	-1E+10	1
4902643	23	C	02/06/2025	09:51	-133.837	43.187	0	1108.80	0	3.1990	0	34.4230	0	27.413	0	1097.056	0	9.3	4	2.9	4	-1E+10	1	-1E+10	1	-1E+10	1	-1E+10	1	-1E+10	1	-1E+10	1
4902643	23	C	02/06/2025	09:51	-133.837	43.187	0	1129.80	0	3.1560	0	34.4320	0	27.425	0	1117.778	0	9.8	4	3.1	4	-1E+10	1	-1E+10	1	-1E+10	1	-1E+10	1	-1E+10	1	-1E+10	1
4902643	23	C	02/06/2025	09:51	-133.837	43.187	0	1149.60	0	3.1270	0	34.4380	0	27.432	0	1137.314	0	10.4	4	3.2	4	-1E+10	1	-1E+10	1	-1E+10	1	-1E+10	1	-1E+10	1	-1E+10	1
4902643	23	C	02/06/2025	09:51	-133.837	43.187	0	1169.60	0	3.0940	0	34.4430	0	27.439	0	1157.045	0	10.9	4	3.4	4	-1E+10	1	-1E+10	1	-1E+10	1	-1E+10	1	-1E+10	1	-1E+10	1
4902643	23	C	02/06/2025	09:51	-133.837	43.187	0	1190.70	0	3.0560	0	34.4500	0	27.449	0	1177.859	0	11.7	4	3.6	4	-1E+10	1	-1E+10	1	-1E+10	1	-1E+10	1	-1E+10	1	-1E+10	1
4902643	23	C	02/06/2025	09:51	-133.837	43.187	0	1210.10	0	3.0250	0	34.4550	0	27.455	0	1196.995	0	12.1	4	3.7	4	-1E+10	1	-1E+10	1	-1E+10	1	-1E+10	1	-1E+10	1	-1E+10	1
4902643	23	C	02/06/2025	09:51	-133.837	43.187	0	1229.90	0	2.9870	0	34.4600	0	27.463	0	1216.524	0	12.7	4	3.9	4	-1E+10	1	-1E+10	1	-1E+10	1	-1E+10	1	-1E+10	1	-1E+10	1
4902643	23	C	02/06/2025	09:51	-133.837	43.187	0	1249.90	0	2.9520	0	34.4640	0	27.469	0	1236.247	0	13.2	4	4.1	4	-1E+10	1	-1E+10	1	-1E+10	1	-1E+10	1	-1E+10	1	-1E+10	1
4902643	23	C	02/06/2025	09:51	-133.837	43.187	0	1270.50	0	2.9110	0	34.4690	0	27.477	0	1256.561	0	14.1	4	4.3	4	-1E+10	1	-1E+10	1	-1E+10	1	-1E+10	1	-1E+10	1	-1E+10	1
4902643	23	C	02/06/2025	09:51	-133.837	43.187	0	1289.70	0	2.8690	0	34.4760	0	27.487	0	1275.492	0	15.2	4	4.7	4	-1E+10	1	-1E+10	1	-1E+10	1	-1E+10	1	-1E+10	1	-1E+10	1
4902643	23	C	02/06/2025	09:51	-133.837	43.187	0	1309.80	0	2.8440	0	34.4810	0	27.493	0	1295.309	0	16.1	4	5.0	4	-1E+10	1	-1E+10	1	-1E+10	1	-1E+10	1	-1E+10	1	-1E+10	1
4902643	23	C	02/06/2025	09:51	-133.837	43.187	0	1329.90	0	2.7990	0	34.4860	0	27.501	0	1315.124	0	17.1	4	5.2	4	-1E+10	1	-1E+10	1	-1E+10	1	-1E+10	1	-1E+10	1	-1E+10	1
4902643	23	C	02/06/2025	09:51	-133.837	43.187	0	1349.90	0	2.7830	0	34.4890	0	27.505	0	1334.838	0	17.8	4	5.5	4	-1E+10	1	-1E+10	1	-1E+10	1	-1E+10	1	-1E+10	1	-1E+10	1
4902643	23	C	02/06/2025	09:51	-133.837	43.187	0	1369.90	0	2.7550	0	34.4930	0	27.511	0	1354.551	0	18.5	4	5.7	4	-1E+10	1	-1E+10	1	-1E+10	1	-1E+10	1	-1E+10	1	-1E+10	1
4902643	23	C	02/06/2025	09:51	-133.837	43.187	0	1390.00	0	2.7250	0	34.4970	0	27.517	0	1374.360	0	19.5	4	6.0	4	-1E+10	1	-1E+10	1	-1E+10	1	-1E+10	1	-1E+10	1	-1E+10	1
4902643	23	C	02/06/2025	09:51	-133.837	43.187	0	1409.30	0	2.6860	0	34.5010	0	27.523	0	1393.379	0	20.6	4	6.3	4	-1E+10	1	-1E+10	1	-1E+10	1	-1E+10	1	-1E+10	1	-1E+10	1
4902643	23	C	02/06/2025	09:51	-133.837	43.187	0	1429.70	0	2.6380	0	34.5070	0	27.532	0	1413.481	0	21.8	4	6.7	4	-1E+10	1	-1E+10	1	-1E+10	1	-1E+10	1	-1E+10	1	-1E+10	1
4902643	23	C	02/06/2025	09:51	-133.837	43.187	0	1449.70	0	2.6070	0	34.5100	0	27.537	0	1433.186	0	22.8	4	7.0	4	-1E+10	1	-1E+10	1	-1E+10	1	-1E+10	1	-1E+10	1	-1E+10	1
4902643	23	C	02/06/2025	09:51	-133.837	43.187	0	1469.60	0	2.5660	0	34.5150	0	27.545	0	1452.791	0	23.9	4	7.3	4	-1E+10	1	-1E+10	1	-1E+10	1	-1E+10	1	-1E+10	1	-1E+10	1
4902643	23	C	02/06/2025	09:51	-133.837	43.187	0	1489.90	0	2.5350	0	34.5190	0	27.551	0	1472.788	0	25.1	4	7.7	4	-1E+10	1	-1E+10	1	-1E+10	1	-1E+10	1	-1E+10	1	-1E+10	1
4902643	23	C	02/06/2025	09:51	-133.837	43.187	0	1510.00	0	2.4990	0	34.5230	0	27.557	0	1492.586	0	26.4	4	8.1	4	-1E+10	1	-1E+10	1	-1E+10	1	-1E+10	1	-1E+10	1	-1E+10	1
4902643	23	C	02/06/2025	09:51	-133.837	43.187	0	1529.80	0	2.4730	0	34.5260	0	27.562	0	1512.087	0	27.6	4	8.4	4	-1E+10	1	-1E+10	1	-1E+10	1	-1E+10	1	-1E+10	1	-1E+10	1
4902643	23	C	02/06/2025	09:51	-133.837	43.187	0	1550.00	0	2.4470	0	34.5300	0	27.567	0	1531.980	0	28.9	4	8.8	4	-1E+10	1	-1E+10	1	-1E+10	1	-1E+10	1	-1E+10	1	-1E+10	1
4902643	23	C	02/06/2025	09:51	-133.837	43.187	0	1570.20	0	2.4070	0	34.5340	0	27.574	0	1551.871	0	29.8	4	9.1	4	-1E+10	1	-1E+10	1	-1E+10	1	-1E+10	1	-1E+10	1	-1E+10	1
4902643	23	C	02/06/2025	09:51	-133.837	43.187	0	1589.60	0	2.3740	0	34.5370	0	27.579	0	1570.973	0	30.4	4	9.3	4	-1E+10	1	-1E+10	1	-1E+10	1	-1E+10	1	-1E+10	1	-1E+10	1
4902643	23	C	02/06/2025	09:51	-133.837	43.187	0	1610.00	0	2.3460	0	34.5390	0	27.583	0	1591.057	0	31.5	4	9.6	4	-1E+10	1	-1E+10	1	-1E+10	1	-1E+10	1	-1E+10	1	-1E+10	1
4902643	23	C	02/06/2025	09:51	-133.837	43.187	0	1630.00	0	2.3160	0	34.5430	0	27.589	0	1610.746	0	33.0	4	10.0	4	-1E+10	1	-1E+10	1	-1E+10	1	-1E+10	1	-1E+10	1	-1E+10	1
4902643	23	C	02/06/2025	09:51	-133.837	43.187	0	1649.90	0	2.2900	0	34.5460	0	27.594	0	1630.334	0	34.0	4	10.3	4	-1E+10	1	-1E+10	1	-1E+10	1	-1E+10	1	-1E+10	1	-1E+10	1
4902643	23	C	02/06/2025	09:51	-133.837	43.187	0	1669.70	0	2.2660	0	34.5490	0	27.598	0	1649.822	0	35.4	4	10.7	4	-1E+10	1	-1E+10	1	-1E+10	1	-1E+10	1	-1E+10	1	-1E+10	1
4902643	23	C	02/06/2025	09:51	-133.837	43.187	0	1689.60	0	2.2440	0	34.5530	0	27.603	0	1669.407	0	37.1	4	11.2	4	-1E+10	1	-1E+10	1	-1E+10	1	-1E+10	1	-1E+10	1	-1E+10	1
4902643	23	C	02/06/2025	09:51	-133.837	43.187	0	1709.80	0	2.2270	0	34.5570	0	27.608	0	1689.285	0	38.6	4	11.7	4	-1E+10	1	-1E+10	1	-1E+10	1	-1E+10	1	-1E+10	1	-1E+10	1
4902643	23	C	02/06/2025	09:51	-133.837	43.187	0	1729.50	0	2.2090	0	34.5600	0	27.612	0	1708.669	0	39.7	4	12.0	4	-1E+10	1	-1E+10	1	-1E+10	1	-1E+10	1	-1E+10	1	-1E+10	1
4902643	23	C	02/06/2025	09:51	-133.837	43.187	0	1749.50	0	2.1860	0	34.5630	0	27.616	0	1728.347	0	41.0	4	12.4	4	-1E+10	1	-1E+10	1	-1E+10	1	-1E+10	1	-1E+10	1	-1E+10	1
4902643	23	C	02/06/2025	09:51	-133.837	43.187	0	1770.10	0	2.1620	0	34.5660	0	27.621	0	1748.613	0	42.2	4	12.8	4	-1E+10	1	-1E+10	1	-1E+10	1	-1E+10	1	-1E+10	1	-1E+10	1
4902643	23	C	02/06/2025	09:51	-133.837	43.187	0	1789.80	0	2.1420	0	34.5690	0	27.625	0	1767.992	0	43.3	4	13.1	4	-1E+10	1	-1E+10	1	-1E+10	1	-1E+10	1	-1E+10	1	-1E+10	1
4902643	23	C	02/06/2025	09:51	-133.837	43.187	0	1809.80	0	2.1200	0	34.5710	0	27.628	0	1787.664	0	44.5	4	13.5	4	-1E+10	1	-1E+10	1	-1E+10	1	-1E+10	1	-1E+10	1	-1E+10	1
4902643	23	C	02/06/2025	09:51	-133.837	43.187	0	1829.40	0	2.0990	0	34.5740	0	27.632	0	1806.941	0	45.6	4	13.8	4	-1E+10	1	-1E+10	1	-1E+10	1	-1E+10	1	-1E+10	1	-1E+10	1
4902643	23	C	02/06/2025	09:51	-133.837	43.187	0	1849.40	0	2.0810	0	34.5770	0	27.636	0	1826.610	0	46.9	4	14.2	4	-1E+10	1	-1E+10	1	-1E+10	1	-1E+10	1	-1E+10	1	-1E+10	1
4902643	23	C	02/06/2025	09:51	-133.837	43.187	0	1869.40	0	2.0660	0	34.5790	0	27.639	0	1846.277	0	47.8	4	14.4	4	-1E+10	1	-1E+10	1	-1E+10	1	-1E+10	1	-1E+10	1	-1E+10	1
4902643	23	C	02/06/2025	09:51	-133.837	43.187	0	1889.90	0	2.0490	0	34.5820	0	27.643	0	1866.433	0	49.0	4	14.8	4	-1E+10	1	-1E+10	1	-1E+10	1	-1E+10	1	-1E+10	1	-1E+10	1
4902643	23	C	02/06/2025	09:51	-133.837	43.187	0	1909.90	0	2.0310	0	34.5840	0	27.646	0	1886.096	0	50.1	4	15.1	4	-1E+10	1	-1E+10	1	-1E+10	1	-1E+10	1	-1E+10	1	-1E+10	1
4902643	23	C	02/06/2025	09:51	-133.837	43.187	0	1930.00	0	2.0160	0	34.5870	0	27.650	0	1905.856	0	51.2	4	15.4	4	-1E+10	1	-1E+10	1	-1E+10	1	-1E+10	1	-1E+10	1	-1E+10	1
4902643	23	C	02/06/2025	09:51	-133.837	43.187	0	1949.90	0	2.0020	0	34.5890	0	27.653	0	1925.417	0	52.2	4	15.7	4	-1E+10	1	-1E+10	1	-1E+10	1	-1E+10	1	-1E+10	1	-1E+10	1
4902643	23	C	02/06/2025	09:51	-133.837	43.187	0	1969.90	0	1.9870	0	34.5910	0	27.655	0	1945.075	0	53.3	4	16.1	4	-1E+10	1	-1E+10	1	-1E+10	1	-1E+10	1	-1E+10	1	-1E+10	1
4902643	23	C	02/06/2025	09:51	-133.837	43.187	0	1989.60	0	1.9700	0	34.5940	0	27.659	0	1964.436	0	54.4	4	16.4	4	-1E+10	1	-1E+10	1	-1E+10	1	-1E+10	1	-1E+10	1	-1E+10	1
4902643	23	C	02/06/2025	09:51	-133.837	43.187	0	2009.70	0	1.9570	0	34.5950	4	27.661	0	1984.188	0	55.1	4	16.6	4	-1E+10	1	-1E+10	1	-1E+10	1	-1E+10	1	-1E+10	1	-1E+10	1
4902643	23	C	02/06/2025	09:51	-133.837	43.187	0	2029.80	0	1.9450	0	34.5970	4	27.664	0	2003.938	0	55.7	4	16.8	4	-1E+10	1	-1E+10	1	-1E+10	1	-1E+10	1	-1E+10	1	-1E+10	1
4902643	23	C	02/06/2025	09:51	-133.837	43.187	0	2049.70	0	1.9330	0	34.5980	4	27.666	0	2023.490	0	56.6	4	17.0	4	-1E+10	1	-1E+10	1	-1E+10	1	-1E+10	1	-1E+10	1	-1E+10	1
4902643	23	C	02/06/2025	09:51	-133.837	43.187	0	2070.30	0	1.9190	0	34.6000	4	27.668	0	2043.728	0	57.2	4	17.2	4	-1E+10	1	-1E+10	1	-1E+10	1	-1E+10	1	-1E+10	1	-1E+10	1
4902643	23	C	02/06/2025	09:51	-133.837	43.187	0	2089.70	0	1.9060	0	34.6020	4	27.671	0	2062.786	0	58.3	4	17.5	4	-1E+10	1	-1E+10	1	-1E+10	1	-1E+10	1	-1E+10	1	-1E+10	1
4902643	23	C	02/06/2025	09:51	-133.837	43.187	0	2109.70	0	1.8970	0	34.6040	4	27.674	0	2082.431	0	59.0	4	17.8	4	-1E+10	1	-1E+10	1	-1E+10	1	-1E+10	1	-1E+10	1	-1E+10	1
4902643	23	C	02/06/2025	09:51	-133.837	43.187	0	2129.60	0	1.8890	0	34.6050	4	27.675	0	2101.976	0	59.7	4	17.9	4	-1E+10	1	-1E+10	1	-1E+10	1	-1E+10	1	-1E+10	1	-1E+10	1
4902643	23	C	02/06/2025	09:51	-133.837	43.187	0	2150.50	0	1.8800	0	34.6060	4	27.677	0	2122.501	0	60.5	4	18.2	4	-1E+10	1	-1E+10	1	-1E+10	1	-1E+10	1	-1E+10	1	-1E+10	1
4902643	23	C	02/06/2025	09:51	-133.837	43.187	0	2169.80	0	1.8720	0	34.6080	4	27.679	0	2141.453	0	61.3	4	18.4	4	-1E+10	1	-1E+10	1	-1E+10	1	-1E+10	1	-1E+10	1	-1E+10	1
4902643	23	C	02/06/2025	09:51	-133.837	43.187	0	2189.50	0	1.8620	0	34.6090	4	27.681	0	2160.796	0	62.1	4	18.7	4	-1E+10	1	-1E+10	1	-1E+10	1	-1E+10	1	-1E+10	1	-1E+10	1
4902643	23	C	02/06/2025	09:51	-133.837	43.187	0	2209.90	0	1.8540	0	34.6110	4	27.683	0	2180.824	0	63.0	4	18.9	4	-1E+10	1	-1E+10	1	-1E+10	1	-1E+10	1	-1E+10	1	-1E+10	1
4902643	23	C	02/06/2025	09:51	-133.837	43.187	0	2229.70	0	1.8450	0	34.6130	4	27.685	0	2200.262	0	63.9	4	19.2	4	-1E+10	1	-1E+10	1	-1E+10	1	-1E+10	1	-1E+10	1	-1E+10	1
4902643	23	C	02/06/2025	09:51	-133.837	43.187	0	2249.60	0	1.8370	0	34.6140	4	27.687	0	2219.796	0	64.5	4	19.4	4	-1E+10	1	-1E+10	1	-1E+10	1	-1E+10	1	-1E+10	1	-1E+10	1
4902643	23	C	02/06/2025	09:51	-133.837	43.187	0	2269.70	0	1.8290	0	34.6150	4	27.688	0	2239.525	0	65.2	4	19.6	4	-1E+10	1	-1E+10	1	-1E+10	1	-1E+10	1	-1E+10	1	-1E+10	1
4902643	23	C	02/06/2025	09:51	-133.837	43.187	0	2289.50	0	1.8230	0	34.6160	4	27.690	0	2258.957	0	65.9	4	19.8	4	-1E+10	1	-1E+10	1	-1E+10	1	-1E+10	1	-1E+10	1	-1E+10	1
4902643	23	C	02/06/2025	09:51	-133.837	43.187	0	2309.70	0	1.8190	0	34.6170	4	27.691	0	2278.780	0	66.6	4	20.0	4	-1E+10	1	-1E+10	1	-1E+10	1	-1E+10	1	-1E+10	1	-1E+10	1
4902643	23	C	02/06/2025	09:51	-133.837	43.187	0	2329.90	0	1.8130	0	34.6180	4	27.692	0	2298.602	0	67.4	4	20.2	4	-1E+10	1	-1E+10	1	-1E+10	1	-1E+10	1	-1E+10	1	-1E+10	1
4902643	23	C	02/06/2025	09:51	-133.837	43.187	0	2349.80	0	1.8040	0	34.6200	4	27.695	0	2318.127	0	68.2	4	20.5	4	-1E+10	1	-1E+10	1	-1E+10	1	-1E+10	1	-1E+10	1	-1E+10	1
4902643	23	C	02/06/2025	09:51	-133.837	43.187	0	2369.90	0	1.7950	0	34.6210	4	27.696	0	2337.846	0	69.2	4	20.7	4	-1E+10	1	-1E+10	1	-1E+10	1	-1E+10	1	-1E+10	1	-1E+10	1
4902643	23	C	02/06/2025	09:51	-133.837	43.187	0	2389.70	0	1.7860	0	34.6220	4	27.698	0	2357.270	0	70.1	4	21.0	4	-1E+10	1	-1E+10	1	-1E+10	1	-1E+10	1	-1E+10	1	-1E+10	1
4902643	23	C	02/06/2025	09:51	-133.837	43.187	0	2409.50	0	1.7760	0	34.6240	4	27.701	0	2376.692	0	71.3	4	21.4	4	-1E+10	1	-1E+10	1	-1E+10	1	-1E+10	1	-1E+10	1	-1E+10	1
4902643	23	C	02/06/2025	09:51	-133.837	43.187	0	2429.80	0	1.7650	0	34.6250	4	27.702	0	2396.602	0	72.3	4	21.7	4	-1E+10	1	-1E+10	1	-1E+10	1	-1E+10	1	-1E+10	1	-1E+10	1
4902643	23	C	02/06/2025	09:51	-133.837	43.187	0	2449.80	0	1.7590	0	34.6260	4	27.704	0	2416.216	0	73.0	4	21.9	4	-1E+10	1	-1E+10	1	-1E+10	1	-1E+10	1	-1E+10	1	-1E+10	1
4902643	23	C	02/06/2025	09:51	-133.837	43.187	0	2469.80	0	1.7520	0	34.6270	4	27.705	0	2435.829	0	73.8	4	22.1	4	-1E+10	1	-1E+10	1	-1E+10	1	-1E+10	1	-1E+10	1	-1E+10	1
4902643	23	C	02/06/2025	09:51	-133.837	43.187	0	2489.10	0	1.7420	0	34.6290	4	27.708	0	2454.753	0	75.0	4	22.5	4	-1E+10	1	-1E+10	1	-1E+10	1	-1E+10	1	-1E+10	1	-1E+10	1
4902643	23	C	02/06/2025	09:51	-133.837	43.187	0	2509.90	0	1.7300	0	34.6300	4	27.709	0	2475.146	0	76.2	4	22.8	4	-1E+10	1	-1E+10	1	-1E+10	1	-1E+10	1	-1E+10	1	-1E+10	1
4902643	23	C	02/06/2025	09:51	-133.837	43.187	0	2529.70	0	1.7210	0	34.6320	4	27.712	0	2494.557	0	77.2	4	23.1	4	-1E+10	1	-1E+10	1	-1E+10	1	-1E+10	1	-1E+10	1	-1E+10	1
4902643	23	C	02/06/2025	09:51	-133.837	43.187	0	2549.70	0	1.7150	0	34.6330	4	27.713	0	2514.163	0	78.0	4	23.4	4	-1E+10	1	-1E+10	1	-1E+10	1	-1E+10	1	-1E+10	1	-1E+10	1
4902643	23	C	02/06/2025	09:51	-133.837	43.187	0	2569.70	0	1.7080	0	34.6340	4	27.715	0	2533.766	0	78.8	4	23.6	4	-1E+10	1	-1E+10	1	-1E+10	1	-1E+10	1	-1E+10	1	-1E+10	1
4902643	23	C	02/06/2025	09:51	-133.837	43.187	0	2590.20	0	1.7030	0	34.6350	4	27.716	0	2553.858	0	79.5	4	23.8	4	-1E+10	1	-1E+10	1	-1E+10	1	-1E+10	1	-1E+10	1	-1E+10	1
4902643	23	C	02/06/2025	09:51	-133.837	43.187	0	2609.70	0	1.6960	0	34.6350	4	27.716	0	2572.968	0	80.3	4	24.0	4	-1E+10	1	-1E+10	1	-1E+10	1	-1E+10	1	-1E+10	1	-1E+10	1
4902643	23	C	02/06/2025	09:51	-133.837	43.187	0	2629.70	0	1.6890	0	34.6360	4	27.718	0	2592.566	0	81.1	4	24.3	4	-1E+10	1	-1E+10	1	-1E+10	1	-1E+10	1	-1E+10	1	-1E+10	1
4902643	23	C	02/06/2025	09:51	-133.837	43.187	0	2649.80	0	1.6820	0	34.6370	4	27.719	0	2612.261	0	81.9	4	24.5	4	-1E+10	1	-1E+10	1	-1E+10	1	-1E+10	1	-1E+10	1	-1E+10	1
4902643	23	C	02/06/2025	09:51	-133.837	43.187	0	2669.70	0	1.6780	0	34.6380	4	27.721	0	2631.757	0	82.4	4	24.6	4	-1E+10	1	-1E+10	1	-1E+10	1	-1E+10	1	-1E+10	1	-1E+10	1
4902643	23	C	02/06/2025	09:51	-133.837	43.187	0	2690.10	0	1.6740	0	34.6390	4	27.722	0	2651.742	0	82.9	4	24.8	4	-1E+10	1	-1E+10	1	-1E+10	1	-1E+10	1	-1E+10	1	-1E+10	1
4902643	23	C	02/06/2025	09:51	-133.837	43.187	0	2709.80	0	1.6690	0	34.6400	4	27.723	0	2671.039	0	83.6	4	25.0	4	-1E+10	1	-1E+10	1	-1E+10	1	-1E+10	1	-1E+10	1	-1E+10	1
4902643	23	C	02/06/2025	09:51	-133.837	43.187	0	2729.50	0	1.6640	0	34.6400	4	27.724	0	2690.335	0	84.4	4	25.2	4	-1E+10	1	-1E+10	1	-1E+10	1	-1E+10	1	-1E+10	1	-1E+10	1
4902643	23	C	02/06/2025	09:51	-133.837	43.187	0	2749.40	0	1.6590	0	34.6410	4	27.725	0	2709.824	0	85.2	4	25.5	4	-1E+10	1	-1E+10	1	-1E+10	1	-1E+10	1	-1E+10	1	-1E+10	1
4902643	23	C	02/06/2025	09:51	-133.837	43.187	0	2769.60	0	1.6540	0	34.6420	4	27.726	0	2729.606	0	86.0	4	25.7	4	-1E+10	1	-1E+10	1	-1E+10	1	-1E+10	1	-1E+10	1	-1E+10	1
4902643	23	C	02/06/2025	09:51	-133.837	43.187	0	2789.50	0	1.6490	0	34.6430	4	27.727	0	2749.092	0	86.7	4	25.9	4	-1E+10	1	-1E+10	1	-1E+10	1	-1E+10	1	-1E+10	1	-1E+10	1
4902643	23	C	02/06/2025	09:51	-133.837	43.187	0	2809.40	0	1.6460	0	34.6430	4	27.728	0	2768.576	0	87.3	4	26.1	4	-1E+10	1	-1E+10	1	-1E+10	1	-1E+10	1	-1E+10	1	-1E+10	1
4902643	23	C	02/06/2025	09:51	-133.837	43.187	0	2830.30	0	1.6430	0	34.6440	4	27.729	0	2789.038	0	87.9	4	26.3	4	-1E+10	1	-1E+10	1	-1E+10	1	-1E+10	1	-1E+10	1	-1E+10	1
4902643	23	C	02/06/2025	09:51	-133.837	43.187	0	2849.60	0	1.6370	0	34.6450	4	27.730	0	2807.931	0	88.8	4	26.6	4	-1E+10	1	-1E+10	1	-1E+10	1	-1E+10	1	-1E+10	1	-1E+10	1
4902643	23	C	02/06/2025	09:51	-133.837	43.187	0	2869.50	0	1.6300	0	34.6460	4	27.732	0	2827.410	0	89.6	4	26.8	4	-1E+10	1	-1E+10	1	-1E+10	1	-1E+10	1	-1E+10	1	-1E+10	1
4902643	23	C	02/06/2025	09:51	-133.837	43.187	0	2889.70	0	1.6260	0	34.6470	4	27.733	0	2847.181	0	90.2	4	26.9	4	-1E+10	1	-1E+10	1	-1E+10	1	-1E+10	1	-1E+10	1	-1E+10	1
4902643	23	C	02/06/2025	09:51	-133.837	43.187	0	2909.60	0	1.6230	0	34.6470	4	27.733	0	2866.657	0	90.7	4	27.1	4	-1E+10	1	-1E+10	1	-1E+10	1	-1E+10	1	-1E+10	1	-1E+10	1
4902643	23	C	02/06/2025	09:51	-133.837	43.187	0	2928.70	0	1.6200	0	34.6480	4	27.734	0	2885.347	0	91.2	4	27.2	4	-1E+10	1	-1E+10	1	-1E+10	1	-1E+10	1	-1E+10	1	-1E+10	1
4902643	23	C	02/06/2025	09:51	-133.837	43.187	0	2949.80	0	1.6150	0	34.6480	4	27.735	0	2905.994	0	91.9	4	27.5	4	-1E+10	1	-1E+10	1	-1E+10	1	-1E+10	1	-1E+10	1	-1E+10	1
4902643	23	C	02/06/2025	09:51	-133.837	43.187	0	2969.80	0	1.6090	0	34.6490	4	27.736	0	2925.562	0	92.8	4	27.7	4	-1E+10	1	-1E+10	1	-1E+10	1	-1E+10	1	-1E+10	1	-1E+10	1
4902643	23	C	02/06/2025	09:51	-133.837	43.187	0	2989.40	0	1.6040	0	34.6500	4	27.738	0	2944.737	0	93.5	4	27.9	4	-1E+10	1	-1E+10	1	-1E+10	1	-1E+10	1	-1E+10	1	-1E+10	1
4902643	23	C	02/06/2025	09:51	-133.837	43.187	0	3009.70	0	1.6000	0	34.6510	4	27.739	0	2964.595	0	94.3	4	28.2	4	-1E+10	1	-1E+10	1	-1E+10	1	-1E+10	1	-1E+10	1	-1E+10	1
4902643	23	C	02/06/2025	09:51	-133.837	43.187	0	3029.70	0	1.5960	0	34.6510	4	27.739	0	2984.157	0	94.7	4	28.3	4	-1E+10	1	-1E+10	1	-1E+10	1	-1E+10	1	-1E+10	1	-1E+10	1
4902643	23	C	02/06/2025	09:51	-133.837	43.187	0	3049.40	0	1.5940	0	34.6520	4	27.740	0	3003.425	0	95.2	4	28.4	4	-1E+10	1	-1E+10	1	-1E+10	1	-1E+10	1	-1E+10	1	-1E+10	1
4902643	23	C	02/06/2025	09:51	-133.837	43.187	0	3069.40	0	1.5910	0	34.6520	4	27.741	0	3022.984	0	95.7	4	28.6	4	-1E+10	1	-1E+10	1	-1E+10	1	-1E+10	1	-1E+10	1	-1E+10	1
4902643	23	C	02/06/2025	09:51	-133.837	43.187	0	3089.80	0	1.5890	0	34.6530	4	27.742	0	3042.933	0	96.2	4	28.7	4	-1E+10	1	-1E+10	1	-1E+10	1	-1E+10	1	-1E+10	1	-1E+10	1
4902643	23	C	02/06/2025	09:51	-133.837	43.187	0	3109.60	0	1.5850	0	34.6540	4	27.743	0	3062.293	0	96.9	4	28.9	4	-1E+10	1	-1E+10	1	-1E+10	1	-1E+10	1	-1E+10	1	-1E+10	1
4902643	23	C	02/06/2025	09:51	-133.837	43.187	0	3129.80	0	1.5810	0	34.6540	4	27.743	0	3082.042	0	97.4	4	29.1	4	-1E+10	1	-1E+10	1	-1E+10	1	-1E+10	1	-1E+10	1	-1E+10	1
4902643	23	C	02/06/2025	09:51	-133.837	43.187	0	3149.80	0	1.5790	0	34.6550	4	27.744	0	3101.595	0	98.0	4	29.2	4	-1E+10	1	-1E+10	1	-1E+10	1	-1E+10	1	-1E+10	1	-1E+10	1
4902643	23	C	02/06/2025	09:51	-133.837	43.187	0	3169.50	0	1.5760	0	34.6550	4	27.745	0	3120.852	0	98.5	4	29.4	4	-1E+10	1	-1E+10	1	-1E+10	1	-1E+10	1	-1E+10	1	-1E+10	1
4902643	23	C	02/06/2025	09:51	-133.837	43.187	0	3189.60	0	1.5750	0	34.6560	4	27.746	0	3140.498	0	98.9	4	29.5	4	-1E+10	1	-1E+10	1	-1E+10	1	-1E+10	1	-1E+10	1	-1E+10	1
4902643	23	C	02/06/2025	09:51	-133.837	43.187	0	3210.30	0	1.5720	0	34.6560	4	27.746	0	3160.729	0	99.4	4	29.7	4	-1E+10	1	-1E+10	1	-1E+10	1	-1E+10	1	-1E+10	1	-1E+10	1
4902643	23	C	02/06/2025	09:51	-133.837	43.187	0	3230.40	0	1.5690	0	34.6570	4	27.747	0	3180.372	0	99.9	4	29.8	4	-1E+10	1	-1E+10	1	-1E+10	1	-1E+10	1	-1E+10	1	-1E+10	1
4902643	23	C	02/06/2025	09:51	-133.837	43.187	0	3250.60	0	1.5680	0	34.6570	4	27.747	0	3200.111	0	100.4	4	30.0	4	-1E+10	1	-1E+10	1	-1E+10	1	-1E+10	1	-1E+10	1	-1E+10	1
4902643	23	C	02/06/2025	09:51	-133.837	43.187	0	3269.70	0	1.5660	0	34.6580	4	27.749	0	3218.773	0	101.0	4	30.1	4	-1E+10	1	-1E+10	1	-1E+10	1	-1E+10	1	-1E+10	1	-1E+10	1
4902643	23	C	02/06/2025	09:51	-133.837	43.187	0	3290.10	0	1.5640	0	34.6590	4	27.750	0	3238.704	0	101.4	4	30.3	4	-1E+10	1	-1E+10	1	-1E+10	1	-1E+10	1	-1E+10	1	-1E+10	1
4902643	23	C	02/06/2025	09:51	-133.837	43.187	0	3310.00	0	1.5620	0	34.6590	4	27.750	0	3258.144	0	101.9	4	30.4	4	-1E+10	1	-1E+10	1	-1E+10	1	-1E+10	1	-1E+10	1	-1E+10	1
4902643	23	C	02/06/2025	09:51	-133.837	43.187	0	3330.00	0	1.5600	0	34.6590	4	27.750	0	3277.680	0	102.3	4	30.5	4	-1E+10	1	-1E+10	1	-1E+10	1	-1E+10	1	-1E+10	1	-1E+10	1
4902643	23	C	02/06/2025	09:51	-133.837	43.187	0	3349.90	0	1.5590	0	34.6600	4	27.751	0	3297.117	0	102.7	4	30.6	4	-1E+10	1	-1E+10	1	-1E+10	1	-1E+10	1	-1E+10	1	-1E+10	1
4902643	23	C	02/06/2025	09:51	-133.837	43.187	0	3370.10	0	1.5570	0	34.6600	4	27.751	0	3316.846	0	103.1	4	30.8	4	-1E+10	1	-1E+10	1	-1E+10	1	-1E+10	1	-1E+10	1	-1E+10	1
4902643	23	C	02/06/2025	09:51	-133.837	43.187	0	3390.30	0	1.5540	0	34.6610	4	27.753	0	3336.572	0	103.7	4	30.9	4	-1E+10	1	-1E+10	1	-1E+10	1	-1E+10	1	-1E+10	1	-1E+10	1
4902643	23	C	02/06/2025	09:51	-133.837	43.187	0	3410.00	0	1.5530	0	34.6620	4	27.754	0	3355.809	0	104.1	4	31.1	4	-1E+10	1	-1E+10	1	-1E+10	1	-1E+10	1	-1E+10	1	-1E+10	1
4902643	23	C	02/06/2025	09:51	-133.837	43.187	0	3429.90	0	1.5530	0	34.6620	4	27.754	0	3375.238	0	104.3	4	31.1	4	-1E+10	1	-1E+10	1	-1E+10	1	-1E+10	1	-1E+10	1	-1E+10	1
4902643	23	C	02/06/2025	09:51	-133.837	43.187	0	3449.60	0	1.5520	0	34.6620	4	27.754	0	3394.472	0	104.7	4	31.2	4	-1E+10	1	-1E+10	1	-1E+10	1	-1E+10	1	-1E+10	1	-1E+10	1
4902643	23	C	02/06/2025	09:51	-133.837	43.187	0	3469.80	0	1.5500	0	34.6630	4	27.755	0	3414.191	0	105.2	4	31.4	4	-1E+10	1	-1E+10	1	-1E+10	1	-1E+10	1	-1E+10	1	-1E+10	1
4902643	23	C	02/06/2025	09:51	-133.837	43.187	0	3490.20	0	1.5490	0	34.6630	4	27.755	0	3434.104	0	105.5	4	31.5	4	-1E+10	1	-1E+10	1	-1E+10	1	-1E+10	1	-1E+10	1	-1E+10	1
4902643	23	C	02/06/2025	09:51	-133.837	43.187	0	3510.40	0	1.5490	0	34.6640	4	27.756	0	3453.820	0	105.7	4	31.5	4	-1E+10	1	-1E+10	1	-1E+10	1	-1E+10	1	-1E+10	1	-1E+10	1
4902643	23	C	02/06/2025	09:51	-133.837	43.187	0	3530.80	0	1.5490	0	34.6640	4	27.756	0	3473.729	0	106.1	4	31.6	4	-1E+10	1	-1E+10	1	-1E+10	1	-1E+10	1	-1E+10	1	-1E+10	1
4902643	23	C	02/06/2025	09:51	-133.837	43.187	0	3549.90	0	1.5480	0	34.6650	4	27.757	0	3492.368	0	106.4	4	31.7	4	-1E+10	1	-1E+10	1	-1E+10	1	-1E+10	1	-1E+10	1	-1E+10	1
4902643	23	C	02/06/2025	09:51	-133.837	43.187	0	3569.50	0	1.5480	0	34.6650	4	27.758	0	3511.493	0	106.6	4	31.8	4	-1E+10	1	-1E+10	1	-1E+10	1	-1E+10	1	-1E+10	1	-1E+10	1
4902643	23	C	02/06/2025	09:51	-133.837	43.187	0	3589.90	0	1.5490	0	34.6650	4	27.758	0	3531.397	0	106.9	4	31.9	4	-1E+10	1	-1E+10	1	-1E+10	1	-1E+10	1	-1E+10	1	-1E+10	1
4902643	23	C	02/06/2025	09:51	-133.837	43.187	0	3610.30	0	1.5500	0	34.6660	4	27.758	0	3551.299	0	107.2	4	32.0	4	-1E+10	1	-1E+10	1	-1E+10	1	-1E+10	1	-1E+10	1	-1E+10	1
4902643	23	C	02/06/2025	09:51	-133.837	43.187	0	3630.20	0	1.5500	0	34.6660	4	27.759	0	3570.712	0	107.4	4	32.0	4	-1E+10	1	-1E+10	1	-1E+10	1	-1E+10	1	-1E+10	1	-1E+10	1
4902643	23	C	02/06/2025	09:51	-133.837	43.187	0	3650.30	0	1.5500	0	34.6670	4	27.760	0	3590.318	0	107.7	4	32.1	4	-1E+10	1	-1E+10	1	-1E+10	1	-1E+10	1	-1E+10	1	-1E+10	1
4902643	23	C	02/06/2025	09:51	-133.837	43.187	0	3669.90	0	1.5500	0	34.6670	4	27.760	0	3609.435	0	107.8	4	32.2	4	-1E+10	1	-1E+10	1	-1E+10	1	-1E+10	1	-1E+10	1	-1E+10	1
4902643	23	C	02/06/2025	09:51	-133.837	43.187	0	3690.20	0	1.5500	0	34.6670	4	27.760	0	3629.232	0	108.0	4	32.2	4	-1E+10	1	-1E+10	1	-1E+10	1	-1E+10	1	-1E+10	1	-1E+10	1
4902643	23	C	02/06/2025	09:51	-133.837	43.187	0	3710.10	0	1.5500	0	34.6670	4	27.760	0	3648.638	0	108.2	4	32.3	4	-1E+10	1	-1E+10	1	-1E+10	1	-1E+10	1	-1E+10	1	-1E+10	1
4902643	23	C	02/06/2025	09:51	-133.837	43.187	0	3730.00	0	1.5520	0	34.6680	4	27.761	0	3668.042	0	108.3	4	32.3	4	-1E+10	1	-1E+10	1	-1E+10	1	-1E+10	1	-1E+10	1	-1E+10	1
4902643	23	C	02/06/2025	09:51	-133.837	43.187	0	3750.20	0	1.5520	0	34.6680	4	27.761	0	3687.737	0	108.5	4	32.4	4	-1E+10	1	-1E+10	1	-1E+10	1	-1E+10	1	-1E+10	1	-1E+10	1
4902643	23	C	02/06/2025	09:51	-133.837	43.187	0	3769.70	0	1.5520	0	34.6680	4	27.761	0	3706.748	0	108.6	4	32.4	4	-1E+10	1	-1E+10	1	-1E+10	1	-1E+10	1	-1E+10	1	-1E+10	1
4902643	23	C	02/06/2025	09:51	-133.837	43.187	0	3789.90	0	1.5530	0	34.6690	4	27.762	0	3726.439	0	108.5	4	32.4	4	-1E+10	1	-1E+10	1	-1E+10	1	-1E+10	1	-1E+10	1	-1E+10	1
4902643	23	C	02/06/2025	09:51	-133.837	43.187	0	3802.30	0	1.5530	0	34.6690	4	27.762	0	3738.526	0	108.0	4	32.2	4	-1E+10	1	-1E+10	1	-1E+10	1	-1E+10	1	-1E+10	1	-1E+10	1
4902643	23	C	02/06/2025	09:51	-133.837	43.187	0																										
4902643	24	C	02/16/2025	09:48	-133.733	43.184	0	0.90	0	12.0493	0	32.8973	0	24.948	0	0.893	0	245.7	4	92.1	4	-1E+10	1	-1E+10	1	-1E+10	1	-1E+10	1	-1E+10	1	-1E+10	1
4902643	24	C	02/16/2025	09:48	-133.733	43.184	0	1.00	0	12.0480	0	32.8980	0	24.948	0	0.992	0	245.6	4	92.0	4	-1E+10	1	-1E+10	1	-1E+10	1	-1E+10	1	-1E+10	1	-1E+10	1
4902643	24	C	02/16/2025	09:48	-133.733	43.184	0	1.10	0	12.0493	0	32.8975	0	24.948	0	1.091	0	245.5	4	92.0	4	-1E+10	1	-1E+10	1	-1E+10	1	-1E+10	1	-1E+10	1	-1E+10	1
4902643	24	C	02/16/2025	09:48	-133.733	43.184	0	1.60	0	12.0560	0	32.8950	0	24.945	0	1.587	0	245.2	4	91.9	4	-1E+10	1	-1E+10	1	-1E+10	1	-1E+10	1	-1E+10	1	-1E+10	1
4902643	24	C	02/16/2025	09:48	-133.733	43.184	0	2.80	0	12.0560	0	32.8960	0	24.945	0	2.778	0	245.2	4	91.9	4	-1E+10	1	-1E+10	1	-1E+10	1	-1E+10	1	-1E+10	1	-1E+10	1
4902643	24	C	02/16/2025	09:48	-133.733	43.184	0	3.50	0	12.0560	0	32.8970	0	24.946	0	3.472	0	245.2	4	91.9	4	-1E+10	1	-1E+10	1	-1E+10	1	-1E+10	1	-1E+10	1	-1E+10	1
4902643	24	C	02/16/2025	09:48	-133.733	43.184	0	4.50	0	12.0570	0	32.8960	0	24.945	0	4.464	0	245.2	4	91.9	4	-1E+10	1	-1E+10	1	-1E+10	1	-1E+10	1	-1E+10	1	-1E+10	1
4902643	24	C	02/16/2025	09:48	-133.733	43.184	0	6.10	0	12.0560	0	32.8970	0	24.946	0	6.051	0	245.1	4	91.8	4	-1E+10	1	-1E+10	1	-1E+10	1	-1E+10	1	-1E+10	1	-1E+10	1
4902643	24	C	02/16/2025	09:48	-133.733	43.184	0	7.10	0	12.0560	0	32.8970	0	24.946	0	7.043	0	245.2	4	91.9	4	-1E+10	1	-1E+10	1	-1E+10	1	-1E+10	1	-1E+10	1	-1E+10	1
4902643	24	C	02/16/2025	09:48	-133.733	43.184	0	8.20	0	12.0550	0	32.8970	0	24.947	0	8.135	0	245.1	4	91.8	4	-1E+10	1	-1E+10	1	-1E+10	1	-1E+10	1	-1E+10	1	-1E+10	1
4902643	24	C	02/16/2025	09:48	-133.733	43.184	0	9.30	0	12.0560	0	32.8970	0	24.946	0	9.226	0	245.2	4	91.9	4	-1E+10	1	-1E+10	1	-1E+10	1	-1E+10	1	-1E+10	1	-1E+10	1
4902643	24	C	02/16/2025	09:48	-133.733	43.184	0	15.60	0	12.0560	0	32.8960	0	24.946	0	15.475	0	245.0	4	91.8	4	-1E+10	1	-1E+10	1	-1E+10	1	-1E+10	1	-1E+10	1	-1E+10	1
4902643	24	C	02/16/2025	09:48	-133.733	43.184	0	24.80	0	12.0650	0	32.8980	0	24.946	0	24.601	0	244.9	4	91.8	4	-1E+10	1	-1E+10	1	-1E+10	1	-1E+10	1	-1E+10	1	-1E+10	1
4902643	24	C	02/16/2025	09:48	-133.733	43.184	0	34.60	0	12.0670	0	32.8990	0	24.946	0	34.322	0	244.7	4	91.7	4	-1E+10	1	-1E+10	1	-1E+10	1	-1E+10	1	-1E+10	1	-1E+10	1
4902643	24	C	02/16/2025	09:48	-133.733	43.184	0	44.70	0	12.0680	0	32.8980	0	24.946	0	44.340	0	244.4	4	91.6	4	-1E+10	1	-1E+10	1	-1E+10	1	-1E+10	1	-1E+10	1	-1E+10	1
4902643	24	C	02/16/2025	09:48	-133.733	43.184	0	55.00	0	12.0670	0	32.8990	0	24.947	0	54.555	0	243.9	4	91.4	4	-1E+10	1	-1E+10	1	-1E+10	1	-1E+10	1	-1E+10	1	-1E+10	1
4902643	24	C	02/16/2025	09:48	-133.733	43.184	0	65.10	0	12.0250	0	32.8990	0	24.955	0	64.572	0	243.0	4	91.0	4	-1E+10	1	-1E+10	1	-1E+10	1	-1E+10	1	-1E+10	1	-1E+10	1
4902643	24	C	02/16/2025	09:48	-133.733	43.184	0	75.10	0	11.8820	0	32.8960	0	24.980	0	74.489	0	241.9	4	90.3	4	-1E+10	1	-1E+10	1	-1E+10	1	-1E+10	1	-1E+10	1	-1E+10	1
4902643	24	C	02/16/2025	09:48	-133.733	43.184	0	84.90	0	11.8440	0	32.9090	0	24.997	0	84.208	0	238.2	4	88.9	4	-1E+10	1	-1E+10	1	-1E+10	1	-1E+10	1	-1E+10	1	-1E+10	1
4902643	24	C	02/16/2025	09:48	-133.733	43.184	0	94.80	0	11.6080	0	32.9270	0	25.055	0	94.025	0	233.5	4	86.7	4	-1E+10	1	-1E+10	1	-1E+10	1	-1E+10	1	-1E+10	1	-1E+10	1
4902643	24	C	02/16/2025	09:48	-133.733	43.184	0	104.40	0	10.7670	0	32.9160	0	25.197	0	103.544	0	228.6	4	83.4	4	-1E+10	1	-1E+10	1	-1E+10	1	-1E+10	1	-1E+10	1	-1E+10	1
4902643	24	C	02/16/2025	09:48	-133.733	43.184	0	114.80	0	10.1140	0	32.9900	0	25.366	0	113.856	0	225.3	4	81.1	4	-1E+10	1	-1E+10	1	-1E+10	1	-1E+10	1	-1E+10	1	-1E+10	1
4902643	24	C	02/16/2025	09:48	-133.733	43.184	0	124.90	0	9.7180	0	33.0660	0	25.491	0	123.869	0	221.1	4	78.9	4	-1E+10	1	-1E+10	1	-1E+10	1	-1E+10	1	-1E+10	1	-1E+10	1
4902643	24	C	02/16/2025	09:48	-133.733	43.184	0	134.60	0	9.5130	0	33.1460	0	25.587	0	133.486	0	212.5	4	75.6	4	-1E+10	1	-1E+10	1	-1E+10	1	-1E+10	1	-1E+10	1	-1E+10	1
4902643	24	C	02/16/2025	09:48	-133.733	43.184	0	144.60	0	9.2720	0	33.2540	0	25.711	0	143.400	0	203.0	4	71.8	4	-1E+10	1	-1E+10	1	-1E+10	1	-1E+10	1	-1E+10	1	-1E+10	1
4902643	24	C	02/16/2025	09:48	-133.733	43.184	0	154.70	0	9.0010	0	33.3630	0	25.839	0	153.412	0	193.6	4	68.2	4	-1E+10	1	-1E+10	1	-1E+10	1	-1E+10	1	-1E+10	1	-1E+10	1
4902643	24	C	02/16/2025	09:48	-133.733	43.184	0	164.30	0	8.6920	0	33.4740	0	25.974	0	162.929	0	188.9	4	66.1	4	-1E+10	1	-1E+10	1	-1E+10	1	-1E+10	1	-1E+10	1	-1E+10	1
4902643	24	C	02/16/2025	09:48	-133.733	43.184	0	174.80	0	8.4440	0	33.6020	0	26.113	0	173.337	0	189.1	4	65.9	4	-1E+10	1	-1E+10	1	-1E+10	1	-1E+10	1	-1E+10	1	-1E+10	1
4902643	24	C	02/16/2025	09:48	-133.733	43.184	0	184.50	0	8.2120	0	33.6730	0	26.203	0	182.951	0	187.9	4	65.2	4	-1E+10	1	-1E+10	1	-1E+10	1	-1E+10	1	-1E+10	1	-1E+10	1
4902643	24	C	02/16/2025	09:48	-133.733	43.184	0	194.70	0	7.9140	0	33.7270	0	26.290	0	193.061	0	185.1	4	63.8	4	-1E+10	1	-1E+10	1	-1E+10	1	-1E+10	1	-1E+10	1	-1E+10	1
4902643	24	C	02/16/2025	09:48	-133.733	43.184	0	209.10	0	7.7960	0	33.7810	0	26.350	0	207.332	0	181.1	4	62.3	4	-1E+10	1	-1E+10	1	-1E+10	1	-1E+10	1	-1E+10	1	-1E+10	1
4902643	24	C	02/16/2025	09:48	-133.733	43.184	0	229.90	0	7.4890	0	33.8160	0	26.421	0	227.945	0	171.8	4	58.7	4	-1E+10	1	-1E+10	1	-1E+10	1	-1E+10	1	-1E+10	1	-1E+10	1
4902643	24	C	02/16/2025	09:48	-133.733	43.184	0	249.70	0	7.1450	0	33.8230	0	26.475	0	247.565	0	161.7	4	54.8	4	-1E+10	1	-1E+10	1	-1E+10	1	-1E+10	1	-1E+10	1	-1E+10	1
4902643	24	C	02/16/2025	09:48	-133.733	43.184	0	270.10	0	6.7730	0	33.8310	0	26.532	0	267.777	0	147.8	4	49.7	4	-1E+10	1	-1E+10	1	-1E+10	1	-1E+10	1	-1E+10	1	-1E+10	1
4902643	24	C	02/16/2025	09:48	-133.733	43.184	0	290.10	0	6.5440	0	33.8400	0	26.570	0	287.591	0	136.2	4	45.5	4	-1E+10	1	-1E+10	1	-1E+10	1	-1E+10	1	-1E+10	1	-1E+10	1
4902643	24	C	02/16/2025	09:48	-133.733	43.184	0	310.00	0	6.3830	0	33.8570	0	26.604	0	307.305	0	121.7	4	40.6	4	-1E+10	1	-1E+10	1	-1E+10	1	-1E+10	1	-1E+10	1	-1E+10	1
4902643	24	C	02/16/2025	09:48	-133.733	43.184	0	330.00	0	6.1870	0	33.8880	0	26.654	0	327.115	0	94.9	4	31.5	4	-1E+10	1	-1E+10	1	-1E+10	1	-1E+10	1	-1E+10	1	-1E+10	1
4902643	24	C	02/16/2025	09:48	-133.733	43.184	0	349.70	0	6.0970	0	33.9370	0	26.704	0	346.626	0	78.0	4	25.8	4	-1E+10	1	-1E+10	1	-1E+10	1	-1E+10	1	-1E+10	1	-1E+10	1
4902643	24	C	02/16/2025	09:48	-133.733	43.184	0	369.40	0	5.9160	0	33.9530	0	26.740	0	366.136	0	69.9	4	23.1	4	-1E+10	1	-1E+10	1	-1E+10	1	-1E+10	1	-1E+10	1	-1E+10	1
4902643	24	C	02/16/2025	09:48	-133.733	43.184	0	389.40	0	5.6680	0	33.9630	0	26.778	0	385.940	0	67.4	4	22.1	4	-1E+10	1	-1E+10	1	-1E+10	1	-1E+10	1	-1E+10	1	-1E+10	1
4902643	24	C	02/16/2025	09:48	-133.733	43.184	0	410.20	0	5.2880	0	33.9480	0	26.812	0	406.535	0	68.6	4	22.3	4	-1E+10	1	-1E+10	1	-1E+10	1	-1E+10	1	-1E+10	1	-1E+10	1
4902643	24	C	02/16/2025	09:48	-133.733	43.184	0	429.80	0	4.9020	0	33.9230	0	26.836	0	425.940	0	67.0	4	21.6	4	-1E+10	1	-1E+10	1	-1E+10	1	-1E+10	1	-1E+10	1	-1E+10	1
4902643	24	C	02/16/2025	09:48	-133.733	43.184	0	449.90	0	4.6770	0	33.9280	0	26.865	0	445.838	0	63.4	4	20.3	4	-1E+10	1	-1E+10	1	-1E+10	1	-1E+10	1	-1E+10	1	-1E+10	1
4902643	24	C	02/16/2025	09:48	-133.733	43.184	0	469.80	0	4.6040	0	33.9440	0	26.886	0	465.536	0	60.0	4	19.2	4	-1E+10	1	-1E+10	1	-1E+10	1	-1E+10	1	-1E+10	1	-1E+10	1
4902643	24	C	02/16/2025	09:48	-133.733	43.184	0	489.80	0	4.5500	0	33.9620	0	26.907	0	485.331	0	55.5	4	17.7	4	-1E+10	1	-1E+10	1	-1E+10	1	-1E+10	1	-1E+10	1	-1E+10	1
4902643	24	C	02/16/2025	09:48	-133.733	43.184	0	509.40	0	4.4830	0	33.9850	0	26.932	0	504.728	0	50.1	4	16.0	4	-1E+10	1	-1E+10	1	-1E+10	1	-1E+10	1	-1E+10	1	-1E+10	1
4902643	24	C	02/16/2025	09:48	-133.733	43.184	0	529.60	0	4.4180	0	34.0120	0	26.961	0	524.718	0	44.4	4	14.2	4	-1E+10	1	-1E+10	1	-1E+10	1	-1E+10	1	-1E+10	1	-1E+10	1
4902643	24	C	02/16/2025	09:48	-133.733	43.184	0	549.70	0	4.3560	0	34.0340	0	26.985	0	544.606	0	39.4	4	12.5	4	-1E+10	1	-1E+10	1	-1E+10	1	-1E+10	1	-1E+10	1	-1E+10	1
4902643	24	C	02/16/2025	09:48	-133.733	43.184	0	569.80	0	4.3000	0	34.0550	0	27.008	0	564.492	0	34.4	4	10.9	4	-1E+10	1	-1E+10	1	-1E+10	1	-1E+10	1	-1E+10	1	-1E+10	1
4902643	24	C	02/16/2025	09:48	-133.733	43.184	0	589.80	0	4.2530	0	34.0720	0	27.026	0	584.278	0	30.6	4	9.7	4	-1E+10	1	-1E+10	1	-1E+10	1	-1E+10	1	-1E+10	1	-1E+10	1
4902643	24	C	02/16/2025	09:48	-133.733	43.184	0	609.80	0	4.2050	0	34.0890	0	27.045	0	604.062	0	26.6	4	8.4	4	-1E+10	1	-1E+10	1	-1E+10	1	-1E+10	1	-1E+10	1	-1E+10	1
4902643	24	C	02/16/2025	09:48	-133.733	43.184	0	629.90	0	4.1500	0	34.1100	0	27.068	0	623.943	0	23.0	4	7.3	4	-1E+10	1	-1E+10	1	-1E+10	1	-1E+10	1	-1E+10	1	-1E+10	1
4902643	24	C	02/16/2025	09:48	-133.733	43.184	0	649.50	0	4.0880	0	34.1300	0	27.090	0	643.327	0	20.2	4	6.4	4	-1E+10	1	-1E+10	1	-1E+10	1	-1E+10	1	-1E+10	1	-1E+10	1
4902643	24	C	02/16/2025	09:48	-133.733	43.184	0	670.20	0	4.0230	0	34.1480	0	27.111	0	663.797	0	18.4	4	5.8	4	-1E+10	1	-1E+10	1	-1E+10	1	-1E+10	1	-1E+10	1	-1E+10	1
4902643	24	C	02/16/2025	09:48	-133.733	43.184	0	689.80	0	3.9770	0	34.1610	0	27.126	0	683.178	0	16.6	4	5.3	4	-1E+10	1	-1E+10	1	-1E+10	1	-1E+10	1	-1E+10	1	-1E+10	1
4902643	24	C	02/16/2025	09:48	-133.733	43.184	0	709.20	0	3.9500	0	34.1770	0	27.142	0	702.359	0	15.2	4	4.8	4	-1E+10	1	-1E+10	1	-1E+10	1	-1E+10	1	-1E+10	1	-1E+10	1
4902643	24	C	02/16/2025	09:48	-133.733	43.184	0	729.90	0	3.8860	0	34.1850	0	27.155	0	722.823	0	14.3	4	4.5	4	-1E+10	1	-1E+10	1	-1E+10	1	-1E+10	1	-1E+10	1	-1E+10	1
4902643	24	C	02/16/2025	09:48	-133.733	43.184	0	750.00	0	3.8720	0	34.2000	0	27.168	0	742.693	0	12.8	4	4.0	4	-1E+10	1	-1E+10	1	-1E+10	1	-1E+10	1	-1E+10	1	-1E+10	1
4902643	24	C	02/16/2025	09:48	-133.733	43.184	0	769.90	0	3.8310	0	34.2160	0	27.185	0	762.363	0	11.2	4	3.5	4	-1E+10	1	-1E+10	1	-1E+10	1	-1E+10	1	-1E+10	1	-1E+10	1
4902643	24	C	02/16/2025	09:48	-133.733	43.184	0	789.90	0	3.8190	0	34.2340	0	27.201	0	782.129	0	9.9	4	3.1	4	-1E+10	1	-1E+10	1	-1E+10	1	-1E+10	1	-1E+10	1	-1E+10	1
4902643	24	C	02/16/2025	09:48	-133.733	43.184	0	809.90	0	3.7920	0	34.2500	0	27.217	0	801.894	0	9.2	4	2.9	4	-1E+10	1	-1E+10	1	-1E+10	1	-1E+10	1	-1E+10	1	-1E+10	1
4902643	24	C	02/16/2025	09:48	-133.733	43.184	0	829.90	0	3.7130	0	34.2560	0	27.229	0	821.657	0	9.3	4	2.9	4	-1E+10	1	-1E+10	1	-1E+10	1	-1E+10	1	-1E+10	1	-1E+10	1
4902643	24	C	02/16/2025	09:48	-133.733	43.184	0	849.90	0	3.6280	0	34.2630	0	27.243	0	841.418	0	8.8	4	2.8	4	-1E+10	1	-1E+10	1	-1E+10	1	-1E+10	1	-1E+10	1	-1E+10	1
4902643	24	C	02/16/2025	09:48	-133.733	43.184	0	869.80	0	3.6040	0	34.2770	0	27.257	0	861.079	0	8.1	4	2.5	4	-1E+10	1	-1E+10	1	-1E+10	1	-1E+10	1	-1E+10	1	-1E+10	1
4902643	24	C	02/16/2025	09:48	-133.733	43.184	0	890.00	0	3.5710	0	34.2920	0	27.272	0	881.034	0	7.5	4	2.3	4	-1E+10	1	-1E+10	1	-1E+10	1	-1E+10	1	-1E+10	1	-1E+10	1
4902643	24	C	02/16/2025	09:48	-133.733	43.184	0	910.00	0	3.5510	0	34.3070	0	27.286	0	900.789	0	7.1	4	2.2	4	-1E+10	1	-1E+10	1	-1E+10	1	-1E+10	1	-1E+10	1	-1E+10	1
4902643	24	C	02/16/2025	09:48	-133.733	43.184	0	929.90	0	3.5220	0	34.3210	0	27.300	0	920.444	0	6.9	4	2.1	4	-1E+10	1	-1E+10	1	-1E+10	1	-1E+10	1	-1E+10	1	-1E+10	1
4902643	24	C	02/16/2025	09:48	-133.733	43.184	0	949.80	0	3.5060	0	34.3340	0	27.312	0	940.097	0	6.8	4	2.1	4	-1E+10	1	-1E+10	1	-1E+10	1	-1E+10	1	-1E+10	1	-1E+10	1
4902643	24	C	02/16/2025	09:48	-133.733	43.184	0	969.60	0	3.5120	0	34.3490	0	27.324	0	959.649	0	6.7	4	2.1	4	-1E+10	1	-1E+10	1	-1E+10	1	-1E+10	1	-1E+10	1	-1E+10	1
4902643	24	C	02/16/2025	09:48	-133.733	43.184	0	989.60	0	3.4870	0	34.3600	0	27.335	0	979.397	0	6.8	4	2.1	4	-1E+10	1	-1E+10	1	-1E+10	1	-1E+10	1	-1E+10	1	-1E+10	1
4902643	24	C	02/16/2025	09:48	-133.733	43.184	0	1009.90	0	3.4600	0	34.3690	0	27.345	0	999.440	0	7.0	4	2.2	4	-1E+10	1	-1E+10	1	-1E+10	1	-1E+10	1	-1E+10	1	-1E+10	1
4902643	24	C	02/16/2025	09:48	-133.733	43.184	0	1029.70	0	3.4270	0	34.3780	0	27.356	0	1018.986	0	7.2	4	2.2	4	-1E+10	1	-1E+10	1	-1E+10	1	-1E+10	1	-1E+10	1	-1E+10	1
4902643	24	C	02/16/2025	09:48	-133.733	43.184	0	1049.50	0	3.3920	0	34.3870	0	27.366	0	1038.531	0	7.4	4	2.3	4	-1E+10	1	-1E+10	1	-1E+10	1	-1E+10	1	-1E+10	1	-1E+10	1
4902643	24	C	02/16/2025	09:48	-133.733	43.184	0	1069.80	0	3.3500	0	34.3940	0	27.376	0	1058.568	0	7.7	4	2.4	4	-1E+10	1	-1E+10	1	-1E+10	1	-1E+10	1	-1E+10	1	-1E+10	1
4902643	24	C	02/16/2025	09:48	-133.733	43.184	0	1089.60	0	3.3110	0	34.4020	0	27.386	0	1078.109	0	8.1	4	2.5	4	-1E+10	1	-1E+10	1	-1E+10	1	-1E+10	1	-1E+10	1	-1E+10	1
4902643	24	C	02/16/2025	09:48	-133.733	43.184	0	1110.20	0	3.2660	0	34.4130	0	27.399	0	1098.438	0	8.8	4	2.7	4	-1E+10	1	-1E+10	1	-1E+10	1	-1E+10	1	-1E+10	1	-1E+10	1
4902643	24	C	02/16/2025	09:48	-133.733	43.184	0	1129.80	0	3.2160	0	34.4250	0	27.414	0	1117.779	0	9.4	4	2.9	4	-1E+10	1	-1E+10	1	-1E+10	1	-1E+10	1	-1E+10	1	-1E+10	1
4902643	24	C	02/16/2025	09:48	-133.733	43.184	0	1150.20	0	3.1800	0	34.4320	0	27.423	0	1137.906	0	10.0	4	3.1	4	-1E+10	1	-1E+10	1	-1E+10	1	-1E+10	1	-1E+10	1	-1E+10	1
4902643	24	C	02/16/2025	09:48	-133.733	43.184	0	1169.70	0	3.1340	0	34.4380	0	27.432	0	1157.144	0	10.4	4	3.2	4	-1E+10	1	-1E+10	1	-1E+10	1	-1E+10	1	-1E+10	1	-1E+10	1
4902643	24	C	02/16/2025	09:48	-133.733	43.184	0	1189.80	0	3.0940	0	34.4440	0	27.440	0	1176.972	0	10.9	4	3.4	4	-1E+10	1	-1E+10	1	-1E+10	1	-1E+10	1	-1E+10	1	-1E+10	1
4902643	24	C	02/16/2025	09:48	-133.733	43.184	0	1210.40	0	3.0450	0	34.4500	0	27.450	0	1197.291	0	11.6	4	3.6	4	-1E+10	1	-1E+10	1	-1E+10	1	-1E+10	1	-1E+10	1	-1E+10	1
4902643	24	C	02/16/2025	09:48	-133.733	43.184	0	1230.00	0	3.0130	0	34.4560	0	27.457	0	1216.622	0	12.4	4	3.8	4	-1E+10	1	-1E+10	1	-1E+10	1	-1E+10	1	-1E+10	1	-1E+10	1
4902643	24	C	02/16/2025	09:48	-133.733	43.184	0	1250.00	0	2.9780	0	34.4630	0	27.466	0	1236.346	0	13.1	4	4.0	4	-1E+10	1	-1E+10	1	-1E+10	1	-1E+10	1	-1E+10	1	-1E+10	1
4902643	24	C	02/16/2025	09:48	-133.733	43.184	0	1269.90	0	2.9470	0	34.4660	0	27.472	0	1255.970	0	13.7	4	4.2	4	-1E+10	1	-1E+10	1	-1E+10	1	-1E+10	1	-1E+10	1	-1E+10	1
4902643	24	C	02/16/2025	09:48	-133.733	43.184	0	1289.80	0	2.9140	0	34.4710	0	27.479	0	1275.591	0	14.2	4	4.4	4	-1E+10	1	-1E+10	1	-1E+10	1	-1E+10	1	-1E+10	1	-1E+10	1
4902643	24	C	02/16/2025	09:48	-133.733	43.184	0	1310.00	0	2.8850	0	34.4740	0	27.484	0	1295.506	0	15.0	4	4.6	4	-1E+10	1	-1E+10	1	-1E+10	1	-1E+10	1	-1E+10	1	-1E+10	1
4902643	24	C	02/16/2025	09:48	-133.733	43.184	0	1330.00	0	2.8590	0	34.4790	0	27.490	0	1315.223	0	15.9	4	4.9	4	-1E+10	1	-1E+10	1	-1E+10	1	-1E+10	1	-1E+10	1	-1E+10	1
4902643	24	C	02/16/2025	09:48	-133.733	43.184	0	1350.00	0	2.8230	0	34.4840	0	27.497	0	1334.937	0	17.0	4	5.2	4	-1E+10	1	-1E+10	1	-1E+10	1	-1E+10	1	-1E+10	1	-1E+10	1
4902643	24	C	02/16/2025	09:48	-133.733	43.184	0	1369.90	0	2.7790	0	34.4900	0	27.506	0	1354.551	0	18.1	4	5.6	4	-1E+10	1	-1E+10	1	-1E+10	1	-1E+10	1	-1E+10	1	-1E+10	1
4902643	24	C	02/16/2025	09:48	-133.733	43.184	0	1389.70	0	2.7390	0	34.4950	0	27.514	0	1374.065	0	19.3	4	5.9	4	-1E+10	1	-1E+10	1	-1E+10	1	-1E+10	1	-1E+10	1	-1E+10	1
4902643	24	C	02/16/2025	09:48	-133.733	43.184	0	1409.60	0	2.7030	0	34.5000	0	27.521	0	1393.675	0	20.1	4	6.2	4	-1E+10	1	-1E+10	1	-1E+10	1	-1E+10	1	-1E+10	1	-1E+10	1
4902643	24	C	02/16/2025	09:48	-133.733	43.184	0	1429.90	0	2.6630	0	34.5040	0	27.528	0	1413.678	0	21.3	4	6.5	4	-1E+10	1	-1E+10	1	-1E+10	1	-1E+10	1	-1E+10	1	-1E+10	1
4902643	24	C	02/16/2025	09:48	-133.733	43.184	0	1449.20	0	2.6190	0	34.5090	0	27.536	0	1432.694	0	22.6	4	6.9	4	-1E+10	1	-1E+10	1	-1E+10	1	-1E+10	1	-1E+10	1	-1E+10	1
4902643	24	C	02/16/2025	09:48	-133.733	43.184	0	1469.80	0	2.5860	0	34.5130	0	27.542	0	1452.988	0	23.8	4	7.3	4	-1E+10	1	-1E+10	1	-1E+10	1	-1E+10	1	-1E+10	1	-1E+10	1
4902643	24	C	02/16/2025	09:48	-133.733	43.184	0	1490.00	0	2.5540	0	34.5180	0	27.549	0	1472.887	0	25.2	4	7.7	4	-1E+10	1	-1E+10	1	-1E+10	1	-1E+10	1	-1E+10	1	-1E+10	1
4902643	24	C	02/16/2025	09:48	-133.733	43.184	0	1510.10	0	2.5200	0	34.5220	0	27.555	0	1492.685	0	26.4	4	8.1	4	-1E+10	1	-1E+10	1	-1E+10	1	-1E+10	1	-1E+10	1	-1E+10	1
4902643	24	C	02/16/2025	09:48	-133.733	43.184	0	1529.80	0	2.4850	0	34.5260	0	27.561	0	1512.087	0	27.5	4	8.4	4	-1E+10	1	-1E+10	1	-1E+10	1	-1E+10	1	-1E+10	1	-1E+10	1
4902643	24	C	02/16/2025	09:48	-133.733	43.184	0	1549.40	0	2.4530	0	34.5290	0	27.566	0	1531.390	0	28.5	4	8.7	4	-1E+10	1	-1E+10	1	-1E+10	1	-1E+10	1	-1E+10	1	-1E+10	1
4902643	24	C	02/16/2025	09:48	-133.733	43.184	0	1569.80	0	2.4200	0	34.5330	0	27.572	0	1551.478	0	29.9	4	9.1	4	-1E+10	1	-1E+10	1	-1E+10	1	-1E+10	1	-1E+10	1	-1E+10	1
4902643	24	C	02/16/2025	09:48	-133.733	43.184	0	1589.80	0	2.3850	0	34.5380	0	27.579	0	1571.170	0	31.7	4	9.6	4	-1E+10	1	-1E+10	1	-1E+10	1	-1E+10	1	-1E+10	1	-1E+10	1
4902643	24	C	02/16/2025	09:48	-133.733	43.184	0	1609.70	0	2.3490	0	34.5430	0	27.586	0	1590.762	0	33.2	4	10.1	4	-1E+10	1	-1E+10	1	-1E+10	1	-1E+10	1	-1E+10	1	-1E+10	1
4902643	24	C	02/16/2025	09:48	-133.733	43.184	0	1629.70	0	2.3190	0	34.5460	0	27.591	0	1610.451	0	34.3	4	10.4	4	-1E+10	1	-1E+10	1	-1E+10	1	-1E+10	1	-1E+10	1	-1E+10	1
4902643	24	C	02/16/2025	09:48	-133.733	43.184	0	1649.90	0	2.2840	0	34.5500	0	27.597	0	1630.334	0	35.7	4	10.8	4	-1E+10	1	-1E+10	1	-1E+10	1	-1E+10	1	-1E+10	1	-1E+10	1
4902643	24	C	02/16/2025	09:48	-133.733	43.184	0	1669.80	0	2.2570	0	34.5530	0	27.602	0	1649.921	0	36.8	4	11.2	4	-1E+10	1	-1E+10	1	-1E+10	1	-1E+10	1	-1E+10	1	-1E+10	1
4902643	24	C	02/16/2025	09:48	-133.733	43.184	0	1689.50	0	2.2320	0	34.5560	0	27.607	0	1669.309	0	38.0	4	11.5	4	-1E+10	1	-1E+10	1	-1E+10	1	-1E+10	1	-1E+10	1	-1E+10	1
4902643	24	C	02/16/2025	09:48	-133.733	43.184	0	1709.40	0	2.2060	0	34.5590	0	27.611	0	1688.892	0	39.2	4	11.9	4	-1E+10	1	-1E+10	1	-1E+10	1	-1E+10	1	-1E+10	1	-1E+10	1
4902643	24	C	02/16/2025	09:48	-133.733	43.184	0	1730.00	0	2.1760	0	34.5620	0	27.616	0	1709.162	0	40.5	4	12.3	4	-1E+10	1	-1E+10	1	-1E+10	1	-1E+10	1	-1E+10	1	-1E+10	1
4902643	24	C	02/16/2025	09:48	-133.733	43.184	0	1749.10	0	2.1520	0	34.5650	0	27.620	0	1727.954	0	41.8	4	12.6	4	-1E+10	1	-1E+10	1	-1E+10	1	-1E+10	1	-1E+10	1	-1E+10	1
4902643	24	C	02/16/2025	09:48	-133.733	43.184	0	1769.80	0	2.1270	0	34.5690	0	27.626	0	1748.319	0	43.3	4	13.1	4	-1E+10	1	-1E+10	1	-1E+10	1	-1E+10	1	-1E+10	1	-1E+10	1
4902643	24	C	02/16/2025	09:48	-133.733	43.184	0	1789.70	0	2.1050	0	34.5720	0	27.630	0	1767.894	0	44.6	4	13.5	4	-1E+10	1	-1E+10	1	-1E+10	1	-1E+10	1	-1E+10	1	-1E+10	1
4902643	24	C	02/16/2025	09:48	-133.733	43.184	0	1809.90	0	2.0880	0	34.5750	0	27.634	0	1787.763	0	45.9	4	13.9	4	-1E+10	1	-1E+10	1	-1E+10	1	-1E+10	1	-1E+10	1	-1E+10	1
4902643	24	C	02/16/2025	09:48	-133.733	43.184	0	1829.80	0	2.0670	0	34.5780	0	27.638	0	1807.335	0	47.2	4	14.2	4	-1E+10	1	-1E+10	1	-1E+10	1	-1E+10	1	-1E+10	1	-1E+10	1
4902643	24	C	02/16/2025	09:48	-133.733	43.184	0	1850.40	0	2.0460	0	34.5810	0	27.642	0	1827.594	0	48.3	4	14.6	4	-1E+10	1	-1E+10	1	-1E+10	1	-1E+10	1	-1E+10	1	-1E+10	1
4902643	24	C	02/16/2025	09:48	-133.733	43.184	0	1869.70	0	2.0310	0	34.5830	0	27.645	0	1846.572	0	49.3	4	14.9	4	-1E+10	1	-1E+10	1	-1E+10	1	-1E+10	1	-1E+10	1	-1E+10	1
4902643	24	C	02/16/2025	09:48	-133.733	43.184	0	1889.30	0	2.0140	0	34.5850	0	27.648	0	1865.844	0	50.6	4	15.3	4	-1E+10	1	-1E+10	1	-1E+10	1	-1E+10	1	-1E+10	1	-1E+10	1
4902643	24	C	02/16/2025	09:48	-133.733	43.184	0	1909.50	0	1.9990	0	34.5890	0	27.653	0	1885.704	0	51.9	4	15.6	4	-1E+10	1	-1E+10	1	-1E+10	1	-1E+10	1	-1E+10	1	-1E+10	1
4902643	24	C	02/16/2025	09:48	-133.733	43.184	0	1929.40	0	1.9880	0	34.5910	0	27.655	0	1905.267	0	52.7	4	15.9	4	-1E+10	1	-1E+10	1	-1E+10	1	-1E+10	1	-1E+10	1	-1E+10	1
4902643	24	C	02/16/2025	09:48	-133.733	43.184	0	1949.30	0	1.9760	0	34.5920	0	27.657	0	1924.828	0	53.6	4	16.2	4	-1E+10	1	-1E+10	1	-1E+10	1	-1E+10	1	-1E+10	1	-1E+10	1
4902643	24	C	02/16/2025	09:48	-133.733	43.184	0	1970.20	0	1.9630	0	34.5950	0	27.661	0	1945.370	0	54.6	4	16.5	4	-1E+10	1	-1E+10	1	-1E+10	1	-1E+10	1	-1E+10	1	-1E+10	1
4902643	24	C	02/16/2025	09:48	-133.733	43.184	0	1989.70	0	1.9550	0	34.5960	0	27.662	0	1964.534	0	55.4	4	16.7	4	-1E+10	1	-1E+10	1	-1E+10	1	-1E+10	1	-1E+10	1	-1E+10	1
4902643	24	C	02/16/2025	09:48	-133.733	43.184	0	2009.90	0	1.9460	0	34.5980	4	27.664	0	1984.385	0	56.4	4	17.0	4	-1E+10	1	-1E+10	1	-1E+10	1	-1E+10	1	-1E+10	1	-1E+10	1
4902643	24	C	02/16/2025	09:48	-133.733	43.184	0	2029.70	0	1.9330	0	34.6000	4	27.667	0	2003.841	0	57.4	4	17.3	4	-1E+10	1	-1E+10	1	-1E+10	1	-1E+10	1	-1E+10	1	-1E+10	1
4902643	24	C	02/16/2025	09:48	-133.733	43.184	0	2049.90	0	1.9210	0	34.6020	4	27.670	0	2023.687	0	58.3	4	17.6	4	-1E+10	1	-1E+10	1	-1E+10	1	-1E+10	1	-1E+10	1	-1E+10	1
4902643	24	C	02/16/2025	09:48	-133.733	43.184	0	2069.80	0	1.9090	0	34.6040	4	27.672	0	2043.238	0	59.4	4	17.9	4	-1E+10	1	-1E+10	1	-1E+10	1	-1E+10	1	-1E+10	1	-1E+10	1
4902643	24	C	02/16/2025	09:48	-133.733	43.184	0	2089.70	0	1.8970	0	34.6060	4	27.675	0	2062.786	0	60.3	4	18.1	4	-1E+10	1	-1E+10	1	-1E+10	1	-1E+10	1	-1E+10	1	-1E+10	1
4902643	24	C	02/16/2025	09:48	-133.733	43.184	0	2109.70	0	1.8880	0	34.6070	4	27.677	0	2082.431	0	61.0	4	18.3	4	-1E+10	1	-1E+10	1	-1E+10	1	-1E+10	1	-1E+10	1	-1E+10	1
4902643	24	C	02/16/2025	09:48	-133.733	43.184	0	2129.50	0	1.8790	0	34.6080	4	27.678	0	2101.878	0	61.9	4	18.6	4	-1E+10	1	-1E+10	1	-1E+10	1	-1E+10	1	-1E+10	1	-1E+10	1
4902643	24	C	02/16/2025	09:48	-133.733	43.184	0	2149.50	0	1.8680	0	34.6100	4	27.681	0	2121.519	0	63.0	4	18.9	4	-1E+10	1	-1E+10	1	-1E+10	1	-1E+10	1	-1E+10	1	-1E+10	1
4902643	24	C	02/16/2025	09:48	-133.733	43.184	0	2169.80	0	1.8550	0	34.6120	4	27.684	0	2141.453	0	64.0	4	19.2	4	-1E+10	1	-1E+10	1	-1E+10	1	-1E+10	1	-1E+10	1	-1E+10	1
4902643	24	C	02/16/2025	09:48	-133.733	43.184	0	2189.70	0	1.8450	0	34.6140	4	27.686	0	2160.993	0	64.8	4	19.5	4	-1E+10	1	-1E+10	1	-1E+10	1	-1E+10	1	-1E+10	1	-1E+10	1
4902643	24	C	02/16/2025	09:48	-133.733	43.184	0	2209.60	0	1.8350	0	34.6150	4	27.688	0	2180.531	0	65.4	4	19.6	4	-1E+10	1	-1E+10	1	-1E+10	1	-1E+10	1	-1E+10	1	-1E+10	1
4902643	24	C	02/16/2025	09:48	-133.733	43.184	0	2230.50	0	1.8270	0	34.6160	4	27.689	0	2201.048	0	66.1	4	19.9	4	-1E+10	1	-1E+10	1	-1E+10	1	-1E+10	1	-1E+10	1	-1E+10	1
4902643	24	C	02/16/2025	09:48	-133.733	43.184	0	2249.60	0	1.8210	0	34.6170	4	27.691	0	2219.797	0	66.8	4	20.0	4	-1E+10	1	-1E+10	1	-1E+10	1	-1E+10	1	-1E+10	1	-1E+10	1
4902643	24	C	02/16/2025	09:48	-133.733	43.184	0	2269.70	0	1.8150	0	34.6180	4	27.692	0	2239.526	0	67.4	4	20.2	4	-1E+10	1	-1E+10	1	-1E+10	1	-1E+10	1	-1E+10	1	-1E+10	1
4902643	24	C	02/16/2025	09:48	-133.733	43.184	0	2289.60	0	1.8100	0	34.6190	4	27.693	0	2259.056	0	68.1	4	20.4	4	-1E+10	1	-1E+10	1	-1E+10	1	-1E+10	1	-1E+10	1	-1E+10	1
4902643	24	C	02/16/2025	09:48	-133.733	43.184	0	2309.80	0	1.8030	0	34.6200	4	27.695	0	2278.879	0	68.9	4	20.7	4	-1E+10	1	-1E+10	1	-1E+10	1	-1E+10	1	-1E+10	1	-1E+10	1
4902643	24	C	02/16/2025	09:48	-133.733	43.184	0	2329.40	0	1.7950	0	34.6220	4	27.697	0	2298.112	0	69.6	4	20.9	4	-1E+10	1	-1E+10	1	-1E+10	1	-1E+10	1	-1E+10	1	-1E+10	1
4902643	24	C	02/16/2025	09:48	-133.733	43.184	0	2349.40	0	1.7900	0	34.6220	4	27.697	0	2317.735	0	70.3	4	21.1	4	-1E+10	1	-1E+10	1	-1E+10	1	-1E+10	1	-1E+10	1	-1E+10	1
4902643	24	C	02/16/2025	09:48	-133.733	43.184	0	2369.40	0	1.7810	0	34.6240	4	27.700	0	2337.357	0	70.9	4	21.3	4	-1E+10	1	-1E+10	1	-1E+10	1	-1E+10	1	-1E+10	1	-1E+10	1
4902643	24	C	02/16/2025	09:48	-133.733	43.184	0	2389.70	0	1.7720	0	34.6240	4	27.701	0	2357.271	0	71.5	4	21.4	4	-1E+10	1	-1E+10	1	-1E+10	1	-1E+10	1	-1E+10	1	-1E+10	1
4902643	24	C	02/16/2025	09:48	-133.733	43.184	0	2409.70	0	1.7650	0	34.6250	4	27.702	0	2376.889	0	72.3	4	21.7	4	-1E+10	1	-1E+10	1	-1E+10	1	-1E+10	1	-1E+10	1	-1E+10	1
4902643	24	C	02/16/2025	09:48	-133.733	43.184	0	2428.90	0	1.7590	0	34.6260	4	27.703	0	2395.720	0	73.0	4	21.9	4	-1E+10	1	-1E+10	1	-1E+10	1	-1E+10	1	-1E+10	1	-1E+10	1
4902643	24	C	02/16/2025	09:48	-133.733	43.184	0	2449.80	0	1.7500	0	34.6270	4	27.705	0	2416.217	0	73.7	4	22.1	4	-1E+10	1	-1E+10	1	-1E+10	1	-1E+10	1	-1E+10	1	-1E+10	1
4902643	24	C	02/16/2025	09:48	-133.733	43.184	0	2469.50	0	1.7440	0	34.6280	4	27.706	0	2435.535	0	74.6	4	22.3	4	-1E+10	1	-1E+10	1	-1E+10	1	-1E+10	1	-1E+10	1	-1E+10	1
4902643	24	C	02/16/2025	09:48	-133.733	43.184	0	2489.40	0	1.7380	0	34.6290	4	27.708	0	2455.048	0	75.3	4	22.6	4	-1E+10	1	-1E+10	1	-1E+10	1	-1E+10	1	-1E+10	1	-1E+10	1
4902643	24	C	02/16/2025	09:48	-133.733	43.184	0	2509.70	0	1.7330	0	34.6310	4	27.710	0	2474.951	0	76.3	4	22.9	4	-1E+10	1	-1E+10	1	-1E+10	1	-1E+10	1	-1E+10	1	-1E+10	1
4902643	24	C	02/16/2025	09:48	-133.733	43.184	0	2529.70	0	1.7260	0	34.6310	4	27.711	0	2494.558	0	77.1	4	23.1	4	-1E+10	1	-1E+10	1	-1E+10	1	-1E+10	1	-1E+10	1	-1E+10	1
4902643	24	C	02/16/2025	09:48	-133.733	43.184	0	2549.50	0	1.7200	0	34.6330	4	27.713	0	2513.968	0	77.8	4	23.3	4	-1E+10	1	-1E+10	1	-1E+10	1	-1E+10	1	-1E+10	1	-1E+10	1
4902643	24	C	02/16/2025	09:48	-133.733	43.184	0	2569.80	0	1.7150	0	34.6330	4	27.713	0	2533.865	0	78.8	4	23.6	4	-1E+10	1	-1E+10	1	-1E+10	1	-1E+10	1	-1E+10	1	-1E+10	1
4902643	24	C	02/16/2025	09:48	-133.733	43.184	0	2590.00	0	1.7080	0	34.6350	4	27.715	0	2553.663	0	79.8	4	23.9	4	-1E+10	1	-1E+10	1	-1E+10	1	-1E+10	1	-1E+10	1	-1E+10	1
4902643	24	C	02/16/2025	09:48	-133.733	43.184	0	2610.00	0	1.7030	0	34.6360	4	27.717	0	2573.263	0	80.4	4	24.1	4	-1E+10	1	-1E+10	1	-1E+10	1	-1E+10	1	-1E+10	1	-1E+10	1
4902643	24	C	02/16/2025	09:48	-133.733	43.184	0	2629.80	0	1.6960	0	34.6360	4	27.717	0	2592.665	0	80.7	4	24.2	4	-1E+10	1	-1E+10	1	-1E+10	1	-1E+10	1	-1E+10	1	-1E+10	1
4902643	24	C	02/16/2025	09:48	-133.733	43.184	0	2649.80	0	1.6890	0	34.6370	4	27.719	0	2612.262	0	81.3	4	24.3	4	-1E+10	1	-1E+10	1	-1E+10	1	-1E+10	1	-1E+10	1	-1E+10	1
4902643	24	C	02/16/2025	09:48	-133.733	43.184	0	2670.00	0	1.6860	0	34.6370	4	27.719	0	2632.052	0	82.0	4	24.5	4	-1E+10	1	-1E+10	1	-1E+10	1	-1E+10	1	-1E+10	1	-1E+10	1
4902643	24	C	02/16/2025	09:48	-133.733	43.184	0	2689.60	0	1.6800	0	34.6380	4	27.721	0	2651.253	0	82.7	4	24.7	4	-1E+10	1	-1E+10	1	-1E+10	1	-1E+10	1	-1E+10	1	-1E+10	1
4902643	24	C	02/16/2025	09:48	-133.733	43.184	0	2709.70	0	1.6750	0	34.6390	4	27.722	0	2670.942	0	83.5	4	25.0	4	-1E+10	1	-1E+10	1	-1E+10	1	-1E+10	1	-1E+10	1	-1E+10	1
4902643	24	C	02/16/2025	09:48	-133.733	43.184	0	2729.80	0	1.6680	0	34.6400	4	27.723	0	2690.629	0	84.2	4	25.2	4	-1E+10	1	-1E+10	1	-1E+10	1	-1E+10	1	-1E+10	1	-1E+10	1
4902643	24	C	02/16/2025	09:48	-133.733	43.184	0	2749.60	0	1.6590	0	34.6410	4	27.725	0	2710.021	0	85.0	4	25.4	4	-1E+10	1	-1E+10	1	-1E+10	1	-1E+10	1	-1E+10	1	-1E+10	1
4902643	24	C	02/16/2025	09:48	-133.733	43.184	0	2770.50	0	1.6540	0	34.6420	4	27.726	0	2730.488	0	85.8	4	25.7	4	-1E+10	1	-1E+10	1	-1E+10	1	-1E+10	1	-1E+10	1	-1E+10	1
4902643	24	C	02/16/2025	09:48	-133.733	43.184	0	2790.10	0	1.6500	0	34.6430	4	27.727	0	2749.680	0	86.6	4	25.9	4	-1E+10	1	-1E+10	1	-1E+10	1	-1E+10	1	-1E+10	1	-1E+10	1
4902643	24	C	02/16/2025	09:48	-133.733	43.184	0	2810.00	0	1.6450	0	34.6440	4	27.729	0	2769.165	0	87.4	4	26.1	4	-1E+10	1	-1E+10	1	-1E+10	1	-1E+10	1	-1E+10	1	-1E+10	1
4902643	24	C	02/16/2025	09:48	-133.733	43.184	0	2829.60	0	1.6400	0	34.6450	4	27.730	0	2788.354	0	88.2	4	26.4	4	-1E+10	1	-1E+10	1	-1E+10	1	-1E+10	1	-1E+10	1	-1E+10	1
4902643	24	C	02/16/2025	09:48	-133.733	43.184	0	2849.50	0	1.6340	0	34.6450	4	27.730	0	2807.834	0	89.0	4	26.6	4	-1E+10	1	-1E+10	1	-1E+10	1	-1E+10	1	-1E+10	1	-1E+10	1
4902643	24	C	02/16/2025	09:48	-133.733	43.184	0	2869.80	0	1.6270	0	34.6460	4	27.732	0	2827.705	0	90.0	4	26.9	4	-1E+10	1	-1E+10	1	-1E+10	1	-1E+10	1	-1E+10	1	-1E+10	1
4902643	24	C	02/16/2025	09:48	-133.733	43.184	0	2889.70	0	1.6200	0	34.6470	4	27.733	0	2847.182	0	90.9	4	27.2	4	-1E+10	1	-1E+10	1	-1E+10	1	-1E+10	1	-1E+10	1	-1E+10	1
4902643	24	C	02/16/2025	09:48	-133.733	43.184	0	2910.40	0	1.6150	0	34.6480	4	27.735	0	2867.440	0	91.6	4	27.4	4	-1E+10	1	-1E+10	1	-1E+10	1	-1E+10	1	-1E+10	1	-1E+10	1
4902643	24	C	02/16/2025	09:48	-133.733	43.184	0	2929.80	0	1.6100	0	34.6490	4	27.736	0	2886.425	0	92.2	4	27.6	4	-1E+10	1	-1E+10	1	-1E+10	1	-1E+10	1	-1E+10	1	-1E+10	1
4902643	24	C	02/16/2025	09:48	-133.733	43.184	0	2949.80	0	1.6050	0	34.6490	4	27.736	0	2905.995	0	93.0	4	27.8	4	-1E+10	1	-1E+10	1	-1E+10	1	-1E+10	1	-1E+10	1	-1E+10	1
4902643	24	C	02/16/2025	09:48	-133.733	43.184	0	2969.80	0	1.6000	0	34.6500	4	27.738	0	2925.563	0	93.6	4	28.0	4	-1E+10	1	-1E+10	1	-1E+10	1	-1E+10	1	-1E+10	1	-1E+10	1
4902643	24	C	02/16/2025	09:48	-133.733	43.184	0	2990.20	0	1.5950	0	34.6510	4	27.739	0	2945.520	0	94.2	4	28.1	4	-1E+10	1	-1E+10	1	-1E+10	1	-1E+10	1	-1E+10	1	-1E+10	1
4902643	24	C	02/16/2025	09:48	-133.733	43.184	0	3009.60	0	1.5920	0	34.6510	4	27.739	0	2964.498	0	94.8	4	28.3	4	-1E+10	1	-1E+10	1	-1E+10	1	-1E+10	1	-1E+10	1	-1E+10	1
4902643	24	C	02/16/2025	09:48	-133.733	43.184	0	3029.70	0	1.5890	0	34.6520	4	27.740	0	2984.158	0	95.4	4	28.5	4	-1E+10	1	-1E+10	1	-1E+10	1	-1E+10	1	-1E+10	1	-1E+10	1
4902643	24	C	02/16/2025	09:48	-133.733	43.184	0	3049.60	0	1.5860	0	34.6530	4	27.742	0	3003.621	0	96.0	4	28.7	4	-1E+10	1	-1E+10	1	-1E+10	1	-1E+10	1	-1E+10	1	-1E+10	1
4902643	24	C	02/16/2025	09:48	-133.733	43.184	0	3069.70	0	1.5830	0	34.6530	4	27.742	0	3023.278	0	96.6	4	28.8	4	-1E+10	1	-1E+10	1	-1E+10	1	-1E+10	1	-1E+10	1	-1E+10	1
4902643	24	C	02/16/2025	09:48	-133.733	43.184	0	3089.80	0	1.5790	0	34.6540	4	27.743	0	3042.934	0	97.3	4	29.0	4	-1E+10	1	-1E+10	1	-1E+10	1	-1E+10	1	-1E+10	1	-1E+10	1
4902643	24	C	02/16/2025	09:48	-133.733	43.184	0	3110.10	0	1.5750	0	34.6550	4	27.744	0	3062.783	0	98.0	4	29.2	4	-1E+10	1	-1E+10	1	-1E+10	1	-1E+10	1	-1E+10	1	-1E+10	1
4902643	24	C	02/16/2025	09:48	-133.733	43.184	0	3130.60	0	1.5710	0	34.6560	4	27.746	0	3082.825	0	98.7	4	29.4	4	-1E+10	1	-1E+10	1	-1E+10	1	-1E+10	1	-1E+10	1	-1E+10	1
4902643	24	C	02/16/2025	09:48	-133.733	43.184	0	3149.80	0	1.5680	0	34.6560	4	27.746	0	3101.595	0	99.3	4	29.6	4	-1E+10	1	-1E+10	1	-1E+10	1	-1E+10	1	-1E+10	1	-1E+10	1
4902643	24	C	02/16/2025	09:48	-133.733	43.184	0	3169.90	0	1.5640	0	34.6570	4	27.747	0	3121.244	0	99.8	4	29.8	4	-1E+10	1	-1E+10	1	-1E+10	1	-1E+10	1	-1E+10	1	-1E+10	1
4902643	24	C	02/16/2025	09:48	-133.733	43.184	0	3189.80	0	1.5620	0	34.6570	4	27.747	0	3140.695	0	100.3	4	29.9	4	-1E+10	1	-1E+10	1	-1E+10	1	-1E+10	1	-1E+10	1	-1E+10	1
4902643	24	C	02/16/2025	09:48	-133.733	43.184	0	3209.70	0	1.5590	0	34.6580	4	27.749	0	3160.144	0	100.8	4	30.1	4	-1E+10	1	-1E+10	1	-1E+10	1	-1E+10	1	-1E+10	1	-1E+10	1
4902643	24	C	02/16/2025	09:48	-133.733	43.184	0	3230.10	0	1.5580	0	34.6580	4	27.749	0	3180.080	0	101.1	4	30.2	4	-1E+10	1	-1E+10	1	-1E+10	1	-1E+10	1	-1E+10	1	-1E+10	1
4902643	24	C	02/16/2025	09:48	-133.733	43.184	0	3249.10	0	1.5570	0	34.6580	4	27.749	0	3198.646	0	101.5	4	30.3	4	-1E+10	1	-1E+10	1	-1E+10	1	-1E+10	1	-1E+10	1	-1E+10	1
4902643	24	C	02/16/2025	09:48	-133.733	43.184	0	3269.30	0	1.5550	0	34.6590	4	27.750	0	3218.383	0	102.0	4	30.4	4	-1E+10	1	-1E+10	1	-1E+10	1	-1E+10	1	-1E+10	1	-1E+10	1
4902643	24	C	02/16/2025	09:48	-133.733	43.184	0	3290.30	0	1.5530	0	34.6600	4	27.751	0	3238.900	0	102.4	4	30.5	4	-1E+10	1	-1E+10	1	-1E+10	1	-1E+10	1	-1E+10	1	-1E+10	1
4902643	24	C	02/16/2025	09:48	-133.733	43.184	0	3309.80	0	1.5520	0	34.6600	4	27.751	0	3257.950	0	102.7	4	30.6	4	-1E+10	1	-1E+10	1	-1E+10	1	-1E+10	1	-1E+10	1	-1E+10	1
4902643	24	C	02/16/2025	09:48	-133.733	43.184	0	3329.70	0	1.5520	0	34.6600	4	27.752	0	3277.388	0	103.1	4	30.7	4	-1E+10	1	-1E+10	1	-1E+10	1	-1E+10	1	-1E+10	1	-1E+10	1
4902643	24	C	02/16/2025	09:48	-133.733	43.184	0	3350.00	0	1.5510	0	34.6610	4	27.753	0	3297.216	0	103.5	4	30.9	4	-1E+10	1	-1E+10	1	-1E+10	1	-1E+10	1	-1E+10	1	-1E+10	1
4902643	24	C	02/16/2025	09:48	-133.733	43.184	0	3370.10	0	1.5490	0	34.6610	4	27.753	0	3316.847	0	103.9	4	31.0	4	-1E+10	1	-1E+10	1	-1E+10	1	-1E+10	1	-1E+10	1	-1E+10	1
4902643	24	C	02/16/2025	09:48	-133.733	43.184	0	3389.90	0	1.5480	0	34.6620	4	27.754	0	3336.182	0	104.3	4	31.1	4	-1E+10	1	-1E+10	1	-1E+10	1	-1E+10	1	-1E+10	1	-1E+10	1
4902643	24	C	02/16/2025	09:48	-133.733	43.184	0	3410.10	0	1.5480	0	34.6620	4	27.754	0	3355.907	0	104.7	4	31.2	4	-1E+10	1	-1E+10	1	-1E+10	1	-1E+10	1	-1E+10	1	-1E+10	1
4902643	24	C	02/16/2025	09:48	-133.733	43.184	0	3429.80	0	1.5470	0	34.6630	4	27.755	0	3375.142	0	105.1	4	31.3	4	-1E+10	1	-1E+10	1	-1E+10	1	-1E+10	1	-1E+10	1	-1E+10	1
4902643	24	C	02/16/2025	09:48	-133.733	43.184	0	3450.10	0	1.5450	0	34.6630	4	27.755	0	3394.961	0	105.5	4	31.5	4	-1E+10	1	-1E+10	1	-1E+10	1	-1E+10	1	-1E+10	1	-1E+10	1
4902643	24	C	02/16/2025	09:48	-133.733	43.184	0	3470.00	0	1.5440	0	34.6640	4	27.756	0	3414.387	0	105.8	4	31.6	4	-1E+10	1	-1E+10	1	-1E+10	1	-1E+10	1	-1E+10	1	-1E+10	1
4902643	24	C	02/16/2025	09:48	-133.733	43.184	0	3490.10	0	1.5440	0	34.6640	4	27.756	0	3434.007	0	106.3	4	31.7	4	-1E+10	1	-1E+10	1	-1E+10	1	-1E+10	1	-1E+10	1	-1E+10	1
4902643	24	C	02/16/2025	09:48	-133.733	43.184	0	3510.10	0	1.5420	0	34.6650	4	27.758	0	3453.528	0	106.7	4	31.8	4	-1E+10	1	-1E+10	1	-1E+10	1	-1E+10	1	-1E+10	1	-1E+10	1
4902643	24	C	02/16/2025	09:48	-133.733	43.184	0	3529.70	0	1.5410	0	34.6650	4	27.758	0	3472.656	0	107.0	4	31.9	4	-1E+10	1	-1E+10	1	-1E+10	1	-1E+10	1	-1E+10	1	-1E+10	1
4902643	24	C	02/16/2025	09:48	-133.733	43.184	0	3550.20	0	1.5420	0	34.6660	4	27.759	0	3492.662	0	107.3	4	32.0	4	-1E+10	1	-1E+10	1	-1E+10	1	-1E+10	1	-1E+10	1	-1E+10	1
4902643	24	C	02/16/2025	09:48	-133.733	43.184	0	3569.90	0	1.5410	0	34.6660	4	27.759	0	3511.884	0	107.6	4	32.1	4	-1E+10	1	-1E+10	1	-1E+10	1	-1E+10	1	-1E+10	1	-1E+10	1
4902643	24	C	02/16/2025	09:48	-133.733	43.184	0	3589.70	0	1.5410	0	34.6660	4	27.759	0	3531.203	0	107.9	4	32.2	4	-1E+10	1	-1E+10	1	-1E+10	1	-1E+10	1	-1E+10	1	-1E+10	1
4902643	24	C	02/16/2025	09:48	-133.733	43.184	0	3609.90	0	1.5410	0	34.6670	4	27.760	0	3550.910	0	108.1	4	32.2	4	-1E+10	1	-1E+10	1	-1E+10	1	-1E+10	1	-1E+10	1	-1E+10	1
4902643	24	C	02/16/2025	09:48	-133.733	43.184	0	3630.10	0	1.5410	0	34.6670	4	27.760	0	3570.616	0	108.3	4	32.3	4	-1E+10	1	-1E+10	1	-1E+10	1	-1E+10	1	-1E+10	1	-1E+10	1
4902643	24	C	02/16/2025	09:48	-133.733	43.184	0	3650.00	0	1.5420	0	34.6680	4	27.761	0	3590.027	0	108.4	4	32.3	4	-1E+10	1	-1E+10	1	-1E+10	1	-1E+10	1	-1E+10	1	-1E+10	1
4902643	24	C	02/16/2025	09:48	-133.733	43.184	0	3670.40	0	1.5420	0	34.6680	4	27.761	0	3609.923	0	108.7	4	32.4	4	-1E+10	1	-1E+10	1	-1E+10	1	-1E+10	1	-1E+10	1	-1E+10	1
4902643	24	C	02/16/2025	09:48	-133.733	43.184	0	3690.00	0	1.5430	0	34.6680	4	27.761	0	3629.038	0	108.8	4	32.4	4	-1E+10	1	-1E+10	1	-1E+10	1	-1E+10	1	-1E+10	1	-1E+10	1
4902643	24	C	02/16/2025	09:48	-133.733	43.184	0	3710.10	0	1.5440	0	34.6680	4	27.761	0	3648.639	0	108.9	4	32.5	4	-1E+10	1	-1E+10	1	-1E+10	1	-1E+10	1	-1E+10	1	-1E+10	1
4902643	24	C	02/16/2025	09:48	-133.733	43.184	0	3729.90	0	1.5450	0	34.6690	4	27.762	0	3667.946	0	109.0	4	32.5	4	-1E+10	1	-1E+10	1	-1E+10	1	-1E+10	1	-1E+10	1	-1E+10	1
4902643	24	C	02/16/2025	09:48	-133.733	43.184	0	3749.70	0	1.5460	0	34.6690	4	27.762	0	3687.251	0	109.0	4	32.5	4	-1E+10	1	-1E+10	1	-1E+10	1	-1E+10	1	-1E+10	1	-1E+10	1
4902643	24	C	02/16/2025	09:48	-133.733	43.184	0	3770.30	0	1.5470	0	34.6690	4	27.762	0	3707.334	0	109.1	4	32.5	4	-1E+10	1	-1E+10	1	-1E+10	1	-1E+10	1	-1E+10	1	-1E+10	1
4902643	24	C	02/16/2025	09:48	-133.733	43.184	0	3788.50	0	1.5480	0	34.6690	4	27.762	0	3725.076	0	108.8	4	32.4	4	-1E+10	1	-1E+10	1	-1E+10	1	-1E+10	1	-1E+10	1	-1E+10	1
4902643	24	C	02/16/2025	09:48	-133.733	43.184	0																										
4902643	25	C	02/26/2025	09:36	-133.620	43.134	0	0.70	0	10.6780	0	32.7420	0	25.074	0	0.694	0	253.6	4	92.2	4	-1E+10	1	-1E+10	1	-1E+10	1	-1E+10	1	-1E+10	1	-1E+10	1
4902643	25	C	02/26/2025	09:36	-133.620	43.134	0	1.00	0	10.6730	0	32.7420	0	25.075	0	0.992	0	252.9	4	92.0	4	-1E+10	1	-1E+10	1	-1E+10	1	-1E+10	1	-1E+10	1	-1E+10	1
4902643	25	C	02/26/2025	09:36	-133.620	43.134	0	1.30	0	10.6720	0	32.7430	0	25.076	0	1.290	0	-1e10	1	-1e10	1	-1E+10	1	-1E+10	1	-1E+10	1	-1E+10	1	-1E+10	1	-1E+10	1
4902643	25	C	02/26/2025	09:36	-133.620	43.134	0	1.40	0	10.6720	0	32.7430	0	25.076	0	1.389	0	253.0	4	92.0	4	-1E+10	1	-1E+10	1	-1E+10	1	-1E+10	1	-1E+10	1	-1E+10	1
4902643	25	C	02/26/2025	09:36	-133.620	43.134	0	2.40	0	10.6720	0	32.7430	0	25.076	0	2.381	0	253.0	4	92.0	4	-1E+10	1	-1E+10	1	-1E+10	1	-1E+10	1	-1E+10	1	-1E+10	1
4902643	25	C	02/26/2025	09:36	-133.620	43.134	0	2.80	0	10.6720	0	32.7430	0	25.076	0	2.778	0	-1e10	1	-1e10	1	-1E+10	1	-1E+10	1	-1E+10	1	-1E+10	1	-1E+10	1	-1E+10	1
4902643	25	C	02/26/2025	09:36	-133.620	43.134	0	3.10	0	10.6720	0	32.7430	0	25.076	0	3.075	0	-1e10	1	-1e10	1	-1E+10	1	-1E+10	1	-1E+10	1	-1E+10	1	-1E+10	1	-1E+10	1
4902643	25	C	02/26/2025	09:36	-133.620	43.134	0	3.40	0	10.6720	0	32.7430	0	25.076	0	3.373	0	253.0	4	92.0	4	-1E+10	1	-1E+10	1	-1E+10	1	-1E+10	1	-1E+10	1	-1E+10	1
4902643	25	C	02/26/2025	09:36	-133.620	43.134	0	4.50	0	10.6730	0	32.7430	0	25.076	0	4.464	0	-1e10	1	-1e10	1	-1E+10	1	-1E+10	1	-1E+10	1	-1E+10	1	-1E+10	1	-1E+10	1
4902643	25	C	02/26/2025	09:36	-133.620	43.134	0	4.70	0	10.6736	0	32.7432	0	25.076	0	4.663	0	252.9	4	91.9	4	-1E+10	1	-1E+10	1	-1E+10	1	-1E+10	1	-1E+10	1	-1E+10	1
4902643	25	C	02/26/2025	09:36	-133.620	43.134	0	5.80	0	10.6770	0	32.7440	0	25.076	0	5.754	0	252.9	4	91.9	4	-1E+10	1	-1E+10	1	-1E+10	1	-1E+10	1	-1E+10	1	-1E+10	1
4902643	25	C	02/26/2025	09:36	-133.620	43.134	0	6.60	0	10.6770	0	32.7430	0	25.075	0	6.547	0	252.9	4	92.0	4	-1E+10	1	-1E+10	1	-1E+10	1	-1E+10	1	-1E+10	1	-1E+10	1
4902643	25	C	02/26/2025	09:36	-133.620	43.134	0	7.40	0	10.6760	0	32.7440	0	25.076	0	7.341	0	252.8	4	91.9	4	-1E+10	1	-1E+10	1	-1E+10	1	-1E+10	1	-1E+10	1	-1E+10	1
4902643	25	C	02/26/2025	09:36	-133.620	43.134	0	8.50	0	10.6760	0	32.7440	0	25.076	0	8.432	0	252.7	4	91.9	4	-1E+10	1	-1E+10	1	-1E+10	1	-1E+10	1	-1E+10	1	-1E+10	1
4902643	25	C	02/26/2025	09:36	-133.620	43.134	0	10.00	0	10.6750	0	32.7440	0	25.077	0	9.920	0	252.7	4	91.9	4	-1E+10	1	-1E+10	1	-1E+10	1	-1E+10	1	-1E+10	1	-1E+10	1
4902643	25	C	02/26/2025	09:36	-133.620	43.134	0	14.80	0	10.6730	0	32.7430	0	25.076	0	14.682	0	252.5	4	91.8	4	-1E+10	1	-1E+10	1	-1E+10	1	-1E+10	1	-1E+10	1	-1E+10	1
4902643	25	C	02/26/2025	09:36	-133.620	43.134	0	25.00	0	10.6690	0	32.7430	0	25.077	0	24.800	0	252.3	4	91.7	4	-1E+10	1	-1E+10	1	-1E+10	1	-1E+10	1	-1E+10	1	-1E+10	1
4902643	25	C	02/26/2025	09:36	-133.620	43.134	0	35.30	0	10.6720	0	32.7430	0	25.077	0	35.016	0	252.0	4	91.6	4	-1E+10	1	-1E+10	1	-1E+10	1	-1E+10	1	-1E+10	1	-1E+10	1
4902643	25	C	02/26/2025	09:36	-133.620	43.134	0	45.20	0	10.6710	0	32.7420	0	25.077	0	44.836	0	251.6	4	91.5	4	-1E+10	1	-1E+10	1	-1E+10	1	-1E+10	1	-1E+10	1	-1E+10	1
4902643	25	C	02/26/2025	09:36	-133.620	43.134	0	55.00	0	10.6730	0	32.7440	0	25.078	0	54.556	0	251.0	4	91.3	4	-1E+10	1	-1E+10	1	-1E+10	1	-1E+10	1	-1E+10	1	-1E+10	1
4902643	25	C	02/26/2025	09:36	-133.620	43.134	0	65.10	0	10.6750	0	32.7440	0	25.078	0	64.572	0	249.9	4	90.9	4	-1E+10	1	-1E+10	1	-1E+10	1	-1E+10	1	-1E+10	1	-1E+10	1
4902643	25	C	02/26/2025	09:36	-133.620	43.134	0	74.90	0	10.6800	0	32.7460	0	25.079	0	74.291	0	247.3	4	89.9	4	-1E+10	1	-1E+10	1	-1E+10	1	-1E+10	1	-1E+10	1	-1E+10	1
4902643	25	C	02/26/2025	09:36	-133.620	43.134	0	84.80	0	10.7150	0	32.7710	0	25.092	0	84.109	0	238.5	4	86.8	4	-1E+10	1	-1E+10	1	-1E+10	1	-1E+10	1	-1E+10	1	-1E+10	1
4902643	25	C	02/26/2025	09:36	-133.620	43.134	0	95.00	0	10.5150	0	33.0050	0	25.309	0	94.223	0	216.1	4	78.4	4	-1E+10	1	-1E+10	1	-1E+10	1	-1E+10	1	-1E+10	1	-1E+10	1
4902643	25	C	02/26/2025	09:36	-133.620	43.134	0	104.90	0	9.8180	0	33.1910	0	25.572	0	104.040	0	209.6	4	75.1	4	-1E+10	1	-1E+10	1	-1E+10	1	-1E+10	1	-1E+10	1	-1E+10	1
4902643	25	C	02/26/2025	09:36	-133.620	43.134	0	114.50	0	9.4640	0	33.2390	0	25.668	0	113.559	0	204.7	4	72.7	4	-1E+10	1	-1E+10	1	-1E+10	1	-1E+10	1	-1E+10	1	-1E+10	1
4902643	25	C	02/26/2025	09:36	-133.620	43.134	0	124.70	0	9.2340	0	33.3790	0	25.814	0	123.672	0	197.9	4	70.0	4	-1E+10	1	-1E+10	1	-1E+10	1	-1E+10	1	-1E+10	1	-1E+10	1
4902643	25	C	02/26/2025	09:36	-133.620	43.134	0	134.50	0	9.1670	0	33.5720	0	25.976	0	133.388	0	192.4	4	68.1	4	-1E+10	1	-1E+10	1	-1E+10	1	-1E+10	1	-1E+10	1	-1E+10	1
4902643	25	C	02/26/2025	09:36	-133.620	43.134	0	144.50	0	8.9240	0	33.6420	0	26.069	0	143.302	0	188.6	4	66.4	4	-1E+10	1	-1E+10	1	-1E+10	1	-1E+10	1	-1E+10	1	-1E+10	1
4902643	25	C	02/26/2025	09:36	-133.620	43.134	0	154.90	0	8.5510	0	33.6720	0	26.151	0	153.611	0	186.8	4	65.3	4	-1E+10	1	-1E+10	1	-1E+10	1	-1E+10	1	-1E+10	1	-1E+10	1
4902643	25	C	02/26/2025	09:36	-133.620	43.134	0	164.70	0	8.2680	0	33.6960	0	26.213	0	163.326	0	184.2	4	64.0	4	-1E+10	1	-1E+10	1	-1E+10	1	-1E+10	1	-1E+10	1	-1E+10	1
4902643	25	C	02/26/2025	09:36	-133.620	43.134	0	174.90	0	8.0600	0	33.7200	0	26.263	0	173.437	0	181.7	4	62.8	4	-1E+10	1	-1E+10	1	-1E+10	1	-1E+10	1	-1E+10	1	-1E+10	1
4902643	25	C	02/26/2025	09:36	-133.620	43.134	0	185.20	0	7.8850	0	33.7580	0	26.318	0	183.646	0	176.4	4	60.8	4	-1E+10	1	-1E+10	1	-1E+10	1	-1E+10	1	-1E+10	1	-1E+10	1
4902643	25	C	02/26/2025	09:36	-133.620	43.134	0	195.10	0	7.6540	0	33.7900	0	26.377	0	193.458	0	171.2	4	58.7	4	-1E+10	1	-1E+10	1	-1E+10	1	-1E+10	1	-1E+10	1	-1E+10	1
4902643	25	C	02/26/2025	09:36	-133.620	43.134	0	209.70	0	7.4290	0	33.8100	0	26.425	0	207.928	0	165.5	4	56.5	4	-1E+10	1	-1E+10	1	-1E+10	1	-1E+10	1	-1E+10	1	-1E+10	1
4902643	25	C	02/26/2025	09:36	-133.620	43.134	0	229.60	0	7.1110	0	33.8210	0	26.478	0	227.649	0	159.4	4	54.0	4	-1E+10	1	-1E+10	1	-1E+10	1	-1E+10	1	-1E+10	1	-1E+10	1
4902643	25	C	02/26/2025	09:36	-133.620	43.134	0	249.70	0	6.7450	0	33.8250	0	26.531	0	247.566	0	149.2	4	50.1	4	-1E+10	1	-1E+10	1	-1E+10	1	-1E+10	1	-1E+10	1	-1E+10	1
4902643	25	C	02/26/2025	09:36	-133.620	43.134	0	269.50	0	6.5790	0	33.8410	0	26.566	0	267.184	0	134.6	4	45.1	4	-1E+10	1	-1E+10	1	-1E+10	1	-1E+10	1	-1E+10	1	-1E+10	1
4902643	25	C	02/26/2025	09:36	-133.620	43.134	0	290.50	0	6.2050	0	33.8390	0	26.613	0	287.989	0	121.7	4	40.4	4	-1E+10	1	-1E+10	1	-1E+10	1	-1E+10	1	-1E+10	1	-1E+10	1
4902643	25	C	02/26/2025	09:36	-133.620	43.134	0	309.90	0	6.0500	0	33.8620	0	26.651	0	307.207	0	108.3	4	35.8	4	-1E+10	1	-1E+10	1	-1E+10	1	-1E+10	1	-1E+10	1	-1E+10	1
4902643	25	C	02/26/2025	09:36	-133.620	43.134	0	329.80	0	5.8630	0	33.8740	0	26.684	0	326.918	0	99.3	4	32.7	4	-1E+10	1	-1E+10	1	-1E+10	1	-1E+10	1	-1E+10	1	-1E+10	1
4902643	25	C	02/26/2025	09:36	-133.620	43.134	0	349.70	0	5.6490	0	33.8790	0	26.714	0	346.628	0	90.5	4	29.6	4	-1E+10	1	-1E+10	1	-1E+10	1	-1E+10	1	-1E+10	1	-1E+10	1
4902643	25	C	02/26/2025	09:36	-133.620	43.134	0	369.80	0	5.4910	0	33.8960	0	26.746	0	366.533	0	82.6	4	27.0	4	-1E+10	1	-1E+10	1	-1E+10	1	-1E+10	1	-1E+10	1	-1E+10	1
4902643	25	C	02/26/2025	09:36	-133.620	43.134	0	389.90	0	5.2540	0	33.9040	0	26.781	0	386.437	0	76.1	4	24.7	4	-1E+10	1	-1E+10	1	-1E+10	1	-1E+10	1	-1E+10	1	-1E+10	1
4902643	25	C	02/26/2025	09:36	-133.620	43.134	0	409.90	0	5.1460	0	33.9230	0	26.809	0	406.240	0	69.2	4	22.4	4	-1E+10	1	-1E+10	1	-1E+10	1	-1E+10	1	-1E+10	1	-1E+10	1
4902643	25	C	02/26/2025	09:36	-133.620	43.134	0	429.70	0	5.0320	0	33.9460	0	26.840	0	425.843	0	62.1	4	20.1	4	-1E+10	1	-1E+10	1	-1E+10	1	-1E+10	1	-1E+10	1	-1E+10	1
4902643	25	C	02/26/2025	09:36	-133.620	43.134	0	449.70	0	4.9650	0	33.9710	0	26.868	0	445.642	0	54.3	4	17.5	4	-1E+10	1	-1E+10	1	-1E+10	1	-1E+10	1	-1E+10	1	-1E+10	1
4902643	25	C	02/26/2025	09:36	-133.620	43.134	0	469.30	0	5.0190	0	34.0070	0	26.890	0	465.043	0	45.6	4	14.7	4	-1E+10	1	-1E+10	1	-1E+10	1	-1E+10	1	-1E+10	1	-1E+10	1
4902643	25	C	02/26/2025	09:36	-133.620	43.134	0	490.10	0	4.9450	0	34.0310	0	26.918	0	485.630	0	43.2	4	13.9	4	-1E+10	1	-1E+10	1	-1E+10	1	-1E+10	1	-1E+10	1	-1E+10	1
4902643	25	C	02/26/2025	09:36	-133.620	43.134	0	509.40	0	4.7850	0	34.0290	0	26.934	0	504.731	0	42.5	4	13.6	4	-1E+10	1	-1E+10	1	-1E+10	1	-1E+10	1	-1E+10	1	-1E+10	1
4902643	25	C	02/26/2025	09:36	-133.620	43.134	0	529.60	0	4.6450	0	34.0330	0	26.953	0	524.720	0	39.2	4	12.6	4	-1E+10	1	-1E+10	1	-1E+10	1	-1E+10	1	-1E+10	1	-1E+10	1
4902643	25	C	02/26/2025	09:36	-133.620	43.134	0	549.90	0	4.6380	0	34.0650	0	26.979	0	544.806	0	32.5	4	10.4	4	-1E+10	1	-1E+10	1	-1E+10	1	-1E+10	1	-1E+10	1	-1E+10	1
4902643	25	C	02/26/2025	09:36	-133.620	43.134	0	569.90	0	4.5700	0	34.0850	0	27.003	0	564.594	0	29.7	4	9.5	4	-1E+10	1	-1E+10	1	-1E+10	1	-1E+10	1	-1E+10	1	-1E+10	1
4902643	25	C	02/26/2025	09:36	-133.620	43.134	0	590.20	0	4.3670	0	34.0880	0	27.027	0	584.676	0	28.4	4	9.0	4	-1E+10	1	-1E+10	1	-1E+10	1	-1E+10	1	-1E+10	1	-1E+10	1
4902643	25	C	02/26/2025	09:36	-133.620	43.134	0	609.50	0	4.2820	0	34.1050	0	27.050	0	603.768	0	25.0	4	8.0	4	-1E+10	1	-1E+10	1	-1E+10	1	-1E+10	1	-1E+10	1	-1E+10	1
4902643	25	C	02/26/2025	09:36	-133.620	43.134	0	629.60	0	4.2000	0	34.1190	0	27.070	0	623.649	0	22.2	4	7.0	4	-1E+10	1	-1E+10	1	-1E+10	1	-1E+10	1	-1E+10	1	-1E+10	1
4902643	25	C	02/26/2025	09:36	-133.620	43.134	0	649.40	0	4.1000	0	34.1350	0	27.093	0	643.231	0	19.6	4	6.2	4	-1E+10	1	-1E+10	1	-1E+10	1	-1E+10	1	-1E+10	1	-1E+10	1
4902643	25	C	02/26/2025	09:36	-133.620	43.134	0	669.50	0	4.0180	0	34.1500	0	27.113	0	663.108	0	18.3	4	5.8	4	-1E+10	1	-1E+10	1	-1E+10	1	-1E+10	1	-1E+10	1	-1E+10	1
4902643	25	C	02/26/2025	09:36	-133.620	43.134	0	690.50	0	3.9840	0	34.1590	0	27.124	0	683.873	0	16.8	4	5.3	4	-1E+10	1	-1E+10	1	-1E+10	1	-1E+10	1	-1E+10	1	-1E+10	1
4902643	25	C	02/26/2025	09:36	-133.620	43.134	0	709.70	0	3.9320	0	34.1800	0	27.146	0	702.857	0	14.4	4	4.5	4	-1E+10	1	-1E+10	1	-1E+10	1	-1E+10	1	-1E+10	1	-1E+10	1
4902643	25	C	02/26/2025	09:36	-133.620	43.134	0	729.60	0	3.9150	0	34.1980	0	27.162	0	722.530	0	12.7	4	4.0	4	-1E+10	1	-1E+10	1	-1E+10	1	-1E+10	1	-1E+10	1	-1E+10	1
4902643	25	C	02/26/2025	09:36	-133.620	43.134	0	749.60	0	3.8840	0	34.2120	0	27.177	0	742.301	0	11.5	4	3.6	4	-1E+10	1	-1E+10	1	-1E+10	1	-1E+10	1	-1E+10	1	-1E+10	1
4902643	25	C	02/26/2025	09:36	-133.620	43.134	0	769.60	0	3.8340	0	34.2250	0	27.192	0	762.070	0	11.1	4	3.5	4	-1E+10	1	-1E+10	1	-1E+10	1	-1E+10	1	-1E+10	1	-1E+10	1
4902643	25	C	02/26/2025	09:36	-133.620	43.134	0	789.80	0	3.7740	0	34.2310	0	27.203	0	782.034	0	10.6	4	3.3	4	-1E+10	1	-1E+10	1	-1E+10	1	-1E+10	1	-1E+10	1	-1E+10	1
4902643	25	C	02/26/2025	09:36	-133.620	43.134	0	809.70	0	3.7360	0	34.2460	0	27.219	0	801.700	0	9.6	4	3.0	4	-1E+10	1	-1E+10	1	-1E+10	1	-1E+10	1	-1E+10	1	-1E+10	1
4902643	25	C	02/26/2025	09:36	-133.620	43.134	0	829.50	0	3.6610	0	34.2580	0	27.236	0	821.266	0	8.9	4	2.8	4	-1E+10	1	-1E+10	1	-1E+10	1	-1E+10	1	-1E+10	1	-1E+10	1
4902643	25	C	02/26/2025	09:36	-133.620	43.134	0	849.60	0	3.6560	0	34.2780	0	27.253	0	841.126	0	8.0	4	2.5	4	-1E+10	1	-1E+10	1	-1E+10	1	-1E+10	1	-1E+10	1	-1E+10	1
4902643	25	C	02/26/2025	09:36	-133.620	43.134	0	869.50	0	3.5970	0	34.2930	0	27.270	0	860.786	0	7.4	4	2.3	4	-1E+10	1	-1E+10	1	-1E+10	1	-1E+10	1	-1E+10	1	-1E+10	1
4902643	25	C	02/26/2025	09:36	-133.620	43.134	0	889.40	0	3.5600	0	34.3070	0	27.285	0	880.445	0	7.1	4	2.2	4	-1E+10	1	-1E+10	1	-1E+10	1	-1E+10	1	-1E+10	1	-1E+10	1
4902643	25	C	02/26/2025	09:36	-133.620	43.134	0	910.10	0	3.5760	0	34.3270	0	27.300	0	900.892	0	6.7	4	2.1	4	-1E+10	1	-1E+10	1	-1E+10	1	-1E+10	1	-1E+10	1	-1E+10	1
4902643	25	C	02/26/2025	09:36	-133.620	43.134	0	929.50	0	3.5690	0	34.3450	0	27.315	0	920.053	0	6.7	4	2.1	4	-1E+10	1	-1E+10	1	-1E+10	1	-1E+10	1	-1E+10	1	-1E+10	1
4902643	25	C	02/26/2025	09:36	-133.620	43.134	0	949.70	0	3.5270	0	34.3550	0	27.327	0	940.003	0	6.8	4	2.1	4	-1E+10	1	-1E+10	1	-1E+10	1	-1E+10	1	-1E+10	1	-1E+10	1
4902643	25	C	02/26/2025	09:36	-133.620	43.134	0	970.70	0	3.4950	0	34.3690	0	27.342	0	960.740	0	6.9	4	2.2	4	-1E+10	1	-1E+10	1	-1E+10	1	-1E+10	1	-1E+10	1	-1E+10	1
4902643	25	C	02/26/2025	09:36	-133.620	43.134	0	990.00	0	3.4470	0	34.3790	0	27.354	0	979.797	0	7.2	4	2.2	4	-1E+10	1	-1E+10	1	-1E+10	1	-1E+10	1	-1E+10	1	-1E+10	1
4902643	25	C	02/26/2025	09:36	-133.620	43.134	0	1009.50	0	3.4110	0	34.3870	0	27.364	0	999.049	0	7.4	4	2.3	4	-1E+10	1	-1E+10	1	-1E+10	1	-1E+10	1	-1E+10	1	-1E+10	1
4902643	25	C	02/26/2025	09:36	-133.620	43.134	0	1030.10	0	3.3890	0	34.3960	0	27.374	0	1019.386	0	7.8	4	2.4	4	-1E+10	1	-1E+10	1	-1E+10	1	-1E+10	1	-1E+10	1	-1E+10	1
4902643	25	C	02/26/2025	09:36	-133.620	43.134	0	1049.90	0	3.3480	0	34.4040	0	27.384	0	1038.931	0	8.1	4	2.5	4	-1E+10	1	-1E+10	1	-1E+10	1	-1E+10	1	-1E+10	1	-1E+10	1
4902643	25	C	02/26/2025	09:36	-133.620	43.134	0	1069.90	0	3.3150	0	34.4090	0	27.391	0	1058.672	0	8.5	4	2.6	4	-1E+10	1	-1E+10	1	-1E+10	1	-1E+10	1	-1E+10	1	-1E+10	1
4902643	25	C	02/26/2025	09:36	-133.620	43.134	0	1089.90	0	3.2820	0	34.4160	0	27.400	0	1078.411	0	8.9	4	2.8	4	-1E+10	1	-1E+10	1	-1E+10	1	-1E+10	1	-1E+10	1	-1E+10	1
4902643	25	C	02/26/2025	09:36	-133.620	43.134	0	1109.80	0	3.2460	0	34.4230	0	27.409	0	1098.049	0	9.4	4	2.9	4	-1E+10	1	-1E+10	1	-1E+10	1	-1E+10	1	-1E+10	1	-1E+10	1
4902643	25	C	02/26/2025	09:36	-133.620	43.134	0	1129.70	0	3.2040	0	34.4300	0	27.419	0	1117.685	0	9.9	4	3.1	4	-1E+10	1	-1E+10	1	-1E+10	1	-1E+10	1	-1E+10	1	-1E+10	1
4902643	25	C	02/26/2025	09:36	-133.620	43.134	0	1149.60	0	3.1770	0	34.4350	0	27.425	0	1137.320	0	10.2	4	3.2	4	-1E+10	1	-1E+10	1	-1E+10	1	-1E+10	1	-1E+10	1	-1E+10	1
4902643	25	C	02/26/2025	09:36	-133.620	43.134	0	1169.40	0	3.1460	0	34.4390	0	27.431	0	1156.854	0	10.6	4	3.3	4	-1E+10	1	-1E+10	1	-1E+10	1	-1E+10	1	-1E+10	1	-1E+10	1
4902643	25	C	02/26/2025	09:36	-133.620	43.134	0	1189.50	0	3.1160	0	34.4430	0	27.438	0	1176.682	0	11.0	4	3.4	4	-1E+10	1	-1E+10	1	-1E+10	1	-1E+10	1	-1E+10	1	-1E+10	1
4902643	25	C	02/26/2025	09:36	-133.620	43.134	0	1209.80	0	3.0660	0	34.4490	0	27.447	0	1196.705	0	11.6	4	3.6	4	-1E+10	1	-1E+10	1	-1E+10	1	-1E+10	1	-1E+10	1	-1E+10	1
4902643	25	C	02/26/2025	09:36	-133.620	43.134	0	1229.80	0	3.0290	0	34.4550	0	27.455	0	1216.431	0	12.2	4	3.8	4	-1E+10	1	-1E+10	1	-1E+10	1	-1E+10	1	-1E+10	1	-1E+10	1
4902643	25	C	02/26/2025	09:36	-133.620	43.134	0	1249.50	0	2.9930	0	34.4600	0	27.463	0	1235.859	0	12.9	4	4.0	4	-1E+10	1	-1E+10	1	-1E+10	1	-1E+10	1	-1E+10	1	-1E+10	1
4902643	25	C	02/26/2025	09:36	-133.620	43.134	0	1270.60	0	2.9600	0	34.4660	0	27.470	0	1256.666	0	13.9	4	4.3	4	-1E+10	1	-1E+10	1	-1E+10	1	-1E+10	1	-1E+10	1	-1E+10	1
4902643	25	C	02/26/2025	09:36	-133.620	43.134	0	1289.90	0	2.9190	0	34.4720	0	27.479	0	1275.696	0	14.8	4	4.5	4	-1E+10	1	-1E+10	1	-1E+10	1	-1E+10	1	-1E+10	1	-1E+10	1
4902643	25	C	02/26/2025	09:36	-133.620	43.134	0	1309.60	0	2.8810	0	34.4770	0	27.487	0	1295.118	0	15.7	4	4.8	4	-1E+10	1	-1E+10	1	-1E+10	1	-1E+10	1	-1E+10	1	-1E+10	1
4902643	25	C	02/26/2025	09:36	-133.620	43.134	0	1329.60	0	2.8310	0	34.4830	0	27.496	0	1314.834	0	16.8	4	5.2	4	-1E+10	1	-1E+10	1	-1E+10	1	-1E+10	1	-1E+10	1	-1E+10	1
4902643	25	C	02/26/2025	09:36	-133.620	43.134	0	1349.70	0	2.7830	0	34.4890	0	27.505	0	1334.648	0	17.8	4	5.5	4	-1E+10	1	-1E+10	1	-1E+10	1	-1E+10	1	-1E+10	1	-1E+10	1
4902643	25	C	02/26/2025	09:36	-133.620	43.134	0	1369.70	0	2.7450	0	34.4940	0	27.512	0	1354.360	0	18.9	4	5.8	4	-1E+10	1	-1E+10	1	-1E+10	1	-1E+10	1	-1E+10	1	-1E+10	1
4902643	25	C	02/26/2025	09:36	-133.620	43.134	0	1389.60	0	2.7020	0	34.4990	0	27.520	0	1373.973	0	19.9	4	6.1	4	-1E+10	1	-1E+10	1	-1E+10	1	-1E+10	1	-1E+10	1	-1E+10	1
4902643	25	C	02/26/2025	09:36	-133.620	43.134	0	1409.70	0	2.6670	0	34.5030	0	27.527	0	1393.780	0	20.7	4	6.3	4	-1E+10	1	-1E+10	1	-1E+10	1	-1E+10	1	-1E+10	1	-1E+10	1
4902643	25	C	02/26/2025	09:36	-133.620	43.134	0	1430.50	0	2.6430	0	34.5060	0	27.531	0	1414.276	0	21.5	4	6.6	4	-1E+10	1	-1E+10	1	-1E+10	1	-1E+10	1	-1E+10	1	-1E+10	1
4902643	25	C	02/26/2025	09:36	-133.620	43.134	0	1449.60	0	2.6200	0	34.5090	0	27.536	0	1433.094	0	22.5	4	6.9	4	-1E+10	1	-1E+10	1	-1E+10	1	-1E+10	1	-1E+10	1	-1E+10	1
4902643	25	C	02/26/2025	09:36	-133.620	43.134	0	1469.70	0	2.5800	0	34.5140	0	27.543	0	1452.896	0	23.8	4	7.3	4	-1E+10	1	-1E+10	1	-1E+10	1	-1E+10	1	-1E+10	1	-1E+10	1
4902643	25	C	02/26/2025	09:36	-133.620	43.134	0	1489.80	0	2.5430	0	34.5190	0	27.550	0	1472.697	0	24.9	4	7.6	4	-1E+10	1	-1E+10	1	-1E+10	1	-1E+10	1	-1E+10	1	-1E+10	1
4902643	25	C	02/26/2025	09:36	-133.620	43.134	0	1510.00	0	2.5150	0	34.5220	0	27.555	0	1492.593	0	25.9	4	7.9	4	-1E+10	1	-1E+10	1	-1E+10	1	-1E+10	1	-1E+10	1	-1E+10	1
4902643	25	C	02/26/2025	09:36	-133.620	43.134	0	1529.50	0	2.4780	0	34.5260	0	27.562	0	1511.799	0	27.1	4	8.3	4	-1E+10	1	-1E+10	1	-1E+10	1	-1E+10	1	-1E+10	1	-1E+10	1
4902643	25	C	02/26/2025	09:36	-133.620	43.134	0	1549.30	0	2.4390	0	34.5300	0	27.568	0	1531.298	0	28.1	4	8.6	4	-1E+10	1	-1E+10	1	-1E+10	1	-1E+10	1	-1E+10	1	-1E+10	1
4902643	25	C	02/26/2025	09:36	-133.620	43.134	0	1569.60	0	2.4120	0	34.5330	0	27.573	0	1551.288	0	29.0	4	8.8	4	-1E+10	1	-1E+10	1	-1E+10	1	-1E+10	1	-1E+10	1	-1E+10	1
4902643	25	C	02/26/2025	09:36	-133.620	43.134	0	1590.00	0	2.3920	0	34.5360	0	27.577	0	1571.374	0	29.9	4	9.1	4	-1E+10	1	-1E+10	1	-1E+10	1	-1E+10	1	-1E+10	1	-1E+10	1
4902643	25	C	02/26/2025	09:36	-133.620	43.134	0	1610.00	0	2.3700	0	34.5390	0	27.581	0	1591.065	0	30.9	4	9.4	4	-1E+10	1	-1E+10	1	-1E+10	1	-1E+10	1	-1E+10	1	-1E+10	1
4902643	25	C	02/26/2025	09:36	-133.620	43.134	0	1629.60	0	2.3480	0	34.5410	0	27.585	0	1610.360	0	31.8	4	9.7	4	-1E+10	1	-1E+10	1	-1E+10	1	-1E+10	1	-1E+10	1	-1E+10	1
4902643	25	C	02/26/2025	09:36	-133.620	43.134	0	1649.50	0	2.3230	0	34.5440	0	27.589	0	1629.948	0	32.9	4	10.0	4	-1E+10	1	-1E+10	1	-1E+10	1	-1E+10	1	-1E+10	1	-1E+10	1
4902643	25	C	02/26/2025	09:36	-133.620	43.134	0	1669.70	0	2.2980	0	34.5480	0	27.595	0	1649.830	0	34.2	4	10.4	4	-1E+10	1	-1E+10	1	-1E+10	1	-1E+10	1	-1E+10	1	-1E+10	1
4902643	25	C	02/26/2025	09:36	-133.620	43.134	0	1690.10	0	2.2670	0	34.5520	0	27.601	0	1669.907	0	35.7	4	10.8	4	-1E+10	1	-1E+10	1	-1E+10	1	-1E+10	1	-1E+10	1	-1E+10	1
4902643	25	C	02/26/2025	09:36	-133.620	43.134	0	1709.90	0	2.2390	0	34.5560	0	27.606	0	1689.392	0	37.1	4	11.2	4	-1E+10	1	-1E+10	1	-1E+10	1	-1E+10	1	-1E+10	1	-1E+10	1
4902643	25	C	02/26/2025	09:36	-133.620	43.134	0	1729.80	0	2.2150	0	34.5590	0	27.611	0	1708.973	0	38.3	4	11.6	4	-1E+10	1	-1E+10	1	-1E+10	1	-1E+10	1	-1E+10	1	-1E+10	1
4902643	25	C	02/26/2025	09:36	-133.620	43.134	0	1750.00	0	2.1880	0	34.5620	0	27.615	0	1728.848	0	39.7	4	12.0	4	-1E+10	1	-1E+10	1	-1E+10	1	-1E+10	1	-1E+10	1	-1E+10	1
4902643	25	C	02/26/2025	09:36	-133.620	43.134	0	1770.20	0	2.1670	0	34.5660	0	27.620	0	1748.720	0	40.7	4	12.3	4	-1E+10	1	-1E+10	1	-1E+10	1	-1E+10	1	-1E+10	1	-1E+10	1
4902643	25	C	02/26/2025	09:36	-133.620	43.134	0	1790.40	0	2.1490	0	34.5680	0	27.623	0	1768.591	0	41.9	4	12.7	4	-1E+10	1	-1E+10	1	-1E+10	1	-1E+10	1	-1E+10	1	-1E+10	1
4902643	25	C	02/26/2025	09:36	-133.620	43.134	0	1809.50	0	2.1310	0	34.5710	0	27.627	0	1787.378	0	43.1	4	13.0	4	-1E+10	1	-1E+10	1	-1E+10	1	-1E+10	1	-1E+10	1	-1E+10	1
4902643	25	C	02/26/2025	09:36	-133.620	43.134	0	1829.70	0	2.1080	0	34.5740	0	27.632	0	1807.245	0	44.8	4	13.5	4	-1E+10	1	-1E+10	1	-1E+10	1	-1E+10	1	-1E+10	1	-1E+10	1
4902643	25	C	02/26/2025	09:36	-133.620	43.134	0	1849.80	0	2.0870	0	34.5770	0	27.636	0	1827.012	0	46.2	4	14.0	4	-1E+10	1	-1E+10	1	-1E+10	1	-1E+10	1	-1E+10	1	-1E+10	1
4902643	25	C	02/26/2025	09:36	-133.620	43.134	0	1869.60	0	2.0690	0	34.5800	0	27.640	0	1846.482	0	47.4	4	14.3	4	-1E+10	1	-1E+10	1	-1E+10	1	-1E+10	1	-1E+10	1	-1E+10	1
4902643	25	C	02/26/2025	09:36	-133.620	43.134	0	1889.60	0	2.0490	0	34.5830	0	27.644	0	1866.147	0	48.7	4	14.7	4	-1E+10	1	-1E+10	1	-1E+10	1	-1E+10	1	-1E+10	1	-1E+10	1
4902643	25	C	02/26/2025	09:36	-133.620	43.134	0	1909.60	0	2.0320	0	34.5850	0	27.647	0	1885.811	0	50.0	4	15.1	4	-1E+10	1	-1E+10	1	-1E+10	1	-1E+10	1	-1E+10	1	-1E+10	1
4902643	25	C	02/26/2025	09:36	-133.620	43.134	0	1929.70	0	2.0120	0	34.5890	0	27.652	0	1905.570	0	51.5	4	15.5	4	-1E+10	1	-1E+10	1	-1E+10	1	-1E+10	1	-1E+10	1	-1E+10	1
4902643	25	C	02/26/2025	09:36	-133.620	43.134	0	1949.70	0	1.9970	0	34.5910	0	27.655	0	1925.230	0	52.6	4	15.9	4	-1E+10	1	-1E+10	1	-1E+10	1	-1E+10	1	-1E+10	1	-1E+10	1
4902643	25	C	02/26/2025	09:36	-133.620	43.134	0	1969.70	0	1.9800	0	34.5930	0	27.658	0	1944.888	0	53.8	4	16.2	4	-1E+10	1	-1E+10	1	-1E+10	1	-1E+10	1	-1E+10	1	-1E+10	1
4902643	25	C	02/26/2025	09:36	-133.620	43.134	0	1989.80	0	1.9630	0	34.5960	0	27.661	0	1964.642	0	54.9	4	16.5	4	-1E+10	1	-1E+10	1	-1E+10	1	-1E+10	1	-1E+10	1	-1E+10	1
4902643	25	C	02/26/2025	09:36	-133.620	43.134	0	2010.10	0	1.9490	0	34.5980	4	27.664	0	1984.591	0	56.0	4	16.9	4	-1E+10	1	-1E+10	1	-1E+10	1	-1E+10	1	-1E+10	1	-1E+10	1
4902643	25	C	02/26/2025	09:36	-133.620	43.134	0	2029.80	0	1.9330	0	34.6000	4	27.667	0	2003.948	0	57.2	4	17.2	4	-1E+10	1	-1E+10	1	-1E+10	1	-1E+10	1	-1E+10	1	-1E+10	1
4902643	25	C	02/26/2025	09:36	-133.620	43.134	0	2049.40	0	1.9180	0	34.6020	4	27.670	0	2023.206	0	58.2	4	17.5	4	-1E+10	1	-1E+10	1	-1E+10	1	-1E+10	1	-1E+10	1	-1E+10	1
4902643	25	C	02/26/2025	09:36	-133.620	43.134	0	2069.40	0	1.9070	0	34.6030	4	27.672	0	2042.854	0	58.9	4	17.7	4	-1E+10	1	-1E+10	1	-1E+10	1	-1E+10	1	-1E+10	1	-1E+10	1
4902643	25	C	02/26/2025	09:36	-133.620	43.134	0	2089.60	0	1.8990	0	34.6050	4	27.674	0	2062.698	0	59.6	4	17.9	4	-1E+10	1	-1E+10	1	-1E+10	1	-1E+10	1	-1E+10	1	-1E+10	1
4902643	25	C	02/26/2025	09:36	-133.620	43.134	0	2110.40	0	1.8900	0	34.6060	4	27.676	0	2083.128	0	60.4	4	18.2	4	-1E+10	1	-1E+10	1	-1E+10	1	-1E+10	1	-1E+10	1	-1E+10	1
4902643	25	C	02/26/2025	09:36	-133.620	43.134	0	2130.00	0	1.8810	0	34.6070	4	27.677	0	2102.379	0	61.1	4	18.4	4	-1E+10	1	-1E+10	1	-1E+10	1	-1E+10	1	-1E+10	1	-1E+10	1
4902643	25	C	02/26/2025	09:36	-133.620	43.134	0	2149.90	0	1.8740	0	34.6090	4	27.680	0	2121.922	0	62.0	4	18.6	4	-1E+10	1	-1E+10	1	-1E+10	1	-1E+10	1	-1E+10	1	-1E+10	1
4902643	25	C	02/26/2025	09:36	-133.620	43.134	0	2169.80	0	1.8620	0	34.6110	4	27.682	0	2141.463	0	63.0	4	18.9	4	-1E+10	1	-1E+10	1	-1E+10	1	-1E+10	1	-1E+10	1	-1E+10	1
4902643	25	C	02/26/2025	09:36	-133.620	43.134	0	2189.60	0	1.8530	0	34.6120	4	27.684	0	2160.905	0	63.6	4	19.1	4	-1E+10	1	-1E+10	1	-1E+10	1	-1E+10	1	-1E+10	1	-1E+10	1
4902643	25	C	02/26/2025	09:36	-133.620	43.134	0	2209.80	0	1.8470	0	34.6130	4	27.685	0	2180.737	0	64.2	4	19.3	4	-1E+10	1	-1E+10	1	-1E+10	1	-1E+10	1	-1E+10	1	-1E+10	1
4902643	25	C	02/26/2025	09:36	-133.620	43.134	0	2229.60	0	1.8410	0	34.6140	4	27.687	0	2200.175	0	64.9	4	19.5	4	-1E+10	1	-1E+10	1	-1E+10	1	-1E+10	1	-1E+10	1	-1E+10	1
4902643	25	C	02/26/2025	09:36	-133.620	43.134	0	2249.80	0	1.8330	0	34.6150	4	27.688	0	2220.004	0	65.7	4	19.7	4	-1E+10	1	-1E+10	1	-1E+10	1	-1E+10	1	-1E+10	1	-1E+10	1
4902643	25	C	02/26/2025	09:36	-133.620	43.134	0	2270.00	0	1.8240	0	34.6170	4	27.690	0	2239.830	0	66.5	4	20.0	4	-1E+10	1	-1E+10	1	-1E+10	1	-1E+10	1	-1E+10	1	-1E+10	1
4902643	25	C	02/26/2025	09:36	-133.620	43.134	0	2290.10	0	1.8170	0	34.6180	4	27.692	0	2259.557	0	67.4	4	20.2	4	-1E+10	1	-1E+10	1	-1E+10	1	-1E+10	1	-1E+10	1	-1E+10	1
4902643	25	C	02/26/2025	09:36	-133.620	43.134	0	2309.80	0	1.8100	0	34.6190	4	27.693	0	2278.890	0	68.2	4	20.5	4	-1E+10	1	-1E+10	1	-1E+10	1	-1E+10	1	-1E+10	1	-1E+10	1
4902643	25	C	02/26/2025	09:36	-133.620	43.134	0	2329.60	0	1.8040	0	34.6210	4	27.696	0	2298.319	0	69.2	4	20.8	4	-1E+10	1	-1E+10	1	-1E+10	1	-1E+10	1	-1E+10	1	-1E+10	1
4902643	25	C	02/26/2025	09:36	-133.620	43.134	0	2349.60	0	1.7950	0	34.6220	4	27.697	0	2317.942	0	69.9	4	21.0	4	-1E+10	1	-1E+10	1	-1E+10	1	-1E+10	1	-1E+10	1	-1E+10	1
4902643	25	C	02/26/2025	09:36	-133.620	43.134	0	2370.40	0	1.7900	0	34.6230	4	27.698	0	2338.348	0	70.4	4	21.1	4	-1E+10	1	-1E+10	1	-1E+10	1	-1E+10	1	-1E+10	1	-1E+10	1
4902643	25	C	02/26/2025	09:36	-133.620	43.134	0	2389.70	0	1.7840	0	34.6240	4	27.700	0	2357.282	0	71.2	4	21.3	4	-1E+10	1	-1E+10	1	-1E+10	1	-1E+10	1	-1E+10	1	-1E+10	1
4902643	25	C	02/26/2025	09:36	-133.620	43.134	0	2409.50	0	1.7770	0	34.6250	4	27.701	0	2376.703	0	72.0	4	21.6	4	-1E+10	1	-1E+10	1	-1E+10	1	-1E+10	1	-1E+10	1	-1E+10	1
4902643	25	C	02/26/2025	09:36	-133.620	43.134	0	2429.50	0	1.7670	0	34.6260	4	27.703	0	2396.320	0	72.7	4	21.8	4	-1E+10	1	-1E+10	1	-1E+10	1	-1E+10	1	-1E+10	1	-1E+10	1
4902643	25	C	02/26/2025	09:36	-133.620	43.134	0	2449.60	0	1.7620	0	34.6270	4	27.704	0	2416.032	0	73.5	4	22.0	4	-1E+10	1	-1E+10	1	-1E+10	1	-1E+10	1	-1E+10	1	-1E+10	1
4902643	25	C	02/26/2025	09:36	-133.620	43.134	0	2470.20	0	1.7540	0	34.6280	4	27.706	0	2436.233	0	74.4	4	22.3	4	-1E+10	1	-1E+10	1	-1E+10	1	-1E+10	1	-1E+10	1	-1E+10	1
4902643	25	C	02/26/2025	09:36	-133.620	43.134	0	2489.60	0	1.7440	0	34.6290	4	27.707	0	2455.256	0	75.4	4	22.6	4	-1E+10	1	-1E+10	1	-1E+10	1	-1E+10	1	-1E+10	1	-1E+10	1
4902643	25	C	02/26/2025	09:36	-133.620	43.134	0	2509.90	0	1.7360	0	34.6310	4	27.710	0	2475.159	0	76.3	4	22.9	4	-1E+10	1	-1E+10	1	-1E+10	1	-1E+10	1	-1E+10	1	-1E+10	1
4902643	25	C	02/26/2025	09:36	-133.620	43.134	0	2530.10	0	1.7300	0	34.6320	4	27.711	0	2494.962	0	77.5	4	23.2	4	-1E+10	1	-1E+10	1	-1E+10	1	-1E+10	1	-1E+10	1	-1E+10	1
4902643	25	C	02/26/2025	09:36	-133.620	43.134	0	2550.00	0	1.7240	0	34.6330	4	27.712	0	2514.469	0	78.3	4	23.4	4	-1E+10	1	-1E+10	1	-1E+10	1	-1E+10	1	-1E+10	1	-1E+10	1
4902643	25	C	02/26/2025	09:36	-133.620	43.134	0	2569.80	0	1.7170	0	34.6340	4	27.714	0	2533.877	0	79.2	4	23.7	4	-1E+10	1	-1E+10	1	-1E+10	1	-1E+10	1	-1E+10	1	-1E+10	1
4902643	25	C	02/26/2025	09:36	-133.620	43.134	0	2590.00	0	1.7110	0	34.6350	4	27.715	0	2553.675	0	80.1	4	24.0	4	-1E+10	1	-1E+10	1	-1E+10	1	-1E+10	1	-1E+10	1	-1E+10	1
4902643	25	C	02/26/2025	09:36	-133.620	43.134	0	2609.80	0	1.7030	0	34.6360	4	27.717	0	2573.079	0	81.0	4	24.3	4	-1E+10	1	-1E+10	1	-1E+10	1	-1E+10	1	-1E+10	1	-1E+10	1
4902643	25	C	02/26/2025	09:36	-133.620	43.134	0	2629.60	0	1.6950	0	34.6370	4	27.718	0	2592.481	0	81.7	4	24.5	4	-1E+10	1	-1E+10	1	-1E+10	1	-1E+10	1	-1E+10	1	-1E+10	1
4902643	25	C	02/26/2025	09:36	-133.620	43.134	0	2649.50	0	1.6890	0	34.6380	4	27.720	0	2611.980	0	82.3	4	24.6	4	-1E+10	1	-1E+10	1	-1E+10	1	-1E+10	1	-1E+10	1	-1E+10	1
4902643	25	C	02/26/2025	09:36	-133.620	43.134	0	2669.60	0	1.6830	0	34.6390	4	27.721	0	2631.673	0	82.9	4	24.8	4	-1E+10	1	-1E+10	1	-1E+10	1	-1E+10	1	-1E+10	1	-1E+10	1
4902643	25	C	02/26/2025	09:36	-133.620	43.134	0	2689.70	0	1.6780	0	34.6400	4	27.722	0	2651.363	0	83.5	4	25.0	4	-1E+10	1	-1E+10	1	-1E+10	1	-1E+10	1	-1E+10	1	-1E+10	1
4902643	25	C	02/26/2025	09:36	-133.620	43.134	0	2709.60	0	1.6720	0	34.6390	4	27.722	0	2670.857	0	83.7	4	25.0	4	-1E+10	1	-1E+10	1	-1E+10	1	-1E+10	1	-1E+10	1	-1E+10	1
4902643	25	C	02/26/2025	09:36	-133.620	43.134	0	2729.60	0	1.6650	0	34.6400	4	27.723	0	2690.446	0	84.6	4	25.3	4	-1E+10	1	-1E+10	1	-1E+10	1	-1E+10	1	-1E+10	1	-1E+10	1
4902643	25	C	02/26/2025	09:36	-133.620	43.134	0	2750.60	0	1.6600	0	34.6410	4	27.725	0	2711.013	0	85.5	4	25.6	4	-1E+10	1	-1E+10	1	-1E+10	1	-1E+10	1	-1E+10	1	-1E+10	1
4902643	25	C	02/26/2025	09:36	-133.620	43.134	0	2770.10	0	1.6540	0	34.6430	4	27.727	0	2730.109	0	86.6	4	25.9	4	-1E+10	1	-1E+10	1	-1E+10	1	-1E+10	1	-1E+10	1	-1E+10	1
4902643	25	C	02/26/2025	09:36	-133.620	43.134	0	2790.10	0	1.6510	0	34.6440	4	27.728	0	2749.693	0	87.6	4	26.2	4	-1E+10	1	-1E+10	1	-1E+10	1	-1E+10	1	-1E+10	1	-1E+10	1
4902643	25	C	02/26/2025	09:36	-133.620	43.134	0	2810.00	0	1.6460	0	34.6450	4	27.729	0	2769.178	0	88.3	4	26.4	4	-1E+10	1	-1E+10	1	-1E+10	1	-1E+10	1	-1E+10	1	-1E+10	1
4902643	25	C	02/26/2025	09:36	-133.620	43.134	0	2829.70	0	1.6410	0	34.6450	4	27.730	0	2788.464	0	88.8	4	26.5	4	-1E+10	1	-1E+10	1	-1E+10	1	-1E+10	1	-1E+10	1	-1E+10	1
4902643	25	C	02/26/2025	09:36	-133.620	43.134	0	2849.70	0	1.6370	0	34.6460	4	27.731	0	2808.043	0	89.5	4	26.8	4	-1E+10	1	-1E+10	1	-1E+10	1	-1E+10	1	-1E+10	1	-1E+10	1
4902643	25	C	02/26/2025	09:36	-133.620	43.134	0	2869.90	0	1.6340	0	34.6470	4	27.732	0	2827.816	0	90.1	4	26.9	4	-1E+10	1	-1E+10	1	-1E+10	1	-1E+10	1	-1E+10	1	-1E+10	1
4902643	25	C	02/26/2025	09:36	-133.620	43.134	0	2889.90	0	1.6300	0	34.6470	4	27.733	0	2847.391	0	90.7	4	27.1	4	-1E+10	1	-1E+10	1	-1E+10	1	-1E+10	1	-1E+10	1	-1E+10	1
4902643	25	C	02/26/2025	09:36	-133.620	43.134	0	2910.00	0	1.6270	0	34.6480	4	27.734	0	2867.062	0	91.2	4	27.3	4	-1E+10	1	-1E+10	1	-1E+10	1	-1E+10	1	-1E+10	1	-1E+10	1
4902643	25	C	02/26/2025	09:36	-133.620	43.134	0	2929.80	0	1.6230	0	34.6480	4	27.734	0	2886.438	0	91.7	4	27.4	4	-1E+10	1	-1E+10	1	-1E+10	1	-1E+10	1	-1E+10	1	-1E+10	1
4902643	25	C	02/26/2025	09:36	-133.620	43.134	0	2950.40	0	1.6190	0	34.6490	4	27.735	0	2906.595	0	92.4	4	27.6	4	-1E+10	1	-1E+10	1	-1E+10	1	-1E+10	1	-1E+10	1	-1E+10	1
4902643	25	C	02/26/2025	09:36	-133.620	43.134	0	2969.90	0	1.6140	0	34.6500	4	27.737	0	2925.674	0	93.0	4	27.8	4	-1E+10	1	-1E+10	1	-1E+10	1	-1E+10	1	-1E+10	1	-1E+10	1
4902643	25	C	02/26/2025	09:36	-133.620	43.134	0	2990.50	0	1.6110	0	34.6500	4	27.737	0	2945.827	0	93.7	4	28.0	4	-1E+10	1	-1E+10	1	-1E+10	1	-1E+10	1	-1E+10	1	-1E+10	1
4902643	25	C	02/26/2025	09:36	-133.620	43.134	0	3009.80	0	1.6060	0	34.6510	4	27.738	0	2964.707	0	94.4	4	28.2	4	-1E+10	1	-1E+10	1	-1E+10	1	-1E+10	1	-1E+10	1	-1E+10	1
4902643	25	C	02/26/2025	09:36	-133.620	43.134	0	3029.80	0	1.6040	0	34.6520	4	27.739	0	2984.270	0	94.8	4	28.3	4	-1E+10	1	-1E+10	1	-1E+10	1	-1E+10	1	-1E+10	1	-1E+10	1
4902643	25	C	02/26/2025	09:36	-133.620	43.134	0	3049.70	0	1.5990	0	34.6520	4	27.740	0	3003.733	0	95.2	4	28.4	4	-1E+10	1	-1E+10	1	-1E+10	1	-1E+10	1	-1E+10	1	-1E+10	1
4902643	25	C	02/26/2025	09:36	-133.620	43.134	0	3069.70	0	1.5960	0	34.6530	4	27.741	0	3023.292	0	95.6	4	28.5	4	-1E+10	1	-1E+10	1	-1E+10	1	-1E+10	1	-1E+10	1	-1E+10	1
4902643	25	C	02/26/2025	09:36	-133.620	43.134	0	3090.00	0	1.5940	0	34.6530	4	27.741	0	3043.143	0	96.2	4	28.7	4	-1E+10	1	-1E+10	1	-1E+10	1	-1E+10	1	-1E+10	1	-1E+10	1
4902643	25	C	02/26/2025	09:36	-133.620	43.134	0	3109.90	0	1.5910	0	34.6540	4	27.742	0	3062.601	0	96.8	4	28.9	4	-1E+10	1	-1E+10	1	-1E+10	1	-1E+10	1	-1E+10	1	-1E+10	1
4902643	25	C	02/26/2025	09:36	-133.620	43.134	0	3130.10	0	1.5860	0	34.6540	4	27.743	0	3082.351	0	97.4	4	29.1	4	-1E+10	1	-1E+10	1	-1E+10	1	-1E+10	1	-1E+10	1	-1E+10	1
4902643	25	C	02/26/2025	09:36	-133.620	43.134	0	3149.70	0	1.5810	0	34.6550	4	27.744	0	3101.512	0	98.0	4	29.2	4	-1E+10	1	-1E+10	1	-1E+10	1	-1E+10	1	-1E+10	1	-1E+10	1
4902643	25	C	02/26/2025	09:36	-133.620	43.134	0	3169.60	0	1.5790	0	34.6550	4	27.745	0	3120.965	0	98.5	4	29.4	4	-1E+10	1	-1E+10	1	-1E+10	1	-1E+10	1	-1E+10	1	-1E+10	1
4902643	25	C	02/26/2025	09:36	-133.620	43.134	0	3189.80	0	1.5760	0	34.6560	4	27.746	0	3140.709	0	99.0	4	29.6	4	-1E+10	1	-1E+10	1	-1E+10	1	-1E+10	1	-1E+10	1	-1E+10	1
4902643	25	C	02/26/2025	09:36	-133.620	43.134	0	3210.10	0	1.5730	0	34.6570	4	27.747	0	3160.549	0	99.5	4	29.7	4	-1E+10	1	-1E+10	1	-1E+10	1	-1E+10	1	-1E+10	1	-1E+10	1
4902643	25	C	02/26/2025	09:36	-133.620	43.134	0	3229.60	0	1.5700	0	34.6570	4	27.747	0	3179.606	0	100.1	4	29.9	4	-1E+10	1	-1E+10	1	-1E+10	1	-1E+10	1	-1E+10	1	-1E+10	1
4902643	25	C	02/26/2025	09:36	-133.620	43.134	0	3250.00	0	1.5670	0	34.6580	4	27.748	0	3199.540	0	100.6	4	30.0	4	-1E+10	1	-1E+10	1	-1E+10	1	-1E+10	1	-1E+10	1	-1E+10	1
4902643	25	C	02/26/2025	09:36	-133.620	43.134	0	3269.60	0	1.5660	0	34.6580	4	27.749	0	3218.691	0	101.0	4	30.1	4	-1E+10	1	-1E+10	1	-1E+10	1	-1E+10	1	-1E+10	1	-1E+10	1
4902643	25	C	02/26/2025	09:36	-133.620	43.134	0	3289.50	0	1.5630	0	34.6590	4	27.750	0	3238.134	0	101.4	4	30.3	4	-1E+10	1	-1E+10	1	-1E+10	1	-1E+10	1	-1E+10	1	-1E+10	1
4902643	25	C	02/26/2025	09:36	-133.620	43.134	0	3309.70	0	1.5620	0	34.6590	4	27.750	0	3257.867	0	101.9	4	30.4	4	-1E+10	1	-1E+10	1	-1E+10	1	-1E+10	1	-1E+10	1	-1E+10	1
4902643	25	C	02/26/2025	09:36	-133.620	43.134	0	3329.60	0	1.5600	0	34.6600	4	27.751	0	3277.306	0	102.4	4	30.5	4	-1E+10	1	-1E+10	1	-1E+10	1	-1E+10	1	-1E+10	1	-1E+10	1
4902643	25	C	02/26/2025	09:36	-133.620	43.134	0	3350.40	0	1.5580	0	34.6600	4	27.751	0	3297.622	0	102.8	4	30.7	4	-1E+10	1	-1E+10	1	-1E+10	1	-1E+10	1	-1E+10	1	-1E+10	1
4902643	25	C	02/26/2025	09:36	-133.620	43.134	0	3369.70	0	1.5570	0	34.6600	4	27.751	0	3316.471	0	103.1	4	30.8	4	-1E+10	1	-1E+10	1	-1E+10	1	-1E+10	1	-1E+10	1	-1E+10	1
4902643	25	C	02/26/2025	09:36	-133.620	43.134	0	3390.20	0	1.5550	0	34.6610	4	27.753	0	3336.491	0	103.6	4	30.9	4	-1E+10	1	-1E+10	1	-1E+10	1	-1E+10	1	-1E+10	1	-1E+10	1
4902643	25	C	02/26/2025	09:36	-133.620	43.134	0	3409.70	0	1.5530	0	34.6620	4	27.754	0	3355.532	0	104.1	4	31.1	4	-1E+10	1	-1E+10	1	-1E+10	1	-1E+10	1	-1E+10	1	-1E+10	1
4902643	25	C	02/26/2025	09:36	-133.620	43.134	0	3430.20	0	1.5510	0	34.6620	4	27.754	0	3375.548	0	104.6	4	31.2	4	-1E+10	1	-1E+10	1	-1E+10	1	-1E+10	1	-1E+10	1	-1E+10	1
4902643	25	C	02/26/2025	09:36	-133.620	43.134	0	3450.20	0	1.5500	0	34.6630	4	27.755	0	3395.074	0	104.8	4	31.3	4	-1E+10	1	-1E+10	1	-1E+10	1	-1E+10	1	-1E+10	1	-1E+10	1
4902643	25	C	02/26/2025	09:36	-133.620	43.134	0	3470.40	0	1.5500	0	34.6630	4	27.755	0	3414.794	0	105.1	4	31.4	4	-1E+10	1	-1E+10	1	-1E+10	1	-1E+10	1	-1E+10	1	-1E+10	1
4902643	25	C	02/26/2025	09:36	-133.620	43.134	0	3490.00	0	1.5500	0	34.6630	4	27.755	0	3433.926	0	105.4	4	31.4	4	-1E+10	1	-1E+10	1	-1E+10	1	-1E+10	1	-1E+10	1	-1E+10	1
4902643	25	C	02/26/2025	09:36	-133.620	43.134	0	3509.60	0	1.5490	0	34.6640	4	27.756	0	3453.056	0	105.8	4	31.6	4	-1E+10	1	-1E+10	1	-1E+10	1	-1E+10	1	-1E+10	1	-1E+10	1
4902643	25	C	02/26/2025	09:36	-133.620	43.134	0	3530.40	0	1.5490	0	34.6640	4	27.756	0	3473.356	0	106.1	4	31.6	4	-1E+10	1	-1E+10	1	-1E+10	1	-1E+10	1	-1E+10	1	-1E+10	1
4902643	25	C	02/26/2025	09:36	-133.620	43.134	0	3550.10	0	1.5490	0	34.6650	4	27.757	0	3492.580	0	106.4	4	31.7	4	-1E+10	1	-1E+10	1	-1E+10	1	-1E+10	1	-1E+10	1	-1E+10	1
4902643	25	C	02/26/2025	09:36	-133.620	43.134	0	3570.00	0	1.5480	0	34.6650	4	27.758	0	3511.998	0	106.8	4	31.8	4	-1E+10	1	-1E+10	1	-1E+10	1	-1E+10	1	-1E+10	1	-1E+10	1
4902643	25	C	02/26/2025	09:36	-133.620	43.134	0	3589.90	0	1.5470	0	34.6650	4	27.758	0	3531.415	0	107.1	4	32.0	4	-1E+10	1	-1E+10	1	-1E+10	1	-1E+10	1	-1E+10	1	-1E+10	1
4902643	25	C	02/26/2025	09:36	-133.620	43.134	0	3609.90	0	1.5470	0	34.6660	4	27.759	0	3550.927	0	107.4	4	32.0	4	-1E+10	1	-1E+10	1	-1E+10	1	-1E+10	1	-1E+10	1	-1E+10	1
4902643	25	C	02/26/2025	09:36	-133.620	43.134	0	3630.00	0	1.5480	0	34.6660	4	27.759	0	3570.535	0	107.5	4	32.1	4	-1E+10	1	-1E+10	1	-1E+10	1	-1E+10	1	-1E+10	1	-1E+10	1
4902643	25	C	02/26/2025	09:36	-133.620	43.134	0	3649.90	0	1.5480	0	34.6660	4	27.759	0	3589.946	0	107.7	4	32.1	4	-1E+10	1	-1E+10	1	-1E+10	1	-1E+10	1	-1E+10	1	-1E+10	1
4902643	25	C	02/26/2025	09:36	-133.620	43.134	0	3670.10	0	1.5490	0	34.6670	4	27.760	0	3609.648	0	107.9	4	32.2	4	-1E+10	1	-1E+10	1	-1E+10	1	-1E+10	1	-1E+10	1	-1E+10	1
4902643	25	C	02/26/2025	09:36	-133.620	43.134	0	3689.90	0	1.5490	0	34.6670	4	27.760	0	3628.958	0	108.2	4	32.3	4	-1E+10	1	-1E+10	1	-1E+10	1	-1E+10	1	-1E+10	1	-1E+10	1
4902643	25	C	02/26/2025	09:36	-133.620	43.134	0	3710.00	0	1.5490	0	34.6680	4	27.761	0	3648.559	0	108.4	4	32.3	4	-1E+10	1	-1E+10	1	-1E+10	1	-1E+10	1	-1E+10	1	-1E+10	1
4902643	25	C	02/26/2025	09:36	-133.620	43.134	0	3729.70	0	1.5490	0	34.6680	4	27.761	0	3667.768	0	108.6	4	32.4	4	-1E+10	1	-1E+10	1	-1E+10	1	-1E+10	1	-1E+10	1	-1E+10	1
4902643	25	C	02/26/2025	09:36	-133.620	43.134	0	3750.10	0	1.5490	0	34.6690	4	27.762	0	3687.658	0	108.8	4	32.5	4	-1E+10	1	-1E+10	1	-1E+10	1	-1E+10	1	-1E+10	1	-1E+10	1
4902643	25	C	02/26/2025	09:36	-133.620	43.134	0	3770.60	0	1.5500	0	34.6690	4	27.762	0	3707.644	0	108.8	4	32.4	4	-1E+10	1	-1E+10	1	-1E+10	1	-1E+10	1	-1E+10	1	-1E+10	1
4902643	25	C	02/26/2025	09:36	-133.620	43.134	0	3790.70	0	1.5510	0	34.6690	4	27.762	0	3727.238	0	108.6	4	32.4	4	-1E+10	1	-1E+10	1	-1E+10	1	-1E+10	1	-1E+10	1	-1E+10	1
4902643	25	C	02/26/2025	09:36	-133.620	43.134	0																										
4902643	26	C	03/08/2025	12:35	-133.539	43.119	0	0.70	0	10.6890	0	32.7390	0	25.070	0	0.694	0	256.0	4	93.1	4	-1E+10	1	-1E+10	1	-1E+10	1	-1E+10	1	-1E+10	1	-1E+10	1
4902643	26	C	03/08/2025	12:35	-133.539	43.119	0	0.80	0	10.6895	0	32.7387	0	25.070	0	0.794	0	256.0	4	93.1	4	-1E+10	1	-1E+10	1	-1E+10	1	-1E+10	1	-1E+10	1	-1E+10	1
4902643	26	C	03/08/2025	12:35	-133.539	43.119	0	0.90	0	10.6900	0	32.7380	0	25.069	0	0.893	0	255.9	4	93.1	4	-1E+10	1	-1E+10	1	-1E+10	1	-1E+10	1	-1E+10	1	-1E+10	1
4902643	26	C	03/08/2025	12:35	-133.539	43.119	0	1.00	0	10.6910	0	32.7400	0	25.071	0	0.992	0	255.6	4	92.9	4	-1E+10	1	-1E+10	1	-1E+10	1	-1E+10	1	-1E+10	1	-1E+10	1
4902643	26	C	03/08/2025	12:35	-133.539	43.119	0	1.40	0	10.6920	0	32.7390	0	25.070	0	1.389	0	255.6	4	92.9	4	-1E+10	1	-1E+10	1	-1E+10	1	-1E+10	1	-1E+10	1	-1E+10	1
4902643	26	C	03/08/2025	12:35	-133.539	43.119	0	2.60	0	10.6930	0	32.7390	0	25.070	0	2.579	0	255.5	4	92.9	4	-1E+10	1	-1E+10	1	-1E+10	1	-1E+10	1	-1E+10	1	-1E+10	1
4902643	26	C	03/08/2025	12:35	-133.539	43.119	0	3.60	0	10.6940	0	32.7390	0	25.069	0	3.571	0	255.5	4	92.9	4	-1E+10	1	-1E+10	1	-1E+10	1	-1E+10	1	-1E+10	1	-1E+10	1
4902643	26	C	03/08/2025	12:35	-133.539	43.119	0	4.50	0	10.6940	0	32.7390	0	25.069	0	4.464	0	255.4	4	92.9	4	-1E+10	1	-1E+10	1	-1E+10	1	-1E+10	1	-1E+10	1	-1E+10	1
4902643	26	C	03/08/2025	12:35	-133.539	43.119	0	5.50	0	10.6950	0	32.7390	0	25.069	0	5.456	0	255.4	4	92.9	4	-1E+10	1	-1E+10	1	-1E+10	1	-1E+10	1	-1E+10	1	-1E+10	1
4902643	26	C	03/08/2025	12:35	-133.539	43.119	0	6.70	0	10.6960	0	32.7390	0	25.069	0	6.647	0	255.3	4	92.9	4	-1E+10	1	-1E+10	1	-1E+10	1	-1E+10	1	-1E+10	1	-1E+10	1
4902643	26	C	03/08/2025	12:35	-133.539	43.119	0	7.60	0	10.6940	0	32.7390	0	25.069	0	7.539	0	255.3	4	92.9	4	-1E+10	1	-1E+10	1	-1E+10	1	-1E+10	1	-1E+10	1	-1E+10	1
4902643	26	C	03/08/2025	12:35	-133.539	43.119	0	8.50	0	10.6950	0	32.7390	0	25.069	0	8.432	0	255.3	4	92.8	4	-1E+10	1	-1E+10	1	-1E+10	1	-1E+10	1	-1E+10	1	-1E+10	1
4902643	26	C	03/08/2025	12:35	-133.539	43.119	0	9.60	0	10.6980	0	32.7390	0	25.069	0	9.524	0	255.3	4	92.9	4	-1E+10	1	-1E+10	1	-1E+10	1	-1E+10	1	-1E+10	1	-1E+10	1
4902643	26	C	03/08/2025	12:35	-133.539	43.119	0	14.90	0	10.6970	0	32.7390	0	25.069	0	14.781	0	255.2	4	92.8	4	-1E+10	1	-1E+10	1	-1E+10	1	-1E+10	1	-1E+10	1	-1E+10	1
4902643	26	C	03/08/2025	12:35	-133.539	43.119	0	24.90	0	10.6990	0	32.7390	0	25.069	0	24.701	0	254.9	4	92.7	4	-1E+10	1	-1E+10	1	-1E+10	1	-1E+10	1	-1E+10	1	-1E+10	1
4902643	26	C	03/08/2025	12:35	-133.539	43.119	0	34.60	0	10.7030	0	32.7400	0	25.069	0	34.322	0	254.6	4	92.6	4	-1E+10	1	-1E+10	1	-1E+10	1	-1E+10	1	-1E+10	1	-1E+10	1
4902643	26	C	03/08/2025	12:35	-133.539	43.119	0	44.50	0	10.7200	0	32.7460	0	25.071	0	44.142	0	253.9	4	92.4	4	-1E+10	1	-1E+10	1	-1E+10	1	-1E+10	1	-1E+10	1	-1E+10	1
4902643	26	C	03/08/2025	12:35	-133.539	43.119	0	54.80	0	10.7240	0	32.7500	0	25.074	0	54.357	0	253.2	4	92.1	4	-1E+10	1	-1E+10	1	-1E+10	1	-1E+10	1	-1E+10	1	-1E+10	1
4902643	26	C	03/08/2025	12:35	-133.539	43.119	0	64.80	0	10.6980	0	32.7500	0	25.078	0	64.275	0	252.2	4	91.7	4	-1E+10	1	-1E+10	1	-1E+10	1	-1E+10	1	-1E+10	1	-1E+10	1
4902643	26	C	03/08/2025	12:35	-133.539	43.119	0	74.50	0	10.6890	0	32.7500	0	25.080	0	73.895	0	250.5	4	91.1	4	-1E+10	1	-1E+10	1	-1E+10	1	-1E+10	1	-1E+10	1	-1E+10	1
4902643	26	C	03/08/2025	12:35	-133.539	43.119	0	84.90	0	10.6780	0	32.7500	0	25.082	0	84.208	0	245.7	4	89.3	4	-1E+10	1	-1E+10	1	-1E+10	1	-1E+10	1	-1E+10	1	-1E+10	1
4902643	26	C	03/08/2025	12:35	-133.539	43.119	0	94.80	0	10.6660	0	32.8060	0	25.128	0	94.025	0	230.7	4	83.9	4	-1E+10	1	-1E+10	1	-1E+10	1	-1E+10	1	-1E+10	1	-1E+10	1
4902643	26	C	03/08/2025	12:35	-133.539	43.119	0	104.70	0	9.8120	0	33.0980	0	25.501	0	103.842	0	217.1	4	77.7	4	-1E+10	1	-1E+10	1	-1E+10	1	-1E+10	1	-1E+10	1	-1E+10	1
4902643	26	C	03/08/2025	12:35	-133.539	43.119	0	114.60	0	9.4470	0	33.2160	0	25.652	0	113.658	0	209.2	4	74.3	4	-1E+10	1	-1E+10	1	-1E+10	1	-1E+10	1	-1E+10	1	-1E+10	1
4902643	26	C	03/08/2025	12:35	-133.539	43.119	0	124.40	0	9.1230	0	33.3700	0	25.825	0	123.374	0	200.8	4	70.9	4	-1E+10	1	-1E+10	1	-1E+10	1	-1E+10	1	-1E+10	1	-1E+10	1
4902643	26	C	03/08/2025	12:35	-133.539	43.119	0	134.90	0	8.8620	0	33.4500	0	25.929	0	133.784	0	192.2	4	67.5	4	-1E+10	1	-1E+10	1	-1E+10	1	-1E+10	1	-1E+10	1	-1E+10	1
4902643	26	C	03/08/2025	12:35	-133.539	43.119	0	144.90	0	8.7000	0	33.5220	0	26.010	0	143.698	0	184.0	4	64.5	4	-1E+10	1	-1E+10	1	-1E+10	1	-1E+10	1	-1E+10	1	-1E+10	1
4902643	26	C	03/08/2025	12:35	-133.539	43.119	0	154.80	0	8.4620	0	33.6150	0	26.120	0	153.512	0	177.1	4	61.8	4	-1E+10	1	-1E+10	1	-1E+10	1	-1E+10	1	-1E+10	1	-1E+10	1
4902643	26	C	03/08/2025	12:35	-133.539	43.119	0	164.90	0	8.2760	0	33.6880	0	26.205	0	163.524	0	176.0	4	61.1	4	-1E+10	1	-1E+10	1	-1E+10	1	-1E+10	1	-1E+10	1	-1E+10	1
4902643	26	C	03/08/2025	12:35	-133.539	43.119	0	174.90	0	8.0900	0	33.7430	0	26.276	0	173.437	0	177.7	4	61.5	4	-1E+10	1	-1E+10	1	-1E+10	1	-1E+10	1	-1E+10	1	-1E+10	1
4902643	26	C	03/08/2025	12:35	-133.539	43.119	0	184.80	0	7.9020	0	33.7890	0	26.340	0	183.250	0	175.0	4	60.3	4	-1E+10	1	-1E+10	1	-1E+10	1	-1E+10	1	-1E+10	1	-1E+10	1
4902643	26	C	03/08/2025	12:35	-133.539	43.119	0	194.80	0	7.7870	0	33.8230	0	26.384	0	193.161	0	167.4	4	57.6	4	-1E+10	1	-1E+10	1	-1E+10	1	-1E+10	1	-1E+10	1	-1E+10	1
4902643	26	C	03/08/2025	12:35	-133.539	43.119	0	210.00	0	7.7030	0	33.8660	0	26.430	0	208.226	0	158.0	4	54.2	4	-1E+10	1	-1E+10	1	-1E+10	1	-1E+10	1	-1E+10	1	-1E+10	1
4902643	26	C	03/08/2025	12:35	-133.539	43.119	0	229.80	0	7.4010	0	33.8770	0	26.482	0	227.847	0	149.8	4	51.1	4	-1E+10	1	-1E+10	1	-1E+10	1	-1E+10	1	-1E+10	1	-1E+10	1
4902643	26	C	03/08/2025	12:35	-133.539	43.119	0	250.30	0	7.0730	0	33.8720	0	26.524	0	248.161	0	141.9	4	48.0	4	-1E+10	1	-1E+10	1	-1E+10	1	-1E+10	1	-1E+10	1	-1E+10	1
4902643	26	C	03/08/2025	12:35	-133.539	43.119	0	269.40	0	6.5610	0	33.8540	0	26.578	0	267.085	0	134.9	4	45.1	4	-1E+10	1	-1E+10	1	-1E+10	1	-1E+10	1	-1E+10	1	-1E+10	1
4902643	26	C	03/08/2025	12:35	-133.539	43.119	0	289.70	0	6.2390	0	33.8420	0	26.611	0	287.197	0	126.0	4	41.9	4	-1E+10	1	-1E+10	1	-1E+10	1	-1E+10	1	-1E+10	1	-1E+10	1
4902643	26	C	03/08/2025	12:35	-133.539	43.119	0	309.90	0	5.9860	0	33.8470	0	26.647	0	307.207	0	112.3	4	37.1	4	-1E+10	1	-1E+10	1	-1E+10	1	-1E+10	1	-1E+10	1	-1E+10	1
4902643	26	C	03/08/2025	12:35	-133.539	43.119	0	329.10	0	5.8390	0	33.8650	0	26.679	0	326.225	0	98.6	4	32.4	4	-1E+10	1	-1E+10	1	-1E+10	1	-1E+10	1	-1E+10	1	-1E+10	1
4902643	26	C	03/08/2025	12:35	-133.539	43.119	0	349.70	0	5.6950	0	33.9000	0	26.725	0	346.628	0	84.5	4	27.7	4	-1E+10	1	-1E+10	1	-1E+10	1	-1E+10	1	-1E+10	1	-1E+10	1
4902643	26	C	03/08/2025	12:35	-133.539	43.119	0	369.80	0	5.5280	0	33.9170	0	26.759	0	366.534	0	77.2	4	25.2	4	-1E+10	1	-1E+10	1	-1E+10	1	-1E+10	1	-1E+10	1	-1E+10	1
4902643	26	C	03/08/2025	12:35	-133.539	43.119	0	389.90	0	5.2480	0	33.9180	0	26.793	0	386.438	0	72.2	4	23.4	4	-1E+10	1	-1E+10	1	-1E+10	1	-1E+10	1	-1E+10	1	-1E+10	1
4902643	26	C	03/08/2025	12:35	-133.539	43.119	0	410.10	0	5.0520	0	33.9330	0	26.827	0	406.439	0	66.2	4	21.4	4	-1E+10	1	-1E+10	1	-1E+10	1	-1E+10	1	-1E+10	1	-1E+10	1
4902643	26	C	03/08/2025	12:35	-133.539	43.119	0	429.90	0	4.9520	0	33.9510	0	26.853	0	426.041	0	61.1	4	19.7	4	-1E+10	1	-1E+10	1	-1E+10	1	-1E+10	1	-1E+10	1	-1E+10	1
4902643	26	C	03/08/2025	12:35	-133.539	43.119	0	449.80	0	4.8920	0	33.9650	0	26.871	0	445.741	0	56.7	4	18.3	4	-1E+10	1	-1E+10	1	-1E+10	1	-1E+10	1	-1E+10	1	-1E+10	1
4902643	26	C	03/08/2025	12:35	-133.539	43.119	0	469.90	0	4.8350	0	33.9830	0	26.892	0	465.638	0	51.8	4	16.7	4	-1E+10	1	-1E+10	1	-1E+10	1	-1E+10	1	-1E+10	1	-1E+10	1
4902643	26	C	03/08/2025	12:35	-133.539	43.119	0	490.10	0	4.7690	0	34.0000	0	26.913	0	485.631	0	46.7	4	15.0	4	-1E+10	1	-1E+10	1	-1E+10	1	-1E+10	1	-1E+10	1	-1E+10	1
4902643	26	C	03/08/2025	12:35	-133.539	43.119	0	509.70	0	4.6840	0	34.0250	0	26.942	0	505.028	0	40.2	4	12.9	4	-1E+10	1	-1E+10	1	-1E+10	1	-1E+10	1	-1E+10	1	-1E+10	1
4902643	26	C	03/08/2025	12:35	-133.539	43.119	0	529.80	0	4.7130	0	34.0570	0	26.965	0	524.919	0	33.9	4	10.9	4	-1E+10	1	-1E+10	1	-1E+10	1	-1E+10	1	-1E+10	1	-1E+10	1
4902643	26	C	03/08/2025	12:35	-133.539	43.119	0	549.90	0	4.6900	0	34.0780	0	26.984	0	544.807	0	29.5	4	9.4	4	-1E+10	1	-1E+10	1	-1E+10	1	-1E+10	1	-1E+10	1	-1E+10	1
4902643	26	C	03/08/2025	12:35	-133.539	43.119	0	569.70	0	4.5980	0	34.0970	0	27.009	0	564.397	0	26.8	4	8.6	4	-1E+10	1	-1E+10	1	-1E+10	1	-1E+10	1	-1E+10	1	-1E+10	1
4902643	26	C	03/08/2025	12:35	-133.539	43.119	0	589.30	0	4.5320	0	34.1070	0	27.025	0	583.787	0	25.3	4	8.1	4	-1E+10	1	-1E+10	1	-1E+10	1	-1E+10	1	-1E+10	1	-1E+10	1
4902643	26	C	03/08/2025	12:35	-133.539	43.119	0	610.40	0	4.3610	0	34.1070	0	27.043	0	604.659	0	24.7	4	7.9	4	-1E+10	1	-1E+10	1	-1E+10	1	-1E+10	1	-1E+10	1	-1E+10	1
4902643	26	C	03/08/2025	12:35	-133.539	43.119	0	630.00	0	4.2960	0	34.1250	0	27.064	0	624.045	0	20.8	4	6.6	4	-1E+10	1	-1E+10	1	-1E+10	1	-1E+10	1	-1E+10	1	-1E+10	1
4902643	26	C	03/08/2025	12:35	-133.539	43.119	0	649.60	0	4.3030	0	34.1460	0	27.080	0	643.430	0	19.6	4	6.2	4	-1E+10	1	-1E+10	1	-1E+10	1	-1E+10	1	-1E+10	1	-1E+10	1
4902643	26	C	03/08/2025	12:35	-133.539	43.119	0	669.60	0	4.1650	0	34.1480	0	27.097	0	663.208	0	18.5	4	5.9	4	-1E+10	1	-1E+10	1	-1E+10	1	-1E+10	1	-1E+10	1	-1E+10	1
4902643	26	C	03/08/2025	12:35	-133.539	43.119	0	689.80	0	4.0620	0	34.1650	0	27.121	0	683.182	0	16.3	4	5.2	4	-1E+10	1	-1E+10	1	-1E+10	1	-1E+10	1	-1E+10	1	-1E+10	1
4902643	26	C	03/08/2025	12:35	-133.539	43.119	0	709.90	0	3.9970	0	34.1770	0	27.137	0	703.055	0	15.0	4	4.7	4	-1E+10	1	-1E+10	1	-1E+10	1	-1E+10	1	-1E+10	1	-1E+10	1
4902643	26	C	03/08/2025	12:35	-133.539	43.119	0	730.00	0	3.9300	0	34.1900	0	27.154	0	722.927	0	13.7	4	4.3	4	-1E+10	1	-1E+10	1	-1E+10	1	-1E+10	1	-1E+10	1	-1E+10	1
4902643	26	C	03/08/2025	12:35	-133.539	43.119	0	750.10	0	3.8540	0	34.2060	0	27.175	0	742.796	0	12.3	4	3.9	4	-1E+10	1	-1E+10	1	-1E+10	1	-1E+10	1	-1E+10	1	-1E+10	1
4902643	26	C	03/08/2025	12:35	-133.539	43.119	0	770.20	0	3.8160	0	34.2240	0	27.193	0	762.664	0	10.7	4	3.4	4	-1E+10	1	-1E+10	1	-1E+10	1	-1E+10	1	-1E+10	1	-1E+10	1
4902643	26	C	03/08/2025	12:35	-133.539	43.119	0	790.00	0	3.7770	0	34.2480	0	27.216	0	782.233	0	9.4	4	2.9	4	-1E+10	1	-1E+10	1	-1E+10	1	-1E+10	1	-1E+10	1	-1E+10	1
4902643	26	C	03/08/2025	12:35	-133.539	43.119	0	810.10	0	3.6820	0	34.2660	0	27.240	0	802.097	0	8.5	4	2.7	4	-1E+10	1	-1E+10	1	-1E+10	1	-1E+10	1	-1E+10	1	-1E+10	1
4902643	26	C	03/08/2025	12:35	-133.539	43.119	0	830.40	0	3.6150	0	34.2900	0	27.266	0	822.156	0	7.6	4	2.4	4	-1E+10	1	-1E+10	1	-1E+10	1	-1E+10	1	-1E+10	1	-1E+10	1
4902643	26	C	03/08/2025	12:35	-133.539	43.119	0	849.70	0	3.5750	0	34.3110	0	27.287	0	841.226	0	7.1	4	2.2	4	-1E+10	1	-1E+10	1	-1E+10	1	-1E+10	1	-1E+10	1	-1E+10	1
4902643	26	C	03/08/2025	12:35	-133.539	43.119	0	870.30	0	3.5570	0	34.3340	0	27.307	0	861.578	0	6.8	4	2.1	4	-1E+10	1	-1E+10	1	-1E+10	1	-1E+10	1	-1E+10	1	-1E+10	1
4902643	26	C	03/08/2025	12:35	-133.539	43.119	0	890.00	0	3.5420	0	34.3470	0	27.319	0	881.039	0	6.8	4	2.1	4	-1E+10	1	-1E+10	1	-1E+10	1	-1E+10	1	-1E+10	1	-1E+10	1
4902643	26	C	03/08/2025	12:35	-133.539	43.119	0	910.00	0	3.5230	0	34.3560	0	27.328	0	900.795	0	6.8	4	2.1	4	-1E+10	1	-1E+10	1	-1E+10	1	-1E+10	1	-1E+10	1	-1E+10	1
4902643	26	C	03/08/2025	12:35	-133.539	43.119	0	929.80	0	3.4840	0	34.3650	0	27.339	0	920.351	0	6.9	4	2.2	4	-1E+10	1	-1E+10	1	-1E+10	1	-1E+10	1	-1E+10	1	-1E+10	1
4902643	26	C	03/08/2025	12:35	-133.539	43.119	0	950.10	0	3.4570	0	34.3730	0	27.348	0	940.399	0	7.1	4	2.2	4	-1E+10	1	-1E+10	1	-1E+10	1	-1E+10	1	-1E+10	1	-1E+10	1
4902643	26	C	03/08/2025	12:35	-133.539	43.119	0	970.00	0	3.4310	0	34.3820	0	27.358	0	960.050	0	7.3	4	2.3	4	-1E+10	1	-1E+10	1	-1E+10	1	-1E+10	1	-1E+10	1	-1E+10	1
4902643	26	C	03/08/2025	12:35	-133.539	43.119	0	989.80	0	3.3920	0	34.3890	0	27.367	0	979.601	0	7.5	4	2.3	4	-1E+10	1	-1E+10	1	-1E+10	1	-1E+10	1	-1E+10	1	-1E+10	1
4902643	26	C	03/08/2025	12:35	-133.539	43.119	0	1009.90	0	3.3450	0	34.3970	0	27.378	0	999.446	0	7.8	4	2.4	4	-1E+10	1	-1E+10	1	-1E+10	1	-1E+10	1	-1E+10	1	-1E+10	1
4902643	26	C	03/08/2025	12:35	-133.539	43.119	0	1030.10	0	3.3080	0	34.4070	0	27.390	0	1019.387	0	8.2	4	2.5	4	-1E+10	1	-1E+10	1	-1E+10	1	-1E+10	1	-1E+10	1	-1E+10	1
4902643	26	C	03/08/2025	12:35	-133.539	43.119	0	1049.90	0	3.2690	0	34.4100	0	27.396	0	1038.933	0	8.4	4	2.6	4	-1E+10	1	-1E+10	1	-1E+10	1	-1E+10	1	-1E+10	1	-1E+10	1
4902643	26	C	03/08/2025	12:35	-133.539	43.119	0	1069.80	0	3.2500	0	34.4180	0	27.404	0	1058.574	0	9.0	4	2.8	4	-1E+10	1	-1E+10	1	-1E+10	1	-1E+10	1	-1E+10	1	-1E+10	1
4902643	26	C	03/08/2025	12:35	-133.539	43.119	0	1090.00	0	3.2230	0	34.4240	0	27.412	0	1078.511	0	9.4	4	2.9	4	-1E+10	1	-1E+10	1	-1E+10	1	-1E+10	1	-1E+10	1	-1E+10	1
4902643	26	C	03/08/2025	12:35	-133.539	43.119	0	1110.00	0	3.2030	0	34.4300	0	27.419	0	1098.247	0	9.7	4	3.0	4	-1E+10	1	-1E+10	1	-1E+10	1	-1E+10	1	-1E+10	1	-1E+10	1
4902643	26	C	03/08/2025	12:35	-133.539	43.119	0	1129.80	0	3.1680	0	34.4340	0	27.425	0	1117.785	0	10.1	4	3.1	4	-1E+10	1	-1E+10	1	-1E+10	1	-1E+10	1	-1E+10	1	-1E+10	1
4902643	26	C	03/08/2025	12:35	-133.539	43.119	0	1150.20	0	3.1360	0	34.4390	0	27.432	0	1137.913	0	10.6	4	3.3	4	-1E+10	1	-1E+10	1	-1E+10	1	-1E+10	1	-1E+10	1	-1E+10	1
4902643	26	C	03/08/2025	12:35	-133.539	43.119	0	1169.80	0	3.1040	0	34.4450	0	27.440	0	1157.250	0	11.1	4	3.5	4	-1E+10	1	-1E+10	1	-1E+10	1	-1E+10	1	-1E+10	1	-1E+10	1
4902643	26	C	03/08/2025	12:35	-133.539	43.119	0	1190.20	0	3.0620	0	34.4510	0	27.449	0	1177.374	0	11.8	4	3.7	4	-1E+10	1	-1E+10	1	-1E+10	1	-1E+10	1	-1E+10	1	-1E+10	1
4902643	26	C	03/08/2025	12:35	-133.539	43.119	0	1210.30	0	3.0250	0	34.4570	0	27.457	0	1197.200	0	12.5	4	3.9	4	-1E+10	1	-1E+10	1	-1E+10	1	-1E+10	1	-1E+10	1	-1E+10	1
4902643	26	C	03/08/2025	12:35	-133.539	43.119	0	1229.90	0	2.9990	0	34.4610	0	27.463	0	1216.531	0	13.0	4	4.0	4	-1E+10	1	-1E+10	1	-1E+10	1	-1E+10	1	-1E+10	1	-1E+10	1
4902643	26	C	03/08/2025	12:35	-133.539	43.119	0	1249.60	0	2.9700	0	34.4650	0	27.469	0	1235.959	0	13.5	4	4.2	4	-1E+10	1	-1E+10	1	-1E+10	1	-1E+10	1	-1E+10	1	-1E+10	1
4902643	26	C	03/08/2025	12:35	-133.539	43.119	0	1269.80	0	2.9450	0	34.4690	0	27.474	0	1255.878	0	14.0	4	4.3	4	-1E+10	1	-1E+10	1	-1E+10	1	-1E+10	1	-1E+10	1	-1E+10	1
4902643	26	C	03/08/2025	12:35	-133.539	43.119	0	1289.90	0	2.9160	0	34.4720	0	27.479	0	1275.697	0	14.6	4	4.5	4	-1E+10	1	-1E+10	1	-1E+10	1	-1E+10	1	-1E+10	1	-1E+10	1
4902643	26	C	03/08/2025	12:35	-133.539	43.119	0	1310.70	0	2.8760	0	34.4770	0	27.487	0	1296.204	0	15.3	4	4.7	4	-1E+10	1	-1E+10	1	-1E+10	1	-1E+10	1	-1E+10	1	-1E+10	1
4902643	26	C	03/08/2025	12:35	-133.539	43.119	0	1329.80	0	2.8450	0	34.4810	0	27.493	0	1315.033	0	15.9	4	4.9	4	-1E+10	1	-1E+10	1	-1E+10	1	-1E+10	1	-1E+10	1	-1E+10	1
4902643	26	C	03/08/2025	12:35	-133.539	43.119	0	1349.60	0	2.8080	0	34.4850	0	27.500	0	1334.551	0	16.6	4	5.1	4	-1E+10	1	-1E+10	1	-1E+10	1	-1E+10	1	-1E+10	1	-1E+10	1
4902643	26	C	03/08/2025	12:35	-133.539	43.119	0	1369.80	0	2.7790	0	34.4890	0	27.505	0	1354.461	0	17.6	4	5.4	4	-1E+10	1	-1E+10	1	-1E+10	1	-1E+10	1	-1E+10	1	-1E+10	1
4902643	26	C	03/08/2025	12:35	-133.539	43.119	0	1390.00	0	2.7380	0	34.4950	0	27.514	0	1374.369	0	18.8	4	5.8	4	-1E+10	1	-1E+10	1	-1E+10	1	-1E+10	1	-1E+10	1	-1E+10	1
4902643	26	C	03/08/2025	12:35	-133.539	43.119	0	1410.10	0	2.7010	0	34.4990	0	27.520	0	1394.176	0	19.8	4	6.1	4	-1E+10	1	-1E+10	1	-1E+10	1	-1E+10	1	-1E+10	1	-1E+10	1
4902643	26	C	03/08/2025	12:35	-133.539	43.119	0	1429.80	0	2.6730	0	34.5030	0	27.526	0	1413.588	0	20.5	4	6.3	4	-1E+10	1	-1E+10	1	-1E+10	1	-1E+10	1	-1E+10	1	-1E+10	1
4902643	26	C	03/08/2025	12:35	-133.539	43.119	0	1449.70	0	2.6410	0	34.5070	0	27.532	0	1433.195	0	21.5	4	6.6	4	-1E+10	1	-1E+10	1	-1E+10	1	-1E+10	1	-1E+10	1	-1E+10	1
4902643	26	C	03/08/2025	12:35	-133.539	43.119	0	1469.90	0	2.6060	0	34.5110	0	27.538	0	1453.095	0	22.6	4	6.9	4	-1E+10	1	-1E+10	1	-1E+10	1	-1E+10	1	-1E+10	1	-1E+10	1
4902643	26	C	03/08/2025	12:35	-133.539	43.119	0	1489.90	0	2.5790	0	34.5140	0	27.543	0	1472.797	0	23.6	4	7.2	4	-1E+10	1	-1E+10	1	-1E+10	1	-1E+10	1	-1E+10	1	-1E+10	1
4902643	26	C	03/08/2025	12:35	-133.539	43.119	0	1509.80	0	2.5500	0	34.5180	0	27.549	0	1492.398	0	24.5	4	7.5	4	-1E+10	1	-1E+10	1	-1E+10	1	-1E+10	1	-1E+10	1	-1E+10	1
4902643	26	C	03/08/2025	12:35	-133.539	43.119	0	1530.30	0	2.5200	0	34.5210	0	27.554	0	1512.589	0	25.4	4	7.8	4	-1E+10	1	-1E+10	1	-1E+10	1	-1E+10	1	-1E+10	1	-1E+10	1
4902643	26	C	03/08/2025	12:35	-133.539	43.119	0	1550.10	0	2.4920	0	34.5250	0	27.560	0	1532.088	0	26.5	4	8.1	4	-1E+10	1	-1E+10	1	-1E+10	1	-1E+10	1	-1E+10	1	-1E+10	1
4902643	26	C	03/08/2025	12:35	-133.539	43.119	0	1569.90	0	2.4560	0	34.5290	0	27.566	0	1551.585	0	27.7	4	8.5	4	-1E+10	1	-1E+10	1	-1E+10	1	-1E+10	1	-1E+10	1	-1E+10	1
4902643	26	C	03/08/2025	12:35	-133.539	43.119	0	1590.10	0	2.4210	0	34.5330	0	27.572	0	1571.475	0	29.1	4	8.9	4	-1E+10	1	-1E+10	1	-1E+10	1	-1E+10	1	-1E+10	1	-1E+10	1
4902643	26	C	03/08/2025	12:35	-133.539	43.119	0	1610.00	0	2.3890	0	34.5370	0	27.578	0	1591.067	0	30.3	4	9.2	4	-1E+10	1	-1E+10	1	-1E+10	1	-1E+10	1	-1E+10	1	-1E+10	1
4902643	26	C	03/08/2025	12:35	-133.539	43.119	0	1630.00	0	2.3640	0	34.5400	0	27.583	0	1610.756	0	31.6	4	9.6	4	-1E+10	1	-1E+10	1	-1E+10	1	-1E+10	1	-1E+10	1	-1E+10	1
4902643	26	C	03/08/2025	12:35	-133.539	43.119	0	1650.10	0	2.3400	0	34.5440	0	27.588	0	1630.541	0	32.6	4	9.9	4	-1E+10	1	-1E+10	1	-1E+10	1	-1E+10	1	-1E+10	1	-1E+10	1
4902643	26	C	03/08/2025	12:35	-133.539	43.119	0	1670.20	0	2.3200	0	34.5460	0	27.591	0	1650.325	0	33.5	4	10.2	4	-1E+10	1	-1E+10	1	-1E+10	1	-1E+10	1	-1E+10	1	-1E+10	1
4902643	26	C	03/08/2025	12:35	-133.539	43.119	0	1690.00	0	2.2910	0	34.5500	0	27.597	0	1669.811	0	34.8	4	10.6	4	-1E+10	1	-1E+10	1	-1E+10	1	-1E+10	1	-1E+10	1	-1E+10	1
4902643	26	C	03/08/2025	12:35	-133.539	43.119	0	1709.70	0	2.2580	0	34.5530	0	27.602	0	1689.197	0	36.3	4	11.0	4	-1E+10	1	-1E+10	1	-1E+10	1	-1E+10	1	-1E+10	1	-1E+10	1
4902643	26	C	03/08/2025	12:35	-133.539	43.119	0	1729.90	0	2.2200	0	34.5580	0	27.609	0	1709.074	0	38.3	4	11.6	4	-1E+10	1	-1E+10	1	-1E+10	1	-1E+10	1	-1E+10	1	-1E+10	1
4902643	26	C	03/08/2025	12:35	-133.539	43.119	0	1749.90	0	2.1840	0	34.5630	0	27.616	0	1728.752	0	40.1	4	12.1	4	-1E+10	1	-1E+10	1	-1E+10	1	-1E+10	1	-1E+10	1	-1E+10	1
4902643	26	C	03/08/2025	12:35	-133.539	43.119	0	1769.80	0	2.1590	0	34.5670	0	27.622	0	1748.329	0	41.4	4	12.5	4	-1E+10	1	-1E+10	1	-1E+10	1	-1E+10	1	-1E+10	1	-1E+10	1
4902643	26	C	03/08/2025	12:35	-133.539	43.119	0	1790.20	0	2.1380	0	34.5700	0	27.626	0	1768.397	0	42.8	4	12.9	4	-1E+10	1	-1E+10	1	-1E+10	1	-1E+10	1	-1E+10	1	-1E+10	1
4902643	26	C	03/08/2025	12:35	-133.539	43.119	0	1809.90	0	2.1140	0	34.5730	0	27.630	0	1787.774	0	44.3	4	13.4	4	-1E+10	1	-1E+10	1	-1E+10	1	-1E+10	1	-1E+10	1	-1E+10	1
4902643	26	C	03/08/2025	12:35	-133.539	43.119	0	1829.80	0	2.0950	0	34.5760	0	27.634	0	1807.346	0	45.5	4	13.8	4	-1E+10	1	-1E+10	1	-1E+10	1	-1E+10	1	-1E+10	1	-1E+10	1
4902643	26	C	03/08/2025	12:35	-133.539	43.119	0	1849.80	0	2.0740	0	34.5790	0	27.638	0	1827.015	0	46.9	4	14.2	4	-1E+10	1	-1E+10	1	-1E+10	1	-1E+10	1	-1E+10	1	-1E+10	1
4902643	26	C	03/08/2025	12:35	-133.539	43.119	0	1869.70	0	2.0530	0	34.5820	0	27.643	0	1846.583	0	48.4	4	14.6	4	-1E+10	1	-1E+10	1	-1E+10	1	-1E+10	1	-1E+10	1	-1E+10	1
4902643	26	C	03/08/2025	12:35	-133.539	43.119	0	1890.00	0	2.0320	0	34.5850	0	27.647	0	1866.543	0	49.9	4	15.0	4	-1E+10	1	-1E+10	1	-1E+10	1	-1E+10	1	-1E+10	1	-1E+10	1
4902643	26	C	03/08/2025	12:35	-133.539	43.119	0	1910.00	0	2.0110	0	34.5880	0	27.651	0	1886.206	0	51.4	4	15.5	4	-1E+10	1	-1E+10	1	-1E+10	1	-1E+10	1	-1E+10	1	-1E+10	1
4902643	26	C	03/08/2025	12:35	-133.539	43.119	0	1929.80	0	1.9920	0	34.5910	0	27.655	0	1905.671	0	52.7	4	15.9	4	-1E+10	1	-1E+10	1	-1E+10	1	-1E+10	1	-1E+10	1	-1E+10	1
4902643	26	C	03/08/2025	12:35	-133.539	43.119	0	1950.10	0	1.9760	0	34.5930	0	27.658	0	1925.626	0	53.8	4	16.2	4	-1E+10	1	-1E+10	1	-1E+10	1	-1E+10	1	-1E+10	1	-1E+10	1
4902643	26	C	03/08/2025	12:35	-133.539	43.119	0	1970.10	0	1.9610	0	34.5950	0	27.661	0	1945.283	0	54.9	4	16.5	4	-1E+10	1	-1E+10	1	-1E+10	1	-1E+10	1	-1E+10	1	-1E+10	1
4902643	26	C	03/08/2025	12:35	-133.539	43.119	0	1990.00	0	1.9440	0	34.5980	0	27.664	0	1964.841	0	56.0	4	16.9	4	-1E+10	1	-1E+10	1	-1E+10	1	-1E+10	1	-1E+10	1	-1E+10	1
4902643	26	C	03/08/2025	12:35	-133.539	43.119	0	2009.60	0	1.9310	0	34.5990	4	27.666	0	1984.102	0	57.1	4	17.2	4	-1E+10	1	-1E+10	1	-1E+10	1	-1E+10	1	-1E+10	1	-1E+10	1
4902643	26	C	03/08/2025	12:35	-133.539	43.119	0	2029.80	0	1.9160	0	34.6020	4	27.670	0	2003.951	0	58.2	4	17.5	4	-1E+10	1	-1E+10	1	-1E+10	1	-1E+10	1	-1E+10	1	-1E+10	1
4902643	26	C	03/08/2025	12:35	-133.539	43.119	0	2049.80	0	1.9040	0	34.6030	4	27.672	0	2023.601	0	59.1	4	17.8	4	-1E+10	1	-1E+10	1	-1E+10	1	-1E+10	1	-1E+10	1	-1E+10	1
4902643	26	C	03/08/2025	12:35	-133.539	43.119	0	2069.70	0	1.8920	0	34.6050	4	27.675	0	2043.152	0	60.1	4	18.1	4	-1E+10	1	-1E+10	1	-1E+10	1	-1E+10	1	-1E+10	1	-1E+10	1
4902643	26	C	03/08/2025	12:35	-133.539	43.119	0	2090.10	0	1.8790	0	34.6070	4	27.677	0	2063.192	0	61.1	4	18.4	4	-1E+10	1	-1E+10	1	-1E+10	1	-1E+10	1	-1E+10	1	-1E+10	1
4902643	26	C	03/08/2025	12:35	-133.539	43.119	0	2109.70	0	1.8700	0	34.6090	4	27.680	0	2082.444	0	61.8	4	18.6	4	-1E+10	1	-1E+10	1	-1E+10	1	-1E+10	1	-1E+10	1	-1E+10	1
4902643	26	C	03/08/2025	12:35	-133.539	43.119	0	2129.90	0	1.8620	0	34.6100	4	27.681	0	2102.283	0	62.5	4	18.8	4	-1E+10	1	-1E+10	1	-1E+10	1	-1E+10	1	-1E+10	1	-1E+10	1
4902643	26	C	03/08/2025	12:35	-133.539	43.119	0	2150.30	0	1.8550	0	34.6110	4	27.683	0	2122.318	0	63.3	4	19.0	4	-1E+10	1	-1E+10	1	-1E+10	1	-1E+10	1	-1E+10	1	-1E+10	1
4902643	26	C	03/08/2025	12:35	-133.539	43.119	0	2170.00	0	1.8450	0	34.6130	4	27.685	0	2141.663	0	64.1	4	19.3	4	-1E+10	1	-1E+10	1	-1E+10	1	-1E+10	1	-1E+10	1	-1E+10	1
4902643	26	C	03/08/2025	12:35	-133.539	43.119	0	2189.70	0	1.8370	0	34.6140	4	27.687	0	2161.006	0	64.8	4	19.5	4	-1E+10	1	-1E+10	1	-1E+10	1	-1E+10	1	-1E+10	1	-1E+10	1
4902643	26	C	03/08/2025	12:35	-133.539	43.119	0	2209.80	0	1.8320	0	34.6150	4	27.688	0	2180.740	0	65.3	4	19.6	4	-1E+10	1	-1E+10	1	-1E+10	1	-1E+10	1	-1E+10	1	-1E+10	1
4902643	26	C	03/08/2025	12:35	-133.539	43.119	0	2229.80	0	1.8250	0	34.6160	4	27.689	0	2200.374	0	66.0	4	19.8	4	-1E+10	1	-1E+10	1	-1E+10	1	-1E+10	1	-1E+10	1	-1E+10	1
4902643	26	C	03/08/2025	12:35	-133.539	43.119	0	2249.70	0	1.8190	0	34.6170	4	27.691	0	2219.908	0	66.7	4	20.0	4	-1E+10	1	-1E+10	1	-1E+10	1	-1E+10	1	-1E+10	1	-1E+10	1
4902643	26	C	03/08/2025	12:35	-133.539	43.119	0	2270.10	0	1.8100	0	34.6180	4	27.692	0	2239.932	0	67.7	4	20.3	4	-1E+10	1	-1E+10	1	-1E+10	1	-1E+10	1	-1E+10	1	-1E+10	1
4902643	26	C	03/08/2025	12:35	-133.539	43.119	0	2290.20	0	1.8000	0	34.6200	4	27.695	0	2259.658	0	68.7	4	20.6	4	-1E+10	1	-1E+10	1	-1E+10	1	-1E+10	1	-1E+10	1	-1E+10	1
4902643	26	C	03/08/2025	12:35	-133.539	43.119	0	2310.10	0	1.7880	0	34.6220	4	27.697	0	2279.187	0	69.9	4	21.0	4	-1E+10	1	-1E+10	1	-1E+10	1	-1E+10	1	-1E+10	1	-1E+10	1
4902643	26	C	03/08/2025	12:35	-133.539	43.119	0	2330.00	0	1.7810	0	34.6230	4	27.699	0	2298.714	0	70.6	4	21.2	4	-1E+10	1	-1E+10	1	-1E+10	1	-1E+10	1	-1E+10	1	-1E+10	1
4902643	26	C	03/08/2025	12:35	-133.539	43.119	0	2350.10	0	1.7730	0	34.6240	4	27.700	0	2318.436	0	71.5	4	21.4	4	-1E+10	1	-1E+10	1	-1E+10	1	-1E+10	1	-1E+10	1	-1E+10	1
4902643	26	C	03/08/2025	12:35	-133.539	43.119	0	2370.00	0	1.7660	0	34.6250	4	27.702	0	2337.959	0	72.3	4	21.7	4	-1E+10	1	-1E+10	1	-1E+10	1	-1E+10	1	-1E+10	1	-1E+10	1
4902643	26	C	03/08/2025	12:35	-133.539	43.119	0	2390.00	0	1.7580	0	34.6260	4	27.703	0	2357.579	0	73.1	4	21.9	4	-1E+10	1	-1E+10	1	-1E+10	1	-1E+10	1	-1E+10	1	-1E+10	1
4902643	26	C	03/08/2025	12:35	-133.539	43.119	0	2409.80	0	1.7520	0	34.6270	4	27.705	0	2377.001	0	73.8	4	22.1	4	-1E+10	1	-1E+10	1	-1E+10	1	-1E+10	1	-1E+10	1	-1E+10	1
4902643	26	C	03/08/2025	12:35	-133.539	43.119	0	2429.70	0	1.7460	0	34.6280	4	27.706	0	2396.519	0	74.3	4	22.3	4	-1E+10	1	-1E+10	1	-1E+10	1	-1E+10	1	-1E+10	1	-1E+10	1
4902643	26	C	03/08/2025	12:35	-133.539	43.119	0	2449.70	0	1.7420	0	34.6290	4	27.707	0	2416.133	0	74.9	4	22.4	4	-1E+10	1	-1E+10	1	-1E+10	1	-1E+10	1	-1E+10	1	-1E+10	1
4902643	26	C	03/08/2025	12:35	-133.539	43.119	0	2470.00	0	1.7370	0	34.6300	4	27.709	0	2436.040	0	75.4	4	22.6	4	-1E+10	1	-1E+10	1	-1E+10	1	-1E+10	1	-1E+10	1	-1E+10	1
4902643	26	C	03/08/2025	12:35	-133.539	43.119	0	2489.90	0	1.7320	0	34.6300	4	27.709	0	2455.553	0	76.1	4	22.8	4	-1E+10	1	-1E+10	1	-1E+10	1	-1E+10	1	-1E+10	1	-1E+10	1
4902643	26	C	03/08/2025	12:35	-133.539	43.119	0	2509.80	0	1.7250	0	34.6310	4	27.710	0	2475.064	0	77.0	4	23.1	4	-1E+10	1	-1E+10	1	-1E+10	1	-1E+10	1	-1E+10	1	-1E+10	1
4902643	26	C	03/08/2025	12:35	-133.539	43.119	0	2529.80	0	1.7180	0	34.6320	4	27.712	0	2494.671	0	77.7	4	23.3	4	-1E+10	1	-1E+10	1	-1E+10	1	-1E+10	1	-1E+10	1	-1E+10	1
4902643	26	C	03/08/2025	12:35	-133.539	43.119	0	2549.90	0	1.7140	0	34.6330	4	27.713	0	2514.375	0	78.2	4	23.4	4	-1E+10	1	-1E+10	1	-1E+10	1	-1E+10	1	-1E+10	1	-1E+10	1
4902643	26	C	03/08/2025	12:35	-133.539	43.119	0	2570.00	0	1.7080	0	34.6340	4	27.715	0	2534.076	0	78.9	4	23.6	4	-1E+10	1	-1E+10	1	-1E+10	1	-1E+10	1	-1E+10	1	-1E+10	1
4902643	26	C	03/08/2025	12:35	-133.539	43.119	0	2590.00	0	1.7010	0	34.6350	4	27.716	0	2553.678	0	79.8	4	23.9	4	-1E+10	1	-1E+10	1	-1E+10	1	-1E+10	1	-1E+10	1	-1E+10	1
4902643	26	C	03/08/2025	12:35	-133.539	43.119	0	2610.10	0	1.6960	0	34.6360	4	27.717	0	2573.376	0	80.7	4	24.2	4	-1E+10	1	-1E+10	1	-1E+10	1	-1E+10	1	-1E+10	1	-1E+10	1
4902643	26	C	03/08/2025	12:35	-133.539	43.119	0	2630.20	0	1.6910	0	34.6370	4	27.719	0	2593.073	0	81.7	4	24.5	4	-1E+10	1	-1E+10	1	-1E+10	1	-1E+10	1	-1E+10	1	-1E+10	1
4902643	26	C	03/08/2025	12:35	-133.539	43.119	0	2650.40	0	1.6850	0	34.6380	4	27.720	0	2612.865	0	82.5	4	24.7	4	-1E+10	1	-1E+10	1	-1E+10	1	-1E+10	1	-1E+10	1	-1E+10	1
4902643	26	C	03/08/2025	12:35	-133.539	43.119	0	2670.30	0	1.6810	0	34.6390	4	27.721	0	2632.362	0	83.2	4	24.9	4	-1E+10	1	-1E+10	1	-1E+10	1	-1E+10	1	-1E+10	1	-1E+10	1
4902643	26	C	03/08/2025	12:35	-133.539	43.119	0	2690.20	0	1.6740	0	34.6400	4	27.723	0	2651.857	0	84.2	4	25.2	4	-1E+10	1	-1E+10	1	-1E+10	1	-1E+10	1	-1E+10	1	-1E+10	1
4902643	26	C	03/08/2025	12:35	-133.539	43.119	0	2710.00	0	1.6680	0	34.6410	4	27.724	0	2671.252	0	85.0	4	25.4	4	-1E+10	1	-1E+10	1	-1E+10	1	-1E+10	1	-1E+10	1	-1E+10	1
4902643	26	C	03/08/2025	12:35	-133.539	43.119	0	2729.60	0	1.6630	0	34.6420	4	27.725	0	2690.450	0	85.7	4	25.6	4	-1E+10	1	-1E+10	1	-1E+10	1	-1E+10	1	-1E+10	1	-1E+10	1
4902643	26	C	03/08/2025	12:35	-133.539	43.119	0	2750.00	0	1.6590	0	34.6430	4	27.726	0	2710.429	0	86.3	4	25.8	4	-1E+10	1	-1E+10	1	-1E+10	1	-1E+10	1	-1E+10	1	-1E+10	1
4902643	26	C	03/08/2025	12:35	-133.539	43.119	0	2770.20	0	1.6500	0	34.6430	4	27.727	0	2730.211	0	86.9	4	26.0	4	-1E+10	1	-1E+10	1	-1E+10	1	-1E+10	1	-1E+10	1	-1E+10	1
4902643	26	C	03/08/2025	12:35	-133.539	43.119	0	2789.90	0	1.6430	0	34.6440	4	27.729	0	2749.501	0	87.6	4	26.2	4	-1E+10	1	-1E+10	1	-1E+10	1	-1E+10	1	-1E+10	1	-1E+10	1
4902643	26	C	03/08/2025	12:35	-133.539	43.119	0	2810.00	0	1.6350	0	34.6450	4	27.730	0	2769.181	0	88.4	4	26.4	4	-1E+10	1	-1E+10	1	-1E+10	1	-1E+10	1	-1E+10	1	-1E+10	1
4902643	26	C	03/08/2025	12:35	-133.539	43.119	0	2829.90	0	1.6320	0	34.6460	4	27.731	0	2788.664	0	89.0	4	26.6	4	-1E+10	1	-1E+10	1	-1E+10	1	-1E+10	1	-1E+10	1	-1E+10	1
4902643	26	C	03/08/2025	12:35	-133.539	43.119	0	2850.20	0	1.6300	0	34.6460	4	27.732	0	2808.536	0	89.9	4	26.9	4	-1E+10	1	-1E+10	1	-1E+10	1	-1E+10	1	-1E+10	1	-1E+10	1
4902643	26	C	03/08/2025	12:35	-133.539	43.119	0	2870.10	0	1.6290	0	34.6470	4	27.733	0	2828.015	0	90.7	4	27.1	4	-1E+10	1	-1E+10	1	-1E+10	1	-1E+10	1	-1E+10	1	-1E+10	1
4902643	26	C	03/08/2025	12:35	-133.539	43.119	0	2889.70	0	1.6240	0	34.6480	4	27.734	0	2847.199	0	91.4	4	27.3	4	-1E+10	1	-1E+10	1	-1E+10	1	-1E+10	1	-1E+10	1	-1E+10	1
4902643	26	C	03/08/2025	12:35	-133.539	43.119	0	2909.70	0	1.6210	0	34.6490	4	27.735	0	2866.772	0	91.9	4	27.5	4	-1E+10	1	-1E+10	1	-1E+10	1	-1E+10	1	-1E+10	1	-1E+10	1
4902643	26	C	03/08/2025	12:35	-133.539	43.119	0	2930.30	0	1.6160	0	34.6490	4	27.735	0	2886.931	0	92.6	4	27.7	4	-1E+10	1	-1E+10	1	-1E+10	1	-1E+10	1	-1E+10	1	-1E+10	1
4902643	26	C	03/08/2025	12:35	-133.539	43.119	0	2950.00	0	1.6130	0	34.6500	4	27.737	0	2906.208	0	93.1	4	27.8	4	-1E+10	1	-1E+10	1	-1E+10	1	-1E+10	1	-1E+10	1	-1E+10	1
4902643	26	C	03/08/2025	12:35	-133.539	43.119	0	2969.90	0	1.6110	0	34.6500	4	27.737	0	2925.678	0	93.5	4	27.9	4	-1E+10	1	-1E+10	1	-1E+10	1	-1E+10	1	-1E+10	1	-1E+10	1
4902643	26	C	03/08/2025	12:35	-133.539	43.119	0	2990.00	0	1.6080	0	34.6510	4	27.738	0	2945.342	0	94.0	4	28.1	4	-1E+10	1	-1E+10	1	-1E+10	1	-1E+10	1	-1E+10	1	-1E+10	1
4902643	26	C	03/08/2025	12:35	-133.539	43.119	0	3009.90	0	1.6050	0	34.6520	4	27.739	0	2964.809	0	94.5	4	28.2	4	-1E+10	1	-1E+10	1	-1E+10	1	-1E+10	1	-1E+10	1	-1E+10	1
4902643	26	C	03/08/2025	12:35	-133.539	43.119	0	3029.80	0	1.6020	0	34.6520	4	27.740	0	2984.274	0	94.9	4	28.3	4	-1E+10	1	-1E+10	1	-1E+10	1	-1E+10	1	-1E+10	1	-1E+10	1
4902643	26	C	03/08/2025	12:35	-133.539	43.119	0	3049.90	0	1.5990	0	34.6520	4	27.740	0	3003.933	0	95.2	4	28.4	4	-1E+10	1	-1E+10	1	-1E+10	1	-1E+10	1	-1E+10	1	-1E+10	1
4902643	26	C	03/08/2025	12:35	-133.539	43.119	0	3069.60	0	1.5980	0	34.6530	4	27.741	0	3023.199	0	95.6	4	28.5	4	-1E+10	1	-1E+10	1	-1E+10	1	-1E+10	1	-1E+10	1	-1E+10	1
4902643	26	C	03/08/2025	12:35	-133.539	43.119	0	3089.70	0	1.5940	0	34.6530	4	27.741	0	3042.854	0	96.1	4	28.7	4	-1E+10	1	-1E+10	1	-1E+10	1	-1E+10	1	-1E+10	1	-1E+10	1
4902643	26	C	03/08/2025	12:35	-133.539	43.119	0	3109.80	0	1.5900	0	34.6540	4	27.743	0	3062.508	0	96.8	4	28.9	4	-1E+10	1	-1E+10	1	-1E+10	1	-1E+10	1	-1E+10	1	-1E+10	1
4902643	26	C	03/08/2025	12:35	-133.539	43.119	0	3130.30	0	1.5850	0	34.6550	4	27.744	0	3082.551	0	97.4	4	29.1	4	-1E+10	1	-1E+10	1	-1E+10	1	-1E+10	1	-1E+10	1	-1E+10	1
4902643	26	C	03/08/2025	12:35	-133.539	43.119	0	3149.90	0	1.5810	0	34.6550	4	27.744	0	3101.712	0	97.8	4	29.2	4	-1E+10	1	-1E+10	1	-1E+10	1	-1E+10	1	-1E+10	1	-1E+10	1
4902643	26	C	03/08/2025	12:35	-133.539	43.119	0	3170.10	0	1.5780	0	34.6550	4	27.745	0	3121.458	0	98.4	4	29.4	4	-1E+10	1	-1E+10	1	-1E+10	1	-1E+10	1	-1E+10	1	-1E+10	1
4902643	26	C	03/08/2025	12:35	-133.539	43.119	0	3190.20	0	1.5740	0	34.6560	4	27.746	0	3141.104	0	98.9	4	29.5	4	-1E+10	1	-1E+10	1	-1E+10	1	-1E+10	1	-1E+10	1	-1E+10	1
4902643	26	C	03/08/2025	12:35	-133.539	43.119	0	3210.20	0	1.5710	0	34.6570	4	27.747	0	3160.651	0	99.4	4	29.7	4	-1E+10	1	-1E+10	1	-1E+10	1	-1E+10	1	-1E+10	1	-1E+10	1
4902643	26	C	03/08/2025	12:35	-133.539	43.119	0	3230.30	0	1.5680	0	34.6570	4	27.747	0	3180.294	0	100.0	4	29.8	4	-1E+10	1	-1E+10	1	-1E+10	1	-1E+10	1	-1E+10	1	-1E+10	1
4902643	26	C	03/08/2025	12:35	-133.539	43.119	0	3250.20	0	1.5640	0	34.6580	4	27.749	0	3199.740	0	100.7	4	30.0	4	-1E+10	1	-1E+10	1	-1E+10	1	-1E+10	1	-1E+10	1	-1E+10	1
4902643	26	C	03/08/2025	12:35	-133.539	43.119	0	3270.20	0	1.5620	0	34.6580	4	27.749	0	3219.282	0	101.2	4	30.2	4	-1E+10	1	-1E+10	1	-1E+10	1	-1E+10	1	-1E+10	1	-1E+10	1
4902643	26	C	03/08/2025	12:35	-133.539	43.119	0	3289.80	0	1.5580	0	34.6590	4	27.750	0	3238.431	0	101.8	4	30.4	4	-1E+10	1	-1E+10	1	-1E+10	1	-1E+10	1	-1E+10	1	-1E+10	1
4902643	26	C	03/08/2025	12:35	-133.539	43.119	0	3309.70	0	1.5570	0	34.6600	4	27.751	0	3257.871	0	102.2	4	30.5	4	-1E+10	1	-1E+10	1	-1E+10	1	-1E+10	1	-1E+10	1	-1E+10	1
4902643	26	C	03/08/2025	12:35	-133.539	43.119	0	3330.00	0	1.5550	0	34.6600	4	27.751	0	3277.701	0	102.8	4	30.7	4	-1E+10	1	-1E+10	1	-1E+10	1	-1E+10	1	-1E+10	1	-1E+10	1
4902643	26	C	03/08/2025	12:35	-133.539	43.119	0	3350.10	0	1.5530	0	34.6610	4	27.752	0	3297.334	0	103.2	4	30.8	4	-1E+10	1	-1E+10	1	-1E+10	1	-1E+10	1	-1E+10	1	-1E+10	1
4902643	26	C	03/08/2025	12:35	-133.539	43.119	0	3369.80	0	1.5530	0	34.6610	4	27.753	0	3316.573	0	103.6	4	30.9	4	-1E+10	1	-1E+10	1	-1E+10	1	-1E+10	1	-1E+10	1	-1E+10	1
4902643	26	C	03/08/2025	12:35	-133.539	43.119	0	3390.50	0	1.5500	0	34.6620	4	27.754	0	3336.788	0	104.1	4	31.1	4	-1E+10	1	-1E+10	1	-1E+10	1	-1E+10	1	-1E+10	1	-1E+10	1
4902643	26	C	03/08/2025	12:35	-133.539	43.119	0	3410.10	0	1.5500	0	34.6620	4	27.754	0	3355.927	0	104.4	4	31.1	4	-1E+10	1	-1E+10	1	-1E+10	1	-1E+10	1	-1E+10	1	-1E+10	1
4902643	26	C	03/08/2025	12:35	-133.539	43.119	0	3430.00	0	1.5490	0	34.6620	4	27.754	0	3375.357	0	104.8	4	31.3	4	-1E+10	1	-1E+10	1	-1E+10	1	-1E+10	1	-1E+10	1	-1E+10	1
4902643	26	C	03/08/2025	12:35	-133.539	43.119	0	3449.80	0	1.5480	0	34.6630	4	27.755	0	3394.688	0	105.1	4	31.4	4	-1E+10	1	-1E+10	1	-1E+10	1	-1E+10	1	-1E+10	1	-1E+10	1
4902643	26	C	03/08/2025	12:35	-133.539	43.119	0	3469.90	0	1.5480	0	34.6630	4	27.755	0	3414.310	0	105.5	4	31.5	4	-1E+10	1	-1E+10	1	-1E+10	1	-1E+10	1	-1E+10	1	-1E+10	1
4902643	26	C	03/08/2025	12:35	-133.539	43.119	0	3489.80	0	1.5470	0	34.6640	4	27.756	0	3433.735	0	105.9	4	31.6	4	-1E+10	1	-1E+10	1	-1E+10	1	-1E+10	1	-1E+10	1	-1E+10	1
4902643	26	C	03/08/2025	12:35	-133.539	43.119	0	3510.30	0	1.5450	0	34.6640	4	27.756	0	3453.744	0	106.4	4	31.7	4	-1E+10	1	-1E+10	1	-1E+10	1	-1E+10	1	-1E+10	1	-1E+10	1
4902643	26	C	03/08/2025	12:35	-133.539	43.119	0	3530.10	0	1.5430	0	34.6650	4	27.758	0	3473.068	0	106.8	4	31.9	4	-1E+10	1	-1E+10	1	-1E+10	1	-1E+10	1	-1E+10	1	-1E+10	1
4902643	26	C	03/08/2025	12:35	-133.539	43.119	0	3550.20	0	1.5430	0	34.6660	4	27.759	0	3492.682	0	107.2	4	32.0	4	-1E+10	1	-1E+10	1	-1E+10	1	-1E+10	1	-1E+10	1	-1E+10	1
4902643	26	C	03/08/2025	12:35	-133.539	43.119	0	3569.90	0	1.5430	0	34.6660	4	27.759	0	3511.905	0	107.5	4	32.1	4	-1E+10	1	-1E+10	1	-1E+10	1	-1E+10	1	-1E+10	1	-1E+10	1
4902643	26	C	03/08/2025	12:35	-133.539	43.119	0	3589.90	0	1.5430	0	34.6670	4	27.760	0	3531.419	0	107.6	4	32.1	4	-1E+10	1	-1E+10	1	-1E+10	1	-1E+10	1	-1E+10	1	-1E+10	1
4902643	26	C	03/08/2025	12:35	-133.539	43.119	0	3610.00	0	1.5440	0	34.6670	4	27.760	0	3551.029	0	107.8	4	32.2	4	-1E+10	1	-1E+10	1	-1E+10	1	-1E+10	1	-1E+10	1	-1E+10	1
4902643	26	C	03/08/2025	12:35	-133.539	43.119	0	3630.20	0	1.5440	0	34.6670	4	27.760	0	3570.734	0	107.9	4	32.2	4	-1E+10	1	-1E+10	1	-1E+10	1	-1E+10	1	-1E+10	1	-1E+10	1
4902643	26	C	03/08/2025	12:35	-133.539	43.119	0	3649.80	0	1.5460	0	34.6670	4	27.760	0	3589.853	0	108.0	4	32.2	4	-1E+10	1	-1E+10	1	-1E+10	1	-1E+10	1	-1E+10	1	-1E+10	1
4902643	26	C	03/08/2025	12:35	-133.539	43.119	0	3669.70	0	1.5470	0	34.6680	4	27.761	0	3609.262	0	108.2	4	32.3	4	-1E+10	1	-1E+10	1	-1E+10	1	-1E+10	1	-1E+10	1	-1E+10	1
4902643	26	C	03/08/2025	12:35	-133.539	43.119	0	3690.00	0	1.5460	0	34.6680	4	27.761	0	3629.060	0	108.4	4	32.3	4	-1E+10	1	-1E+10	1	-1E+10	1	-1E+10	1	-1E+10	1	-1E+10	1
4902643	26	C	03/08/2025	12:35	-133.539	43.119	0	3710.10	0	1.5470	0	34.6680	4	27.761	0	3648.661	0	108.5	4	32.4	4	-1E+10	1	-1E+10	1	-1E+10	1	-1E+10	1	-1E+10	1	-1E+10	1
4902643	26	C	03/08/2025	12:35	-133.539	43.119	0	3729.50	0	1.5490	0	34.6680	4	27.761	0	3667.578	0	108.5	4	32.4	4	-1E+10	1	-1E+10	1	-1E+10	1	-1E+10	1	-1E+10	1	-1E+10	1
4902643	26	C	03/08/2025	12:35	-133.539	43.119	0	3749.90	0	1.5500	0	34.6680	4	27.761	0	3687.468	0	108.6	4	32.4	4	-1E+10	1	-1E+10	1	-1E+10	1	-1E+10	1	-1E+10	1	-1E+10	1
4902643	26	C	03/08/2025	12:35	-133.539	43.119	0	3770.10	0	1.5500	0	34.6690	4	27.762	0	3707.161	0	108.7	4	32.4	4	-1E+10	1	-1E+10	1	-1E+10	1	-1E+10	1	-1E+10	1	-1E+10	1
4902643	26	C	03/08/2025	12:35	-133.539	43.119	0	3786.40	0	1.5510	0	34.6690	4	27.762	0	3723.051	0	108.1	4	32.3	4	-1E+10	1	-1E+10	1	-1E+10	1	-1E+10	1	-1E+10	1	-1E+10	1
4902643	26	C	03/08/2025	12:35	-133.539	43.119	0																										
4902643	27	C	03/18/2025	09:29	-133.549	43.156	0	0.80	0	10.7720	0	32.7885	0	25.094	0	0.794	0	255.8	4	93.2	4	-1E+10	1	-1E+10	1	-1E+10	1	-1E+10	1	-1E+10	1	-1E+10	1
4902643	27	C	03/18/2025	09:29	-133.549	43.156	0	1.00	0	10.7690	0	32.7860	0	25.093	0	0.992	0	255.6	4	93.1	4	-1E+10	1	-1E+10	1	-1E+10	1	-1E+10	1	-1E+10	1	-1E+10	1
4902643	27	C	03/18/2025	09:29	-133.549	43.156	0	1.50	0	10.7750	0	32.7900	0	25.095	0	1.488	0	255.2	4	93.0	4	-1E+10	1	-1E+10	1	-1E+10	1	-1E+10	1	-1E+10	1	-1E+10	1
4902643	27	C	03/18/2025	09:29	-133.549	43.156	0	2.40	0	10.7750	0	32.7930	0	25.097	0	2.381	0	255.2	4	93.0	4	-1E+10	1	-1E+10	1	-1E+10	1	-1E+10	1	-1E+10	1	-1E+10	1
4902643	27	C	03/18/2025	09:29	-133.549	43.156	0	3.30	0	10.7850	0	32.7870	0	25.091	0	3.274	0	255.1	4	93.0	4	-1E+10	1	-1E+10	1	-1E+10	1	-1E+10	1	-1E+10	1	-1E+10	1
4902643	27	C	03/18/2025	09:29	-133.549	43.156	0	4.30	0	10.7840	0	32.7860	0	25.090	0	4.266	0	255.0	4	93.0	4	-1E+10	1	-1E+10	1	-1E+10	1	-1E+10	1	-1E+10	1	-1E+10	1
4902643	27	C	03/18/2025	09:29	-133.549	43.156	0	5.10	0	10.7930	0	32.7860	0	25.089	0	5.059	0	255.0	4	93.0	4	-1E+10	1	-1E+10	1	-1E+10	1	-1E+10	1	-1E+10	1	-1E+10	1
4902643	27	C	03/18/2025	09:29	-133.549	43.156	0	6.20	0	10.7950	0	32.7860	0	25.088	0	6.151	0	255.0	4	93.0	4	-1E+10	1	-1E+10	1	-1E+10	1	-1E+10	1	-1E+10	1	-1E+10	1
4902643	27	C	03/18/2025	09:29	-133.549	43.156	0	7.30	0	10.7910	0	32.7890	0	25.091	0	7.242	0	254.9	4	92.9	4	-1E+10	1	-1E+10	1	-1E+10	1	-1E+10	1	-1E+10	1	-1E+10	1
4902643	27	C	03/18/2025	09:29	-133.549	43.156	0	8.30	0	10.7610	0	32.7940	0	25.101	0	8.234	0	255.0	4	92.9	4	-1E+10	1	-1E+10	1	-1E+10	1	-1E+10	1	-1E+10	1	-1E+10	1
4902643	27	C	03/18/2025	09:29	-133.549	43.156	0	9.40	0	10.7620	0	32.7780	0	25.088	0	9.325	0	255.1	4	92.9	4	-1E+10	1	-1E+10	1	-1E+10	1	-1E+10	1	-1E+10	1	-1E+10	1
4902643	27	C	03/18/2025	09:29	-133.549	43.156	0	14.10	0	10.7450	0	32.7760	0	25.090	0	13.987	0	255.0	4	92.9	4	-1E+10	1	-1E+10	1	-1E+10	1	-1E+10	1	-1E+10	1	-1E+10	1
4902643	27	C	03/18/2025	09:29	-133.549	43.156	0	24.60	0	10.6220	0	32.7570	0	25.096	0	24.403	0	254.7	4	92.5	4	-1E+10	1	-1E+10	1	-1E+10	1	-1E+10	1	-1E+10	1	-1E+10	1
4902643	27	C	03/18/2025	09:29	-133.549	43.156	0	34.70	0	10.6170	0	32.7570	0	25.097	0	34.421	0	253.8	4	92.1	4	-1E+10	1	-1E+10	1	-1E+10	1	-1E+10	1	-1E+10	1	-1E+10	1
4902643	27	C	03/18/2025	09:29	-133.549	43.156	0	44.90	0	10.6150	0	32.7570	0	25.098	0	44.538	0	253.3	4	92.0	4	-1E+10	1	-1E+10	1	-1E+10	1	-1E+10	1	-1E+10	1	-1E+10	1
4902643	27	C	03/18/2025	09:29	-133.549	43.156	0	54.80	0	10.6130	0	32.7560	0	25.098	0	54.357	0	252.8	4	91.8	4	-1E+10	1	-1E+10	1	-1E+10	1	-1E+10	1	-1E+10	1	-1E+10	1
4902643	27	C	03/18/2025	09:29	-133.549	43.156	0	64.50	0	10.6270	0	32.7590	0	25.098	0	63.977	0	252.0	4	91.5	4	-1E+10	1	-1E+10	1	-1E+10	1	-1E+10	1	-1E+10	1	-1E+10	1
4902643	27	C	03/18/2025	09:29	-133.549	43.156	0	75.50	0	10.6280	0	32.7620	0	25.100	0	74.886	0	250.2	4	90.9	4	-1E+10	1	-1E+10	1	-1E+10	1	-1E+10	1	-1E+10	1	-1E+10	1
4902643	27	C	03/18/2025	09:29	-133.549	43.156	0	85.00	0	10.6480	0	32.7680	0	25.102	0	84.307	0	245.7	4	89.3	4	-1E+10	1	-1E+10	1	-1E+10	1	-1E+10	1	-1E+10	1	-1E+10	1
4902643	27	C	03/18/2025	09:29	-133.549	43.156	0	95.60	0	10.5230	0	32.8140	0	25.159	0	94.818	0	231.3	4	83.9	4	-1E+10	1	-1E+10	1	-1E+10	1	-1E+10	1	-1E+10	1	-1E+10	1
4902643	27	C	03/18/2025	09:29	-133.549	43.156	0	105.00	0	9.9110	0	33.0940	0	25.481	0	104.139	0	218.0	4	78.1	4	-1E+10	1	-1E+10	1	-1E+10	1	-1E+10	1	-1E+10	1	-1E+10	1
4902643	27	C	03/18/2025	09:29	-133.549	43.156	0	114.90	0	9.4280	0	33.2300	0	25.666	0	113.955	0	212.9	4	75.6	4	-1E+10	1	-1E+10	1	-1E+10	1	-1E+10	1	-1E+10	1	-1E+10	1
4902643	27	C	03/18/2025	09:29	-133.549	43.156	0	124.70	0	9.2520	0	33.3300	0	25.773	0	123.671	0	207.7	4	73.5	4	-1E+10	1	-1E+10	1	-1E+10	1	-1E+10	1	-1E+10	1	-1E+10	1
4902643	27	C	03/18/2025	09:29	-133.549	43.156	0	135.00	0	9.1210	0	33.4050	0	25.853	0	133.883	0	202.6	4	71.6	4	-1E+10	1	-1E+10	1	-1E+10	1	-1E+10	1	-1E+10	1	-1E+10	1
4902643	27	C	03/18/2025	09:29	-133.549	43.156	0	145.40	0	8.9470	0	33.4930	0	25.949	0	144.193	0	197.4	4	69.5	4	-1E+10	1	-1E+10	1	-1E+10	1	-1E+10	1	-1E+10	1	-1E+10	1
4902643	27	C	03/18/2025	09:29	-133.549	43.156	0	154.60	0	8.7090	0	33.5820	0	26.056	0	153.314	0	192.4	4	67.4	4	-1E+10	1	-1E+10	1	-1E+10	1	-1E+10	1	-1E+10	1	-1E+10	1
4902643	27	C	03/18/2025	09:29	-133.549	43.156	0	165.00	0	8.3060	0	33.6780	0	26.193	0	163.623	0	184.6	4	64.2	4	-1E+10	1	-1E+10	1	-1E+10	1	-1E+10	1	-1E+10	1	-1E+10	1
4902643	27	C	03/18/2025	09:29	-133.549	43.156	0	175.20	0	8.0430	0	33.7170	0	26.263	0	173.734	0	179.1	4	61.9	4	-1E+10	1	-1E+10	1	-1E+10	1	-1E+10	1	-1E+10	1	-1E+10	1
4902643	27	C	03/18/2025	09:29	-133.549	43.156	0	184.90	0	7.8780	0	33.7550	0	26.317	0	183.348	0	174.3	4	60.0	4	-1E+10	1	-1E+10	1	-1E+10	1	-1E+10	1	-1E+10	1	-1E+10	1
4902643	27	C	03/18/2025	09:29	-133.549	43.156	0	194.60	0	7.7620	0	33.7810	0	26.354	0	192.962	0	168.4	4	57.9	4	-1E+10	1	-1E+10	1	-1E+10	1	-1E+10	1	-1E+10	1	-1E+10	1
4902643	27	C	03/18/2025	09:29	-133.549	43.156	0	209.50	0	7.5080	0	33.8200	0	26.422	0	207.729	0	166.5	4	56.9	4	-1E+10	1	-1E+10	1	-1E+10	1	-1E+10	1	-1E+10	1	-1E+10	1
4902643	27	C	03/18/2025	09:29	-133.549	43.156	0	229.60	0	7.2280	0	33.8410	0	26.478	0	227.648	0	158.6	4	53.9	4	-1E+10	1	-1E+10	1	-1E+10	1	-1E+10	1	-1E+10	1	-1E+10	1
4902643	27	C	03/18/2025	09:29	-133.549	43.156	0	249.90	0	6.9840	0	33.8550	0	26.522	0	247.764	0	147.4	4	49.8	4	-1E+10	1	-1E+10	1	-1E+10	1	-1E+10	1	-1E+10	1	-1E+10	1
4902643	27	C	03/18/2025	09:29	-133.549	43.156	0	270.40	0	6.7460	0	33.8610	0	26.559	0	268.075	0	137.0	4	46.0	4	-1E+10	1	-1E+10	1	-1E+10	1	-1E+10	1	-1E+10	1	-1E+10	1
4902643	27	C	03/18/2025	09:29	-133.549	43.156	0	289.60	0	6.3870	0	33.8540	0	26.601	0	287.097	0	127.0	4	42.3	4	-1E+10	1	-1E+10	1	-1E+10	1	-1E+10	1	-1E+10	1	-1E+10	1
4902643	27	C	03/18/2025	09:29	-133.549	43.156	0	309.60	0	6.0200	0	33.8530	0	26.647	0	306.909	0	112.4	4	37.1	4	-1E+10	1	-1E+10	1	-1E+10	1	-1E+10	1	-1E+10	1	-1E+10	1
4902643	27	C	03/18/2025	09:29	-133.549	43.156	0	329.60	0	5.8870	0	33.8760	0	26.682	0	326.720	0	97.6	4	32.2	4	-1E+10	1	-1E+10	1	-1E+10	1	-1E+10	1	-1E+10	1	-1E+10	1
4902643	27	C	03/18/2025	09:29	-133.549	43.156	0	349.70	0	5.7210	0	33.8950	0	26.718	0	346.627	0	87.2	4	28.6	4	-1E+10	1	-1E+10	1	-1E+10	1	-1E+10	1	-1E+10	1	-1E+10	1
4902643	27	C	03/18/2025	09:29	-133.549	43.156	0	369.80	0	5.5120	0	33.9130	0	26.757	0	366.533	0	76.5	4	25.0	4	-1E+10	1	-1E+10	1	-1E+10	1	-1E+10	1	-1E+10	1	-1E+10	1
4902643	27	C	03/18/2025	09:29	-133.549	43.156	0	390.00	0	5.3140	0	33.9290	0	26.794	0	386.535	0	69.8	4	22.7	4	-1E+10	1	-1E+10	1	-1E+10	1	-1E+10	1	-1E+10	1	-1E+10	1
4902643	27	C	03/18/2025	09:29	-133.549	43.156	0	409.50	0	5.0830	0	33.9410	0	26.830	0	405.843	0	64.3	4	20.8	4	-1E+10	1	-1E+10	1	-1E+10	1	-1E+10	1	-1E+10	1	-1E+10	1
4902643	27	C	03/18/2025	09:29	-133.549	43.156	0	429.90	0	4.9090	0	33.9540	0	26.860	0	426.040	0	58.8	4	18.9	4	-1E+10	1	-1E+10	1	-1E+10	1	-1E+10	1	-1E+10	1	-1E+10	1
4902643	27	C	03/18/2025	09:29	-133.549	43.156	0	450.20	0	4.8190	0	33.9820	0	26.893	0	446.136	0	50.8	4	16.3	4	-1E+10	1	-1E+10	1	-1E+10	1	-1E+10	1	-1E+10	1	-1E+10	1
4902643	27	C	03/18/2025	09:29	-133.549	43.156	0	469.40	0	4.7250	0	34.0090	0	26.925	0	465.141	0	44.8	4	14.4	4	-1E+10	1	-1E+10	1	-1E+10	1	-1E+10	1	-1E+10	1	-1E+10	1
4902643	27	C	03/18/2025	09:29	-133.549	43.156	0	489.70	0	4.6760	0	34.0270	0	26.944	0	485.233	0	40.2	4	12.9	4	-1E+10	1	-1E+10	1	-1E+10	1	-1E+10	1	-1E+10	1	-1E+10	1
4902643	27	C	03/18/2025	09:29	-133.549	43.156	0	509.70	0	4.6250	0	34.0500	0	26.968	0	505.026	0	34.6	4	11.1	4	-1E+10	1	-1E+10	1	-1E+10	1	-1E+10	1	-1E+10	1	-1E+10	1
4902643	27	C	03/18/2025	09:29	-133.549	43.156	0	529.40	0	4.5870	0	34.0680	0	26.987	0	524.521	0	31.8	4	10.2	4	-1E+10	1	-1E+10	1	-1E+10	1	-1E+10	1	-1E+10	1	-1E+10	1
4902643	27	C	03/18/2025	09:29	-133.549	43.156	0	549.50	0	4.5330	0	34.0820	0	27.004	0	544.409	0	28.0	4	8.9	4	-1E+10	1	-1E+10	1	-1E+10	1	-1E+10	1	-1E+10	1	-1E+10	1
4902643	27	C	03/18/2025	09:29	-133.549	43.156	0	569.90	0	4.4860	0	34.1090	0	27.031	0	564.593	0	23.5	4	7.5	4	-1E+10	1	-1E+10	1	-1E+10	1	-1E+10	1	-1E+10	1	-1E+10	1
4902643	27	C	03/18/2025	09:29	-133.549	43.156	0	589.90	0	4.4490	0	34.1310	0	27.052	0	584.378	0	20.6	4	6.6	4	-1E+10	1	-1E+10	1	-1E+10	1	-1E+10	1	-1E+10	1	-1E+10	1
4902643	27	C	03/18/2025	09:29	-133.549	43.156	0	609.70	0	4.3560	0	34.1400	0	27.070	0	603.964	0	19.2	4	6.1	4	-1E+10	1	-1E+10	1	-1E+10	1	-1E+10	1	-1E+10	1	-1E+10	1
4902643	27	C	03/18/2025	09:29	-133.549	43.156	0	629.70	0	4.3040	0	34.1590	0	27.090	0	623.746	0	17.6	4	5.6	4	-1E+10	1	-1E+10	1	-1E+10	1	-1E+10	1	-1E+10	1	-1E+10	1
4902643	27	C	03/18/2025	09:29	-133.549	43.156	0	649.00	0	4.1770	0	34.1540	0	27.100	0	642.834	0	18.4	4	5.8	4	-1E+10	1	-1E+10	1	-1E+10	1	-1E+10	1	-1E+10	1	-1E+10	1
4902643	27	C	03/18/2025	09:29	-133.549	43.156	0	669.80	0	4.0590	0	34.1570	0	27.115	0	663.403	0	17.0	4	5.4	4	-1E+10	1	-1E+10	1	-1E+10	1	-1E+10	1	-1E+10	1	-1E+10	1
4902643	27	C	03/18/2025	09:29	-133.549	43.156	0	689.70	0	4.0120	0	34.1800	0	27.138	0	683.081	0	14.8	4	4.7	4	-1E+10	1	-1E+10	1	-1E+10	1	-1E+10	1	-1E+10	1	-1E+10	1
4902643	27	C	03/18/2025	09:29	-133.549	43.156	0	709.70	0	3.9650	0	34.1950	0	27.155	0	702.855	0	13.3	4	4.2	4	-1E+10	1	-1E+10	1	-1E+10	1	-1E+10	1	-1E+10	1	-1E+10	1
4902643	27	C	03/18/2025	09:29	-133.549	43.156	0	729.80	0	3.9000	0	34.2060	0	27.170	0	722.726	0	12.1	4	3.8	4	-1E+10	1	-1E+10	1	-1E+10	1	-1E+10	1	-1E+10	1	-1E+10	1
4902643	27	C	03/18/2025	09:29	-133.549	43.156	0	749.80	0	3.8650	0	34.2200	0	27.185	0	742.497	0	11.2	4	3.5	4	-1E+10	1	-1E+10	1	-1E+10	1	-1E+10	1	-1E+10	1	-1E+10	1
4902643	27	C	03/18/2025	09:29	-133.549	43.156	0	770.30	0	3.8070	0	34.2300	0	27.199	0	762.760	0	10.5	4	3.3	4	-1E+10	1	-1E+10	1	-1E+10	1	-1E+10	1	-1E+10	1	-1E+10	1
4902643	27	C	03/18/2025	09:29	-133.549	43.156	0	789.40	0	3.7660	0	34.2430	0	27.213	0	781.637	0	9.6	4	3.0	4	-1E+10	1	-1E+10	1	-1E+10	1	-1E+10	1	-1E+10	1	-1E+10	1
4902643	27	C	03/18/2025	09:29	-133.549	43.156	0	809.70	0	3.7470	0	34.2580	0	27.227	0	801.699	0	8.8	4	2.8	4	-1E+10	1	-1E+10	1	-1E+10	1	-1E+10	1	-1E+10	1	-1E+10	1
4902643	27	C	03/18/2025	09:29	-133.549	43.156	0	829.70	0	3.7020	0	34.2720	0	27.243	0	821.462	0	8.2	4	2.6	4	-1E+10	1	-1E+10	1	-1E+10	1	-1E+10	1	-1E+10	1	-1E+10	1
4902643	27	C	03/18/2025	09:29	-133.549	43.156	0	849.30	0	3.6700	0	34.2850	0	27.257	0	840.828	0	7.6	4	2.4	4	-1E+10	1	-1E+10	1	-1E+10	1	-1E+10	1	-1E+10	1	-1E+10	1
4902643	27	C	03/18/2025	09:29	-133.549	43.156	0	869.50	0	3.6270	0	34.2990	0	27.272	0	860.785	0	7.3	4	2.3	4	-1E+10	1	-1E+10	1	-1E+10	1	-1E+10	1	-1E+10	1	-1E+10	1
4902643	27	C	03/18/2025	09:29	-133.549	43.156	0	889.60	0	3.5750	0	34.3090	0	27.285	0	880.641	0	7.1	4	2.2	4	-1E+10	1	-1E+10	1	-1E+10	1	-1E+10	1	-1E+10	1	-1E+10	1
4902643	27	C	03/18/2025	09:29	-133.549	43.156	0	909.50	0	3.5520	0	34.3260	0	27.301	0	900.298	0	6.9	4	2.1	4	-1E+10	1	-1E+10	1	-1E+10	1	-1E+10	1	-1E+10	1	-1E+10	1
4902643	27	C	03/18/2025	09:29	-133.549	43.156	0	929.70	0	3.5430	0	34.3370	0	27.311	0	920.249	0	6.8	4	2.1	4	-1E+10	1	-1E+10	1	-1E+10	1	-1E+10	1	-1E+10	1	-1E+10	1
4902643	27	C	03/18/2025	09:29	-133.549	43.156	0	949.70	0	3.5330	0	34.3540	0	27.326	0	940.001	0	6.8	4	2.1	4	-1E+10	1	-1E+10	1	-1E+10	1	-1E+10	1	-1E+10	1	-1E+10	1
4902643	27	C	03/18/2025	09:29	-133.549	43.156	0	969.80	0	3.5090	0	34.3670	0	27.339	0	959.849	0	6.9	4	2.2	4	-1E+10	1	-1E+10	1	-1E+10	1	-1E+10	1	-1E+10	1	-1E+10	1
4902643	27	C	03/18/2025	09:29	-133.549	43.156	0	989.80	0	3.4670	0	34.3750	0	27.349	0	979.597	0	7.1	4	2.2	4	-1E+10	1	-1E+10	1	-1E+10	1	-1E+10	1	-1E+10	1	-1E+10	1
4902643	27	C	03/18/2025	09:29	-133.549	43.156	0	1010.30	0	3.4200	0	34.3840	0	27.361	0	999.837	0	7.4	4	2.3	4	-1E+10	1	-1E+10	1	-1E+10	1	-1E+10	1	-1E+10	1	-1E+10	1
4902643	27	C	03/18/2025	09:29	-133.549	43.156	0	1029.80	0	3.3700	0	34.3930	0	27.373	0	1019.088	0	7.6	4	2.4	4	-1E+10	1	-1E+10	1	-1E+10	1	-1E+10	1	-1E+10	1	-1E+10	1
4902643	27	C	03/18/2025	09:29	-133.549	43.156	0	1049.70	0	3.3250	0	34.4000	0	27.383	0	1038.731	0	8.0	4	2.5	4	-1E+10	1	-1E+10	1	-1E+10	1	-1E+10	1	-1E+10	1	-1E+10	1
4902643	27	C	03/18/2025	09:29	-133.549	43.156	0	1069.50	0	3.2990	0	34.4110	0	27.394	0	1058.275	0	8.6	4	2.7	4	-1E+10	1	-1E+10	1	-1E+10	1	-1E+10	1	-1E+10	1	-1E+10	1
4902643	27	C	03/18/2025	09:29	-133.549	43.156	0	1089.70	0	3.2530	0	34.4200	0	27.406	0	1078.211	0	9.2	4	2.9	4	-1E+10	1	-1E+10	1	-1E+10	1	-1E+10	1	-1E+10	1	-1E+10	1
4902643	27	C	03/18/2025	09:29	-133.549	43.156	0	1110.20	0	3.2020	0	34.4280	0	27.417	0	1098.441	0	9.8	4	3.1	4	-1E+10	1	-1E+10	1	-1E+10	1	-1E+10	1	-1E+10	1	-1E+10	1
4902643	27	C	03/18/2025	09:29	-133.549	43.156	0	1129.40	0	3.1570	0	34.4370	0	27.429	0	1117.387	0	10.4	4	3.2	4	-1E+10	1	-1E+10	1	-1E+10	1	-1E+10	1	-1E+10	1	-1E+10	1
4902643	27	C	03/18/2025	09:29	-133.549	43.156	0	1149.30	0	3.1130	0	34.4430	0	27.438	0	1137.021	0	11.0	4	3.4	4	-1E+10	1	-1E+10	1	-1E+10	1	-1E+10	1	-1E+10	1	-1E+10	1
4902643	27	C	03/18/2025	09:29	-133.549	43.156	0	1169.60	0	3.0660	0	34.4500	0	27.448	0	1157.048	0	11.6	4	3.6	4	-1E+10	1	-1E+10	1	-1E+10	1	-1E+10	1	-1E+10	1	-1E+10	1
4902643	27	C	03/18/2025	09:29	-133.549	43.156	0	1190.60	0	3.0380	0	34.4550	0	27.454	0	1177.764	0	12.3	4	3.8	4	-1E+10	1	-1E+10	1	-1E+10	1	-1E+10	1	-1E+10	1	-1E+10	1
4902643	27	C	03/18/2025	09:29	-133.549	43.156	0	1209.70	0	3.0060	0	34.4600	0	27.461	0	1196.604	0	12.8	4	4.0	4	-1E+10	1	-1E+10	1	-1E+10	1	-1E+10	1	-1E+10	1	-1E+10	1
4902643	27	C	03/18/2025	09:29	-133.549	43.156	0	1229.50	0	2.9740	0	34.4640	0	27.467	0	1216.132	0	13.4	4	4.1	4	-1E+10	1	-1E+10	1	-1E+10	1	-1E+10	1	-1E+10	1	-1E+10	1
4902643	27	C	03/18/2025	09:29	-133.549	43.156	0	1249.40	0	2.9430	0	34.4680	0	27.473	0	1235.758	0	13.9	4	4.3	4	-1E+10	1	-1E+10	1	-1E+10	1	-1E+10	1	-1E+10	1	-1E+10	1
4902643	27	C	03/18/2025	09:29	-133.549	43.156	0	1269.40	0	2.9150	0	34.4720	0	27.479	0	1255.480	0	14.4	4	4.4	4	-1E+10	1	-1E+10	1	-1E+10	1	-1E+10	1	-1E+10	1	-1E+10	1
4902643	27	C	03/18/2025	09:29	-133.549	43.156	0	1289.40	0	2.8830	0	34.4750	0	27.485	0	1275.200	0	15.0	4	4.6	4	-1E+10	1	-1E+10	1	-1E+10	1	-1E+10	1	-1E+10	1	-1E+10	1
4902643	27	C	03/18/2025	09:29	-133.549	43.156	0	1309.60	0	2.8530	0	34.4790	0	27.491	0	1295.115	0	15.7	4	4.8	4	-1E+10	1	-1E+10	1	-1E+10	1	-1E+10	1	-1E+10	1	-1E+10	1
4902643	27	C	03/18/2025	09:29	-133.549	43.156	0	1330.10	0	2.8170	0	34.4840	0	27.498	0	1315.325	0	16.6	4	5.1	4	-1E+10	1	-1E+10	1	-1E+10	1	-1E+10	1	-1E+10	1	-1E+10	1
4902643	27	C	03/18/2025	09:29	-133.549	43.156	0	1349.80	0	2.7820	0	34.4880	0	27.504	0	1334.743	0	17.6	4	5.4	4	-1E+10	1	-1E+10	1	-1E+10	1	-1E+10	1	-1E+10	1	-1E+10	1
4902643	27	C	03/18/2025	09:29	-133.549	43.156	0	1369.70	0	2.7430	0	34.4940	0	27.513	0	1354.358	0	18.5	4	5.7	4	-1E+10	1	-1E+10	1	-1E+10	1	-1E+10	1	-1E+10	1	-1E+10	1
4902643	27	C	03/18/2025	09:29	-133.549	43.156	0	1390.00	0	2.7190	0	34.4970	0	27.517	0	1374.364	0	19.3	4	5.9	4	-1E+10	1	-1E+10	1	-1E+10	1	-1E+10	1	-1E+10	1	-1E+10	1
4902643	27	C	03/18/2025	09:29	-133.549	43.156	0	1410.10	0	2.6900	0	34.5010	0	27.523	0	1394.172	0	20.4	4	6.3	4	-1E+10	1	-1E+10	1	-1E+10	1	-1E+10	1	-1E+10	1	-1E+10	1
4902643	27	C	03/18/2025	09:29	-133.549	43.156	0	1429.70	0	2.6410	0	34.5070	0	27.532	0	1413.485	0	21.6	4	6.6	4	-1E+10	1	-1E+10	1	-1E+10	1	-1E+10	1	-1E+10	1	-1E+10	1
4902643	27	C	03/18/2025	09:29	-133.549	43.156	0	1449.40	0	2.6100	0	34.5100	0	27.537	0	1432.894	0	22.6	4	6.9	4	-1E+10	1	-1E+10	1	-1E+10	1	-1E+10	1	-1E+10	1	-1E+10	1
4902643	27	C	03/18/2025	09:29	-133.549	43.156	0	1469.00	0	2.5750	0	34.5140	0	27.543	0	1452.204	0	23.8	4	7.3	4	-1E+10	1	-1E+10	1	-1E+10	1	-1E+10	1	-1E+10	1	-1E+10	1
4902643	27	C	03/18/2025	09:29	-133.549	43.156	0	1489.80	0	2.5330	0	34.5190	0	27.551	0	1472.694	0	25.1	4	7.7	4	-1E+10	1	-1E+10	1	-1E+10	1	-1E+10	1	-1E+10	1	-1E+10	1
4902643	27	C	03/18/2025	09:29	-133.549	43.156	0	1509.70	0	2.4980	0	34.5230	0	27.557	0	1492.295	0	26.4	4	8.0	4	-1E+10	1	-1E+10	1	-1E+10	1	-1E+10	1	-1E+10	1	-1E+10	1
4902643	27	C	03/18/2025	09:29	-133.549	43.156	0	1529.50	0	2.4570	0	34.5280	0	27.565	0	1511.796	0	27.7	4	8.5	4	-1E+10	1	-1E+10	1	-1E+10	1	-1E+10	1	-1E+10	1	-1E+10	1
4902643	27	C	03/18/2025	09:29	-133.549	43.156	0	1549.70	0	2.4240	0	34.5320	0	27.571	0	1531.689	0	28.9	4	8.8	4	-1E+10	1	-1E+10	1	-1E+10	1	-1E+10	1	-1E+10	1	-1E+10	1
4902643	27	C	03/18/2025	09:29	-133.549	43.156	0	1569.70	0	2.3870	0	34.5370	0	27.578	0	1551.383	0	30.2	4	9.2	4	-1E+10	1	-1E+10	1	-1E+10	1	-1E+10	1	-1E+10	1	-1E+10	1
4902643	27	C	03/18/2025	09:29	-133.549	43.156	0	1590.40	0	2.3650	0	34.5400	0	27.582	0	1571.765	0	31.1	4	9.5	4	-1E+10	1	-1E+10	1	-1E+10	1	-1E+10	1	-1E+10	1	-1E+10	1
4902643	27	C	03/18/2025	09:29	-133.549	43.156	0	1609.90	0	2.3410	0	34.5430	0	27.587	0	1590.963	0	32.2	4	9.8	4	-1E+10	1	-1E+10	1	-1E+10	1	-1E+10	1	-1E+10	1	-1E+10	1
4902643	27	C	03/18/2025	09:29	-133.549	43.156	0	1629.80	0	2.3160	0	34.5460	0	27.591	0	1610.553	0	33.4	4	10.1	4	-1E+10	1	-1E+10	1	-1E+10	1	-1E+10	1	-1E+10	1	-1E+10	1
4902643	27	C	03/18/2025	09:29	-133.549	43.156	0	1649.80	0	2.2910	0	34.5490	0	27.596	0	1630.240	0	34.6	4	10.5	4	-1E+10	1	-1E+10	1	-1E+10	1	-1E+10	1	-1E+10	1	-1E+10	1
4902643	27	C	03/18/2025	09:29	-133.549	43.156	0	1669.90	0	2.2640	0	34.5530	0	27.602	0	1650.024	0	35.8	4	10.9	4	-1E+10	1	-1E+10	1	-1E+10	1	-1E+10	1	-1E+10	1	-1E+10	1
4902643	27	C	03/18/2025	09:29	-133.549	43.156	0	1689.80	0	2.2400	0	34.5560	0	27.606	0	1669.609	0	37.0	4	11.2	4	-1E+10	1	-1E+10	1	-1E+10	1	-1E+10	1	-1E+10	1	-1E+10	1
4902643	27	C	03/18/2025	09:29	-133.549	43.156	0	1709.80	0	2.2180	0	34.5580	0	27.609	0	1689.290	0	38.1	4	11.5	4	-1E+10	1	-1E+10	1	-1E+10	1	-1E+10	1	-1E+10	1	-1E+10	1
4902643	27	C	03/18/2025	09:29	-133.549	43.156	0	1729.80	0	2.1980	0	34.5610	0	27.614	0	1708.970	0	39.2	4	11.9	4	-1E+10	1	-1E+10	1	-1E+10	1	-1E+10	1	-1E+10	1	-1E+10	1
4902643	27	C	03/18/2025	09:29	-133.549	43.156	0	1749.70	0	2.1780	0	34.5640	0	27.618	0	1728.549	0	40.5	4	12.2	4	-1E+10	1	-1E+10	1	-1E+10	1	-1E+10	1	-1E+10	1	-1E+10	1
4902643	27	C	03/18/2025	09:29	-133.549	43.156	0	1769.70	0	2.1570	0	34.5670	0	27.622	0	1748.225	0	41.7	4	12.6	4	-1E+10	1	-1E+10	1	-1E+10	1	-1E+10	1	-1E+10	1	-1E+10	1
4902643	27	C	03/18/2025	09:29	-133.549	43.156	0	1790.00	0	2.1370	0	34.5700	0	27.626	0	1768.194	0	42.9	4	13.0	4	-1E+10	1	-1E+10	1	-1E+10	1	-1E+10	1	-1E+10	1	-1E+10	1
4902643	27	C	03/18/2025	09:29	-133.549	43.156	0	1809.80	0	2.1210	0	34.5720	0	27.629	0	1787.670	0	44.0	4	13.3	4	-1E+10	1	-1E+10	1	-1E+10	1	-1E+10	1	-1E+10	1	-1E+10	1
4902643	27	C	03/18/2025	09:29	-133.549	43.156	0	1829.80	0	2.1030	0	34.5750	0	27.633	0	1807.340	0	45.3	4	13.7	4	-1E+10	1	-1E+10	1	-1E+10	1	-1E+10	1	-1E+10	1	-1E+10	1
4902643	27	C	03/18/2025	09:29	-133.549	43.156	0	1850.40	0	2.0800	0	34.5780	0	27.637	0	1827.599	0	46.9	4	14.2	4	-1E+10	1	-1E+10	1	-1E+10	1	-1E+10	1	-1E+10	1	-1E+10	1
4902643	27	C	03/18/2025	09:29	-133.549	43.156	0	1869.40	0	2.0610	0	34.5810	0	27.641	0	1846.282	0	48.3	4	14.6	4	-1E+10	1	-1E+10	1	-1E+10	1	-1E+10	1	-1E+10	1	-1E+10	1
4902643	27	C	03/18/2025	09:29	-133.549	43.156	0	1889.90	0	2.0370	0	34.5840	0	27.646	0	1866.439	0	49.6	4	15.0	4	-1E+10	1	-1E+10	1	-1E+10	1	-1E+10	1	-1E+10	1	-1E+10	1
4902643	27	C	03/18/2025	09:29	-133.549	43.156	0	1909.80	0	2.0230	0	34.5860	0	27.648	0	1886.003	0	50.7	4	15.3	4	-1E+10	1	-1E+10	1	-1E+10	1	-1E+10	1	-1E+10	1	-1E+10	1
4902643	27	C	03/18/2025	09:29	-133.549	43.156	0	1930.00	0	2.0040	0	34.5890	0	27.652	0	1905.861	0	51.9	4	15.6	4	-1E+10	1	-1E+10	1	-1E+10	1	-1E+10	1	-1E+10	1	-1E+10	1
4902643	27	C	03/18/2025	09:29	-133.549	43.156	0	1950.00	0	1.9930	0	34.5910	0	27.655	0	1925.521	0	52.7	4	15.9	4	-1E+10	1	-1E+10	1	-1E+10	1	-1E+10	1	-1E+10	1	-1E+10	1
4902643	27	C	03/18/2025	09:29	-133.549	43.156	0	1969.80	0	1.9800	0	34.5920	0	27.657	0	1944.982	0	53.6	4	16.2	4	-1E+10	1	-1E+10	1	-1E+10	1	-1E+10	1	-1E+10	1	-1E+10	1
4902643	27	C	03/18/2025	09:29	-133.549	43.156	0	1989.70	0	1.9660	0	34.5940	0	27.660	0	1964.539	0	54.9	4	16.5	4	-1E+10	1	-1E+10	1	-1E+10	1	-1E+10	1	-1E+10	1	-1E+10	1
4902643	27	C	03/18/2025	09:29	-133.549	43.156	0	2009.80	0	1.9440	0	34.5980	4	27.665	0	1984.292	0	56.3	4	16.9	4	-1E+10	1	-1E+10	1	-1E+10	1	-1E+10	1	-1E+10	1	-1E+10	1
4902643	27	C	03/18/2025	09:29	-133.549	43.156	0	2029.90	0	1.9340	0	34.5990	4	27.666	0	2004.042	0	57.0	4	17.2	4	-1E+10	1	-1E+10	1	-1E+10	1	-1E+10	1	-1E+10	1	-1E+10	1
4902643	27	C	03/18/2025	09:29	-133.549	43.156	0	2049.80	0	1.9260	0	34.6010	4	27.669	0	2023.594	0	57.6	4	17.4	4	-1E+10	1	-1E+10	1	-1E+10	1	-1E+10	1	-1E+10	1	-1E+10	1
4902643	27	C	03/18/2025	09:29	-133.549	43.156	0	2069.70	0	1.9180	0	34.6020	4	27.670	0	2043.145	0	58.3	4	17.5	4	-1E+10	1	-1E+10	1	-1E+10	1	-1E+10	1	-1E+10	1	-1E+10	1
4902643	27	C	03/18/2025	09:29	-133.549	43.156	0	2089.60	0	1.9100	0	34.6030	4	27.672	0	2062.693	0	58.9	4	17.7	4	-1E+10	1	-1E+10	1	-1E+10	1	-1E+10	1	-1E+10	1	-1E+10	1
4902643	27	C	03/18/2025	09:29	-133.549	43.156	0	2109.60	0	1.9020	0	34.6040	4	27.673	0	2082.338	0	59.7	4	18.0	4	-1E+10	1	-1E+10	1	-1E+10	1	-1E+10	1	-1E+10	1	-1E+10	1
4902643	27	C	03/18/2025	09:29	-133.549	43.156	0	2129.60	0	1.8900	0	34.6060	4	27.676	0	2101.982	0	60.7	4	18.3	4	-1E+10	1	-1E+10	1	-1E+10	1	-1E+10	1	-1E+10	1	-1E+10	1
4902643	27	C	03/18/2025	09:29	-133.549	43.156	0	2149.60	0	1.8780	0	34.6080	4	27.678	0	2121.623	0	61.8	4	18.6	4	-1E+10	1	-1E+10	1	-1E+10	1	-1E+10	1	-1E+10	1	-1E+10	1
4902643	27	C	03/18/2025	09:29	-133.549	43.156	0	2169.60	0	1.8650	0	34.6100	4	27.681	0	2141.263	0	62.9	4	18.9	4	-1E+10	1	-1E+10	1	-1E+10	1	-1E+10	1	-1E+10	1	-1E+10	1
4902643	27	C	03/18/2025	09:29	-133.549	43.156	0	2189.70	0	1.8550	0	34.6120	4	27.684	0	2160.998	0	63.6	4	19.1	4	-1E+10	1	-1E+10	1	-1E+10	1	-1E+10	1	-1E+10	1	-1E+10	1
4902643	27	C	03/18/2025	09:29	-133.549	43.156	0	2209.80	0	1.8490	0	34.6130	4	27.685	0	2180.733	0	64.3	4	19.3	4	-1E+10	1	-1E+10	1	-1E+10	1	-1E+10	1	-1E+10	1	-1E+10	1
4902643	27	C	03/18/2025	09:29	-133.549	43.156	0	2230.50	0	1.8420	0	34.6140	4	27.686	0	2201.054	0	65.0	4	19.5	4	-1E+10	1	-1E+10	1	-1E+10	1	-1E+10	1	-1E+10	1	-1E+10	1
4902643	27	C	03/18/2025	09:29	-133.549	43.156	0	2249.70	0	1.8330	0	34.6160	4	27.689	0	2219.901	0	65.7	4	19.7	4	-1E+10	1	-1E+10	1	-1E+10	1	-1E+10	1	-1E+10	1	-1E+10	1
4902643	27	C	03/18/2025	09:29	-133.549	43.156	0	2269.40	0	1.8270	0	34.6160	4	27.689	0	2239.237	0	66.3	4	19.9	4	-1E+10	1	-1E+10	1	-1E+10	1	-1E+10	1	-1E+10	1	-1E+10	1
4902643	27	C	03/18/2025	09:29	-133.549	43.156	0	2289.40	0	1.8200	0	34.6170	4	27.691	0	2258.866	0	67.1	4	20.2	4	-1E+10	1	-1E+10	1	-1E+10	1	-1E+10	1	-1E+10	1	-1E+10	1
4902643	27	C	03/18/2025	09:29	-133.549	43.156	0	2309.50	0	1.8110	0	34.6190	4	27.693	0	2278.591	0	68.0	4	20.4	4	-1E+10	1	-1E+10	1	-1E+10	1	-1E+10	1	-1E+10	1	-1E+10	1
4902643	27	C	03/18/2025	09:29	-133.549	43.156	0	2329.00	0	1.8040	0	34.6200	4	27.695	0	2297.725	0	68.7	4	20.6	4	-1E+10	1	-1E+10	1	-1E+10	1	-1E+10	1	-1E+10	1	-1E+10	1
4902643	27	C	03/18/2025	09:29	-133.549	43.156	0	2349.80	0	1.7980	0	34.6210	4	27.696	0	2318.134	0	69.4	4	20.8	4	-1E+10	1	-1E+10	1	-1E+10	1	-1E+10	1	-1E+10	1	-1E+10	1
4902643	27	C	03/18/2025	09:29	-133.549	43.156	0	2369.60	0	1.7910	0	34.6220	4	27.698	0	2337.559	0	70.2	4	21.1	4	-1E+10	1	-1E+10	1	-1E+10	1	-1E+10	1	-1E+10	1	-1E+10	1
4902643	27	C	03/18/2025	09:29	-133.549	43.156	0	2389.70	0	1.7830	0	34.6230	4	27.699	0	2357.277	0	71.1	4	21.3	4	-1E+10	1	-1E+10	1	-1E+10	1	-1E+10	1	-1E+10	1	-1E+10	1
4902643	27	C	03/18/2025	09:29	-133.549	43.156	0	2409.60	0	1.7750	0	34.6250	4	27.701	0	2376.797	0	71.8	4	21.5	4	-1E+10	1	-1E+10	1	-1E+10	1	-1E+10	1	-1E+10	1	-1E+10	1
4902643	27	C	03/18/2025	09:29	-133.549	43.156	0	2429.70	0	1.7680	0	34.6260	4	27.703	0	2396.511	0	72.6	4	21.8	4	-1E+10	1	-1E+10	1	-1E+10	1	-1E+10	1	-1E+10	1	-1E+10	1
4902643	27	C	03/18/2025	09:29	-133.549	43.156	0	2449.80	0	1.7610	0	34.6270	4	27.704	0	2416.223	0	73.3	4	22.0	4	-1E+10	1	-1E+10	1	-1E+10	1	-1E+10	1	-1E+10	1	-1E+10	1
4902643	27	C	03/18/2025	09:29	-133.549	43.156	0	2469.90	0	1.7540	0	34.6270	4	27.705	0	2435.934	0	73.9	4	22.2	4	-1E+10	1	-1E+10	1	-1E+10	1	-1E+10	1	-1E+10	1	-1E+10	1
4902643	27	C	03/18/2025	09:29	-133.549	43.156	0	2489.80	0	1.7490	0	34.6280	4	27.706	0	2455.447	0	74.7	4	22.4	4	-1E+10	1	-1E+10	1	-1E+10	1	-1E+10	1	-1E+10	1	-1E+10	1
4902643	27	C	03/18/2025	09:29	-133.549	43.156	0	2509.30	0	1.7380	0	34.6300	4	27.709	0	2474.565	0	75.6	4	22.6	4	-1E+10	1	-1E+10	1	-1E+10	1	-1E+10	1	-1E+10	1	-1E+10	1
4902643	27	C	03/18/2025	09:29	-133.549	43.156	0	2530.30	0	1.7300	0	34.6310	4	27.710	0	2495.153	0	76.6	4	23.0	4	-1E+10	1	-1E+10	1	-1E+10	1	-1E+10	1	-1E+10	1	-1E+10	1
4902643	27	C	03/18/2025	09:29	-133.549	43.156	0	2549.90	0	1.7250	0	34.6320	4	27.712	0	2514.366	0	77.3	4	23.2	4	-1E+10	1	-1E+10	1	-1E+10	1	-1E+10	1	-1E+10	1	-1E+10	1
4902643	27	C	03/18/2025	09:29	-133.549	43.156	0	2569.60	0	1.7200	0	34.6330	4	27.713	0	2533.676	0	77.9	4	23.3	4	-1E+10	1	-1E+10	1	-1E+10	1	-1E+10	1	-1E+10	1	-1E+10	1
4902643	27	C	03/18/2025	09:29	-133.549	43.156	0	2589.60	0	1.7110	0	34.6340	4	27.714	0	2553.278	0	78.7	4	23.6	4	-1E+10	1	-1E+10	1	-1E+10	1	-1E+10	1	-1E+10	1	-1E+10	1
4902643	27	C	03/18/2025	09:29	-133.549	43.156	0	2609.20	0	1.7050	0	34.6350	4	27.716	0	2572.485	0	79.5	4	23.8	4	-1E+10	1	-1E+10	1	-1E+10	1	-1E+10	1	-1E+10	1	-1E+10	1
4902643	27	C	03/18/2025	09:29	-133.549	43.156	0	2630.00	0	1.6970	0	34.6360	4	27.717	0	2592.868	0	80.4	4	24.1	4	-1E+10	1	-1E+10	1	-1E+10	1	-1E+10	1	-1E+10	1	-1E+10	1
4902643	27	C	03/18/2025	09:29	-133.549	43.156	0	2649.70	0	1.6910	0	34.6370	4	27.719	0	2612.170	0	81.1	4	24.3	4	-1E+10	1	-1E+10	1	-1E+10	1	-1E+10	1	-1E+10	1	-1E+10	1
4902643	27	C	03/18/2025	09:29	-133.549	43.156	0	2669.70	0	1.6850	0	34.6380	4	27.720	0	2631.765	0	82.0	4	24.5	4	-1E+10	1	-1E+10	1	-1E+10	1	-1E+10	1	-1E+10	1	-1E+10	1
4902643	27	C	03/18/2025	09:29	-133.549	43.156	0	2689.90	0	1.6780	0	34.6380	4	27.721	0	2651.554	0	82.8	4	24.8	4	-1E+10	1	-1E+10	1	-1E+10	1	-1E+10	1	-1E+10	1	-1E+10	1
4902643	27	C	03/18/2025	09:29	-133.549	43.156	0	2710.40	0	1.6710	0	34.6390	4	27.722	0	2671.635	0	83.6	4	25.0	4	-1E+10	1	-1E+10	1	-1E+10	1	-1E+10	1	-1E+10	1	-1E+10	1
4902643	27	C	03/18/2025	09:29	-133.549	43.156	0	2729.30	0	1.6660	0	34.6400	4	27.723	0	2690.147	0	84.3	4	25.2	4	-1E+10	1	-1E+10	1	-1E+10	1	-1E+10	1	-1E+10	1	-1E+10	1
4902643	27	C	03/18/2025	09:29	-133.549	43.156	0	2749.50	0	1.6610	0	34.6410	4	27.725	0	2709.930	0	85.1	4	25.5	4	-1E+10	1	-1E+10	1	-1E+10	1	-1E+10	1	-1E+10	1	-1E+10	1
4902643	27	C	03/18/2025	09:29	-133.549	43.156	0	2769.80	0	1.6550	0	34.6420	4	27.726	0	2729.810	0	85.9	4	25.7	4	-1E+10	1	-1E+10	1	-1E+10	1	-1E+10	1	-1E+10	1	-1E+10	1
4902643	27	C	03/18/2025	09:29	-133.549	43.156	0	2790.00	0	1.6520	0	34.6430	4	27.727	0	2749.589	0	86.5	4	25.9	4	-1E+10	1	-1E+10	1	-1E+10	1	-1E+10	1	-1E+10	1	-1E+10	1
4902643	27	C	03/18/2025	09:29	-133.549	43.156	0	2810.10	0	1.6460	0	34.6440	4	27.729	0	2769.270	0	87.4	4	26.1	4	-1E+10	1	-1E+10	1	-1E+10	1	-1E+10	1	-1E+10	1	-1E+10	1
4902643	27	C	03/18/2025	09:29	-133.549	43.156	0	2830.30	0	1.6420	0	34.6450	4	27.730	0	2789.046	0	88.2	4	26.4	4	-1E+10	1	-1E+10	1	-1E+10	1	-1E+10	1	-1E+10	1	-1E+10	1
4902643	27	C	03/18/2025	09:29	-133.549	43.156	0	2849.80	0	1.6380	0	34.6450	4	27.730	0	2808.135	0	89.0	4	26.6	4	-1E+10	1	-1E+10	1	-1E+10	1	-1E+10	1	-1E+10	1	-1E+10	1
4902643	27	C	03/18/2025	09:29	-133.549	43.156	0	2869.70	0	1.6320	0	34.6470	4	27.732	0	2827.614	0	90.0	4	26.9	4	-1E+10	1	-1E+10	1	-1E+10	1	-1E+10	1	-1E+10	1	-1E+10	1
4902643	27	C	03/18/2025	09:29	-133.549	43.156	0	2889.70	0	1.6270	0	34.6470	4	27.733	0	2847.189	0	90.7	4	27.1	4	-1E+10	1	-1E+10	1	-1E+10	1	-1E+10	1	-1E+10	1	-1E+10	1
4902643	27	C	03/18/2025	09:29	-133.549	43.156	0	2909.30	0	1.6230	0	34.6480	4	27.734	0	2866.371	0	91.4	4	27.3	4	-1E+10	1	-1E+10	1	-1E+10	1	-1E+10	1	-1E+10	1	-1E+10	1
4902643	27	C	03/18/2025	09:29	-133.549	43.156	0	2929.80	0	1.6200	0	34.6490	4	27.735	0	2886.432	0	92.0	4	27.5	4	-1E+10	1	-1E+10	1	-1E+10	1	-1E+10	1	-1E+10	1	-1E+10	1
4902643	27	C	03/18/2025	09:29	-133.549	43.156	0	2949.60	0	1.6160	0	34.6490	4	27.736	0	2905.806	0	92.6	4	27.7	4	-1E+10	1	-1E+10	1	-1E+10	1	-1E+10	1	-1E+10	1	-1E+10	1
4902643	27	C	03/18/2025	09:29	-133.549	43.156	0	2969.90	0	1.6130	0	34.6500	4	27.737	0	2925.668	0	93.0	4	27.8	4	-1E+10	1	-1E+10	1	-1E+10	1	-1E+10	1	-1E+10	1	-1E+10	1
4902643	27	C	03/18/2025	09:29	-133.549	43.156	0	2990.20	0	1.6100	0	34.6510	4	27.738	0	2945.528	0	93.4	4	27.9	4	-1E+10	1	-1E+10	1	-1E+10	1	-1E+10	1	-1E+10	1	-1E+10	1
4902643	27	C	03/18/2025	09:29	-133.549	43.156	0	3009.80	0	1.6070	0	34.6510	4	27.738	0	2964.701	0	93.9	4	28.1	4	-1E+10	1	-1E+10	1	-1E+10	1	-1E+10	1	-1E+10	1	-1E+10	1
4902643	27	C	03/18/2025	09:29	-133.549	43.156	0	3030.30	0	1.6020	0	34.6510	4	27.739	0	2984.753	0	94.4	4	28.2	4	-1E+10	1	-1E+10	1	-1E+10	1	-1E+10	1	-1E+10	1	-1E+10	1
4902643	27	C	03/18/2025	09:29	-133.549	43.156	0	3049.70	0	1.6000	0	34.6520	4	27.740	0	3003.727	0	94.9	4	28.4	4	-1E+10	1	-1E+10	1	-1E+10	1	-1E+10	1	-1E+10	1	-1E+10	1
4902643	27	C	03/18/2025	09:29	-133.549	43.156	0	3069.80	0	1.5960	0	34.6520	4	27.740	0	3023.384	0	95.5	4	28.5	4	-1E+10	1	-1E+10	1	-1E+10	1	-1E+10	1	-1E+10	1	-1E+10	1
4902643	27	C	03/18/2025	09:29	-133.549	43.156	0	3089.70	0	1.5900	0	34.6530	4	27.742	0	3042.844	0	96.3	4	28.7	4	-1E+10	1	-1E+10	1	-1E+10	1	-1E+10	1	-1E+10	1	-1E+10	1
4902643	27	C	03/18/2025	09:29	-133.549	43.156	0	3109.50	0	1.5860	0	34.6540	4	27.743	0	3062.204	0	96.8	4	28.9	4	-1E+10	1	-1E+10	1	-1E+10	1	-1E+10	1	-1E+10	1	-1E+10	1
4902643	27	C	03/18/2025	09:29	-133.549	43.156	0	3129.80	0	1.5830	0	34.6540	4	27.743	0	3082.051	0	97.3	4	29.1	4	-1E+10	1	-1E+10	1	-1E+10	1	-1E+10	1	-1E+10	1	-1E+10	1
4902643	27	C	03/18/2025	09:29	-133.549	43.156	0	3149.90	0	1.5800	0	34.6550	4	27.744	0	3101.701	0	97.8	4	29.2	4	-1E+10	1	-1E+10	1	-1E+10	1	-1E+10	1	-1E+10	1	-1E+10	1
4902643	27	C	03/18/2025	09:29	-133.549	43.156	0	3169.60	0	1.5770	0	34.6550	4	27.745	0	3120.958	0	98.4	4	29.4	4	-1E+10	1	-1E+10	1	-1E+10	1	-1E+10	1	-1E+10	1	-1E+10	1
4902643	27	C	03/18/2025	09:29	-133.549	43.156	0	3189.60	0	1.5750	0	34.6560	4	27.746	0	3140.507	0	98.8	4	29.5	4	-1E+10	1	-1E+10	1	-1E+10	1	-1E+10	1	-1E+10	1	-1E+10	1
4902643	27	C	03/18/2025	09:29	-133.549	43.156	0	3210.40	0	1.5710	0	34.6560	4	27.746	0	3160.836	0	99.4	4	29.7	4	-1E+10	1	-1E+10	1	-1E+10	1	-1E+10	1	-1E+10	1	-1E+10	1
4902643	27	C	03/18/2025	09:29	-133.549	43.156	0	3229.90	0	1.5700	0	34.6570	4	27.747	0	3179.892	0	99.9	4	29.8	4	-1E+10	1	-1E+10	1	-1E+10	1	-1E+10	1	-1E+10	1	-1E+10	1
4902643	27	C	03/18/2025	09:29	-133.549	43.156	0	3250.00	0	1.5690	0	34.6580	4	27.748	0	3199.534	0	100.4	4	30.0	4	-1E+10	1	-1E+10	1	-1E+10	1	-1E+10	1	-1E+10	1	-1E+10	1
4902643	27	C	03/18/2025	09:29	-133.549	43.156	0	3269.80	0	1.5670	0	34.6580	4	27.748	0	3218.880	0	100.8	4	30.1	4	-1E+10	1	-1E+10	1	-1E+10	1	-1E+10	1	-1E+10	1	-1E+10	1
4902643	27	C	03/18/2025	09:29	-133.549	43.156	0	3289.40	0	1.5660	0	34.6580	4	27.749	0	3238.029	0	101.2	4	30.2	4	-1E+10	1	-1E+10	1	-1E+10	1	-1E+10	1	-1E+10	1	-1E+10	1
4902643	27	C	03/18/2025	09:29	-133.549	43.156	0	3308.80	0	1.5640	0	34.6590	4	27.750	0	3256.981	0	101.6	4	30.3	4	-1E+10	1	-1E+10	1	-1E+10	1	-1E+10	1	-1E+10	1	-1E+10	1
4902643	27	C	03/18/2025	09:29	-133.549	43.156	0	3329.90	0	1.5620	0	34.6590	4	27.750	0	3277.592	0	102.0	4	30.4	4	-1E+10	1	-1E+10	1	-1E+10	1	-1E+10	1	-1E+10	1	-1E+10	1
4902643	27	C	03/18/2025	09:29	-133.549	43.156	0	3350.10	0	1.5600	0	34.6600	4	27.751	0	3297.322	0	102.6	4	30.6	4	-1E+10	1	-1E+10	1	-1E+10	1	-1E+10	1	-1E+10	1	-1E+10	1
4902643	27	C	03/18/2025	09:29	-133.549	43.156	0	3369.90	0	1.5580	0	34.6600	4	27.751	0	3316.660	0	103.1	4	30.8	4	-1E+10	1	-1E+10	1	-1E+10	1	-1E+10	1	-1E+10	1	-1E+10	1
4902643	27	C	03/18/2025	09:29	-133.549	43.156	0	3389.60	0	1.5550	0	34.6610	4	27.753	0	3335.898	0	103.5	4	30.9	4	-1E+10	1	-1E+10	1	-1E+10	1	-1E+10	1	-1E+10	1	-1E+10	1
4902643	27	C	03/18/2025	09:29	-133.549	43.156	0	3409.50	0	1.5530	0	34.6610	4	27.753	0	3355.330	0	104.0	4	31.0	4	-1E+10	1	-1E+10	1	-1E+10	1	-1E+10	1	-1E+10	1	-1E+10	1
4902643	27	C	03/18/2025	09:29	-133.549	43.156	0	3429.50	0	1.5510	0	34.6620	4	27.754	0	3374.858	0	104.5	4	31.2	4	-1E+10	1	-1E+10	1	-1E+10	1	-1E+10	1	-1E+10	1	-1E+10	1
4902643	27	C	03/18/2025	09:29	-133.549	43.156	0	3450.10	0	1.5500	0	34.6630	4	27.755	0	3394.969	0	104.9	4	31.3	4	-1E+10	1	-1E+10	1	-1E+10	1	-1E+10	1	-1E+10	1	-1E+10	1
4902643	27	C	03/18/2025	09:29	-133.549	43.156	0	3469.70	0	1.5490	0	34.6630	4	27.755	0	3414.103	0	105.3	4	31.4	4	-1E+10	1	-1E+10	1	-1E+10	1	-1E+10	1	-1E+10	1	-1E+10	1
4902643	27	C	03/18/2025	09:29	-133.549	43.156	0	3489.70	0	1.5470	0	34.6640	4	27.756	0	3433.626	0	105.7	4	31.5	4	-1E+10	1	-1E+10	1	-1E+10	1	-1E+10	1	-1E+10	1	-1E+10	1
4902643	27	C	03/18/2025	09:29	-133.549	43.156	0	3509.80	0	1.5470	0	34.6640	4	27.756	0	3453.244	0	105.7	4	31.5	4	-1E+10	1	-1E+10	1	-1E+10	1	-1E+10	1	-1E+10	1	-1E+10	1
4902643	27	C	03/18/2025	09:29	-133.549	43.156	0	3530.00	0	1.5490	0	34.6650	4	27.757	0	3472.958	0	105.8	4	31.5	4	-1E+10	1	-1E+10	1	-1E+10	1	-1E+10	1	-1E+10	1	-1E+10	1
4902643	27	C	03/18/2025	09:29	-133.549	43.156	0	3549.70	0	1.5490	0	34.6650	4	27.757	0	3492.183	0	106.0	4	31.6	4	-1E+10	1	-1E+10	1	-1E+10	1	-1E+10	1	-1E+10	1	-1E+10	1
4902643	27	C	03/18/2025	09:29	-133.549	43.156	0	3568.90	0	1.5490	0	34.6660	4	27.758	0	3510.918	0	106.2	4	31.7	4	-1E+10	1	-1E+10	1	-1E+10	1	-1E+10	1	-1E+10	1	-1E+10	1
4902643	27	C	03/18/2025	09:29	-133.549	43.156	0	3590.30	0	1.5490	0	34.6660	4	27.758	0	3531.798	0	106.4	4	31.7	4	-1E+10	1	-1E+10	1	-1E+10	1	-1E+10	1	-1E+10	1	-1E+10	1
4902643	27	C	03/18/2025	09:29	-133.549	43.156	0	3610.20	0	1.5500	0	34.6660	4	27.758	0	3551.212	0	106.5	4	31.8	4	-1E+10	1	-1E+10	1	-1E+10	1	-1E+10	1	-1E+10	1	-1E+10	1
4902643	27	C	03/18/2025	09:29	-133.549	43.156	0	3630.70	0	1.5510	0	34.6660	4	27.759	0	3571.210	0	106.6	4	31.8	4	-1E+10	1	-1E+10	1	-1E+10	1	-1E+10	1	-1E+10	1	-1E+10	1
4902643	27	C	03/18/2025	09:29	-133.549	43.156	0	3650.00	0	1.5530	0	34.6670	4	27.759	0	3590.036	0	106.6	4	31.8	4	-1E+10	1	-1E+10	1	-1E+10	1	-1E+10	1	-1E+10	1	-1E+10	1
4902643	27	C	03/18/2025	09:29	-133.549	43.156	0	3670.00	0	1.5530	0	34.6670	4	27.760	0	3609.543	0	106.8	4	31.9	4	-1E+10	1	-1E+10	1	-1E+10	1	-1E+10	1	-1E+10	1	-1E+10	1
4902643	27	C	03/18/2025	09:29	-133.549	43.156	0	3689.90	0	1.5550	0	34.6670	4	27.760	0	3628.950	0	106.9	4	31.9	4	-1E+10	1	-1E+10	1	-1E+10	1	-1E+10	1	-1E+10	1	-1E+10	1
4902643	27	C	03/18/2025	09:29	-133.549	43.156	0	3709.90	0	1.5560	0	34.6670	4	27.760	0	3648.454	0	107.2	4	32.0	4	-1E+10	1	-1E+10	1	-1E+10	1	-1E+10	1	-1E+10	1	-1E+10	1
4902643	27	C	03/18/2025	09:29	-133.549	43.156	0	3730.00	0	1.5550	0	34.6670	4	27.760	0	3668.053	0	107.7	4	32.1	4	-1E+10	1	-1E+10	1	-1E+10	1	-1E+10	1	-1E+10	1	-1E+10	1
4902643	27	C	03/18/2025	09:29	-133.549	43.156	0	3749.90	0	1.5560	0	34.6670	4	27.760	0	3687.455	0	108.0	4	32.2	4	-1E+10	1	-1E+10	1	-1E+10	1	-1E+10	1	-1E+10	1	-1E+10	1
4902643	27	C	03/18/2025	09:29	-133.549	43.156	0	3770.40	0	1.5550	0	34.6680	4	27.761	0	3707.441	0	108.2	4	32.3	4	-1E+10	1	-1E+10	1	-1E+10	1	-1E+10	1	-1E+10	1	-1E+10	1
4902643	27	C	03/18/2025	09:29	-133.549	43.156	0	3786.00	0	1.5550	0	34.6680	4	27.761	0	3722.648	0	108.0	4	32.2	4	-1E+10	1	-1E+10	1	-1E+10	1	-1E+10	1	-1E+10	1	-1E+10	1
4902643	27	C	03/18/2025	09:29	-133.549	43.156	0																										
4902643	28	C	03/28/2025	10:43	-133.535	43.236	0	0.50	0	10.8145	0	32.7570	0	25.062	0	0.496	0	254.7	4	92.9	4	-1E+10	1	-1E+10	1	-1E+10	1	-1E+10	1	-1E+10	1	-1E+10	1
4902643	28	C	03/28/2025	10:43	-133.535	43.236	0	0.60	0	10.8094	0	32.7596	0	25.065	0	0.595	0	254.0	4	92.6	4	-1E+10	1	-1E+10	1	-1E+10	1	-1E+10	1	-1E+10	1	-1E+10	1
4902643	28	C	03/28/2025	10:43	-133.535	43.236	0	0.70	0	10.8075	0	32.7595	0	25.066	0	0.694	0	253.8	4	92.5	4	-1E+10	1	-1E+10	1	-1E+10	1	-1E+10	1	-1E+10	1	-1E+10	1
4902643	28	C	03/28/2025	10:43	-133.535	43.236	0	0.80	0	10.8190	0	32.7600	0	25.064	0	0.794	0	255.1	4	93.1	4	-1E+10	1	-1E+10	1	-1E+10	1	-1E+10	1	-1E+10	1	-1E+10	1
4902643	28	C	03/28/2025	10:43	-133.535	43.236	0	1.60	0	10.8210	0	32.7590	0	25.063	0	1.587	0	253.7	4	92.5	4	-1E+10	1	-1E+10	1	-1E+10	1	-1E+10	1	-1E+10	1	-1E+10	1
4902643	28	C	03/28/2025	10:43	-133.535	43.236	0	2.50	0	10.8220	0	32.7590	0	25.063	0	2.480	0	253.8	4	92.6	4	-1E+10	1	-1E+10	1	-1E+10	1	-1E+10	1	-1E+10	1	-1E+10	1
4902643	28	C	03/28/2025	10:43	-133.535	43.236	0	3.70	0	10.8220	0	32.7600	0	25.063	0	3.671	0	253.7	4	92.5	4	-1E+10	1	-1E+10	1	-1E+10	1	-1E+10	1	-1E+10	1	-1E+10	1
4902643	28	C	03/28/2025	10:43	-133.535	43.236	0	4.70	0	10.8220	0	32.7600	0	25.063	0	4.663	0	253.8	4	92.6	4	-1E+10	1	-1E+10	1	-1E+10	1	-1E+10	1	-1E+10	1	-1E+10	1
4902643	28	C	03/28/2025	10:43	-133.535	43.236	0	6.00	0	10.8220	0	32.7600	0	25.063	0	5.952	0	253.7	4	92.5	4	-1E+10	1	-1E+10	1	-1E+10	1	-1E+10	1	-1E+10	1	-1E+10	1
4902643	28	C	03/28/2025	10:43	-133.535	43.236	0	7.00	0	10.8200	0	32.7600	0	25.064	0	6.944	0	253.7	4	92.5	4	-1E+10	1	-1E+10	1	-1E+10	1	-1E+10	1	-1E+10	1	-1E+10	1
4902643	28	C	03/28/2025	10:43	-133.535	43.236	0	8.20	0	10.8200	0	32.7600	0	25.064	0	8.135	0	253.6	4	92.5	4	-1E+10	1	-1E+10	1	-1E+10	1	-1E+10	1	-1E+10	1	-1E+10	1
4902643	28	C	03/28/2025	10:43	-133.535	43.236	0	9.40	0	10.8200	0	32.7600	0	25.064	0	9.325	0	253.6	4	92.5	4	-1E+10	1	-1E+10	1	-1E+10	1	-1E+10	1	-1E+10	1	-1E+10	1
4902643	28	C	03/28/2025	10:43	-133.535	43.236	0	14.80	0	10.8210	0	32.7590	0	25.063	0	14.682	0	253.5	4	92.5	4	-1E+10	1	-1E+10	1	-1E+10	1	-1E+10	1	-1E+10	1	-1E+10	1
4902643	28	C	03/28/2025	10:43	-133.535	43.236	0	25.00	0	10.8230	0	32.7590	0	25.063	0	24.800	0	253.3	4	92.4	4	-1E+10	1	-1E+10	1	-1E+10	1	-1E+10	1	-1E+10	1	-1E+10	1
4902643	28	C	03/28/2025	10:43	-133.535	43.236	0	35.10	0	10.8260	0	32.7590	0	25.063	0	34.818	0	253.2	4	92.3	4	-1E+10	1	-1E+10	1	-1E+10	1	-1E+10	1	-1E+10	1	-1E+10	1
4902643	28	C	03/28/2025	10:43	-133.535	43.236	0	44.60	0	10.8280	0	32.7590	0	25.062	0	44.240	0	252.9	4	92.2	4	-1E+10	1	-1E+10	1	-1E+10	1	-1E+10	1	-1E+10	1	-1E+10	1
4902643	28	C	03/28/2025	10:43	-133.535	43.236	0	54.70	0	10.8290	0	32.7590	0	25.062	0	54.258	0	252.3	4	92.1	4	-1E+10	1	-1E+10	1	-1E+10	1	-1E+10	1	-1E+10	1	-1E+10	1
4902643	28	C	03/28/2025	10:43	-133.535	43.236	0	65.00	0	10.8290	0	32.7580	0	25.062	0	64.473	0	251.3	4	91.7	4	-1E+10	1	-1E+10	1	-1E+10	1	-1E+10	1	-1E+10	1	-1E+10	1
4902643	28	C	03/28/2025	10:43	-133.535	43.236	0	75.10	0	10.7850	0	32.7580	0	25.070	0	74.489	0	249.1	4	90.8	4	-1E+10	1	-1E+10	1	-1E+10	1	-1E+10	1	-1E+10	1	-1E+10	1
4902643	28	C	03/28/2025	10:43	-133.535	43.236	0	85.30	0	10.6730	0	32.7630	0	25.093	0	84.604	0	242.0	4	88.0	4	-1E+10	1	-1E+10	1	-1E+10	1	-1E+10	1	-1E+10	1	-1E+10	1
4902643	28	C	03/28/2025	10:43	-133.535	43.236	0	95.20	0	10.4320	0	32.9030	0	25.244	0	94.421	0	225.5	4	81.6	4	-1E+10	1	-1E+10	1	-1E+10	1	-1E+10	1	-1E+10	1	-1E+10	1
4902643	28	C	03/28/2025	10:43	-133.535	43.236	0	104.70	0	9.9160	0	33.0980	0	25.483	0	103.841	0	214.0	4	76.7	4	-1E+10	1	-1E+10	1	-1E+10	1	-1E+10	1	-1E+10	1	-1E+10	1
4902643	28	C	03/28/2025	10:43	-133.535	43.236	0	114.50	0	9.4390	0	33.2800	0	25.704	0	113.558	0	206.7	4	73.4	4	-1E+10	1	-1E+10	1	-1E+10	1	-1E+10	1	-1E+10	1	-1E+10	1
4902643	28	C	03/28/2025	10:43	-133.535	43.236	0	124.60	0	9.2150	0	33.3860	0	25.823	0	123.571	0	202.4	4	71.6	4	-1E+10	1	-1E+10	1	-1E+10	1	-1E+10	1	-1E+10	1	-1E+10	1
4902643	28	C	03/28/2025	10:43	-133.535	43.236	0	134.80	0	9.0590	0	33.4580	0	25.904	0	133.684	0	198.5	4	70.0	4	-1E+10	1	-1E+10	1	-1E+10	1	-1E+10	1	-1E+10	1	-1E+10	1
4902643	28	C	03/28/2025	10:43	-133.535	43.236	0	144.60	0	8.8340	0	33.5560	0	26.016	0	143.399	0	194.5	4	68.3	4	-1E+10	1	-1E+10	1	-1E+10	1	-1E+10	1	-1E+10	1	-1E+10	1
4902643	28	C	03/28/2025	10:43	-133.535	43.236	0	154.70	0	8.5310	0	33.6380	0	26.127	0	153.412	0	190.3	4	66.5	4	-1E+10	1	-1E+10	1	-1E+10	1	-1E+10	1	-1E+10	1	-1E+10	1
4902643	28	C	03/28/2025	10:43	-133.535	43.236	0	164.60	0	8.2610	0	33.7110	0	26.225	0	163.225	0	184.3	4	64.0	4	-1E+10	1	-1E+10	1	-1E+10	1	-1E+10	1	-1E+10	1	-1E+10	1
4902643	28	C	03/28/2025	10:43	-133.535	43.236	0	174.90	0	7.9560	0	33.7750	0	26.321	0	173.435	0	173.7	4	59.9	4	-1E+10	1	-1E+10	1	-1E+10	1	-1E+10	1	-1E+10	1	-1E+10	1
4902643	28	C	03/28/2025	10:43	-133.535	43.236	0	184.70	0	7.8230	0	33.7960	0	26.357	0	183.149	0	163.9	4	56.4	4	-1E+10	1	-1E+10	1	-1E+10	1	-1E+10	1	-1E+10	1	-1E+10	1
4902643	28	C	03/28/2025	10:43	-133.535	43.236	0	194.70	0	7.6480	0	33.8190	0	26.401	0	193.060	0	159.6	4	54.7	4	-1E+10	1	-1E+10	1	-1E+10	1	-1E+10	1	-1E+10	1	-1E+10	1
4902643	28	C	03/28/2025	10:43	-133.535	43.236	0	209.50	0	7.3760	0	33.8290	0	26.447	0	207.728	0	159.7	4	54.4	4	-1E+10	1	-1E+10	1	-1E+10	1	-1E+10	1	-1E+10	1	-1E+10	1
4902643	28	C	03/28/2025	10:43	-133.535	43.236	0	229.70	0	7.1030	0	33.8450	0	26.498	0	227.746	0	152.0	4	51.5	4	-1E+10	1	-1E+10	1	-1E+10	1	-1E+10	1	-1E+10	1	-1E+10	1
4902643	28	C	03/28/2025	10:43	-133.535	43.236	0	250.00	0	6.9010	0	33.8580	0	26.536	0	247.861	0	141.4	4	47.7	4	-1E+10	1	-1E+10	1	-1E+10	1	-1E+10	1	-1E+10	1	-1E+10	1
4902643	28	C	03/28/2025	10:43	-133.535	43.236	0	269.80	0	6.4780	0	33.8510	0	26.587	0	267.479	0	132.3	4	44.2	4	-1E+10	1	-1E+10	1	-1E+10	1	-1E+10	1	-1E+10	1	-1E+10	1
4902643	28	C	03/28/2025	10:43	-133.535	43.236	0	289.90	0	6.1980	0	33.8460	0	26.619	0	287.392	0	123.0	4	40.8	4	-1E+10	1	-1E+10	1	-1E+10	1	-1E+10	1	-1E+10	1	-1E+10	1
4902643	28	C	03/28/2025	10:43	-133.535	43.236	0	310.00	0	5.9710	0	33.8560	0	26.656	0	307.303	0	111.0	4	36.6	4	-1E+10	1	-1E+10	1	-1E+10	1	-1E+10	1	-1E+10	1	-1E+10	1
4902643	28	C	03/28/2025	10:43	-133.535	43.236	0	329.80	0	5.7160	0	33.8620	0	26.692	0	326.915	0	98.5	4	32.3	4	-1E+10	1	-1E+10	1	-1E+10	1	-1E+10	1	-1E+10	1	-1E+10	1
4902643	28	C	03/28/2025	10:43	-133.535	43.236	0	350.00	0	5.5330	0	33.8860	0	26.733	0	346.922	0	85.8	4	28.0	4	-1E+10	1	-1E+10	1	-1E+10	1	-1E+10	1	-1E+10	1	-1E+10	1
4902643	28	C	03/28/2025	10:43	-133.535	43.236	0	369.00	0	5.3390	0	33.9050	0	26.771	0	365.738	0	76.4	4	24.9	4	-1E+10	1	-1E+10	1	-1E+10	1	-1E+10	1	-1E+10	1	-1E+10	1
4902643	28	C	03/28/2025	10:43	-133.535	43.236	0	389.40	0	5.1840	0	33.9230	0	26.804	0	385.938	0	70.0	4	22.7	4	-1E+10	1	-1E+10	1	-1E+10	1	-1E+10	1	-1E+10	1	-1E+10	1
4902643	28	C	03/28/2025	10:43	-133.535	43.236	0	409.40	0	5.0400	0	33.9390	0	26.833	0	405.741	0	64.3	4	20.8	4	-1E+10	1	-1E+10	1	-1E+10	1	-1E+10	1	-1E+10	1	-1E+10	1
4902643	28	C	03/28/2025	10:43	-133.535	43.236	0	430.40	0	4.9380	0	33.9570	0	26.859	0	426.532	0	57.8	4	18.6	4	-1E+10	1	-1E+10	1	-1E+10	1	-1E+10	1	-1E+10	1	-1E+10	1
4902643	28	C	03/28/2025	10:43	-133.535	43.236	0	449.60	0	4.9120	0	33.9860	0	26.885	0	445.539	0	49.2	4	15.8	4	-1E+10	1	-1E+10	1	-1E+10	1	-1E+10	1	-1E+10	1	-1E+10	1
4902643	28	C	03/28/2025	10:43	-133.535	43.236	0	469.30	0	4.9350	0	34.0240	0	26.913	0	465.039	0	42.2	4	13.6	4	-1E+10	1	-1E+10	1	-1E+10	1	-1E+10	1	-1E+10	1	-1E+10	1
4902643	28	C	03/28/2025	10:43	-133.535	43.236	0	489.60	0	4.8650	0	34.0390	0	26.933	0	485.131	0	39.6	4	12.7	4	-1E+10	1	-1E+10	1	-1E+10	1	-1E+10	1	-1E+10	1	-1E+10	1
4902643	28	C	03/28/2025	10:43	-133.535	43.236	0	509.50	0	4.7500	0	34.0450	0	26.951	0	504.825	0	38.0	4	12.2	4	-1E+10	1	-1E+10	1	-1E+10	1	-1E+10	1	-1E+10	1	-1E+10	1
4902643	28	C	03/28/2025	10:43	-133.535	43.236	0	529.60	0	4.6860	0	34.0520	0	26.964	0	524.715	0	35.6	4	11.4	4	-1E+10	1	-1E+10	1	-1E+10	1	-1E+10	1	-1E+10	1	-1E+10	1
4902643	28	C	03/28/2025	10:43	-133.535	43.236	0	550.00	0	4.6330	0	34.0660	0	26.981	0	544.900	0	32.5	4	10.4	4	-1E+10	1	-1E+10	1	-1E+10	1	-1E+10	1	-1E+10	1	-1E+10	1
4902643	28	C	03/28/2025	10:43	-133.535	43.236	0	570.00	0	4.5630	0	34.0760	0	26.996	0	564.688	0	29.6	4	9.4	4	-1E+10	1	-1E+10	1	-1E+10	1	-1E+10	1	-1E+10	1	-1E+10	1
4902643	28	C	03/28/2025	10:43	-133.535	43.236	0	589.90	0	4.5410	0	34.0990	0	27.017	0	584.374	0	25.1	4	8.0	4	-1E+10	1	-1E+10	1	-1E+10	1	-1E+10	1	-1E+10	1	-1E+10	1
4902643	28	C	03/28/2025	10:43	-133.535	43.236	0	609.80	0	4.4840	0	34.1190	0	27.039	0	604.059	0	21.9	4	7.0	4	-1E+10	1	-1E+10	1	-1E+10	1	-1E+10	1	-1E+10	1	-1E+10	1
4902643	28	C	03/28/2025	10:43	-133.535	43.236	0	629.50	0	4.4120	0	34.1380	0	27.062	0	623.544	0	19.9	4	6.3	4	-1E+10	1	-1E+10	1	-1E+10	1	-1E+10	1	-1E+10	1	-1E+10	1
4902643	28	C	03/28/2025	10:43	-133.535	43.236	0	649.50	0	4.3690	0	34.1450	0	27.073	0	643.324	0	18.7	4	6.0	4	-1E+10	1	-1E+10	1	-1E+10	1	-1E+10	1	-1E+10	1	-1E+10	1
4902643	28	C	03/28/2025	10:43	-133.535	43.236	0	670.10	0	4.2670	0	34.1550	0	27.092	0	663.695	0	17.7	4	5.6	4	-1E+10	1	-1E+10	1	-1E+10	1	-1E+10	1	-1E+10	1	-1E+10	1
4902643	28	C	03/28/2025	10:43	-133.535	43.236	0	689.70	0	4.0990	0	34.1600	0	27.113	0	683.076	0	16.9	4	5.3	4	-1E+10	1	-1E+10	1	-1E+10	1	-1E+10	1	-1E+10	1	-1E+10	1
4902643	28	C	03/28/2025	10:43	-133.535	43.236	0	709.40	0	3.9900	0	34.1740	0	27.135	0	702.553	0	15.2	4	4.8	4	-1E+10	1	-1E+10	1	-1E+10	1	-1E+10	1	-1E+10	1	-1E+10	1
4902643	28	C	03/28/2025	10:43	-133.535	43.236	0	729.70	0	3.9450	0	34.1890	0	27.152	0	722.622	0	13.6	4	4.3	4	-1E+10	1	-1E+10	1	-1E+10	1	-1E+10	1	-1E+10	1	-1E+10	1
4902643	28	C	03/28/2025	10:43	-133.535	43.236	0	749.90	0	3.8970	0	34.2050	0	27.170	0	742.590	0	12.1	4	3.8	4	-1E+10	1	-1E+10	1	-1E+10	1	-1E+10	1	-1E+10	1	-1E+10	1
4902643	28	C	03/28/2025	10:43	-133.535	43.236	0	769.60	0	3.8690	0	34.2170	0	27.182	0	762.062	0	11.3	4	3.6	4	-1E+10	1	-1E+10	1	-1E+10	1	-1E+10	1	-1E+10	1	-1E+10	1
4902643	28	C	03/28/2025	10:43	-133.535	43.236	0	789.50	0	3.8160	0	34.2300	0	27.198	0	781.730	0	10.6	4	3.3	4	-1E+10	1	-1E+10	1	-1E+10	1	-1E+10	1	-1E+10	1	-1E+10	1
4902643	28	C	03/28/2025	10:43	-133.535	43.236	0	809.50	0	3.7740	0	34.2410	0	27.211	0	801.495	0	9.8	4	3.1	4	-1E+10	1	-1E+10	1	-1E+10	1	-1E+10	1	-1E+10	1	-1E+10	1
4902643	28	C	03/28/2025	10:43	-133.535	43.236	0	830.00	0	3.7390	0	34.2560	0	27.227	0	821.752	0	8.9	4	2.8	4	-1E+10	1	-1E+10	1	-1E+10	1	-1E+10	1	-1E+10	1	-1E+10	1
4902643	28	C	03/28/2025	10:43	-133.535	43.236	0	849.50	0	3.6850	0	34.2720	0	27.245	0	841.019	0	8.2	4	2.6	4	-1E+10	1	-1E+10	1	-1E+10	1	-1E+10	1	-1E+10	1	-1E+10	1
4902643	28	C	03/28/2025	10:43	-133.535	43.236	0	869.80	0	3.6500	0	34.2860	0	27.260	0	861.075	0	7.7	4	2.4	4	-1E+10	1	-1E+10	1	-1E+10	1	-1E+10	1	-1E+10	1	-1E+10	1
4902643	28	C	03/28/2025	10:43	-133.535	43.236	0	889.80	0	3.6460	0	34.3010	0	27.272	0	880.832	0	7.2	4	2.2	4	-1E+10	1	-1E+10	1	-1E+10	1	-1E+10	1	-1E+10	1	-1E+10	1
4902643	28	C	03/28/2025	10:43	-133.535	43.236	0	909.60	0	3.6120	0	34.3170	0	27.288	0	900.390	0	6.9	4	2.2	4	-1E+10	1	-1E+10	1	-1E+10	1	-1E+10	1	-1E+10	1	-1E+10	1
4902643	28	C	03/28/2025	10:43	-133.535	43.236	0	929.60	0	3.5720	0	34.3280	0	27.301	0	920.143	0	6.8	4	2.1	4	-1E+10	1	-1E+10	1	-1E+10	1	-1E+10	1	-1E+10	1	-1E+10	1
4902643	28	C	03/28/2025	10:43	-133.535	43.236	0	949.70	0	3.5490	0	34.3490	0	27.320	0	939.994	0	6.7	4	2.1	4	-1E+10	1	-1E+10	1	-1E+10	1	-1E+10	1	-1E+10	1	-1E+10	1
4902643	28	C	03/28/2025	10:43	-133.535	43.236	0	970.00	0	3.5190	0	34.3630	0	27.334	0	960.040	0	6.9	4	2.1	4	-1E+10	1	-1E+10	1	-1E+10	1	-1E+10	1	-1E+10	1	-1E+10	1
4902643	28	C	03/28/2025	10:43	-133.535	43.236	0	989.50	0	3.4620	0	34.3750	0	27.350	0	979.294	0	7.1	4	2.2	4	-1E+10	1	-1E+10	1	-1E+10	1	-1E+10	1	-1E+10	1	-1E+10	1
4902643	28	C	03/28/2025	10:43	-133.535	43.236	0	1008.80	0	3.4250	0	34.3850	0	27.361	0	998.349	0	7.3	4	2.3	4	-1E+10	1	-1E+10	1	-1E+10	1	-1E+10	1	-1E+10	1	-1E+10	1
4902643	28	C	03/28/2025	10:43	-133.535	43.236	0	1029.50	0	3.3760	0	34.3940	0	27.373	0	1018.784	0	7.7	4	2.4	4	-1E+10	1	-1E+10	1	-1E+10	1	-1E+10	1	-1E+10	1	-1E+10	1
4902643	28	C	03/28/2025	10:43	-133.535	43.236	0	1049.80	0	3.3230	0	34.4020	0	27.385	0	1038.823	0	8.0	4	2.5	4	-1E+10	1	-1E+10	1	-1E+10	1	-1E+10	1	-1E+10	1	-1E+10	1
4902643	28	C	03/28/2025	10:43	-133.535	43.236	0	1070.00	0	3.2920	0	34.4080	0	27.393	0	1058.761	0	8.3	4	2.6	4	-1E+10	1	-1E+10	1	-1E+10	1	-1E+10	1	-1E+10	1	-1E+10	1
4902643	28	C	03/28/2025	10:43	-133.535	43.236	0	1089.60	0	3.2560	0	34.4150	0	27.402	0	1078.104	0	8.8	4	2.7	4	-1E+10	1	-1E+10	1	-1E+10	1	-1E+10	1	-1E+10	1	-1E+10	1
4902643	28	C	03/28/2025	10:43	-133.535	43.236	0	1109.60	0	3.2300	0	34.4230	0	27.411	0	1097.841	0	9.2	4	2.9	4	-1E+10	1	-1E+10	1	-1E+10	1	-1E+10	1	-1E+10	1	-1E+10	1
4902643	28	C	03/28/2025	10:43	-133.535	43.236	0	1129.80	0	3.1920	0	34.4280	0	27.418	0	1117.773	0	9.6	4	3.0	4	-1E+10	1	-1E+10	1	-1E+10	1	-1E+10	1	-1E+10	1	-1E+10	1
4902643	28	C	03/28/2025	10:43	-133.535	43.236	0	1150.20	0	3.1530	0	34.4340	0	27.427	0	1137.901	0	10.1	4	3.1	4	-1E+10	1	-1E+10	1	-1E+10	1	-1E+10	1	-1E+10	1	-1E+10	1
4902643	28	C	03/28/2025	10:43	-133.535	43.236	0	1169.70	0	3.1150	0	34.4400	0	27.435	0	1157.139	0	10.6	4	3.3	4	-1E+10	1	-1E+10	1	-1E+10	1	-1E+10	1	-1E+10	1	-1E+10	1
4902643	28	C	03/28/2025	10:43	-133.535	43.236	0	1189.80	0	3.0760	0	34.4470	0	27.444	0	1176.967	0	11.4	4	3.5	4	-1E+10	1	-1E+10	1	-1E+10	1	-1E+10	1	-1E+10	1	-1E+10	1
4902643	28	C	03/28/2025	10:43	-133.535	43.236	0	1209.40	0	3.0440	0	34.4530	0	27.452	0	1196.299	0	12.1	4	3.7	4	-1E+10	1	-1E+10	1	-1E+10	1	-1E+10	1	-1E+10	1	-1E+10	1
4902643	28	C	03/28/2025	10:43	-133.535	43.236	0	1230.40	0	3.0080	0	34.4590	0	27.460	0	1217.011	0	12.8	4	3.9	4	-1E+10	1	-1E+10	1	-1E+10	1	-1E+10	1	-1E+10	1	-1E+10	1
4902643	28	C	03/28/2025	10:43	-133.535	43.236	0	1249.60	0	2.9710	0	34.4640	0	27.468	0	1235.946	0	13.3	4	4.1	4	-1E+10	1	-1E+10	1	-1E+10	1	-1E+10	1	-1E+10	1	-1E+10	1
4902643	28	C	03/28/2025	10:43	-133.535	43.236	0	1269.70	0	2.9310	0	34.4690	0	27.475	0	1255.766	0	14.0	4	4.3	4	-1E+10	1	-1E+10	1	-1E+10	1	-1E+10	1	-1E+10	1	-1E+10	1
4902643	28	C	03/28/2025	10:43	-133.535	43.236	0	1289.70	0	2.9000	0	34.4730	0	27.482	0	1275.486	0	14.7	4	4.5	4	-1E+10	1	-1E+10	1	-1E+10	1	-1E+10	1	-1E+10	1	-1E+10	1
4902643	28	C	03/28/2025	10:43	-133.535	43.236	0	1309.80	0	2.8670	0	34.4780	0	27.489	0	1295.303	0	15.5	4	4.8	4	-1E+10	1	-1E+10	1	-1E+10	1	-1E+10	1	-1E+10	1	-1E+10	1
4902643	28	C	03/28/2025	10:43	-133.535	43.236	0	1330.00	0	2.8260	0	34.4830	0	27.496	0	1315.216	0	16.5	4	5.1	4	-1E+10	1	-1E+10	1	-1E+10	1	-1E+10	1	-1E+10	1	-1E+10	1
4902643	28	C	03/28/2025	10:43	-133.535	43.236	0	1350.00	0	2.7860	0	34.4890	0	27.505	0	1334.931	0	17.4	4	5.4	4	-1E+10	1	-1E+10	1	-1E+10	1	-1E+10	1	-1E+10	1	-1E+10	1
4902643	28	C	03/28/2025	10:43	-133.535	43.236	0	1369.70	0	2.7590	0	34.4920	0	27.510	0	1354.348	0	18.2	4	5.6	4	-1E+10	1	-1E+10	1	-1E+10	1	-1E+10	1	-1E+10	1	-1E+10	1
4902643	28	C	03/28/2025	10:43	-133.535	43.236	0	1389.40	0	2.7220	0	34.4970	0	27.517	0	1373.763	0	19.2	4	5.9	4	-1E+10	1	-1E+10	1	-1E+10	1	-1E+10	1	-1E+10	1	-1E+10	1
4902643	28	C	03/28/2025	10:43	-133.535	43.236	0	1409.40	0	2.6940	0	34.5000	0	27.522	0	1393.472	0	20.0	4	6.1	4	-1E+10	1	-1E+10	1	-1E+10	1	-1E+10	1	-1E+10	1	-1E+10	1
4902643	28	C	03/28/2025	10:43	-133.535	43.236	0	1429.50	0	2.6600	0	34.5040	0	27.528	0	1413.277	0	21.0	4	6.4	4	-1E+10	1	-1E+10	1	-1E+10	1	-1E+10	1	-1E+10	1	-1E+10	1
4902643	28	C	03/28/2025	10:43	-133.535	43.236	0	1449.60	0	2.6270	0	34.5080	0	27.534	0	1433.081	0	22.0	4	6.7	4	-1E+10	1	-1E+10	1	-1E+10	1	-1E+10	1	-1E+10	1	-1E+10	1
4902643	28	C	03/28/2025	10:43	-133.535	43.236	0	1469.60	0	2.5950	0	34.5120	0	27.540	0	1452.784	0	23.1	4	7.1	4	-1E+10	1	-1E+10	1	-1E+10	1	-1E+10	1	-1E+10	1	-1E+10	1
4902643	28	C	03/28/2025	10:43	-133.535	43.236	0	1488.90	0	2.5630	0	34.5160	0	27.546	0	1471.796	0	24.3	4	7.4	4	-1E+10	1	-1E+10	1	-1E+10	1	-1E+10	1	-1E+10	1	-1E+10	1
4902643	28	C	03/28/2025	10:43	-133.535	43.236	0	1509.80	0	2.5230	0	34.5210	0	27.554	0	1492.382	0	25.4	4	7.8	4	-1E+10	1	-1E+10	1	-1E+10	1	-1E+10	1	-1E+10	1	-1E+10	1
4902643	28	C	03/28/2025	10:43	-133.535	43.236	0	1529.80	0	2.4910	0	34.5250	0	27.560	0	1512.080	0	26.6	4	8.1	4	-1E+10	1	-1E+10	1	-1E+10	1	-1E+10	1	-1E+10	1	-1E+10	1
4902643	28	C	03/28/2025	10:43	-133.535	43.236	0	1549.60	0	2.4560	0	34.5290	0	27.566	0	1531.579	0	27.9	4	8.5	4	-1E+10	1	-1E+10	1	-1E+10	1	-1E+10	1	-1E+10	1	-1E+10	1
4902643	28	C	03/28/2025	10:43	-133.535	43.236	0	1569.60	0	2.4200	0	34.5330	0	27.572	0	1551.273	0	29.2	4	8.9	4	-1E+10	1	-1E+10	1	-1E+10	1	-1E+10	1	-1E+10	1	-1E+10	1
4902643	28	C	03/28/2025	10:43	-133.535	43.236	0	1589.70	0	2.3870	0	34.5370	0	27.578	0	1571.064	0	30.3	4	9.2	4	-1E+10	1	-1E+10	1	-1E+10	1	-1E+10	1	-1E+10	1	-1E+10	1
4902643	28	C	03/28/2025	10:43	-133.535	43.236	0	1609.80	0	2.3560	0	34.5410	0	27.584	0	1590.853	0	31.6	4	9.6	4	-1E+10	1	-1E+10	1	-1E+10	1	-1E+10	1	-1E+10	1	-1E+10	1
4902643	28	C	03/28/2025	10:43	-133.535	43.236	0	1630.30	0	2.3260	0	34.5450	0	27.590	0	1611.034	0	32.8	4	10.0	4	-1E+10	1	-1E+10	1	-1E+10	1	-1E+10	1	-1E+10	1	-1E+10	1
4902643	28	C	03/28/2025	10:43	-133.535	43.236	0	1648.90	0	2.2990	0	34.5480	0	27.595	0	1629.342	0	34.0	4	10.3	4	-1E+10	1	-1E+10	1	-1E+10	1	-1E+10	1	-1E+10	1	-1E+10	1
4902643	28	C	03/28/2025	10:43	-133.535	43.236	0	1669.90	0	2.2740	0	34.5510	0	27.599	0	1650.012	0	35.1	4	10.7	4	-1E+10	1	-1E+10	1	-1E+10	1	-1E+10	1	-1E+10	1	-1E+10	1
4902643	28	C	03/28/2025	10:43	-133.535	43.236	0	1689.90	0	2.2570	0	34.5540	0	27.603	0	1669.695	0	36.1	4	10.9	4	-1E+10	1	-1E+10	1	-1E+10	1	-1E+10	1	-1E+10	1	-1E+10	1
4902643	28	C	03/28/2025	10:43	-133.535	43.236	0	1709.60	0	2.2400	0	34.5560	0	27.606	0	1689.081	0	37.1	4	11.3	4	-1E+10	1	-1E+10	1	-1E+10	1	-1E+10	1	-1E+10	1	-1E+10	1
4902643	28	C	03/28/2025	10:43	-133.535	43.236	0	1729.30	0	2.2160	0	34.5590	0	27.611	0	1708.465	0	38.6	4	11.7	4	-1E+10	1	-1E+10	1	-1E+10	1	-1E+10	1	-1E+10	1	-1E+10	1
4902643	28	C	03/28/2025	10:43	-133.535	43.236	0	1749.50	0	2.1940	0	34.5620	0	27.615	0	1728.339	0	39.9	4	12.1	4	-1E+10	1	-1E+10	1	-1E+10	1	-1E+10	1	-1E+10	1	-1E+10	1
4902643	28	C	03/28/2025	10:43	-133.535	43.236	0	1769.70	0	2.1680	0	34.5660	0	27.620	0	1748.212	0	41.5	4	12.6	4	-1E+10	1	-1E+10	1	-1E+10	1	-1E+10	1	-1E+10	1	-1E+10	1
4902643	28	C	03/28/2025	10:43	-133.535	43.236	0	1789.70	0	2.1450	0	34.5690	0	27.625	0	1767.886	0	42.8	4	12.9	4	-1E+10	1	-1E+10	1	-1E+10	1	-1E+10	1	-1E+10	1	-1E+10	1
4902643	28	C	03/28/2025	10:43	-133.535	43.236	0	1809.80	0	2.1250	0	34.5720	0	27.629	0	1787.656	0	44.1	4	13.4	4	-1E+10	1	-1E+10	1	-1E+10	1	-1E+10	1	-1E+10	1	-1E+10	1
4902643	28	C	03/28/2025	10:43	-133.535	43.236	0	1829.70	0	2.1040	0	34.5750	0	27.633	0	1807.228	0	45.6	4	13.8	4	-1E+10	1	-1E+10	1	-1E+10	1	-1E+10	1	-1E+10	1	-1E+10	1
4902643	28	C	03/28/2025	10:43	-133.535	43.236	0	1849.30	0	2.0840	0	34.5780	0	27.637	0	1826.504	0	46.9	4	14.2	4	-1E+10	1	-1E+10	1	-1E+10	1	-1E+10	1	-1E+10	1	-1E+10	1
4902643	28	C	03/28/2025	10:43	-133.535	43.236	0	1869.30	0	2.0610	0	34.5810	0	27.641	0	1846.170	0	48.3	4	14.6	4	-1E+10	1	-1E+10	1	-1E+10	1	-1E+10	1	-1E+10	1	-1E+10	1
4902643	28	C	03/28/2025	10:43	-133.535	43.236	0	1889.50	0	2.0410	0	34.5840	0	27.645	0	1866.032	0	49.6	4	15.0	4	-1E+10	1	-1E+10	1	-1E+10	1	-1E+10	1	-1E+10	1	-1E+10	1
4902643	28	C	03/28/2025	10:43	-133.535	43.236	0	1910.30	0	2.0220	0	34.5870	0	27.649	0	1886.481	0	50.8	4	15.3	4	-1E+10	1	-1E+10	1	-1E+10	1	-1E+10	1	-1E+10	1	-1E+10	1
4902643	28	C	03/28/2025	10:43	-133.535	43.236	0	1929.70	0	2.0080	0	34.5890	0	27.652	0	1905.552	0	51.9	4	15.6	4	-1E+10	1	-1E+10	1	-1E+10	1	-1E+10	1	-1E+10	1	-1E+10	1
4902643	28	C	03/28/2025	10:43	-133.535	43.236	0	1949.70	0	1.9940	0	34.5910	0	27.655	0	1925.212	0	53.0	4	16.0	4	-1E+10	1	-1E+10	1	-1E+10	1	-1E+10	1	-1E+10	1	-1E+10	1
4902643	28	C	03/28/2025	10:43	-133.535	43.236	0	1969.40	0	1.9790	0	34.5930	0	27.658	0	1944.575	0	54.0	4	16.3	4	-1E+10	1	-1E+10	1	-1E+10	1	-1E+10	1	-1E+10	1	-1E+10	1
4902643	28	C	03/28/2025	10:43	-133.535	43.236	0	1989.40	0	1.9670	0	34.5950	0	27.660	0	1964.230	0	54.9	4	16.6	4	-1E+10	1	-1E+10	1	-1E+10	1	-1E+10	1	-1E+10	1	-1E+10	1
4902643	28	C	03/28/2025	10:43	-133.535	43.236	0	2009.60	0	1.9510	0	34.5970	4	27.663	0	1984.081	0	56.0	4	16.9	4	-1E+10	1	-1E+10	1	-1E+10	1	-1E+10	1	-1E+10	1	-1E+10	1
4902643	28	C	03/28/2025	10:43	-133.535	43.236	0	2029.70	0	1.9370	0	34.5990	4	27.666	0	2003.831	0	57.1	4	17.2	4	-1E+10	1	-1E+10	1	-1E+10	1	-1E+10	1	-1E+10	1	-1E+10	1
4902643	28	C	03/28/2025	10:43	-133.535	43.236	0	2049.80	0	1.9230	0	34.6020	4	27.670	0	2023.580	0	58.4	4	17.6	4	-1E+10	1	-1E+10	1	-1E+10	1	-1E+10	1	-1E+10	1	-1E+10	1
4902643	28	C	03/28/2025	10:43	-133.535	43.236	0	2069.60	0	1.9060	0	34.6040	4	27.673	0	2043.032	0	59.7	4	18.0	4	-1E+10	1	-1E+10	1	-1E+10	1	-1E+10	1	-1E+10	1	-1E+10	1
4902643	28	C	03/28/2025	10:43	-133.535	43.236	0	2090.40	0	1.8930	0	34.6060	4	27.675	0	2063.464	0	60.6	4	18.2	4	-1E+10	1	-1E+10	1	-1E+10	1	-1E+10	1	-1E+10	1	-1E+10	1
4902643	28	C	03/28/2025	10:43	-133.535	43.236	0	2109.80	0	1.8850	0	34.6070	4	27.677	0	2082.520	0	61.4	4	18.5	4	-1E+10	1	-1E+10	1	-1E+10	1	-1E+10	1	-1E+10	1	-1E+10	1
4902643	28	C	03/28/2025	10:43	-133.535	43.236	0	2129.60	0	1.8730	0	34.6090	4	27.680	0	2101.966	0	62.4	4	18.8	4	-1E+10	1	-1E+10	1	-1E+10	1	-1E+10	1	-1E+10	1	-1E+10	1
4902643	28	C	03/28/2025	10:43	-133.535	43.236	0	2149.50	0	1.8630	0	34.6110	4	27.682	0	2121.509	0	63.3	4	19.0	4	-1E+10	1	-1E+10	1	-1E+10	1	-1E+10	1	-1E+10	1	-1E+10	1
4902643	28	C	03/28/2025	10:43	-133.535	43.236	0	2169.70	0	1.8540	0	34.6120	4	27.684	0	2141.345	0	64.2	4	19.3	4	-1E+10	1	-1E+10	1	-1E+10	1	-1E+10	1	-1E+10	1	-1E+10	1
4902643	28	C	03/28/2025	10:43	-133.535	43.236	0	2189.70	0	1.8450	0	34.6140	4	27.686	0	2160.983	0	64.9	4	19.5	4	-1E+10	1	-1E+10	1	-1E+10	1	-1E+10	1	-1E+10	1	-1E+10	1
4902643	28	C	03/28/2025	10:43	-133.535	43.236	0	2209.70	0	1.8370	0	34.6150	4	27.688	0	2180.618	0	65.7	4	19.7	4	-1E+10	1	-1E+10	1	-1E+10	1	-1E+10	1	-1E+10	1	-1E+10	1
4902643	28	C	03/28/2025	10:43	-133.535	43.236	0	2230.60	0	1.8280	0	34.6160	4	27.689	0	2201.136	0	66.6	4	20.0	4	-1E+10	1	-1E+10	1	-1E+10	1	-1E+10	1	-1E+10	1	-1E+10	1
4902643	28	C	03/28/2025	10:43	-133.535	43.236	0	2250.00	0	1.8180	0	34.6180	4	27.692	0	2220.179	0	67.5	4	20.3	4	-1E+10	1	-1E+10	1	-1E+10	1	-1E+10	1	-1E+10	1	-1E+10	1
4902643	28	C	03/28/2025	10:43	-133.535	43.236	0	2269.70	0	1.8090	0	34.6190	4	27.693	0	2239.515	0	68.2	4	20.5	4	-1E+10	1	-1E+10	1	-1E+10	1	-1E+10	1	-1E+10	1	-1E+10	1
4902643	28	C	03/28/2025	10:43	-133.535	43.236	0	2289.40	0	1.8030	0	34.6200	4	27.695	0	2258.849	0	68.9	4	20.7	4	-1E+10	1	-1E+10	1	-1E+10	1	-1E+10	1	-1E+10	1	-1E+10	1
4902643	28	C	03/28/2025	10:43	-133.535	43.236	0	2308.90	0	1.7950	0	34.6210	4	27.696	0	2277.985	0	69.6	4	20.9	4	-1E+10	1	-1E+10	1	-1E+10	1	-1E+10	1	-1E+10	1	-1E+10	1
4902643	28	C	03/28/2025	10:43	-133.535	43.236	0	2329.80	0	1.7860	0	34.6230	4	27.698	0	2298.494	0	70.3	4	21.1	4	-1E+10	1	-1E+10	1	-1E+10	1	-1E+10	1	-1E+10	1	-1E+10	1
4902643	28	C	03/28/2025	10:43	-133.535	43.236	0	2349.60	0	1.7820	0	34.6240	4	27.700	0	2317.921	0	70.9	4	21.3	4	-1E+10	1	-1E+10	1	-1E+10	1	-1E+10	1	-1E+10	1	-1E+10	1
4902643	28	C	03/28/2025	10:43	-133.535	43.236	0	2369.70	0	1.7750	0	34.6240	4	27.700	0	2337.640	0	71.6	4	21.5	4	-1E+10	1	-1E+10	1	-1E+10	1	-1E+10	1	-1E+10	1	-1E+10	1
4902643	28	C	03/28/2025	10:43	-133.535	43.236	0	2389.50	0	1.7700	0	34.6250	4	27.702	0	2357.063	0	72.2	4	21.7	4	-1E+10	1	-1E+10	1	-1E+10	1	-1E+10	1	-1E+10	1	-1E+10	1
4902643	28	C	03/28/2025	10:43	-133.535	43.236	0	2410.00	0	1.7650	0	34.6260	4	27.703	0	2377.172	0	72.9	4	21.9	4	-1E+10	1	-1E+10	1	-1E+10	1	-1E+10	1	-1E+10	1	-1E+10	1
4902643	28	C	03/28/2025	10:43	-133.535	43.236	0	2430.20	0	1.7550	0	34.6270	4	27.705	0	2396.984	0	73.9	4	22.1	4	-1E+10	1	-1E+10	1	-1E+10	1	-1E+10	1	-1E+10	1	-1E+10	1
4902643	28	C	03/28/2025	10:43	-133.535	43.236	0	2450.60	0	1.7470	0	34.6280	4	27.706	0	2416.990	0	74.6	4	22.4	4	-1E+10	1	-1E+10	1	-1E+10	1	-1E+10	1	-1E+10	1	-1E+10	1
4902643	28	C	03/28/2025	10:43	-133.535	43.236	0	2470.00	0	1.7370	0	34.6300	4	27.709	0	2436.014	0	75.3	4	22.6	4	-1E+10	1	-1E+10	1	-1E+10	1	-1E+10	1	-1E+10	1	-1E+10	1
4902643	28	C	03/28/2025	10:43	-133.535	43.236	0	2490.00	0	1.7310	0	34.6300	4	27.709	0	2455.625	0	76.1	4	22.8	4	-1E+10	1	-1E+10	1	-1E+10	1	-1E+10	1	-1E+10	1	-1E+10	1
4902643	28	C	03/28/2025	10:43	-133.535	43.236	0	2509.90	0	1.7280	0	34.6310	4	27.710	0	2475.135	0	76.6	4	23.0	4	-1E+10	1	-1E+10	1	-1E+10	1	-1E+10	1	-1E+10	1	-1E+10	1
4902643	28	C	03/28/2025	10:43	-133.535	43.236	0	2530.70	0	1.7230	0	34.6320	4	27.712	0	2495.527	0	77.4	4	23.2	4	-1E+10	1	-1E+10	1	-1E+10	1	-1E+10	1	-1E+10	1	-1E+10	1
4902643	28	C	03/28/2025	10:43	-133.535	43.236	0	2550.10	0	1.7160	0	34.6330	4	27.713	0	2514.544	0	78.1	4	23.4	4	-1E+10	1	-1E+10	1	-1E+10	1	-1E+10	1	-1E+10	1	-1E+10	1
4902643	28	C	03/28/2025	10:43	-133.535	43.236	0	2569.70	0	1.7110	0	34.6340	4	27.714	0	2533.755	0	78.8	4	23.6	4	-1E+10	1	-1E+10	1	-1E+10	1	-1E+10	1	-1E+10	1	-1E+10	1
4902643	28	C	03/28/2025	10:43	-133.535	43.236	0	2589.70	0	1.7030	0	34.6350	4	27.716	0	2553.357	0	79.6	4	23.8	4	-1E+10	1	-1E+10	1	-1E+10	1	-1E+10	1	-1E+10	1	-1E+10	1
4902643	28	C	03/28/2025	10:43	-133.535	43.236	0	2609.60	0	1.7000	0	34.6360	4	27.717	0	2572.859	0	80.1	4	24.0	4	-1E+10	1	-1E+10	1	-1E+10	1	-1E+10	1	-1E+10	1	-1E+10	1
4902643	28	C	03/28/2025	10:43	-133.535	43.236	0	2630.00	0	1.6930	0	34.6360	4	27.718	0	2592.849	0	80.8	4	24.2	4	-1E+10	1	-1E+10	1	-1E+10	1	-1E+10	1	-1E+10	1	-1E+10	1
4902643	28	C	03/28/2025	10:43	-133.535	43.236	0	2650.10	0	1.6850	0	34.6370	4	27.719	0	2612.543	0	81.5	4	24.4	4	-1E+10	1	-1E+10	1	-1E+10	1	-1E+10	1	-1E+10	1	-1E+10	1
4902643	28	C	03/28/2025	10:43	-133.535	43.236	0	2670.20	0	1.6790	0	34.6380	4	27.720	0	2632.236	0	82.3	4	24.6	4	-1E+10	1	-1E+10	1	-1E+10	1	-1E+10	1	-1E+10	1	-1E+10	1
4902643	28	C	03/28/2025	10:43	-133.535	43.236	0	2690.10	0	1.6720	0	34.6390	4	27.722	0	2651.730	0	83.2	4	24.9	4	-1E+10	1	-1E+10	1	-1E+10	1	-1E+10	1	-1E+10	1	-1E+10	1
4902643	28	C	03/28/2025	10:43	-133.535	43.236	0	2710.30	0	1.6660	0	34.6400	4	27.723	0	2671.517	0	84.2	4	25.2	4	-1E+10	1	-1E+10	1	-1E+10	1	-1E+10	1	-1E+10	1	-1E+10	1
4902643	28	C	03/28/2025	10:43	-133.535	43.236	0	2730.10	0	1.6600	0	34.6410	4	27.725	0	2690.911	0	85.1	4	25.5	4	-1E+10	1	-1E+10	1	-1E+10	1	-1E+10	1	-1E+10	1	-1E+10	1
4902643	28	C	03/28/2025	10:43	-133.535	43.236	0	2750.30	0	1.6550	0	34.6430	4	27.727	0	2710.694	0	86.1	4	25.7	4	-1E+10	1	-1E+10	1	-1E+10	1	-1E+10	1	-1E+10	1	-1E+10	1
4902643	28	C	03/28/2025	10:43	-133.535	43.236	0	2770.20	0	1.6510	0	34.6440	4	27.728	0	2730.181	0	87.0	4	26.0	4	-1E+10	1	-1E+10	1	-1E+10	1	-1E+10	1	-1E+10	1	-1E+10	1
4902643	28	C	03/28/2025	10:43	-133.535	43.236	0	2790.00	0	1.6490	0	34.6440	4	27.728	0	2749.569	0	87.7	4	26.2	4	-1E+10	1	-1E+10	1	-1E+10	1	-1E+10	1	-1E+10	1	-1E+10	1
4902643	28	C	03/28/2025	10:43	-133.535	43.236	0	2809.80	0	1.6430	0	34.6450	4	27.730	0	2768.956	0	88.5	4	26.5	4	-1E+10	1	-1E+10	1	-1E+10	1	-1E+10	1	-1E+10	1	-1E+10	1
4902643	28	C	03/28/2025	10:43	-133.535	43.236	0	2829.60	0	1.6370	0	34.6460	4	27.731	0	2788.340	0	89.1	4	26.6	4	-1E+10	1	-1E+10	1	-1E+10	1	-1E+10	1	-1E+10	1	-1E+10	1
4902643	28	C	03/28/2025	10:43	-133.535	43.236	0	2850.00	0	1.6330	0	34.6470	4	27.732	0	2808.310	0	89.9	4	26.9	4	-1E+10	1	-1E+10	1	-1E+10	1	-1E+10	1	-1E+10	1	-1E+10	1
4902643	28	C	03/28/2025	10:43	-133.535	43.236	0	2870.10	0	1.6290	0	34.6470	4	27.733	0	2827.985	0	90.4	4	27.0	4	-1E+10	1	-1E+10	1	-1E+10	1	-1E+10	1	-1E+10	1	-1E+10	1
4902643	28	C	03/28/2025	10:43	-133.535	43.236	0	2890.40	0	1.6260	0	34.6480	4	27.734	0	2847.854	0	91.0	4	27.2	4	-1E+10	1	-1E+10	1	-1E+10	1	-1E+10	1	-1E+10	1	-1E+10	1
4902643	28	C	03/28/2025	10:43	-133.535	43.236	0	2910.20	0	1.6230	0	34.6490	4	27.735	0	2867.231	0	91.5	4	27.4	4	-1E+10	1	-1E+10	1	-1E+10	1	-1E+10	1	-1E+10	1	-1E+10	1
4902643	28	C	03/28/2025	10:43	-133.535	43.236	0	2930.00	0	1.6190	0	34.6490	4	27.735	0	2886.607	0	92.0	4	27.5	4	-1E+10	1	-1E+10	1	-1E+10	1	-1E+10	1	-1E+10	1	-1E+10	1
4902643	28	C	03/28/2025	10:43	-133.535	43.236	0	2949.60	0	1.6140	0	34.6500	4	27.737	0	2905.785	0	92.4	4	27.6	4	-1E+10	1	-1E+10	1	-1E+10	1	-1E+10	1	-1E+10	1	-1E+10	1
4902643	28	C	03/28/2025	10:43	-133.535	43.236	0	2969.60	0	1.6070	0	34.6500	4	27.737	0	2925.353	0	92.9	4	27.7	4	-1E+10	1	-1E+10	1	-1E+10	1	-1E+10	1	-1E+10	1	-1E+10	1
4902643	28	C	03/28/2025	10:43	-133.535	43.236	0	2990.20	0	1.6020	0	34.6510	4	27.738	0	2945.506	0	93.7	4	28.0	4	-1E+10	1	-1E+10	1	-1E+10	1	-1E+10	1	-1E+10	1	-1E+10	1
4902643	28	C	03/28/2025	10:43	-133.535	43.236	0	3009.80	0	1.5970	0	34.6510	4	27.739	0	2964.679	0	94.4	4	28.2	4	-1E+10	1	-1E+10	1	-1E+10	1	-1E+10	1	-1E+10	1	-1E+10	1
4902643	28	C	03/28/2025	10:43	-133.535	43.236	0	3030.00	0	1.5950	0	34.6520	4	27.740	0	2984.438	0	94.9	4	28.3	4	-1E+10	1	-1E+10	1	-1E+10	1	-1E+10	1	-1E+10	1	-1E+10	1
4902643	28	C	03/28/2025	10:43	-133.535	43.236	0	3049.90	0	1.5910	0	34.6520	4	27.740	0	3003.901	0	95.5	4	28.5	4	-1E+10	1	-1E+10	1	-1E+10	1	-1E+10	1	-1E+10	1	-1E+10	1
4902643	28	C	03/28/2025	10:43	-133.535	43.236	0	3070.00	0	1.5860	0	34.6530	4	27.742	0	3023.558	0	96.3	4	28.7	4	-1E+10	1	-1E+10	1	-1E+10	1	-1E+10	1	-1E+10	1	-1E+10	1
4902643	28	C	03/28/2025	10:43	-133.535	43.236	0	3090.20	0	1.5840	0	34.6540	4	27.743	0	3043.310	0	96.7	4	28.9	4	-1E+10	1	-1E+10	1	-1E+10	1	-1E+10	1	-1E+10	1	-1E+10	1
4902643	28	C	03/28/2025	10:43	-133.535	43.236	0	3109.90	0	1.5800	0	34.6540	4	27.743	0	3062.573	0	97.3	4	29.0	4	-1E+10	1	-1E+10	1	-1E+10	1	-1E+10	1	-1E+10	1	-1E+10	1
4902643	28	C	03/28/2025	10:43	-133.535	43.236	0	3129.80	0	1.5780	0	34.6550	4	27.744	0	3082.029	0	97.8	4	29.2	4	-1E+10	1	-1E+10	1	-1E+10	1	-1E+10	1	-1E+10	1	-1E+10	1
4902643	28	C	03/28/2025	10:43	-133.535	43.236	0	3150.00	0	1.5740	0	34.6560	4	27.746	0	3101.776	0	98.4	4	29.4	4	-1E+10	1	-1E+10	1	-1E+10	1	-1E+10	1	-1E+10	1	-1E+10	1
4902643	28	C	03/28/2025	10:43	-133.535	43.236	0	3170.20	0	1.5710	0	34.6560	4	27.746	0	3121.522	0	98.9	4	29.5	4	-1E+10	1	-1E+10	1	-1E+10	1	-1E+10	1	-1E+10	1	-1E+10	1
4902643	28	C	03/28/2025	10:43	-133.535	43.236	0	3190.10	0	1.5680	0	34.6570	4	27.747	0	3140.973	0	99.4	4	29.7	4	-1E+10	1	-1E+10	1	-1E+10	1	-1E+10	1	-1E+10	1	-1E+10	1
4902643	28	C	03/28/2025	10:43	-133.535	43.236	0	3209.80	0	1.5660	0	34.6570	4	27.747	0	3160.227	0	100.0	4	29.8	4	-1E+10	1	-1E+10	1	-1E+10	1	-1E+10	1	-1E+10	1	-1E+10	1
4902643	28	C	03/28/2025	10:43	-133.535	43.236	0	3230.00	0	1.5650	0	34.6580	4	27.748	0	3179.967	0	100.3	4	29.9	4	-1E+10	1	-1E+10	1	-1E+10	1	-1E+10	1	-1E+10	1	-1E+10	1
4902643	28	C	03/28/2025	10:43	-133.535	43.236	0	3250.30	0	1.5630	0	34.6580	4	27.749	0	3199.803	0	100.7	4	30.0	4	-1E+10	1	-1E+10	1	-1E+10	1	-1E+10	1	-1E+10	1	-1E+10	1
4902643	28	C	03/28/2025	10:43	-133.535	43.236	0	3270.50	0	1.5620	0	34.6580	4	27.749	0	3219.540	0	101.1	4	30.2	4	-1E+10	1	-1E+10	1	-1E+10	1	-1E+10	1	-1E+10	1	-1E+10	1
4902643	28	C	03/28/2025	10:43	-133.535	43.236	0	3289.70	0	1.5600	0	34.6590	4	27.750	0	3238.298	0	101.5	4	30.3	4	-1E+10	1	-1E+10	1	-1E+10	1	-1E+10	1	-1E+10	1	-1E+10	1
4902643	28	C	03/28/2025	10:43	-133.535	43.236	0	3310.00	0	1.5590	0	34.6590	4	27.750	0	3258.130	0	101.9	4	30.4	4	-1E+10	1	-1E+10	1	-1E+10	1	-1E+10	1	-1E+10	1	-1E+10	1
4902643	28	C	03/28/2025	10:43	-133.535	43.236	0	3330.00	0	1.5570	0	34.6600	4	27.751	0	3277.666	0	102.4	4	30.6	4	-1E+10	1	-1E+10	1	-1E+10	1	-1E+10	1	-1E+10	1	-1E+10	1
4902643	28	C	03/28/2025	10:43	-133.535	43.236	0	3349.90	0	1.5560	0	34.6600	4	27.751	0	3297.103	0	102.8	4	30.7	4	-1E+10	1	-1E+10	1	-1E+10	1	-1E+10	1	-1E+10	1	-1E+10	1
4902643	28	C	03/28/2025	10:43	-133.535	43.236	0	3370.30	0	1.5550	0	34.6610	4	27.752	0	3317.026	0	103.3	4	30.8	4	-1E+10	1	-1E+10	1	-1E+10	1	-1E+10	1	-1E+10	1	-1E+10	1
4902643	28	C	03/28/2025	10:43	-133.535	43.236	0	3390.10	0	1.5530	0	34.6610	4	27.753	0	3336.362	0	103.8	4	31.0	4	-1E+10	1	-1E+10	1	-1E+10	1	-1E+10	1	-1E+10	1	-1E+10	1
4902643	28	C	03/28/2025	10:43	-133.535	43.236	0	3410.10	0	1.5520	0	34.6620	4	27.754	0	3355.891	0	104.1	4	31.1	4	-1E+10	1	-1E+10	1	-1E+10	1	-1E+10	1	-1E+10	1	-1E+10	1
4902643	28	C	03/28/2025	10:43	-133.535	43.236	0	3430.40	0	1.5510	0	34.6620	4	27.754	0	3375.712	0	104.4	4	31.2	4	-1E+10	1	-1E+10	1	-1E+10	1	-1E+10	1	-1E+10	1	-1E+10	1
4902643	28	C	03/28/2025	10:43	-133.535	43.236	0	3450.00	0	1.5510	0	34.6620	4	27.754	0	3394.847	0	104.7	4	31.2	4	-1E+10	1	-1E+10	1	-1E+10	1	-1E+10	1	-1E+10	1	-1E+10	1
4902643	28	C	03/28/2025	10:43	-133.535	43.236	0	3470.30	0	1.5500	0	34.6630	4	27.755	0	3414.664	0	105.2	4	31.4	4	-1E+10	1	-1E+10	1	-1E+10	1	-1E+10	1	-1E+10	1	-1E+10	1
4902643	28	C	03/28/2025	10:43	-133.535	43.236	0	3490.10	0	1.5480	0	34.6640	4	27.756	0	3433.991	0	105.6	4	31.5	4	-1E+10	1	-1E+10	1	-1E+10	1	-1E+10	1	-1E+10	1	-1E+10	1
4902643	28	C	03/28/2025	10:43	-133.535	43.236	0	3510.00	0	1.5480	0	34.6640	4	27.756	0	3453.414	0	105.9	4	31.6	4	-1E+10	1	-1E+10	1	-1E+10	1	-1E+10	1	-1E+10	1	-1E+10	1
4902643	28	C	03/28/2025	10:43	-133.535	43.236	0	3530.20	0	1.5470	0	34.6650	4	27.757	0	3473.128	0	106.2	4	31.7	4	-1E+10	1	-1E+10	1	-1E+10	1	-1E+10	1	-1E+10	1	-1E+10	1
4902643	28	C	03/28/2025	10:43	-133.535	43.236	0	3550.00	0	1.5470	0	34.6650	4	27.757	0	3492.450	0	106.5	4	31.8	4	-1E+10	1	-1E+10	1	-1E+10	1	-1E+10	1	-1E+10	1	-1E+10	1
4902643	28	C	03/28/2025	10:43	-133.535	43.236	0	3570.60	0	1.5470	0	34.6650	4	27.758	0	3512.551	0	106.8	4	31.9	4	-1E+10	1	-1E+10	1	-1E+10	1	-1E+10	1	-1E+10	1	-1E+10	1
4902643	28	C	03/28/2025	10:43	-133.535	43.236	0	3590.20	0	1.5480	0	34.6660	4	27.758	0	3531.674	0	107.0	4	31.9	4	-1E+10	1	-1E+10	1	-1E+10	1	-1E+10	1	-1E+10	1	-1E+10	1
4902643	28	C	03/28/2025	10:43	-133.535	43.236	0	3610.20	0	1.5490	0	34.6660	4	27.759	0	3551.186	0	107.2	4	32.0	4	-1E+10	1	-1E+10	1	-1E+10	1	-1E+10	1	-1E+10	1	-1E+10	1
4902643	28	C	03/28/2025	10:43	-133.535	43.236	0	3630.10	0	1.5500	0	34.6670	4	27.759	0	3570.599	0	107.2	4	32.0	4	-1E+10	1	-1E+10	1	-1E+10	1	-1E+10	1	-1E+10	1	-1E+10	1
4902643	28	C	03/28/2025	10:43	-133.535	43.236	0	3649.80	0	1.5500	0	34.6670	4	27.760	0	3589.815	0	107.4	4	32.0	4	-1E+10	1	-1E+10	1	-1E+10	1	-1E+10	1	-1E+10	1	-1E+10	1
4902643	28	C	03/28/2025	10:43	-133.535	43.236	0	3670.10	0	1.5490	0	34.6670	4	27.760	0	3609.614	0	107.8	4	32.2	4	-1E+10	1	-1E+10	1	-1E+10	1	-1E+10	1	-1E+10	1	-1E+10	1
4902643	28	C	03/28/2025	10:43	-133.535	43.236	0	3689.80	0	1.5490	0	34.6680	4	27.761	0	3628.826	0	108.0	4	32.2	4	-1E+10	1	-1E+10	1	-1E+10	1	-1E+10	1	-1E+10	1	-1E+10	1
4902643	28	C	03/28/2025	10:43	-133.535	43.236	0	3709.80	0	1.5490	0	34.6680	4	27.761	0	3648.330	0	108.2	4	32.3	4	-1E+10	1	-1E+10	1	-1E+10	1	-1E+10	1	-1E+10	1	-1E+10	1
4902643	28	C	03/28/2025	10:43	-133.535	43.236	0	3729.70	0	1.5500	0	34.6680	4	27.761	0	3667.734	0	108.3	4	32.3	4	-1E+10	1	-1E+10	1	-1E+10	1	-1E+10	1	-1E+10	1	-1E+10	1
4902643	28	C	03/28/2025	10:43	-133.535	43.236	0	3749.80	0	1.5510	0	34.6680	4	27.761	0	3687.331	0	108.4	4	32.3	4	-1E+10	1	-1E+10	1	-1E+10	1	-1E+10	1	-1E+10	1	-1E+10	1
4902643	28	C	03/28/2025	10:43	-133.535	43.236	0	3770.00	0	1.5510	0	34.6690	4	27.762	0	3707.024	0	108.5	4	32.4	4	-1E+10	1	-1E+10	1	-1E+10	1	-1E+10	1	-1E+10	1	-1E+10	1
4902643	28	C	03/28/2025	10:43	-133.535	43.236	0	3790.80	0	1.5520	0	34.6690	4	27.762	0	3727.300	0	108.4	4	32.3	4	-1E+10	1	-1E+10	1	-1E+10	1	-1E+10	1	-1E+10	1	-1E+10	1
4902643	28	C	03/28/2025	10:43	-133.535	43.236	0	3801.40	0	1.5520	0	34.6690	4	27.762	0	3737.632	0	108.0	4	32.2	4	-1E+10	1	-1E+10	1	-1E+10	1	-1E+10	1	-1E+10	1	-1E+10	1
4902643	28	C	03/28/2025	10:43	-133.535	43.236	0																										
4902643	29	C	04/07/2025	12:55	-133.495	43.266	0	0.60	0	10.4550	0	32.6770	0	25.062	0	0.595	0	258.8	4	93.6	4	-1E+10	1	-1E+10	1	-1E+10	1	-1E+10	1	-1E+10	1	-1E+10	1
4902643	29	C	04/07/2025	12:55	-133.495	43.266	0	0.70	0	10.4580	0	32.6745	0	25.060	0	0.694	0	258.7	4	93.6	4	-1E+10	1	-1E+10	1	-1E+10	1	-1E+10	1	-1E+10	1	-1E+10	1
4902643	29	C	04/07/2025	12:55	-133.495	43.266	0	0.80	0	10.4567	0	32.6757	0	25.061	0	0.794	0	258.8	4	93.6	4	-1E+10	1	-1E+10	1	-1E+10	1	-1E+10	1	-1E+10	1	-1E+10	1
4902643	29	C	04/07/2025	12:55	-133.495	43.266	0	0.90	0	10.4650	0	32.6740	0	25.058	0	0.893	0	258.4	4	93.5	4	-1E+10	1	-1E+10	1	-1E+10	1	-1E+10	1	-1E+10	1	-1E+10	1
4902643	29	C	04/07/2025	12:55	-133.495	43.266	0	1.50	0	10.4650	0	32.6740	0	25.058	0	1.488	0	258.4	4	93.5	4	-1E+10	1	-1E+10	1	-1E+10	1	-1E+10	1	-1E+10	1	-1E+10	1
4902643	29	C	04/07/2025	12:55	-133.495	43.266	0	2.60	0	10.4650	0	32.6740	0	25.058	0	2.579	0	258.4	4	93.5	4	-1E+10	1	-1E+10	1	-1E+10	1	-1E+10	1	-1E+10	1	-1E+10	1
4902643	29	C	04/07/2025	12:55	-133.495	43.266	0	3.50	0	10.4650	0	32.6750	0	25.059	0	3.472	0	258.3	4	93.4	4	-1E+10	1	-1E+10	1	-1E+10	1	-1E+10	1	-1E+10	1	-1E+10	1
4902643	29	C	04/07/2025	12:55	-133.495	43.266	0	4.70	0	10.4660	0	32.6750	0	25.059	0	4.663	0	258.2	4	93.4	4	-1E+10	1	-1E+10	1	-1E+10	1	-1E+10	1	-1E+10	1	-1E+10	1
4902643	29	C	04/07/2025	12:55	-133.495	43.266	0	5.60	0	10.4660	0	32.6750	0	25.059	0	5.555	0	258.2	4	93.4	4	-1E+10	1	-1E+10	1	-1E+10	1	-1E+10	1	-1E+10	1	-1E+10	1
4902643	29	C	04/07/2025	12:55	-133.495	43.266	0	6.50	0	10.4640	0	32.6750	0	25.059	0	6.448	0	258.2	4	93.4	4	-1E+10	1	-1E+10	1	-1E+10	1	-1E+10	1	-1E+10	1	-1E+10	1
4902643	29	C	04/07/2025	12:55	-133.495	43.266	0	7.40	0	10.4630	0	32.6760	0	25.060	0	7.341	0	258.2	4	93.4	4	-1E+10	1	-1E+10	1	-1E+10	1	-1E+10	1	-1E+10	1	-1E+10	1
4902643	29	C	04/07/2025	12:55	-133.495	43.266	0	8.30	0	10.4640	0	32.6750	0	25.059	0	8.234	0	258.2	4	93.4	4	-1E+10	1	-1E+10	1	-1E+10	1	-1E+10	1	-1E+10	1	-1E+10	1
4902643	29	C	04/07/2025	12:55	-133.495	43.266	0	9.50	0	10.4660	0	32.6750	0	25.059	0	9.424	0	258.1	4	93.4	4	-1E+10	1	-1E+10	1	-1E+10	1	-1E+10	1	-1E+10	1	-1E+10	1
4902643	29	C	04/07/2025	12:55	-133.495	43.266	0	15.50	0	10.4670	0	32.6750	0	25.059	0	15.376	0	257.9	4	93.3	4	-1E+10	1	-1E+10	1	-1E+10	1	-1E+10	1	-1E+10	1	-1E+10	1
4902643	29	C	04/07/2025	12:55	-133.495	43.266	0	24.90	0	10.4400	0	32.6730	0	25.062	0	24.700	0	257.5	4	93.1	4	-1E+10	1	-1E+10	1	-1E+10	1	-1E+10	1	-1E+10	1	-1E+10	1
4902643	29	C	04/07/2025	12:55	-133.495	43.266	0	34.80	0	10.3420	0	32.6770	0	25.082	0	34.520	0	256.6	4	92.6	4	-1E+10	1	-1E+10	1	-1E+10	1	-1E+10	1	-1E+10	1	-1E+10	1
4902643	29	C	04/07/2025	12:55	-133.495	43.266	0	44.80	0	10.3300	0	32.6800	0	25.087	0	44.439	0	255.3	4	92.1	4	-1E+10	1	-1E+10	1	-1E+10	1	-1E+10	1	-1E+10	1	-1E+10	1
4902643	29	C	04/07/2025	12:55	-133.495	43.266	0	54.70	0	10.3260	0	32.6840	0	25.091	0	54.257	0	254.1	4	91.6	4	-1E+10	1	-1E+10	1	-1E+10	1	-1E+10	1	-1E+10	1	-1E+10	1
4902643	29	C	04/07/2025	12:55	-133.495	43.266	0	64.60	0	10.2820	0	32.6860	0	25.100	0	64.076	0	252.5	4	91.0	4	-1E+10	1	-1E+10	1	-1E+10	1	-1E+10	1	-1E+10	1	-1E+10	1
4902643	29	C	04/07/2025	12:55	-133.495	43.266	0	74.60	0	10.2540	0	32.6860	0	25.105	0	73.993	0	251.1	4	90.4	4	-1E+10	1	-1E+10	1	-1E+10	1	-1E+10	1	-1E+10	1	-1E+10	1
4902643	29	C	04/07/2025	12:55	-133.495	43.266	0	84.70	0	10.2560	0	32.6860	0	25.105	0	84.009	0	247.4	4	89.1	4	-1E+10	1	-1E+10	1	-1E+10	1	-1E+10	1	-1E+10	1	-1E+10	1
4902643	29	C	04/07/2025	12:55	-133.495	43.266	0	94.90	0	10.2340	0	32.7360	0	25.148	0	94.123	0	234.3	4	84.4	4	-1E+10	1	-1E+10	1	-1E+10	1	-1E+10	1	-1E+10	1	-1E+10	1
4902643	29	C	04/07/2025	12:55	-133.495	43.266	0	104.80	0	9.6670	0	33.0770	0	25.508	0	103.940	0	216.8	4	77.3	4	-1E+10	1	-1E+10	1	-1E+10	1	-1E+10	1	-1E+10	1	-1E+10	1
4902643	29	C	04/07/2025	12:55	-133.495	43.266	0	114.80	0	9.2850	0	33.2880	0	25.735	0	113.855	0	206.9	4	73.3	4	-1E+10	1	-1E+10	1	-1E+10	1	-1E+10	1	-1E+10	1	-1E+10	1
4902643	29	C	04/07/2025	12:55	-133.495	43.266	0	125.00	0	9.0490	0	33.4490	0	25.898	0	123.968	0	203.2	4	71.7	4	-1E+10	1	-1E+10	1	-1E+10	1	-1E+10	1	-1E+10	1	-1E+10	1
4902643	29	C	04/07/2025	12:55	-133.495	43.266	0	134.90	0	8.9150	0	33.5420	0	25.992	0	133.783	0	201.2	4	70.8	4	-1E+10	1	-1E+10	1	-1E+10	1	-1E+10	1	-1E+10	1	-1E+10	1
4902643	29	C	04/07/2025	12:55	-133.495	43.266	0	144.60	0	8.7530	0	33.6260	0	26.084	0	143.399	0	199.0	4	69.8	4	-1E+10	1	-1E+10	1	-1E+10	1	-1E+10	1	-1E+10	1	-1E+10	1
4902643	29	C	04/07/2025	12:55	-133.495	43.266	0	154.90	0	8.5490	0	33.6840	0	26.161	0	153.610	0	196.1	4	68.5	4	-1E+10	1	-1E+10	1	-1E+10	1	-1E+10	1	-1E+10	1	-1E+10	1
4902643	29	C	04/07/2025	12:55	-133.495	43.266	0	164.90	0	8.2920	0	33.7440	0	26.247	0	163.522	0	193.3	4	67.2	4	-1E+10	1	-1E+10	1	-1E+10	1	-1E+10	1	-1E+10	1	-1E+10	1
4902643	29	C	04/07/2025	12:55	-133.495	43.266	0	174.80	0	8.1200	0	33.7690	0	26.292	0	173.335	0	191.8	4	66.4	4	-1E+10	1	-1E+10	1	-1E+10	1	-1E+10	1	-1E+10	1	-1E+10	1
4902643	29	C	04/07/2025	12:55	-133.495	43.266	0	184.90	0	7.9970	0	33.7830	0	26.321	0	183.346	0	189.8	4	65.6	4	-1E+10	1	-1E+10	1	-1E+10	1	-1E+10	1	-1E+10	1	-1E+10	1
4902643	29	C	04/07/2025	12:55	-133.495	43.266	0	194.90	0	7.8930	0	33.7950	0	26.346	0	193.258	0	186.5	4	64.3	4	-1E+10	1	-1E+10	1	-1E+10	1	-1E+10	1	-1E+10	1	-1E+10	1
4902643	29	C	04/07/2025	12:55	-133.495	43.266	0	209.60	0	7.6150	0	33.8210	0	26.407	0	207.826	0	179.1	4	61.3	4	-1E+10	1	-1E+10	1	-1E+10	1	-1E+10	1	-1E+10	1	-1E+10	1
4902643	29	C	04/07/2025	12:55	-133.495	43.266	0	229.70	0	7.3130	0	33.8410	0	26.466	0	227.745	0	170.8	4	58.1	4	-1E+10	1	-1E+10	1	-1E+10	1	-1E+10	1	-1E+10	1	-1E+10	1
4902643	29	C	04/07/2025	12:55	-133.495	43.266	0	249.90	0	6.9940	0	33.8400	0	26.509	0	247.761	0	162.7	4	55.0	4	-1E+10	1	-1E+10	1	-1E+10	1	-1E+10	1	-1E+10	1	-1E+10	1
4902643	29	C	04/07/2025	12:55	-133.495	43.266	0	269.90	0	6.6680	0	33.8370	0	26.551	0	267.577	0	153.4	4	51.4	4	-1E+10	1	-1E+10	1	-1E+10	1	-1E+10	1	-1E+10	1	-1E+10	1
4902643	29	C	04/07/2025	12:55	-133.495	43.266	0	289.80	0	6.3760	0	33.8330	0	26.586	0	287.292	0	141.3	4	47.1	4	-1E+10	1	-1E+10	1	-1E+10	1	-1E+10	1	-1E+10	1	-1E+10	1
4902643	29	C	04/07/2025	12:55	-133.495	43.266	0	310.30	0	6.0060	0	33.8310	0	26.632	0	307.599	0	128.1	4	42.3	4	-1E+10	1	-1E+10	1	-1E+10	1	-1E+10	1	-1E+10	1	-1E+10	1
4902643	29	C	04/07/2025	12:55	-133.495	43.266	0	330.10	0	5.7970	0	33.8380	0	26.663	0	327.211	0	112.7	4	37.0	4	-1E+10	1	-1E+10	1	-1E+10	1	-1E+10	1	-1E+10	1	-1E+10	1
4902643	29	C	04/07/2025	12:55	-133.495	43.266	0	349.50	0	5.7080	0	33.8660	0	26.696	0	346.425	0	97.4	4	32.0	4	-1E+10	1	-1E+10	1	-1E+10	1	-1E+10	1	-1E+10	1	-1E+10	1
4902643	29	C	04/07/2025	12:55	-133.495	43.266	0	369.60	0	5.4560	0	33.8790	0	26.737	0	366.331	0	86.0	4	28.1	4	-1E+10	1	-1E+10	1	-1E+10	1	-1E+10	1	-1E+10	1	-1E+10	1
4902643	29	C	04/07/2025	12:55	-133.495	43.266	0	389.60	0	5.3980	0	33.9180	0	26.775	0	386.135	0	74.4	4	24.2	4	-1E+10	1	-1E+10	1	-1E+10	1	-1E+10	1	-1E+10	1	-1E+10	1
4902643	29	C	04/07/2025	12:55	-133.495	43.266	0	409.40	0	5.3170	0	33.9330	0	26.797	0	405.740	0	68.4	4	22.2	4	-1E+10	1	-1E+10	1	-1E+10	1	-1E+10	1	-1E+10	1	-1E+10	1
4902643	29	C	04/07/2025	12:55	-133.495	43.266	0	429.70	0	5.1760	0	33.9540	0	26.830	0	425.838	0	62.7	4	20.3	4	-1E+10	1	-1E+10	1	-1E+10	1	-1E+10	1	-1E+10	1	-1E+10	1
4902643	29	C	04/07/2025	12:55	-133.495	43.266	0	450.00	0	4.9870	0	33.9680	0	26.863	0	445.933	0	57.0	4	18.4	4	-1E+10	1	-1E+10	1	-1E+10	1	-1E+10	1	-1E+10	1	-1E+10	1
4902643	29	C	04/07/2025	12:55	-133.495	43.266	0	470.40	0	4.9040	0	34.0000	0	26.898	0	466.126	0	49.3	4	15.9	4	-1E+10	1	-1E+10	1	-1E+10	1	-1E+10	1	-1E+10	1	-1E+10	1
4902643	29	C	04/07/2025	12:55	-133.495	43.266	0	490.40	0	4.7970	0	34.0150	0	26.922	0	485.921	0	46.0	4	14.8	4	-1E+10	1	-1E+10	1	-1E+10	1	-1E+10	1	-1E+10	1	-1E+10	1
4902643	29	C	04/07/2025	12:55	-133.495	43.266	0	510.00	0	4.7160	0	34.0290	0	26.942	0	505.318	0	42.2	4	13.5	4	-1E+10	1	-1E+10	1	-1E+10	1	-1E+10	1	-1E+10	1	-1E+10	1
4902643	29	C	04/07/2025	12:55	-133.495	43.266	0	529.90	0	4.6070	0	34.0420	0	26.964	0	525.010	0	39.0	4	12.5	4	-1E+10	1	-1E+10	1	-1E+10	1	-1E+10	1	-1E+10	1	-1E+10	1
4902643	29	C	04/07/2025	12:55	-133.495	43.266	0	550.20	0	4.5580	0	34.0560	0	26.981	0	545.097	0	34.9	4	11.1	4	-1E+10	1	-1E+10	1	-1E+10	1	-1E+10	1	-1E+10	1	-1E+10	1
4902643	29	C	04/07/2025	12:55	-133.495	43.266	0	570.10	0	4.4570	0	34.0740	0	27.006	0	564.785	0	29.7	4	9.5	4	-1E+10	1	-1E+10	1	-1E+10	1	-1E+10	1	-1E+10	1	-1E+10	1
4902643	29	C	04/07/2025	12:55	-133.495	43.266	0	590.30	0	4.4920	0	34.1130	0	27.034	0	584.768	0	23.2	4	7.4	4	-1E+10	1	-1E+10	1	-1E+10	1	-1E+10	1	-1E+10	1	-1E+10	1
4902643	29	C	04/07/2025	12:55	-133.495	43.266	0	610.00	0	4.4270	0	34.1310	0	27.055	0	604.255	0	20.6	4	6.6	4	-1E+10	1	-1E+10	1	-1E+10	1	-1E+10	1	-1E+10	1	-1E+10	1
4902643	29	C	04/07/2025	12:55	-133.495	43.266	0	630.00	0	4.3330	0	34.1440	0	27.075	0	624.037	0	19.0	4	6.0	4	-1E+10	1	-1E+10	1	-1E+10	1	-1E+10	1	-1E+10	1	-1E+10	1
4902643	29	C	04/07/2025	12:55	-133.495	43.266	0	650.10	0	4.2680	0	34.1600	0	27.095	0	643.915	0	16.9	4	5.4	4	-1E+10	1	-1E+10	1	-1E+10	1	-1E+10	1	-1E+10	1	-1E+10	1
4902643	29	C	04/07/2025	12:55	-133.495	43.266	0	670.30	0	4.1960	0	34.1710	0	27.112	0	663.891	0	16.0	4	5.1	4	-1E+10	1	-1E+10	1	-1E+10	1	-1E+10	1	-1E+10	1	-1E+10	1
4902643	29	C	04/07/2025	12:55	-133.495	43.266	0	689.70	0	4.0980	0	34.1800	0	27.129	0	683.074	0	15.1	4	4.8	4	-1E+10	1	-1E+10	1	-1E+10	1	-1E+10	1	-1E+10	1	-1E+10	1
4902643	29	C	04/07/2025	12:55	-133.495	43.266	0	709.80	0	4.0290	0	34.1910	0	27.145	0	702.947	0	13.8	4	4.4	4	-1E+10	1	-1E+10	1	-1E+10	1	-1E+10	1	-1E+10	1	-1E+10	1
4902643	29	C	04/07/2025	12:55	-133.495	43.266	0	729.70	0	3.9470	0	34.2030	0	27.163	0	722.620	0	12.6	4	4.0	4	-1E+10	1	-1E+10	1	-1E+10	1	-1E+10	1	-1E+10	1	-1E+10	1
4902643	29	C	04/07/2025	12:55	-133.495	43.266	0	750.00	0	3.8860	0	34.2170	0	27.181	0	742.687	0	11.3	4	3.6	4	-1E+10	1	-1E+10	1	-1E+10	1	-1E+10	1	-1E+10	1	-1E+10	1
4902643	29	C	04/07/2025	12:55	-133.495	43.266	0	770.10	0	3.8330	0	34.2350	0	27.200	0	762.554	0	10.0	4	3.1	4	-1E+10	1	-1E+10	1	-1E+10	1	-1E+10	1	-1E+10	1	-1E+10	1
4902643	29	C	04/07/2025	12:55	-133.495	43.266	0	789.90	0	3.7840	0	34.2490	0	27.216	0	782.123	0	9.2	4	2.9	4	-1E+10	1	-1E+10	1	-1E+10	1	-1E+10	1	-1E+10	1	-1E+10	1
4902643	29	C	04/07/2025	12:55	-133.495	43.266	0	809.90	0	3.7290	0	34.2630	0	27.233	0	801.888	0	8.5	4	2.7	4	-1E+10	1	-1E+10	1	-1E+10	1	-1E+10	1	-1E+10	1	-1E+10	1
4902643	29	C	04/07/2025	12:55	-133.495	43.266	0	829.90	0	3.6850	0	34.2790	0	27.250	0	821.651	0	7.8	4	2.4	4	-1E+10	1	-1E+10	1	-1E+10	1	-1E+10	1	-1E+10	1	-1E+10	1
4902643	29	C	04/07/2025	12:55	-133.495	43.266	0	849.90	0	3.6610	0	34.2950	0	27.266	0	841.412	0	7.3	4	2.3	4	-1E+10	1	-1E+10	1	-1E+10	1	-1E+10	1	-1E+10	1	-1E+10	1
4902643	29	C	04/07/2025	12:55	-133.495	43.266	0	869.80	0	3.6170	0	34.3040	0	27.277	0	861.072	0	7.1	4	2.2	4	-1E+10	1	-1E+10	1	-1E+10	1	-1E+10	1	-1E+10	1	-1E+10	1
4902643	29	C	04/07/2025	12:55	-133.495	43.266	0	890.30	0	3.5780	0	34.3170	0	27.292	0	881.323	0	6.9	4	2.1	4	-1E+10	1	-1E+10	1	-1E+10	1	-1E+10	1	-1E+10	1	-1E+10	1
4902643	29	C	04/07/2025	12:55	-133.495	43.266	0	909.70	0	3.5470	0	34.3290	0	27.304	0	900.486	0	6.7	4	2.1	4	-1E+10	1	-1E+10	1	-1E+10	1	-1E+10	1	-1E+10	1	-1E+10	1
4902643	29	C	04/07/2025	12:55	-133.495	43.266	0	929.70	0	3.5170	0	34.3450	0	27.320	0	920.240	0	6.7	4	2.1	4	-1E+10	1	-1E+10	1	-1E+10	1	-1E+10	1	-1E+10	1	-1E+10	1
4902643	29	C	04/07/2025	12:55	-133.495	43.266	0	949.80	0	3.5100	0	34.3600	0	27.333	0	940.090	0	6.8	4	2.1	4	-1E+10	1	-1E+10	1	-1E+10	1	-1E+10	1	-1E+10	1	-1E+10	1
4902643	29	C	04/07/2025	12:55	-133.495	43.266	0	969.90	0	3.4740	0	34.3720	0	27.346	0	959.938	0	6.9	4	2.2	4	-1E+10	1	-1E+10	1	-1E+10	1	-1E+10	1	-1E+10	1	-1E+10	1
4902643	29	C	04/07/2025	12:55	-133.495	43.266	0	990.10	0	3.4250	0	34.3800	0	27.357	0	979.884	0	7.1	4	2.2	4	-1E+10	1	-1E+10	1	-1E+10	1	-1E+10	1	-1E+10	1	-1E+10	1
4902643	29	C	04/07/2025	12:55	-133.495	43.266	0	1010.10	0	3.3920	0	34.3870	0	27.366	0	999.630	0	7.3	4	2.3	4	-1E+10	1	-1E+10	1	-1E+10	1	-1E+10	1	-1E+10	1	-1E+10	1
4902643	29	C	04/07/2025	12:55	-133.495	43.266	0	1030.90	0	3.3710	0	34.3930	0	27.373	0	1020.163	0	7.5	4	2.3	4	-1E+10	1	-1E+10	1	-1E+10	1	-1E+10	1	-1E+10	1	-1E+10	1
4902643	29	C	04/07/2025	12:55	-133.495	43.266	0	1050.00	0	3.3480	0	34.3980	0	27.379	0	1039.017	0	7.7	4	2.4	4	-1E+10	1	-1E+10	1	-1E+10	1	-1E+10	1	-1E+10	1	-1E+10	1
4902643	29	C	04/07/2025	12:55	-133.495	43.266	0	1069.70	0	3.3100	0	34.4050	0	27.388	0	1058.461	0	8.1	4	2.5	4	-1E+10	1	-1E+10	1	-1E+10	1	-1E+10	1	-1E+10	1	-1E+10	1
4902643	29	C	04/07/2025	12:55	-133.495	43.266	0	1089.90	0	3.2720	0	34.4130	0	27.399	0	1078.397	0	8.6	4	2.7	4	-1E+10	1	-1E+10	1	-1E+10	1	-1E+10	1	-1E+10	1	-1E+10	1
4902643	29	C	04/07/2025	12:55	-133.495	43.266	0	1109.80	0	3.2280	0	34.4220	0	27.410	0	1098.035	0	9.2	4	2.9	4	-1E+10	1	-1E+10	1	-1E+10	1	-1E+10	1	-1E+10	1	-1E+10	1
4902643	29	C	04/07/2025	12:55	-133.495	43.266	0	1130.10	0	3.1840	0	34.4310	0	27.421	0	1118.066	0	9.8	4	3.0	4	-1E+10	1	-1E+10	1	-1E+10	1	-1E+10	1	-1E+10	1	-1E+10	1
4902643	29	C	04/07/2025	12:55	-133.495	43.266	0	1150.20	0	3.1380	0	34.4380	0	27.431	0	1137.898	0	10.3	4	3.2	4	-1E+10	1	-1E+10	1	-1E+10	1	-1E+10	1	-1E+10	1	-1E+10	1
4902643	29	C	04/07/2025	12:55	-133.495	43.266	0	1170.10	0	3.1090	0	34.4430	0	27.438	0	1157.530	0	10.8	4	3.3	4	-1E+10	1	-1E+10	1	-1E+10	1	-1E+10	1	-1E+10	1	-1E+10	1
4902643	29	C	04/07/2025	12:55	-133.495	43.266	0	1189.70	0	3.0810	0	34.4480	0	27.445	0	1176.865	0	11.2	4	3.5	4	-1E+10	1	-1E+10	1	-1E+10	1	-1E+10	1	-1E+10	1	-1E+10	1
4902643	29	C	04/07/2025	12:55	-133.495	43.266	0	1209.90	0	3.0480	0	34.4520	0	27.451	0	1196.789	0	11.8	4	3.6	4	-1E+10	1	-1E+10	1	-1E+10	1	-1E+10	1	-1E+10	1	-1E+10	1
4902643	29	C	04/07/2025	12:55	-133.495	43.266	0	1230.10	0	3.0050	0	34.4590	0	27.461	0	1216.712	0	12.5	4	3.9	4	-1E+10	1	-1E+10	1	-1E+10	1	-1E+10	1	-1E+10	1	-1E+10	1
4902643	29	C	04/07/2025	12:55	-133.495	43.266	0	1250.20	0	2.9680	0	34.4640	0	27.468	0	1236.534	0	13.1	4	4.0	4	-1E+10	1	-1E+10	1	-1E+10	1	-1E+10	1	-1E+10	1	-1E+10	1
4902643	29	C	04/07/2025	12:55	-133.495	43.266	0	1270.30	0	2.9360	0	34.4690	0	27.475	0	1256.355	0	13.8	4	4.2	4	-1E+10	1	-1E+10	1	-1E+10	1	-1E+10	1	-1E+10	1	-1E+10	1
4902643	29	C	04/07/2025	12:55	-133.495	43.266	0	1290.10	0	2.9040	0	34.4730	0	27.481	0	1275.877	0	14.5	4	4.5	4	-1E+10	1	-1E+10	1	-1E+10	1	-1E+10	1	-1E+10	1	-1E+10	1
4902643	29	C	04/07/2025	12:55	-133.495	43.266	0	1309.90	0	2.8690	0	34.4780	0	27.488	0	1295.398	0	15.1	4	4.7	4	-1E+10	1	-1E+10	1	-1E+10	1	-1E+10	1	-1E+10	1	-1E+10	1
4902643	29	C	04/07/2025	12:55	-133.495	43.266	0	1329.90	0	2.8470	0	34.4810	0	27.493	0	1315.114	0	15.8	4	4.9	4	-1E+10	1	-1E+10	1	-1E+10	1	-1E+10	1	-1E+10	1	-1E+10	1
4902643	29	C	04/07/2025	12:55	-133.495	43.266	0	1350.00	0	2.8100	0	34.4850	0	27.499	0	1334.927	0	16.7	4	5.1	4	-1E+10	1	-1E+10	1	-1E+10	1	-1E+10	1	-1E+10	1	-1E+10	1
4902643	29	C	04/07/2025	12:55	-133.495	43.266	0	1370.30	0	2.7720	0	34.4910	0	27.508	0	1354.935	0	17.7	4	5.4	4	-1E+10	1	-1E+10	1	-1E+10	1	-1E+10	1	-1E+10	1	-1E+10	1
4902643	29	C	04/07/2025	12:55	-133.495	43.266	0	1389.70	0	2.7400	0	34.4950	0	27.514	0	1374.055	0	18.8	4	5.8	4	-1E+10	1	-1E+10	1	-1E+10	1	-1E+10	1	-1E+10	1	-1E+10	1
4902643	29	C	04/07/2025	12:55	-133.495	43.266	0	1410.00	0	2.6980	0	34.5000	0	27.521	0	1394.059	0	20.0	4	6.1	4	-1E+10	1	-1E+10	1	-1E+10	1	-1E+10	1	-1E+10	1	-1E+10	1
4902643	29	C	04/07/2025	12:55	-133.495	43.266	0	1429.90	0	2.6690	0	34.5040	0	27.527	0	1413.667	0	20.9	4	6.4	4	-1E+10	1	-1E+10	1	-1E+10	1	-1E+10	1	-1E+10	1	-1E+10	1
4902643	29	C	04/07/2025	12:55	-133.495	43.266	0	1449.80	0	2.6300	0	34.5080	0	27.534	0	1433.274	0	22.2	4	6.8	4	-1E+10	1	-1E+10	1	-1E+10	1	-1E+10	1	-1E+10	1	-1E+10	1
4902643	29	C	04/07/2025	12:55	-133.495	43.266	0	1469.80	0	2.5790	0	34.5140	0	27.543	0	1452.977	0	23.6	4	7.2	4	-1E+10	1	-1E+10	1	-1E+10	1	-1E+10	1	-1E+10	1	-1E+10	1
4902643	29	C	04/07/2025	12:55	-133.495	43.266	0	1489.90	0	2.5440	0	34.5190	0	27.550	0	1472.777	0	24.8	4	7.6	4	-1E+10	1	-1E+10	1	-1E+10	1	-1E+10	1	-1E+10	1	-1E+10	1
4902643	29	C	04/07/2025	12:55	-133.495	43.266	0	1510.60	0	2.5000	0	34.5230	0	27.557	0	1493.166	0	26.3	4	8.0	4	-1E+10	1	-1E+10	1	-1E+10	1	-1E+10	1	-1E+10	1	-1E+10	1
4902643	29	C	04/07/2025	12:55	-133.495	43.266	0	1529.70	0	2.4640	0	34.5280	0	27.564	0	1511.977	0	27.4	4	8.4	4	-1E+10	1	-1E+10	1	-1E+10	1	-1E+10	1	-1E+10	1	-1E+10	1
4902643	29	C	04/07/2025	12:55	-133.495	43.266	0	1549.70	0	2.4350	0	34.5310	0	27.569	0	1531.673	0	28.5	4	8.7	4	-1E+10	1	-1E+10	1	-1E+10	1	-1E+10	1	-1E+10	1	-1E+10	1
4902643	29	C	04/07/2025	12:55	-133.495	43.266	0	1570.10	0	2.4090	0	34.5350	0	27.575	0	1551.761	0	29.5	4	9.0	4	-1E+10	1	-1E+10	1	-1E+10	1	-1E+10	1	-1E+10	1	-1E+10	1
4902643	29	C	04/07/2025	12:55	-133.495	43.266	0	1590.40	0	2.3870	0	34.5370	0	27.578	0	1571.749	0	30.6	4	9.3	4	-1E+10	1	-1E+10	1	-1E+10	1	-1E+10	1	-1E+10	1	-1E+10	1
4902643	29	C	04/07/2025	12:55	-133.495	43.266	0	1609.90	0	2.3520	0	34.5420	0	27.585	0	1590.947	0	32.0	4	9.7	4	-1E+10	1	-1E+10	1	-1E+10	1	-1E+10	1	-1E+10	1	-1E+10	1
4902643	29	C	04/07/2025	12:55	-133.495	43.266	0	1630.20	0	2.3250	0	34.5450	0	27.590	0	1610.931	0	33.0	4	10.0	4	-1E+10	1	-1E+10	1	-1E+10	1	-1E+10	1	-1E+10	1	-1E+10	1
4902643	29	C	04/07/2025	12:55	-133.495	43.266	0	1649.90	0	2.3030	0	34.5480	0	27.594	0	1630.322	0	34.2	4	10.4	4	-1E+10	1	-1E+10	1	-1E+10	1	-1E+10	1	-1E+10	1	-1E+10	1
4902643	29	C	04/07/2025	12:55	-133.495	43.266	0	1669.80	0	2.2750	0	34.5510	0	27.599	0	1649.909	0	35.4	4	10.7	4	-1E+10	1	-1E+10	1	-1E+10	1	-1E+10	1	-1E+10	1	-1E+10	1
4902643	29	C	04/07/2025	12:55	-133.495	43.266	0	1689.80	0	2.2520	0	34.5550	0	27.604	0	1669.592	0	36.6	4	11.1	4	-1E+10	1	-1E+10	1	-1E+10	1	-1E+10	1	-1E+10	1	-1E+10	1
4902643	29	C	04/07/2025	12:55	-133.495	43.266	0	1709.70	0	2.2270	0	34.5580	0	27.609	0	1689.174	0	37.9	4	11.5	4	-1E+10	1	-1E+10	1	-1E+10	1	-1E+10	1	-1E+10	1	-1E+10	1
4902643	29	C	04/07/2025	12:55	-133.495	43.266	0	1729.90	0	2.2040	0	34.5610	0	27.613	0	1709.051	0	39.2	4	11.9	4	-1E+10	1	-1E+10	1	-1E+10	1	-1E+10	1	-1E+10	1	-1E+10	1
4902643	29	C	04/07/2025	12:55	-133.495	43.266	0	1749.90	0	2.1780	0	34.5650	0	27.618	0	1728.728	0	40.6	4	12.3	4	-1E+10	1	-1E+10	1	-1E+10	1	-1E+10	1	-1E+10	1	-1E+10	1
4902643	29	C	04/07/2025	12:55	-133.495	43.266	0	1769.70	0	2.1550	0	34.5680	0	27.623	0	1748.207	0	41.8	4	12.6	4	-1E+10	1	-1E+10	1	-1E+10	1	-1E+10	1	-1E+10	1	-1E+10	1
4902643	29	C	04/07/2025	12:55	-133.495	43.266	0	1789.70	0	2.1380	0	34.5700	0	27.626	0	1767.881	0	43.1	4	13.0	4	-1E+10	1	-1E+10	1	-1E+10	1	-1E+10	1	-1E+10	1	-1E+10	1
4902643	29	C	04/07/2025	12:55	-133.495	43.266	0	1809.60	0	2.1100	0	34.5740	0	27.631	0	1787.455	0	44.8	4	13.5	4	-1E+10	1	-1E+10	1	-1E+10	1	-1E+10	1	-1E+10	1	-1E+10	1
4902643	29	C	04/07/2025	12:55	-133.495	43.266	0	1829.70	0	2.0890	0	34.5770	0	27.636	0	1807.223	0	46.1	4	13.9	4	-1E+10	1	-1E+10	1	-1E+10	1	-1E+10	1	-1E+10	1	-1E+10	1
4902643	29	C	04/07/2025	12:55	-133.495	43.266	0	1849.90	0	2.0700	0	34.5800	0	27.640	0	1827.088	0	47.2	4	14.3	4	-1E+10	1	-1E+10	1	-1E+10	1	-1E+10	1	-1E+10	1	-1E+10	1
4902643	29	C	04/07/2025	12:55	-133.495	43.266	0	1869.70	0	2.0490	0	34.5830	0	27.644	0	1846.558	0	48.8	4	14.7	4	-1E+10	1	-1E+10	1	-1E+10	1	-1E+10	1	-1E+10	1	-1E+10	1
4902643	29	C	04/07/2025	12:55	-133.495	43.266	0	1890.10	0	2.0250	0	34.5860	0	27.648	0	1866.616	0	50.4	4	15.2	4	-1E+10	1	-1E+10	1	-1E+10	1	-1E+10	1	-1E+10	1	-1E+10	1
4902643	29	C	04/07/2025	12:55	-133.495	43.266	0	1910.10	0	2.0080	0	34.5890	0	27.652	0	1886.279	0	51.5	4	15.5	4	-1E+10	1	-1E+10	1	-1E+10	1	-1E+10	1	-1E+10	1	-1E+10	1
4902643	29	C	04/07/2025	12:55	-133.495	43.266	0	1930.00	0	1.9920	0	34.5910	0	27.655	0	1905.842	0	52.8	4	15.9	4	-1E+10	1	-1E+10	1	-1E+10	1	-1E+10	1	-1E+10	1	-1E+10	1
4902643	29	C	04/07/2025	12:55	-133.495	43.266	0	1950.30	0	1.9760	0	34.5930	0	27.658	0	1925.796	0	54.0	4	16.3	4	-1E+10	1	-1E+10	1	-1E+10	1	-1E+10	1	-1E+10	1	-1E+10	1
4902643	29	C	04/07/2025	12:55	-133.495	43.266	0	1970.60	0	1.9560	0	34.5960	0	27.662	0	1945.748	0	55.3	4	16.7	4	-1E+10	1	-1E+10	1	-1E+10	1	-1E+10	1	-1E+10	1	-1E+10	1
4902643	29	C	04/07/2025	12:55	-133.495	43.266	0	1989.90	0	1.9430	0	34.5980	0	27.665	0	1964.716	0	56.3	4	17.0	4	-1E+10	1	-1E+10	1	-1E+10	1	-1E+10	1	-1E+10	1	-1E+10	1
4902643	29	C	04/07/2025	12:55	-133.495	43.266	0	2010.10	0	1.9330	0	34.6000	4	27.667	0	1984.566	0	57.3	4	17.2	4	-1E+10	1	-1E+10	1	-1E+10	1	-1E+10	1	-1E+10	1	-1E+10	1
4902643	29	C	04/07/2025	12:55	-133.495	43.266	0	2030.30	0	1.9220	0	34.6020	4	27.670	0	2004.415	0	58.1	4	17.5	4	-1E+10	1	-1E+10	1	-1E+10	1	-1E+10	1	-1E+10	1	-1E+10	1
4902643	29	C	04/07/2025	12:55	-133.495	43.266	0	2049.90	0	1.9110	0	34.6030	4	27.671	0	2023.672	0	59.0	4	17.8	4	-1E+10	1	-1E+10	1	-1E+10	1	-1E+10	1	-1E+10	1	-1E+10	1
4902643	29	C	04/07/2025	12:55	-133.495	43.266	0	2069.90	0	1.8970	0	34.6050	4	27.674	0	2043.321	0	60.1	4	18.1	4	-1E+10	1	-1E+10	1	-1E+10	1	-1E+10	1	-1E+10	1	-1E+10	1
4902643	29	C	04/07/2025	12:55	-133.495	43.266	0	2090.00	0	1.8860	0	34.6070	4	27.677	0	2063.065	0	61.0	4	18.3	4	-1E+10	1	-1E+10	1	-1E+10	1	-1E+10	1	-1E+10	1	-1E+10	1
4902643	29	C	04/07/2025	12:55	-133.495	43.266	0	2110.10	0	1.8760	0	34.6090	4	27.679	0	2082.808	0	61.8	4	18.6	4	-1E+10	1	-1E+10	1	-1E+10	1	-1E+10	1	-1E+10	1	-1E+10	1
4902643	29	C	04/07/2025	12:55	-133.495	43.266	0	2130.70	0	1.8650	0	34.6100	4	27.681	0	2103.041	0	62.6	4	18.8	4	-1E+10	1	-1E+10	1	-1E+10	1	-1E+10	1	-1E+10	1	-1E+10	1
4902643	29	C	04/07/2025	12:55	-133.495	43.266	0	2150.20	0	1.8570	0	34.6120	4	27.683	0	2122.191	0	63.4	4	19.1	4	-1E+10	1	-1E+10	1	-1E+10	1	-1E+10	1	-1E+10	1	-1E+10	1
4902643	29	C	04/07/2025	12:55	-133.495	43.266	0	2170.00	0	1.8490	0	34.6130	4	27.685	0	2141.634	0	64.2	4	19.3	4	-1E+10	1	-1E+10	1	-1E+10	1	-1E+10	1	-1E+10	1	-1E+10	1
4902643	29	C	04/07/2025	12:55	-133.495	43.266	0	2190.00	0	1.8410	0	34.6140	4	27.686	0	2161.271	0	65.0	4	19.5	4	-1E+10	1	-1E+10	1	-1E+10	1	-1E+10	1	-1E+10	1	-1E+10	1
4902643	29	C	04/07/2025	12:55	-133.495	43.266	0	2209.90	0	1.8310	0	34.6160	4	27.689	0	2180.809	0	65.9	4	19.8	4	-1E+10	1	-1E+10	1	-1E+10	1	-1E+10	1	-1E+10	1	-1E+10	1
4902643	29	C	04/07/2025	12:55	-133.495	43.266	0	2229.90	0	1.8230	0	34.6170	4	27.690	0	2200.442	0	66.7	4	20.0	4	-1E+10	1	-1E+10	1	-1E+10	1	-1E+10	1	-1E+10	1	-1E+10	1
4902643	29	C	04/07/2025	12:55	-133.495	43.266	0	2250.40	0	1.8170	0	34.6180	4	27.692	0	2220.565	0	67.3	4	20.2	4	-1E+10	1	-1E+10	1	-1E+10	1	-1E+10	1	-1E+10	1	-1E+10	1
4902643	29	C	04/07/2025	12:55	-133.495	43.266	0	2270.00	0	1.8120	0	34.6190	4	27.693	0	2239.803	0	67.8	4	20.3	4	-1E+10	1	-1E+10	1	-1E+10	1	-1E+10	1	-1E+10	1	-1E+10	1
4902643	29	C	04/07/2025	12:55	-133.495	43.266	0	2290.00	0	1.8040	0	34.6200	4	27.694	0	2259.432	0	68.5	4	20.6	4	-1E+10	1	-1E+10	1	-1E+10	1	-1E+10	1	-1E+10	1	-1E+10	1
4902643	29	C	04/07/2025	12:55	-133.495	43.266	0	2310.90	0	1.7970	0	34.6210	4	27.696	0	2279.941	0	69.3	4	20.8	4	-1E+10	1	-1E+10	1	-1E+10	1	-1E+10	1	-1E+10	1	-1E+10	1
4902643	29	C	04/07/2025	12:55	-133.495	43.266	0	2330.30	0	1.7880	0	34.6220	4	27.698	0	2298.978	0	70.2	4	21.1	4	-1E+10	1	-1E+10	1	-1E+10	1	-1E+10	1	-1E+10	1	-1E+10	1
4902643	29	C	04/07/2025	12:55	-133.495	43.266	0	2350.10	0	1.7810	0	34.6230	4	27.699	0	2318.405	0	71.0	4	21.3	4	-1E+10	1	-1E+10	1	-1E+10	1	-1E+10	1	-1E+10	1	-1E+10	1
4902643	29	C	04/07/2025	12:55	-133.495	43.266	0	2370.10	0	1.7720	0	34.6250	4	27.701	0	2338.026	0	71.9	4	21.6	4	-1E+10	1	-1E+10	1	-1E+10	1	-1E+10	1	-1E+10	1	-1E+10	1
4902643	29	C	04/07/2025	12:55	-133.495	43.266	0	2390.20	0	1.7640	0	34.6260	4	27.703	0	2357.743	0	72.8	4	21.8	4	-1E+10	1	-1E+10	1	-1E+10	1	-1E+10	1	-1E+10	1	-1E+10	1
4902643	29	C	04/07/2025	12:55	-133.495	43.266	0	2409.90	0	1.7530	0	34.6270	4	27.705	0	2377.067	0	74.0	4	22.2	4	-1E+10	1	-1E+10	1	-1E+10	1	-1E+10	1	-1E+10	1	-1E+10	1
4902643	29	C	04/07/2025	12:55	-133.495	43.266	0	2429.80	0	1.7420	0	34.6290	4	27.707	0	2396.585	0	74.9	4	22.4	4	-1E+10	1	-1E+10	1	-1E+10	1	-1E+10	1	-1E+10	1	-1E+10	1
4902643	29	C	04/07/2025	12:55	-133.495	43.266	0	2450.10	0	1.7360	0	34.6300	4	27.708	0	2416.493	0	75.6	4	22.7	4	-1E+10	1	-1E+10	1	-1E+10	1	-1E+10	1	-1E+10	1	-1E+10	1
4902643	29	C	04/07/2025	12:55	-133.495	43.266	0	2469.70	0	1.7300	0	34.6310	4	27.710	0	2435.713	0	76.2	4	22.8	4	-1E+10	1	-1E+10	1	-1E+10	1	-1E+10	1	-1E+10	1	-1E+10	1
4902643	29	C	04/07/2025	12:55	-133.495	43.266	0	2490.00	0	1.7220	0	34.6320	4	27.711	0	2455.618	0	77.1	4	23.1	4	-1E+10	1	-1E+10	1	-1E+10	1	-1E+10	1	-1E+10	1	-1E+10	1
4902643	29	C	04/07/2025	12:55	-133.495	43.266	0	2510.10	0	1.7120	0	34.6330	4	27.713	0	2475.325	0	78.1	4	23.4	4	-1E+10	1	-1E+10	1	-1E+10	1	-1E+10	1	-1E+10	1	-1E+10	1
4902643	29	C	04/07/2025	12:55	-133.495	43.266	0	2529.80	0	1.7020	0	34.6340	4	27.715	0	2494.638	0	78.9	4	23.6	4	-1E+10	1	-1E+10	1	-1E+10	1	-1E+10	1	-1E+10	1	-1E+10	1
4902643	29	C	04/07/2025	12:55	-133.495	43.266	0	2550.20	0	1.6950	0	34.6350	4	27.716	0	2514.635	0	79.8	4	23.9	4	-1E+10	1	-1E+10	1	-1E+10	1	-1E+10	1	-1E+10	1	-1E+10	1
4902643	29	C	04/07/2025	12:55	-133.495	43.266	0	2570.00	0	1.6880	0	34.6360	4	27.718	0	2534.042	0	80.5	4	24.1	4	-1E+10	1	-1E+10	1	-1E+10	1	-1E+10	1	-1E+10	1	-1E+10	1
4902643	29	C	04/07/2025	12:55	-133.495	43.266	0	2590.00	0	1.6800	0	34.6370	4	27.719	0	2553.644	0	81.5	4	24.4	4	-1E+10	1	-1E+10	1	-1E+10	1	-1E+10	1	-1E+10	1	-1E+10	1
4902643	29	C	04/07/2025	12:55	-133.495	43.266	0	2610.10	0	1.6710	0	34.6380	4	27.721	0	2573.342	0	82.4	4	24.7	4	-1E+10	1	-1E+10	1	-1E+10	1	-1E+10	1	-1E+10	1	-1E+10	1
4902643	29	C	04/07/2025	12:55	-133.495	43.266	0	2630.30	0	1.6700	0	34.6390	4	27.722	0	2593.136	0	82.8	4	24.8	4	-1E+10	1	-1E+10	1	-1E+10	1	-1E+10	1	-1E+10	1	-1E+10	1
4902643	29	C	04/07/2025	12:55	-133.495	43.266	0	2650.00	0	1.6670	0	34.6400	4	27.723	0	2612.438	0	83.6	4	25.0	4	-1E+10	1	-1E+10	1	-1E+10	1	-1E+10	1	-1E+10	1	-1E+10	1
4902643	29	C	04/07/2025	12:55	-133.495	43.266	0	2670.10	0	1.6610	0	34.6410	4	27.724	0	2632.130	0	84.2	4	25.2	4	-1E+10	1	-1E+10	1	-1E+10	1	-1E+10	1	-1E+10	1	-1E+10	1
4902643	29	C	04/07/2025	12:55	-133.495	43.266	0	2690.00	0	1.6560	0	34.6410	4	27.725	0	2651.625	0	84.8	4	25.4	4	-1E+10	1	-1E+10	1	-1E+10	1	-1E+10	1	-1E+10	1	-1E+10	1
4902643	29	C	04/07/2025	12:55	-133.495	43.266	0	2709.90	0	1.6490	0	34.6420	4	27.726	0	2671.118	0	85.8	4	25.6	4	-1E+10	1	-1E+10	1	-1E+10	1	-1E+10	1	-1E+10	1	-1E+10	1
4902643	29	C	04/07/2025	12:55	-133.495	43.266	0	2729.90	0	1.6410	0	34.6430	4	27.728	0	2690.707	0	87.1	4	26.0	4	-1E+10	1	-1E+10	1	-1E+10	1	-1E+10	1	-1E+10	1	-1E+10	1
4902643	29	C	04/07/2025	12:55	-133.495	43.266	0	2749.70	0	1.6360	0	34.6450	4	27.730	0	2710.099	0	87.9	4	26.3	4	-1E+10	1	-1E+10	1	-1E+10	1	-1E+10	1	-1E+10	1	-1E+10	1
4902643	29	C	04/07/2025	12:55	-133.495	43.266	0	2769.80	0	1.6320	0	34.6450	4	27.730	0	2729.782	0	88.7	4	26.5	4	-1E+10	1	-1E+10	1	-1E+10	1	-1E+10	1	-1E+10	1	-1E+10	1
4902643	29	C	04/07/2025	12:55	-133.495	43.266	0	2790.60	0	1.6280	0	34.6460	4	27.731	0	2750.149	0	89.4	4	26.7	4	-1E+10	1	-1E+10	1	-1E+10	1	-1E+10	1	-1E+10	1	-1E+10	1
4902643	29	C	04/07/2025	12:55	-133.495	43.266	0	2809.90	0	1.6250	0	34.6470	4	27.732	0	2769.046	0	89.9	4	26.9	4	-1E+10	1	-1E+10	1	-1E+10	1	-1E+10	1	-1E+10	1	-1E+10	1
4902643	29	C	04/07/2025	12:55	-133.495	43.266	0	2829.70	0	1.6220	0	34.6470	4	27.733	0	2788.430	0	90.5	4	27.0	4	-1E+10	1	-1E+10	1	-1E+10	1	-1E+10	1	-1E+10	1	-1E+10	1
4902643	29	C	04/07/2025	12:55	-133.495	43.266	0	2850.00	0	1.6170	0	34.6480	4	27.734	0	2808.302	0	91.2	4	27.2	4	-1E+10	1	-1E+10	1	-1E+10	1	-1E+10	1	-1E+10	1	-1E+10	1
4902643	29	C	04/07/2025	12:55	-133.495	43.266	0	2870.30	0	1.6130	0	34.6490	4	27.735	0	2828.173	0	91.8	4	27.4	4	-1E+10	1	-1E+10	1	-1E+10	1	-1E+10	1	-1E+10	1	-1E+10	1
4902643	29	C	04/07/2025	12:55	-133.495	43.266	0	2890.00	0	1.6110	0	34.6490	4	27.736	0	2847.454	0	92.2	4	27.6	4	-1E+10	1	-1E+10	1	-1E+10	1	-1E+10	1	-1E+10	1	-1E+10	1
4902643	29	C	04/07/2025	12:55	-133.495	43.266	0	2909.70	0	1.6060	0	34.6500	4	27.737	0	2866.734	0	92.7	4	27.7	4	-1E+10	1	-1E+10	1	-1E+10	1	-1E+10	1	-1E+10	1	-1E+10	1
4902643	29	C	04/07/2025	12:55	-133.495	43.266	0	2929.70	0	1.6040	0	34.6500	4	27.737	0	2886.305	0	93.2	4	27.8	4	-1E+10	1	-1E+10	1	-1E+10	1	-1E+10	1	-1E+10	1	-1E+10	1
4902643	29	C	04/07/2025	12:55	-133.495	43.266	0	2950.00	0	1.6010	0	34.6510	4	27.738	0	2906.168	0	93.8	4	28.0	4	-1E+10	1	-1E+10	1	-1E+10	1	-1E+10	1	-1E+10	1	-1E+10	1
4902643	29	C	04/07/2025	12:55	-133.495	43.266	0	2970.00	0	1.5970	0	34.6520	4	27.739	0	2925.736	0	94.5	4	28.2	4	-1E+10	1	-1E+10	1	-1E+10	1	-1E+10	1	-1E+10	1	-1E+10	1
4902643	29	C	04/07/2025	12:55	-133.495	43.266	0	2989.90	0	1.5930	0	34.6520	4	27.740	0	2945.204	0	95.1	4	28.4	4	-1E+10	1	-1E+10	1	-1E+10	1	-1E+10	1	-1E+10	1	-1E+10	1
4902643	29	C	04/07/2025	12:55	-133.495	43.266	0	3010.00	0	1.5900	0	34.6530	4	27.741	0	2964.867	0	95.6	4	28.5	4	-1E+10	1	-1E+10	1	-1E+10	1	-1E+10	1	-1E+10	1	-1E+10	1
4902643	29	C	04/07/2025	12:55	-133.495	43.266	0	3029.70	0	1.5870	0	34.6530	4	27.741	0	2984.136	0	96.2	4	28.7	4	-1E+10	1	-1E+10	1	-1E+10	1	-1E+10	1	-1E+10	1	-1E+10	1
4902643	29	C	04/07/2025	12:55	-133.495	43.266	0	3049.90	0	1.5830	0	34.6540	4	27.743	0	3003.892	0	96.7	4	28.9	4	-1E+10	1	-1E+10	1	-1E+10	1	-1E+10	1	-1E+10	1	-1E+10	1
4902643	29	C	04/07/2025	12:55	-133.495	43.266	0	3070.10	0	1.5820	0	34.6550	4	27.744	0	3023.647	0	97.0	4	29.0	4	-1E+10	1	-1E+10	1	-1E+10	1	-1E+10	1	-1E+10	1	-1E+10	1
4902643	29	C	04/07/2025	12:55	-133.495	43.266	0	3089.80	0	1.5810	0	34.6550	4	27.744	0	3042.911	0	97.3	4	29.0	4	-1E+10	1	-1E+10	1	-1E+10	1	-1E+10	1	-1E+10	1	-1E+10	1
4902643	29	C	04/07/2025	12:55	-133.495	43.266	0	3110.00	0	1.5790	0	34.6550	4	27.744	0	3062.662	0	97.8	4	29.2	4	-1E+10	1	-1E+10	1	-1E+10	1	-1E+10	1	-1E+10	1	-1E+10	1
4902643	29	C	04/07/2025	12:55	-133.495	43.266	0	3130.00	0	1.5760	0	34.6560	4	27.745	0	3082.216	0	98.5	4	29.4	4	-1E+10	1	-1E+10	1	-1E+10	1	-1E+10	1	-1E+10	1	-1E+10	1
4902643	29	C	04/07/2025	12:55	-133.495	43.266	0	3150.00	0	1.5720	0	34.6570	4	27.746	0	3101.768	0	99.0	4	29.6	4	-1E+10	1	-1E+10	1	-1E+10	1	-1E+10	1	-1E+10	1	-1E+10	1
4902643	29	C	04/07/2025	12:55	-133.495	43.266	0	3170.00	0	1.5700	0	34.6570	4	27.747	0	3121.318	0	99.5	4	29.7	4	-1E+10	1	-1E+10	1	-1E+10	1	-1E+10	1	-1E+10	1	-1E+10	1
4902643	29	C	04/07/2025	12:55	-133.495	43.266	0	3189.70	0	1.5670	0	34.6580	4	27.748	0	3140.573	0	100.0	4	29.8	4	-1E+10	1	-1E+10	1	-1E+10	1	-1E+10	1	-1E+10	1	-1E+10	1
4902643	29	C	04/07/2025	12:55	-133.495	43.266	0	3209.70	0	1.5650	0	34.6580	4	27.748	0	3160.120	0	100.4	4	30.0	4	-1E+10	1	-1E+10	1	-1E+10	1	-1E+10	1	-1E+10	1	-1E+10	1
4902643	29	C	04/07/2025	12:55	-133.495	43.266	0	3230.00	0	1.5630	0	34.6580	4	27.748	0	3179.958	0	100.9	4	30.1	4	-1E+10	1	-1E+10	1	-1E+10	1	-1E+10	1	-1E+10	1	-1E+10	1
4902643	29	C	04/07/2025	12:55	-133.495	43.266	0	3250.00	0	1.5610	0	34.6590	4	27.750	0	3199.501	0	101.3	4	30.2	4	-1E+10	1	-1E+10	1	-1E+10	1	-1E+10	1	-1E+10	1	-1E+10	1
4902643	29	C	04/07/2025	12:55	-133.495	43.266	0	3270.40	0	1.5600	0	34.6590	4	27.750	0	3219.434	0	101.7	4	30.3	4	-1E+10	1	-1E+10	1	-1E+10	1	-1E+10	1	-1E+10	1	-1E+10	1
4902643	29	C	04/07/2025	12:55	-133.495	43.266	0	3289.80	0	1.5590	0	34.6600	4	27.751	0	3238.387	0	102.0	4	30.4	4	-1E+10	1	-1E+10	1	-1E+10	1	-1E+10	1	-1E+10	1	-1E+10	1
4902643	29	C	04/07/2025	12:55	-133.495	43.266	0	3309.70	0	1.5580	0	34.6600	4	27.751	0	3257.827	0	102.4	4	30.6	4	-1E+10	1	-1E+10	1	-1E+10	1	-1E+10	1	-1E+10	1	-1E+10	1
4902643	29	C	04/07/2025	12:55	-133.495	43.266	0	3329.90	0	1.5550	0	34.6610	4	27.752	0	3277.559	0	103.0	4	30.7	4	-1E+10	1	-1E+10	1	-1E+10	1	-1E+10	1	-1E+10	1	-1E+10	1
4902643	29	C	04/07/2025	12:55	-133.495	43.266	0	3350.00	0	1.5520	0	34.6610	4	27.752	0	3297.191	0	103.5	4	30.9	4	-1E+10	1	-1E+10	1	-1E+10	1	-1E+10	1	-1E+10	1	-1E+10	1
4902643	29	C	04/07/2025	12:55	-133.495	43.266	0	3370.10	0	1.5520	0	34.6620	4	27.753	0	3316.822	0	103.8	4	31.0	4	-1E+10	1	-1E+10	1	-1E+10	1	-1E+10	1	-1E+10	1	-1E+10	1
4902643	29	C	04/07/2025	12:55	-133.495	43.266	0	3389.90	0	1.5510	0	34.6620	4	27.754	0	3336.157	0	104.2	4	31.1	4	-1E+10	1	-1E+10	1	-1E+10	1	-1E+10	1	-1E+10	1	-1E+10	1
4902643	29	C	04/07/2025	12:55	-133.495	43.266	0	3410.50	0	1.5480	0	34.6630	4	27.755	0	3356.272	0	104.7	4	31.2	4	-1E+10	1	-1E+10	1	-1E+10	1	-1E+10	1	-1E+10	1	-1E+10	1
4902643	29	C	04/07/2025	12:55	-133.495	43.266	0	3430.00	0	1.5460	0	34.6630	4	27.755	0	3375.312	0	105.1	4	31.4	4	-1E+10	1	-1E+10	1	-1E+10	1	-1E+10	1	-1E+10	1	-1E+10	1
4902643	29	C	04/07/2025	12:55	-133.495	43.266	0	3449.90	0	1.5450	0	34.6640	4	27.756	0	3394.740	0	105.6	4	31.5	4	-1E+10	1	-1E+10	1	-1E+10	1	-1E+10	1	-1E+10	1	-1E+10	1
4902643	29	C	04/07/2025	12:55	-133.495	43.266	0	3470.10	0	1.5430	0	34.6640	4	27.756	0	3414.459	0	106.0	4	31.6	4	-1E+10	1	-1E+10	1	-1E+10	1	-1E+10	1	-1E+10	1	-1E+10	1
4902643	29	C	04/07/2025	12:55	-133.495	43.266	0	3490.10	0	1.5420	0	34.6650	4	27.757	0	3433.982	0	106.3	4	31.7	4	-1E+10	1	-1E+10	1	-1E+10	1	-1E+10	1	-1E+10	1	-1E+10	1
4902643	29	C	04/07/2025	12:55	-133.495	43.266	0	3510.10	0	1.5410	0	34.6650	4	27.758	0	3453.502	0	106.7	4	31.8	4	-1E+10	1	-1E+10	1	-1E+10	1	-1E+10	1	-1E+10	1	-1E+10	1
4902643	29	C	04/07/2025	12:55	-133.495	43.266	0	3530.20	0	1.5410	0	34.6660	4	27.759	0	3473.118	0	107.0	4	31.9	4	-1E+10	1	-1E+10	1	-1E+10	1	-1E+10	1	-1E+10	1	-1E+10	1
4902643	29	C	04/07/2025	12:55	-133.495	43.266	0	3549.60	0	1.5410	0	34.6660	4	27.759	0	3492.050	0	107.2	4	32.0	4	-1E+10	1	-1E+10	1	-1E+10	1	-1E+10	1	-1E+10	1	-1E+10	1
4902643	29	C	04/07/2025	12:55	-133.495	43.266	0	3569.80	0	1.5410	0	34.6670	4	27.760	0	3511.760	0	107.4	4	32.0	4	-1E+10	1	-1E+10	1	-1E+10	1	-1E+10	1	-1E+10	1	-1E+10	1
4902643	29	C	04/07/2025	12:55	-133.495	43.266	0	3590.10	0	1.5420	0	34.6670	4	27.760	0	3531.567	0	107.6	4	32.1	4	-1E+10	1	-1E+10	1	-1E+10	1	-1E+10	1	-1E+10	1	-1E+10	1
4902643	29	C	04/07/2025	12:55	-133.495	43.266	0	3610.20	0	1.5430	0	34.6670	4	27.760	0	3551.176	0	107.7	4	32.1	4	-1E+10	1	-1E+10	1	-1E+10	1	-1E+10	1	-1E+10	1	-1E+10	1
4902643	29	C	04/07/2025	12:55	-133.495	43.266	0	3630.00	0	1.5430	0	34.6670	4	27.760	0	3570.491	0	107.9	4	32.2	4	-1E+10	1	-1E+10	1	-1E+10	1	-1E+10	1	-1E+10	1	-1E+10	1
4902643	29	C	04/07/2025	12:55	-133.495	43.266	0	3650.20	0	1.5440	0	34.6680	4	27.761	0	3590.195	0	108.0	4	32.2	4	-1E+10	1	-1E+10	1	-1E+10	1	-1E+10	1	-1E+10	1	-1E+10	1
4902643	29	C	04/07/2025	12:55	-133.495	43.266	0	3669.80	0	1.5450	0	34.6680	4	27.761	0	3609.311	0	108.2	4	32.3	4	-1E+10	1	-1E+10	1	-1E+10	1	-1E+10	1	-1E+10	1	-1E+10	1
4902643	29	C	04/07/2025	12:55	-133.495	43.266	0	3689.80	0	1.5460	0	34.6680	4	27.761	0	3628.816	0	108.3	4	32.3	4	-1E+10	1	-1E+10	1	-1E+10	1	-1E+10	1	-1E+10	1	-1E+10	1
4902643	29	C	04/07/2025	12:55	-133.495	43.266	0	3709.60	0	1.5470	0	34.6680	4	27.761	0	3648.124	0	108.5	4	32.4	4	-1E+10	1	-1E+10	1	-1E+10	1	-1E+10	1	-1E+10	1	-1E+10	1
4902643	29	C	04/07/2025	12:55	-133.495	43.266	0	3730.00	0	1.5480	0	34.6690	4	27.762	0	3668.016	0	108.5	4	32.4	4	-1E+10	1	-1E+10	1	-1E+10	1	-1E+10	1	-1E+10	1	-1E+10	1
4902643	29	C	04/07/2025	12:55	-133.495	43.266	0	3749.90	0	1.5490	0	34.6690	4	27.762	0	3687.418	0	108.6	4	32.4	4	-1E+10	1	-1E+10	1	-1E+10	1	-1E+10	1	-1E+10	1	-1E+10	1
4902643	29	C	04/07/2025	12:55	-133.495	43.266	0	3769.80	0	1.5490	0	34.6690	4	27.762	0	3706.819	0	108.7	4	32.4	4	-1E+10	1	-1E+10	1	-1E+10	1	-1E+10	1	-1E+10	1	-1E+10	1
4902643	29	C	04/07/2025	12:55	-133.495	43.266	0	3791.10	0	1.5510	0	34.6690	4	27.762	0	3727.582	0	108.5	4	32.4	4	-1E+10	1	-1E+10	1	-1E+10	1	-1E+10	1	-1E+10	1	-1E+10	1
4902643	29	C	04/07/2025	12:55	-133.495	43.266	0	3800.50	0	1.5510	0	34.6700	4	27.763	0	3736.745	0	108.1	4	32.3	4	-1E+10	1	-1E+10	1	-1E+10	1	-1E+10	1	-1E+10	1	-1E+10	1
4902643	29	C	04/07/2025	12:55	-133.495	43.266	0																										
4902643	30	C	04/17/2025	10:45	-133.583	43.314	0	1.10	0	10.6728	0	32.6072	0	24.970	0	1.091	0	260.5	4	94.6	4	-1E+10	1	-1E+10	1	-1E+10	1	-1E+10	1	-1E+10	1	-1E+10	1
4902643	30	C	04/17/2025	10:45	-133.583	43.314	0	1.20	0	10.6720	0	32.6078	0	24.971	0	1.190	0	-1e10	1	-1e10	1	-1E+10	1	-1E+10	1	-1E+10	1	-1E+10	1	-1E+10	1	-1E+10	1
4902643	30	C	04/17/2025	10:45	-133.583	43.314	0	1.50	0	10.6860	0	32.6030	0	24.965	0	1.488	0	260.0	4	94.5	4	-1E+10	1	-1E+10	1	-1E+10	1	-1E+10	1	-1E+10	1	-1E+10	1
4902643	30	C	04/17/2025	10:45	-133.583	43.314	0	2.70	0	10.6800	0	32.6070	0	24.969	0	2.678	0	259.9	4	94.4	4	-1E+10	1	-1E+10	1	-1E+10	1	-1E+10	1	-1E+10	1	-1E+10	1
4902643	30	C	04/17/2025	10:45	-133.583	43.314	0	3.50	0	10.6780	0	32.6090	0	24.971	0	3.472	0	259.9	4	94.4	4	-1E+10	1	-1E+10	1	-1E+10	1	-1E+10	1	-1E+10	1	-1E+10	1
4902643	30	C	04/17/2025	10:45	-133.583	43.314	0	4.80	0	10.6790	0	32.6080	0	24.970	0	4.762	0	259.9	4	94.4	4	-1E+10	1	-1E+10	1	-1E+10	1	-1E+10	1	-1E+10	1	-1E+10	1
4902643	30	C	04/17/2025	10:45	-133.583	43.314	0	5.70	0	10.6910	0	32.6070	0	24.967	0	5.655	0	259.8	4	94.4	4	-1E+10	1	-1E+10	1	-1E+10	1	-1E+10	1	-1E+10	1	-1E+10	1
4902643	30	C	04/17/2025	10:45	-133.583	43.314	0	6.60	0	10.6900	0	32.6070	0	24.967	0	6.547	0	259.8	4	94.4	4	-1E+10	1	-1E+10	1	-1E+10	1	-1E+10	1	-1E+10	1	-1E+10	1
4902643	30	C	04/17/2025	10:45	-133.583	43.314	0	7.50	0	10.6910	0	32.6060	0	24.966	0	7.440	0	259.6	4	94.3	4	-1E+10	1	-1E+10	1	-1E+10	1	-1E+10	1	-1E+10	1	-1E+10	1
4902643	30	C	04/17/2025	10:45	-133.583	43.314	0	8.40	0	10.6900	0	32.6080	0	24.968	0	8.333	0	259.7	4	94.3	4	-1E+10	1	-1E+10	1	-1E+10	1	-1E+10	1	-1E+10	1	-1E+10	1
4902643	30	C	04/17/2025	10:45	-133.583	43.314	0	9.50	0	10.6900	0	32.6070	0	24.967	0	9.424	0	259.7	4	94.3	4	-1E+10	1	-1E+10	1	-1E+10	1	-1E+10	1	-1E+10	1	-1E+10	1
4902643	30	C	04/17/2025	10:45	-133.583	43.314	0	14.80	0	10.6810	0	32.6080	0	24.970	0	14.682	0	259.2	4	94.2	4	-1E+10	1	-1E+10	1	-1E+10	1	-1E+10	1	-1E+10	1	-1E+10	1
4902643	30	C	04/17/2025	10:45	-133.583	43.314	0	24.80	0	10.5240	0	32.6080	0	24.997	0	24.601	0	258.9	4	93.7	4	-1E+10	1	-1E+10	1	-1E+10	1	-1E+10	1	-1E+10	1	-1E+10	1
4902643	30	C	04/17/2025	10:45	-133.583	43.314	0	34.60	0	10.3290	0	32.6050	0	25.028	0	34.322	0	259.2	4	93.4	4	-1E+10	1	-1E+10	1	-1E+10	1	-1E+10	1	-1E+10	1	-1E+10	1
4902643	30	C	04/17/2025	10:45	-133.583	43.314	0	44.70	0	10.2680	0	32.6050	0	25.039	0	44.339	0	258.6	4	93.1	4	-1E+10	1	-1E+10	1	-1E+10	1	-1E+10	1	-1E+10	1	-1E+10	1
4902643	30	C	04/17/2025	10:45	-133.583	43.314	0	54.80	0	10.2530	0	32.6050	0	25.041	0	54.356	0	257.5	4	92.7	4	-1E+10	1	-1E+10	1	-1E+10	1	-1E+10	1	-1E+10	1	-1E+10	1
4902643	30	C	04/17/2025	10:45	-133.583	43.314	0	64.70	0	10.2440	0	32.6090	0	25.046	0	64.175	0	256.2	4	92.2	4	-1E+10	1	-1E+10	1	-1E+10	1	-1E+10	1	-1E+10	1	-1E+10	1
4902643	30	C	04/17/2025	10:45	-133.583	43.314	0	75.50	0	10.1740	0	32.6090	0	25.058	0	74.885	0	253.9	4	91.2	4	-1E+10	1	-1E+10	1	-1E+10	1	-1E+10	1	-1E+10	1	-1E+10	1
4902643	30	C	04/17/2025	10:45	-133.583	43.314	0	85.00	0	10.1170	0	32.6170	0	25.074	0	84.306	0	252.0	4	90.4	4	-1E+10	1	-1E+10	1	-1E+10	1	-1E+10	1	-1E+10	1	-1E+10	1
4902643	30	C	04/17/2025	10:45	-133.583	43.314	0	94.70	0	10.1280	0	32.6410	0	25.091	0	93.924	0	247.0	4	88.7	4	-1E+10	1	-1E+10	1	-1E+10	1	-1E+10	1	-1E+10	1	-1E+10	1
4902643	30	C	04/17/2025	10:45	-133.583	43.314	0	104.90	0	10.1250	0	32.7190	0	25.153	0	104.038	0	236.2	4	84.9	4	-1E+10	1	-1E+10	1	-1E+10	1	-1E+10	1	-1E+10	1	-1E+10	1
4902643	30	C	04/17/2025	10:45	-133.583	43.314	0	115.70	0	9.5780	0	33.0570	0	25.507	0	114.746	0	217.4	4	77.4	4	-1E+10	1	-1E+10	1	-1E+10	1	-1E+10	1	-1E+10	1	-1E+10	1
4902643	30	C	04/17/2025	10:45	-133.583	43.314	0	124.80	0	9.3080	0	33.2970	0	25.738	0	123.769	0	204.7	4	72.5	4	-1E+10	1	-1E+10	1	-1E+10	1	-1E+10	1	-1E+10	1	-1E+10	1
4902643	30	C	04/17/2025	10:45	-133.583	43.314	0	134.90	0	9.0320	0	33.4740	0	25.921	0	133.782	0	198.8	4	70.1	4	-1E+10	1	-1E+10	1	-1E+10	1	-1E+10	1	-1E+10	1	-1E+10	1
4902643	30	C	04/17/2025	10:45	-133.583	43.314	0	145.00	0	8.8550	0	33.5740	0	26.027	0	143.795	0	197.3	4	69.4	4	-1E+10	1	-1E+10	1	-1E+10	1	-1E+10	1	-1E+10	1	-1E+10	1
4902643	30	C	04/17/2025	10:45	-133.583	43.314	0	155.20	0	8.6800	0	33.6640	0	26.125	0	153.906	0	195.8	4	68.6	4	-1E+10	1	-1E+10	1	-1E+10	1	-1E+10	1	-1E+10	1	-1E+10	1
4902643	30	C	04/17/2025	10:45	-133.583	43.314	0	165.30	0	8.4600	0	33.7340	0	26.214	0	163.918	0	192.9	4	67.3	4	-1E+10	1	-1E+10	1	-1E+10	1	-1E+10	1	-1E+10	1	-1E+10	1
4902643	30	C	04/17/2025	10:45	-133.583	43.314	0	175.20	0	8.1760	0	33.7720	0	26.286	0	173.731	0	190.8	4	66.2	4	-1E+10	1	-1E+10	1	-1E+10	1	-1E+10	1	-1E+10	1	-1E+10	1
4902643	30	C	04/17/2025	10:45	-133.583	43.314	0	184.90	0	7.8990	0	33.7840	0	26.337	0	183.345	0	188.3	4	64.9	4	-1E+10	1	-1E+10	1	-1E+10	1	-1E+10	1	-1E+10	1	-1E+10	1
4902643	30	C	04/17/2025	10:45	-133.583	43.314	0	194.70	0	7.7430	0	33.8020	0	26.374	0	193.059	0	185.4	4	63.7	4	-1E+10	1	-1E+10	1	-1E+10	1	-1E+10	1	-1E+10	1	-1E+10	1
4902643	30	C	04/17/2025	10:45	-133.583	43.314	0	209.90	0	7.5070	0	33.8180	0	26.420	0	208.123	0	181.2	4	61.9	4	-1E+10	1	-1E+10	1	-1E+10	1	-1E+10	1	-1E+10	1	-1E+10	1
4902643	30	C	04/17/2025	10:45	-133.583	43.314	0	229.70	0	7.2160	0	33.8330	0	26.473	0	227.744	0	174.2	4	59.1	4	-1E+10	1	-1E+10	1	-1E+10	1	-1E+10	1	-1E+10	1	-1E+10	1
4902643	30	C	04/17/2025	10:45	-133.583	43.314	0	249.70	0	7.0110	0	33.8350	0	26.503	0	247.562	0	167.4	4	56.6	4	-1E+10	1	-1E+10	1	-1E+10	1	-1E+10	1	-1E+10	1	-1E+10	1
4902643	30	C	04/17/2025	10:45	-133.583	43.314	0	269.90	0	6.7410	0	33.8380	0	26.542	0	267.576	0	156.4	4	52.5	4	-1E+10	1	-1E+10	1	-1E+10	1	-1E+10	1	-1E+10	1	-1E+10	1
4902643	30	C	04/17/2025	10:45	-133.583	43.314	0	290.00	0	6.4310	0	33.8370	0	26.582	0	287.489	0	141.1	4	47.1	4	-1E+10	1	-1E+10	1	-1E+10	1	-1E+10	1	-1E+10	1	-1E+10	1
4902643	30	C	04/17/2025	10:45	-133.583	43.314	0	309.80	0	6.1430	0	33.8470	0	26.627	0	307.103	0	122.1	4	40.5	4	-1E+10	1	-1E+10	1	-1E+10	1	-1E+10	1	-1E+10	1	-1E+10	1
4902643	30	C	04/17/2025	10:45	-133.583	43.314	0	329.80	0	5.8710	0	33.8570	0	26.669	0	326.913	0	110.4	4	36.3	4	-1E+10	1	-1E+10	1	-1E+10	1	-1E+10	1	-1E+10	1	-1E+10	1
4902643	30	C	04/17/2025	10:45	-133.583	43.314	0	349.70	0	5.6430	0	33.8610	0	26.700	0	346.622	0	102.2	4	33.5	4	-1E+10	1	-1E+10	1	-1E+10	1	-1E+10	1	-1E+10	1	-1E+10	1
4902643	30	C	04/17/2025	10:45	-133.583	43.314	0	369.40	0	5.3950	0	33.8690	0	26.736	0	366.131	0	91.2	4	29.7	4	-1E+10	1	-1E+10	1	-1E+10	1	-1E+10	1	-1E+10	1	-1E+10	1
4902643	30	C	04/17/2025	10:45	-133.583	43.314	0	388.80	0	5.1770	0	33.8910	0	26.779	0	385.342	0	81.7	4	26.5	4	-1E+10	1	-1E+10	1	-1E+10	1	-1E+10	1	-1E+10	1	-1E+10	1
4902643	30	C	04/17/2025	10:45	-133.583	43.314	0	409.40	0	5.0010	0	33.9130	0	26.817	0	405.738	0	74.0	4	23.9	4	-1E+10	1	-1E+10	1	-1E+10	1	-1E+10	1	-1E+10	1	-1E+10	1
4902643	30	C	04/17/2025	10:45	-133.583	43.314	0	429.60	0	4.8500	0	33.9300	0	26.848	0	425.737	0	67.9	4	21.8	4	-1E+10	1	-1E+10	1	-1E+10	1	-1E+10	1	-1E+10	1	-1E+10	1
4902643	30	C	04/17/2025	10:45	-133.583	43.314	0	450.00	0	4.6810	0	33.9480	0	26.881	0	445.931	0	61.3	4	19.7	4	-1E+10	1	-1E+10	1	-1E+10	1	-1E+10	1	-1E+10	1	-1E+10	1
4902643	30	C	04/17/2025	10:45	-133.583	43.314	0	470.80	0	4.5540	0	33.9640	0	26.908	0	466.520	0	55.4	4	17.7	4	-1E+10	1	-1E+10	1	-1E+10	1	-1E+10	1	-1E+10	1	-1E+10	1
4902643	30	C	04/17/2025	10:45	-133.583	43.314	0	489.90	0	4.4760	0	33.9830	0	26.931	0	485.424	0	50.6	4	16.1	4	-1E+10	1	-1E+10	1	-1E+10	1	-1E+10	1	-1E+10	1	-1E+10	1
4902643	30	C	04/17/2025	10:45	-133.583	43.314	0	509.90	0	4.4140	0	34.0030	0	26.954	0	505.217	0	45.0	4	14.3	4	-1E+10	1	-1E+10	1	-1E+10	1	-1E+10	1	-1E+10	1	-1E+10	1
4902643	30	C	04/17/2025	10:45	-133.583	43.314	0	530.00	0	4.3590	0	34.0290	0	26.981	0	525.107	0	38.9	4	12.4	4	-1E+10	1	-1E+10	1	-1E+10	1	-1E+10	1	-1E+10	1	-1E+10	1
4902643	30	C	04/17/2025	10:45	-133.583	43.314	0	549.60	0	4.3350	0	34.0540	0	27.003	0	544.500	0	33.0	4	10.5	4	-1E+10	1	-1E+10	1	-1E+10	1	-1E+10	1	-1E+10	1	-1E+10	1
4902643	30	C	04/17/2025	10:45	-133.583	43.314	0	569.70	0	4.3380	0	34.0810	0	27.024	0	564.387	0	28.6	4	9.1	4	-1E+10	1	-1E+10	1	-1E+10	1	-1E+10	1	-1E+10	1	-1E+10	1
4902643	30	C	04/17/2025	10:45	-133.583	43.314	0	590.10	0	4.2770	0	34.0980	0	27.044	0	584.568	0	26.0	4	8.2	4	-1E+10	1	-1E+10	1	-1E+10	1	-1E+10	1	-1E+10	1	-1E+10	1
4902643	30	C	04/17/2025	10:45	-133.583	43.314	0	610.00	0	4.1970	0	34.1060	0	27.059	0	604.252	0	24.9	4	7.9	4	-1E+10	1	-1E+10	1	-1E+10	1	-1E+10	1	-1E+10	1	-1E+10	1
4902643	30	C	04/17/2025	10:45	-133.583	43.314	0	630.00	0	4.1140	0	34.1180	0	27.078	0	624.034	0	22.4	4	7.1	4	-1E+10	1	-1E+10	1	-1E+10	1	-1E+10	1	-1E+10	1	-1E+10	1
4902643	30	C	04/17/2025	10:45	-133.583	43.314	0	649.60	0	4.0510	0	34.1440	0	27.105	0	643.418	0	18.6	4	5.9	4	-1E+10	1	-1E+10	1	-1E+10	1	-1E+10	1	-1E+10	1	-1E+10	1
4902643	30	C	04/17/2025	10:45	-133.583	43.314	0	669.40	0	4.0380	0	34.1660	0	27.124	0	662.998	0	16.1	4	5.1	4	-1E+10	1	-1E+10	1	-1E+10	1	-1E+10	1	-1E+10	1	-1E+10	1
4902643	30	C	04/17/2025	10:45	-133.583	43.314	0	690.20	0	3.9630	0	34.1790	0	27.142	0	683.565	0	15.1	4	4.8	4	-1E+10	1	-1E+10	1	-1E+10	1	-1E+10	1	-1E+10	1	-1E+10	1
4902643	30	C	04/17/2025	10:45	-133.583	43.314	0	709.20	0	3.8830	0	34.1910	0	27.160	0	702.351	0	13.3	4	4.2	4	-1E+10	1	-1E+10	1	-1E+10	1	-1E+10	1	-1E+10	1	-1E+10	1
4902643	30	C	04/17/2025	10:45	-133.583	43.314	0	729.60	0	3.8610	0	34.2210	0	27.186	0	722.518	0	10.7	4	3.4	4	-1E+10	1	-1E+10	1	-1E+10	1	-1E+10	1	-1E+10	1	-1E+10	1
4902643	30	C	04/17/2025	10:45	-133.583	43.314	0	749.40	0	3.8250	0	34.2370	0	27.203	0	742.091	0	9.7	4	3.1	4	-1E+10	1	-1E+10	1	-1E+10	1	-1E+10	1	-1E+10	1	-1E+10	1
4902643	30	C	04/17/2025	10:45	-133.583	43.314	0	769.60	0	3.7910	0	34.2520	0	27.218	0	762.057	0	8.8	4	2.8	4	-1E+10	1	-1E+10	1	-1E+10	1	-1E+10	1	-1E+10	1	-1E+10	1
4902643	30	C	04/17/2025	10:45	-133.583	43.314	0	789.90	0	3.7560	0	34.2670	0	27.234	0	782.120	0	8.1	4	2.5	4	-1E+10	1	-1E+10	1	-1E+10	1	-1E+10	1	-1E+10	1	-1E+10	1
4902643	30	C	04/17/2025	10:45	-133.583	43.314	0	809.90	0	3.7160	0	34.2820	0	27.250	0	801.885	0	7.5	4	2.4	4	-1E+10	1	-1E+10	1	-1E+10	1	-1E+10	1	-1E+10	1	-1E+10	1
4902643	30	C	04/17/2025	10:45	-133.583	43.314	0	829.70	0	3.6870	0	34.2920	0	27.261	0	821.450	0	7.3	4	2.3	4	-1E+10	1	-1E+10	1	-1E+10	1	-1E+10	1	-1E+10	1	-1E+10	1
4902643	30	C	04/17/2025	10:45	-133.583	43.314	0	849.60	0	3.6480	0	34.3030	0	27.273	0	841.112	0	7.0	4	2.2	4	-1E+10	1	-1E+10	1	-1E+10	1	-1E+10	1	-1E+10	1	-1E+10	1
4902643	30	C	04/17/2025	10:45	-133.583	43.314	0	869.70	0	3.6140	0	34.3110	0	27.283	0	860.970	0	6.9	4	2.2	4	-1E+10	1	-1E+10	1	-1E+10	1	-1E+10	1	-1E+10	1	-1E+10	1
4902643	30	C	04/17/2025	10:45	-133.583	43.314	0	890.20	0	3.5680	0	34.3240	0	27.298	0	881.221	0	6.7	4	2.1	4	-1E+10	1	-1E+10	1	-1E+10	1	-1E+10	1	-1E+10	1	-1E+10	1
4902643	30	C	04/17/2025	10:45	-133.583	43.314	0	909.50	0	3.5470	0	34.3380	0	27.311	0	900.284	0	6.6	4	2.1	4	-1E+10	1	-1E+10	1	-1E+10	1	-1E+10	1	-1E+10	1	-1E+10	1
4902643	30	C	04/17/2025	10:45	-133.583	43.314	0	929.40	0	3.5240	0	34.3500	0	27.323	0	919.939	0	6.7	4	2.1	4	-1E+10	1	-1E+10	1	-1E+10	1	-1E+10	1	-1E+10	1	-1E+10	1
4902643	30	C	04/17/2025	10:45	-133.583	43.314	0	949.50	0	3.4980	0	34.3600	0	27.334	0	939.789	0	6.8	4	2.1	4	-1E+10	1	-1E+10	1	-1E+10	1	-1E+10	1	-1E+10	1	-1E+10	1
4902643	30	C	04/17/2025	10:45	-133.583	43.314	0	969.60	0	3.4640	0	34.3700	0	27.345	0	959.638	0	7.0	4	2.2	4	-1E+10	1	-1E+10	1	-1E+10	1	-1E+10	1	-1E+10	1	-1E+10	1
4902643	30	C	04/17/2025	10:45	-133.583	43.314	0	989.60	0	3.4090	0	34.3850	0	27.363	0	979.386	0	7.3	4	2.3	4	-1E+10	1	-1E+10	1	-1E+10	1	-1E+10	1	-1E+10	1	-1E+10	1
4902643	30	C	04/17/2025	10:45	-133.583	43.314	0	1009.60	0	3.3710	0	34.3940	0	27.374	0	999.132	0	7.6	4	2.4	4	-1E+10	1	-1E+10	1	-1E+10	1	-1E+10	1	-1E+10	1	-1E+10	1
4902643	30	C	04/17/2025	10:45	-133.583	43.314	0	1030.30	0	3.3460	0	34.4010	0	27.382	0	1019.567	0	7.9	4	2.4	4	-1E+10	1	-1E+10	1	-1E+10	1	-1E+10	1	-1E+10	1	-1E+10	1
4902643	30	C	04/17/2025	10:45	-133.583	43.314	0	1049.60	0	3.3120	0	34.4070	0	27.390	0	1038.618	0	8.2	4	2.6	4	-1E+10	1	-1E+10	1	-1E+10	1	-1E+10	1	-1E+10	1	-1E+10	1
4902643	30	C	04/17/2025	10:45	-133.583	43.314	0	1069.80	0	3.2730	0	34.4130	0	27.398	0	1058.555	0	8.6	4	2.7	4	-1E+10	1	-1E+10	1	-1E+10	1	-1E+10	1	-1E+10	1	-1E+10	1
4902643	30	C	04/17/2025	10:45	-133.583	43.314	0	1090.00	0	3.2500	0	34.4190	0	27.405	0	1078.491	0	8.9	4	2.8	4	-1E+10	1	-1E+10	1	-1E+10	1	-1E+10	1	-1E+10	1	-1E+10	1
4902643	30	C	04/17/2025	10:45	-133.583	43.314	0	1109.90	0	3.2260	0	34.4240	0	27.412	0	1098.129	0	9.3	4	2.9	4	-1E+10	1	-1E+10	1	-1E+10	1	-1E+10	1	-1E+10	1	-1E+10	1
4902643	30	C	04/17/2025	10:45	-133.583	43.314	0	1129.50	0	3.1880	0	34.4300	0	27.420	0	1117.469	0	9.8	4	3.1	4	-1E+10	1	-1E+10	1	-1E+10	1	-1E+10	1	-1E+10	1	-1E+10	1
4902643	30	C	04/17/2025	10:45	-133.583	43.314	0	1149.70	0	3.1500	0	34.4370	0	27.429	0	1137.399	0	10.4	4	3.2	4	-1E+10	1	-1E+10	1	-1E+10	1	-1E+10	1	-1E+10	1	-1E+10	1
4902643	30	C	04/17/2025	10:45	-133.583	43.314	0	1169.90	0	3.1030	0	34.4450	0	27.440	0	1157.328	0	11.2	4	3.5	4	-1E+10	1	-1E+10	1	-1E+10	1	-1E+10	1	-1E+10	1	-1E+10	1
4902643	30	C	04/17/2025	10:45	-133.583	43.314	0	1189.90	0	3.0580	0	34.4520	0	27.450	0	1177.057	0	11.9	4	3.7	4	-1E+10	1	-1E+10	1	-1E+10	1	-1E+10	1	-1E+10	1	-1E+10	1
4902643	30	C	04/17/2025	10:45	-133.583	43.314	0	1209.90	0	3.0150	0	34.4580	0	27.459	0	1196.784	0	12.6	4	3.9	4	-1E+10	1	-1E+10	1	-1E+10	1	-1E+10	1	-1E+10	1	-1E+10	1
4902643	30	C	04/17/2025	10:45	-133.583	43.314	0	1229.60	0	2.9790	0	34.4630	0	27.466	0	1216.213	0	13.3	4	4.1	4	-1E+10	1	-1E+10	1	-1E+10	1	-1E+10	1	-1E+10	1	-1E+10	1
4902643	30	C	04/17/2025	10:45	-133.583	43.314	0	1249.80	0	2.9350	0	34.4690	0	27.475	0	1236.134	0	14.0	4	4.3	4	-1E+10	1	-1E+10	1	-1E+10	1	-1E+10	1	-1E+10	1	-1E+10	1
4902643	30	C	04/17/2025	10:45	-133.583	43.314	0	1269.90	0	2.8900	0	34.4750	0	27.484	0	1255.955	0	14.8	4	4.5	4	-1E+10	1	-1E+10	1	-1E+10	1	-1E+10	1	-1E+10	1	-1E+10	1
4902643	30	C	04/17/2025	10:45	-133.583	43.314	0	1289.60	0	2.8570	0	34.4790	0	27.490	0	1275.378	0	15.5	4	4.8	4	-1E+10	1	-1E+10	1	-1E+10	1	-1E+10	1	-1E+10	1	-1E+10	1
4902643	30	C	04/17/2025	10:45	-133.583	43.314	0	1310.60	0	2.8160	0	34.4840	0	27.498	0	1296.082	0	16.5	4	5.1	4	-1E+10	1	-1E+10	1	-1E+10	1	-1E+10	1	-1E+10	1	-1E+10	1
4902643	30	C	04/17/2025	10:45	-133.583	43.314	0	1329.80	0	2.7800	0	34.4890	0	27.505	0	1315.010	0	17.5	4	5.4	4	-1E+10	1	-1E+10	1	-1E+10	1	-1E+10	1	-1E+10	1	-1E+10	1
4902643	30	C	04/17/2025	10:45	-133.583	43.314	0	1349.40	0	2.7490	0	34.4930	0	27.511	0	1334.330	0	18.4	4	5.6	4	-1E+10	1	-1E+10	1	-1E+10	1	-1E+10	1	-1E+10	1	-1E+10	1
4902643	30	C	04/17/2025	10:45	-133.583	43.314	0	1369.40	0	2.7130	0	34.4980	0	27.518	0	1354.042	0	19.5	4	6.0	4	-1E+10	1	-1E+10	1	-1E+10	1	-1E+10	1	-1E+10	1	-1E+10	1
4902643	30	C	04/17/2025	10:45	-133.583	43.314	0	1389.00	0	2.6810	0	34.5020	0	27.524	0	1373.359	0	20.3	4	6.2	4	-1E+10	1	-1E+10	1	-1E+10	1	-1E+10	1	-1E+10	1	-1E+10	1
4902643	30	C	04/17/2025	10:45	-133.583	43.314	0	1409.60	0	2.6460	0	34.5060	0	27.531	0	1393.659	0	21.5	4	6.6	4	-1E+10	1	-1E+10	1	-1E+10	1	-1E+10	1	-1E+10	1	-1E+10	1
4902643	30	C	04/17/2025	10:45	-133.583	43.314	0	1429.50	0	2.6010	0	34.5120	0	27.539	0	1413.267	0	22.8	4	7.0	4	-1E+10	1	-1E+10	1	-1E+10	1	-1E+10	1	-1E+10	1	-1E+10	1
4902643	30	C	04/17/2025	10:45	-133.583	43.314	0	1449.40	0	2.5650	0	34.5160	0	27.546	0	1432.874	0	23.8	4	7.3	4	-1E+10	1	-1E+10	1	-1E+10	1	-1E+10	1	-1E+10	1	-1E+10	1
4902643	30	C	04/17/2025	10:45	-133.583	43.314	0	1469.40	0	2.5310	0	34.5200	0	27.552	0	1452.577	0	25.0	4	7.6	4	-1E+10	1	-1E+10	1	-1E+10	1	-1E+10	1	-1E+10	1	-1E+10	1
4902643	30	C	04/17/2025	10:45	-133.583	43.314	0	1490.60	0	2.4920	0	34.5240	0	27.559	0	1473.460	0	26.5	4	8.1	4	-1E+10	1	-1E+10	1	-1E+10	1	-1E+10	1	-1E+10	1	-1E+10	1
4902643	30	C	04/17/2025	10:45	-133.583	43.314	0	1510.00	0	2.4560	0	34.5280	0	27.565	0	1492.569	0	27.7	4	8.4	4	-1E+10	1	-1E+10	1	-1E+10	1	-1E+10	1	-1E+10	1	-1E+10	1
4902643	30	C	04/17/2025	10:45	-133.583	43.314	0	1529.70	0	2.4240	0	34.5330	0	27.572	0	1511.971	0	28.8	4	8.8	4	-1E+10	1	-1E+10	1	-1E+10	1	-1E+10	1	-1E+10	1	-1E+10	1
4902643	30	C	04/17/2025	10:45	-133.583	43.314	0	1549.70	0	2.3950	0	34.5360	0	27.577	0	1531.667	0	29.9	4	9.1	4	-1E+10	1	-1E+10	1	-1E+10	1	-1E+10	1	-1E+10	1	-1E+10	1
4902643	30	C	04/17/2025	10:45	-133.583	43.314	0	1569.70	0	2.3640	0	34.5390	0	27.582	0	1551.361	0	31.1	4	9.5	4	-1E+10	1	-1E+10	1	-1E+10	1	-1E+10	1	-1E+10	1	-1E+10	1
4902643	30	C	04/17/2025	10:45	-133.583	43.314	0	1589.50	0	2.3410	0	34.5430	0	27.587	0	1570.856	0	32.1	4	9.8	4	-1E+10	1	-1E+10	1	-1E+10	1	-1E+10	1	-1E+10	1	-1E+10	1
4902643	30	C	04/17/2025	10:45	-133.583	43.314	0	1609.50	0	2.3150	0	34.5460	0	27.591	0	1590.546	0	33.5	4	10.2	4	-1E+10	1	-1E+10	1	-1E+10	1	-1E+10	1	-1E+10	1	-1E+10	1
4902643	30	C	04/17/2025	10:45	-133.583	43.314	0	1629.70	0	2.2830	0	34.5500	0	27.597	0	1610.431	0	35.0	4	10.6	4	-1E+10	1	-1E+10	1	-1E+10	1	-1E+10	1	-1E+10	1	-1E+10	1
4902643	30	C	04/17/2025	10:45	-133.583	43.314	0	1649.10	0	2.2570	0	34.5530	0	27.602	0	1629.528	0	36.1	4	11.0	4	-1E+10	1	-1E+10	1	-1E+10	1	-1E+10	1	-1E+10	1	-1E+10	1
4902643	30	C	04/17/2025	10:45	-133.583	43.314	0	1669.60	0	2.2290	0	34.5570	0	27.607	0	1649.704	0	37.5	4	11.4	4	-1E+10	1	-1E+10	1	-1E+10	1	-1E+10	1	-1E+10	1	-1E+10	1
4902643	30	C	04/17/2025	10:45	-133.583	43.314	0	1689.60	0	2.2020	0	34.5610	0	27.613	0	1669.387	0	38.8	4	11.8	4	-1E+10	1	-1E+10	1	-1E+10	1	-1E+10	1	-1E+10	1	-1E+10	1
4902643	30	C	04/17/2025	10:45	-133.583	43.314	0	1709.70	0	2.1850	0	34.5630	0	27.616	0	1689.167	0	39.7	4	12.0	4	-1E+10	1	-1E+10	1	-1E+10	1	-1E+10	1	-1E+10	1	-1E+10	1
4902643	30	C	04/17/2025	10:45	-133.583	43.314	0	1729.90	0	2.1700	0	34.5650	0	27.619	0	1709.043	0	41.0	4	12.4	4	-1E+10	1	-1E+10	1	-1E+10	1	-1E+10	1	-1E+10	1	-1E+10	1
4902643	30	C	04/17/2025	10:45	-133.583	43.314	0	1750.10	0	2.1430	0	34.5690	0	27.624	0	1728.917	0	42.6	4	12.9	4	-1E+10	1	-1E+10	1	-1E+10	1	-1E+10	1	-1E+10	1	-1E+10	1
4902643	30	C	04/17/2025	10:45	-133.583	43.314	0	1769.70	0	2.1200	0	34.5720	0	27.629	0	1748.199	0	44.2	4	13.4	4	-1E+10	1	-1E+10	1	-1E+10	1	-1E+10	1	-1E+10	1	-1E+10	1
4902643	30	C	04/17/2025	10:45	-133.583	43.314	0	1789.30	0	2.1020	0	34.5750	0	27.633	0	1767.480	0	45.1	4	13.6	4	-1E+10	1	-1E+10	1	-1E+10	1	-1E+10	1	-1E+10	1	-1E+10	1
4902643	30	C	04/17/2025	10:45	-133.583	43.314	0	1809.50	0	2.0930	0	34.5770	0	27.635	0	1787.348	0	46.2	4	14.0	4	-1E+10	1	-1E+10	1	-1E+10	1	-1E+10	1	-1E+10	1	-1E+10	1
4902643	30	C	04/17/2025	10:45	-133.583	43.314	0	1829.40	0	2.0740	0	34.5790	0	27.638	0	1806.920	0	47.4	4	14.3	4	-1E+10	1	-1E+10	1	-1E+10	1	-1E+10	1	-1E+10	1	-1E+10	1
4902643	30	C	04/17/2025	10:45	-133.583	43.314	0	1849.50	0	2.0570	0	34.5820	0	27.642	0	1826.687	0	48.6	4	14.7	4	-1E+10	1	-1E+10	1	-1E+10	1	-1E+10	1	-1E+10	1	-1E+10	1
4902643	30	C	04/17/2025	10:45	-133.583	43.314	0	1870.30	0	2.0380	0	34.5840	0	27.645	0	1847.140	0	49.8	4	15.0	4	-1E+10	1	-1E+10	1	-1E+10	1	-1E+10	1	-1E+10	1	-1E+10	1
4902643	30	C	04/17/2025	10:45	-133.583	43.314	0	1889.80	0	2.0110	0	34.5870	0	27.650	0	1866.313	0	51.2	4	15.4	4	-1E+10	1	-1E+10	1	-1E+10	1	-1E+10	1	-1E+10	1	-1E+10	1
4902643	30	C	04/17/2025	10:45	-133.583	43.314	0	1909.90	0	1.9920	0	34.5900	0	27.654	0	1886.074	0	52.7	4	15.9	4	-1E+10	1	-1E+10	1	-1E+10	1	-1E+10	1	-1E+10	1	-1E+10	1
4902643	30	C	04/17/2025	10:45	-133.583	43.314	0	1930.10	0	1.9760	0	34.5930	0	27.658	0	1905.932	0	54.1	4	16.3	4	-1E+10	1	-1E+10	1	-1E+10	1	-1E+10	1	-1E+10	1	-1E+10	1
4902643	30	C	04/17/2025	10:45	-133.583	43.314	0	1949.90	0	1.9590	0	34.5960	0	27.661	0	1925.395	0	55.4	4	16.7	4	-1E+10	1	-1E+10	1	-1E+10	1	-1E+10	1	-1E+10	1	-1E+10	1
4902643	30	C	04/17/2025	10:45	-133.583	43.314	0	1969.80	0	1.9380	0	34.5990	0	27.666	0	1944.954	0	56.7	4	17.1	4	-1E+10	1	-1E+10	1	-1E+10	1	-1E+10	1	-1E+10	1	-1E+10	1
4902643	30	C	04/17/2025	10:45	-133.583	43.314	0	1989.70	0	1.9230	0	34.6000	0	27.668	0	1964.511	0	57.6	4	17.3	4	-1E+10	1	-1E+10	1	-1E+10	1	-1E+10	1	-1E+10	1	-1E+10	1
4902643	30	C	04/17/2025	10:45	-133.583	43.314	0	2008.90	0	1.9130	0	34.6020	4	27.670	0	1983.379	0	58.2	4	17.5	4	-1E+10	1	-1E+10	1	-1E+10	1	-1E+10	1	-1E+10	1	-1E+10	1
4902643	30	C	04/17/2025	10:45	-133.583	43.314	0	2029.40	0	1.9050	0	34.6030	4	27.672	0	2003.522	0	58.9	4	17.7	4	-1E+10	1	-1E+10	1	-1E+10	1	-1E+10	1	-1E+10	1	-1E+10	1
4902643	30	C	04/17/2025	10:45	-133.583	43.314	0	2049.70	0	1.8960	0	34.6050	4	27.674	0	2023.467	0	59.7	4	18.0	4	-1E+10	1	-1E+10	1	-1E+10	1	-1E+10	1	-1E+10	1	-1E+10	1
4902643	30	C	04/17/2025	10:45	-133.583	43.314	0	2070.00	0	1.8890	0	34.6060	4	27.676	0	2043.410	0	60.4	4	18.2	4	-1E+10	1	-1E+10	1	-1E+10	1	-1E+10	1	-1E+10	1	-1E+10	1
4902643	30	C	04/17/2025	10:45	-133.583	43.314	0	2089.90	0	1.8800	0	34.6070	4	27.677	0	2062.958	0	61.2	4	18.4	4	-1E+10	1	-1E+10	1	-1E+10	1	-1E+10	1	-1E+10	1	-1E+10	1
4902643	30	C	04/17/2025	10:45	-133.583	43.314	0	2109.60	0	1.8700	0	34.6090	4	27.680	0	2082.308	0	62.1	4	18.7	4	-1E+10	1	-1E+10	1	-1E+10	1	-1E+10	1	-1E+10	1	-1E+10	1
4902643	30	C	04/17/2025	10:45	-133.583	43.314	0	2129.70	0	1.8590	0	34.6110	4	27.682	0	2102.049	0	63.1	4	19.0	4	-1E+10	1	-1E+10	1	-1E+10	1	-1E+10	1	-1E+10	1	-1E+10	1
4902643	30	C	04/17/2025	10:45	-133.583	43.314	0	2149.80	0	1.8520	0	34.6120	4	27.684	0	2121.789	0	63.8	4	19.2	4	-1E+10	1	-1E+10	1	-1E+10	1	-1E+10	1	-1E+10	1	-1E+10	1
4902643	30	C	04/17/2025	10:45	-133.583	43.314	0	2170.00	0	1.8440	0	34.6130	4	27.685	0	2141.624	0	64.5	4	19.4	4	-1E+10	1	-1E+10	1	-1E+10	1	-1E+10	1	-1E+10	1	-1E+10	1
4902643	30	C	04/17/2025	10:45	-133.583	43.314	0	2190.10	0	1.8370	0	34.6150	4	27.687	0	2161.360	0	65.2	4	19.6	4	-1E+10	1	-1E+10	1	-1E+10	1	-1E+10	1	-1E+10	1	-1E+10	1
4902643	30	C	04/17/2025	10:45	-133.583	43.314	0	2210.30	0	1.8280	0	34.6160	4	27.689	0	2181.192	0	66.0	4	19.8	4	-1E+10	1	-1E+10	1	-1E+10	1	-1E+10	1	-1E+10	1	-1E+10	1
4902643	30	C	04/17/2025	10:45	-133.583	43.314	0	2229.70	0	1.8170	0	34.6170	4	27.691	0	2200.236	0	66.8	4	20.0	4	-1E+10	1	-1E+10	1	-1E+10	1	-1E+10	1	-1E+10	1	-1E+10	1
4902643	30	C	04/17/2025	10:45	-133.583	43.314	0	2250.00	0	1.8100	0	34.6180	4	27.692	0	2220.163	0	67.5	4	20.3	4	-1E+10	1	-1E+10	1	-1E+10	1	-1E+10	1	-1E+10	1	-1E+10	1
4902643	30	C	04/17/2025	10:45	-133.583	43.314	0	2270.00	0	1.8020	0	34.6190	4	27.694	0	2239.793	0	68.3	4	20.5	4	-1E+10	1	-1E+10	1	-1E+10	1	-1E+10	1	-1E+10	1	-1E+10	1
4902643	30	C	04/17/2025	10:45	-133.583	43.314	0	2289.80	0	1.7930	0	34.6210	4	27.696	0	2259.225	0	69.0	4	20.7	4	-1E+10	1	-1E+10	1	-1E+10	1	-1E+10	1	-1E+10	1	-1E+10	1
4902643	30	C	04/17/2025	10:45	-133.583	43.314	0	2309.50	0	1.7880	0	34.6220	4	27.697	0	2278.558	0	69.5	4	20.9	4	-1E+10	1	-1E+10	1	-1E+10	1	-1E+10	1	-1E+10	1	-1E+10	1
4902643	30	C	04/17/2025	10:45	-133.583	43.314	0	2330.40	0	1.7810	0	34.6230	4	27.699	0	2299.065	0	70.4	4	21.1	4	-1E+10	1	-1E+10	1	-1E+10	1	-1E+10	1	-1E+10	1	-1E+10	1
4902643	30	C	04/17/2025	10:45	-133.583	43.314	0	2349.60	0	1.7740	0	34.6240	4	27.700	0	2317.904	0	71.0	4	21.3	4	-1E+10	1	-1E+10	1	-1E+10	1	-1E+10	1	-1E+10	1	-1E+10	1
4902643	30	C	04/17/2025	10:45	-133.583	43.314	0	2369.50	0	1.7710	0	34.6240	4	27.701	0	2337.427	0	71.6	4	21.5	4	-1E+10	1	-1E+10	1	-1E+10	1	-1E+10	1	-1E+10	1	-1E+10	1
4902643	30	C	04/17/2025	10:45	-133.583	43.314	0	2390.30	0	1.7640	0	34.6250	4	27.702	0	2357.831	0	72.3	4	21.7	4	-1E+10	1	-1E+10	1	-1E+10	1	-1E+10	1	-1E+10	1	-1E+10	1
4902643	30	C	04/17/2025	10:45	-133.583	43.314	0	2410.20	0	1.7600	0	34.6260	4	27.703	0	2377.351	0	72.7	4	21.8	4	-1E+10	1	-1E+10	1	-1E+10	1	-1E+10	1	-1E+10	1	-1E+10	1
4902643	30	C	04/17/2025	10:45	-133.583	43.314	0	2430.30	0	1.7550	0	34.6270	4	27.705	0	2397.064	0	73.3	4	22.0	4	-1E+10	1	-1E+10	1	-1E+10	1	-1E+10	1	-1E+10	1	-1E+10	1
4902643	30	C	04/17/2025	10:45	-133.583	43.314	0	2449.80	0	1.7480	0	34.6280	4	27.706	0	2416.188	0	74.1	4	22.2	4	-1E+10	1	-1E+10	1	-1E+10	1	-1E+10	1	-1E+10	1	-1E+10	1
4902643	30	C	04/17/2025	10:45	-133.583	43.314	0	2469.80	0	1.7380	0	34.6290	4	27.708	0	2435.800	0	75.0	4	22.5	4	-1E+10	1	-1E+10	1	-1E+10	1	-1E+10	1	-1E+10	1	-1E+10	1
4902643	30	C	04/17/2025	10:45	-133.583	43.314	0	2490.10	0	1.7300	0	34.6300	4	27.709	0	2455.705	0	75.9	4	22.7	4	-1E+10	1	-1E+10	1	-1E+10	1	-1E+10	1	-1E+10	1	-1E+10	1
4902643	30	C	04/17/2025	10:45	-133.583	43.314	0	2510.30	0	1.7240	0	34.6310	4	27.711	0	2475.510	0	76.6	4	23.0	4	-1E+10	1	-1E+10	1	-1E+10	1	-1E+10	1	-1E+10	1	-1E+10	1
4902643	30	C	04/17/2025	10:45	-133.583	43.314	0	2530.70	0	1.7180	0	34.6320	4	27.712	0	2495.509	0	77.3	4	23.2	4	-1E+10	1	-1E+10	1	-1E+10	1	-1E+10	1	-1E+10	1	-1E+10	1
4902643	30	C	04/17/2025	10:45	-133.583	43.314	0	2549.80	0	1.7120	0	34.6330	4	27.713	0	2514.232	0	78.1	4	23.4	4	-1E+10	1	-1E+10	1	-1E+10	1	-1E+10	1	-1E+10	1	-1E+10	1
4902643	30	C	04/17/2025	10:45	-133.583	43.314	0	2569.80	0	1.7050	0	34.6340	4	27.715	0	2533.835	0	78.9	4	23.6	4	-1E+10	1	-1E+10	1	-1E+10	1	-1E+10	1	-1E+10	1	-1E+10	1
4902643	30	C	04/17/2025	10:45	-133.583	43.314	0	2590.20	0	1.6990	0	34.6350	4	27.716	0	2553.828	0	79.6	4	23.8	4	-1E+10	1	-1E+10	1	-1E+10	1	-1E+10	1	-1E+10	1	-1E+10	1
4902643	30	C	04/17/2025	10:45	-133.583	43.314	0	2610.10	0	1.6930	0	34.6360	4	27.717	0	2573.330	0	80.3	4	24.0	4	-1E+10	1	-1E+10	1	-1E+10	1	-1E+10	1	-1E+10	1	-1E+10	1
4902643	30	C	04/17/2025	10:45	-133.583	43.314	0	2630.10	0	1.6880	0	34.6370	4	27.719	0	2592.928	0	80.9	4	24.2	4	-1E+10	1	-1E+10	1	-1E+10	1	-1E+10	1	-1E+10	1	-1E+10	1
4902643	30	C	04/17/2025	10:45	-133.583	43.314	0	2649.90	0	1.6840	0	34.6370	4	27.719	0	2612.328	0	81.5	4	24.4	4	-1E+10	1	-1E+10	1	-1E+10	1	-1E+10	1	-1E+10	1	-1E+10	1
4902643	30	C	04/17/2025	10:45	-133.583	43.314	0	2669.80	0	1.6780	0	34.6380	4	27.721	0	2631.825	0	82.2	4	24.6	4	-1E+10	1	-1E+10	1	-1E+10	1	-1E+10	1	-1E+10	1	-1E+10	1
4902643	30	C	04/17/2025	10:45	-133.583	43.314	0	2690.70	0	1.6730	0	34.6390	4	27.722	0	2652.299	0	82.9	4	24.8	4	-1E+10	1	-1E+10	1	-1E+10	1	-1E+10	1	-1E+10	1	-1E+10	1
4902643	30	C	04/17/2025	10:45	-133.583	43.314	0	2709.90	0	1.6670	0	34.6400	4	27.723	0	2671.106	0	83.7	4	25.0	4	-1E+10	1	-1E+10	1	-1E+10	1	-1E+10	1	-1E+10	1	-1E+10	1
4902643	30	C	04/17/2025	10:45	-133.583	43.314	0	2729.90	0	1.6620	0	34.6410	4	27.724	0	2690.695	0	84.5	4	25.3	4	-1E+10	1	-1E+10	1	-1E+10	1	-1E+10	1	-1E+10	1	-1E+10	1
4902643	30	C	04/17/2025	10:45	-133.583	43.314	0	2750.00	0	1.6560	0	34.6420	4	27.726	0	2710.380	0	85.5	4	25.6	4	-1E+10	1	-1E+10	1	-1E+10	1	-1E+10	1	-1E+10	1	-1E+10	1
4902643	30	C	04/17/2025	10:45	-133.583	43.314	0	2770.00	0	1.6530	0	34.6430	4	27.727	0	2729.966	0	86.3	4	25.8	4	-1E+10	1	-1E+10	1	-1E+10	1	-1E+10	1	-1E+10	1	-1E+10	1
4902643	30	C	04/17/2025	10:45	-133.583	43.314	0	2789.90	0	1.6510	0	34.6430	4	27.727	0	2749.452	0	86.6	4	25.9	4	-1E+10	1	-1E+10	1	-1E+10	1	-1E+10	1	-1E+10	1	-1E+10	1
4902643	30	C	04/17/2025	10:45	-133.583	43.314	0	2809.80	0	1.6480	0	34.6440	4	27.728	0	2768.936	0	87.2	4	26.1	4	-1E+10	1	-1E+10	1	-1E+10	1	-1E+10	1	-1E+10	1	-1E+10	1
4902643	30	C	04/17/2025	10:45	-133.583	43.314	0	2829.90	0	1.6430	0	34.6450	4	27.730	0	2788.614	0	88.0	4	26.3	4	-1E+10	1	-1E+10	1	-1E+10	1	-1E+10	1	-1E+10	1	-1E+10	1
4902643	30	C	04/17/2025	10:45	-133.583	43.314	0	2849.60	0	1.6390	0	34.6450	4	27.730	0	2807.899	0	88.5	4	26.5	4	-1E+10	1	-1E+10	1	-1E+10	1	-1E+10	1	-1E+10	1	-1E+10	1
4902643	30	C	04/17/2025	10:45	-133.583	43.314	0	2869.80	0	1.6360	0	34.6460	4	27.731	0	2827.671	0	89.1	4	26.6	4	-1E+10	1	-1E+10	1	-1E+10	1	-1E+10	1	-1E+10	1	-1E+10	1
4902643	30	C	04/17/2025	10:45	-133.583	43.314	0	2889.80	0	1.6330	0	34.6460	4	27.732	0	2847.246	0	89.5	4	26.8	4	-1E+10	1	-1E+10	1	-1E+10	1	-1E+10	1	-1E+10	1	-1E+10	1
4902643	30	C	04/17/2025	10:45	-133.583	43.314	0	2909.80	0	1.6310	0	34.6470	4	27.733	0	2866.819	0	90.1	4	26.9	4	-1E+10	1	-1E+10	1	-1E+10	1	-1E+10	1	-1E+10	1	-1E+10	1
4902643	30	C	04/17/2025	10:45	-133.583	43.314	0	2930.00	0	1.6260	0	34.6480	4	27.734	0	2886.586	0	90.7	4	27.1	4	-1E+10	1	-1E+10	1	-1E+10	1	-1E+10	1	-1E+10	1	-1E+10	1
4902643	30	C	04/17/2025	10:45	-133.583	43.314	0	2950.10	0	1.6220	0	34.6480	4	27.734	0	2906.253	0	91.3	4	27.3	4	-1E+10	1	-1E+10	1	-1E+10	1	-1E+10	1	-1E+10	1	-1E+10	1
4902643	30	C	04/17/2025	10:45	-133.583	43.314	0	2970.70	0	1.6200	0	34.6490	4	27.735	0	2926.408	0	91.7	4	27.4	4	-1E+10	1	-1E+10	1	-1E+10	1	-1E+10	1	-1E+10	1	-1E+10	1
4902643	30	C	04/17/2025	10:45	-133.583	43.314	0	2990.20	0	1.6170	0	34.6490	4	27.736	0	2945.485	0	92.3	4	27.6	4	-1E+10	1	-1E+10	1	-1E+10	1	-1E+10	1	-1E+10	1	-1E+10	1
4902643	30	C	04/17/2025	10:45	-133.583	43.314	0	3010.20	0	1.6120	0	34.6500	4	27.737	0	2965.049	0	93.1	4	27.8	4	-1E+10	1	-1E+10	1	-1E+10	1	-1E+10	1	-1E+10	1	-1E+10	1
4902643	30	C	04/17/2025	10:45	-133.583	43.314	0	3030.20	0	1.6070	0	34.6510	4	27.738	0	2984.612	0	93.9	4	28.0	4	-1E+10	1	-1E+10	1	-1E+10	1	-1E+10	1	-1E+10	1	-1E+10	1
4902643	30	C	04/17/2025	10:45	-133.583	43.314	0	3050.20	0	1.6030	0	34.6520	4	27.740	0	3004.172	0	94.4	4	28.2	4	-1E+10	1	-1E+10	1	-1E+10	1	-1E+10	1	-1E+10	1	-1E+10	1
4902643	30	C	04/17/2025	10:45	-133.583	43.314	0	3070.00	0	1.5980	0	34.6520	4	27.740	0	3023.536	0	95.0	4	28.4	4	-1E+10	1	-1E+10	1	-1E+10	1	-1E+10	1	-1E+10	1	-1E+10	1
4902643	30	C	04/17/2025	10:45	-133.583	43.314	0	3090.00	0	1.5950	0	34.6530	4	27.741	0	3043.093	0	95.6	4	28.5	4	-1E+10	1	-1E+10	1	-1E+10	1	-1E+10	1	-1E+10	1	-1E+10	1
4902643	30	C	04/17/2025	10:45	-133.583	43.314	0	3110.20	0	1.5910	0	34.6530	4	27.742	0	3062.844	0	96.1	4	28.7	4	-1E+10	1	-1E+10	1	-1E+10	1	-1E+10	1	-1E+10	1	-1E+10	1
4902643	30	C	04/17/2025	10:45	-133.583	43.314	0	3130.30	0	1.5870	0	34.6540	4	27.743	0	3082.495	0	96.6	4	28.8	4	-1E+10	1	-1E+10	1	-1E+10	1	-1E+10	1	-1E+10	1	-1E+10	1
4902643	30	C	04/17/2025	10:45	-133.583	43.314	0	3150.60	0	1.5840	0	34.6540	4	27.743	0	3102.340	0	97.2	4	29.0	4	-1E+10	1	-1E+10	1	-1E+10	1	-1E+10	1	-1E+10	1	-1E+10	1
4902643	30	C	04/17/2025	10:45	-133.583	43.314	0	3170.00	0	1.5790	0	34.6550	4	27.745	0	3121.304	0	97.8	4	29.2	4	-1E+10	1	-1E+10	1	-1E+10	1	-1E+10	1	-1E+10	1	-1E+10	1
4902643	30	C	04/17/2025	10:45	-133.583	43.314	0	3190.10	0	1.5760	0	34.6560	4	27.746	0	3140.950	0	98.5	4	29.4	4	-1E+10	1	-1E+10	1	-1E+10	1	-1E+10	1	-1E+10	1	-1E+10	1
4902643	30	C	04/17/2025	10:45	-133.583	43.314	0	3210.10	0	1.5730	0	34.6560	4	27.746	0	3160.497	0	99.1	4	29.6	4	-1E+10	1	-1E+10	1	-1E+10	1	-1E+10	1	-1E+10	1	-1E+10	1
4902643	30	C	04/17/2025	10:45	-133.583	43.314	0	3229.70	0	1.5700	0	34.6570	4	27.747	0	3179.651	0	99.6	4	29.7	4	-1E+10	1	-1E+10	1	-1E+10	1	-1E+10	1	-1E+10	1	-1E+10	1
4902643	30	C	04/17/2025	10:45	-133.583	43.314	0	3249.70	0	1.5680	0	34.6570	4	27.747	0	3199.194	0	100.0	4	29.8	4	-1E+10	1	-1E+10	1	-1E+10	1	-1E+10	1	-1E+10	1	-1E+10	1
4902643	30	C	04/17/2025	10:45	-133.583	43.314	0	3269.80	0	1.5670	0	34.6580	4	27.748	0	3218.833	0	100.5	4	30.0	4	-1E+10	1	-1E+10	1	-1E+10	1	-1E+10	1	-1E+10	1	-1E+10	1
4902643	30	C	04/17/2025	10:45	-133.583	43.314	0	3289.90	0	1.5650	0	34.6580	4	27.749	0	3238.470	0	100.9	4	30.1	4	-1E+10	1	-1E+10	1	-1E+10	1	-1E+10	1	-1E+10	1	-1E+10	1
4902643	30	C	04/17/2025	10:45	-133.583	43.314	0	3310.40	0	1.5630	0	34.6590	4	27.750	0	3258.497	0	101.4	4	30.3	4	-1E+10	1	-1E+10	1	-1E+10	1	-1E+10	1	-1E+10	1	-1E+10	1
4902643	30	C	04/17/2025	10:45	-133.583	43.314	0	3329.80	0	1.5620	0	34.6590	4	27.750	0	3277.447	0	101.9	4	30.4	4	-1E+10	1	-1E+10	1	-1E+10	1	-1E+10	1	-1E+10	1	-1E+10	1
4902643	30	C	04/17/2025	10:45	-133.583	43.314	0	3349.80	0	1.5610	0	34.6600	4	27.751	0	3296.981	0	102.4	4	30.5	4	-1E+10	1	-1E+10	1	-1E+10	1	-1E+10	1	-1E+10	1	-1E+10	1
4902643	30	C	04/17/2025	10:45	-133.583	43.314	0	3369.70	0	1.5570	0	34.6600	4	27.751	0	3316.416	0	102.8	4	30.7	4	-1E+10	1	-1E+10	1	-1E+10	1	-1E+10	1	-1E+10	1	-1E+10	1
4902643	30	C	04/17/2025	10:45	-133.583	43.314	0	3389.70	0	1.5550	0	34.6610	4	27.753	0	3335.947	0	103.4	4	30.8	4	-1E+10	1	-1E+10	1	-1E+10	1	-1E+10	1	-1E+10	1	-1E+10	1
4902643	30	C	04/17/2025	10:45	-133.583	43.314	0	3410.40	0	1.5540	0	34.6610	4	27.753	0	3356.160	0	103.7	4	30.9	4	-1E+10	1	-1E+10	1	-1E+10	1	-1E+10	1	-1E+10	1	-1E+10	1
4902643	30	C	04/17/2025	10:45	-133.583	43.314	0	3430.00	0	1.5530	0	34.6620	4	27.754	0	3375.297	0	104.1	4	31.1	4	-1E+10	1	-1E+10	1	-1E+10	1	-1E+10	1	-1E+10	1	-1E+10	1
4902643	30	C	04/17/2025	10:45	-133.583	43.314	0	3449.70	0	1.5530	0	34.6620	4	27.754	0	3394.530	0	104.4	4	31.2	4	-1E+10	1	-1E+10	1	-1E+10	1	-1E+10	1	-1E+10	1	-1E+10	1
4902643	30	C	04/17/2025	10:45	-133.583	43.314	0	3469.80	0	1.5520	0	34.6630	4	27.755	0	3414.151	0	104.8	4	31.3	4	-1E+10	1	-1E+10	1	-1E+10	1	-1E+10	1	-1E+10	1	-1E+10	1
4902643	30	C	04/17/2025	10:45	-133.583	43.314	0	3490.00	0	1.5520	0	34.6630	4	27.755	0	3433.869	0	105.1	4	31.3	4	-1E+10	1	-1E+10	1	-1E+10	1	-1E+10	1	-1E+10	1	-1E+10	1
4902643	30	C	04/17/2025	10:45	-133.583	43.314	0	3509.80	0	1.5520	0	34.6640	4	27.756	0	3453.194	0	105.3	4	31.4	4	-1E+10	1	-1E+10	1	-1E+10	1	-1E+10	1	-1E+10	1	-1E+10	1
4902643	30	C	04/17/2025	10:45	-133.583	43.314	0	3530.10	0	1.5510	0	34.6640	4	27.756	0	3473.005	0	105.7	4	31.5	4	-1E+10	1	-1E+10	1	-1E+10	1	-1E+10	1	-1E+10	1	-1E+10	1
4902643	30	C	04/17/2025	10:45	-133.583	43.314	0	3549.90	0	1.5500	0	34.6650	4	27.757	0	3492.327	0	106.1	4	31.6	4	-1E+10	1	-1E+10	1	-1E+10	1	-1E+10	1	-1E+10	1	-1E+10	1
4902643	30	C	04/17/2025	10:45	-133.583	43.314	0	3570.10	0	1.5500	0	34.6650	4	27.757	0	3512.038	0	106.3	4	31.7	4	-1E+10	1	-1E+10	1	-1E+10	1	-1E+10	1	-1E+10	1	-1E+10	1
4902643	30	C	04/17/2025	10:45	-133.583	43.314	0	3590.00	0	1.5510	0	34.6650	4	27.757	0	3531.454	0	106.6	4	31.8	4	-1E+10	1	-1E+10	1	-1E+10	1	-1E+10	1	-1E+10	1	-1E+10	1
4902643	30	C	04/17/2025	10:45	-133.583	43.314	0	3609.70	0	1.5510	0	34.6660	4	27.758	0	3550.673	0	106.7	4	31.8	4	-1E+10	1	-1E+10	1	-1E+10	1	-1E+10	1	-1E+10	1	-1E+10	1
4902643	30	C	04/17/2025	10:45	-133.583	43.314	0	3629.70	0	1.5520	0	34.6660	4	27.758	0	3570.183	0	106.6	4	31.8	4	-1E+10	1	-1E+10	1	-1E+10	1	-1E+10	1	-1E+10	1	-1E+10	1
4902643	30	C	04/17/2025	10:45	-133.583	43.314	0	3649.80	0	1.5520	0	34.6670	4	27.759	0	3589.789	0	106.9	4	31.9	4	-1E+10	1	-1E+10	1	-1E+10	1	-1E+10	1	-1E+10	1	-1E+10	1
4902643	30	C	04/17/2025	10:45	-133.583	43.314	0	3670.50	0	1.5520	0	34.6670	4	27.760	0	3609.978	0	107.3	4	32.0	4	-1E+10	1	-1E+10	1	-1E+10	1	-1E+10	1	-1E+10	1	-1E+10	1
4902643	30	C	04/17/2025	10:45	-133.583	43.314	0	3690.00	0	1.5510	0	34.6680	4	27.761	0	3628.995	0	107.7	4	32.1	4	-1E+10	1	-1E+10	1	-1E+10	1	-1E+10	1	-1E+10	1	-1E+10	1
4902643	30	C	04/17/2025	10:45	-133.583	43.314	0	3709.80	0	1.5510	0	34.6680	4	27.761	0	3648.303	0	107.9	4	32.2	4	-1E+10	1	-1E+10	1	-1E+10	1	-1E+10	1	-1E+10	1	-1E+10	1
4902643	30	C	04/17/2025	10:45	-133.583	43.314	0	3729.70	0	1.5510	0	34.6680	4	27.761	0	3667.707	0	108.2	4	32.3	4	-1E+10	1	-1E+10	1	-1E+10	1	-1E+10	1	-1E+10	1	-1E+10	1
4902643	30	C	04/17/2025	10:45	-133.583	43.314	0	3749.90	0	1.5510	0	34.6680	4	27.761	0	3687.402	0	108.5	4	32.4	4	-1E+10	1	-1E+10	1	-1E+10	1	-1E+10	1	-1E+10	1	-1E+10	1
4902643	30	C	04/17/2025	10:45	-133.583	43.314	0	3770.30	0	1.5500	0	34.6690	4	27.762	0	3707.290	0	108.6	4	32.4	4	-1E+10	1	-1E+10	1	-1E+10	1	-1E+10	1	-1E+10	1	-1E+10	1
4902643	30	C	04/17/2025	10:45	-133.583	43.314	0	3789.10	0	1.5510	0	34.6690	4	27.762	0	3725.616	0	108.4	4	32.3	4	-1E+10	1	-1E+10	1	-1E+10	1	-1E+10	1	-1E+10	1	-1E+10	1
4902643	30	C	04/17/2025	10:45	-133.583	43.314	0																										
4902643	31	C	04/27/2025	11:43	-133.553	43.380	0	0.80	0	11.2195	0	32.6940	0	24.942	0	0.794	0	258.4	4	95.0	4	-1E+10	1	-1E+10	1	-1E+10	1	-1E+10	1	-1E+10	1	-1E+10	1
4902643	31	C	04/27/2025	11:43	-133.553	43.380	0	0.90	0	11.2210	0	32.6924	0	24.940	0	0.893	0	258.5	4	95.0	4	-1E+10	1	-1E+10	1	-1E+10	1	-1E+10	1	-1E+10	1	-1E+10	1
4902643	31	C	04/27/2025	11:43	-133.553	43.380	0	1.00	0	11.2230	0	32.6920	0	24.940	0	0.992	0	258.2	4	94.9	4	-1E+10	1	-1E+10	1	-1E+10	1	-1E+10	1	-1E+10	1	-1E+10	1
4902643	31	C	04/27/2025	11:43	-133.553	43.380	0	1.40	0	11.2280	0	32.6930	0	24.939	0	1.389	0	258.1	4	94.9	4	-1E+10	1	-1E+10	1	-1E+10	1	-1E+10	1	-1E+10	1	-1E+10	1
4902643	31	C	04/27/2025	11:43	-133.553	43.380	0	2.70	0	11.2280	0	32.6920	0	24.939	0	2.678	0	257.8	4	94.8	4	-1E+10	1	-1E+10	1	-1E+10	1	-1E+10	1	-1E+10	1	-1E+10	1
4902643	31	C	04/27/2025	11:43	-133.553	43.380	0	3.70	0	11.2290	0	32.6930	0	24.939	0	3.670	0	257.7	4	94.8	4	-1E+10	1	-1E+10	1	-1E+10	1	-1E+10	1	-1E+10	1	-1E+10	1
4902643	31	C	04/27/2025	11:43	-133.553	43.380	0	4.70	0	11.2270	0	32.6930	0	24.940	0	4.662	0	257.8	4	94.8	4	-1E+10	1	-1E+10	1	-1E+10	1	-1E+10	1	-1E+10	1	-1E+10	1
4902643	31	C	04/27/2025	11:43	-133.553	43.380	0	5.50	0	11.2300	0	32.6940	0	24.940	0	5.456	0	257.7	4	94.8	4	-1E+10	1	-1E+10	1	-1E+10	1	-1E+10	1	-1E+10	1	-1E+10	1
4902643	31	C	04/27/2025	11:43	-133.553	43.380	0	6.20	0	11.2350	0	32.6940	0	24.939	0	6.150	0	257.6	4	94.7	4	-1E+10	1	-1E+10	1	-1E+10	1	-1E+10	1	-1E+10	1	-1E+10	1
4902643	31	C	04/27/2025	11:43	-133.553	43.380	0	7.10	0	11.2380	0	32.6930	0	24.938	0	7.043	0	257.6	4	94.8	4	-1E+10	1	-1E+10	1	-1E+10	1	-1E+10	1	-1E+10	1	-1E+10	1
4902643	31	C	04/27/2025	11:43	-133.553	43.380	0	8.10	0	11.2370	0	32.6930	0	24.938	0	8.035	0	257.6	4	94.7	4	-1E+10	1	-1E+10	1	-1E+10	1	-1E+10	1	-1E+10	1	-1E+10	1
4902643	31	C	04/27/2025	11:43	-133.553	43.380	0	9.40	0	11.2340	0	32.6960	0	24.941	0	9.325	0	257.6	4	94.7	4	-1E+10	1	-1E+10	1	-1E+10	1	-1E+10	1	-1E+10	1	-1E+10	1
4902643	31	C	04/27/2025	11:43	-133.553	43.380	0	14.40	0	11.2320	0	32.6920	0	24.938	0	14.285	0	257.5	4	94.7	4	-1E+10	1	-1E+10	1	-1E+10	1	-1E+10	1	-1E+10	1	-1E+10	1
4902643	31	C	04/27/2025	11:43	-133.553	43.380	0	24.70	0	11.2240	0	32.7020	0	24.948	0	24.502	0	257.4	4	94.6	4	-1E+10	1	-1E+10	1	-1E+10	1	-1E+10	1	-1E+10	1	-1E+10	1
4902643	31	C	04/27/2025	11:43	-133.553	43.380	0	34.70	0	11.1160	0	32.7650	0	25.016	0	34.421	0	256.3	4	94.1	4	-1E+10	1	-1E+10	1	-1E+10	1	-1E+10	1	-1E+10	1	-1E+10	1
4902643	31	C	04/27/2025	11:43	-133.553	43.380	0	44.80	0	10.9260	0	32.7580	0	25.044	0	44.438	0	254.2	4	92.9	4	-1E+10	1	-1E+10	1	-1E+10	1	-1E+10	1	-1E+10	1	-1E+10	1
4902643	31	C	04/27/2025	11:43	-133.553	43.380	0	55.10	0	10.7770	0	32.7540	0	25.068	0	54.654	0	251.7	4	91.7	4	-1E+10	1	-1E+10	1	-1E+10	1	-1E+10	1	-1E+10	1	-1E+10	1
4902643	31	C	04/27/2025	11:43	-133.553	43.380	0	65.30	0	10.7330	0	32.7570	0	25.078	0	64.769	0	248.8	4	90.6	4	-1E+10	1	-1E+10	1	-1E+10	1	-1E+10	1	-1E+10	1	-1E+10	1
4902643	31	C	04/27/2025	11:43	-133.553	43.380	0	74.80	0	10.6990	0	32.7600	0	25.086	0	74.190	0	245.8	4	89.4	4	-1E+10	1	-1E+10	1	-1E+10	1	-1E+10	1	-1E+10	1	-1E+10	1
4902643	31	C	04/27/2025	11:43	-133.553	43.380	0	84.90	0	10.6490	0	32.7660	0	25.100	0	84.206	0	240.3	4	87.3	4	-1E+10	1	-1E+10	1	-1E+10	1	-1E+10	1	-1E+10	1	-1E+10	1
4902643	31	C	04/27/2025	11:43	-133.553	43.380	0	95.00	0	10.4680	0	32.8530	0	25.199	0	94.221	0	227.7	4	82.5	4	-1E+10	1	-1E+10	1	-1E+10	1	-1E+10	1	-1E+10	1	-1E+10	1
4902643	31	C	04/27/2025	11:43	-133.553	43.380	0	105.00	0	9.9200	0	33.0780	0	25.467	0	104.137	0	213.5	4	76.5	4	-1E+10	1	-1E+10	1	-1E+10	1	-1E+10	1	-1E+10	1	-1E+10	1
4902643	31	C	04/27/2025	11:43	-133.553	43.380	0	114.60	0	9.3200	0	33.2800	0	25.723	0	113.655	0	205.5	4	72.8	4	-1E+10	1	-1E+10	1	-1E+10	1	-1E+10	1	-1E+10	1	-1E+10	1
4902643	31	C	04/27/2025	11:43	-133.553	43.380	0	125.00	0	9.0070	0	33.4710	0	25.922	0	123.966	0	199.9	4	70.4	4	-1E+10	1	-1E+10	1	-1E+10	1	-1E+10	1	-1E+10	1	-1E+10	1
4902643	31	C	04/27/2025	11:43	-133.553	43.380	0	135.20	0	8.8500	0	33.5550	0	26.013	0	134.079	0	196.8	4	69.2	4	-1E+10	1	-1E+10	1	-1E+10	1	-1E+10	1	-1E+10	1	-1E+10	1
4902643	31	C	04/27/2025	11:43	-133.553	43.380	0	144.90	0	8.6770	0	33.6510	0	26.115	0	143.695	0	194.8	4	68.2	4	-1E+10	1	-1E+10	1	-1E+10	1	-1E+10	1	-1E+10	1	-1E+10	1
4902643	31	C	04/27/2025	11:43	-133.553	43.380	0	154.70	0	8.4750	0	33.7260	0	26.205	0	153.410	0	193.0	4	67.3	4	-1E+10	1	-1E+10	1	-1E+10	1	-1E+10	1	-1E+10	1	-1E+10	1
4902643	31	C	04/27/2025	11:43	-133.553	43.380	0	164.90	0	8.2720	0	33.7630	0	26.265	0	163.521	0	190.2	4	66.1	4	-1E+10	1	-1E+10	1	-1E+10	1	-1E+10	1	-1E+10	1	-1E+10	1
4902643	31	C	04/27/2025	11:43	-133.553	43.380	0	175.10	0	8.0360	0	33.7870	0	26.319	0	173.631	0	187.3	4	64.8	4	-1E+10	1	-1E+10	1	-1E+10	1	-1E+10	1	-1E+10	1	-1E+10	1
4902643	31	C	04/27/2025	11:43	-133.553	43.380	0	184.90	0	7.8410	0	33.8070	0	26.363	0	183.344	0	184.2	4	63.4	4	-1E+10	1	-1E+10	1	-1E+10	1	-1E+10	1	-1E+10	1	-1E+10	1
4902643	31	C	04/27/2025	11:43	-133.553	43.380	0	194.10	0	7.7080	0	33.8170	0	26.390	0	192.463	0	183.1	4	62.8	4	-1E+10	1	-1E+10	1	-1E+10	1	-1E+10	1	-1E+10	1	-1E+10	1
4902643	31	C	04/27/2025	11:43	-133.553	43.380	0	209.70	0	7.3710	0	33.8200	0	26.441	0	207.923	0	178.9	4	60.9	4	-1E+10	1	-1E+10	1	-1E+10	1	-1E+10	1	-1E+10	1	-1E+10	1
4902643	31	C	04/27/2025	11:43	-133.553	43.380	0	229.90	0	7.0200	0	33.8290	0	26.497	0	227.941	0	169.9	4	57.4	4	-1E+10	1	-1E+10	1	-1E+10	1	-1E+10	1	-1E+10	1	-1E+10	1
4902643	31	C	04/27/2025	11:43	-133.553	43.380	0	249.70	0	6.8140	0	33.8360	0	26.530	0	247.560	0	160.5	4	54.0	4	-1E+10	1	-1E+10	1	-1E+10	1	-1E+10	1	-1E+10	1	-1E+10	1
4902643	31	C	04/27/2025	11:43	-133.553	43.380	0	269.70	0	6.5530	0	33.8370	0	26.566	0	267.376	0	150.7	4	50.4	4	-1E+10	1	-1E+10	1	-1E+10	1	-1E+10	1	-1E+10	1	-1E+10	1
4902643	31	C	04/27/2025	11:43	-133.553	43.380	0	289.90	0	6.3140	0	33.8350	0	26.596	0	287.388	0	138.3	4	46.0	4	-1E+10	1	-1E+10	1	-1E+10	1	-1E+10	1	-1E+10	1	-1E+10	1
4902643	31	C	04/27/2025	11:43	-133.553	43.380	0	309.50	0	6.0290	0	33.8390	0	26.635	0	306.804	0	122.7	4	40.6	4	-1E+10	1	-1E+10	1	-1E+10	1	-1E+10	1	-1E+10	1	-1E+10	1
4902643	31	C	04/27/2025	11:43	-133.553	43.380	0	329.60	0	5.8170	0	33.8490	0	26.669	0	326.713	0	110.8	4	36.4	4	-1E+10	1	-1E+10	1	-1E+10	1	-1E+10	1	-1E+10	1	-1E+10	1
4902643	31	C	04/27/2025	11:43	-133.553	43.380	0	350.20	0	5.5850	0	33.8620	0	26.708	0	347.115	0	98.4	4	32.2	4	-1E+10	1	-1E+10	1	-1E+10	1	-1E+10	1	-1E+10	1	-1E+10	1
4902643	31	C	04/27/2025	11:43	-133.553	43.380	0	369.80	0	5.3730	0	33.8780	0	26.746	0	366.525	0	89.7	4	29.2	4	-1E+10	1	-1E+10	1	-1E+10	1	-1E+10	1	-1E+10	1	-1E+10	1
4902643	31	C	04/27/2025	11:43	-133.553	43.380	0	389.90	0	5.2060	0	33.8920	0	26.777	0	386.428	0	82.4	4	26.7	4	-1E+10	1	-1E+10	1	-1E+10	1	-1E+10	1	-1E+10	1	-1E+10	1
4902643	31	C	04/27/2025	11:43	-133.553	43.380	0	409.80	0	5.0330	0	33.9070	0	26.809	0	406.132	0	76.1	4	24.6	4	-1E+10	1	-1E+10	1	-1E+10	1	-1E+10	1	-1E+10	1	-1E+10	1
4902643	31	C	04/27/2025	11:43	-133.553	43.380	0	429.80	0	4.8910	0	33.9190	0	26.834	0	425.932	0	70.9	4	22.8	4	-1E+10	1	-1E+10	1	-1E+10	1	-1E+10	1	-1E+10	1	-1E+10	1
4902643	31	C	04/27/2025	11:43	-133.553	43.380	0	449.80	0	4.7820	0	33.9370	0	26.861	0	445.731	0	65.2	4	20.9	4	-1E+10	1	-1E+10	1	-1E+10	1	-1E+10	1	-1E+10	1	-1E+10	1
4902643	31	C	04/27/2025	11:43	-133.553	43.380	0	469.50	0	4.6820	0	33.9570	0	26.888	0	465.230	0	60.1	4	19.3	4	-1E+10	1	-1E+10	1	-1E+10	1	-1E+10	1	-1E+10	1	-1E+10	1
4902643	31	C	04/27/2025	11:43	-133.553	43.380	0	490.30	0	4.5750	0	33.9710	0	26.911	0	485.817	0	55.4	4	17.7	4	-1E+10	1	-1E+10	1	-1E+10	1	-1E+10	1	-1E+10	1	-1E+10	1
4902643	31	C	04/27/2025	11:43	-133.553	43.380	0	509.60	0	4.5020	0	33.9830	0	26.929	0	504.917	0	51.7	4	16.5	4	-1E+10	1	-1E+10	1	-1E+10	1	-1E+10	1	-1E+10	1	-1E+10	1
4902643	31	C	04/27/2025	11:43	-133.553	43.380	0	529.80	0	4.4340	0	33.9970	0	26.947	0	524.906	0	47.2	4	15.0	4	-1E+10	1	-1E+10	1	-1E+10	1	-1E+10	1	-1E+10	1	-1E+10	1
4902643	31	C	04/27/2025	11:43	-133.553	43.380	0	550.00	0	4.3620	0	34.0160	0	26.970	0	544.893	0	42.5	4	13.5	4	-1E+10	1	-1E+10	1	-1E+10	1	-1E+10	1	-1E+10	1	-1E+10	1
4902643	31	C	04/27/2025	11:43	-133.553	43.380	0	569.70	0	4.3020	0	34.0360	0	26.992	0	564.383	0	37.9	4	12.0	4	-1E+10	1	-1E+10	1	-1E+10	1	-1E+10	1	-1E+10	1	-1E+10	1
4902643	31	C	04/27/2025	11:43	-133.553	43.380	0	589.50	0	4.2680	0	34.0580	0	27.014	0	583.971	0	32.5	4	10.3	4	-1E+10	1	-1E+10	1	-1E+10	1	-1E+10	1	-1E+10	1	-1E+10	1
4902643	31	C	04/27/2025	11:43	-133.553	43.380	0	609.70	0	4.2320	0	34.0840	0	27.038	0	603.952	0	27.8	4	8.8	4	-1E+10	1	-1E+10	1	-1E+10	1	-1E+10	1	-1E+10	1	-1E+10	1
4902643	31	C	04/27/2025	11:43	-133.553	43.380	0	630.00	0	4.1920	0	34.1020	0	27.057	0	624.030	0	24.7	4	7.8	4	-1E+10	1	-1E+10	1	-1E+10	1	-1E+10	1	-1E+10	1	-1E+10	1
4902643	31	C	04/27/2025	11:43	-133.553	43.380	0	650.10	0	4.1480	0	34.1210	0	27.077	0	643.909	0	22.0	4	7.0	4	-1E+10	1	-1E+10	1	-1E+10	1	-1E+10	1	-1E+10	1	-1E+10	1
4902643	31	C	04/27/2025	11:43	-133.553	43.380	0	669.90	0	4.0940	0	34.1390	0	27.097	0	663.489	0	19.4	4	6.2	4	-1E+10	1	-1E+10	1	-1E+10	1	-1E+10	1	-1E+10	1	-1E+10	1
4902643	31	C	04/27/2025	11:43	-133.553	43.380	0	689.80	0	4.0610	0	34.1520	0	27.111	0	683.165	0	17.9	4	5.7	4	-1E+10	1	-1E+10	1	-1E+10	1	-1E+10	1	-1E+10	1	-1E+10	1
4902643	31	C	04/27/2025	11:43	-133.553	43.380	0	710.00	0	4.0260	0	34.1650	0	27.125	0	703.137	0	15.7	4	5.0	4	-1E+10	1	-1E+10	1	-1E+10	1	-1E+10	1	-1E+10	1	-1E+10	1
4902643	31	C	04/27/2025	11:43	-133.553	43.380	0	729.20	0	3.9990	0	34.1840	0	27.143	0	722.118	0	13.8	4	4.3	4	-1E+10	1	-1E+10	1	-1E+10	1	-1E+10	1	-1E+10	1	-1E+10	1
4902643	31	C	04/27/2025	11:43	-133.553	43.380	0	749.90	0	3.9600	0	34.1990	0	27.159	0	742.581	0	12.5	4	4.0	4	-1E+10	1	-1E+10	1	-1E+10	1	-1E+10	1	-1E+10	1	-1E+10	1
4902643	31	C	04/27/2025	11:43	-133.553	43.380	0	769.90	0	3.9050	0	34.2120	0	27.175	0	762.349	0	11.6	4	3.6	4	-1E+10	1	-1E+10	1	-1E+10	1	-1E+10	1	-1E+10	1	-1E+10	1
4902643	31	C	04/27/2025	11:43	-133.553	43.380	0	789.40	0	3.8680	0	34.2250	0	27.189	0	781.621	0	10.5	4	3.3	4	-1E+10	1	-1E+10	1	-1E+10	1	-1E+10	1	-1E+10	1	-1E+10	1
4902643	31	C	04/27/2025	11:43	-133.553	43.380	0	809.50	0	3.8270	0	34.2400	0	27.205	0	801.484	0	9.6	4	3.0	4	-1E+10	1	-1E+10	1	-1E+10	1	-1E+10	1	-1E+10	1	-1E+10	1
4902643	31	C	04/27/2025	11:43	-133.553	43.380	0	830.60	0	3.7850	0	34.2570	0	27.223	0	822.334	0	8.7	4	2.7	4	-1E+10	1	-1E+10	1	-1E+10	1	-1E+10	1	-1E+10	1	-1E+10	1
4902643	31	C	04/27/2025	11:43	-133.553	43.380	0	849.80	0	3.7420	0	34.2720	0	27.239	0	841.304	0	7.9	4	2.5	4	-1E+10	1	-1E+10	1	-1E+10	1	-1E+10	1	-1E+10	1	-1E+10	1
4902643	31	C	04/27/2025	11:43	-133.553	43.380	0	869.80	0	3.6910	0	34.2900	0	27.259	0	861.063	0	7.3	4	2.3	4	-1E+10	1	-1E+10	1	-1E+10	1	-1E+10	1	-1E+10	1	-1E+10	1
4902643	31	C	04/27/2025	11:43	-133.553	43.380	0	889.90	0	3.6520	0	34.3040	0	27.274	0	880.919	0	7.0	4	2.2	4	-1E+10	1	-1E+10	1	-1E+10	1	-1E+10	1	-1E+10	1	-1E+10	1
4902643	31	C	04/27/2025	11:43	-133.553	43.380	0	909.80	0	3.6060	0	34.3160	0	27.288	0	900.575	0	6.8	4	2.1	4	-1E+10	1	-1E+10	1	-1E+10	1	-1E+10	1	-1E+10	1	-1E+10	1
4902643	31	C	04/27/2025	11:43	-133.553	43.380	0	930.50	0	3.5650	0	34.3280	0	27.302	0	921.020	0	6.7	4	2.1	4	-1E+10	1	-1E+10	1	-1E+10	1	-1E+10	1	-1E+10	1	-1E+10	1
4902643	31	C	04/27/2025	11:43	-133.553	43.380	0	950.00	0	3.5400	0	34.3430	0	27.316	0	940.277	0	6.6	4	2.1	4	-1E+10	1	-1E+10	1	-1E+10	1	-1E+10	1	-1E+10	1	-1E+10	1
4902643	31	C	04/27/2025	11:43	-133.553	43.380	0	969.80	0	3.5050	0	34.3570	0	27.331	0	959.829	0	6.7	4	2.1	4	-1E+10	1	-1E+10	1	-1E+10	1	-1E+10	1	-1E+10	1	-1E+10	1
4902643	31	C	04/27/2025	11:43	-133.553	43.380	0	989.90	0	3.4650	0	34.3700	0	27.345	0	979.676	0	6.9	4	2.2	4	-1E+10	1	-1E+10	1	-1E+10	1	-1E+10	1	-1E+10	1	-1E+10	1
4902643	31	C	04/27/2025	11:43	-133.553	43.380	0	1010.10	0	3.4250	0	34.3810	0	27.358	0	999.619	0	7.1	4	2.2	4	-1E+10	1	-1E+10	1	-1E+10	1	-1E+10	1	-1E+10	1	-1E+10	1
4902643	31	C	04/27/2025	11:43	-133.553	43.380	0	1030.00	0	3.3830	0	34.3890	0	27.369	0	1019.264	0	7.4	4	2.3	4	-1E+10	1	-1E+10	1	-1E+10	1	-1E+10	1	-1E+10	1	-1E+10	1
4902643	31	C	04/27/2025	11:43	-133.553	43.380	0	1049.60	0	3.3460	0	34.3980	0	27.379	0	1038.611	0	7.7	4	2.4	4	-1E+10	1	-1E+10	1	-1E+10	1	-1E+10	1	-1E+10	1	-1E+10	1
4902643	31	C	04/27/2025	11:43	-133.553	43.380	0	1070.40	0	3.3140	0	34.4060	0	27.389	0	1059.141	0	8.0	4	2.5	4	-1E+10	1	-1E+10	1	-1E+10	1	-1E+10	1	-1E+10	1	-1E+10	1
4902643	31	C	04/27/2025	11:43	-133.553	43.380	0	1090.10	0	3.2900	0	34.4110	0	27.395	0	1078.583	0	8.4	4	2.6	4	-1E+10	1	-1E+10	1	-1E+10	1	-1E+10	1	-1E+10	1	-1E+10	1
4902643	31	C	04/27/2025	11:43	-133.553	43.380	0	1110.00	0	3.2520	0	34.4180	0	27.405	0	1098.221	0	8.8	4	2.7	4	-1E+10	1	-1E+10	1	-1E+10	1	-1E+10	1	-1E+10	1	-1E+10	1
4902643	31	C	04/27/2025	11:43	-133.553	43.380	0	1129.80	0	3.2230	0	34.4240	0	27.412	0	1117.758	0	9.2	4	2.9	4	-1E+10	1	-1E+10	1	-1E+10	1	-1E+10	1	-1E+10	1	-1E+10	1
4902643	31	C	04/27/2025	11:43	-133.553	43.380	0	1149.70	0	3.1880	0	34.4300	0	27.420	0	1137.392	0	9.6	4	3.0	4	-1E+10	1	-1E+10	1	-1E+10	1	-1E+10	1	-1E+10	1	-1E+10	1
4902643	31	C	04/27/2025	11:43	-133.553	43.380	0	1169.80	0	3.1430	0	34.4360	0	27.429	0	1157.222	0	10.2	4	3.2	4	-1E+10	1	-1E+10	1	-1E+10	1	-1E+10	1	-1E+10	1	-1E+10	1
4902643	31	C	04/27/2025	11:43	-133.553	43.380	0	1189.80	0	3.1030	0	34.4440	0	27.440	0	1176.951	0	10.8	4	3.4	4	-1E+10	1	-1E+10	1	-1E+10	1	-1E+10	1	-1E+10	1	-1E+10	1
4902643	31	C	04/27/2025	11:43	-133.553	43.380	0	1209.80	0	3.0700	0	34.4490	0	27.447	0	1196.678	0	11.6	4	3.6	4	-1E+10	1	-1E+10	1	-1E+10	1	-1E+10	1	-1E+10	1	-1E+10	1
4902643	31	C	04/27/2025	11:43	-133.553	43.380	0	1229.90	0	3.0220	0	34.4580	0	27.458	0	1216.502	0	12.5	4	3.9	4	-1E+10	1	-1E+10	1	-1E+10	1	-1E+10	1	-1E+10	1	-1E+10	1
4902643	31	C	04/27/2025	11:43	-133.553	43.380	0	1249.60	0	2.9850	0	34.4630	0	27.466	0	1235.929	0	13.0	4	4.0	4	-1E+10	1	-1E+10	1	-1E+10	1	-1E+10	1	-1E+10	1	-1E+10	1
4902643	31	C	04/27/2025	11:43	-133.553	43.380	0	1269.60	0	2.9540	0	34.4670	0	27.472	0	1255.651	0	13.5	4	4.1	4	-1E+10	1	-1E+10	1	-1E+10	1	-1E+10	1	-1E+10	1	-1E+10	1
4902643	31	C	04/27/2025	11:43	-133.553	43.380	0	1289.60	0	2.9250	0	34.4700	0	27.477	0	1275.371	0	14.1	4	4.3	4	-1E+10	1	-1E+10	1	-1E+10	1	-1E+10	1	-1E+10	1	-1E+10	1
4902643	31	C	04/27/2025	11:43	-133.553	43.380	0	1309.70	0	2.8880	0	34.4750	0	27.484	0	1295.187	0	14.9	4	4.6	4	-1E+10	1	-1E+10	1	-1E+10	1	-1E+10	1	-1E+10	1	-1E+10	1
4902643	31	C	04/27/2025	11:43	-133.553	43.380	0	1329.70	0	2.8460	0	34.4810	0	27.493	0	1314.903	0	15.8	4	4.9	4	-1E+10	1	-1E+10	1	-1E+10	1	-1E+10	1	-1E+10	1	-1E+10	1
4902643	31	C	04/27/2025	11:43	-133.553	43.380	0	1349.60	0	2.8090	0	34.4860	0	27.500	0	1334.519	0	16.9	4	5.2	4	-1E+10	1	-1E+10	1	-1E+10	1	-1E+10	1	-1E+10	1	-1E+10	1
4902643	31	C	04/27/2025	11:43	-133.553	43.380	0	1369.80	0	2.7570	0	34.4920	0	27.510	0	1354.428	0	18.3	4	5.6	4	-1E+10	1	-1E+10	1	-1E+10	1	-1E+10	1	-1E+10	1	-1E+10	1
4902643	31	C	04/27/2025	11:43	-133.553	43.380	0	1389.70	0	2.7070	0	34.4990	0	27.520	0	1374.040	0	19.8	4	6.1	4	-1E+10	1	-1E+10	1	-1E+10	1	-1E+10	1	-1E+10	1	-1E+10	1
4902643	31	C	04/27/2025	11:43	-133.553	43.380	0	1409.60	0	2.6590	0	34.5050	0	27.529	0	1393.650	0	21.0	4	6.4	4	-1E+10	1	-1E+10	1	-1E+10	1	-1E+10	1	-1E+10	1	-1E+10	1
4902643	31	C	04/27/2025	11:43	-133.553	43.380	0	1429.70	0	2.6150	0	34.5100	0	27.537	0	1413.455	0	22.2	4	6.8	4	-1E+10	1	-1E+10	1	-1E+10	1	-1E+10	1	-1E+10	1	-1E+10	1
4902643	31	C	04/27/2025	11:43	-133.553	43.380	0	1450.20	0	2.5790	0	34.5140	0	27.543	0	1433.653	0	23.3	4	7.1	4	-1E+10	1	-1E+10	1	-1E+10	1	-1E+10	1	-1E+10	1	-1E+10	1
4902643	31	C	04/27/2025	11:43	-133.553	43.380	0	1469.50	0	2.5480	0	34.5180	0	27.549	0	1452.666	0	24.3	4	7.4	4	-1E+10	1	-1E+10	1	-1E+10	1	-1E+10	1	-1E+10	1	-1E+10	1
4902643	31	C	04/27/2025	11:43	-133.553	43.380	0	1489.00	0	2.5180	0	34.5220	0	27.555	0	1471.875	0	25.5	4	7.8	4	-1E+10	1	-1E+10	1	-1E+10	1	-1E+10	1	-1E+10	1	-1E+10	1
4902643	31	C	04/27/2025	11:43	-133.553	43.380	0	1509.20	0	2.4730	0	34.5270	0	27.563	0	1491.772	0	26.9	4	8.2	4	-1E+10	1	-1E+10	1	-1E+10	1	-1E+10	1	-1E+10	1	-1E+10	1
4902643	31	C	04/27/2025	11:43	-133.553	43.380	0	1529.30	0	2.4420	0	34.5310	0	27.569	0	1511.568	0	28.0	4	8.5	4	-1E+10	1	-1E+10	1	-1E+10	1	-1E+10	1	-1E+10	1	-1E+10	1
4902643	31	C	04/27/2025	11:43	-133.553	43.380	0	1550.10	0	2.4120	0	34.5340	0	27.574	0	1532.051	0	29.1	4	8.9	4	-1E+10	1	-1E+10	1	-1E+10	1	-1E+10	1	-1E+10	1	-1E+10	1
4902643	31	C	04/27/2025	11:43	-133.553	43.380	0	1569.60	0	2.3790	0	34.5380	0	27.580	0	1551.253	0	30.4	4	9.2	4	-1E+10	1	-1E+10	1	-1E+10	1	-1E+10	1	-1E+10	1	-1E+10	1
4902643	31	C	04/27/2025	11:43	-133.553	43.380	0	1589.90	0	2.3490	0	34.5420	0	27.585	0	1571.240	0	31.7	4	9.6	4	-1E+10	1	-1E+10	1	-1E+10	1	-1E+10	1	-1E+10	1	-1E+10	1
4902643	31	C	04/27/2025	11:43	-133.553	43.380	0	1609.80	0	2.3170	0	34.5460	0	27.591	0	1590.832	0	33.0	4	10.0	4	-1E+10	1	-1E+10	1	-1E+10	1	-1E+10	1	-1E+10	1	-1E+10	1
4902643	31	C	04/27/2025	11:43	-133.553	43.380	0	1630.00	0	2.2870	0	34.5500	0	27.597	0	1610.717	0	34.3	4	10.4	4	-1E+10	1	-1E+10	1	-1E+10	1	-1E+10	1	-1E+10	1	-1E+10	1
4902643	31	C	04/27/2025	11:43	-133.553	43.380	0	1650.20	0	2.2660	0	34.5530	0	27.601	0	1630.600	0	35.5	4	10.8	4	-1E+10	1	-1E+10	1	-1E+10	1	-1E+10	1	-1E+10	1	-1E+10	1
4902643	31	C	04/27/2025	11:43	-133.553	43.380	0	1670.30	0	2.2480	0	34.5560	0	27.605	0	1650.383	0	36.8	4	11.2	4	-1E+10	1	-1E+10	1	-1E+10	1	-1E+10	1	-1E+10	1	-1E+10	1
4902643	31	C	04/27/2025	11:43	-133.553	43.380	0	1689.70	0	2.2330	0	34.5580	0	27.608	0	1669.476	0	38.1	4	11.5	4	-1E+10	1	-1E+10	1	-1E+10	1	-1E+10	1	-1E+10	1	-1E+10	1
4902643	31	C	04/27/2025	11:43	-133.553	43.380	0	1710.00	0	2.2100	0	34.5610	0	27.612	0	1689.452	0	39.2	4	11.9	4	-1E+10	1	-1E+10	1	-1E+10	1	-1E+10	1	-1E+10	1	-1E+10	1
4902643	31	C	04/27/2025	11:43	-133.553	43.380	0	1730.10	0	2.1880	0	34.5640	0	27.617	0	1709.229	0	40.4	4	12.2	4	-1E+10	1	-1E+10	1	-1E+10	1	-1E+10	1	-1E+10	1	-1E+10	1
4902643	31	C	04/27/2025	11:43	-133.553	43.380	0	1749.70	0	2.1650	0	34.5670	0	27.621	0	1728.513	0	41.4	4	12.5	4	-1E+10	1	-1E+10	1	-1E+10	1	-1E+10	1	-1E+10	1	-1E+10	1
4902643	31	C	04/27/2025	11:43	-133.553	43.380	0	1769.90	0	2.1440	0	34.5700	0	27.625	0	1748.385	0	42.6	4	12.9	4	-1E+10	1	-1E+10	1	-1E+10	1	-1E+10	1	-1E+10	1	-1E+10	1
4902643	31	C	04/27/2025	11:43	-133.553	43.380	0	1789.90	0	2.1250	0	34.5720	0	27.628	0	1768.059	0	43.7	4	13.2	4	-1E+10	1	-1E+10	1	-1E+10	1	-1E+10	1	-1E+10	1	-1E+10	1
4902643	31	C	04/27/2025	11:43	-133.553	43.380	0	1809.80	0	2.1050	0	34.5740	0	27.632	0	1787.633	0	44.9	4	13.6	4	-1E+10	1	-1E+10	1	-1E+10	1	-1E+10	1	-1E+10	1	-1E+10	1
4902643	31	C	04/27/2025	11:43	-133.553	43.380	0	1830.10	0	2.0830	0	34.5770	0	27.636	0	1807.598	0	46.2	4	13.9	4	-1E+10	1	-1E+10	1	-1E+10	1	-1E+10	1	-1E+10	1	-1E+10	1
4902643	31	C	04/27/2025	11:43	-133.553	43.380	0	1850.20	0	2.0640	0	34.5800	0	27.640	0	1827.364	0	47.4	4	14.3	4	-1E+10	1	-1E+10	1	-1E+10	1	-1E+10	1	-1E+10	1	-1E+10	1
4902643	31	C	04/27/2025	11:43	-133.553	43.380	0	1870.20	0	2.0490	0	34.5830	0	27.644	0	1847.030	0	48.7	4	14.7	4	-1E+10	1	-1E+10	1	-1E+10	1	-1E+10	1	-1E+10	1	-1E+10	1
4902643	31	C	04/27/2025	11:43	-133.553	43.380	0	1890.30	0	2.0350	0	34.5860	0	27.647	0	1866.793	0	49.9	4	15.1	4	-1E+10	1	-1E+10	1	-1E+10	1	-1E+10	1	-1E+10	1	-1E+10	1
4902643	31	C	04/27/2025	11:43	-133.553	43.380	0	1910.90	0	2.0180	0	34.5880	0	27.650	0	1887.046	0	51.1	4	15.4	4	-1E+10	1	-1E+10	1	-1E+10	1	-1E+10	1	-1E+10	1	-1E+10	1
4902643	31	C	04/27/2025	11:43	-133.553	43.380	0	1929.90	0	2.0000	0	34.5910	0	27.654	0	1905.724	0	52.1	4	15.7	4	-1E+10	1	-1E+10	1	-1E+10	1	-1E+10	1	-1E+10	1	-1E+10	1
4902643	31	C	04/27/2025	11:43	-133.553	43.380	0	1949.80	0	1.9890	0	34.5920	0	27.656	0	1925.285	0	53.2	4	16.0	4	-1E+10	1	-1E+10	1	-1E+10	1	-1E+10	1	-1E+10	1	-1E+10	1
4902643	31	C	04/27/2025	11:43	-133.553	43.380	0	1969.80	0	1.9710	0	34.5950	0	27.660	0	1944.942	0	54.4	4	16.4	4	-1E+10	1	-1E+10	1	-1E+10	1	-1E+10	1	-1E+10	1	-1E+10	1
4902643	31	C	04/27/2025	11:43	-133.553	43.380	0	1990.30	0	1.9570	0	34.5970	0	27.663	0	1965.089	0	55.4	4	16.7	4	-1E+10	1	-1E+10	1	-1E+10	1	-1E+10	1	-1E+10	1	-1E+10	1
4902643	31	C	04/27/2025	11:43	-133.553	43.380	0	2010.00	0	1.9400	0	34.5990	4	27.666	0	1984.447	0	56.5	4	17.0	4	-1E+10	1	-1E+10	1	-1E+10	1	-1E+10	1	-1E+10	1	-1E+10	1
4902643	31	C	04/27/2025	11:43	-133.553	43.380	0	2030.00	0	1.9260	0	34.6000	4	27.668	0	2004.099	0	57.3	4	17.2	4	-1E+10	1	-1E+10	1	-1E+10	1	-1E+10	1	-1E+10	1	-1E+10	1
4902643	31	C	04/27/2025	11:43	-133.553	43.380	0	2050.30	0	1.9160	0	34.6020	4	27.670	0	2024.044	0	58.2	4	17.5	4	-1E+10	1	-1E+10	1	-1E+10	1	-1E+10	1	-1E+10	1	-1E+10	1
4902643	31	C	04/27/2025	11:43	-133.553	43.380	0	2070.30	0	1.9070	0	34.6040	4	27.673	0	2043.692	0	59.1	4	17.8	4	-1E+10	1	-1E+10	1	-1E+10	1	-1E+10	1	-1E+10	1	-1E+10	1
4902643	31	C	04/27/2025	11:43	-133.553	43.380	0	2090.30	0	1.8980	0	34.6060	4	27.675	0	2063.338	0	59.8	4	18.0	4	-1E+10	1	-1E+10	1	-1E+10	1	-1E+10	1	-1E+10	1	-1E+10	1
4902643	31	C	04/27/2025	11:43	-133.553	43.380	0	2110.10	0	1.8890	0	34.6070	4	27.677	0	2082.787	0	60.6	4	18.2	4	-1E+10	1	-1E+10	1	-1E+10	1	-1E+10	1	-1E+10	1	-1E+10	1
4902643	31	C	04/27/2025	11:43	-133.553	43.380	0	2130.20	0	1.8820	0	34.6080	4	27.678	0	2102.527	0	61.2	4	18.4	4	-1E+10	1	-1E+10	1	-1E+10	1	-1E+10	1	-1E+10	1	-1E+10	1
4902643	31	C	04/27/2025	11:43	-133.553	43.380	0	2150.00	0	1.8730	0	34.6090	4	27.680	0	2121.972	0	61.9	4	18.6	4	-1E+10	1	-1E+10	1	-1E+10	1	-1E+10	1	-1E+10	1	-1E+10	1
4902643	31	C	04/27/2025	11:43	-133.553	43.380	0	2170.10	0	1.8650	0	34.6110	4	27.682	0	2141.709	0	62.6	4	18.8	4	-1E+10	1	-1E+10	1	-1E+10	1	-1E+10	1	-1E+10	1	-1E+10	1
4902643	31	C	04/27/2025	11:43	-133.553	43.380	0	2190.00	0	1.8580	0	34.6120	4	27.683	0	2161.248	0	63.3	4	19.0	4	-1E+10	1	-1E+10	1	-1E+10	1	-1E+10	1	-1E+10	1	-1E+10	1
4902643	31	C	04/27/2025	11:43	-133.553	43.380	0	2209.90	0	1.8510	0	34.6130	4	27.685	0	2180.786	0	64.0	4	19.2	4	-1E+10	1	-1E+10	1	-1E+10	1	-1E+10	1	-1E+10	1	-1E+10	1
4902643	31	C	04/27/2025	11:43	-133.553	43.380	0	2230.10	0	1.8450	0	34.6140	4	27.686	0	2200.616	0	64.6	4	19.4	4	-1E+10	1	-1E+10	1	-1E+10	1	-1E+10	1	-1E+10	1	-1E+10	1
4902643	31	C	04/27/2025	11:43	-133.553	43.380	0	2250.40	0	1.8350	0	34.6160	4	27.689	0	2220.542	0	65.6	4	19.7	4	-1E+10	1	-1E+10	1	-1E+10	1	-1E+10	1	-1E+10	1	-1E+10	1
4902643	31	C	04/27/2025	11:43	-133.553	43.380	0	2270.00	0	1.8260	0	34.6170	4	27.690	0	2239.780	0	66.4	4	19.9	4	-1E+10	1	-1E+10	1	-1E+10	1	-1E+10	1	-1E+10	1	-1E+10	1
4902643	31	C	04/27/2025	11:43	-133.553	43.380	0	2289.80	0	1.8200	0	34.6180	4	27.692	0	2259.212	0	67.0	4	20.1	4	-1E+10	1	-1E+10	1	-1E+10	1	-1E+10	1	-1E+10	1	-1E+10	1
4902643	31	C	04/27/2025	11:43	-133.553	43.380	0	2310.20	0	1.8150	0	34.6190	4	27.693	0	2279.231	0	67.6	4	20.3	4	-1E+10	1	-1E+10	1	-1E+10	1	-1E+10	1	-1E+10	1	-1E+10	1
4902643	31	C	04/27/2025	11:43	-133.553	43.380	0	2330.00	0	1.8070	0	34.6200	4	27.695	0	2298.659	0	68.5	4	20.6	4	-1E+10	1	-1E+10	1	-1E+10	1	-1E+10	1	-1E+10	1	-1E+10	1
4902643	31	C	04/27/2025	11:43	-133.553	43.380	0	2349.60	0	1.7980	0	34.6220	4	27.697	0	2317.890	0	69.3	4	20.8	4	-1E+10	1	-1E+10	1	-1E+10	1	-1E+10	1	-1E+10	1	-1E+10	1
4902643	31	C	04/27/2025	11:43	-133.553	43.380	0	2370.30	0	1.7910	0	34.6230	4	27.698	0	2338.197	0	70.1	4	21.0	4	-1E+10	1	-1E+10	1	-1E+10	1	-1E+10	1	-1E+10	1	-1E+10	1
4902643	31	C	04/27/2025	11:43	-133.553	43.380	0	2389.90	0	1.7800	0	34.6240	4	27.700	0	2357.424	0	71.2	4	21.4	4	-1E+10	1	-1E+10	1	-1E+10	1	-1E+10	1	-1E+10	1	-1E+10	1
4902643	31	C	04/27/2025	11:43	-133.553	43.380	0	2409.80	0	1.7710	0	34.6260	4	27.702	0	2376.944	0	72.1	4	21.6	4	-1E+10	1	-1E+10	1	-1E+10	1	-1E+10	1	-1E+10	1	-1E+10	1
4902643	31	C	04/27/2025	11:43	-133.553	43.380	0	2429.80	0	1.7620	0	34.6270	4	27.704	0	2396.559	0	73.1	4	21.9	4	-1E+10	1	-1E+10	1	-1E+10	1	-1E+10	1	-1E+10	1	-1E+10	1
4902643	31	C	04/27/2025	11:43	-133.553	43.380	0	2449.80	0	1.7540	0	34.6280	4	27.706	0	2416.173	0	74.0	4	22.2	4	-1E+10	1	-1E+10	1	-1E+10	1	-1E+10	1	-1E+10	1	-1E+10	1
4902643	31	C	04/27/2025	11:43	-133.553	43.380	0	2469.70	0	1.7450	0	34.6290	4	27.707	0	2435.687	0	75.0	4	22.5	4	-1E+10	1	-1E+10	1	-1E+10	1	-1E+10	1	-1E+10	1	-1E+10	1
4902643	31	C	04/27/2025	11:43	-133.553	43.380	0	2489.80	0	1.7370	0	34.6310	4	27.709	0	2455.396	0	75.8	4	22.7	4	-1E+10	1	-1E+10	1	-1E+10	1	-1E+10	1	-1E+10	1	-1E+10	1
4902643	31	C	04/27/2025	11:43	-133.553	43.380	0	2510.00	0	1.7280	0	34.6320	4	27.711	0	2475.201	0	76.8	4	23.0	4	-1E+10	1	-1E+10	1	-1E+10	1	-1E+10	1	-1E+10	1	-1E+10	1
4902643	31	C	04/27/2025	11:43	-133.553	43.380	0	2530.20	0	1.7210	0	34.6330	4	27.713	0	2495.003	0	77.5	4	23.2	4	-1E+10	1	-1E+10	1	-1E+10	1	-1E+10	1	-1E+10	1	-1E+10	1
4902643	31	C	04/27/2025	11:43	-133.553	43.380	0	2550.10	0	1.7150	0	34.6340	4	27.714	0	2514.510	0	78.1	4	23.4	4	-1E+10	1	-1E+10	1	-1E+10	1	-1E+10	1	-1E+10	1	-1E+10	1
4902643	31	C	04/27/2025	11:43	-133.553	43.380	0	2570.20	0	1.7110	0	34.6340	4	27.714	0	2534.211	0	78.7	4	23.6	4	-1E+10	1	-1E+10	1	-1E+10	1	-1E+10	1	-1E+10	1	-1E+10	1
4902643	31	C	04/27/2025	11:43	-133.553	43.380	0	2590.10	0	1.7050	0	34.6350	4	27.716	0	2553.715	0	79.5	4	23.8	4	-1E+10	1	-1E+10	1	-1E+10	1	-1E+10	1	-1E+10	1	-1E+10	1
4902643	31	C	04/27/2025	11:43	-133.553	43.380	0	2610.10	0	1.6990	0	34.6360	4	27.717	0	2573.315	0	80.1	4	24.0	4	-1E+10	1	-1E+10	1	-1E+10	1	-1E+10	1	-1E+10	1	-1E+10	1
4902643	31	C	04/27/2025	11:43	-133.553	43.380	0	2630.70	0	1.6950	0	34.6360	4	27.717	0	2593.500	0	80.6	4	24.1	4	-1E+10	1	-1E+10	1	-1E+10	1	-1E+10	1	-1E+10	1	-1E+10	1
4902643	31	C	04/27/2025	11:43	-133.553	43.380	0	2649.90	0	1.6900	0	34.6370	4	27.719	0	2612.312	0	81.3	4	24.3	4	-1E+10	1	-1E+10	1	-1E+10	1	-1E+10	1	-1E+10	1	-1E+10	1
4902643	31	C	04/27/2025	11:43	-133.553	43.380	0	2669.70	0	1.6830	0	34.6380	4	27.720	0	2631.711	0	81.9	4	24.5	4	-1E+10	1	-1E+10	1	-1E+10	1	-1E+10	1	-1E+10	1	-1E+10	1
4902643	31	C	04/27/2025	11:43	-133.553	43.380	0	2689.70	0	1.6750	0	34.6390	4	27.722	0	2651.303	0	82.6	4	24.7	4	-1E+10	1	-1E+10	1	-1E+10	1	-1E+10	1	-1E+10	1	-1E+10	1
4902643	31	C	04/27/2025	11:43	-133.553	43.380	0	2710.20	0	1.6700	0	34.6400	4	27.723	0	2671.384	0	83.6	4	25.0	4	-1E+10	1	-1E+10	1	-1E+10	1	-1E+10	1	-1E+10	1	-1E+10	1
4902643	31	C	04/27/2025	11:43	-133.553	43.380	0	2729.80	0	1.6640	0	34.6410	4	27.724	0	2690.581	0	84.5	4	25.3	4	-1E+10	1	-1E+10	1	-1E+10	1	-1E+10	1	-1E+10	1	-1E+10	1
4902643	31	C	04/27/2025	11:43	-133.553	43.380	0	2749.70	0	1.6600	0	34.6420	4	27.726	0	2710.070	0	85.3	4	25.5	4	-1E+10	1	-1E+10	1	-1E+10	1	-1E+10	1	-1E+10	1	-1E+10	1
4902643	31	C	04/27/2025	11:43	-133.553	43.380	0	2770.10	0	1.6550	0	34.6430	4	27.727	0	2730.047	0	85.8	4	25.6	4	-1E+10	1	-1E+10	1	-1E+10	1	-1E+10	1	-1E+10	1	-1E+10	1
4902643	31	C	04/27/2025	11:43	-133.553	43.380	0	2790.20	0	1.6510	0	34.6440	4	27.728	0	2749.729	0	86.7	4	25.9	4	-1E+10	1	-1E+10	1	-1E+10	1	-1E+10	1	-1E+10	1	-1E+10	1
4902643	31	C	04/27/2025	11:43	-133.553	43.380	0	2810.00	0	1.6500	0	34.6440	4	27.728	0	2769.115	0	87.3	4	26.1	4	-1E+10	1	-1E+10	1	-1E+10	1	-1E+10	1	-1E+10	1	-1E+10	1
4902643	31	C	04/27/2025	11:43	-133.553	43.380	0	2829.80	0	1.6450	0	34.6450	4	27.730	0	2788.499	0	88.0	4	26.3	4	-1E+10	1	-1E+10	1	-1E+10	1	-1E+10	1	-1E+10	1	-1E+10	1
4902643	31	C	04/27/2025	11:43	-133.553	43.380	0	2849.50	0	1.6420	0	34.6460	4	27.731	0	2807.783	0	88.5	4	26.5	4	-1E+10	1	-1E+10	1	-1E+10	1	-1E+10	1	-1E+10	1	-1E+10	1
4902643	31	C	04/27/2025	11:43	-133.553	43.380	0	2870.00	0	1.6380	0	34.6470	4	27.732	0	2827.849	0	89.1	4	26.6	4	-1E+10	1	-1E+10	1	-1E+10	1	-1E+10	1	-1E+10	1	-1E+10	1
4902643	31	C	04/27/2025	11:43	-133.553	43.380	0	2890.00	0	1.6340	0	34.6470	4	27.732	0	2847.424	0	89.8	4	26.8	4	-1E+10	1	-1E+10	1	-1E+10	1	-1E+10	1	-1E+10	1	-1E+10	1
4902643	31	C	04/27/2025	11:43	-133.553	43.380	0	2910.20	0	1.6300	0	34.6480	4	27.734	0	2867.193	0	90.5	4	27.1	4	-1E+10	1	-1E+10	1	-1E+10	1	-1E+10	1	-1E+10	1	-1E+10	1
4902643	31	C	04/27/2025	11:43	-133.553	43.380	0	2930.20	0	1.6240	0	34.6490	4	27.735	0	2886.764	0	91.2	4	27.3	4	-1E+10	1	-1E+10	1	-1E+10	1	-1E+10	1	-1E+10	1	-1E+10	1
4902643	31	C	04/27/2025	11:43	-133.553	43.380	0	2950.10	0	1.6190	0	34.6490	4	27.735	0	2906.236	0	91.8	4	27.4	4	-1E+10	1	-1E+10	1	-1E+10	1	-1E+10	1	-1E+10	1	-1E+10	1
4902643	31	C	04/27/2025	11:43	-133.553	43.380	0	2970.10	0	1.6150	0	34.6500	4	27.737	0	2925.803	0	92.4	4	27.6	4	-1E+10	1	-1E+10	1	-1E+10	1	-1E+10	1	-1E+10	1	-1E+10	1
4902643	31	C	04/27/2025	11:43	-133.553	43.380	0	2990.20	0	1.6120	0	34.6510	4	27.738	0	2945.467	0	92.9	4	27.8	4	-1E+10	1	-1E+10	1	-1E+10	1	-1E+10	1	-1E+10	1	-1E+10	1
4902643	31	C	04/27/2025	11:43	-133.553	43.380	0	3010.30	0	1.6070	0	34.6510	4	27.738	0	2965.129	0	93.6	4	27.9	4	-1E+10	1	-1E+10	1	-1E+10	1	-1E+10	1	-1E+10	1	-1E+10	1
4902643	31	C	04/27/2025	11:43	-133.553	43.380	0	3030.30	0	1.6020	0	34.6520	4	27.740	0	2984.691	0	94.3	4	28.2	4	-1E+10	1	-1E+10	1	-1E+10	1	-1E+10	1	-1E+10	1	-1E+10	1
4902643	31	C	04/27/2025	11:43	-133.553	43.380	0	3049.90	0	1.5980	0	34.6530	4	27.741	0	3003.860	0	94.9	4	28.4	4	-1E+10	1	-1E+10	1	-1E+10	1	-1E+10	1	-1E+10	1	-1E+10	1
4902643	31	C	04/27/2025	11:43	-133.553	43.380	0	3070.00	0	1.5950	0	34.6530	4	27.741	0	3023.517	0	95.5	4	28.5	4	-1E+10	1	-1E+10	1	-1E+10	1	-1E+10	1	-1E+10	1	-1E+10	1
4902643	31	C	04/27/2025	11:43	-133.553	43.380	0	3089.90	0	1.5900	0	34.6540	4	27.742	0	3042.976	0	96.1	4	28.7	4	-1E+10	1	-1E+10	1	-1E+10	1	-1E+10	1	-1E+10	1	-1E+10	1
4902643	31	C	04/27/2025	11:43	-133.553	43.380	0	3110.10	0	1.5860	0	34.6550	4	27.744	0	3062.727	0	96.9	4	28.9	4	-1E+10	1	-1E+10	1	-1E+10	1	-1E+10	1	-1E+10	1	-1E+10	1
4902643	31	C	04/27/2025	11:43	-133.553	43.380	0	3130.20	0	1.5830	0	34.6550	4	27.744	0	3082.379	0	97.4	4	29.1	4	-1E+10	1	-1E+10	1	-1E+10	1	-1E+10	1	-1E+10	1	-1E+10	1
4902643	31	C	04/27/2025	11:43	-133.553	43.380	0	3150.10	0	1.5820	0	34.6560	4	27.745	0	3101.833	0	97.8	4	29.2	4	-1E+10	1	-1E+10	1	-1E+10	1	-1E+10	1	-1E+10	1	-1E+10	1
4902643	31	C	04/27/2025	11:43	-133.553	43.380	0	3169.80	0	1.5780	0	34.6560	4	27.745	0	3121.090	0	98.4	4	29.4	4	-1E+10	1	-1E+10	1	-1E+10	1	-1E+10	1	-1E+10	1	-1E+10	1
4902643	31	C	04/27/2025	11:43	-133.553	43.380	0	3190.30	0	1.5760	0	34.6570	4	27.746	0	3141.127	0	98.8	4	29.5	4	-1E+10	1	-1E+10	1	-1E+10	1	-1E+10	1	-1E+10	1	-1E+10	1
4902643	31	C	04/27/2025	11:43	-133.553	43.380	0	3209.90	0	1.5730	0	34.6570	4	27.747	0	3160.282	0	99.4	4	29.7	4	-1E+10	1	-1E+10	1	-1E+10	1	-1E+10	1	-1E+10	1	-1E+10	1
4902643	31	C	04/27/2025	11:43	-133.553	43.380	0	3229.70	0	1.5690	0	34.6580	4	27.748	0	3179.631	0	100.0	4	29.8	4	-1E+10	1	-1E+10	1	-1E+10	1	-1E+10	1	-1E+10	1	-1E+10	1
4902643	31	C	04/27/2025	11:43	-133.553	43.380	0	3249.70	0	1.5670	0	34.6590	4	27.749	0	3199.174	0	100.4	4	30.0	4	-1E+10	1	-1E+10	1	-1E+10	1	-1E+10	1	-1E+10	1	-1E+10	1
4902643	31	C	04/27/2025	11:43	-133.553	43.380	0	3269.90	0	1.5650	0	34.6590	4	27.749	0	3218.911	0	100.9	4	30.1	4	-1E+10	1	-1E+10	1	-1E+10	1	-1E+10	1	-1E+10	1	-1E+10	1
4902643	31	C	04/27/2025	11:43	-133.553	43.380	0	3290.10	0	1.5630	0	34.6600	4	27.750	0	3238.646	0	101.2	4	30.2	4	-1E+10	1	-1E+10	1	-1E+10	1	-1E+10	1	-1E+10	1	-1E+10	1
4902643	31	C	04/27/2025	11:43	-133.553	43.380	0	3310.10	0	1.5610	0	34.6600	4	27.751	0	3258.184	0	101.5	4	30.3	4	-1E+10	1	-1E+10	1	-1E+10	1	-1E+10	1	-1E+10	1	-1E+10	1
4902643	31	C	04/27/2025	11:43	-133.553	43.380	0	3330.40	0	1.5600	0	34.6600	4	27.751	0	3278.013	0	102.0	4	30.4	4	-1E+10	1	-1E+10	1	-1E+10	1	-1E+10	1	-1E+10	1	-1E+10	1
4902643	31	C	04/27/2025	11:43	-133.553	43.380	0	3349.80	0	1.5570	0	34.6610	4	27.752	0	3296.961	0	102.4	4	30.5	4	-1E+10	1	-1E+10	1	-1E+10	1	-1E+10	1	-1E+10	1	-1E+10	1
4902643	31	C	04/27/2025	11:43	-133.553	43.380	0	3369.80	0	1.5570	0	34.6610	4	27.752	0	3316.494	0	102.7	4	30.6	4	-1E+10	1	-1E+10	1	-1E+10	1	-1E+10	1	-1E+10	1	-1E+10	1
4902643	31	C	04/27/2025	11:43	-133.553	43.380	0	3390.00	0	1.5560	0	34.6610	4	27.752	0	3336.220	0	103.1	4	30.8	4	-1E+10	1	-1E+10	1	-1E+10	1	-1E+10	1	-1E+10	1	-1E+10	1
4902643	31	C	04/27/2025	11:43	-133.553	43.380	0	3410.20	0	1.5530	0	34.6620	4	27.754	0	3355.944	0	103.6	4	30.9	4	-1E+10	1	-1E+10	1	-1E+10	1	-1E+10	1	-1E+10	1	-1E+10	1
4902643	31	C	04/27/2025	11:43	-133.553	43.380	0	3430.40	0	1.5530	0	34.6620	4	27.754	0	3375.667	0	103.9	4	31.0	4	-1E+10	1	-1E+10	1	-1E+10	1	-1E+10	1	-1E+10	1	-1E+10	1
4902643	31	C	04/27/2025	11:43	-133.553	43.380	0	3450.10	0	1.5520	0	34.6630	4	27.755	0	3394.899	0	104.3	4	31.1	4	-1E+10	1	-1E+10	1	-1E+10	1	-1E+10	1	-1E+10	1	-1E+10	1
4902643	31	C	04/27/2025	11:43	-133.553	43.380	0	3470.00	0	1.5510	0	34.6630	4	27.755	0	3414.326	0	104.7	4	31.2	4	-1E+10	1	-1E+10	1	-1E+10	1	-1E+10	1	-1E+10	1	-1E+10	1
4902643	31	C	04/27/2025	11:43	-133.553	43.380	0	3489.80	0	1.5500	0	34.6640	4	27.756	0	3433.652	0	105.1	4	31.4	4	-1E+10	1	-1E+10	1	-1E+10	1	-1E+10	1	-1E+10	1	-1E+10	1
4902643	31	C	04/27/2025	11:43	-133.553	43.380	0	3509.80	0	1.5490	0	34.6640	4	27.756	0	3453.173	0	105.5	4	31.5	4	-1E+10	1	-1E+10	1	-1E+10	1	-1E+10	1	-1E+10	1	-1E+10	1
4902643	31	C	04/27/2025	11:43	-133.553	43.380	0	3530.50	0	1.5490	0	34.6650	4	27.757	0	3473.375	0	105.7	4	31.5	4	-1E+10	1	-1E+10	1	-1E+10	1	-1E+10	1	-1E+10	1	-1E+10	1
4902643	31	C	04/27/2025	11:43	-133.553	43.380	0	3550.20	0	1.5490	0	34.6650	4	27.757	0	3492.599	0	106.1	4	31.6	4	-1E+10	1	-1E+10	1	-1E+10	1	-1E+10	1	-1E+10	1	-1E+10	1
4902643	31	C	04/27/2025	11:43	-133.553	43.380	0	3569.80	0	1.5480	0	34.6650	4	27.758	0	3511.724	0	106.5	4	31.8	4	-1E+10	1	-1E+10	1	-1E+10	1	-1E+10	1	-1E+10	1	-1E+10	1
4902643	31	C	04/27/2025	11:43	-133.553	43.380	0	3589.70	0	1.5480	0	34.6660	4	27.758	0	3531.139	0	106.7	4	31.8	4	-1E+10	1	-1E+10	1	-1E+10	1	-1E+10	1	-1E+10	1	-1E+10	1
4902643	31	C	04/27/2025	11:43	-133.553	43.380	0	3609.80	0	1.5490	0	34.6660	4	27.759	0	3550.749	0	106.9	4	31.9	4	-1E+10	1	-1E+10	1	-1E+10	1	-1E+10	1	-1E+10	1	-1E+10	1
4902643	31	C	04/27/2025	11:43	-133.553	43.380	0	3630.10	0	1.5490	0	34.6670	4	27.759	0	3570.551	0	107.1	4	32.0	4	-1E+10	1	-1E+10	1	-1E+10	1	-1E+10	1	-1E+10	1	-1E+10	1
4902643	31	C	04/27/2025	11:43	-133.553	43.380	0	3650.00	0	1.5490	0	34.6670	4	27.760	0	3589.962	0	107.3	4	32.0	4	-1E+10	1	-1E+10	1	-1E+10	1	-1E+10	1	-1E+10	1	-1E+10	1
4902643	31	C	04/27/2025	11:43	-133.553	43.380	0	3670.10	0	1.5490	0	34.6670	4	27.760	0	3609.566	0	107.6	4	32.1	4	-1E+10	1	-1E+10	1	-1E+10	1	-1E+10	1	-1E+10	1	-1E+10	1
4902643	31	C	04/27/2025	11:43	-133.553	43.380	0	3689.90	0	1.5500	0	34.6680	4	27.761	0	3628.875	0	107.7	4	32.1	4	-1E+10	1	-1E+10	1	-1E+10	1	-1E+10	1	-1E+10	1	-1E+10	1
4902643	31	C	04/27/2025	11:43	-133.553	43.380	0	3709.80	0	1.5510	0	34.6680	4	27.761	0	3648.281	0	107.9	4	32.2	4	-1E+10	1	-1E+10	1	-1E+10	1	-1E+10	1	-1E+10	1	-1E+10	1
4902643	31	C	04/27/2025	11:43	-133.553	43.380	0	3729.80	0	1.5510	0	34.6680	4	27.761	0	3667.782	0	108.1	4	32.2	4	-1E+10	1	-1E+10	1	-1E+10	1	-1E+10	1	-1E+10	1	-1E+10	1
4902643	31	C	04/27/2025	11:43	-133.553	43.380	0	3750.10	0	1.5500	0	34.6690	4	27.762	0	3687.574	0	108.3	4	32.3	4	-1E+10	1	-1E+10	1	-1E+10	1	-1E+10	1	-1E+10	1	-1E+10	1
4902643	31	C	04/27/2025	11:43	-133.553	43.380	0	3770.10	0	1.5500	0	34.6690	4	27.762	0	3707.072	0	108.4	4	32.3	4	-1E+10	1	-1E+10	1	-1E+10	1	-1E+10	1	-1E+10	1	-1E+10	1
4902643	31	C	04/27/2025	11:43	-133.553	43.380	0	3790.60	0	1.5510	0	34.6690	4	27.762	0	3727.056	0	108.3	4	32.3	4	-1E+10	1	-1E+10	1	-1E+10	1	-1E+10	1	-1E+10	1	-1E+10	1
4902643	31	C	04/27/2025	11:43	-133.553	43.380	0	3801.70	0	1.5500	0	34.6700	4	27.763	0	3737.875	0	107.9	4	32.2	4	-1E+10	1	-1E+10	1	-1E+10	1	-1E+10	1	-1E+10	1	-1E+10	1
4902643	31	C	04/27/2025	11:43	-133.553	43.380	0																										
4902643	32	C	05/07/2025	10:07	-133.526	43.422	0	1.00	0	12.1935	0	32.7495	0	24.806	0	0.992	0	258.3	4	97.0	4	-1E+10	1	-1E+10	1	-1E+10	1	-1E+10	1	-1E+10	1	-1E+10	1
4902643	32	C	05/07/2025	10:07	-133.526	43.422	0	1.10	0	12.1840	0	32.7530	0	24.810	0	1.091	0	258.3	4	96.9	4	-1E+10	1	-1E+10	1	-1E+10	1	-1E+10	1	-1E+10	1	-1E+10	1
4902643	32	C	05/07/2025	10:07	-133.526	43.422	0	1.20	0	12.1903	0	32.7600	0	24.815	0	1.190	0	258.3	4	97.0	4	-1E+10	1	-1E+10	1	-1E+10	1	-1E+10	1	-1E+10	1	-1E+10	1
4902643	32	C	05/07/2025	10:07	-133.526	43.422	0	1.30	0	12.2040	0	32.7495	0	24.804	0	1.290	0	-1e10	1	-1e10	1	-1E+10	1	-1E+10	1	-1E+10	1	-1E+10	1	-1E+10	1	-1E+10	1
4902643	32	C	05/07/2025	10:07	-133.526	43.422	0	1.60	0	12.2060	0	32.7550	0	24.808	0	1.587	0	258.2	4	96.9	4	-1E+10	1	-1E+10	1	-1E+10	1	-1E+10	1	-1E+10	1	-1E+10	1
4902643	32	C	05/07/2025	10:07	-133.526	43.422	0	2.70	0	12.2210	0	32.7460	0	24.798	0	2.678	0	257.8	4	96.8	4	-1E+10	1	-1E+10	1	-1E+10	1	-1E+10	1	-1E+10	1	-1E+10	1
4902643	32	C	05/07/2025	10:07	-133.526	43.422	0	3.70	0	12.2200	0	32.7480	0	24.800	0	3.670	0	257.7	4	96.8	4	-1E+10	1	-1E+10	1	-1E+10	1	-1E+10	1	-1E+10	1	-1E+10	1
4902643	32	C	05/07/2025	10:07	-133.526	43.422	0	4.70	0	12.2190	0	32.7490	0	24.801	0	4.662	0	257.8	4	96.8	4	-1E+10	1	-1E+10	1	-1E+10	1	-1E+10	1	-1E+10	1	-1E+10	1
4902643	32	C	05/07/2025	10:07	-133.526	43.422	0	5.60	0	12.2210	0	32.7490	0	24.800	0	5.555	0	257.8	4	96.8	4	-1E+10	1	-1E+10	1	-1E+10	1	-1E+10	1	-1E+10	1	-1E+10	1
4902643	32	C	05/07/2025	10:07	-133.526	43.422	0	6.60	0	12.2180	0	32.7500	0	24.802	0	6.547	0	257.8	4	96.8	4	-1E+10	1	-1E+10	1	-1E+10	1	-1E+10	1	-1E+10	1	-1E+10	1
4902643	32	C	05/07/2025	10:07	-133.526	43.422	0	7.90	0	12.2170	0	32.7500	0	24.802	0	7.837	0	257.7	4	96.8	4	-1E+10	1	-1E+10	1	-1E+10	1	-1E+10	1	-1E+10	1	-1E+10	1
4902643	32	C	05/07/2025	10:07	-133.526	43.422	0	8.80	0	12.2180	0	32.7500	0	24.802	0	8.730	0	257.7	4	96.8	4	-1E+10	1	-1E+10	1	-1E+10	1	-1E+10	1	-1E+10	1	-1E+10	1
4902643	32	C	05/07/2025	10:07	-133.526	43.422	0	9.90	0	12.2180	0	32.7490	0	24.801	0	9.821	0	257.7	4	96.8	4	-1E+10	1	-1E+10	1	-1E+10	1	-1E+10	1	-1E+10	1	-1E+10	1
4902643	32	C	05/07/2025	10:07	-133.526	43.422	0	14.90	0	12.1050	0	32.7530	0	24.826	0	14.781	0	258.2	4	96.8	4	-1E+10	1	-1E+10	1	-1E+10	1	-1E+10	1	-1E+10	1	-1E+10	1
4902643	32	C	05/07/2025	10:07	-133.526	43.422	0	24.70	0	11.7560	0	32.7480	0	24.887	0	24.502	0	258.7	4	96.2	4	-1E+10	1	-1E+10	1	-1E+10	1	-1E+10	1	-1E+10	1	-1E+10	1
4902643	32	C	05/07/2025	10:07	-133.526	43.422	0	33.80	0	11.6030	0	32.7700	0	24.932	0	33.528	0	256.8	4	95.2	4	-1E+10	1	-1E+10	1	-1E+10	1	-1E+10	1	-1E+10	1	-1E+10	1
4902643	32	C	05/07/2025	10:07	-133.526	43.422	0	44.60	0	11.1910	0	32.7660	0	25.004	0	44.240	0	255.2	4	93.8	4	-1E+10	1	-1E+10	1	-1E+10	1	-1E+10	1	-1E+10	1	-1E+10	1
4902643	32	C	05/07/2025	10:07	-133.526	43.422	0	54.50	0	11.0390	0	32.7740	0	25.037	0	54.058	0	252.3	4	92.5	4	-1E+10	1	-1E+10	1	-1E+10	1	-1E+10	1	-1E+10	1	-1E+10	1
4902643	32	C	05/07/2025	10:07	-133.526	43.422	0	64.90	0	10.9130	0	32.7720	0	25.058	0	64.372	0	250.3	4	91.5	4	-1E+10	1	-1E+10	1	-1E+10	1	-1E+10	1	-1E+10	1	-1E+10	1
4902643	32	C	05/07/2025	10:07	-133.526	43.422	0	74.80	0	10.8310	0	32.7620	0	25.065	0	74.190	0	248.0	4	90.5	4	-1E+10	1	-1E+10	1	-1E+10	1	-1E+10	1	-1E+10	1	-1E+10	1
4902643	32	C	05/07/2025	10:07	-133.526	43.422	0	84.90	0	10.7710	0	32.7660	0	25.079	0	84.206	0	243.5	4	88.7	4	-1E+10	1	-1E+10	1	-1E+10	1	-1E+10	1	-1E+10	1	-1E+10	1
4902643	32	C	05/07/2025	10:07	-133.526	43.422	0	94.60	0	10.6920	0	32.7900	0	25.111	0	93.824	0	235.0	4	85.5	4	-1E+10	1	-1E+10	1	-1E+10	1	-1E+10	1	-1E+10	1	-1E+10	1
4902643	32	C	05/07/2025	10:07	-133.526	43.422	0	105.20	0	10.4800	0	32.9300	0	25.257	0	104.335	0	221.2	4	80.2	4	-1E+10	1	-1E+10	1	-1E+10	1	-1E+10	1	-1E+10	1	-1E+10	1
4902643	32	C	05/07/2025	10:07	-133.526	43.422	0	114.90	0	9.7230	0	33.1110	0	25.526	0	113.952	0	211.4	4	75.5	4	-1E+10	1	-1E+10	1	-1E+10	1	-1E+10	1	-1E+10	1	-1E+10	1
4902643	32	C	05/07/2025	10:07	-133.526	43.422	0	124.60	0	9.4180	0	33.2760	0	25.704	0	123.569	0	203.2	4	72.2	4	-1E+10	1	-1E+10	1	-1E+10	1	-1E+10	1	-1E+10	1	-1E+10	1
4902643	32	C	05/07/2025	10:07	-133.526	43.422	0	135.50	0	9.1680	0	33.4520	0	25.882	0	134.376	0	197.2	4	69.8	4	-1E+10	1	-1E+10	1	-1E+10	1	-1E+10	1	-1E+10	1	-1E+10	1
4902643	32	C	05/07/2025	10:07	-133.526	43.422	0	145.00	0	8.9660	0	33.5550	0	25.995	0	143.793	0	193.0	4	68.0	4	-1E+10	1	-1E+10	1	-1E+10	1	-1E+10	1	-1E+10	1	-1E+10	1
4902643	32	C	05/07/2025	10:07	-133.526	43.422	0	154.90	0	8.8270	0	33.6110	0	26.061	0	153.607	0	190.3	4	66.9	4	-1E+10	1	-1E+10	1	-1E+10	1	-1E+10	1	-1E+10	1	-1E+10	1
4902643	32	C	05/07/2025	10:07	-133.526	43.422	0	164.90	0	8.4650	0	33.6820	0	26.172	0	163.520	0	189.5	4	66.1	4	-1E+10	1	-1E+10	1	-1E+10	1	-1E+10	1	-1E+10	1	-1E+10	1
4902643	32	C	05/07/2025	10:07	-133.526	43.422	0	174.90	0	8.3460	0	33.7440	0	26.239	0	173.432	0	190.0	4	66.1	4	-1E+10	1	-1E+10	1	-1E+10	1	-1E+10	1	-1E+10	1	-1E+10	1
4902643	32	C	05/07/2025	10:07	-133.526	43.422	0	184.70	0	8.1810	0	33.7740	0	26.287	0	183.145	0	185.7	4	64.4	4	-1E+10	1	-1E+10	1	-1E+10	1	-1E+10	1	-1E+10	1	-1E+10	1
4902643	32	C	05/07/2025	10:07	-133.526	43.422	0	194.60	0	7.9280	0	33.7950	0	26.341	0	192.958	0	180.4	4	62.2	4	-1E+10	1	-1E+10	1	-1E+10	1	-1E+10	1	-1E+10	1	-1E+10	1
4902643	32	C	05/07/2025	10:07	-133.526	43.422	0	209.60	0	7.6830	0	33.8250	0	26.400	0	207.823	0	175.8	4	60.3	4	-1E+10	1	-1E+10	1	-1E+10	1	-1E+10	1	-1E+10	1	-1E+10	1
4902643	32	C	05/07/2025	10:07	-133.526	43.422	0	230.00	0	7.3670	0	33.8410	0	26.458	0	228.039	0	167.9	4	57.2	4	-1E+10	1	-1E+10	1	-1E+10	1	-1E+10	1	-1E+10	1	-1E+10	1
4902643	32	C	05/07/2025	10:07	-133.526	43.422	0	249.00	0	7.0930	0	33.8430	0	26.498	0	246.866	0	157.0	4	53.2	4	-1E+10	1	-1E+10	1	-1E+10	1	-1E+10	1	-1E+10	1	-1E+10	1
4902643	32	C	05/07/2025	10:07	-133.526	43.422	0	270.00	0	6.7610	0	33.8460	0	26.546	0	267.672	0	146.4	4	49.2	4	-1E+10	1	-1E+10	1	-1E+10	1	-1E+10	1	-1E+10	1	-1E+10	1
4902643	32	C	05/07/2025	10:07	-133.526	43.422	0	290.00	0	6.3750	0	33.8440	0	26.595	0	287.486	0	133.2	4	44.4	4	-1E+10	1	-1E+10	1	-1E+10	1	-1E+10	1	-1E+10	1	-1E+10	1
4902643	32	C	05/07/2025	10:07	-133.526	43.422	0	310.10	0	6.1010	0	33.8480	0	26.633	0	307.397	0	120.0	4	39.7	4	-1E+10	1	-1E+10	1	-1E+10	1	-1E+10	1	-1E+10	1	-1E+10	1
4902643	32	C	05/07/2025	10:07	-133.526	43.422	0	329.80	0	5.8830	0	33.8570	0	26.668	0	326.910	0	108.7	4	35.8	4	-1E+10	1	-1E+10	1	-1E+10	1	-1E+10	1	-1E+10	1	-1E+10	1
4902643	32	C	05/07/2025	10:07	-133.526	43.422	0	349.60	0	5.6850	0	33.8640	0	26.698	0	346.520	0	100.8	4	33.1	4	-1E+10	1	-1E+10	1	-1E+10	1	-1E+10	1	-1E+10	1	-1E+10	1
4902643	32	C	05/07/2025	10:07	-133.526	43.422	0	369.60	0	5.5060	0	33.8730	0	26.726	0	366.326	0	93.5	4	30.5	4	-1E+10	1	-1E+10	1	-1E+10	1	-1E+10	1	-1E+10	1	-1E+10	1
4902643	32	C	05/07/2025	10:07	-133.526	43.422	0	389.60	0	5.3120	0	33.8810	0	26.756	0	386.130	0	86.5	4	28.1	4	-1E+10	1	-1E+10	1	-1E+10	1	-1E+10	1	-1E+10	1	-1E+10	1
4902643	32	C	05/07/2025	10:07	-133.526	43.422	0	409.50	0	5.1470	0	33.8960	0	26.787	0	405.833	0	79.4	4	25.7	4	-1E+10	1	-1E+10	1	-1E+10	1	-1E+10	1	-1E+10	1	-1E+10	1
4902643	32	C	05/07/2025	10:07	-133.526	43.422	0	429.50	0	4.9800	0	33.9140	0	26.820	0	425.634	0	72.9	4	23.5	4	-1E+10	1	-1E+10	1	-1E+10	1	-1E+10	1	-1E+10	1	-1E+10	1
4902643	32	C	05/07/2025	10:07	-133.526	43.422	0	449.40	0	4.8560	0	33.9320	0	26.849	0	445.333	0	67.0	4	21.5	4	-1E+10	1	-1E+10	1	-1E+10	1	-1E+10	1	-1E+10	1	-1E+10	1
4902643	32	C	05/07/2025	10:07	-133.526	43.422	0	469.90	0	4.7160	0	33.9530	0	26.881	0	465.625	0	60.7	4	19.5	4	-1E+10	1	-1E+10	1	-1E+10	1	-1E+10	1	-1E+10	1	-1E+10	1
4902643	32	C	05/07/2025	10:07	-133.526	43.422	0	489.60	0	4.6090	0	33.9710	0	26.907	0	485.122	0	55.0	4	17.6	4	-1E+10	1	-1E+10	1	-1E+10	1	-1E+10	1	-1E+10	1	-1E+10	1
4902643	32	C	05/07/2025	10:07	-133.526	43.422	0	509.70	0	4.4900	0	33.9890	0	26.935	0	505.014	0	49.7	4	15.9	4	-1E+10	1	-1E+10	1	-1E+10	1	-1E+10	1	-1E+10	1	-1E+10	1
4902643	32	C	05/07/2025	10:07	-133.526	43.422	0	529.70	0	4.4130	0	34.0060	0	26.957	0	524.805	0	44.9	4	14.3	4	-1E+10	1	-1E+10	1	-1E+10	1	-1E+10	1	-1E+10	1	-1E+10	1
4902643	32	C	05/07/2025	10:07	-133.526	43.422	0	549.70	0	4.3270	0	34.0270	0	26.982	0	544.594	0	40.2	4	12.8	4	-1E+10	1	-1E+10	1	-1E+10	1	-1E+10	1	-1E+10	1	-1E+10	1
4902643	32	C	05/07/2025	10:07	-133.526	43.422	0	569.80	0	4.2680	0	34.0470	0	27.005	0	564.480	0	36.0	4	11.4	4	-1E+10	1	-1E+10	1	-1E+10	1	-1E+10	1	-1E+10	1	-1E+10	1
4902643	32	C	05/07/2025	10:07	-133.526	43.422	0	589.50	0	4.2050	0	34.0690	0	27.029	0	583.968	0	31.5	4	10.0	4	-1E+10	1	-1E+10	1	-1E+10	1	-1E+10	1	-1E+10	1	-1E+10	1
4902643	32	C	05/07/2025	10:07	-133.526	43.422	0	609.60	0	4.1510	0	34.0900	0	27.051	0	603.851	0	28.3	4	8.9	4	-1E+10	1	-1E+10	1	-1E+10	1	-1E+10	1	-1E+10	1	-1E+10	1
4902643	32	C	05/07/2025	10:07	-133.526	43.422	0	630.10	0	4.1080	0	34.1050	0	27.068	0	624.127	0	25.2	4	8.0	4	-1E+10	1	-1E+10	1	-1E+10	1	-1E+10	1	-1E+10	1	-1E+10	1
4902643	32	C	05/07/2025	10:07	-133.526	43.422	0	649.60	0	4.0840	0	34.1250	0	27.086	0	643.412	0	22.4	4	7.1	4	-1E+10	1	-1E+10	1	-1E+10	1	-1E+10	1	-1E+10	1	-1E+10	1
4902643	32	C	05/07/2025	10:07	-133.526	43.422	0	669.80	0	4.0150	0	34.1390	0	27.105	0	663.387	0	20.5	4	6.5	4	-1E+10	1	-1E+10	1	-1E+10	1	-1E+10	1	-1E+10	1	-1E+10	1
4902643	32	C	05/07/2025	10:07	-133.526	43.422	0	689.20	0	3.9680	0	34.1540	0	27.122	0	682.570	0	18.2	4	5.8	4	-1E+10	1	-1E+10	1	-1E+10	1	-1E+10	1	-1E+10	1	-1E+10	1
4902643	32	C	05/07/2025	10:07	-133.526	43.422	0	709.90	0	3.9470	0	34.1720	0	27.138	0	703.036	0	15.8	4	5.0	4	-1E+10	1	-1E+10	1	-1E+10	1	-1E+10	1	-1E+10	1	-1E+10	1
4902643	32	C	05/07/2025	10:07	-133.526	43.422	0	729.60	0	3.9100	0	34.1900	0	27.156	0	722.511	0	13.4	4	4.2	4	-1E+10	1	-1E+10	1	-1E+10	1	-1E+10	1	-1E+10	1	-1E+10	1
4902643	32	C	05/07/2025	10:07	-133.526	43.422	0	749.70	0	3.8970	0	34.2080	0	27.172	0	742.380	0	11.9	4	3.7	4	-1E+10	1	-1E+10	1	-1E+10	1	-1E+10	1	-1E+10	1	-1E+10	1
4902643	32	C	05/07/2025	10:07	-133.526	43.422	0	770.00	0	3.8430	0	34.2270	0	27.193	0	762.445	0	10.3	4	3.2	4	-1E+10	1	-1E+10	1	-1E+10	1	-1E+10	1	-1E+10	1	-1E+10	1
4902643	32	C	05/07/2025	10:07	-133.526	43.422	0	789.60	0	3.8080	0	34.2440	0	27.210	0	781.816	0	9.3	4	2.9	4	-1E+10	1	-1E+10	1	-1E+10	1	-1E+10	1	-1E+10	1	-1E+10	1
4902643	32	C	05/07/2025	10:07	-133.526	43.422	0	809.60	0	3.7740	0	34.2600	0	27.226	0	801.580	0	8.5	4	2.7	4	-1E+10	1	-1E+10	1	-1E+10	1	-1E+10	1	-1E+10	1	-1E+10	1
4902643	32	C	05/07/2025	10:07	-133.526	43.422	0	829.80	0	3.7350	0	34.2750	0	27.242	0	821.540	0	7.8	4	2.4	4	-1E+10	1	-1E+10	1	-1E+10	1	-1E+10	1	-1E+10	1	-1E+10	1
4902643	32	C	05/07/2025	10:07	-133.526	43.422	0	849.70	0	3.6910	0	34.2900	0	27.259	0	841.202	0	7.3	4	2.3	4	-1E+10	1	-1E+10	1	-1E+10	1	-1E+10	1	-1E+10	1	-1E+10	1
4902643	32	C	05/07/2025	10:07	-133.526	43.422	0	869.90	0	3.6600	0	34.3000	0	27.270	0	861.159	0	7.0	4	2.2	4	-1E+10	1	-1E+10	1	-1E+10	1	-1E+10	1	-1E+10	1	-1E+10	1
4902643	32	C	05/07/2025	10:07	-133.526	43.422	0	889.80	0	3.6170	0	34.3130	0	27.285	0	880.817	0	6.8	4	2.1	4	-1E+10	1	-1E+10	1	-1E+10	1	-1E+10	1	-1E+10	1	-1E+10	1
4902643	32	C	05/07/2025	10:07	-133.526	43.422	0	910.20	0	3.5750	0	34.3290	0	27.302	0	900.967	0	6.6	4	2.1	4	-1E+10	1	-1E+10	1	-1E+10	1	-1E+10	1	-1E+10	1	-1E+10	1
4902643	32	C	05/07/2025	10:07	-133.526	43.422	0	929.40	0	3.5340	0	34.3430	0	27.317	0	919.930	0	6.6	4	2.1	4	-1E+10	1	-1E+10	1	-1E+10	1	-1E+10	1	-1E+10	1	-1E+10	1
4902643	32	C	05/07/2025	10:07	-133.526	43.422	0	949.70	0	3.5040	0	34.3550	0	27.329	0	939.978	0	6.7	4	2.1	4	-1E+10	1	-1E+10	1	-1E+10	1	-1E+10	1	-1E+10	1	-1E+10	1
4902643	32	C	05/07/2025	10:07	-133.526	43.422	0	970.10	0	3.4640	0	34.3680	0	27.344	0	960.122	0	6.9	4	2.1	4	-1E+10	1	-1E+10	1	-1E+10	1	-1E+10	1	-1E+10	1	-1E+10	1
4902643	32	C	05/07/2025	10:07	-133.526	43.422	0	989.90	0	3.4250	0	34.3790	0	27.356	0	979.672	0	7.1	4	2.2	4	-1E+10	1	-1E+10	1	-1E+10	1	-1E+10	1	-1E+10	1	-1E+10	1
4902643	32	C	05/07/2025	10:07	-133.526	43.422	0	1009.80	0	3.3830	0	34.3870	0	27.367	0	999.319	0	7.3	4	2.3	4	-1E+10	1	-1E+10	1	-1E+10	1	-1E+10	1	-1E+10	1	-1E+10	1
4902643	32	C	05/07/2025	10:07	-133.526	43.422	0	1030.20	0	3.3380	0	34.3970	0	27.379	0	1019.458	0	7.6	4	2.4	4	-1E+10	1	-1E+10	1	-1E+10	1	-1E+10	1	-1E+10	1	-1E+10	1
4902643	32	C	05/07/2025	10:07	-133.526	43.422	0	1049.50	0	3.3010	0	34.4050	0	27.389	0	1038.509	0	8.0	4	2.5	4	-1E+10	1	-1E+10	1	-1E+10	1	-1E+10	1	-1E+10	1	-1E+10	1
4902643	32	C	05/07/2025	10:07	-133.526	43.422	0	1069.60	0	3.2780	0	34.4140	0	27.399	0	1058.348	0	8.5	4	2.6	4	-1E+10	1	-1E+10	1	-1E+10	1	-1E+10	1	-1E+10	1	-1E+10	1
4902643	32	C	05/07/2025	10:07	-133.526	43.422	0	1089.80	0	3.2470	0	34.4200	0	27.406	0	1078.283	0	8.9	4	2.8	4	-1E+10	1	-1E+10	1	-1E+10	1	-1E+10	1	-1E+10	1	-1E+10	1
4902643	32	C	05/07/2025	10:07	-133.526	43.422	0	1109.60	0	3.2130	0	34.4260	0	27.415	0	1097.822	0	9.4	4	2.9	4	-1E+10	1	-1E+10	1	-1E+10	1	-1E+10	1	-1E+10	1	-1E+10	1
4902643	32	C	05/07/2025	10:07	-133.526	43.422	0	1128.80	0	3.1830	0	34.4320	0	27.422	0	1116.767	0	9.8	4	3.0	4	-1E+10	1	-1E+10	1	-1E+10	1	-1E+10	1	-1E+10	1	-1E+10	1
4902643	32	C	05/07/2025	10:07	-133.526	43.422	0	1150.00	0	3.1400	0	34.4380	0	27.431	0	1137.684	0	10.4	4	3.2	4	-1E+10	1	-1E+10	1	-1E+10	1	-1E+10	1	-1E+10	1	-1E+10	1
4902643	32	C	05/07/2025	10:07	-133.526	43.422	0	1169.90	0	3.0970	0	34.4450	0	27.441	0	1157.316	0	10.9	4	3.4	4	-1E+10	1	-1E+10	1	-1E+10	1	-1E+10	1	-1E+10	1	-1E+10	1
4902643	32	C	05/07/2025	10:07	-133.526	43.422	0	1189.50	0	3.0720	0	34.4490	0	27.446	0	1176.650	0	11.3	4	3.5	4	-1E+10	1	-1E+10	1	-1E+10	1	-1E+10	1	-1E+10	1	-1E+10	1
4902643	32	C	05/07/2025	10:07	-133.526	43.422	0	1209.50	0	3.0510	0	34.4530	0	27.452	0	1196.378	0	11.8	4	3.7	4	-1E+10	1	-1E+10	1	-1E+10	1	-1E+10	1	-1E+10	1	-1E+10	1
4902643	32	C	05/07/2025	10:07	-133.526	43.422	0	1229.70	0	3.0170	0	34.4580	0	27.459	0	1216.300	0	12.3	4	3.8	4	-1E+10	1	-1E+10	1	-1E+10	1	-1E+10	1	-1E+10	1	-1E+10	1
4902643	32	C	05/07/2025	10:07	-133.526	43.422	0	1249.70	0	2.9860	0	34.4620	0	27.465	0	1236.023	0	12.8	4	4.0	4	-1E+10	1	-1E+10	1	-1E+10	1	-1E+10	1	-1E+10	1	-1E+10	1
4902643	32	C	05/07/2025	10:07	-133.526	43.422	0	1269.70	0	2.9540	0	34.4660	0	27.471	0	1255.745	0	13.4	4	4.1	4	-1E+10	1	-1E+10	1	-1E+10	1	-1E+10	1	-1E+10	1	-1E+10	1
4902643	32	C	05/07/2025	10:07	-133.526	43.422	0	1289.40	0	2.9140	0	34.4720	0	27.479	0	1275.169	0	14.2	4	4.4	4	-1E+10	1	-1E+10	1	-1E+10	1	-1E+10	1	-1E+10	1	-1E+10	1
4902643	32	C	05/07/2025	10:07	-133.526	43.422	0	1309.90	0	2.8890	0	34.4750	0	27.484	0	1295.379	0	14.7	4	4.5	4	-1E+10	1	-1E+10	1	-1E+10	1	-1E+10	1	-1E+10	1	-1E+10	1
4902643	32	C	05/07/2025	10:07	-133.526	43.422	0	1330.80	0	2.8610	0	34.4790	0	27.490	0	1315.983	0	15.4	4	4.7	4	-1E+10	1	-1E+10	1	-1E+10	1	-1E+10	1	-1E+10	1	-1E+10	1
4902643	32	C	05/07/2025	10:07	-133.526	43.422	0	1349.60	0	2.8290	0	34.4830	0	27.496	0	1334.514	0	16.2	4	5.0	4	-1E+10	1	-1E+10	1	-1E+10	1	-1E+10	1	-1E+10	1	-1E+10	1
4902643	32	C	05/07/2025	10:07	-133.526	43.422	0	1369.50	0	2.8000	0	34.4870	0	27.502	0	1354.127	0	16.9	4	5.2	4	-1E+10	1	-1E+10	1	-1E+10	1	-1E+10	1	-1E+10	1	-1E+10	1
4902643	32	C	05/07/2025	10:07	-133.526	43.422	0	1389.80	0	2.7680	0	34.4910	0	27.508	0	1374.133	0	17.8	4	5.5	4	-1E+10	1	-1E+10	1	-1E+10	1	-1E+10	1	-1E+10	1	-1E+10	1
4902643	32	C	05/07/2025	10:07	-133.526	43.422	0	1409.70	0	2.7380	0	34.4950	0	27.514	0	1393.743	0	18.8	4	5.8	4	-1E+10	1	-1E+10	1	-1E+10	1	-1E+10	1	-1E+10	1	-1E+10	1
4902643	32	C	05/07/2025	10:07	-133.526	43.422	0	1429.50	0	2.7060	0	34.5000	0	27.521	0	1413.253	0	19.8	4	6.1	4	-1E+10	1	-1E+10	1	-1E+10	1	-1E+10	1	-1E+10	1	-1E+10	1
4902643	32	C	05/07/2025	10:07	-133.526	43.422	0	1449.80	0	2.6680	0	34.5040	0	27.528	0	1433.253	0	20.8	4	6.4	4	-1E+10	1	-1E+10	1	-1E+10	1	-1E+10	1	-1E+10	1	-1E+10	1
4902643	32	C	05/07/2025	10:07	-133.526	43.422	0	1470.00	0	2.6360	0	34.5080	0	27.534	0	1453.153	0	21.6	4	6.6	4	-1E+10	1	-1E+10	1	-1E+10	1	-1E+10	1	-1E+10	1	-1E+10	1
4902643	32	C	05/07/2025	10:07	-133.526	43.422	0	1489.70	0	2.6150	0	34.5110	0	27.538	0	1472.559	0	22.4	4	6.9	4	-1E+10	1	-1E+10	1	-1E+10	1	-1E+10	1	-1E+10	1	-1E+10	1
4902643	32	C	05/07/2025	10:07	-133.526	43.422	0	1509.40	0	2.5830	0	34.5140	0	27.543	0	1491.963	0	23.4	4	7.2	4	-1E+10	1	-1E+10	1	-1E+10	1	-1E+10	1	-1E+10	1	-1E+10	1
4902643	32	C	05/07/2025	10:07	-133.526	43.422	0	1529.50	0	2.5500	0	34.5180	0	27.549	0	1511.759	0	24.5	4	7.5	4	-1E+10	1	-1E+10	1	-1E+10	1	-1E+10	1	-1E+10	1	-1E+10	1
4902643	32	C	05/07/2025	10:07	-133.526	43.422	0	1549.90	0	2.5130	0	34.5220	0	27.556	0	1531.848	0	25.8	4	7.9	4	-1E+10	1	-1E+10	1	-1E+10	1	-1E+10	1	-1E+10	1	-1E+10	1
4902643	32	C	05/07/2025	10:07	-133.526	43.422	0	1570.10	0	2.4700	0	34.5280	0	27.564	0	1551.739	0	27.3	4	8.3	4	-1E+10	1	-1E+10	1	-1E+10	1	-1E+10	1	-1E+10	1	-1E+10	1
4902643	32	C	05/07/2025	10:07	-133.526	43.422	0	1589.70	0	2.4310	0	34.5320	0	27.571	0	1571.037	0	28.7	4	8.7	4	-1E+10	1	-1E+10	1	-1E+10	1	-1E+10	1	-1E+10	1	-1E+10	1
4902643	32	C	05/07/2025	10:07	-133.526	43.422	0	1609.40	0	2.4010	0	34.5360	0	27.576	0	1590.432	0	29.9	4	9.1	4	-1E+10	1	-1E+10	1	-1E+10	1	-1E+10	1	-1E+10	1	-1E+10	1
4902643	32	C	05/07/2025	10:07	-133.526	43.422	0	1629.50	0	2.3640	0	34.5410	0	27.584	0	1610.219	0	31.4	4	9.6	4	-1E+10	1	-1E+10	1	-1E+10	1	-1E+10	1	-1E+10	1	-1E+10	1
4902643	32	C	05/07/2025	10:07	-133.526	43.422	0	1649.70	0	2.3340	0	34.5440	0	27.589	0	1630.102	0	32.4	4	9.8	4	-1E+10	1	-1E+10	1	-1E+10	1	-1E+10	1	-1E+10	1	-1E+10	1
4902643	32	C	05/07/2025	10:07	-133.526	43.422	0	1669.50	0	2.3180	0	34.5460	0	27.592	0	1649.590	0	33.3	4	10.1	4	-1E+10	1	-1E+10	1	-1E+10	1	-1E+10	1	-1E+10	1	-1E+10	1
4902643	32	C	05/07/2025	10:07	-133.526	43.422	0	1689.60	0	2.2900	0	34.5500	0	27.597	0	1669.371	0	34.7	4	10.5	4	-1E+10	1	-1E+10	1	-1E+10	1	-1E+10	1	-1E+10	1	-1E+10	1
4902643	32	C	05/07/2025	10:07	-133.526	43.422	0	1710.50	0	2.2610	0	34.5540	0	27.603	0	1689.937	0	36.3	4	11.0	4	-1E+10	1	-1E+10	1	-1E+10	1	-1E+10	1	-1E+10	1	-1E+10	1
4902643	32	C	05/07/2025	10:07	-133.526	43.422	0	1730.10	0	2.2310	0	34.5580	0	27.609	0	1709.223	0	37.7	4	11.4	4	-1E+10	1	-1E+10	1	-1E+10	1	-1E+10	1	-1E+10	1	-1E+10	1
4902643	32	C	05/07/2025	10:07	-133.526	43.422	0	1750.60	0	2.2040	0	34.5620	0	27.614	0	1729.392	0	39.3	4	11.9	4	-1E+10	1	-1E+10	1	-1E+10	1	-1E+10	1	-1E+10	1	-1E+10	1
4902643	32	C	05/07/2025	10:07	-133.526	43.422	0	1770.10	0	2.1830	0	34.5650	0	27.618	0	1748.576	0	40.8	4	12.4	4	-1E+10	1	-1E+10	1	-1E+10	1	-1E+10	1	-1E+10	1	-1E+10	1
4902643	32	C	05/07/2025	10:07	-133.526	43.422	0	1790.00	0	2.1590	0	34.5680	0	27.623	0	1768.151	0	42.1	4	12.8	4	-1E+10	1	-1E+10	1	-1E+10	1	-1E+10	1	-1E+10	1	-1E+10	1
4902643	32	C	05/07/2025	10:07	-133.526	43.422	0	1809.20	0	2.1350	0	34.5710	0	27.627	0	1787.036	0	43.3	4	13.1	4	-1E+10	1	-1E+10	1	-1E+10	1	-1E+10	1	-1E+10	1	-1E+10	1
4902643	32	C	05/07/2025	10:07	-133.526	43.422	0	1829.90	0	2.1130	0	34.5740	0	27.631	0	1807.394	0	44.7	4	13.5	4	-1E+10	1	-1E+10	1	-1E+10	1	-1E+10	1	-1E+10	1	-1E+10	1
4902643	32	C	05/07/2025	10:07	-133.526	43.422	0	1849.80	0	2.0940	0	34.5770	0	27.635	0	1826.964	0	46.2	4	14.0	4	-1E+10	1	-1E+10	1	-1E+10	1	-1E+10	1	-1E+10	1	-1E+10	1
4902643	32	C	05/07/2025	10:07	-133.526	43.422	0	1870.00	0	2.0750	0	34.5800	0	27.639	0	1846.827	0	47.4	4	14.3	4	-1E+10	1	-1E+10	1	-1E+10	1	-1E+10	1	-1E+10	1	-1E+10	1
4902643	32	C	05/07/2025	10:07	-133.526	43.422	0	1889.80	0	2.0550	0	34.5820	0	27.643	0	1866.295	0	48.5	4	14.7	4	-1E+10	1	-1E+10	1	-1E+10	1	-1E+10	1	-1E+10	1	-1E+10	1
4902643	32	C	05/07/2025	10:07	-133.526	43.422	0	1910.30	0	2.0380	0	34.5850	0	27.646	0	1886.449	0	49.6	4	15.0	4	-1E+10	1	-1E+10	1	-1E+10	1	-1E+10	1	-1E+10	1	-1E+10	1
4902643	32	C	05/07/2025	10:07	-133.526	43.422	0	1929.50	0	2.0250	0	34.5870	0	27.649	0	1905.323	0	50.6	4	15.3	4	-1E+10	1	-1E+10	1	-1E+10	1	-1E+10	1	-1E+10	1	-1E+10	1
4902643	32	C	05/07/2025	10:07	-133.526	43.422	0	1949.70	0	2.0100	0	34.5890	0	27.652	0	1925.179	0	51.6	4	15.6	4	-1E+10	1	-1E+10	1	-1E+10	1	-1E+10	1	-1E+10	1	-1E+10	1
4902643	32	C	05/07/2025	10:07	-133.526	43.422	0	1969.80	0	1.9990	0	34.5910	0	27.655	0	1944.934	0	52.4	4	15.8	4	-1E+10	1	-1E+10	1	-1E+10	1	-1E+10	1	-1E+10	1	-1E+10	1
4902643	32	C	05/07/2025	10:07	-133.526	43.422	0	1989.70	0	1.9870	0	34.5930	0	27.657	0	1964.491	0	53.5	4	16.1	4	-1E+10	1	-1E+10	1	-1E+10	1	-1E+10	1	-1E+10	1	-1E+10	1
4902643	32	C	05/07/2025	10:07	-133.526	43.422	0	2009.60	0	1.9710	0	34.5950	4	27.660	0	1984.047	0	54.5	4	16.4	4	-1E+10	1	-1E+10	1	-1E+10	1	-1E+10	1	-1E+10	1	-1E+10	1
4902643	32	C	05/07/2025	10:07	-133.526	43.422	0	2029.50	0	1.9600	0	34.5970	4	27.663	0	2003.600	0	55.4	4	16.7	4	-1E+10	1	-1E+10	1	-1E+10	1	-1E+10	1	-1E+10	1	-1E+10	1
4902643	32	C	05/07/2025	10:07	-133.526	43.422	0	2049.60	0	1.9460	0	34.5990	4	27.666	0	2023.349	0	56.5	4	17.0	4	-1E+10	1	-1E+10	1	-1E+10	1	-1E+10	1	-1E+10	1	-1E+10	1
4902643	32	C	05/07/2025	10:07	-133.526	43.422	0	2069.80	0	1.9330	0	34.6010	4	27.668	0	2043.193	0	57.4	4	17.3	4	-1E+10	1	-1E+10	1	-1E+10	1	-1E+10	1	-1E+10	1	-1E+10	1
4902643	32	C	05/07/2025	10:07	-133.526	43.422	0	2090.00	0	1.9210	0	34.6030	4	27.671	0	2063.036	0	58.3	4	17.5	4	-1E+10	1	-1E+10	1	-1E+10	1	-1E+10	1	-1E+10	1	-1E+10	1
4902643	32	C	05/07/2025	10:07	-133.526	43.422	0	2109.70	0	1.9120	0	34.6040	4	27.672	0	2082.386	0	59.0	4	17.8	4	-1E+10	1	-1E+10	1	-1E+10	1	-1E+10	1	-1E+10	1	-1E+10	1
4902643	32	C	05/07/2025	10:07	-133.526	43.422	0	2130.40	0	1.9030	0	34.6060	4	27.675	0	2102.716	0	59.9	4	18.0	4	-1E+10	1	-1E+10	1	-1E+10	1	-1E+10	1	-1E+10	1	-1E+10	1
4902643	32	C	05/07/2025	10:07	-133.526	43.422	0	2149.90	0	1.8900	0	34.6070	4	27.677	0	2121.866	0	60.8	4	18.3	4	-1E+10	1	-1E+10	1	-1E+10	1	-1E+10	1	-1E+10	1	-1E+10	1
4902643	32	C	05/07/2025	10:07	-133.526	43.422	0	2169.80	0	1.8820	0	34.6090	4	27.679	0	2141.407	0	61.6	4	18.5	4	-1E+10	1	-1E+10	1	-1E+10	1	-1E+10	1	-1E+10	1	-1E+10	1
4902643	32	C	05/07/2025	10:07	-133.526	43.422	0	2189.80	0	1.8720	0	34.6100	4	27.681	0	2161.044	0	62.4	4	18.7	4	-1E+10	1	-1E+10	1	-1E+10	1	-1E+10	1	-1E+10	1	-1E+10	1
4902643	32	C	05/07/2025	10:07	-133.526	43.422	0	2209.70	0	1.8650	0	34.6120	4	27.683	0	2180.581	0	62.9	4	18.9	4	-1E+10	1	-1E+10	1	-1E+10	1	-1E+10	1	-1E+10	1	-1E+10	1
4902643	32	C	05/07/2025	10:07	-133.526	43.422	0	2229.40	0	1.8610	0	34.6130	4	27.684	0	2199.920	0	63.5	4	19.1	4	-1E+10	1	-1E+10	1	-1E+10	1	-1E+10	1	-1E+10	1	-1E+10	1
4902643	32	C	05/07/2025	10:07	-133.526	43.422	0	2249.60	0	1.8530	0	34.6140	4	27.686	0	2219.749	0	64.3	4	19.3	4	-1E+10	1	-1E+10	1	-1E+10	1	-1E+10	1	-1E+10	1	-1E+10	1
4902643	32	C	05/07/2025	10:07	-133.526	43.422	0	2269.60	0	1.8440	0	34.6150	4	27.687	0	2239.379	0	65.1	4	19.5	4	-1E+10	1	-1E+10	1	-1E+10	1	-1E+10	1	-1E+10	1	-1E+10	1
4902643	32	C	05/07/2025	10:07	-133.526	43.422	0	2289.60	0	1.8350	0	34.6160	4	27.689	0	2259.007	0	65.9	4	19.8	4	-1E+10	1	-1E+10	1	-1E+10	1	-1E+10	1	-1E+10	1	-1E+10	1
4902643	32	C	05/07/2025	10:07	-133.526	43.422	0	2309.60	0	1.8280	0	34.6170	4	27.690	0	2278.633	0	66.6	4	20.0	4	-1E+10	1	-1E+10	1	-1E+10	1	-1E+10	1	-1E+10	1	-1E+10	1
4902643	32	C	05/07/2025	10:07	-133.526	43.422	0	2330.30	0	1.8200	0	34.6190	4	27.693	0	2298.945	0	67.4	4	20.2	4	-1E+10	1	-1E+10	1	-1E+10	1	-1E+10	1	-1E+10	1	-1E+10	1
4902643	32	C	05/07/2025	10:07	-133.526	43.422	0	2349.60	0	1.8140	0	34.6200	4	27.694	0	2317.881	0	68.3	4	20.5	4	-1E+10	1	-1E+10	1	-1E+10	1	-1E+10	1	-1E+10	1	-1E+10	1
4902643	32	C	05/07/2025	10:07	-133.526	43.422	0	2369.70	0	1.8050	0	34.6210	4	27.696	0	2337.600	0	69.0	4	20.7	4	-1E+10	1	-1E+10	1	-1E+10	1	-1E+10	1	-1E+10	1	-1E+10	1
4902643	32	C	05/07/2025	10:07	-133.526	43.422	0	2389.70	0	1.7980	0	34.6220	4	27.697	0	2357.219	0	69.8	4	20.9	4	-1E+10	1	-1E+10	1	-1E+10	1	-1E+10	1	-1E+10	1	-1E+10	1
4902643	32	C	05/07/2025	10:07	-133.526	43.422	0	2409.50	0	1.7910	0	34.6240	4	27.699	0	2376.640	0	70.7	4	21.2	4	-1E+10	1	-1E+10	1	-1E+10	1	-1E+10	1	-1E+10	1	-1E+10	1
4902643	32	C	05/07/2025	10:07	-133.526	43.422	0	2429.60	0	1.7820	0	34.6250	4	27.701	0	2396.354	0	71.6	4	21.5	4	-1E+10	1	-1E+10	1	-1E+10	1	-1E+10	1	-1E+10	1	-1E+10	1
4902643	32	C	05/07/2025	10:07	-133.526	43.422	0	2449.70	0	1.7730	0	34.6260	4	27.703	0	2416.066	0	72.4	4	21.7	4	-1E+10	1	-1E+10	1	-1E+10	1	-1E+10	1	-1E+10	1	-1E+10	1
4902643	32	C	05/07/2025	10:07	-133.526	43.422	0	2470.20	0	1.7650	0	34.6270	4	27.704	0	2436.168	0	73.2	4	21.9	4	-1E+10	1	-1E+10	1	-1E+10	1	-1E+10	1	-1E+10	1	-1E+10	1
4902643	32	C	05/07/2025	10:07	-133.526	43.422	0	2489.60	0	1.7560	0	34.6280	4	27.706	0	2455.191	0	73.9	4	22.1	4	-1E+10	1	-1E+10	1	-1E+10	1	-1E+10	1	-1E+10	1	-1E+10	1
4902643	32	C	05/07/2025	10:07	-133.526	43.422	0	2509.70	0	1.7500	0	34.6290	4	27.707	0	2474.897	0	74.7	4	22.4	4	-1E+10	1	-1E+10	1	-1E+10	1	-1E+10	1	-1E+10	1	-1E+10	1
4902643	32	C	05/07/2025	10:07	-133.526	43.422	0	2529.70	0	1.7410	0	34.6300	4	27.709	0	2494.504	0	75.5	4	22.6	4	-1E+10	1	-1E+10	1	-1E+10	1	-1E+10	1	-1E+10	1	-1E+10	1
4902643	32	C	05/07/2025	10:07	-133.526	43.422	0	2549.70	0	1.7350	0	34.6310	4	27.710	0	2514.109	0	76.4	4	22.9	4	-1E+10	1	-1E+10	1	-1E+10	1	-1E+10	1	-1E+10	1	-1E+10	1
4902643	32	C	05/07/2025	10:07	-133.526	43.422	0	2570.00	0	1.7290	0	34.6330	4	27.712	0	2534.006	0	77.3	4	23.2	4	-1E+10	1	-1E+10	1	-1E+10	1	-1E+10	1	-1E+10	1	-1E+10	1
4902643	32	C	05/07/2025	10:07	-133.526	43.422	0	2590.10	0	1.7230	0	34.6340	4	27.714	0	2553.705	0	78.3	4	23.4	4	-1E+10	1	-1E+10	1	-1E+10	1	-1E+10	1	-1E+10	1	-1E+10	1
4902643	32	C	05/07/2025	10:07	-133.526	43.422	0	2610.00	0	1.7150	0	34.6350	4	27.715	0	2573.207	0	79.0	4	23.7	4	-1E+10	1	-1E+10	1	-1E+10	1	-1E+10	1	-1E+10	1	-1E+10	1
4902643	32	C	05/07/2025	10:07	-133.526	43.422	0	2629.70	0	1.7100	0	34.6350	4	27.716	0	2592.510	0	79.5	4	23.8	4	-1E+10	1	-1E+10	1	-1E+10	1	-1E+10	1	-1E+10	1	-1E+10	1
4902643	32	C	05/07/2025	10:07	-133.526	43.422	0	2649.50	0	1.7030	0	34.6360	4	27.717	0	2611.911	0	80.1	4	24.0	4	-1E+10	1	-1E+10	1	-1E+10	1	-1E+10	1	-1E+10	1	-1E+10	1
4902643	32	C	05/07/2025	10:07	-133.526	43.422	0	2669.50	0	1.6980	0	34.6370	4	27.718	0	2631.505	0	80.8	4	24.2	4	-1E+10	1	-1E+10	1	-1E+10	1	-1E+10	1	-1E+10	1	-1E+10	1
4902643	32	C	05/07/2025	10:07	-133.526	43.422	0	2690.10	0	1.6920	0	34.6370	4	27.719	0	2651.685	0	81.5	4	24.4	4	-1E+10	1	-1E+10	1	-1E+10	1	-1E+10	1	-1E+10	1	-1E+10	1
4902643	32	C	05/07/2025	10:07	-133.526	43.422	0	2709.60	0	1.6850	0	34.6380	4	27.720	0	2670.786	0	82.1	4	24.6	4	-1E+10	1	-1E+10	1	-1E+10	1	-1E+10	1	-1E+10	1	-1E+10	1
4902643	32	C	05/07/2025	10:07	-133.526	43.422	0	2729.70	0	1.6800	0	34.6390	4	27.722	0	2690.473	0	82.9	4	24.8	4	-1E+10	1	-1E+10	1	-1E+10	1	-1E+10	1	-1E+10	1	-1E+10	1
4902643	32	C	05/07/2025	10:07	-133.526	43.422	0	2750.00	0	1.6720	0	34.6400	4	27.723	0	2710.354	0	83.7	4	25.0	4	-1E+10	1	-1E+10	1	-1E+10	1	-1E+10	1	-1E+10	1	-1E+10	1
4902643	32	C	05/07/2025	10:07	-133.526	43.422	0	2769.90	0	1.6660	0	34.6410	4	27.724	0	2729.841	0	84.6	4	25.3	4	-1E+10	1	-1E+10	1	-1E+10	1	-1E+10	1	-1E+10	1	-1E+10	1
4902643	32	C	05/07/2025	10:07	-133.526	43.422	0	2789.70	0	1.6610	0	34.6420	4	27.726	0	2749.229	0	85.2	4	25.5	4	-1E+10	1	-1E+10	1	-1E+10	1	-1E+10	1	-1E+10	1	-1E+10	1
4902643	32	C	05/07/2025	10:07	-133.526	43.422	0	2809.60	0	1.6550	0	34.6430	4	27.727	0	2768.713	0	86.0	4	25.7	4	-1E+10	1	-1E+10	1	-1E+10	1	-1E+10	1	-1E+10	1	-1E+10	1
4902643	32	C	05/07/2025	10:07	-133.526	43.422	0	2829.20	0	1.6490	0	34.6430	4	27.728	0	2787.901	0	86.9	4	26.0	4	-1E+10	1	-1E+10	1	-1E+10	1	-1E+10	1	-1E+10	1	-1E+10	1
4902643	32	C	05/07/2025	10:07	-133.526	43.422	0	2849.90	0	1.6420	0	34.6450	4	27.730	0	2808.164	0	87.8	4	26.2	4	-1E+10	1	-1E+10	1	-1E+10	1	-1E+10	1	-1E+10	1	-1E+10	1
4902643	32	C	05/07/2025	10:07	-133.526	43.422	0	2869.90	0	1.6370	0	34.6450	4	27.730	0	2827.741	0	88.7	4	26.5	4	-1E+10	1	-1E+10	1	-1E+10	1	-1E+10	1	-1E+10	1	-1E+10	1
4902643	32	C	05/07/2025	10:07	-133.526	43.422	0	2890.00	0	1.6310	0	34.6460	4	27.732	0	2847.413	0	89.4	4	26.7	4	-1E+10	1	-1E+10	1	-1E+10	1	-1E+10	1	-1E+10	1	-1E+10	1
4902643	32	C	05/07/2025	10:07	-133.526	43.422	0	2909.80	0	1.6260	0	34.6470	4	27.733	0	2866.791	0	90.1	4	26.9	4	-1E+10	1	-1E+10	1	-1E+10	1	-1E+10	1	-1E+10	1	-1E+10	1
4902643	32	C	05/07/2025	10:07	-133.526	43.422	0	2930.30	0	1.6210	0	34.6480	4	27.734	0	2886.851	0	91.0	4	27.2	4	-1E+10	1	-1E+10	1	-1E+10	1	-1E+10	1	-1E+10	1	-1E+10	1
4902643	32	C	05/07/2025	10:07	-133.526	43.422	0	2950.00	0	1.6150	0	34.6490	4	27.736	0	2906.127	0	91.7	4	27.4	4	-1E+10	1	-1E+10	1	-1E+10	1	-1E+10	1	-1E+10	1	-1E+10	1
4902643	32	C	05/07/2025	10:07	-133.526	43.422	0	2970.40	0	1.6120	0	34.6500	4	27.737	0	2926.086	0	92.4	4	27.6	4	-1E+10	1	-1E+10	1	-1E+10	1	-1E+10	1	-1E+10	1	-1E+10	1
4902643	32	C	05/07/2025	10:07	-133.526	43.422	0	2989.80	0	1.6090	0	34.6510	4	27.738	0	2945.064	0	93.0	4	27.8	4	-1E+10	1	-1E+10	1	-1E+10	1	-1E+10	1	-1E+10	1	-1E+10	1
4902643	32	C	05/07/2025	10:07	-133.526	43.422	0	3009.60	0	1.6060	0	34.6510	4	27.738	0	2964.433	0	93.4	4	27.9	4	-1E+10	1	-1E+10	1	-1E+10	1	-1E+10	1	-1E+10	1	-1E+10	1
4902643	32	C	05/07/2025	10:07	-133.526	43.422	0	3029.90	0	1.6020	0	34.6520	4	27.740	0	2984.289	0	94.1	4	28.1	4	-1E+10	1	-1E+10	1	-1E+10	1	-1E+10	1	-1E+10	1	-1E+10	1
4902643	32	C	05/07/2025	10:07	-133.526	43.422	0	3049.80	0	1.5980	0	34.6530	4	27.741	0	3003.751	0	94.8	4	28.3	4	-1E+10	1	-1E+10	1	-1E+10	1	-1E+10	1	-1E+10	1	-1E+10	1
4902643	32	C	05/07/2025	10:07	-133.526	43.422	0	3070.10	0	1.5950	0	34.6530	4	27.741	0	3023.604	0	95.4	4	28.5	4	-1E+10	1	-1E+10	1	-1E+10	1	-1E+10	1	-1E+10	1	-1E+10	1
4902643	32	C	05/07/2025	10:07	-133.526	43.422	0	3090.00	0	1.5920	0	34.6540	4	27.742	0	3043.063	0	95.9	4	28.6	4	-1E+10	1	-1E+10	1	-1E+10	1	-1E+10	1	-1E+10	1	-1E+10	1
4902643	32	C	05/07/2025	10:07	-133.526	43.422	0	3109.90	0	1.5880	0	34.6550	4	27.743	0	3062.520	0	96.5	4	28.8	4	-1E+10	1	-1E+10	1	-1E+10	1	-1E+10	1	-1E+10	1	-1E+10	1
4902643	32	C	05/07/2025	10:07	-133.526	43.422	0	3130.00	0	1.5850	0	34.6550	4	27.744	0	3082.171	0	96.8	4	28.9	4	-1E+10	1	-1E+10	1	-1E+10	1	-1E+10	1	-1E+10	1	-1E+10	1
4902643	32	C	05/07/2025	10:07	-133.526	43.422	0	3150.40	0	1.5830	0	34.6550	4	27.744	0	3102.114	0	97.2	4	29.0	4	-1E+10	1	-1E+10	1	-1E+10	1	-1E+10	1	-1E+10	1	-1E+10	1
4902643	32	C	05/07/2025	10:07	-133.526	43.422	0	3170.00	0	1.5800	0	34.6560	4	27.745	0	3121.273	0	97.6	4	29.1	4	-1E+10	1	-1E+10	1	-1E+10	1	-1E+10	1	-1E+10	1	-1E+10	1
4902643	32	C	05/07/2025	10:07	-133.526	43.422	0	3189.90	0	1.5780	0	34.6560	4	27.746	0	3140.724	0	98.1	4	29.3	4	-1E+10	1	-1E+10	1	-1E+10	1	-1E+10	1	-1E+10	1	-1E+10	1
4902643	32	C	05/07/2025	10:07	-133.526	43.422	0	3209.70	0	1.5750	0	34.6570	4	27.747	0	3160.075	0	98.7	4	29.5	4	-1E+10	1	-1E+10	1	-1E+10	1	-1E+10	1	-1E+10	1	-1E+10	1
4902643	32	C	05/07/2025	10:07	-133.526	43.422	0	3230.00	0	1.5720	0	34.6570	4	27.747	0	3179.913	0	99.2	4	29.6	4	-1E+10	1	-1E+10	1	-1E+10	1	-1E+10	1	-1E+10	1	-1E+10	1
4902643	32	C	05/07/2025	10:07	-133.526	43.422	0	3250.10	0	1.5700	0	34.6580	4	27.748	0	3199.553	0	99.7	4	29.7	4	-1E+10	1	-1E+10	1	-1E+10	1	-1E+10	1	-1E+10	1	-1E+10	1
4902643	32	C	05/07/2025	10:07	-133.526	43.422	0	3270.10	0	1.5670	0	34.6580	4	27.748	0	3219.094	0	100.2	4	29.9	4	-1E+10	1	-1E+10	1	-1E+10	1	-1E+10	1	-1E+10	1	-1E+10	1
4902643	32	C	05/07/2025	10:07	-133.526	43.422	0	3290.10	0	1.5650	0	34.6590	4	27.750	0	3238.634	0	100.8	4	30.1	4	-1E+10	1	-1E+10	1	-1E+10	1	-1E+10	1	-1E+10	1	-1E+10	1
4902643	32	C	05/07/2025	10:07	-133.526	43.422	0	3310.40	0	1.5620	0	34.6600	4	27.751	0	3258.464	0	101.4	4	30.2	4	-1E+10	1	-1E+10	1	-1E+10	1	-1E+10	1	-1E+10	1	-1E+10	1
4902643	32	C	05/07/2025	10:07	-133.526	43.422	0	3329.80	0	1.5600	0	34.6600	4	27.751	0	3277.414	0	101.8	4	30.4	4	-1E+10	1	-1E+10	1	-1E+10	1	-1E+10	1	-1E+10	1	-1E+10	1
4902643	32	C	05/07/2025	10:07	-133.526	43.422	0	3350.00	0	1.5580	0	34.6610	4	27.752	0	3297.144	0	102.3	4	30.5	4	-1E+10	1	-1E+10	1	-1E+10	1	-1E+10	1	-1E+10	1	-1E+10	1
4902643	32	C	05/07/2025	10:07	-133.526	43.422	0	3370.40	0	1.5580	0	34.6610	4	27.752	0	3317.067	0	102.6	4	30.6	4	-1E+10	1	-1E+10	1	-1E+10	1	-1E+10	1	-1E+10	1	-1E+10	1
4902643	32	C	05/07/2025	10:07	-133.526	43.422	0	3390.30	0	1.5570	0	34.6620	4	27.753	0	3336.500	0	103.0	4	30.7	4	-1E+10	1	-1E+10	1	-1E+10	1	-1E+10	1	-1E+10	1	-1E+10	1
4902643	32	C	05/07/2025	10:07	-133.526	43.422	0	3409.90	0	1.5560	0	34.6620	4	27.753	0	3355.638	0	103.3	4	30.8	4	-1E+10	1	-1E+10	1	-1E+10	1	-1E+10	1	-1E+10	1	-1E+10	1
4902643	32	C	05/07/2025	10:07	-133.526	43.422	0	3429.90	0	1.5560	0	34.6630	4	27.754	0	3375.166	0	103.6	4	30.9	4	-1E+10	1	-1E+10	1	-1E+10	1	-1E+10	1	-1E+10	1	-1E+10	1
4902643	32	C	05/07/2025	10:07	-133.526	43.422	0	3450.20	0	1.5550	0	34.6630	4	27.755	0	3394.984	0	103.9	4	31.0	4	-1E+10	1	-1E+10	1	-1E+10	1	-1E+10	1	-1E+10	1	-1E+10	1
4902643	32	C	05/07/2025	10:07	-133.526	43.422	0	3470.70	0	1.5550	0	34.6630	4	27.755	0	3414.996	0	104.1	4	31.1	4	-1E+10	1	-1E+10	1	-1E+10	1	-1E+10	1	-1E+10	1	-1E+10	1
4902643	32	C	05/07/2025	10:07	-133.526	43.422	0	3489.90	0	1.5550	0	34.6640	4	27.756	0	3433.737	0	104.4	4	31.1	4	-1E+10	1	-1E+10	1	-1E+10	1	-1E+10	1	-1E+10	1	-1E+10	1
4902643	32	C	05/07/2025	10:07	-133.526	43.422	0	3509.80	0	1.5540	0	34.6640	4	27.756	0	3453.160	0	104.7	4	31.2	4	-1E+10	1	-1E+10	1	-1E+10	1	-1E+10	1	-1E+10	1	-1E+10	1
4902643	32	C	05/07/2025	10:07	-133.526	43.422	0	3529.90	0	1.5540	0	34.6650	4	27.757	0	3472.776	0	105.0	4	31.3	4	-1E+10	1	-1E+10	1	-1E+10	1	-1E+10	1	-1E+10	1	-1E+10	1
4902643	32	C	05/07/2025	10:07	-133.526	43.422	0	3550.20	0	1.5550	0	34.6650	4	27.757	0	3492.585	0	105.1	4	31.4	4	-1E+10	1	-1E+10	1	-1E+10	1	-1E+10	1	-1E+10	1	-1E+10	1
4902643	32	C	05/07/2025	10:07	-133.526	43.422	0	3570.80	0	1.5550	0	34.6650	4	27.757	0	3512.686	0	105.4	4	31.4	4	-1E+10	1	-1E+10	1	-1E+10	1	-1E+10	1	-1E+10	1	-1E+10	1
4902643	32	C	05/07/2025	10:07	-133.526	43.422	0	3590.00	0	1.5550	0	34.6660	4	27.758	0	3531.419	0	105.5	4	31.5	4	-1E+10	1	-1E+10	1	-1E+10	1	-1E+10	1	-1E+10	1	-1E+10	1
4902643	32	C	05/07/2025	10:07	-133.526	43.422	0	3610.10	0	1.5560	0	34.6660	4	27.758	0	3551.028	0	105.6	4	31.5	4	-1E+10	1	-1E+10	1	-1E+10	1	-1E+10	1	-1E+10	1	-1E+10	1
4902643	32	C	05/07/2025	10:07	-133.526	43.422	0	3630.30	0	1.5570	0	34.6670	4	27.759	0	3570.733	0	105.7	4	31.6	4	-1E+10	1	-1E+10	1	-1E+10	1	-1E+10	1	-1E+10	1	-1E+10	1
4902643	32	C	05/07/2025	10:07	-133.526	43.422	0	3650.20	0	1.5570	0	34.6670	4	27.759	0	3590.143	0	106.0	4	31.6	4	-1E+10	1	-1E+10	1	-1E+10	1	-1E+10	1	-1E+10	1	-1E+10	1
4902643	32	C	05/07/2025	10:07	-133.526	43.422	0	3670.10	0	1.5550	0	34.6670	4	27.759	0	3609.552	0	106.6	4	31.8	4	-1E+10	1	-1E+10	1	-1E+10	1	-1E+10	1	-1E+10	1	-1E+10	1
4902643	32	C	05/07/2025	10:07	-133.526	43.422	0	3690.50	0	1.5550	0	34.6680	4	27.760	0	3629.447	0	106.7	4	31.8	4	-1E+10	1	-1E+10	1	-1E+10	1	-1E+10	1	-1E+10	1	-1E+10	1
4902643	32	C	05/07/2025	10:07	-133.526	43.422	0	3710.00	0	1.5550	0	34.6680	4	27.760	0	3648.462	0	107.0	4	31.9	4	-1E+10	1	-1E+10	1	-1E+10	1	-1E+10	1	-1E+10	1	-1E+10	1
4902643	32	C	05/07/2025	10:07	-133.526	43.422	0	3729.80	0	1.5540	0	34.6680	4	27.761	0	3667.768	0	107.6	4	32.1	4	-1E+10	1	-1E+10	1	-1E+10	1	-1E+10	1	-1E+10	1	-1E+10	1
4902643	32	C	05/07/2025	10:07	-133.526	43.422	0	3750.10	0	1.5540	0	34.6680	4	27.761	0	3687.560	0	107.9	4	32.2	4	-1E+10	1	-1E+10	1	-1E+10	1	-1E+10	1	-1E+10	1	-1E+10	1
4902643	32	C	05/07/2025	10:07	-133.526	43.422	0	3770.20	0	1.5530	0	34.6690	4	27.762	0	3707.155	0	108.1	4	32.2	4	-1E+10	1	-1E+10	1	-1E+10	1	-1E+10	1	-1E+10	1	-1E+10	1
4902643	32	C	05/07/2025	10:07	-133.526	43.422	0	3790.50	0	1.5530	0	34.6690	4	27.762	0	3726.944	0	108.1	4	32.3	4	-1E+10	1	-1E+10	1	-1E+10	1	-1E+10	1	-1E+10	1	-1E+10	1
4902643	32	C	05/07/2025	10:07	-133.526	43.422	0	3802.30	0	1.5540	0	34.6690	4	27.762	0	3738.446	0	107.4	4	32.1	4	-1E+10	1	-1E+10	1	-1E+10	1	-1E+10	1	-1E+10	1	-1E+10	1
4902643	32	C	05/07/2025	10:07	-133.526	43.422	0																										
4902643	33	C	05/17/2025	11:57	-133.428	43.488	0	0.80	0	11.8513	0	32.7297	0	24.854	0	0.794	0	254.7	4	94.9	4	-1E+10	1	-1E+10	1	-1E+10	1	-1E+10	1	-1E+10	1	-1E+10	1
4902643	33	C	05/17/2025	11:57	-133.428	43.488	0	0.90	0	11.8465	0	32.7335	0	24.858	0	0.893	0	254.6	4	94.9	4	-1E+10	1	-1E+10	1	-1E+10	1	-1E+10	1	-1E+10	1	-1E+10	1
4902643	33	C	05/17/2025	11:57	-133.428	43.488	0	1.00	0	11.8540	0	32.7300	0	24.854	0	0.992	0	254.4	4	94.8	4	-1E+10	1	-1E+10	1	-1E+10	1	-1E+10	1	-1E+10	1	-1E+10	1
4902643	33	C	05/17/2025	11:57	-133.428	43.488	0	1.10	0	11.8544	0	32.7302	0	24.854	0	1.091	0	254.3	4	94.8	4	-1E+10	1	-1E+10	1	-1E+10	1	-1E+10	1	-1E+10	1	-1E+10	1
4902643	33	C	05/17/2025	11:57	-133.428	43.488	0	1.50	0	11.8560	0	32.7310	0	24.855	0	1.488	0	254.0	4	94.7	4	-1E+10	1	-1E+10	1	-1E+10	1	-1E+10	1	-1E+10	1	-1E+10	1
4902643	33	C	05/17/2025	11:57	-133.428	43.488	0	2.60	0	11.8580	0	32.7300	0	24.854	0	2.579	0	253.9	4	94.6	4	-1E+10	1	-1E+10	1	-1E+10	1	-1E+10	1	-1E+10	1	-1E+10	1
4902643	33	C	05/17/2025	11:57	-133.428	43.488	0	3.40	0	11.8590	0	32.7300	0	24.853	0	3.373	0	253.9	4	94.6	4	-1E+10	1	-1E+10	1	-1E+10	1	-1E+10	1	-1E+10	1	-1E+10	1
4902643	33	C	05/17/2025	11:57	-133.428	43.488	0	4.50	0	11.8580	0	32.7310	0	24.854	0	4.464	0	253.9	4	94.6	4	-1E+10	1	-1E+10	1	-1E+10	1	-1E+10	1	-1E+10	1	-1E+10	1
4902643	33	C	05/17/2025	11:57	-133.428	43.488	0	5.80	0	11.8590	0	32.7310	0	24.854	0	5.754	0	253.8	4	94.6	4	-1E+10	1	-1E+10	1	-1E+10	1	-1E+10	1	-1E+10	1	-1E+10	1
4902643	33	C	05/17/2025	11:57	-133.428	43.488	0	6.60	0	11.8590	0	32.7310	0	24.854	0	6.547	0	253.8	4	94.6	4	-1E+10	1	-1E+10	1	-1E+10	1	-1E+10	1	-1E+10	1	-1E+10	1
4902643	33	C	05/17/2025	11:57	-133.428	43.488	0	7.60	0	11.8590	0	32.7300	0	24.853	0	7.539	0	253.8	4	94.6	4	-1E+10	1	-1E+10	1	-1E+10	1	-1E+10	1	-1E+10	1	-1E+10	1
4902643	33	C	05/17/2025	11:57	-133.428	43.488	0	8.80	0	11.8600	0	32.7310	0	24.854	0	8.730	0	253.7	4	94.6	4	-1E+10	1	-1E+10	1	-1E+10	1	-1E+10	1	-1E+10	1	-1E+10	1
4902643	33	C	05/17/2025	11:57	-133.428	43.488	0	9.90	0	11.8600	0	32.7310	0	24.854	0	9.821	0	253.7	4	94.6	4	-1E+10	1	-1E+10	1	-1E+10	1	-1E+10	1	-1E+10	1	-1E+10	1
4902643	33	C	05/17/2025	11:57	-133.428	43.488	0	14.80	0	11.8620	0	32.7300	0	24.853	0	14.681	0	253.5	4	94.5	4	-1E+10	1	-1E+10	1	-1E+10	1	-1E+10	1	-1E+10	1	-1E+10	1
4902643	33	C	05/17/2025	11:57	-133.428	43.488	0	24.60	0	11.8650	0	32.7300	0	24.853	0	24.402	0	252.8	4	94.2	4	-1E+10	1	-1E+10	1	-1E+10	1	-1E+10	1	-1E+10	1	-1E+10	1
4902643	33	C	05/17/2025	11:57	-133.428	43.488	0	34.90	0	11.8630	0	32.7470	0	24.867	0	34.619	0	251.1	4	93.6	4	-1E+10	1	-1E+10	1	-1E+10	1	-1E+10	1	-1E+10	1	-1E+10	1
4902643	33	C	05/17/2025	11:57	-133.428	43.488	0	44.90	0	11.7820	0	32.7860	0	24.912	0	44.537	0	249.6	4	92.9	4	-1E+10	1	-1E+10	1	-1E+10	1	-1E+10	1	-1E+10	1	-1E+10	1
4902643	33	C	05/17/2025	11:57	-133.428	43.488	0	54.30	0	11.6890	0	32.7900	0	24.932	0	53.860	0	247.5	4	92.0	4	-1E+10	1	-1E+10	1	-1E+10	1	-1E+10	1	-1E+10	1	-1E+10	1
4902643	33	C	05/17/2025	11:57	-133.428	43.488	0	64.60	0	11.4160	0	32.8140	0	25.001	0	64.075	0	243.2	4	89.9	4	-1E+10	1	-1E+10	1	-1E+10	1	-1E+10	1	-1E+10	1	-1E+10	1
4902643	33	C	05/17/2025	11:57	-133.428	43.488	0	74.90	0	11.0680	0	32.8510	0	25.092	0	74.289	0	237.8	4	87.2	4	-1E+10	1	-1E+10	1	-1E+10	1	-1E+10	1	-1E+10	1	-1E+10	1
4902643	33	C	05/17/2025	11:57	-133.428	43.488	0	85.10	0	10.7780	0	32.8530	0	25.145	0	84.404	0	230.7	4	84.1	4	-1E+10	1	-1E+10	1	-1E+10	1	-1E+10	1	-1E+10	1	-1E+10	1
4902643	33	C	05/17/2025	11:57	-133.428	43.488	0	94.90	0	10.4510	0	32.9820	0	25.302	0	94.121	0	219.5	4	79.5	4	-1E+10	1	-1E+10	1	-1E+10	1	-1E+10	1	-1E+10	1	-1E+10	1
4902643	33	C	05/17/2025	11:57	-133.428	43.488	0	105.00	0	10.1950	0	33.1370	0	25.467	0	104.136	0	211.8	4	76.4	4	-1E+10	1	-1E+10	1	-1E+10	1	-1E+10	1	-1E+10	1	-1E+10	1
4902643	33	C	05/17/2025	11:57	-133.428	43.488	0	114.30	0	9.9660	0	33.2070	0	25.560	0	113.357	0	206.9	4	74.3	4	-1E+10	1	-1E+10	1	-1E+10	1	-1E+10	1	-1E+10	1	-1E+10	1
4902643	33	C	05/17/2025	11:57	-133.428	43.488	0	124.90	0	9.5820	0	33.3250	0	25.716	0	123.866	0	201.4	4	71.8	4	-1E+10	1	-1E+10	1	-1E+10	1	-1E+10	1	-1E+10	1	-1E+10	1
4902643	33	C	05/17/2025	11:57	-133.428	43.488	0	134.70	0	9.2680	0	33.4190	0	25.840	0	133.582	0	196.4	4	69.6	4	-1E+10	1	-1E+10	1	-1E+10	1	-1E+10	1	-1E+10	1	-1E+10	1
4902643	33	C	05/17/2025	11:57	-133.428	43.488	0	144.60	0	9.0920	0	33.4980	0	25.930	0	143.396	0	193.4	4	68.3	4	-1E+10	1	-1E+10	1	-1E+10	1	-1E+10	1	-1E+10	1	-1E+10	1
4902643	33	C	05/17/2025	11:57	-133.428	43.488	0	155.30	0	8.8590	0	33.6100	0	26.055	0	154.003	0	190.3	4	66.9	4	-1E+10	1	-1E+10	1	-1E+10	1	-1E+10	1	-1E+10	1	-1E+10	1
4902643	33	C	05/17/2025	11:57	-133.428	43.488	0	164.90	0	8.4250	0	33.7160	0	26.205	0	163.519	0	187.5	4	65.4	4	-1E+10	1	-1E+10	1	-1E+10	1	-1E+10	1	-1E+10	1	-1E+10	1
4902643	33	C	05/17/2025	11:57	-133.428	43.488	0	174.70	0	8.2470	0	33.7700	0	26.274	0	173.233	0	185.3	4	64.4	4	-1E+10	1	-1E+10	1	-1E+10	1	-1E+10	1	-1E+10	1	-1E+10	1
4902643	33	C	05/17/2025	11:57	-133.428	43.488	0	185.40	0	8.0620	0	33.8000	0	26.325	0	183.838	0	182.3	4	63.1	4	-1E+10	1	-1E+10	1	-1E+10	1	-1E+10	1	-1E+10	1	-1E+10	1
4902643	33	C	05/17/2025	11:57	-133.428	43.488	0	194.80	0	7.9290	0	33.8100	0	26.353	0	193.155	0	179.8	4	62.0	4	-1E+10	1	-1E+10	1	-1E+10	1	-1E+10	1	-1E+10	1	-1E+10	1
4902643	33	C	05/17/2025	11:57	-133.428	43.488	0	209.70	0	7.7690	0	33.8240	0	26.387	0	207.921	0	174.6	4	60.0	4	-1E+10	1	-1E+10	1	-1E+10	1	-1E+10	1	-1E+10	1	-1E+10	1
4902643	33	C	05/17/2025	11:57	-133.428	43.488	0	230.00	0	7.4840	0	33.8410	0	26.442	0	228.038	0	168.8	4	57.7	4	-1E+10	1	-1E+10	1	-1E+10	1	-1E+10	1	-1E+10	1	-1E+10	1
4902643	33	C	05/17/2025	11:57	-133.428	43.488	0	249.90	0	7.2500	0	33.8450	0	26.478	0	247.756	0	162.7	4	55.3	4	-1E+10	1	-1E+10	1	-1E+10	1	-1E+10	1	-1E+10	1	-1E+10	1
4902643	33	C	05/17/2025	11:57	-133.428	43.488	0	269.60	0	6.9390	0	33.8440	0	26.520	0	267.274	0	150.3	4	50.7	4	-1E+10	1	-1E+10	1	-1E+10	1	-1E+10	1	-1E+10	1	-1E+10	1
4902643	33	C	05/17/2025	11:57	-133.428	43.488	0	289.80	0	6.5850	0	33.8460	0	26.569	0	287.286	0	134.1	4	44.9	4	-1E+10	1	-1E+10	1	-1E+10	1	-1E+10	1	-1E+10	1	-1E+10	1
4902643	33	C	05/17/2025	11:57	-133.428	43.488	0	310.10	0	6.2900	0	33.8510	0	26.612	0	307.395	0	122.7	4	40.8	4	-1E+10	1	-1E+10	1	-1E+10	1	-1E+10	1	-1E+10	1	-1E+10	1
4902643	33	C	05/17/2025	11:57	-133.428	43.488	0	329.60	0	6.0400	0	33.8530	0	26.645	0	326.710	0	113.7	4	37.6	4	-1E+10	1	-1E+10	1	-1E+10	1	-1E+10	1	-1E+10	1	-1E+10	1
4902643	33	C	05/17/2025	11:57	-133.428	43.488	0	349.50	0	5.7580	0	33.8620	0	26.687	0	346.418	0	102.1	4	33.5	4	-1E+10	1	-1E+10	1	-1E+10	1	-1E+10	1	-1E+10	1	-1E+10	1
4902643	33	C	05/17/2025	11:57	-133.428	43.488	0	369.90	0	5.5160	0	33.8700	0	26.723	0	366.620	0	93.2	4	30.4	4	-1E+10	1	-1E+10	1	-1E+10	1	-1E+10	1	-1E+10	1	-1E+10	1
4902643	33	C	05/17/2025	11:57	-133.428	43.488	0	390.20	0	5.3050	0	33.8810	0	26.757	0	386.722	0	85.6	4	27.8	4	-1E+10	1	-1E+10	1	-1E+10	1	-1E+10	1	-1E+10	1	-1E+10	1
4902643	33	C	05/17/2025	11:57	-133.428	43.488	0	409.80	0	5.1110	0	33.8960	0	26.791	0	406.128	0	78.6	4	25.4	4	-1E+10	1	-1E+10	1	-1E+10	1	-1E+10	1	-1E+10	1	-1E+10	1
4902643	33	C	05/17/2025	11:57	-133.428	43.488	0	429.70	0	4.9420	0	33.9120	0	26.823	0	425.829	0	72.4	4	23.3	4	-1E+10	1	-1E+10	1	-1E+10	1	-1E+10	1	-1E+10	1	-1E+10	1
4902643	33	C	05/17/2025	11:57	-133.428	43.488	0	449.10	0	4.8100	0	33.9310	0	26.853	0	445.033	0	66.5	4	21.4	4	-1E+10	1	-1E+10	1	-1E+10	1	-1E+10	1	-1E+10	1	-1E+10	1
4902643	33	C	05/17/2025	11:57	-133.428	43.488	0	470.20	0	4.6690	0	33.9520	0	26.886	0	465.919	0	59.8	4	19.1	4	-1E+10	1	-1E+10	1	-1E+10	1	-1E+10	1	-1E+10	1	-1E+10	1
4902643	33	C	05/17/2025	11:57	-133.428	43.488	0	489.50	0	4.5560	0	33.9710	0	26.913	0	485.020	0	54.5	4	17.4	4	-1E+10	1	-1E+10	1	-1E+10	1	-1E+10	1	-1E+10	1	-1E+10	1
4902643	33	C	05/17/2025	11:57	-133.428	43.488	0	509.70	0	4.4840	0	33.9860	0	26.933	0	505.011	0	49.9	4	15.9	4	-1E+10	1	-1E+10	1	-1E+10	1	-1E+10	1	-1E+10	1	-1E+10	1
4902643	33	C	05/17/2025	11:57	-133.428	43.488	0	529.70	0	4.4090	0	34.0070	0	26.958	0	524.802	0	44.8	4	14.3	4	-1E+10	1	-1E+10	1	-1E+10	1	-1E+10	1	-1E+10	1	-1E+10	1
4902643	33	C	05/17/2025	11:57	-133.428	43.488	0	549.80	0	4.3370	0	34.0280	0	26.982	0	544.690	0	40.2	4	12.8	4	-1E+10	1	-1E+10	1	-1E+10	1	-1E+10	1	-1E+10	1	-1E+10	1
4902643	33	C	05/17/2025	11:57	-133.428	43.488	0	570.10	0	4.2610	0	34.0510	0	27.009	0	564.773	0	35.4	4	11.2	4	-1E+10	1	-1E+10	1	-1E+10	1	-1E+10	1	-1E+10	1	-1E+10	1
4902643	33	C	05/17/2025	11:57	-133.428	43.488	0	590.10	0	4.2030	0	34.0690	0	27.029	0	584.558	0	31.9	4	10.1	4	-1E+10	1	-1E+10	1	-1E+10	1	-1E+10	1	-1E+10	1	-1E+10	1
4902643	33	C	05/17/2025	11:57	-133.428	43.488	0	609.70	0	4.1570	0	34.0850	0	27.047	0	603.946	0	28.8	4	9.1	4	-1E+10	1	-1E+10	1	-1E+10	1	-1E+10	1	-1E+10	1	-1E+10	1
4902643	33	C	05/17/2025	11:57	-133.428	43.488	0	630.30	0	4.0970	0	34.1080	0	27.071	0	624.321	0	24.7	4	7.8	4	-1E+10	1	-1E+10	1	-1E+10	1	-1E+10	1	-1E+10	1	-1E+10	1
4902643	33	C	05/17/2025	11:57	-133.428	43.488	0	649.70	0	4.0490	0	34.1300	0	27.094	0	643.507	0	21.4	4	6.8	4	-1E+10	1	-1E+10	1	-1E+10	1	-1E+10	1	-1E+10	1	-1E+10	1
4902643	33	C	05/17/2025	11:57	-133.428	43.488	0	669.50	0	3.9920	0	34.1470	0	27.113	0	663.086	0	19.5	4	6.2	4	-1E+10	1	-1E+10	1	-1E+10	1	-1E+10	1	-1E+10	1	-1E+10	1
4902643	33	C	05/17/2025	11:57	-133.428	43.488	0	689.50	0	3.9200	0	34.1650	0	27.135	0	682.862	0	17.4	4	5.5	4	-1E+10	1	-1E+10	1	-1E+10	1	-1E+10	1	-1E+10	1	-1E+10	1
4902643	33	C	05/17/2025	11:57	-133.428	43.488	0	709.50	0	3.8710	0	34.1800	0	27.152	0	702.636	0	15.7	4	4.9	4	-1E+10	1	-1E+10	1	-1E+10	1	-1E+10	1	-1E+10	1	-1E+10	1
4902643	33	C	05/17/2025	11:57	-133.428	43.488	0	729.70	0	3.8320	0	34.1940	0	27.167	0	722.605	0	14.1	4	4.4	4	-1E+10	1	-1E+10	1	-1E+10	1	-1E+10	1	-1E+10	1	-1E+10	1
4902643	33	C	05/17/2025	11:57	-133.428	43.488	0	749.90	0	3.8040	0	34.2090	0	27.182	0	742.573	0	12.4	4	3.9	4	-1E+10	1	-1E+10	1	-1E+10	1	-1E+10	1	-1E+10	1	-1E+10	1
4902643	33	C	05/17/2025	11:57	-133.428	43.488	0	769.60	0	3.7910	0	34.2260	0	27.197	0	762.045	0	10.6	4	3.3	4	-1E+10	1	-1E+10	1	-1E+10	1	-1E+10	1	-1E+10	1	-1E+10	1
4902643	33	C	05/17/2025	11:57	-133.428	43.488	0	789.30	0	3.7860	0	34.2430	0	27.211	0	781.514	0	9.4	4	2.9	4	-1E+10	1	-1E+10	1	-1E+10	1	-1E+10	1	-1E+10	1	-1E+10	1
4902643	33	C	05/17/2025	11:57	-133.428	43.488	0	810.10	0	3.7600	0	34.2630	0	27.230	0	802.069	0	8.4	4	2.6	4	-1E+10	1	-1E+10	1	-1E+10	1	-1E+10	1	-1E+10	1	-1E+10	1
4902643	33	C	05/17/2025	11:57	-133.428	43.488	0	829.70	0	3.7170	0	34.2770	0	27.246	0	821.437	0	7.8	4	2.4	4	-1E+10	1	-1E+10	1	-1E+10	1	-1E+10	1	-1E+10	1	-1E+10	1
4902643	33	C	05/17/2025	11:57	-133.428	43.488	0	849.80	0	3.6790	0	34.2950	0	27.264	0	841.296	0	7.2	4	2.3	4	-1E+10	1	-1E+10	1	-1E+10	1	-1E+10	1	-1E+10	1	-1E+10	1
4902643	33	C	05/17/2025	11:57	-133.428	43.488	0	869.90	0	3.6430	0	34.3070	0	27.277	0	861.153	0	6.9	4	2.2	4	-1E+10	1	-1E+10	1	-1E+10	1	-1E+10	1	-1E+10	1	-1E+10	1
4902643	33	C	05/17/2025	11:57	-133.428	43.488	0	889.90	0	3.6220	0	34.3160	0	27.286	0	880.910	0	6.7	4	2.1	4	-1E+10	1	-1E+10	1	-1E+10	1	-1E+10	1	-1E+10	1	-1E+10	1
4902643	33	C	05/17/2025	11:57	-133.428	43.488	0	909.90	0	3.5860	0	34.3270	0	27.299	0	900.665	0	6.6	4	2.1	4	-1E+10	1	-1E+10	1	-1E+10	1	-1E+10	1	-1E+10	1	-1E+10	1
4902643	33	C	05/17/2025	11:57	-133.428	43.488	0	929.70	0	3.5550	0	34.3390	0	27.312	0	920.221	0	6.6	4	2.1	4	-1E+10	1	-1E+10	1	-1E+10	1	-1E+10	1	-1E+10	1	-1E+10	1
4902643	33	C	05/17/2025	11:57	-133.428	43.488	0	949.70	0	3.5220	0	34.3520	0	27.325	0	939.972	0	6.6	4	2.1	4	-1E+10	1	-1E+10	1	-1E+10	1	-1E+10	1	-1E+10	1	-1E+10	1
4902643	33	C	05/17/2025	11:57	-133.428	43.488	0	969.80	0	3.4800	0	34.3640	0	27.339	0	959.820	0	6.8	4	2.1	4	-1E+10	1	-1E+10	1	-1E+10	1	-1E+10	1	-1E+10	1	-1E+10	1
4902643	33	C	05/17/2025	11:57	-133.428	43.488	0	989.80	0	3.4390	0	34.3760	0	27.353	0	979.567	0	7.0	4	2.2	4	-1E+10	1	-1E+10	1	-1E+10	1	-1E+10	1	-1E+10	1	-1E+10	1
4902643	33	C	05/17/2025	11:57	-133.428	43.488	0	1010.50	0	3.3890	0	34.3870	0	27.366	0	1000.004	0	7.3	4	2.3	4	-1E+10	1	-1E+10	1	-1E+10	1	-1E+10	1	-1E+10	1	-1E+10	1
4902643	33	C	05/17/2025	11:57	-133.428	43.488	0	1029.80	0	3.3430	0	34.3960	0	27.378	0	1019.057	0	7.6	4	2.4	4	-1E+10	1	-1E+10	1	-1E+10	1	-1E+10	1	-1E+10	1	-1E+10	1
4902643	33	C	05/17/2025	11:57	-133.428	43.488	0	1049.90	0	3.3030	0	34.4040	0	27.388	0	1038.897	0	7.9	4	2.5	4	-1E+10	1	-1E+10	1	-1E+10	1	-1E+10	1	-1E+10	1	-1E+10	1
4902643	33	C	05/17/2025	11:57	-133.428	43.488	0	1070.20	0	3.2720	0	34.4110	0	27.397	0	1058.933	0	8.4	4	2.6	4	-1E+10	1	-1E+10	1	-1E+10	1	-1E+10	1	-1E+10	1	-1E+10	1
4902643	33	C	05/17/2025	11:57	-133.428	43.488	0	1089.40	0	3.2340	0	34.4210	0	27.408	0	1077.882	0	9.0	4	2.8	4	-1E+10	1	-1E+10	1	-1E+10	1	-1E+10	1	-1E+10	1	-1E+10	1
4902643	33	C	05/17/2025	11:57	-133.428	43.488	0	1109.50	0	3.2030	0	34.4280	0	27.417	0	1097.717	0	9.5	4	2.9	4	-1E+10	1	-1E+10	1	-1E+10	1	-1E+10	1	-1E+10	1	-1E+10	1
4902643	33	C	05/17/2025	11:57	-133.428	43.488	0	1129.70	0	3.1660	0	34.4340	0	27.425	0	1117.649	0	9.9	4	3.1	4	-1E+10	1	-1E+10	1	-1E+10	1	-1E+10	1	-1E+10	1	-1E+10	1
4902643	33	C	05/17/2025	11:57	-133.428	43.488	0	1149.80	0	3.1260	0	34.4400	0	27.434	0	1137.480	0	10.4	4	3.2	4	-1E+10	1	-1E+10	1	-1E+10	1	-1E+10	1	-1E+10	1	-1E+10	1
4902643	33	C	05/17/2025	11:57	-133.428	43.488	0	1169.80	0	3.0890	0	34.4460	0	27.442	0	1157.210	0	11.1	4	3.4	4	-1E+10	1	-1E+10	1	-1E+10	1	-1E+10	1	-1E+10	1	-1E+10	1
4902643	33	C	05/17/2025	11:57	-133.428	43.488	0	1190.60	0	3.0500	0	34.4530	0	27.451	0	1177.728	0	11.8	4	3.6	4	-1E+10	1	-1E+10	1	-1E+10	1	-1E+10	1	-1E+10	1	-1E+10	1
4902643	33	C	05/17/2025	11:57	-133.428	43.488	0	1209.60	0	3.0110	0	34.4580	0	27.459	0	1196.469	0	12.4	4	3.8	4	-1E+10	1	-1E+10	1	-1E+10	1	-1E+10	1	-1E+10	1	-1E+10	1
4902643	33	C	05/17/2025	11:57	-133.428	43.488	0	1229.30	0	2.9640	0	34.4640	0	27.468	0	1215.898	0	13.1	4	4.0	4	-1E+10	1	-1E+10	1	-1E+10	1	-1E+10	1	-1E+10	1	-1E+10	1
4902643	33	C	05/17/2025	11:57	-133.428	43.488	0	1249.50	0	2.9280	0	34.4700	0	27.476	0	1235.819	0	13.9	4	4.3	4	-1E+10	1	-1E+10	1	-1E+10	1	-1E+10	1	-1E+10	1	-1E+10	1
4902643	33	C	05/17/2025	11:57	-133.428	43.488	0	1269.80	0	2.8950	0	34.4740	0	27.483	0	1255.836	0	14.6	4	4.5	4	-1E+10	1	-1E+10	1	-1E+10	1	-1E+10	1	-1E+10	1	-1E+10	1
4902643	33	C	05/17/2025	11:57	-133.428	43.488	0	1290.60	0	2.8630	0	34.4790	0	27.490	0	1276.344	0	15.4	4	4.7	4	-1E+10	1	-1E+10	1	-1E+10	1	-1E+10	1	-1E+10	1	-1E+10	1
4902643	33	C	05/17/2025	11:57	-133.428	43.488	0	1309.70	0	2.8250	0	34.4840	0	27.497	0	1295.174	0	16.3	4	5.0	4	-1E+10	1	-1E+10	1	-1E+10	1	-1E+10	1	-1E+10	1	-1E+10	1
4902643	33	C	05/17/2025	11:57	-133.428	43.488	0	1330.20	0	2.7780	0	34.4900	0	27.506	0	1315.383	0	17.4	4	5.4	4	-1E+10	1	-1E+10	1	-1E+10	1	-1E+10	1	-1E+10	1	-1E+10	1
4902643	33	C	05/17/2025	11:57	-133.428	43.488	0	1350.30	0	2.7380	0	34.4950	0	27.514	0	1335.196	0	18.5	4	5.7	4	-1E+10	1	-1E+10	1	-1E+10	1	-1E+10	1	-1E+10	1	-1E+10	1
4902643	33	C	05/17/2025	11:57	-133.428	43.488	0	1370.10	0	2.7070	0	34.4990	0	27.520	0	1354.710	0	19.5	4	6.0	4	-1E+10	1	-1E+10	1	-1E+10	1	-1E+10	1	-1E+10	1	-1E+10	1
4902643	33	C	05/17/2025	11:57	-133.428	43.488	0	1390.30	0	2.6700	0	34.5040	0	27.527	0	1374.618	0	20.4	4	6.3	4	-1E+10	1	-1E+10	1	-1E+10	1	-1E+10	1	-1E+10	1	-1E+10	1
4902643	33	C	05/17/2025	11:57	-133.428	43.488	0	1409.80	0	2.6420	0	34.5070	0	27.532	0	1393.833	0	21.2	4	6.5	4	-1E+10	1	-1E+10	1	-1E+10	1	-1E+10	1	-1E+10	1	-1E+10	1
4902643	33	C	05/17/2025	11:57	-133.428	43.488	0	1429.80	0	2.6110	0	34.5110	0	27.538	0	1413.540	0	22.2	4	6.8	4	-1E+10	1	-1E+10	1	-1E+10	1	-1E+10	1	-1E+10	1	-1E+10	1
4902643	33	C	05/17/2025	11:57	-133.428	43.488	0	1450.00	0	2.5810	0	34.5140	0	27.543	0	1433.442	0	23.2	4	7.1	4	-1E+10	1	-1E+10	1	-1E+10	1	-1E+10	1	-1E+10	1	-1E+10	1
4902643	33	C	05/17/2025	11:57	-133.428	43.488	0	1470.00	0	2.5390	0	34.5190	0	27.551	0	1453.145	0	24.6	4	7.5	4	-1E+10	1	-1E+10	1	-1E+10	1	-1E+10	1	-1E+10	1	-1E+10	1
4902643	33	C	05/17/2025	11:57	-133.428	43.488	0	1490.10	0	2.4970	0	34.5240	0	27.558	0	1472.944	0	25.9	4	7.9	4	-1E+10	1	-1E+10	1	-1E+10	1	-1E+10	1	-1E+10	1	-1E+10	1
4902643	33	C	05/17/2025	11:57	-133.428	43.488	0	1510.00	0	2.4680	0	34.5280	0	27.564	0	1492.545	0	27.0	4	8.2	4	-1E+10	1	-1E+10	1	-1E+10	1	-1E+10	1	-1E+10	1	-1E+10	1
4902643	33	C	05/17/2025	11:57	-133.428	43.488	0	1529.80	0	2.4330	0	34.5320	0	27.570	0	1512.045	0	28.3	4	8.6	4	-1E+10	1	-1E+10	1	-1E+10	1	-1E+10	1	-1E+10	1	-1E+10	1
4902643	33	C	05/17/2025	11:57	-133.428	43.488	0	1550.20	0	2.3970	0	34.5360	0	27.576	0	1532.134	0	29.7	4	9.0	4	-1E+10	1	-1E+10	1	-1E+10	1	-1E+10	1	-1E+10	1	-1E+10	1
4902643	33	C	05/17/2025	11:57	-133.428	43.488	0	1569.90	0	2.3630	0	34.5410	0	27.583	0	1551.533	0	31.0	4	9.4	4	-1E+10	1	-1E+10	1	-1E+10	1	-1E+10	1	-1E+10	1	-1E+10	1
4902643	33	C	05/17/2025	11:57	-133.428	43.488	0	1590.00	0	2.3370	0	34.5440	0	27.588	0	1571.323	0	32.3	4	9.8	4	-1E+10	1	-1E+10	1	-1E+10	1	-1E+10	1	-1E+10	1	-1E+10	1
4902643	33	C	05/17/2025	11:57	-133.428	43.488	0	1610.10	0	2.3060	0	34.5480	0	27.594	0	1591.111	0	33.7	4	10.2	4	-1E+10	1	-1E+10	1	-1E+10	1	-1E+10	1	-1E+10	1	-1E+10	1
4902643	33	C	05/17/2025	11:57	-133.428	43.488	0	1630.00	0	2.2820	0	34.5510	0	27.598	0	1610.701	0	34.6	4	10.5	4	-1E+10	1	-1E+10	1	-1E+10	1	-1E+10	1	-1E+10	1	-1E+10	1
4902643	33	C	05/17/2025	11:57	-133.428	43.488	0	1650.20	0	2.2660	0	34.5530	0	27.601	0	1630.584	0	35.5	4	10.8	4	-1E+10	1	-1E+10	1	-1E+10	1	-1E+10	1	-1E+10	1	-1E+10	1
4902643	33	C	05/17/2025	11:57	-133.428	43.488	0	1669.90	0	2.2470	0	34.5560	0	27.605	0	1649.973	0	36.5	4	11.1	4	-1E+10	1	-1E+10	1	-1E+10	1	-1E+10	1	-1E+10	1	-1E+10	1
4902643	33	C	05/17/2025	11:57	-133.428	43.488	0	1689.70	0	2.2230	0	34.5590	0	27.610	0	1669.459	0	38.0	4	11.5	4	-1E+10	1	-1E+10	1	-1E+10	1	-1E+10	1	-1E+10	1	-1E+10	1
4902643	33	C	05/17/2025	11:57	-133.428	43.488	0	1709.90	0	2.1970	0	34.5620	0	27.614	0	1689.337	0	39.3	4	11.9	4	-1E+10	1	-1E+10	1	-1E+10	1	-1E+10	1	-1E+10	1	-1E+10	1
4902643	33	C	05/17/2025	11:57	-133.428	43.488	0	1729.70	0	2.1750	0	34.5650	0	27.619	0	1708.819	0	40.4	4	12.2	4	-1E+10	1	-1E+10	1	-1E+10	1	-1E+10	1	-1E+10	1	-1E+10	1
4902643	33	C	05/17/2025	11:57	-133.428	43.488	0	1749.50	0	2.1600	0	34.5670	0	27.621	0	1728.299	0	41.4	4	12.5	4	-1E+10	1	-1E+10	1	-1E+10	1	-1E+10	1	-1E+10	1	-1E+10	1
4902643	33	C	05/17/2025	11:57	-133.428	43.488	0	1769.90	0	2.1470	0	34.5690	0	27.624	0	1748.368	0	42.1	4	12.8	4	-1E+10	1	-1E+10	1	-1E+10	1	-1E+10	1	-1E+10	1	-1E+10	1
4902643	33	C	05/17/2025	11:57	-133.428	43.488	0	1790.40	0	2.1310	0	34.5720	0	27.628	0	1768.533	0	43.3	4	13.1	4	-1E+10	1	-1E+10	1	-1E+10	1	-1E+10	1	-1E+10	1	-1E+10	1
4902643	33	C	05/17/2025	11:57	-133.428	43.488	0	1810.20	0	2.1120	0	34.5740	0	27.631	0	1788.008	0	44.6	4	13.5	4	-1E+10	1	-1E+10	1	-1E+10	1	-1E+10	1	-1E+10	1	-1E+10	1
4902643	33	C	05/17/2025	11:57	-133.428	43.488	0	1829.90	0	2.0950	0	34.5770	0	27.635	0	1807.383	0	45.6	4	13.8	4	-1E+10	1	-1E+10	1	-1E+10	1	-1E+10	1	-1E+10	1	-1E+10	1
4902643	33	C	05/17/2025	11:57	-133.428	43.488	0	1849.60	0	2.0800	0	34.5790	0	27.638	0	1826.756	0	46.8	4	14.2	4	-1E+10	1	-1E+10	1	-1E+10	1	-1E+10	1	-1E+10	1	-1E+10	1
4902643	33	C	05/17/2025	11:57	-133.428	43.488	0	1869.70	0	2.0580	0	34.5820	0	27.642	0	1846.521	0	48.3	4	14.6	4	-1E+10	1	-1E+10	1	-1E+10	1	-1E+10	1	-1E+10	1	-1E+10	1
4902643	33	C	05/17/2025	11:57	-133.428	43.488	0	1890.50	0	2.0380	0	34.5850	0	27.646	0	1866.971	0	49.6	4	15.0	4	-1E+10	1	-1E+10	1	-1E+10	1	-1E+10	1	-1E+10	1	-1E+10	1
4902643	33	C	05/17/2025	11:57	-133.428	43.488	0	1909.90	0	2.0220	0	34.5870	0	27.649	0	1886.044	0	50.7	4	15.3	4	-1E+10	1	-1E+10	1	-1E+10	1	-1E+10	1	-1E+10	1	-1E+10	1
4902643	33	C	05/17/2025	11:57	-133.428	43.488	0	1930.00	0	2.0050	0	34.5900	0	27.653	0	1905.803	0	51.8	4	15.6	4	-1E+10	1	-1E+10	1	-1E+10	1	-1E+10	1	-1E+10	1	-1E+10	1
4902643	33	C	05/17/2025	11:57	-133.428	43.488	0	1950.20	0	1.9910	0	34.5920	0	27.656	0	1925.658	0	52.8	4	15.9	4	-1E+10	1	-1E+10	1	-1E+10	1	-1E+10	1	-1E+10	1	-1E+10	1
4902643	33	C	05/17/2025	11:57	-133.428	43.488	0	1970.20	0	1.9750	0	34.5940	0	27.659	0	1945.316	0	54.0	4	16.3	4	-1E+10	1	-1E+10	1	-1E+10	1	-1E+10	1	-1E+10	1	-1E+10	1
4902643	33	C	05/17/2025	11:57	-133.428	43.488	0	1990.30	0	1.9590	0	34.5960	0	27.662	0	1965.069	0	55.0	4	16.6	4	-1E+10	1	-1E+10	1	-1E+10	1	-1E+10	1	-1E+10	1	-1E+10	1
4902643	33	C	05/17/2025	11:57	-133.428	43.488	0	2010.00	0	1.9520	0	34.5970	4	27.663	0	1984.428	0	55.5	4	16.7	4	-1E+10	1	-1E+10	1	-1E+10	1	-1E+10	1	-1E+10	1	-1E+10	1
4902643	33	C	05/17/2025	11:57	-133.428	43.488	0	2030.40	0	1.9420	0	34.5990	4	27.666	0	2004.472	0	56.3	4	17.0	4	-1E+10	1	-1E+10	1	-1E+10	1	-1E+10	1	-1E+10	1	-1E+10	1
4902643	33	C	05/17/2025	11:57	-133.428	43.488	0	2049.70	0	1.9360	0	34.6000	4	27.667	0	2023.434	0	57.1	4	17.2	4	-1E+10	1	-1E+10	1	-1E+10	1	-1E+10	1	-1E+10	1	-1E+10	1
4902643	33	C	05/17/2025	11:57	-133.428	43.488	0	2069.90	0	1.9210	0	34.6020	4	27.670	0	2043.279	0	58.1	4	17.5	4	-1E+10	1	-1E+10	1	-1E+10	1	-1E+10	1	-1E+10	1	-1E+10	1
4902643	33	C	05/17/2025	11:57	-133.428	43.488	0	2090.40	0	1.9080	0	34.6040	4	27.673	0	2063.416	0	59.0	4	17.7	4	-1E+10	1	-1E+10	1	-1E+10	1	-1E+10	1	-1E+10	1	-1E+10	1
4902643	33	C	05/17/2025	11:57	-133.428	43.488	0	2110.10	0	1.8990	0	34.6050	4	27.674	0	2082.766	0	59.5	4	17.9	4	-1E+10	1	-1E+10	1	-1E+10	1	-1E+10	1	-1E+10	1	-1E+10	1
4902643	33	C	05/17/2025	11:57	-133.428	43.488	0	2130.30	0	1.8930	0	34.6060	4	27.676	0	2102.605	0	60.1	4	18.1	4	-1E+10	1	-1E+10	1	-1E+10	1	-1E+10	1	-1E+10	1	-1E+10	1
4902643	33	C	05/17/2025	11:57	-133.428	43.488	0	2149.80	0	1.8870	0	34.6080	4	27.678	0	2121.755	0	60.8	4	18.3	4	-1E+10	1	-1E+10	1	-1E+10	1	-1E+10	1	-1E+10	1	-1E+10	1
4902643	33	C	05/17/2025	11:57	-133.428	43.488	0	2169.90	0	1.8790	0	34.6090	4	27.679	0	2141.492	0	61.7	4	18.5	4	-1E+10	1	-1E+10	1	-1E+10	1	-1E+10	1	-1E+10	1	-1E+10	1
4902643	33	C	05/17/2025	11:57	-133.428	43.488	0	2190.20	0	1.8700	0	34.6110	4	27.682	0	2161.423	0	62.5	4	18.8	4	-1E+10	1	-1E+10	1	-1E+10	1	-1E+10	1	-1E+10	1	-1E+10	1
4902643	33	C	05/17/2025	11:57	-133.428	43.488	0	2210.20	0	1.8610	0	34.6120	4	27.683	0	2181.059	0	63.0	4	18.9	4	-1E+10	1	-1E+10	1	-1E+10	1	-1E+10	1	-1E+10	1	-1E+10	1
4902643	33	C	05/17/2025	11:57	-133.428	43.488	0	2230.10	0	1.8530	0	34.6130	4	27.685	0	2200.594	0	63.6	4	19.1	4	-1E+10	1	-1E+10	1	-1E+10	1	-1E+10	1	-1E+10	1	-1E+10	1
4902643	33	C	05/17/2025	11:57	-133.428	43.488	0	2250.00	0	1.8460	0	34.6140	4	27.686	0	2220.127	0	64.2	4	19.3	4	-1E+10	1	-1E+10	1	-1E+10	1	-1E+10	1	-1E+10	1	-1E+10	1
4902643	33	C	05/17/2025	11:57	-133.428	43.488	0	2270.10	0	1.8380	0	34.6150	4	27.688	0	2239.856	0	65.0	4	19.5	4	-1E+10	1	-1E+10	1	-1E+10	1	-1E+10	1	-1E+10	1	-1E+10	1
4902643	33	C	05/17/2025	11:57	-133.428	43.488	0	2290.40	0	1.8300	0	34.6160	4	27.689	0	2259.778	0	65.6	4	19.7	4	-1E+10	1	-1E+10	1	-1E+10	1	-1E+10	1	-1E+10	1	-1E+10	1
4902643	33	C	05/17/2025	11:57	-133.428	43.488	0	2310.40	0	1.8240	0	34.6170	4	27.691	0	2279.404	0	66.3	4	19.9	4	-1E+10	1	-1E+10	1	-1E+10	1	-1E+10	1	-1E+10	1	-1E+10	1
4902643	33	C	05/17/2025	11:57	-133.428	43.488	0	2330.70	0	1.8150	0	34.6190	4	27.693	0	2299.323	0	67.2	4	20.2	4	-1E+10	1	-1E+10	1	-1E+10	1	-1E+10	1	-1E+10	1	-1E+10	1
4902643	33	C	05/17/2025	11:57	-133.428	43.488	0	2350.10	0	1.8090	0	34.6200	4	27.695	0	2318.357	0	68.0	4	20.4	4	-1E+10	1	-1E+10	1	-1E+10	1	-1E+10	1	-1E+10	1	-1E+10	1
4902643	33	C	05/17/2025	11:57	-133.428	43.488	0	2369.90	0	1.8030	0	34.6210	4	27.696	0	2337.782	0	68.9	4	20.7	4	-1E+10	1	-1E+10	1	-1E+10	1	-1E+10	1	-1E+10	1	-1E+10	1
4902643	33	C	05/17/2025	11:57	-133.428	43.488	0	2389.90	0	1.7960	0	34.6220	4	27.697	0	2357.401	0	69.7	4	20.9	4	-1E+10	1	-1E+10	1	-1E+10	1	-1E+10	1	-1E+10	1	-1E+10	1
4902643	33	C	05/17/2025	11:57	-133.428	43.488	0	2410.20	0	1.7900	0	34.6240	4	27.699	0	2377.312	0	70.6	4	21.2	4	-1E+10	1	-1E+10	1	-1E+10	1	-1E+10	1	-1E+10	1	-1E+10	1
4902643	33	C	05/17/2025	11:57	-133.428	43.488	0	2430.10	0	1.7820	0	34.6250	4	27.701	0	2396.830	0	71.4	4	21.4	4	-1E+10	1	-1E+10	1	-1E+10	1	-1E+10	1	-1E+10	1	-1E+10	1
4902643	33	C	05/17/2025	11:57	-133.428	43.488	0	2449.80	0	1.7770	0	34.6260	4	27.702	0	2416.149	0	72.0	4	21.6	4	-1E+10	1	-1E+10	1	-1E+10	1	-1E+10	1	-1E+10	1	-1E+10	1
4902643	33	C	05/17/2025	11:57	-133.428	43.488	0	2469.60	0	1.7690	0	34.6270	4	27.704	0	2435.565	0	72.8	4	21.8	4	-1E+10	1	-1E+10	1	-1E+10	1	-1E+10	1	-1E+10	1	-1E+10	1
4902643	33	C	05/17/2025	11:57	-133.428	43.488	0	2489.80	0	1.7640	0	34.6280	4	27.705	0	2455.372	0	73.4	4	22.0	4	-1E+10	1	-1E+10	1	-1E+10	1	-1E+10	1	-1E+10	1	-1E+10	1
4902643	33	C	05/17/2025	11:57	-133.428	43.488	0	2510.00	0	1.7570	0	34.6290	4	27.707	0	2475.176	0	74.3	4	22.3	4	-1E+10	1	-1E+10	1	-1E+10	1	-1E+10	1	-1E+10	1	-1E+10	1
4902643	33	C	05/17/2025	11:57	-133.428	43.488	0	2529.90	0	1.7450	0	34.6300	4	27.708	0	2494.684	0	75.3	4	22.6	4	-1E+10	1	-1E+10	1	-1E+10	1	-1E+10	1	-1E+10	1	-1E+10	1
4902643	33	C	05/17/2025	11:57	-133.428	43.488	0	2549.80	0	1.7360	0	34.6310	4	27.710	0	2514.191	0	76.1	4	22.8	4	-1E+10	1	-1E+10	1	-1E+10	1	-1E+10	1	-1E+10	1	-1E+10	1
4902643	33	C	05/17/2025	11:57	-133.428	43.488	0	2569.90	0	1.7290	0	34.6320	4	27.711	0	2533.892	0	76.8	4	23.0	4	-1E+10	1	-1E+10	1	-1E+10	1	-1E+10	1	-1E+10	1	-1E+10	1
4902643	33	C	05/17/2025	11:57	-133.428	43.488	0	2589.70	0	1.7220	0	34.6330	4	27.713	0	2553.297	0	77.5	4	23.2	4	-1E+10	1	-1E+10	1	-1E+10	1	-1E+10	1	-1E+10	1	-1E+10	1
4902643	33	C	05/17/2025	11:57	-133.428	43.488	0	2610.00	0	1.7170	0	34.6340	4	27.714	0	2573.191	0	78.0	4	23.4	4	-1E+10	1	-1E+10	1	-1E+10	1	-1E+10	1	-1E+10	1	-1E+10	1
4902643	33	C	05/17/2025	11:57	-133.428	43.488	0	2629.60	0	1.7130	0	34.6340	4	27.715	0	2592.397	0	78.7	4	23.6	4	-1E+10	1	-1E+10	1	-1E+10	1	-1E+10	1	-1E+10	1	-1E+10	1
4902643	33	C	05/17/2025	11:57	-133.428	43.488	0	2649.80	0	1.7080	0	34.6350	4	27.716	0	2612.189	0	79.4	4	23.8	4	-1E+10	1	-1E+10	1	-1E+10	1	-1E+10	1	-1E+10	1	-1E+10	1
4902643	33	C	05/17/2025	11:57	-133.428	43.488	0	2670.10	0	1.7020	0	34.6360	4	27.717	0	2632.077	0	80.2	4	24.0	4	-1E+10	1	-1E+10	1	-1E+10	1	-1E+10	1	-1E+10	1	-1E+10	1
4902643	33	C	05/17/2025	11:57	-133.428	43.488	0	2689.90	0	1.6940	0	34.6370	4	27.719	0	2651.473	0	81.1	4	24.3	4	-1E+10	1	-1E+10	1	-1E+10	1	-1E+10	1	-1E+10	1	-1E+10	1
4902643	33	C	05/17/2025	11:57	-133.428	43.488	0	2709.90	0	1.6870	0	34.6380	4	27.720	0	2671.063	0	81.8	4	24.5	4	-1E+10	1	-1E+10	1	-1E+10	1	-1E+10	1	-1E+10	1	-1E+10	1
4902643	33	C	05/17/2025	11:57	-133.428	43.488	0	2729.80	0	1.6820	0	34.6390	4	27.721	0	2690.554	0	82.5	4	24.7	4	-1E+10	1	-1E+10	1	-1E+10	1	-1E+10	1	-1E+10	1	-1E+10	1
4902643	33	C	05/17/2025	11:57	-133.428	43.488	0	2749.70	0	1.6760	0	34.6400	4	27.723	0	2710.043	0	83.3	4	24.9	4	-1E+10	1	-1E+10	1	-1E+10	1	-1E+10	1	-1E+10	1	-1E+10	1
4902643	33	C	05/17/2025	11:57	-133.428	43.488	0	2770.10	0	1.6710	0	34.6410	4	27.724	0	2730.020	0	84.0	4	25.1	4	-1E+10	1	-1E+10	1	-1E+10	1	-1E+10	1	-1E+10	1	-1E+10	1
4902643	33	C	05/17/2025	11:57	-133.428	43.488	0	2790.00	0	1.6670	0	34.6410	4	27.725	0	2749.506	0	84.7	4	25.3	4	-1E+10	1	-1E+10	1	-1E+10	1	-1E+10	1	-1E+10	1	-1E+10	1
4902643	33	C	05/17/2025	11:57	-133.428	43.488	0	2810.00	0	1.6610	0	34.6420	4	27.726	0	2769.087	0	85.4	4	25.5	4	-1E+10	1	-1E+10	1	-1E+10	1	-1E+10	1	-1E+10	1	-1E+10	1
4902643	33	C	05/17/2025	11:57	-133.428	43.488	0	2829.90	0	1.6560	0	34.6430	4	27.727	0	2788.569	0	86.1	4	25.7	4	-1E+10	1	-1E+10	1	-1E+10	1	-1E+10	1	-1E+10	1	-1E+10	1
4902643	33	C	05/17/2025	11:57	-133.428	43.488	0	2849.70	0	1.6520	0	34.6440	4	27.728	0	2807.951	0	86.7	4	25.9	4	-1E+10	1	-1E+10	1	-1E+10	1	-1E+10	1	-1E+10	1	-1E+10	1
4902643	33	C	05/17/2025	11:57	-133.428	43.488	0	2869.60	0	1.6490	0	34.6440	4	27.729	0	2827.430	0	87.3	4	26.1	4	-1E+10	1	-1E+10	1	-1E+10	1	-1E+10	1	-1E+10	1	-1E+10	1
4902643	33	C	05/17/2025	11:57	-133.428	43.488	0	2890.30	0	1.6450	0	34.6450	4	27.730	0	2847.690	0	88.0	4	26.3	4	-1E+10	1	-1E+10	1	-1E+10	1	-1E+10	1	-1E+10	1	-1E+10	1
4902643	33	C	05/17/2025	11:57	-133.428	43.488	0	2909.80	0	1.6410	0	34.6460	4	27.731	0	2866.773	0	88.5	4	26.5	4	-1E+10	1	-1E+10	1	-1E+10	1	-1E+10	1	-1E+10	1	-1E+10	1
4902643	33	C	05/17/2025	11:57	-133.428	43.488	0	2929.80	0	1.6360	0	34.6460	4	27.732	0	2886.344	0	89.1	4	26.6	4	-1E+10	1	-1E+10	1	-1E+10	1	-1E+10	1	-1E+10	1	-1E+10	1
4902643	33	C	05/17/2025	11:57	-133.428	43.488	0	2950.10	0	1.6310	0	34.6470	4	27.733	0	2906.207	0	89.6	4	26.8	4	-1E+10	1	-1E+10	1	-1E+10	1	-1E+10	1	-1E+10	1	-1E+10	1
4902643	33	C	05/17/2025	11:57	-133.428	43.488	0	2970.20	0	1.6260	0	34.6480	4	27.734	0	2925.872	0	90.2	4	27.0	4	-1E+10	1	-1E+10	1	-1E+10	1	-1E+10	1	-1E+10	1	-1E+10	1
4902643	33	C	05/17/2025	11:57	-133.428	43.488	0	2989.90	0	1.6230	0	34.6480	4	27.735	0	2945.144	0	90.9	4	27.2	4	-1E+10	1	-1E+10	1	-1E+10	1	-1E+10	1	-1E+10	1	-1E+10	1
4902643	33	C	05/17/2025	11:57	-133.428	43.488	0	3010.10	0	1.6180	0	34.6490	4	27.736	0	2964.904	0	91.6	4	27.4	4	-1E+10	1	-1E+10	1	-1E+10	1	-1E+10	1	-1E+10	1	-1E+10	1
4902643	33	C	05/17/2025	11:57	-133.428	43.488	0	3029.80	0	1.6140	0	34.6500	4	27.737	0	2984.173	0	92.4	4	27.6	4	-1E+10	1	-1E+10	1	-1E+10	1	-1E+10	1	-1E+10	1	-1E+10	1
4902643	33	C	05/17/2025	11:57	-133.428	43.488	0	3049.90	0	1.6090	0	34.6510	4	27.738	0	3003.831	0	93.2	4	27.8	4	-1E+10	1	-1E+10	1	-1E+10	1	-1E+10	1	-1E+10	1	-1E+10	1
4902643	33	C	05/17/2025	11:57	-133.428	43.488	0	3070.00	0	1.6050	0	34.6520	4	27.740	0	3023.487	0	93.8	4	28.0	4	-1E+10	1	-1E+10	1	-1E+10	1	-1E+10	1	-1E+10	1	-1E+10	1
4902643	33	C	05/17/2025	11:57	-133.428	43.488	0	3090.00	0	1.6020	0	34.6520	4	27.740	0	3043.044	0	94.4	4	28.2	4	-1E+10	1	-1E+10	1	-1E+10	1	-1E+10	1	-1E+10	1	-1E+10	1
4902643	33	C	05/17/2025	11:57	-133.428	43.488	0	3110.00	0	1.5980	0	34.6530	4	27.741	0	3062.599	0	95.1	4	28.4	4	-1E+10	1	-1E+10	1	-1E+10	1	-1E+10	1	-1E+10	1	-1E+10	1
4902643	33	C	05/17/2025	11:57	-133.428	43.488	0	3129.90	0	1.5940	0	34.6530	4	27.742	0	3082.055	0	95.7	4	28.6	4	-1E+10	1	-1E+10	1	-1E+10	1	-1E+10	1	-1E+10	1	-1E+10	1
4902643	33	C	05/17/2025	11:57	-133.428	43.488	0	3149.90	0	1.5900	0	34.6540	4	27.743	0	3101.606	0	96.3	4	28.7	4	-1E+10	1	-1E+10	1	-1E+10	1	-1E+10	1	-1E+10	1	-1E+10	1
4902643	33	C	05/17/2025	11:57	-133.428	43.488	0	3169.60	0	1.5880	0	34.6550	4	27.744	0	3120.863	0	96.7	4	28.9	4	-1E+10	1	-1E+10	1	-1E+10	1	-1E+10	1	-1E+10	1	-1E+10	1
4902643	33	C	05/17/2025	11:57	-133.428	43.488	0	3189.70	0	1.5840	0	34.6550	4	27.744	0	3140.509	0	97.3	4	29.0	4	-1E+10	1	-1E+10	1	-1E+10	1	-1E+10	1	-1E+10	1	-1E+10	1
4902643	33	C	05/17/2025	11:57	-133.428	43.488	0	3210.30	0	1.5810	0	34.6560	4	27.745	0	3160.642	0	97.9	4	29.2	4	-1E+10	1	-1E+10	1	-1E+10	1	-1E+10	1	-1E+10	1	-1E+10	1
4902643	33	C	05/17/2025	11:57	-133.428	43.488	0	3229.90	0	1.5780	0	34.6560	4	27.746	0	3179.795	0	98.5	4	29.4	4	-1E+10	1	-1E+10	1	-1E+10	1	-1E+10	1	-1E+10	1	-1E+10	1
4902643	33	C	05/17/2025	11:57	-133.428	43.488	0	3249.90	0	1.5750	0	34.6570	4	27.747	0	3199.338	0	99.0	4	29.5	4	-1E+10	1	-1E+10	1	-1E+10	1	-1E+10	1	-1E+10	1	-1E+10	1
4902643	33	C	05/17/2025	11:57	-133.428	43.488	0	3269.90	0	1.5730	0	34.6570	4	27.747	0	3218.879	0	99.3	4	29.7	4	-1E+10	1	-1E+10	1	-1E+10	1	-1E+10	1	-1E+10	1	-1E+10	1
4902643	33	C	05/17/2025	11:57	-133.428	43.488	0	3290.10	0	1.5710	0	34.6580	4	27.748	0	3238.614	0	99.8	4	29.8	4	-1E+10	1	-1E+10	1	-1E+10	1	-1E+10	1	-1E+10	1	-1E+10	1
4902643	33	C	05/17/2025	11:57	-133.428	43.488	0	3309.80	0	1.5680	0	34.6580	4	27.749	0	3257.859	0	100.4	4	30.0	4	-1E+10	1	-1E+10	1	-1E+10	1	-1E+10	1	-1E+10	1	-1E+10	1
4902643	33	C	05/17/2025	11:57	-133.428	43.488	0	3329.50	0	1.5670	0	34.6590	4	27.750	0	3277.101	0	100.8	4	30.1	4	-1E+10	1	-1E+10	1	-1E+10	1	-1E+10	1	-1E+10	1	-1E+10	1
4902643	33	C	05/17/2025	11:57	-133.428	43.488	0	3350.50	0	1.5650	0	34.6590	4	27.750	0	3297.612	0	101.3	4	30.2	4	-1E+10	1	-1E+10	1	-1E+10	1	-1E+10	1	-1E+10	1	-1E+10	1
4902643	33	C	05/17/2025	11:57	-133.428	43.488	0	3370.10	0	1.5630	0	34.6600	4	27.751	0	3316.754	0	101.7	4	30.4	4	-1E+10	1	-1E+10	1	-1E+10	1	-1E+10	1	-1E+10	1	-1E+10	1
4902643	33	C	05/17/2025	11:57	-133.428	43.488	0	3389.60	0	1.5620	0	34.6600	4	27.751	0	3335.796	0	102.2	4	30.5	4	-1E+10	1	-1E+10	1	-1E+10	1	-1E+10	1	-1E+10	1	-1E+10	1
4902643	33	C	05/17/2025	11:57	-133.428	43.488	0	3409.80	0	1.5590	0	34.6610	4	27.752	0	3355.520	0	102.8	4	30.7	4	-1E+10	1	-1E+10	1	-1E+10	1	-1E+10	1	-1E+10	1	-1E+10	1
4902643	33	C	05/17/2025	11:57	-133.428	43.488	0	3429.70	0	1.5580	0	34.6620	4	27.753	0	3374.950	0	103.3	4	30.8	4	-1E+10	1	-1E+10	1	-1E+10	1	-1E+10	1	-1E+10	1	-1E+10	1
4902643	33	C	05/17/2025	11:57	-133.428	43.488	0	3450.00	0	1.5570	0	34.6620	4	27.754	0	3394.768	0	103.6	4	30.9	4	-1E+10	1	-1E+10	1	-1E+10	1	-1E+10	1	-1E+10	1	-1E+10	1
4902643	33	C	05/17/2025	11:57	-133.428	43.488	0	3470.30	0	1.5560	0	34.6630	4	27.755	0	3414.585	0	104.0	4	31.0	4	-1E+10	1	-1E+10	1	-1E+10	1	-1E+10	1	-1E+10	1	-1E+10	1
4902643	33	C	05/17/2025	11:57	-133.428	43.488	0	3489.70	0	1.5550	0	34.6630	4	27.755	0	3433.521	0	104.4	4	31.2	4	-1E+10	1	-1E+10	1	-1E+10	1	-1E+10	1	-1E+10	1	-1E+10	1
4902643	33	C	05/17/2025	11:57	-133.428	43.488	0	3509.90	0	1.5540	0	34.6640	4	27.756	0	3453.236	0	104.8	4	31.3	4	-1E+10	1	-1E+10	1	-1E+10	1	-1E+10	1	-1E+10	1	-1E+10	1
4902643	33	C	05/17/2025	11:57	-133.428	43.488	0	3530.00	0	1.5530	0	34.6640	4	27.756	0	3472.852	0	105.2	4	31.4	4	-1E+10	1	-1E+10	1	-1E+10	1	-1E+10	1	-1E+10	1	-1E+10	1
4902643	33	C	05/17/2025	11:57	-133.428	43.488	0	3550.10	0	1.5530	0	34.6640	4	27.756	0	3492.467	0	105.4	4	31.4	4	-1E+10	1	-1E+10	1	-1E+10	1	-1E+10	1	-1E+10	1	-1E+10	1
4902643	33	C	05/17/2025	11:57	-133.428	43.488	0	3570.00	0	1.5540	0	34.6650	4	27.757	0	3511.884	0	105.6	4	31.5	4	-1E+10	1	-1E+10	1	-1E+10	1	-1E+10	1	-1E+10	1	-1E+10	1
4902643	33	C	05/17/2025	11:57	-133.428	43.488	0	3590.30	0	1.5540	0	34.6650	4	27.757	0	3531.690	0	106.0	4	31.6	4	-1E+10	1	-1E+10	1	-1E+10	1	-1E+10	1	-1E+10	1	-1E+10	1
4902643	33	C	05/17/2025	11:57	-133.428	43.488	0	3610.00	0	1.5530	0	34.6650	4	27.757	0	3550.908	0	106.3	4	31.7	4	-1E+10	1	-1E+10	1	-1E+10	1	-1E+10	1	-1E+10	1	-1E+10	1
4902643	33	C	05/17/2025	11:57	-133.428	43.488	0	3629.90	0	1.5530	0	34.6660	4	27.758	0	3570.321	0	106.6	4	31.8	4	-1E+10	1	-1E+10	1	-1E+10	1	-1E+10	1	-1E+10	1	-1E+10	1
4902643	33	C	05/17/2025	11:57	-133.428	43.488	0	3649.80	0	1.5530	0	34.6660	4	27.759	0	3589.731	0	106.8	4	31.9	4	-1E+10	1	-1E+10	1	-1E+10	1	-1E+10	1	-1E+10	1	-1E+10	1
4902643	33	C	05/17/2025	11:57	-133.428	43.488	0	3670.20	0	1.5540	0	34.6660	4	27.759	0	3609.627	0	106.9	4	31.9	4	-1E+10	1	-1E+10	1	-1E+10	1	-1E+10	1	-1E+10	1	-1E+10	1
4902643	33	C	05/17/2025	11:57	-133.428	43.488	0	3690.70	0	1.5550	0	34.6670	4	27.760	0	3629.620	0	106.8	4	31.9	4	-1E+10	1	-1E+10	1	-1E+10	1	-1E+10	1	-1E+10	1	-1E+10	1
4902643	33	C	05/17/2025	11:57	-133.428	43.488	0	3710.10	0	1.5570	0	34.6680	4	27.760	0	3648.537	0	106.5	4	31.8	4	-1E+10	1	-1E+10	1	-1E+10	1	-1E+10	1	-1E+10	1	-1E+10	1
4902643	33	C	05/17/2025	11:57	-133.428	43.488	0	3730.10	0	1.5580	0	34.6680	4	27.760	0	3668.038	0	106.5	4	31.8	4	-1E+10	1	-1E+10	1	-1E+10	1	-1E+10	1	-1E+10	1	-1E+10	1
4902643	33	C	05/17/2025	11:57	-133.428	43.488	0	3749.90	0	1.5590	0	34.6680	4	27.761	0	3687.343	0	106.5	4	31.8	4	-1E+10	1	-1E+10	1	-1E+10	1	-1E+10	1	-1E+10	1	-1E+10	1
4902643	33	C	05/17/2025	11:57	-133.428	43.488	0	3769.80	0	1.5580	0	34.6680	4	27.761	0	3706.743	0	106.6	4	31.8	4	-1E+10	1	-1E+10	1	-1E+10	1	-1E+10	1	-1E+10	1	-1E+10	1
4902643	33	C	05/17/2025	11:57	-133.428	43.488	0																										
4902643	35	C	06/06/2025	03:16	-133.160	43.587	0	1.20	0	12.8030	0	32.5230	0	24.514	0	1.190	0	254.2	4	96.5	4	-1E+10	1	-1E+10	1	-1E+10	1	-1E+10	1	-1E+10	1	-1E+10	1
4902643	35	C	06/06/2025	03:16	-133.160	43.587	0	1.30	0	12.8043	0	32.5220	0	24.513	0	1.290	0	254.2	4	96.5	4	-1E+10	1	-1E+10	1	-1E+10	1	-1E+10	1	-1E+10	1	-1E+10	1
4902643	35	C	06/06/2025	03:16	-133.160	43.587	0	1.40	0	12.8040	0	32.5235	0	24.514	0	1.389	0	254.1	4	96.5	4	-1E+10	1	-1E+10	1	-1E+10	1	-1E+10	1	-1E+10	1	-1E+10	1
4902643	35	C	06/06/2025	03:16	-133.160	43.587	0	1.50	0	12.8067	0	32.5230	0	24.513	0	1.488	0	-1e10	1	-1e10	1	-1E+10	1	-1E+10	1	-1E+10	1	-1E+10	1	-1E+10	1	-1E+10	1
4902643	35	C	06/06/2025	03:16	-133.160	43.587	0	1.70	0	12.8100	0	32.5210	0	24.511	0	1.686	0	253.8	4	96.3	4	-1E+10	1	-1E+10	1	-1E+10	1	-1E+10	1	-1E+10	1	-1E+10	1
4902643	35	C	06/06/2025	03:16	-133.160	43.587	0	2.50	0	12.8100	0	32.5210	0	24.511	0	2.480	0	253.9	4	96.4	4	-1E+10	1	-1E+10	1	-1E+10	1	-1E+10	1	-1E+10	1	-1E+10	1
4902643	35	C	06/06/2025	03:16	-133.160	43.587	0	3.50	0	12.8100	0	32.5210	0	24.511	0	3.472	0	253.7	4	96.3	4	-1E+10	1	-1E+10	1	-1E+10	1	-1E+10	1	-1E+10	1	-1E+10	1
4902643	35	C	06/06/2025	03:16	-133.160	43.587	0	4.70	0	12.8100	0	32.5220	0	24.512	0	4.662	0	253.7	4	96.3	4	-1E+10	1	-1E+10	1	-1E+10	1	-1E+10	1	-1E+10	1	-1E+10	1
4902643	35	C	06/06/2025	03:16	-133.160	43.587	0	5.50	0	12.8100	0	32.5220	0	24.512	0	5.456	0	253.7	4	96.3	4	-1E+10	1	-1E+10	1	-1E+10	1	-1E+10	1	-1E+10	1	-1E+10	1
4902643	35	C	06/06/2025	03:16	-133.160	43.587	0	6.50	0	12.8100	0	32.5220	0	24.512	0	6.448	0	253.6	4	96.3	4	-1E+10	1	-1E+10	1	-1E+10	1	-1E+10	1	-1E+10	1	-1E+10	1
4902643	35	C	06/06/2025	03:16	-133.160	43.587	0	7.60	0	12.8100	0	32.5220	0	24.512	0	7.539	0	253.5	4	96.2	4	-1E+10	1	-1E+10	1	-1E+10	1	-1E+10	1	-1E+10	1	-1E+10	1
4902643	35	C	06/06/2025	03:16	-133.160	43.587	0	8.50	0	12.8100	0	32.5230	0	24.512	0	8.432	0	253.6	4	96.3	4	-1E+10	1	-1E+10	1	-1E+10	1	-1E+10	1	-1E+10	1	-1E+10	1
4902643	35	C	06/06/2025	03:16	-133.160	43.587	0	9.50	0	12.8100	0	32.5220	0	24.512	0	9.424	0	253.6	4	96.2	4	-1E+10	1	-1E+10	1	-1E+10	1	-1E+10	1	-1E+10	1	-1E+10	1
4902643	35	C	06/06/2025	03:16	-133.160	43.587	0	14.80	0	12.8090	0	32.5220	0	24.512	0	14.681	0	253.3	4	96.1	4	-1E+10	1	-1E+10	1	-1E+10	1	-1E+10	1	-1E+10	1	-1E+10	1
4902643	35	C	06/06/2025	03:16	-133.160	43.587	0	25.60	0	12.7790	0	32.5240	0	24.520	0	25.394	0	252.8	4	95.9	4	-1E+10	1	-1E+10	1	-1E+10	1	-1E+10	1	-1E+10	1	-1E+10	1
4902643	35	C	06/06/2025	03:16	-133.160	43.587	0	34.90	0	12.6390	0	32.5390	0	24.559	0	34.618	0	252.4	4	95.5	4	-1E+10	1	-1E+10	1	-1E+10	1	-1E+10	1	-1E+10	1	-1E+10	1
4902643	35	C	06/06/2025	03:16	-133.160	43.587	0	45.00	0	12.1540	0	32.5730	0	24.677	0	44.636	0	253.6	4	95.0	4	-1E+10	1	-1E+10	1	-1E+10	1	-1E+10	1	-1E+10	1	-1E+10	1
4902643	35	C	06/06/2025	03:16	-133.160	43.587	0	55.50	0	11.4060	0	32.5930	0	24.831	0	55.049	0	254.9	4	94.0	4	-1E+10	1	-1E+10	1	-1E+10	1	-1E+10	1	-1E+10	1	-1E+10	1
4902643	35	C	06/06/2025	03:16	-133.160	43.587	0	64.90	0	10.6230	0	32.6330	0	25.000	0	64.371	0	253.7	4	92.1	4	-1E+10	1	-1E+10	1	-1E+10	1	-1E+10	1	-1E+10	1	-1E+10	1
4902643	35	C	06/06/2025	03:16	-133.160	43.587	0	75.10	0	10.2750	0	32.6710	0	25.090	0	74.487	0	249.2	4	89.8	4	-1E+10	1	-1E+10	1	-1E+10	1	-1E+10	1	-1E+10	1	-1E+10	1
4902643	35	C	06/06/2025	03:16	-133.160	43.587	0	85.10	0	10.1850	0	32.6770	0	25.110	0	84.403	0	243.6	4	87.6	4	-1E+10	1	-1E+10	1	-1E+10	1	-1E+10	1	-1E+10	1	-1E+10	1
4902643	35	C	06/06/2025	03:16	-133.160	43.587	0	95.20	0	10.0770	0	32.7380	0	25.175	0	94.418	0	231.6	4	83.1	4	-1E+10	1	-1E+10	1	-1E+10	1	-1E+10	1	-1E+10	1	-1E+10	1
4902643	35	C	06/06/2025	03:16	-133.160	43.587	0	104.60	0	9.8880	0	32.9570	0	25.378	0	103.738	0	217.5	4	77.9	4	-1E+10	1	-1E+10	1	-1E+10	1	-1E+10	1	-1E+10	1	-1E+10	1
4902643	35	C	06/06/2025	03:16	-133.160	43.587	0	114.70	0	9.6040	0	33.2260	0	25.635	0	113.752	0	207.8	4	74.1	4	-1E+10	1	-1E+10	1	-1E+10	1	-1E+10	1	-1E+10	1	-1E+10	1
4902643	35	C	06/06/2025	03:16	-133.160	43.587	0	124.90	0	9.3280	0	33.3840	0	25.803	0	123.865	0	201.6	4	71.5	4	-1E+10	1	-1E+10	1	-1E+10	1	-1E+10	1	-1E+10	1	-1E+10	1
4902643	35	C	06/06/2025	03:16	-133.160	43.587	0	135.20	0	9.0550	0	33.5220	0	25.955	0	134.076	0	195.4	4	69.0	4	-1E+10	1	-1E+10	1	-1E+10	1	-1E+10	1	-1E+10	1	-1E+10	1
4902643	35	C	06/06/2025	03:16	-133.160	43.587	0	144.80	0	8.8060	0	33.6400	0	26.086	0	143.593	0	191.0	4	67.1	4	-1E+10	1	-1E+10	1	-1E+10	1	-1E+10	1	-1E+10	1	-1E+10	1
4902643	35	C	06/06/2025	03:16	-133.160	43.587	0	154.60	0	8.5870	0	33.7010	0	26.168	0	153.308	0	188.0	4	65.8	4	-1E+10	1	-1E+10	1	-1E+10	1	-1E+10	1	-1E+10	1	-1E+10	1
4902643	35	C	06/06/2025	03:16	-133.160	43.587	0	164.90	0	8.4250	0	33.7550	0	26.235	0	163.517	0	187.1	4	65.2	4	-1E+10	1	-1E+10	1	-1E+10	1	-1E+10	1	-1E+10	1	-1E+10	1
4902643	35	C	06/06/2025	03:16	-133.160	43.587	0	174.80	0	8.2420	0	33.7990	0	26.298	0	173.330	0	184.0	4	63.9	4	-1E+10	1	-1E+10	1	-1E+10	1	-1E+10	1	-1E+10	1	-1E+10	1
4902643	35	C	06/06/2025	03:16	-133.160	43.587	0	184.70	0	8.0890	0	33.8270	0	26.342	0	183.143	0	180.3	4	62.4	4	-1E+10	1	-1E+10	1	-1E+10	1	-1E+10	1	-1E+10	1	-1E+10	1
4902643	35	C	06/06/2025	03:16	-133.160	43.587	0	194.70	0	7.9020	0	33.8410	0	26.381	0	193.054	0	177.2	4	61.1	4	-1E+10	1	-1E+10	1	-1E+10	1	-1E+10	1	-1E+10	1	-1E+10	1
4902643	35	C	06/06/2025	03:16	-133.160	43.587	0	209.90	0	7.6290	0	33.8400	0	26.420	0	208.118	0	170.4	4	58.4	4	-1E+10	1	-1E+10	1	-1E+10	1	-1E+10	1	-1E+10	1	-1E+10	1
4902643	35	C	06/06/2025	03:16	-133.160	43.587	0	229.80	0	7.2670	0	33.8440	0	26.475	0	227.838	0	161.0	4	54.7	4	-1E+10	1	-1E+10	1	-1E+10	1	-1E+10	1	-1E+10	1	-1E+10	1
4902643	35	C	06/06/2025	03:16	-133.160	43.587	0	249.80	0	6.9360	0	33.8420	0	26.519	0	247.655	0	151.1	4	51.0	4	-1E+10	1	-1E+10	1	-1E+10	1	-1E+10	1	-1E+10	1	-1E+10	1
4902643	35	C	06/06/2025	03:16	-133.160	43.587	0	269.80	0	6.6480	0	33.8430	0	26.558	0	267.470	0	142.6	4	47.8	4	-1E+10	1	-1E+10	1	-1E+10	1	-1E+10	1	-1E+10	1	-1E+10	1
4902643	35	C	06/06/2025	03:16	-133.160	43.587	0	290.10	0	6.2860	0	33.8430	0	26.606	0	287.581	0	128.5	4	42.7	4	-1E+10	1	-1E+10	1	-1E+10	1	-1E+10	1	-1E+10	1	-1E+10	1
4902643	35	C	06/06/2025	03:16	-133.160	43.587	0	309.80	0	5.9750	0	33.8510	0	26.651	0	307.095	0	112.0	4	37.0	4	-1E+10	1	-1E+10	1	-1E+10	1	-1E+10	1	-1E+10	1	-1E+10	1
4902643	35	C	06/06/2025	03:16	-133.160	43.587	0	329.50	0	5.7460	0	33.8630	0	26.689	0	326.608	0	101.2	4	33.2	4	-1E+10	1	-1E+10	1	-1E+10	1	-1E+10	1	-1E+10	1	-1E+10	1
4902643	35	C	06/06/2025	03:16	-133.160	43.587	0	350.30	0	5.4750	0	33.8730	0	26.730	0	347.207	0	92.2	4	30.1	4	-1E+10	1	-1E+10	1	-1E+10	1	-1E+10	1	-1E+10	1	-1E+10	1
4902643	35	C	06/06/2025	03:16	-133.160	43.587	0	370.00	0	5.3110	0	33.8840	0	26.758	0	366.716	0	85.9	4	27.9	4	-1E+10	1	-1E+10	1	-1E+10	1	-1E+10	1	-1E+10	1	-1E+10	1
4902643	35	C	06/06/2025	03:16	-133.160	43.587	0	390.00	0	5.1380	0	33.8980	0	26.789	0	386.520	0	79.0	4	25.6	4	-1E+10	1	-1E+10	1	-1E+10	1	-1E+10	1	-1E+10	1	-1E+10	1
4902643	35	C	06/06/2025	03:16	-133.160	43.587	0	409.60	0	4.9650	0	33.9130	0	26.821	0	405.926	0	73.1	4	23.6	4	-1E+10	1	-1E+10	1	-1E+10	1	-1E+10	1	-1E+10	1	-1E+10	1
4902643	35	C	06/06/2025	03:16	-133.160	43.587	0	429.40	0	4.8440	0	33.9250	0	26.844	0	425.528	0	68.3	4	22.0	4	-1E+10	1	-1E+10	1	-1E+10	1	-1E+10	1	-1E+10	1	-1E+10	1
4902643	35	C	06/06/2025	03:16	-133.160	43.587	0	450.20	0	4.7560	0	33.9460	0	26.871	0	446.118	0	62.8	4	20.2	4	-1E+10	1	-1E+10	1	-1E+10	1	-1E+10	1	-1E+10	1	-1E+10	1
4902643	35	C	06/06/2025	03:16	-133.160	43.587	0	469.70	0	4.6140	0	33.9590	0	26.897	0	465.420	0	57.2	4	18.3	4	-1E+10	1	-1E+10	1	-1E+10	1	-1E+10	1	-1E+10	1	-1E+10	1
4902643	35	C	06/06/2025	03:16	-133.160	43.587	0	489.80	0	4.4940	0	33.9730	0	26.921	0	485.313	0	51.8	4	16.5	4	-1E+10	1	-1E+10	1	-1E+10	1	-1E+10	1	-1E+10	1	-1E+10	1
4902643	35	C	06/06/2025	03:16	-133.160	43.587	0	509.80	0	4.4310	0	33.9910	0	26.943	0	505.105	0	47.8	4	15.2	4	-1E+10	1	-1E+10	1	-1E+10	1	-1E+10	1	-1E+10	1	-1E+10	1
4902643	35	C	06/06/2025	03:16	-133.160	43.587	0	529.60	0	4.3840	0	34.0080	0	26.961	0	524.698	0	44.0	4	14.0	4	-1E+10	1	-1E+10	1	-1E+10	1	-1E+10	1	-1E+10	1	-1E+10	1
4902643	35	C	06/06/2025	03:16	-133.160	43.587	0	549.50	0	4.3320	0	34.0250	0	26.980	0	544.388	0	40.0	4	12.7	4	-1E+10	1	-1E+10	1	-1E+10	1	-1E+10	1	-1E+10	1	-1E+10	1
4902643	35	C	06/06/2025	03:16	-133.160	43.587	0	570.00	0	4.2680	0	34.0480	0	27.006	0	564.669	0	35.4	4	11.3	4	-1E+10	1	-1E+10	1	-1E+10	1	-1E+10	1	-1E+10	1	-1E+10	1
4902643	35	C	06/06/2025	03:16	-133.160	43.587	0	589.50	0	4.2000	0	34.0710	0	27.031	0	583.960	0	31.4	4	10.0	4	-1E+10	1	-1E+10	1	-1E+10	1	-1E+10	1	-1E+10	1	-1E+10	1
4902643	35	C	06/06/2025	03:16	-133.160	43.587	0	609.50	0	4.1590	0	34.0860	0	27.047	0	603.743	0	28.9	4	9.1	4	-1E+10	1	-1E+10	1	-1E+10	1	-1E+10	1	-1E+10	1	-1E+10	1
4902643	35	C	06/06/2025	03:16	-133.160	43.587	0	629.60	0	4.1230	0	34.1020	0	27.064	0	623.623	0	26.0	4	8.2	4	-1E+10	1	-1E+10	1	-1E+10	1	-1E+10	1	-1E+10	1	-1E+10	1
4902643	35	C	06/06/2025	03:16	-133.160	43.587	0	649.70	0	4.0790	0	34.1170	0	27.081	0	643.501	0	23.9	4	7.5	4	-1E+10	1	-1E+10	1	-1E+10	1	-1E+10	1	-1E+10	1	-1E+10	1
4902643	35	C	06/06/2025	03:16	-133.160	43.587	0	669.50	0	4.0350	0	34.1300	0	27.096	0	663.080	0	21.8	4	6.9	4	-1E+10	1	-1E+10	1	-1E+10	1	-1E+10	1	-1E+10	1	-1E+10	1
4902643	35	C	06/06/2025	03:16	-133.160	43.587	0	689.30	0	3.9970	0	34.1460	0	27.112	0	682.658	0	19.5	4	6.2	4	-1E+10	1	-1E+10	1	-1E+10	1	-1E+10	1	-1E+10	1	-1E+10	1
4902643	35	C	06/06/2025	03:16	-133.160	43.587	0	710.20	0	3.9480	0	34.1590	0	27.128	0	703.322	0	17.5	4	5.5	4	-1E+10	1	-1E+10	1	-1E+10	1	-1E+10	1	-1E+10	1	-1E+10	1
4902643	35	C	06/06/2025	03:16	-133.160	43.587	0	729.90	0	3.9400	0	34.1820	0	27.147	0	722.797	0	14.5	4	4.6	4	-1E+10	1	-1E+10	1	-1E+10	1	-1E+10	1	-1E+10	1	-1E+10	1
4902643	35	C	06/06/2025	03:16	-133.160	43.587	0	750.10	0	3.9000	0	34.1980	0	27.164	0	742.764	0	13.0	4	4.1	4	-1E+10	1	-1E+10	1	-1E+10	1	-1E+10	1	-1E+10	1	-1E+10	1
4902643	35	C	06/06/2025	03:16	-133.160	43.587	0	770.10	0	3.8680	0	34.2120	0	27.178	0	762.532	0	11.8	4	3.7	4	-1E+10	1	-1E+10	1	-1E+10	1	-1E+10	1	-1E+10	1	-1E+10	1
4902643	35	C	06/06/2025	03:16	-133.160	43.587	0	790.00	0	3.8450	0	34.2240	0	27.190	0	782.199	0	10.7	4	3.4	4	-1E+10	1	-1E+10	1	-1E+10	1	-1E+10	1	-1E+10	1	-1E+10	1
4902643	35	C	06/06/2025	03:16	-133.160	43.587	0	809.60	0	3.8030	0	34.2370	0	27.205	0	801.568	0	9.9	4	3.1	4	-1E+10	1	-1E+10	1	-1E+10	1	-1E+10	1	-1E+10	1	-1E+10	1
4902643	35	C	06/06/2025	03:16	-133.160	43.587	0	829.70	0	3.7640	0	34.2520	0	27.221	0	821.429	0	8.9	4	2.8	4	-1E+10	1	-1E+10	1	-1E+10	1	-1E+10	1	-1E+10	1	-1E+10	1
4902643	35	C	06/06/2025	03:16	-133.160	43.587	0	849.70	0	3.7290	0	34.2700	0	27.239	0	841.189	0	8.1	4	2.5	4	-1E+10	1	-1E+10	1	-1E+10	1	-1E+10	1	-1E+10	1	-1E+10	1
4902643	35	C	06/06/2025	03:16	-133.160	43.587	0	869.70	0	3.6940	0	34.2850	0	27.255	0	860.948	0	7.4	4	2.3	4	-1E+10	1	-1E+10	1	-1E+10	1	-1E+10	1	-1E+10	1	-1E+10	1
4902643	35	C	06/06/2025	03:16	-133.160	43.587	0	889.70	0	3.6440	0	34.3000	0	27.272	0	880.705	0	7.0	4	2.2	4	-1E+10	1	-1E+10	1	-1E+10	1	-1E+10	1	-1E+10	1	-1E+10	1
4902643	35	C	06/06/2025	03:16	-133.160	43.587	0	909.60	0	3.5950	0	34.3140	0	27.288	0	900.361	0	6.8	4	2.1	4	-1E+10	1	-1E+10	1	-1E+10	1	-1E+10	1	-1E+10	1	-1E+10	1
4902643	35	C	06/06/2025	03:16	-133.160	43.587	0	930.60	0	3.5670	0	34.3290	0	27.302	0	921.101	0	6.6	4	2.1	4	-1E+10	1	-1E+10	1	-1E+10	1	-1E+10	1	-1E+10	1	-1E+10	1
4902643	35	C	06/06/2025	03:16	-133.160	43.587	0	950.00	0	3.5400	0	34.3410	0	27.315	0	940.260	0	6.6	4	2.0	4	-1E+10	1	-1E+10	1	-1E+10	1	-1E+10	1	-1E+10	1	-1E+10	1
4902643	35	C	06/06/2025	03:16	-133.160	43.587	0	970.00	0	3.5160	0	34.3530	0	27.327	0	960.009	0	6.6	4	2.1	4	-1E+10	1	-1E+10	1	-1E+10	1	-1E+10	1	-1E+10	1	-1E+10	1
4902643	35	C	06/06/2025	03:16	-133.160	43.587	0	989.70	0	3.4740	0	34.3660	0	27.341	0	979.460	0	6.8	4	2.1	4	-1E+10	1	-1E+10	1	-1E+10	1	-1E+10	1	-1E+10	1	-1E+10	1
4902643	35	C	06/06/2025	03:16	-133.160	43.587	0	1009.10	0	3.4300	0	34.3780	0	27.355	0	998.613	0	7.0	4	2.2	4	-1E+10	1	-1E+10	1	-1E+10	1	-1E+10	1	-1E+10	1	-1E+10	1
4902643	35	C	06/06/2025	03:16	-133.160	43.587	0	1030.00	0	3.3840	0	34.3870	0	27.367	0	1019.245	0	7.2	4	2.2	4	-1E+10	1	-1E+10	1	-1E+10	1	-1E+10	1	-1E+10	1	-1E+10	1
4902643	35	C	06/06/2025	03:16	-133.160	43.587	0	1049.50	0	3.3440	0	34.3950	0	27.377	0	1038.493	0	7.5	4	2.3	4	-1E+10	1	-1E+10	1	-1E+10	1	-1E+10	1	-1E+10	1	-1E+10	1
4902643	35	C	06/06/2025	03:16	-133.160	43.587	0	1069.50	0	3.3100	0	34.4020	0	27.386	0	1058.233	0	7.8	4	2.4	4	-1E+10	1	-1E+10	1	-1E+10	1	-1E+10	1	-1E+10	1	-1E+10	1
4902643	35	C	06/06/2025	03:16	-133.160	43.587	0	1089.80	0	3.2610	0	34.4120	0	27.399	0	1078.267	0	8.3	4	2.6	4	-1E+10	1	-1E+10	1	-1E+10	1	-1E+10	1	-1E+10	1	-1E+10	1
4902643	35	C	06/06/2025	03:16	-133.160	43.587	0	1109.60	0	3.2280	0	34.4190	0	27.408	0	1097.805	0	8.8	4	2.7	4	-1E+10	1	-1E+10	1	-1E+10	1	-1E+10	1	-1E+10	1	-1E+10	1
4902643	35	C	06/06/2025	03:16	-133.160	43.587	0	1129.40	0	3.1850	0	34.4280	0	27.419	0	1117.342	0	9.3	4	2.9	4	-1E+10	1	-1E+10	1	-1E+10	1	-1E+10	1	-1E+10	1	-1E+10	1
4902643	35	C	06/06/2025	03:16	-133.160	43.587	0	1149.50	0	3.1540	0	34.4330	0	27.426	0	1137.173	0	9.8	4	3.0	4	-1E+10	1	-1E+10	1	-1E+10	1	-1E+10	1	-1E+10	1	-1E+10	1
4902643	35	C	06/06/2025	03:16	-133.160	43.587	0	1169.50	0	3.1190	0	34.4400	0	27.435	0	1156.904	0	10.5	4	3.2	4	-1E+10	1	-1E+10	1	-1E+10	1	-1E+10	1	-1E+10	1	-1E+10	1
4902643	35	C	06/06/2025	03:16	-133.160	43.587	0	1189.30	0	3.0810	0	34.4470	0	27.444	0	1176.435	0	11.1	4	3.4	4	-1E+10	1	-1E+10	1	-1E+10	1	-1E+10	1	-1E+10	1	-1E+10	1
4902643	35	C	06/06/2025	03:16	-133.160	43.587	0	1210.10	0	3.0410	0	34.4530	0	27.452	0	1196.951	0	11.9	4	3.7	4	-1E+10	1	-1E+10	1	-1E+10	1	-1E+10	1	-1E+10	1	-1E+10	1
4902643	35	C	06/06/2025	03:16	-133.160	43.587	0	1229.80	0	2.9870	0	34.4610	0	27.464	0	1216.380	0	12.7	4	3.9	4	-1E+10	1	-1E+10	1	-1E+10	1	-1E+10	1	-1E+10	1	-1E+10	1
4902643	35	C	06/06/2025	03:16	-133.160	43.587	0	1249.80	0	2.9520	0	34.4670	0	27.472	0	1236.103	0	13.5	4	4.1	4	-1E+10	1	-1E+10	1	-1E+10	1	-1E+10	1	-1E+10	1	-1E+10	1
4902643	35	C	06/06/2025	03:16	-133.160	43.587	0	1269.50	0	2.9070	0	34.4730	0	27.481	0	1255.528	0	14.3	4	4.4	4	-1E+10	1	-1E+10	1	-1E+10	1	-1E+10	1	-1E+10	1	-1E+10	1
4902643	35	C	06/06/2025	03:16	-133.160	43.587	0	1289.40	0	2.8740	0	34.4770	0	27.487	0	1275.149	0	15.0	4	4.6	4	-1E+10	1	-1E+10	1	-1E+10	1	-1E+10	1	-1E+10	1	-1E+10	1
4902643	35	C	06/06/2025	03:16	-133.160	43.587	0	1310.20	0	2.8320	0	34.4820	0	27.495	0	1295.655	0	15.9	4	4.9	4	-1E+10	1	-1E+10	1	-1E+10	1	-1E+10	1	-1E+10	1	-1E+10	1
4902643	35	C	06/06/2025	03:16	-133.160	43.587	0	1329.40	0	2.7960	0	34.4870	0	27.502	0	1314.582	0	16.9	4	5.2	4	-1E+10	1	-1E+10	1	-1E+10	1	-1E+10	1	-1E+10	1	-1E+10	1
4902643	35	C	06/06/2025	03:16	-133.160	43.587	0	1350.10	0	2.7600	0	34.4920	0	27.509	0	1334.986	0	17.9	4	5.5	4	-1E+10	1	-1E+10	1	-1E+10	1	-1E+10	1	-1E+10	1	-1E+10	1
4902643	35	C	06/06/2025	03:16	-133.160	43.587	0	1369.60	0	2.7280	0	34.4970	0	27.516	0	1354.205	0	18.7	4	5.7	4	-1E+10	1	-1E+10	1	-1E+10	1	-1E+10	1	-1E+10	1	-1E+10	1
4902643	35	C	06/06/2025	03:16	-133.160	43.587	0	1389.40	0	2.7110	0	34.4990	0	27.519	0	1373.718	0	19.3	4	5.9	4	-1E+10	1	-1E+10	1	-1E+10	1	-1E+10	1	-1E+10	1	-1E+10	1
4902643	35	C	06/06/2025	03:16	-133.160	43.587	0	1409.50	0	2.6920	0	34.5010	0	27.523	0	1393.525	0	19.9	4	6.1	4	-1E+10	1	-1E+10	1	-1E+10	1	-1E+10	1	-1E+10	1	-1E+10	1
4902643	35	C	06/06/2025	03:16	-133.160	43.587	0	1429.80	0	2.6690	0	34.5040	0	27.527	0	1413.527	0	20.7	4	6.3	4	-1E+10	1	-1E+10	1	-1E+10	1	-1E+10	1	-1E+10	1	-1E+10	1
4902643	35	C	06/06/2025	03:16	-133.160	43.587	0	1449.70	0	2.6350	0	34.5080	0	27.533	0	1433.133	0	21.6	4	6.6	4	-1E+10	1	-1E+10	1	-1E+10	1	-1E+10	1	-1E+10	1	-1E+10	1
4902643	35	C	06/06/2025	03:16	-133.160	43.587	0	1469.80	0	2.6080	0	34.5110	0	27.538	0	1452.934	0	22.4	4	6.9	4	-1E+10	1	-1E+10	1	-1E+10	1	-1E+10	1	-1E+10	1	-1E+10	1
4902643	35	C	06/06/2025	03:16	-133.160	43.587	0	1489.80	0	2.5800	0	34.5150	0	27.544	0	1472.635	0	23.3	4	7.1	4	-1E+10	1	-1E+10	1	-1E+10	1	-1E+10	1	-1E+10	1	-1E+10	1
4902643	35	C	06/06/2025	03:16	-133.160	43.587	0	1509.70	0	2.5550	0	34.5180	0	27.549	0	1492.236	0	24.2	4	7.4	4	-1E+10	1	-1E+10	1	-1E+10	1	-1E+10	1	-1E+10	1	-1E+10	1
4902643	35	C	06/06/2025	03:16	-133.160	43.587	0	1529.90	0	2.5280	0	34.5210	0	27.553	0	1512.130	0	25.3	4	7.7	4	-1E+10	1	-1E+10	1	-1E+10	1	-1E+10	1	-1E+10	1	-1E+10	1
4902643	35	C	06/06/2025	03:16	-133.160	43.587	0	1549.80	0	2.4900	0	34.5260	0	27.561	0	1531.727	0	26.8	4	8.2	4	-1E+10	1	-1E+10	1	-1E+10	1	-1E+10	1	-1E+10	1	-1E+10	1
4902643	35	C	06/06/2025	03:16	-133.160	43.587	0	1569.50	0	2.4560	0	34.5310	0	27.568	0	1551.125	0	28.4	4	8.7	4	-1E+10	1	-1E+10	1	-1E+10	1	-1E+10	1	-1E+10	1	-1E+10	1
4902643	35	C	06/06/2025	03:16	-133.160	43.587	0	1589.80	0	2.4140	0	34.5360	0	27.575	0	1571.112	0	30.0	4	9.2	4	-1E+10	1	-1E+10	1	-1E+10	1	-1E+10	1	-1E+10	1	-1E+10	1
4902643	35	C	06/06/2025	03:16	-133.160	43.587	0	1610.00	0	2.3760	0	34.5400	0	27.582	0	1590.998	0	31.8	4	9.7	4	-1E+10	1	-1E+10	1	-1E+10	1	-1E+10	1	-1E+10	1	-1E+10	1
4902643	35	C	06/06/2025	03:16	-133.160	43.587	0	1629.70	0	2.3330	0	34.5450	0	27.589	0	1610.391	0	33.4	4	10.2	4	-1E+10	1	-1E+10	1	-1E+10	1	-1E+10	1	-1E+10	1	-1E+10	1
4902643	35	C	06/06/2025	03:16	-133.160	43.587	0	1649.40	0	2.3040	0	34.5490	0	27.595	0	1629.782	0	34.6	4	10.5	4	-1E+10	1	-1E+10	1	-1E+10	1	-1E+10	1	-1E+10	1	-1E+10	1
4902643	35	C	06/06/2025	03:16	-133.160	43.587	0	1669.20	0	2.2790	0	34.5510	0	27.599	0	1649.269	0	35.6	4	10.8	4	-1E+10	1	-1E+10	1	-1E+10	1	-1E+10	1	-1E+10	1	-1E+10	1
4902643	35	C	06/06/2025	03:16	-133.160	43.587	0	1689.50	0	2.2590	0	34.5540	0	27.603	0	1669.247	0	36.7	4	11.1	4	-1E+10	1	-1E+10	1	-1E+10	1	-1E+10	1	-1E+10	1	-1E+10	1
4902643	35	C	06/06/2025	03:16	-133.160	43.587	0	1709.50	0	2.2280	0	34.5580	0	27.609	0	1688.928	0	38.2	4	11.6	4	-1E+10	1	-1E+10	1	-1E+10	1	-1E+10	1	-1E+10	1	-1E+10	1
4902643	35	C	06/06/2025	03:16	-133.160	43.587	0	1729.80	0	2.2010	0	34.5620	0	27.614	0	1708.902	0	39.6	4	12.0	4	-1E+10	1	-1E+10	1	-1E+10	1	-1E+10	1	-1E+10	1	-1E+10	1
4902643	35	C	06/06/2025	03:16	-133.160	43.587	0	1749.20	0	2.1760	0	34.5650	0	27.619	0	1727.988	0	40.8	4	12.4	4	-1E+10	1	-1E+10	1	-1E+10	1	-1E+10	1	-1E+10	1	-1E+10	1
4902643	35	C	06/06/2025	03:16	-133.160	43.587	0	1769.50	0	2.1520	0	34.5680	0	27.623	0	1747.959	0	42.3	4	12.8	4	-1E+10	1	-1E+10	1	-1E+10	1	-1E+10	1	-1E+10	1	-1E+10	1
4902643	35	C	06/06/2025	03:16	-133.160	43.587	0	1789.60	0	2.1280	0	34.5720	0	27.628	0	1767.730	0	43.9	4	13.3	4	-1E+10	1	-1E+10	1	-1E+10	1	-1E+10	1	-1E+10	1	-1E+10	1
4902643	35	C	06/06/2025	03:16	-133.160	43.587	0	1809.50	0	2.1020	0	34.5750	0	27.633	0	1787.303	0	45.4	4	13.7	4	-1E+10	1	-1E+10	1	-1E+10	1	-1E+10	1	-1E+10	1	-1E+10	1
4902643	35	C	06/06/2025	03:16	-133.160	43.587	0	1830.30	0	2.0760	0	34.5780	0	27.637	0	1807.760	0	47.1	4	14.2	4	-1E+10	1	-1E+10	1	-1E+10	1	-1E+10	1	-1E+10	1	-1E+10	1
4902643	35	C	06/06/2025	03:16	-133.160	43.587	0	1849.90	0	2.0470	0	34.5820	0	27.643	0	1827.034	0	48.5	4	14.6	4	-1E+10	1	-1E+10	1	-1E+10	1	-1E+10	1	-1E+10	1	-1E+10	1
4902643	35	C	06/06/2025	03:16	-133.160	43.587	0	1870.00	0	2.0370	0	34.5830	0	27.645	0	1846.799	0	49.3	4	14.9	4	-1E+10	1	-1E+10	1	-1E+10	1	-1E+10	1	-1E+10	1	-1E+10	1
4902643	35	C	06/06/2025	03:16	-133.160	43.587	0	1889.60	0	2.0200	0	34.5860	0	27.648	0	1866.070	0	50.5	4	15.2	4	-1E+10	1	-1E+10	1	-1E+10	1	-1E+10	1	-1E+10	1	-1E+10	1
4902643	35	C	06/06/2025	03:16	-133.160	43.587	0	1909.60	0	2.0020	0	34.5880	0	27.652	0	1885.732	0	51.6	4	15.6	4	-1E+10	1	-1E+10	1	-1E+10	1	-1E+10	1	-1E+10	1	-1E+10	1
4902643	35	C	06/06/2025	03:16	-133.160	43.587	0	1929.80	0	1.9890	0	34.5900	0	27.654	0	1905.589	0	52.8	4	15.9	4	-1E+10	1	-1E+10	1	-1E+10	1	-1E+10	1	-1E+10	1	-1E+10	1
4902643	35	C	06/06/2025	03:16	-133.160	43.587	0	1949.70	0	1.9730	0	34.5930	0	27.658	0	1925.149	0	53.8	4	16.2	4	-1E+10	1	-1E+10	1	-1E+10	1	-1E+10	1	-1E+10	1	-1E+10	1
4902643	35	C	06/06/2025	03:16	-133.160	43.587	0	1969.90	0	1.9620	0	34.5950	0	27.661	0	1945.003	0	54.6	4	16.5	4	-1E+10	1	-1E+10	1	-1E+10	1	-1E+10	1	-1E+10	1	-1E+10	1
4902643	35	C	06/06/2025	03:16	-133.160	43.587	0	1990.70	0	1.9500	0	34.5970	0	27.663	0	1965.444	0	55.3	4	16.7	4	-1E+10	1	-1E+10	1	-1E+10	1	-1E+10	1	-1E+10	1	-1E+10	1
4902643	35	C	06/06/2025	03:16	-133.160	43.587	0	2009.80	0	1.9430	0	34.5980	4	27.665	0	1984.213	0	56.0	4	16.9	4	-1E+10	1	-1E+10	1	-1E+10	1	-1E+10	1	-1E+10	1	-1E+10	1
4902643	35	C	06/06/2025	03:16	-133.160	43.587	0	2029.90	0	1.9310	0	34.5990	4	27.667	0	2003.963	0	56.9	4	17.1	4	-1E+10	1	-1E+10	1	-1E+10	1	-1E+10	1	-1E+10	1	-1E+10	1
4902643	35	C	06/06/2025	03:16	-133.160	43.587	0	2049.90	0	1.9160	0	34.6020	4	27.670	0	2023.612	0	58.0	4	17.4	4	-1E+10	1	-1E+10	1	-1E+10	1	-1E+10	1	-1E+10	1	-1E+10	1
4902643	35	C	06/06/2025	03:16	-133.160	43.587	0	2069.80	0	1.9060	0	34.6030	4	27.672	0	2043.162	0	59.0	4	17.7	4	-1E+10	1	-1E+10	1	-1E+10	1	-1E+10	1	-1E+10	1	-1E+10	1
4902643	35	C	06/06/2025	03:16	-133.160	43.587	0	2090.00	0	1.8930	0	34.6060	4	27.675	0	2063.004	0	59.9	4	18.0	4	-1E+10	1	-1E+10	1	-1E+10	1	-1E+10	1	-1E+10	1	-1E+10	1
4902643	35	C	06/06/2025	03:16	-133.160	43.587	0	2109.90	0	1.8840	0	34.6070	4	27.677	0	2082.550	0	60.7	4	18.3	4	-1E+10	1	-1E+10	1	-1E+10	1	-1E+10	1	-1E+10	1	-1E+10	1
4902643	35	C	06/06/2025	03:16	-133.160	43.587	0	2129.60	0	1.8740	0	34.6090	4	27.679	0	2101.898	0	61.7	4	18.5	4	-1E+10	1	-1E+10	1	-1E+10	1	-1E+10	1	-1E+10	1	-1E+10	1
4902643	35	C	06/06/2025	03:16	-133.160	43.587	0	2149.90	0	1.8640	0	34.6100	4	27.681	0	2121.833	0	62.6	4	18.8	4	-1E+10	1	-1E+10	1	-1E+10	1	-1E+10	1	-1E+10	1	-1E+10	1
4902643	35	C	06/06/2025	03:16	-133.160	43.587	0	2170.00	0	1.8530	0	34.6120	4	27.684	0	2141.570	0	63.4	4	19.0	4	-1E+10	1	-1E+10	1	-1E+10	1	-1E+10	1	-1E+10	1	-1E+10	1
4902643	35	C	06/06/2025	03:16	-133.160	43.587	0	2189.50	0	1.8460	0	34.6130	4	27.685	0	2160.716	0	64.0	4	19.2	4	-1E+10	1	-1E+10	1	-1E+10	1	-1E+10	1	-1E+10	1	-1E+10	1
4902643	35	C	06/06/2025	03:16	-133.160	43.587	0	2210.40	0	1.8390	0	34.6140	4	27.687	0	2181.235	0	64.7	4	19.4	4	-1E+10	1	-1E+10	1	-1E+10	1	-1E+10	1	-1E+10	1	-1E+10	1
4902643	35	C	06/06/2025	03:16	-133.160	43.587	0	2229.90	0	1.8300	0	34.6160	4	27.689	0	2200.377	0	65.5	4	19.7	4	-1E+10	1	-1E+10	1	-1E+10	1	-1E+10	1	-1E+10	1	-1E+10	1
4902643	35	C	06/06/2025	03:16	-133.160	43.587	0	2249.50	0	1.8220	0	34.6170	4	27.690	0	2219.616	0	66.2	4	19.9	4	-1E+10	1	-1E+10	1	-1E+10	1	-1E+10	1	-1E+10	1	-1E+10	1
4902643	35	C	06/06/2025	03:16	-133.160	43.587	0	2269.50	0	1.8160	0	34.6180	4	27.692	0	2239.246	0	66.7	4	20.0	4	-1E+10	1	-1E+10	1	-1E+10	1	-1E+10	1	-1E+10	1	-1E+10	1
4902643	35	C	06/06/2025	03:16	-133.160	43.587	0	2289.70	0	1.8130	0	34.6190	4	27.693	0	2259.070	0	67.3	4	20.2	4	-1E+10	1	-1E+10	1	-1E+10	1	-1E+10	1	-1E+10	1	-1E+10	1
4902643	35	C	06/06/2025	03:16	-133.160	43.587	0	2309.70	0	1.8060	0	34.6200	4	27.694	0	2278.697	0	68.1	4	20.4	4	-1E+10	1	-1E+10	1	-1E+10	1	-1E+10	1	-1E+10	1	-1E+10	1
4902643	35	C	06/06/2025	03:16	-133.160	43.587	0	2329.30	0	1.7970	0	34.6210	4	27.696	0	2297.928	0	68.9	4	20.7	4	-1E+10	1	-1E+10	1	-1E+10	1	-1E+10	1	-1E+10	1	-1E+10	1
4902643	35	C	06/06/2025	03:16	-133.160	43.587	0	2349.80	0	1.7880	0	34.6220	4	27.698	0	2318.042	0	69.7	4	20.9	4	-1E+10	1	-1E+10	1	-1E+10	1	-1E+10	1	-1E+10	1	-1E+10	1
4902643	35	C	06/06/2025	03:16	-133.160	43.587	0	2370.10	0	1.7840	0	34.6230	4	27.699	0	2337.957	0	70.3	4	21.1	4	-1E+10	1	-1E+10	1	-1E+10	1	-1E+10	1	-1E+10	1	-1E+10	1
4902643	35	C	06/06/2025	03:16	-133.160	43.587	0	2389.80	0	1.7760	0	34.6240	4	27.700	0	2357.281	0	71.1	4	21.3	4	-1E+10	1	-1E+10	1	-1E+10	1	-1E+10	1	-1E+10	1	-1E+10	1
4902643	35	C	06/06/2025	03:16	-133.160	43.587	0	2409.80	0	1.7700	0	34.6250	4	27.702	0	2376.898	0	71.8	4	21.5	4	-1E+10	1	-1E+10	1	-1E+10	1	-1E+10	1	-1E+10	1	-1E+10	1
4902643	35	C	06/06/2025	03:16	-133.160	43.587	0	2429.90	0	1.7650	0	34.6260	4	27.703	0	2396.612	0	72.4	4	21.7	4	-1E+10	1	-1E+10	1	-1E+10	1	-1E+10	1	-1E+10	1	-1E+10	1
4902643	35	C	06/06/2025	03:16	-133.160	43.587	0	2449.70	0	1.7590	0	34.6270	4	27.704	0	2416.029	0	73.2	4	21.9	4	-1E+10	1	-1E+10	1	-1E+10	1	-1E+10	1	-1E+10	1	-1E+10	1
4902643	35	C	06/06/2025	03:16	-133.160	43.587	0	2469.80	0	1.7520	0	34.6280	4	27.706	0	2435.739	0	74.0	4	22.2	4	-1E+10	1	-1E+10	1	-1E+10	1	-1E+10	1	-1E+10	1	-1E+10	1
4902643	35	C	06/06/2025	03:16	-133.160	43.587	0	2489.10	0	1.7430	0	34.6290	4	27.707	0	2454.663	0	74.8	4	22.4	4	-1E+10	1	-1E+10	1	-1E+10	1	-1E+10	1	-1E+10	1	-1E+10	1
4902643	35	C	06/06/2025	03:16	-133.160	43.587	0	2509.80	0	1.7360	0	34.6300	4	27.709	0	2474.957	0	75.6	4	22.7	4	-1E+10	1	-1E+10	1	-1E+10	1	-1E+10	1	-1E+10	1	-1E+10	1
4902643	35	C	06/06/2025	03:16	-133.160	43.587	0	2529.30	0	1.7290	0	34.6310	4	27.710	0	2494.074	0	76.5	4	22.9	4	-1E+10	1	-1E+10	1	-1E+10	1	-1E+10	1	-1E+10	1	-1E+10	1
4902643	35	C	06/06/2025	03:16	-133.160	43.587	0	2549.60	0	1.7220	0	34.6320	4	27.712	0	2513.972	0	77.2	4	23.1	4	-1E+10	1	-1E+10	1	-1E+10	1	-1E+10	1	-1E+10	1	-1E+10	1
4902643	35	C	06/06/2025	03:16	-133.160	43.587	0	2569.80	0	1.7170	0	34.6330	4	27.713	0	2533.771	0	78.0	4	23.4	4	-1E+10	1	-1E+10	1	-1E+10	1	-1E+10	1	-1E+10	1	-1E+10	1
4902643	35	C	06/06/2025	03:16	-133.160	43.587	0	2589.80	0	1.7100	0	34.6340	4	27.714	0	2553.372	0	78.7	4	23.6	4	-1E+10	1	-1E+10	1	-1E+10	1	-1E+10	1	-1E+10	1	-1E+10	1
4902643	35	C	06/06/2025	03:16	-133.160	43.587	0	2609.70	0	1.7050	0	34.6350	4	27.716	0	2572.873	0	79.4	4	23.8	4	-1E+10	1	-1E+10	1	-1E+10	1	-1E+10	1	-1E+10	1	-1E+10	1
4902643	35	C	06/06/2025	03:16	-133.160	43.587	0	2629.70	0	1.7000	0	34.6360	4	27.717	0	2592.471	0	80.1	4	24.0	4	-1E+10	1	-1E+10	1	-1E+10	1	-1E+10	1	-1E+10	1	-1E+10	1
4902643	35	C	06/06/2025	03:16	-133.160	43.587	0	2650.00	0	1.6920	0	34.6370	4	27.719	0	2612.361	0	81.1	4	24.3	4	-1E+10	1	-1E+10	1	-1E+10	1	-1E+10	1	-1E+10	1	-1E+10	1
4902643	35	C	06/06/2025	03:16	-133.160	43.587	0	2670.10	0	1.6840	0	34.6380	4	27.720	0	2632.052	0	81.9	4	24.5	4	-1E+10	1	-1E+10	1	-1E+10	1	-1E+10	1	-1E+10	1	-1E+10	1
4902643	35	C	06/06/2025	03:16	-133.160	43.587	0	2689.90	0	1.6790	0	34.6390	4	27.721	0	2651.448	0	82.6	4	24.7	4	-1E+10	1	-1E+10	1	-1E+10	1	-1E+10	1	-1E+10	1	-1E+10	1
4902643	35	C	06/06/2025	03:16	-133.160	43.587	0	2709.90	0	1.6750	0	34.6400	4	27.723	0	2671.039	0	83.1	4	24.9	4	-1E+10	1	-1E+10	1	-1E+10	1	-1E+10	1	-1E+10	1	-1E+10	1
4902643	35	C	06/06/2025	03:16	-133.160	43.587	0	2729.80	0	1.6710	0	34.6400	4	27.723	0	2690.530	0	83.6	4	25.0	4	-1E+10	1	-1E+10	1	-1E+10	1	-1E+10	1	-1E+10	1	-1E+10	1
4902643	35	C	06/06/2025	03:16	-133.160	43.587	0	2749.70	0	1.6690	0	34.6410	4	27.724	0	2710.018	0	84.2	4	25.2	4	-1E+10	1	-1E+10	1	-1E+10	1	-1E+10	1	-1E+10	1	-1E+10	1
4902643	35	C	06/06/2025	03:16	-133.160	43.587	0	2769.90	0	1.6640	0	34.6420	4	27.725	0	2729.799	0	84.8	4	25.4	4	-1E+10	1	-1E+10	1	-1E+10	1	-1E+10	1	-1E+10	1	-1E+10	1
4902643	35	C	06/06/2025	03:16	-133.160	43.587	0	2790.20	0	1.6600	0	34.6420	4	27.726	0	2749.676	0	85.5	4	25.6	4	-1E+10	1	-1E+10	1	-1E+10	1	-1E+10	1	-1E+10	1	-1E+10	1
4902643	35	C	06/06/2025	03:16	-133.160	43.587	0	2810.10	0	1.6550	0	34.6430	4	27.727	0	2769.160	0	86.0	4	25.7	4	-1E+10	1	-1E+10	1	-1E+10	1	-1E+10	1	-1E+10	1	-1E+10	1
4902643	35	C	06/06/2025	03:16	-133.160	43.587	0	2830.20	0	1.6530	0	34.6430	4	27.727	0	2788.837	0	86.5	4	25.9	4	-1E+10	1	-1E+10	1	-1E+10	1	-1E+10	1	-1E+10	1	-1E+10	1
4902643	35	C	06/06/2025	03:16	-133.160	43.587	0	2850.20	0	1.6490	0	34.6440	4	27.729	0	2808.415	0	87.1	4	26.0	4	-1E+10	1	-1E+10	1	-1E+10	1	-1E+10	1	-1E+10	1	-1E+10	1
4902643	35	C	06/06/2025	03:16	-133.160	43.587	0	2870.10	0	1.6460	0	34.6450	4	27.730	0	2827.894	0	87.6	4	26.2	4	-1E+10	1	-1E+10	1	-1E+10	1	-1E+10	1	-1E+10	1	-1E+10	1
4902643	35	C	06/06/2025	03:16	-133.160	43.587	0	2889.80	0	1.6430	0	34.6450	4	27.730	0	2847.174	0	88.2	4	26.4	4	-1E+10	1	-1E+10	1	-1E+10	1	-1E+10	1	-1E+10	1	-1E+10	1
4902643	35	C	06/06/2025	03:16	-133.160	43.587	0	2909.50	0	1.6390	0	34.6460	4	27.731	0	2866.453	0	88.8	4	26.5	4	-1E+10	1	-1E+10	1	-1E+10	1	-1E+10	1	-1E+10	1	-1E+10	1
4902643	35	C	06/06/2025	03:16	-133.160	43.587	0	2929.70	0	1.6350	0	34.6470	4	27.733	0	2886.220	0	89.4	4	26.7	4	-1E+10	1	-1E+10	1	-1E+10	1	-1E+10	1	-1E+10	1	-1E+10	1
4902643	35	C	06/06/2025	03:16	-133.160	43.587	0	2949.70	0	1.6310	0	34.6470	4	27.733	0	2905.789	0	89.9	4	26.9	4	-1E+10	1	-1E+10	1	-1E+10	1	-1E+10	1	-1E+10	1	-1E+10	1
4902643	35	C	06/06/2025	03:16	-133.160	43.587	0	2970.00	0	1.6290	0	34.6480	4	27.734	0	2925.650	0	90.3	4	27.0	4	-1E+10	1	-1E+10	1	-1E+10	1	-1E+10	1	-1E+10	1	-1E+10	1
4902643	35	C	06/06/2025	03:16	-133.160	43.587	0	2990.30	0	1.6260	0	34.6480	4	27.734	0	2945.509	0	91.0	4	27.2	4	-1E+10	1	-1E+10	1	-1E+10	1	-1E+10	1	-1E+10	1	-1E+10	1
4902643	35	C	06/06/2025	03:16	-133.160	43.587	0	3009.90	0	1.6210	0	34.6490	4	27.736	0	2964.681	0	91.7	4	27.4	4	-1E+10	1	-1E+10	1	-1E+10	1	-1E+10	1	-1E+10	1	-1E+10	1
4902643	35	C	06/06/2025	03:16	-133.160	43.587	0	3029.90	0	1.6180	0	34.6500	4	27.737	0	2984.243	0	92.1	4	27.5	4	-1E+10	1	-1E+10	1	-1E+10	1	-1E+10	1	-1E+10	1	-1E+10	1
4902643	35	C	06/06/2025	03:16	-133.160	43.587	0	3049.60	0	1.6140	0	34.6500	4	27.737	0	3003.510	0	92.9	4	27.8	4	-1E+10	1	-1E+10	1	-1E+10	1	-1E+10	1	-1E+10	1	-1E+10	1
4902643	35	C	06/06/2025	03:16	-133.160	43.587	0	3069.70	0	1.6070	0	34.6520	4	27.739	0	3023.166	0	93.8	4	28.0	4	-1E+10	1	-1E+10	1	-1E+10	1	-1E+10	1	-1E+10	1	-1E+10	1
4902643	35	C	06/06/2025	03:16	-133.160	43.587	0	3089.90	0	1.6020	0	34.6520	4	27.740	0	3042.918	0	94.5	4	28.2	4	-1E+10	1	-1E+10	1	-1E+10	1	-1E+10	1	-1E+10	1	-1E+10	1
4902643	35	C	06/06/2025	03:16	-133.160	43.587	0	3109.80	0	1.5980	0	34.6530	4	27.741	0	3062.376	0	95.2	4	28.4	4	-1E+10	1	-1E+10	1	-1E+10	1	-1E+10	1	-1E+10	1	-1E+10	1
4902643	35	C	06/06/2025	03:16	-133.160	43.587	0	3130.10	0	1.5940	0	34.6540	4	27.742	0	3082.222	0	95.8	4	28.6	4	-1E+10	1	-1E+10	1	-1E+10	1	-1E+10	1	-1E+10	1	-1E+10	1
4902643	35	C	06/06/2025	03:16	-133.160	43.587	0	3150.50	0	1.5910	0	34.6540	4	27.743	0	3102.165	0	96.4	4	28.8	4	-1E+10	1	-1E+10	1	-1E+10	1	-1E+10	1	-1E+10	1	-1E+10	1
4902643	35	C	06/06/2025	03:16	-133.160	43.587	0	3169.80	0	1.5880	0	34.6550	4	27.744	0	3121.030	0	96.9	4	28.9	4	-1E+10	1	-1E+10	1	-1E+10	1	-1E+10	1	-1E+10	1	-1E+10	1
4902643	35	C	06/06/2025	03:16	-133.160	43.587	0	3190.00	0	1.5860	0	34.6560	4	27.745	0	3140.773	0	97.4	4	29.1	4	-1E+10	1	-1E+10	1	-1E+10	1	-1E+10	1	-1E+10	1	-1E+10	1
4902643	35	C	06/06/2025	03:16	-133.160	43.587	0	3210.10	0	1.5820	0	34.6560	4	27.745	0	3160.417	0	98.0	4	29.3	4	-1E+10	1	-1E+10	1	-1E+10	1	-1E+10	1	-1E+10	1	-1E+10	1
4902643	35	C	06/06/2025	03:16	-133.160	43.587	0	3230.00	0	1.5790	0	34.6570	4	27.747	0	3179.864	0	98.5	4	29.4	4	-1E+10	1	-1E+10	1	-1E+10	1	-1E+10	1	-1E+10	1	-1E+10	1
4902643	35	C	06/06/2025	03:16	-133.160	43.587	0	3249.80	0	1.5770	0	34.6570	4	27.747	0	3199.211	0	99.1	4	29.6	4	-1E+10	1	-1E+10	1	-1E+10	1	-1E+10	1	-1E+10	1	-1E+10	1
4902643	35	C	06/06/2025	03:16	-133.160	43.587	0	3270.30	0	1.5740	0	34.6580	4	27.748	0	3219.241	0	99.5	4	29.7	4	-1E+10	1	-1E+10	1	-1E+10	1	-1E+10	1	-1E+10	1	-1E+10	1
4902643	35	C	06/06/2025	03:16	-133.160	43.587	0	3290.00	0	1.5730	0	34.6580	4	27.748	0	3238.487	0	99.9	4	29.8	4	-1E+10	1	-1E+10	1	-1E+10	1	-1E+10	1	-1E+10	1	-1E+10	1
4902643	35	C	06/06/2025	03:16	-133.160	43.587	0	3310.40	0	1.5710	0	34.6590	4	27.749	0	3258.415	0	100.3	4	29.9	4	-1E+10	1	-1E+10	1	-1E+10	1	-1E+10	1	-1E+10	1	-1E+10	1
4902643	35	C	06/06/2025	03:16	-133.160	43.587	0	3330.20	0	1.5700	0	34.6590	4	27.749	0	3277.755	0	100.6	4	30.0	4	-1E+10	1	-1E+10	1	-1E+10	1	-1E+10	1	-1E+10	1	-1E+10	1
4902643	35	C	06/06/2025	03:16	-133.160	43.587	0	3350.10	0	1.5700	0	34.6590	4	27.750	0	3297.191	0	100.9	4	30.1	4	-1E+10	1	-1E+10	1	-1E+10	1	-1E+10	1	-1E+10	1	-1E+10	1
4902643	35	C	06/06/2025	03:16	-133.160	43.587	0	3369.70	0	1.5680	0	34.6600	4	27.751	0	3316.333	0	101.3	4	30.2	4	-1E+10	1	-1E+10	1	-1E+10	1	-1E+10	1	-1E+10	1	-1E+10	1
4902643	35	C	06/06/2025	03:16	-133.160	43.587	0	3389.60	0	1.5680	0	34.6600	4	27.751	0	3335.766	0	101.7	4	30.3	4	-1E+10	1	-1E+10	1	-1E+10	1	-1E+10	1	-1E+10	1	-1E+10	1
4902643	35	C	06/06/2025	03:16	-133.160	43.587	0	3410.20	0	1.5660	0	34.6610	4	27.752	0	3355.880	0	102.1	4	30.5	4	-1E+10	1	-1E+10	1	-1E+10	1	-1E+10	1	-1E+10	1	-1E+10	1
4902643	35	C	06/06/2025	03:16	-133.160	43.587	0	3429.90	0	1.5640	0	34.6610	4	27.752	0	3375.114	0	102.6	4	30.6	4	-1E+10	1	-1E+10	1	-1E+10	1	-1E+10	1	-1E+10	1	-1E+10	1
4902643	35	C	06/06/2025	03:16	-133.160	43.587	0	3449.70	0	1.5630	0	34.6620	4	27.753	0	3394.444	0	103.0	4	30.7	4	-1E+10	1	-1E+10	1	-1E+10	1	-1E+10	1	-1E+10	1	-1E+10	1
4902643	35	C	06/06/2025	03:16	-133.160	43.587	0	3469.90	0	1.5610	0	34.6620	4	27.754	0	3414.163	0	103.4	4	30.9	4	-1E+10	1	-1E+10	1	-1E+10	1	-1E+10	1	-1E+10	1	-1E+10	1
4902643	35	C	06/06/2025	03:16	-133.160	43.587	0	3490.00	0	1.5610	0	34.6630	4	27.754	0	3433.782	0	103.6	4	30.9	4	-1E+10	1	-1E+10	1	-1E+10	1	-1E+10	1	-1E+10	1	-1E+10	1
4902643	35	C	06/06/2025	03:16	-133.160	43.587	0	3510.10	0	1.5610	0	34.6630	4	27.755	0	3453.400	0	103.9	4	31.0	4	-1E+10	1	-1E+10	1	-1E+10	1	-1E+10	1	-1E+10	1	-1E+10	1
4902643	35	C	06/06/2025	03:16	-133.160	43.587	0	3529.80	0	1.5610	0	34.6640	4	27.756	0	3472.625	0	104.2	4	31.1	4	-1E+10	1	-1E+10	1	-1E+10	1	-1E+10	1	-1E+10	1	-1E+10	1
4902643	35	C	06/06/2025	03:16	-133.160	43.587	0	3550.10	0	1.5610	0	34.6640	4	27.756	0	3492.435	0	104.4	4	31.2	4	-1E+10	1	-1E+10	1	-1E+10	1	-1E+10	1	-1E+10	1	-1E+10	1
4902643	35	C	06/06/2025	03:16	-133.160	43.587	0	3570.00	0	1.5610	0	34.6640	4	27.756	0	3511.852	0	104.6	4	31.2	4	-1E+10	1	-1E+10	1	-1E+10	1	-1E+10	1	-1E+10	1	-1E+10	1
4902643	35	C	06/06/2025	03:16	-133.160	43.587	0	3589.90	0	1.5610	0	34.6650	4	27.757	0	3531.267	0	104.9	4	31.3	4	-1E+10	1	-1E+10	1	-1E+10	1	-1E+10	1	-1E+10	1	-1E+10	1
4902643	35	C	06/06/2025	03:16	-133.160	43.587	0	3610.10	0	1.5610	0	34.6650	4	27.757	0	3550.974	0	105.2	4	31.4	4	-1E+10	1	-1E+10	1	-1E+10	1	-1E+10	1	-1E+10	1	-1E+10	1
4902643	35	C	06/06/2025	03:16	-133.160	43.587	0	3630.20	0	1.5610	0	34.6650	4	27.757	0	3570.581	0	105.3	4	31.4	4	-1E+10	1	-1E+10	1	-1E+10	1	-1E+10	1	-1E+10	1	-1E+10	1
4902643	35	C	06/06/2025	03:16	-133.160	43.587	0	3650.20	0	1.5620	0	34.6660	4	27.758	0	3590.088	0	105.5	4	31.5	4	-1E+10	1	-1E+10	1	-1E+10	1	-1E+10	1	-1E+10	1	-1E+10	1
4902643	35	C	06/06/2025	03:16	-133.160	43.587	0	3668.80	0	1.5620	0	34.6660	4	27.758	0	3608.229	0	105.7	4	31.5	4	-1E+10	1	-1E+10	1	-1E+10	1	-1E+10	1	-1E+10	1	-1E+10	1
4902643	35	C	06/06/2025	03:16	-133.160	43.587	0	3677.50	0	1.5620	0	34.6670	4	27.759	0	3616.714	0	105.8	4	31.6	4	-1E+10	1	-1E+10	1	-1E+10	1	-1E+10	1	-1E+10	1	-1E+10	1
4902643	35	C	06/06/2025	03:16	-133.160	43.587	0	3678.30	0	1.5610	0	34.6670	4	27.759	0	3617.494	0	105.9	4	31.6	4	-1E+10	1	-1E+10	1	-1E+10	1	-1E+10	1	-1E+10	1	-1E+10	1
4902643	35	C	06/06/2025	03:16	-133.160	43.587	0	3679.50	0	1.5620	0	34.6670	4	27.759	0	3618.664	0	105.9	4	31.6	4	-1E+10	1	-1E+10	1	-1E+10	1	-1E+10	1	-1E+10	1	-1E+10	1
4902643	35	C	06/06/2025	03:16	-133.160	43.587	0	3680.70	0	1.5620	0	34.6670	4	27.759	0	3619.834	0	105.9	4	31.6	4	-1E+10	1	-1E+10	1	-1E+10	1	-1E+10	1	-1E+10	1	-1E+10	1
4902643	35	C	06/06/2025	03:16	-133.160	43.587	0	3681.50	0	1.5620	0	34.6670	4	27.759	0	3620.615	0	105.9	4	31.6	4	-1E+10	1	-1E+10	1	-1E+10	1	-1E+10	1	-1E+10	1	-1E+10	1
4902643	35	C	06/06/2025	03:16	-133.160	43.587	0	3682.30	0	1.5620	0	34.6670	4	27.759	0	3621.395	0	105.9	4	31.6	4	-1E+10	1	-1E+10	1	-1E+10	1	-1E+10	1	-1E+10	1	-1E+10	1
4902643	35	C	06/06/2025	03:16	-133.160	43.587	0	3683.50	0	1.5620	0	34.6670	4	27.759	0	3622.565	0	105.9	4	31.6	4	-1E+10	1	-1E+10	1	-1E+10	1	-1E+10	1	-1E+10	1	-1E+10	1
4902643	35	C	06/06/2025	03:16	-133.160	43.587	0	3684.70	0	1.5620	0	34.6670	4	27.759	0	3623.735	0	105.9	4	31.6	4	-1E+10	1	-1E+10	1	-1E+10	1	-1E+10	1	-1E+10	1	-1E+10	1
4902643	35	C	06/06/2025	03:16	-133.160	43.587	0	3685.50	0	1.5620	0	34.6670	4	27.759	0	3624.515	0	105.9	4	31.6	4	-1E+10	1	-1E+10	1	-1E+10	1	-1E+10	1	-1E+10	1	-1E+10	1
4902643	35	C	06/06/2025	03:16	-133.160	43.587	0	3686.20	0	1.5620	0	34.6670	4	27.759	0	3625.198	0	106.0	4	31.6	4	-1E+10	1	-1E+10	1	-1E+10	1	-1E+10	1	-1E+10	1	-1E+10	1
4902643	35	C	06/06/2025	03:16	-133.160	43.587	0	3687.50	0	1.5620	0	34.6670	4	27.759	0	3626.466	0	106.0	4	31.6	4	-1E+10	1	-1E+10	1	-1E+10	1	-1E+10	1	-1E+10	1	-1E+10	1
4902643	35	C	06/06/2025	03:16	-133.160	43.587	0	3688.70	0	1.5620	0	34.6670	4	27.759	0	3627.636	0	106.0	4	31.6	4	-1E+10	1	-1E+10	1	-1E+10	1	-1E+10	1	-1E+10	1	-1E+10	1
4902643	35	C	06/06/2025	03:16	-133.160	43.587	0	3689.50	0	1.5610	0	34.6670	4	27.759	0	3628.416	0	106.1	4	31.6	4	-1E+10	1	-1E+10	1	-1E+10	1	-1E+10	1	-1E+10	1	-1E+10	1
4902643	35	C	06/06/2025	03:16	-133.160	43.587	0	3690.40	0	1.5610	0	34.6670	4	27.759	0	3629.294	0	106.0	4	31.6	4	-1E+10	1	-1E+10	1	-1E+10	1	-1E+10	1	-1E+10	1	-1E+10	1
4902643	35	C	06/06/2025	03:16	-133.160	43.587	0	3691.60	0	1.5610	0	34.6670	4	27.759	0	3630.464	0	106.1	4	31.7	4	-1E+10	1	-1E+10	1	-1E+10	1	-1E+10	1	-1E+10	1	-1E+10	1
4902643	35	C	06/06/2025	03:16	-133.160	43.587	0	3692.80	0	1.5610	0	34.6670	4	27.759	0	3631.634	0	106.1	4	31.7	4	-1E+10	1	-1E+10	1	-1E+10	1	-1E+10	1	-1E+10	1	-1E+10	1
4902643	35	C	06/06/2025	03:16	-133.160	43.587	0	3693.70	0	1.5610	0	34.6670	4	27.759	0	3632.512	0	106.1	4	31.7	4	-1E+10	1	-1E+10	1	-1E+10	1	-1E+10	1	-1E+10	1	-1E+10	1
4902643	35	C	06/06/2025	03:16	-133.160	43.587	0	3694.60	0	1.5610	0	34.6680	4	27.760	0	3633.390	0	106.1	4	31.7	4	-1E+10	1	-1E+10	1	-1E+10	1	-1E+10	1	-1E+10	1	-1E+10	1
4902643	35	C	06/06/2025	03:16	-133.160	43.587	0	3695.30	0	1.5610	0	34.6670	4	27.759	0	3634.072	0	106.2	4	31.7	4	-1E+10	1	-1E+10	1	-1E+10	1	-1E+10	1	-1E+10	1	-1E+10	1
4902643	35	C	06/06/2025	03:16	-133.160	43.587	0	3696.60	0	1.5600	0	34.6670	4	27.759	0	3635.340	0	106.2	4	31.7	4	-1E+10	1	-1E+10	1	-1E+10	1	-1E+10	1	-1E+10	1	-1E+10	1
4902643	35	C	06/06/2025	03:16	-133.160	43.587	0	3697.80	0	1.5600	0	34.6680	4	27.760	0	3636.510	0	106.3	4	31.7	4	-1E+10	1	-1E+10	1	-1E+10	1	-1E+10	1	-1E+10	1	-1E+10	1
4902643	35	C	06/06/2025	03:16	-133.160	43.587	0	3698.60	0	1.5590	0	34.6680	4	27.760	0	3637.290	0	106.3	4	31.7	4	-1E+10	1	-1E+10	1	-1E+10	1	-1E+10	1	-1E+10	1	-1E+10	1
4902643	35	C	06/06/2025	03:16	-133.160	43.587	0	3699.50	0	1.5590	0	34.6680	4	27.760	0	3638.168	0	106.4	4	31.7	4	-1E+10	1	-1E+10	1	-1E+10	1	-1E+10	1	-1E+10	1	-1E+10	1
4902643	35	C	06/06/2025	03:16	-133.160	43.587	0	3700.40	0	1.5590	0	34.6680	4	27.760	0	3639.045	0	106.3	4	31.7	4	-1E+10	1	-1E+10	1	-1E+10	1	-1E+10	1	-1E+10	1	-1E+10	1
4902643	35	C	06/06/2025	03:16	-133.160	43.587	0	3701.50	0	1.5570	0	34.6680	4	27.760	0	3640.118	0	106.4	4	31.7	4	-1E+10	1	-1E+10	1	-1E+10	1	-1E+10	1	-1E+10	1	-1E+10	1
4902643	35	C	06/06/2025	03:16	-133.160	43.587	0	3702.80	0	1.5560	0	34.6680	4	27.760	0	3641.386	0	106.5	4	31.8	4	-1E+10	1	-1E+10	1	-1E+10	1	-1E+10	1	-1E+10	1	-1E+10	1
4902643	35	C	06/06/2025	03:16	-133.160	43.587	0	3703.60	0	1.5560	0	34.6680	4	27.760	0	3642.166	0	106.5	4	31.8	4	-1E+10	1	-1E+10	1	-1E+10	1	-1E+10	1	-1E+10	1	-1E+10	1
4902643	35	C	06/06/2025	03:16	-133.160	43.587	0	3704.50	0	1.5550	0	34.6690	4	27.761	0	3643.043	0	106.5	4	31.8	4	-1E+10	1	-1E+10	1	-1E+10	1	-1E+10	1	-1E+10	1	-1E+10	1
4902643	35	C	06/06/2025	03:16	-133.160	43.587	0	3705.40	0	1.5540	0	34.6690	4	27.761	0	3643.921	0	106.5	4	31.8	4	-1E+10	1	-1E+10	1	-1E+10	1	-1E+10	1	-1E+10	1	-1E+10	1
4902643	35	C	06/06/2025	03:16	-133.160	43.587	0	3706.50	0	1.5540	0	34.6680	4	27.761	0	3644.994	0	106.5	4	31.8	4	-1E+10	1	-1E+10	1	-1E+10	1	-1E+10	1	-1E+10	1	-1E+10	1
4902643	35	C	06/06/2025	03:16	-133.160	43.587	0	3707.80	0	1.5540	0	34.6690	4	27.761	0	3646.261	0	106.5	4	31.8	4	-1E+10	1	-1E+10	1	-1E+10	1	-1E+10	1	-1E+10	1	-1E+10	1
4902643	35	C	06/06/2025	03:16	-133.160	43.587	0	3708.70	0	1.5540	0	34.6690	4	27.761	0	3647.139	0	106.6	4	31.8	4	-1E+10	1	-1E+10	1	-1E+10	1	-1E+10	1	-1E+10	1	-1E+10	1
4902643	35	C	06/06/2025	03:16	-133.160	43.587	0	3709.50	0	1.5550	0	34.6680	4	27.760	0	3647.919	0	106.6	4	31.8	4	-1E+10	1	-1E+10	1	-1E+10	1	-1E+10	1	-1E+10	1	-1E+10	1
4902643	35	C	06/06/2025	03:16	-133.160	43.587	0	3710.30	0	1.5540	0	34.6690	4	27.761	0	3648.699	0	106.6	4	31.8	4	-1E+10	1	-1E+10	1	-1E+10	1	-1E+10	1	-1E+10	1	-1E+10	1
4902643	35	C	06/06/2025	03:16	-133.160	43.587	0	3711.60	0	1.5530	0	34.6690	4	27.761	0	3649.967	0	106.7	4	31.8	4	-1E+10	1	-1E+10	1	-1E+10	1	-1E+10	1	-1E+10	1	-1E+10	1
4902643	35	C	06/06/2025	03:16	-133.160	43.587	0	3713.60	0	1.5510	0	34.6690	4	27.762	0	3651.917	0	106.7	4	31.8	4	-1E+10	1	-1E+10	1	-1E+10	1	-1E+10	1	-1E+10	1	-1E+10	1
4902643	35	C	06/06/2025	03:16	-133.160	43.587	0	3714.60	0	1.5510	0	34.6690	4	27.762	0	3652.892	0	106.7	4	31.8	4	-1E+10	1	-1E+10	1	-1E+10	1	-1E+10	1	-1E+10	1	-1E+10	1
4902643	35	C	06/06/2025	03:16	-133.160	43.587	0	3715.30	0	1.5500	0	34.6700	4	27.762	0	3653.574	0	106.7	4	31.8	4	-1E+10	1	-1E+10	1	-1E+10	1	-1E+10	1	-1E+10	1	-1E+10	1
4902643	35	C	06/06/2025	03:16	-133.160	43.587	0	3716.30	0	1.5500	0	34.6690	4	27.762	0	3654.549	0	106.7	4	31.8	4	-1E+10	1	-1E+10	1	-1E+10	1	-1E+10	1	-1E+10	1	-1E+10	1
4902643	35	C	06/06/2025	03:16	-133.160	43.587	0	3717.60	0	1.5500	0	34.6700	4	27.762	0	3655.817	0	106.7	4	31.8	4	-1E+10	1	-1E+10	1	-1E+10	1	-1E+10	1	-1E+10	1	-1E+10	1
4902643	35	C	06/06/2025	03:16	-133.160	43.587	0	3718.60	0	1.5500	0	34.6690	4	27.762	0	3656.792	0	106.7	4	31.8	4	-1E+10	1	-1E+10	1	-1E+10	1	-1E+10	1	-1E+10	1	-1E+10	1
4902643	35	C	06/06/2025	03:16	-133.160	43.587	0	3719.60	0	1.5500	0	34.6700	4	27.762	0	3657.767	0	106.7	4	31.8	4	-1E+10	1	-1E+10	1	-1E+10	1	-1E+10	1	-1E+10	1	-1E+10	1
4902643	35	C	06/06/2025	03:16	-133.160	43.587	0	3720.40	0	1.5500	0	34.6700	4	27.763	0	3658.547	0	106.7	4	31.8	4	-1E+10	1	-1E+10	1	-1E+10	1	-1E+10	1	-1E+10	1	-1E+10	1
4902643	35	C	06/06/2025	03:16	-133.160	43.587	0	3721.60	0	1.5500	0	34.6690	4	27.762	0	3659.717	0	106.7	4	31.8	4	-1E+10	1	-1E+10	1	-1E+10	1	-1E+10	1	-1E+10	1	-1E+10	1
4902643	35	C	06/06/2025	03:16	-133.160	43.587	0	3722.60	0	1.5510	0	34.6680	4	27.761	0	3660.692	0	106.7	4	31.8	4	-1E+10	1	-1E+10	1	-1E+10	1	-1E+10	1	-1E+10	1	-1E+10	1
4902643	35	C	06/06/2025	03:16	-133.160	43.587	0	3723.90	0	1.5500	0	34.6700	4	27.763	0	3661.960	0	106.7	4	31.8	4	-1E+10	1	-1E+10	1	-1E+10	1	-1E+10	1	-1E+10	1	-1E+10	1
4902643	35	C	06/06/2025	03:16	-133.160	43.587	0	3724.40	0	1.5510	0	34.6690	4	27.762	0	3662.447	0	106.8	4	31.8	4	-1E+10	1	-1E+10	1	-1E+10	1	-1E+10	1	-1E+10	1	-1E+10	1
4902643	35	C	06/06/2025	03:16	-133.160	43.587	0																										
4902643	36	C	06/16/2025	01:54	-133.062	43.633	0	1.10	0	13.4210	0	32.5170	0	24.387	0	1.091	0	251.6	4	96.7	4	-1E+10	1	-1E+10	1	-1E+10	1	-1E+10	1	-1E+10	1	-1E+10	1
4902643	36	C	06/16/2025	01:54	-133.062	43.633	0	1.20	0	13.4203	0	32.5167	0	24.387	0	1.190	0	251.6	4	96.7	4	-1E+10	1	-1E+10	1	-1E+10	1	-1E+10	1	-1E+10	1	-1E+10	1
4902643	36	C	06/16/2025	01:54	-133.062	43.633	0	1.30	0	13.4215	0	32.5165	0	24.387	0	1.290	0	251.6	4	96.7	4	-1E+10	1	-1E+10	1	-1E+10	1	-1E+10	1	-1E+10	1	-1E+10	1
4902643	36	C	06/16/2025	01:54	-133.062	43.633	0	1.40	0	13.4200	0	32.5175	0	24.388	0	1.389	0	251.7	4	96.7	4	-1E+10	1	-1E+10	1	-1E+10	1	-1E+10	1	-1E+10	1	-1E+10	1
4902643	36	C	06/16/2025	01:54	-133.062	43.633	0	1.50	0	13.4220	0	32.5160	0	24.386	0	1.488	0	-1e10	1	-1e10	1	-1E+10	1	-1E+10	1	-1E+10	1	-1E+10	1	-1E+10	1	-1E+10	1
4902643	36	C	06/16/2025	01:54	-133.062	43.633	0	1.70	0	13.4200	0	32.5180	0	24.388	0	1.686	0	251.5	4	96.7	4	-1E+10	1	-1E+10	1	-1E+10	1	-1E+10	1	-1E+10	1	-1E+10	1
4902643	36	C	06/16/2025	01:54	-133.062	43.633	0	2.60	0	13.4190	0	32.5200	0	24.390	0	2.579	0	251.4	4	96.6	4	-1E+10	1	-1E+10	1	-1E+10	1	-1E+10	1	-1E+10	1	-1E+10	1
4902643	36	C	06/16/2025	01:54	-133.062	43.633	0	3.60	0	13.4220	0	32.5180	0	24.388	0	3.571	0	251.3	4	96.6	4	-1E+10	1	-1E+10	1	-1E+10	1	-1E+10	1	-1E+10	1	-1E+10	1
4902643	36	C	06/16/2025	01:54	-133.062	43.633	0	4.90	0	13.4220	0	32.5190	0	24.389	0	4.861	0	251.3	4	96.6	4	-1E+10	1	-1E+10	1	-1E+10	1	-1E+10	1	-1E+10	1	-1E+10	1
4902643	36	C	06/16/2025	01:54	-133.062	43.633	0	5.80	0	13.4220	0	32.5200	0	24.389	0	5.754	0	251.3	4	96.6	4	-1E+10	1	-1E+10	1	-1E+10	1	-1E+10	1	-1E+10	1	-1E+10	1
4902643	36	C	06/16/2025	01:54	-133.062	43.633	0	6.60	0	13.4220	0	32.5200	0	24.389	0	6.547	0	251.3	4	96.6	4	-1E+10	1	-1E+10	1	-1E+10	1	-1E+10	1	-1E+10	1	-1E+10	1
4902643	36	C	06/16/2025	01:54	-133.062	43.633	0	7.40	0	13.4210	0	32.5200	0	24.390	0	7.341	0	251.2	4	96.5	4	-1E+10	1	-1E+10	1	-1E+10	1	-1E+10	1	-1E+10	1	-1E+10	1
4902643	36	C	06/16/2025	01:54	-133.062	43.633	0	8.30	0	13.4210	0	32.5200	0	24.390	0	8.233	0	251.2	4	96.6	4	-1E+10	1	-1E+10	1	-1E+10	1	-1E+10	1	-1E+10	1	-1E+10	1
4902643	36	C	06/16/2025	01:54	-133.062	43.633	0	9.40	0	13.4210	0	32.5190	0	24.389	0	9.325	0	251.2	4	96.6	4	-1E+10	1	-1E+10	1	-1E+10	1	-1E+10	1	-1E+10	1	-1E+10	1
4902643	36	C	06/16/2025	01:54	-133.062	43.633	0	14.70	0	13.4170	0	32.5190	0	24.390	0	14.582	0	251.0	4	96.5	4	-1E+10	1	-1E+10	1	-1E+10	1	-1E+10	1	-1E+10	1	-1E+10	1
4902643	36	C	06/16/2025	01:54	-133.062	43.633	0	25.80	0	13.3350	0	32.5180	0	24.406	0	25.592	0	250.8	4	96.2	4	-1E+10	1	-1E+10	1	-1E+10	1	-1E+10	1	-1E+10	1	-1E+10	1
4902643	36	C	06/16/2025	01:54	-133.062	43.633	0	34.80	0	12.7360	0	32.5330	0	24.535	0	34.519	0	253.2	4	96.0	4	-1E+10	1	-1E+10	1	-1E+10	1	-1E+10	1	-1E+10	1	-1E+10	1
4902643	36	C	06/16/2025	01:54	-133.062	43.633	0	45.60	0	11.8510	0	32.5800	0	24.739	0	45.231	0	256.4	4	95.5	4	-1E+10	1	-1E+10	1	-1E+10	1	-1E+10	1	-1E+10	1	-1E+10	1
4902643	36	C	06/16/2025	01:54	-133.062	43.633	0	55.20	0	11.3380	0	32.6120	0	24.858	0	54.752	0	255.8	4	94.2	4	-1E+10	1	-1E+10	1	-1E+10	1	-1E+10	1	-1E+10	1	-1E+10	1
4902643	36	C	06/16/2025	01:54	-133.062	43.633	0	65.20	0	10.8120	0	32.6450	0	24.977	0	64.669	0	252.2	4	91.9	4	-1E+10	1	-1E+10	1	-1E+10	1	-1E+10	1	-1E+10	1	-1E+10	1
4902643	36	C	06/16/2025	01:54	-133.062	43.633	0	75.20	0	10.5550	0	32.7130	0	25.075	0	74.585	0	247.5	4	89.7	4	-1E+10	1	-1E+10	1	-1E+10	1	-1E+10	1	-1E+10	1	-1E+10	1
4902643	36	C	06/16/2025	01:54	-133.062	43.633	0	85.30	0	10.1820	0	32.6850	0	25.116	0	84.601	0	245.1	4	88.1	4	-1E+10	1	-1E+10	1	-1E+10	1	-1E+10	1	-1E+10	1	-1E+10	1
4902643	36	C	06/16/2025	01:54	-133.062	43.633	0	95.30	0	10.1740	0	32.7040	0	25.133	0	94.517	0	235.9	4	84.8	4	-1E+10	1	-1E+10	1	-1E+10	1	-1E+10	1	-1E+10	1	-1E+10	1
4902643	36	C	06/16/2025	01:54	-133.062	43.633	0	104.50	0	10.0960	0	32.8690	0	25.275	0	103.639	0	222.5	4	80.0	4	-1E+10	1	-1E+10	1	-1E+10	1	-1E+10	1	-1E+10	1	-1E+10	1
4902643	36	C	06/16/2025	01:54	-133.062	43.633	0	114.80	0	9.6330	0	33.0950	0	25.528	0	113.851	0	214.1	4	76.3	4	-1E+10	1	-1E+10	1	-1E+10	1	-1E+10	1	-1E+10	1	-1E+10	1
4902643	36	C	06/16/2025	01:54	-133.062	43.633	0	125.20	0	9.3890	0	33.2760	0	25.709	0	124.162	0	207.7	4	73.7	4	-1E+10	1	-1E+10	1	-1E+10	1	-1E+10	1	-1E+10	1	-1E+10	1
4902643	36	C	06/16/2025	01:54	-133.062	43.633	0	135.00	0	9.2100	0	33.3890	0	25.826	0	133.877	0	203.2	4	71.9	4	-1E+10	1	-1E+10	1	-1E+10	1	-1E+10	1	-1E+10	1	-1E+10	1
4902643	36	C	06/16/2025	01:54	-133.062	43.633	0	144.70	0	9.1110	0	33.4620	0	25.899	0	143.493	0	198.6	4	70.2	4	-1E+10	1	-1E+10	1	-1E+10	1	-1E+10	1	-1E+10	1	-1E+10	1
4902643	36	C	06/16/2025	01:54	-133.062	43.633	0	154.80	0	8.9340	0	33.5600	0	26.004	0	153.505	0	193.4	4	68.1	4	-1E+10	1	-1E+10	1	-1E+10	1	-1E+10	1	-1E+10	1	-1E+10	1
4902643	36	C	06/16/2025	01:54	-133.062	43.633	0	164.90	0	8.7320	0	33.6440	0	26.101	0	163.517	0	190.2	4	66.7	4	-1E+10	1	-1E+10	1	-1E+10	1	-1E+10	1	-1E+10	1	-1E+10	1
4902643	36	C	06/16/2025	01:54	-133.062	43.633	0	174.50	0	8.5940	0	33.7010	0	26.167	0	173.032	0	187.7	4	65.7	4	-1E+10	1	-1E+10	1	-1E+10	1	-1E+10	1	-1E+10	1	-1E+10	1
4902643	36	C	06/16/2025	01:54	-133.062	43.633	0	185.50	0	8.4120	0	33.7680	0	26.248	0	183.935	0	185.1	4	64.5	4	-1E+10	1	-1E+10	1	-1E+10	1	-1E+10	1	-1E+10	1	-1E+10	1
4902643	36	C	06/16/2025	01:54	-133.062	43.633	0	193.40	0	8.2760	0	33.8030	0	26.296	0	191.764	0	183.1	4	63.7	4	-1E+10	1	-1E+10	1	-1E+10	1	-1E+10	1	-1E+10	1	-1E+10	1
4902643	36	C	06/16/2025	01:54	-133.062	43.633	0	206.80	0	7.9640	0	33.8330	0	26.366	0	205.045	0	178.6	4	61.7	4	-1E+10	1	-1E+10	1	-1E+10	1	-1E+10	1	-1E+10	1	-1E+10	1
4902643	36	C	06/16/2025	01:54	-133.062	43.633	0	227.30	0	7.5680	0	33.8460	0	26.434	0	225.359	0	168.9	4	57.8	4	-1E+10	1	-1E+10	1	-1E+10	1	-1E+10	1	-1E+10	1	-1E+10	1
4902643	36	C	06/16/2025	01:54	-133.062	43.633	0	246.70	0	7.1440	0	33.8390	0	26.488	0	244.582	0	162.4	4	55.0	4	-1E+10	1	-1E+10	1	-1E+10	1	-1E+10	1	-1E+10	1	-1E+10	1
4902643	36	C	06/16/2025	01:54	-133.062	43.633	0	266.70	0	6.8490	0	33.8400	0	26.529	0	264.398	0	154.9	4	52.2	4	-1E+10	1	-1E+10	1	-1E+10	1	-1E+10	1	-1E+10	1	-1E+10	1
4902643	36	C	06/16/2025	01:54	-133.062	43.633	0	286.80	0	6.5470	0	33.8390	0	26.569	0	284.310	0	143.3	4	47.9	4	-1E+10	1	-1E+10	1	-1E+10	1	-1E+10	1	-1E+10	1	-1E+10	1
4902643	36	C	06/16/2025	01:54	-133.062	43.633	0	306.90	0	6.1780	0	33.8400	0	26.617	0	304.221	0	126.9	4	42.1	4	-1E+10	1	-1E+10	1	-1E+10	1	-1E+10	1	-1E+10	1	-1E+10	1
4902643	36	C	06/16/2025	01:54	-133.062	43.633	0	326.90	0	5.8660	0	33.8500	0	26.664	0	324.031	0	110.1	4	36.3	4	-1E+10	1	-1E+10	1	-1E+10	1	-1E+10	1	-1E+10	1	-1E+10	1
4902643	36	C	06/16/2025	01:54	-133.062	43.633	0	346.80	0	5.6550	0	33.8640	0	26.701	0	343.740	0	98.7	4	32.3	4	-1E+10	1	-1E+10	1	-1E+10	1	-1E+10	1	-1E+10	1	-1E+10	1
4902643	36	C	06/16/2025	01:54	-133.062	43.633	0	367.50	0	5.4610	0	33.8750	0	26.733	0	364.239	0	90.1	4	29.4	4	-1E+10	1	-1E+10	1	-1E+10	1	-1E+10	1	-1E+10	1	-1E+10	1
4902643	36	C	06/16/2025	01:54	-133.062	43.633	0	386.70	0	5.2300	0	33.8880	0	26.771	0	383.251	0	82.2	4	26.7	4	-1E+10	1	-1E+10	1	-1E+10	1	-1E+10	1	-1E+10	1	-1E+10	1
4902643	36	C	06/16/2025	01:54	-133.062	43.633	0	406.30	0	5.0400	0	33.9050	0	26.806	0	402.657	0	75.2	4	24.3	4	-1E+10	1	-1E+10	1	-1E+10	1	-1E+10	1	-1E+10	1	-1E+10	1
4902643	36	C	06/16/2025	01:54	-133.062	43.633	0	426.30	0	4.8410	0	33.9190	0	26.840	0	422.457	0	68.3	4	22.0	4	-1E+10	1	-1E+10	1	-1E+10	1	-1E+10	1	-1E+10	1	-1E+10	1
4902643	36	C	06/16/2025	01:54	-133.062	43.633	0	446.60	0	4.6940	0	33.9420	0	26.875	0	442.553	0	62.5	4	20.0	4	-1E+10	1	-1E+10	1	-1E+10	1	-1E+10	1	-1E+10	1	-1E+10	1
4902643	36	C	06/16/2025	01:54	-133.062	43.633	0	466.50	0	4.6220	0	33.9590	0	26.896	0	462.250	0	57.4	4	18.4	4	-1E+10	1	-1E+10	1	-1E+10	1	-1E+10	1	-1E+10	1	-1E+10	1
4902643	36	C	06/16/2025	01:54	-133.062	43.633	0	486.30	0	4.5190	0	33.9780	0	26.923	0	481.847	0	51.8	4	16.5	4	-1E+10	1	-1E+10	1	-1E+10	1	-1E+10	1	-1E+10	1	-1E+10	1
4902643	36	C	06/16/2025	01:54	-133.062	43.633	0	506.70	0	4.4390	0	33.9970	0	26.946	0	502.036	0	47.1	4	15.0	4	-1E+10	1	-1E+10	1	-1E+10	1	-1E+10	1	-1E+10	1	-1E+10	1
4902643	36	C	06/16/2025	01:54	-133.062	43.633	0	527.50	0	4.3640	0	34.0150	0	26.969	0	522.618	0	42.7	4	13.6	4	-1E+10	1	-1E+10	1	-1E+10	1	-1E+10	1	-1E+10	1	-1E+10	1
4902643	36	C	06/16/2025	01:54	-133.062	43.633	0	546.80	0	4.3090	0	34.0320	0	26.988	0	541.714	0	39.0	4	12.4	4	-1E+10	1	-1E+10	1	-1E+10	1	-1E+10	1	-1E+10	1	-1E+10	1
4902643	36	C	06/16/2025	01:54	-133.062	43.633	0	566.70	0	4.2630	0	34.0490	0	27.007	0	561.402	0	35.2	4	11.2	4	-1E+10	1	-1E+10	1	-1E+10	1	-1E+10	1	-1E+10	1	-1E+10	1
4902643	36	C	06/16/2025	01:54	-133.062	43.633	0	586.60	0	4.2200	0	34.0700	0	27.028	0	581.088	0	31.3	4	9.9	4	-1E+10	1	-1E+10	1	-1E+10	1	-1E+10	1	-1E+10	1	-1E+10	1
4902643	36	C	06/16/2025	01:54	-133.062	43.633	0	606.70	0	4.1750	0	34.0870	0	27.046	0	600.971	0	28.4	4	9.0	4	-1E+10	1	-1E+10	1	-1E+10	1	-1E+10	1	-1E+10	1	-1E+10	1
4902643	36	C	06/16/2025	01:54	-133.062	43.633	0	626.20	0	4.1390	0	34.1040	0	27.064	0	620.257	0	24.9	4	7.9	4	-1E+10	1	-1E+10	1	-1E+10	1	-1E+10	1	-1E+10	1	-1E+10	1
4902643	36	C	06/16/2025	01:54	-133.062	43.633	0	646.50	0	4.0960	0	34.1250	0	27.085	0	640.334	0	21.7	4	6.9	4	-1E+10	1	-1E+10	1	-1E+10	1	-1E+10	1	-1E+10	1	-1E+10	1
4902643	36	C	06/16/2025	01:54	-133.062	43.633	0	666.70	0	4.0550	0	34.1420	0	27.103	0	660.309	0	19.4	4	6.1	4	-1E+10	1	-1E+10	1	-1E+10	1	-1E+10	1	-1E+10	1	-1E+10	1
4902643	36	C	06/16/2025	01:54	-133.062	43.633	0	686.90	0	3.9950	0	34.1580	0	27.122	0	680.282	0	17.5	4	5.5	4	-1E+10	1	-1E+10	1	-1E+10	1	-1E+10	1	-1E+10	1	-1E+10	1
4902643	36	C	06/16/2025	01:54	-133.062	43.633	0	706.90	0	3.9310	0	34.1760	0	27.143	0	700.056	0	15.2	4	4.8	4	-1E+10	1	-1E+10	1	-1E+10	1	-1E+10	1	-1E+10	1	-1E+10	1
4902643	36	C	06/16/2025	01:54	-133.062	43.633	0	726.80	0	3.8980	0	34.1960	0	27.162	0	719.729	0	13.2	4	4.2	4	-1E+10	1	-1E+10	1	-1E+10	1	-1E+10	1	-1E+10	1	-1E+10	1
4902643	36	C	06/16/2025	01:54	-133.062	43.633	0	747.00	0	3.8510	0	34.2110	0	27.179	0	739.697	0	12.0	4	3.8	4	-1E+10	1	-1E+10	1	-1E+10	1	-1E+10	1	-1E+10	1	-1E+10	1
4902643	36	C	06/16/2025	01:54	-133.062	43.633	0	767.60	0	3.7940	0	34.2240	0	27.195	0	760.058	0	11.2	4	3.5	4	-1E+10	1	-1E+10	1	-1E+10	1	-1E+10	1	-1E+10	1	-1E+10	1
4902643	36	C	06/16/2025	01:54	-133.062	43.633	0	786.90	0	3.7250	0	34.2360	0	27.212	0	779.132	0	10.4	4	3.3	4	-1E+10	1	-1E+10	1	-1E+10	1	-1E+10	1	-1E+10	1	-1E+10	1
4902643	36	C	06/16/2025	01:54	-133.062	43.633	0	806.90	0	3.7210	0	34.2510	0	27.224	0	798.897	0	9.2	4	2.9	4	-1E+10	1	-1E+10	1	-1E+10	1	-1E+10	1	-1E+10	1	-1E+10	1
4902643	36	C	06/16/2025	01:54	-133.062	43.633	0	826.80	0	3.6970	0	34.2680	0	27.240	0	818.560	0	8.3	4	2.6	4	-1E+10	1	-1E+10	1	-1E+10	1	-1E+10	1	-1E+10	1	-1E+10	1
4902643	36	C	06/16/2025	01:54	-133.062	43.633	0	846.80	0	3.6630	0	34.2800	0	27.253	0	838.321	0	7.9	4	2.5	4	-1E+10	1	-1E+10	1	-1E+10	1	-1E+10	1	-1E+10	1	-1E+10	1
4902643	36	C	06/16/2025	01:54	-133.062	43.633	0	866.90	0	3.6230	0	34.2900	0	27.265	0	858.178	0	7.4	4	2.3	4	-1E+10	1	-1E+10	1	-1E+10	1	-1E+10	1	-1E+10	1	-1E+10	1
4902643	36	C	06/16/2025	01:54	-133.062	43.633	0	886.90	0	3.6040	0	34.3050	0	27.279	0	877.935	0	7.0	4	2.2	4	-1E+10	1	-1E+10	1	-1E+10	1	-1E+10	1	-1E+10	1	-1E+10	1
4902643	36	C	06/16/2025	01:54	-133.062	43.633	0	906.90	0	3.5740	0	34.3170	0	27.292	0	897.690	0	6.7	4	2.1	4	-1E+10	1	-1E+10	1	-1E+10	1	-1E+10	1	-1E+10	1	-1E+10	1
4902643	36	C	06/16/2025	01:54	-133.062	43.633	0	927.70	0	3.5470	0	34.3300	0	27.305	0	918.233	0	6.6	4	2.1	4	-1E+10	1	-1E+10	1	-1E+10	1	-1E+10	1	-1E+10	1	-1E+10	1
4902643	36	C	06/16/2025	01:54	-133.062	43.633	0	946.70	0	3.5420	0	34.3440	0	27.317	0	936.997	0	6.5	4	2.0	4	-1E+10	1	-1E+10	1	-1E+10	1	-1E+10	1	-1E+10	1	-1E+10	1
4902643	36	C	06/16/2025	01:54	-133.062	43.633	0	966.60	0	3.5140	0	34.3590	0	27.332	0	956.647	0	6.6	4	2.1	4	-1E+10	1	-1E+10	1	-1E+10	1	-1E+10	1	-1E+10	1	-1E+10	1
4902643	36	C	06/16/2025	01:54	-133.062	43.633	0	986.90	0	3.4750	0	34.3710	0	27.345	0	976.691	0	6.8	4	2.1	4	-1E+10	1	-1E+10	1	-1E+10	1	-1E+10	1	-1E+10	1	-1E+10	1
4902643	36	C	06/16/2025	01:54	-133.062	43.633	0	1006.90	0	3.4290	0	34.3820	0	27.358	0	996.437	0	7.1	4	2.2	4	-1E+10	1	-1E+10	1	-1E+10	1	-1E+10	1	-1E+10	1	-1E+10	1
4902643	36	C	06/16/2025	01:54	-133.062	43.633	0	1026.90	0	3.3800	0	34.3890	0	27.369	0	1016.180	0	7.3	4	2.3	4	-1E+10	1	-1E+10	1	-1E+10	1	-1E+10	1	-1E+10	1	-1E+10	1
4902643	36	C	06/16/2025	01:54	-133.062	43.633	0	1047.50	0	3.3340	0	34.3990	0	27.381	0	1036.514	0	7.7	4	2.4	4	-1E+10	1	-1E+10	1	-1E+10	1	-1E+10	1	-1E+10	1	-1E+10	1
4902643	36	C	06/16/2025	01:54	-133.062	43.633	0	1066.70	0	3.2950	0	34.4080	0	27.392	0	1055.465	0	8.1	4	2.5	4	-1E+10	1	-1E+10	1	-1E+10	1	-1E+10	1	-1E+10	1	-1E+10	1
4902643	36	C	06/16/2025	01:54	-133.062	43.633	0	1086.60	0	3.2600	0	34.4150	0	27.401	0	1075.104	0	8.5	4	2.6	4	-1E+10	1	-1E+10	1	-1E+10	1	-1E+10	1	-1E+10	1	-1E+10	1
4902643	36	C	06/16/2025	01:54	-133.062	43.633	0	1106.60	0	3.2300	0	34.4220	0	27.410	0	1094.841	0	9.0	4	2.8	4	-1E+10	1	-1E+10	1	-1E+10	1	-1E+10	1	-1E+10	1	-1E+10	1
4902643	36	C	06/16/2025	01:54	-133.062	43.633	0	1126.70	0	3.1900	0	34.4300	0	27.420	0	1114.674	0	9.5	4	3.0	4	-1E+10	1	-1E+10	1	-1E+10	1	-1E+10	1	-1E+10	1	-1E+10	1
4902643	36	C	06/16/2025	01:54	-133.062	43.633	0	1146.80	0	3.1480	0	34.4370	0	27.430	0	1134.505	0	10.0	4	3.1	4	-1E+10	1	-1E+10	1	-1E+10	1	-1E+10	1	-1E+10	1	-1E+10	1
4902643	36	C	06/16/2025	01:54	-133.062	43.633	0	1166.80	0	3.1270	0	34.4410	0	27.435	0	1154.236	0	10.5	4	3.2	4	-1E+10	1	-1E+10	1	-1E+10	1	-1E+10	1	-1E+10	1	-1E+10	1
4902643	36	C	06/16/2025	01:54	-133.062	43.633	0	1187.00	0	3.0920	0	34.4470	0	27.443	0	1174.162	0	11.0	4	3.4	4	-1E+10	1	-1E+10	1	-1E+10	1	-1E+10	1	-1E+10	1	-1E+10	1
4902643	36	C	06/16/2025	01:54	-133.062	43.633	0	1206.90	0	3.0550	0	34.4520	0	27.450	0	1193.790	0	11.5	4	3.6	4	-1E+10	1	-1E+10	1	-1E+10	1	-1E+10	1	-1E+10	1	-1E+10	1
4902643	36	C	06/16/2025	01:54	-133.062	43.633	0	1226.70	0	3.0260	0	34.4560	0	27.456	0	1213.318	0	12.1	4	3.7	4	-1E+10	1	-1E+10	1	-1E+10	1	-1E+10	1	-1E+10	1	-1E+10	1
4902643	36	C	06/16/2025	01:54	-133.062	43.633	0	1247.40	0	2.9920	0	34.4620	0	27.464	0	1233.731	0	12.8	4	4.0	4	-1E+10	1	-1E+10	1	-1E+10	1	-1E+10	1	-1E+10	1	-1E+10	1
4902643	36	C	06/16/2025	01:54	-133.062	43.633	0	1266.80	0	2.9580	0	34.4670	0	27.471	0	1252.861	0	13.6	4	4.2	4	-1E+10	1	-1E+10	1	-1E+10	1	-1E+10	1	-1E+10	1	-1E+10	1
4902643	36	C	06/16/2025	01:54	-133.062	43.633	0	1286.70	0	2.9170	0	34.4720	0	27.479	0	1272.482	0	14.4	4	4.4	4	-1E+10	1	-1E+10	1	-1E+10	1	-1E+10	1	-1E+10	1	-1E+10	1
4902643	36	C	06/16/2025	01:54	-133.062	43.633	0	1306.50	0	2.8810	0	34.4780	0	27.487	0	1292.002	0	15.3	4	4.7	4	-1E+10	1	-1E+10	1	-1E+10	1	-1E+10	1	-1E+10	1	-1E+10	1
4902643	36	C	06/16/2025	01:54	-133.062	43.633	0	1326.80	0	2.8440	0	34.4830	0	27.495	0	1312.014	0	16.2	4	5.0	4	-1E+10	1	-1E+10	1	-1E+10	1	-1E+10	1	-1E+10	1	-1E+10	1
4902643	36	C	06/16/2025	01:54	-133.062	43.633	0	1347.00	0	2.8050	0	34.4880	0	27.502	0	1331.925	0	17.2	4	5.3	4	-1E+10	1	-1E+10	1	-1E+10	1	-1E+10	1	-1E+10	1	-1E+10	1
4902643	36	C	06/16/2025	01:54	-133.062	43.633	0	1366.90	0	2.7580	0	34.4940	0	27.511	0	1351.539	0	18.3	4	5.6	4	-1E+10	1	-1E+10	1	-1E+10	1	-1E+10	1	-1E+10	1	-1E+10	1
4902643	36	C	06/16/2025	01:54	-133.062	43.633	0	1386.60	0	2.7220	0	34.4980	0	27.518	0	1370.953	0	19.3	4	5.9	4	-1E+10	1	-1E+10	1	-1E+10	1	-1E+10	1	-1E+10	1	-1E+10	1
4902643	36	C	06/16/2025	01:54	-133.062	43.633	0	1407.30	0	2.6870	0	34.5030	0	27.525	0	1391.351	0	20.3	4	6.2	4	-1E+10	1	-1E+10	1	-1E+10	1	-1E+10	1	-1E+10	1	-1E+10	1
4902643	36	C	06/16/2025	01:54	-133.062	43.633	0	1426.90	0	2.6500	0	34.5070	0	27.531	0	1410.664	0	21.3	4	6.5	4	-1E+10	1	-1E+10	1	-1E+10	1	-1E+10	1	-1E+10	1	-1E+10	1
4902643	36	C	06/16/2025	01:54	-133.062	43.633	0	1446.90	0	2.6170	0	34.5110	0	27.537	0	1430.369	0	22.1	4	6.8	4	-1E+10	1	-1E+10	1	-1E+10	1	-1E+10	1	-1E+10	1	-1E+10	1
4902643	36	C	06/16/2025	01:54	-133.062	43.633	0	1466.70	0	2.5930	0	34.5130	0	27.541	0	1449.874	0	23.1	4	7.1	4	-1E+10	1	-1E+10	1	-1E+10	1	-1E+10	1	-1E+10	1	-1E+10	1
4902643	36	C	06/16/2025	01:54	-133.062	43.633	0	1486.90	0	2.5570	0	34.5180	0	27.548	0	1469.772	0	24.5	4	7.5	4	-1E+10	1	-1E+10	1	-1E+10	1	-1E+10	1	-1E+10	1	-1E+10	1
4902643	36	C	06/16/2025	01:54	-133.062	43.633	0	1506.70	0	2.5200	0	34.5230	0	27.556	0	1489.275	0	25.8	4	7.9	4	-1E+10	1	-1E+10	1	-1E+10	1	-1E+10	1	-1E+10	1	-1E+10	1
4902643	36	C	06/16/2025	01:54	-133.062	43.633	0	1525.80	0	2.4840	0	34.5270	0	27.562	0	1508.086	0	26.9	4	8.2	4	-1E+10	1	-1E+10	1	-1E+10	1	-1E+10	1	-1E+10	1	-1E+10	1
4902643	36	C	06/16/2025	01:54	-133.062	43.633	0	1546.40	0	2.4520	0	34.5300	0	27.567	0	1528.372	0	28.0	4	8.5	4	-1E+10	1	-1E+10	1	-1E+10	1	-1E+10	1	-1E+10	1	-1E+10	1
4902643	36	C	06/16/2025	01:54	-133.062	43.633	0	1566.80	0	2.4120	0	34.5350	0	27.574	0	1548.460	0	29.3	4	8.9	4	-1E+10	1	-1E+10	1	-1E+10	1	-1E+10	1	-1E+10	1	-1E+10	1
4902643	36	C	06/16/2025	01:54	-133.062	43.633	0	1586.70	0	2.3860	0	34.5390	0	27.580	0	1568.053	0	31.0	4	9.4	4	-1E+10	1	-1E+10	1	-1E+10	1	-1E+10	1	-1E+10	1	-1E+10	1
4902643	36	C	06/16/2025	01:54	-133.062	43.633	0	1606.70	0	2.3570	0	34.5430	0	27.586	0	1587.743	0	32.4	4	9.8	4	-1E+10	1	-1E+10	1	-1E+10	1	-1E+10	1	-1E+10	1	-1E+10	1
4902643	36	C	06/16/2025	01:54	-133.062	43.633	0	1627.00	0	2.3210	0	34.5470	0	27.592	0	1607.726	0	33.8	4	10.3	4	-1E+10	1	-1E+10	1	-1E+10	1	-1E+10	1	-1E+10	1	-1E+10	1
4902643	36	C	06/16/2025	01:54	-133.062	43.633	0	1646.90	0	2.2970	0	34.5500	0	27.596	0	1627.314	0	34.9	4	10.6	4	-1E+10	1	-1E+10	1	-1E+10	1	-1E+10	1	-1E+10	1	-1E+10	1
4902643	36	C	06/16/2025	01:54	-133.062	43.633	0	1667.30	0	2.2650	0	34.5540	0	27.602	0	1647.392	0	36.4	4	11.0	4	-1E+10	1	-1E+10	1	-1E+10	1	-1E+10	1	-1E+10	1	-1E+10	1
4902643	36	C	06/16/2025	01:54	-133.062	43.633	0	1686.50	0	2.2350	0	34.5570	0	27.607	0	1666.288	0	37.7	4	11.4	4	-1E+10	1	-1E+10	1	-1E+10	1	-1E+10	1	-1E+10	1	-1E+10	1
4902643	36	C	06/16/2025	01:54	-133.062	43.633	0	1706.80	0	2.2080	0	34.5610	0	27.613	0	1686.264	0	39.1	4	11.8	4	-1E+10	1	-1E+10	1	-1E+10	1	-1E+10	1	-1E+10	1	-1E+10	1
4902643	36	C	06/16/2025	01:54	-133.062	43.633	0	1726.70	0	2.1810	0	34.5650	0	27.618	0	1705.844	0	40.7	4	12.3	4	-1E+10	1	-1E+10	1	-1E+10	1	-1E+10	1	-1E+10	1	-1E+10	1
4902643	36	C	06/16/2025	01:54	-133.062	43.633	0	1746.80	0	2.1550	0	34.5680	0	27.623	0	1725.620	0	42.1	4	12.7	4	-1E+10	1	-1E+10	1	-1E+10	1	-1E+10	1	-1E+10	1	-1E+10	1
4902643	36	C	06/16/2025	01:54	-133.062	43.633	0	1766.30	0	2.1350	0	34.5700	0	27.626	0	1744.803	0	43.2	4	13.1	4	-1E+10	1	-1E+10	1	-1E+10	1	-1E+10	1	-1E+10	1	-1E+10	1
4902643	36	C	06/16/2025	01:54	-133.062	43.633	0	1786.90	0	2.1180	0	34.5730	0	27.630	0	1765.067	0	44.3	4	13.4	4	-1E+10	1	-1E+10	1	-1E+10	1	-1E+10	1	-1E+10	1	-1E+10	1
4902643	36	C	06/16/2025	01:54	-133.062	43.633	0	1806.80	0	2.0990	0	34.5760	0	27.634	0	1784.640	0	45.5	4	13.8	4	-1E+10	1	-1E+10	1	-1E+10	1	-1E+10	1	-1E+10	1	-1E+10	1
4902643	36	C	06/16/2025	01:54	-133.062	43.633	0	1826.80	0	2.0780	0	34.5780	0	27.637	0	1804.310	0	46.8	4	14.1	4	-1E+10	1	-1E+10	1	-1E+10	1	-1E+10	1	-1E+10	1	-1E+10	1
4902643	36	C	06/16/2025	01:54	-133.062	43.633	0	1846.80	0	2.0570	0	34.5810	0	27.641	0	1823.978	0	48.0	4	14.5	4	-1E+10	1	-1E+10	1	-1E+10	1	-1E+10	1	-1E+10	1	-1E+10	1
4902643	36	C	06/16/2025	01:54	-133.062	43.633	0	1866.50	0	2.0380	0	34.5840	0	27.645	0	1843.349	0	49.3	4	14.9	4	-1E+10	1	-1E+10	1	-1E+10	1	-1E+10	1	-1E+10	1	-1E+10	1
4902643	36	C	06/16/2025	01:54	-133.062	43.633	0	1886.40	0	2.0250	0	34.5860	0	27.648	0	1862.916	0	50.3	4	15.2	4	-1E+10	1	-1E+10	1	-1E+10	1	-1E+10	1	-1E+10	1	-1E+10	1
4902643	36	C	06/16/2025	01:54	-133.062	43.633	0	1907.20	0	2.0050	0	34.5890	0	27.652	0	1883.365	0	51.7	4	15.6	4	-1E+10	1	-1E+10	1	-1E+10	1	-1E+10	1	-1E+10	1	-1E+10	1
4902643	36	C	06/16/2025	01:54	-133.062	43.633	0	1926.80	0	1.9900	0	34.5910	0	27.655	0	1902.632	0	52.6	4	15.9	4	-1E+10	1	-1E+10	1	-1E+10	1	-1E+10	1	-1E+10	1	-1E+10	1
4902643	36	C	06/16/2025	01:54	-133.062	43.633	0	1947.00	0	1.9800	0	34.5920	0	27.657	0	1922.488	0	53.5	4	16.1	4	-1E+10	1	-1E+10	1	-1E+10	1	-1E+10	1	-1E+10	1	-1E+10	1
4902643	36	C	06/16/2025	01:54	-133.062	43.633	0	1966.70	0	1.9660	0	34.5940	0	27.659	0	1941.850	0	54.3	4	16.4	4	-1E+10	1	-1E+10	1	-1E+10	1	-1E+10	1	-1E+10	1	-1E+10	1
4902643	36	C	06/16/2025	01:54	-133.062	43.633	0	1986.50	0	1.9540	0	34.5960	0	27.662	0	1961.309	0	55.0	4	16.6	4	-1E+10	1	-1E+10	1	-1E+10	1	-1E+10	1	-1E+10	1	-1E+10	1
4902643	36	C	06/16/2025	01:54	-133.062	43.633	0	2006.60	0	1.9430	0	34.5980	4	27.665	0	1981.060	0	55.9	4	16.8	4	-1E+10	1	-1E+10	1	-1E+10	1	-1E+10	1	-1E+10	1	-1E+10	1
4902643	36	C	06/16/2025	01:54	-133.062	43.633	0	2026.60	0	1.9300	0	34.5990	4	27.667	0	2000.712	0	57.0	4	17.2	4	-1E+10	1	-1E+10	1	-1E+10	1	-1E+10	1	-1E+10	1	-1E+10	1
4902643	36	C	06/16/2025	01:54	-133.062	43.633	0	2047.10	0	1.9150	0	34.6020	4	27.670	0	2020.853	0	58.1	4	17.5	4	-1E+10	1	-1E+10	1	-1E+10	1	-1E+10	1	-1E+10	1	-1E+10	1
4902643	36	C	06/16/2025	01:54	-133.062	43.633	0	2067.00	0	1.9020	0	34.6040	4	27.673	0	2040.403	0	59.2	4	17.8	4	-1E+10	1	-1E+10	1	-1E+10	1	-1E+10	1	-1E+10	1	-1E+10	1
4902643	36	C	06/16/2025	01:54	-133.062	43.633	0	2087.20	0	1.8920	0	34.6060	4	27.675	0	2060.245	0	60.0	4	18.0	4	-1E+10	1	-1E+10	1	-1E+10	1	-1E+10	1	-1E+10	1	-1E+10	1
4902643	36	C	06/16/2025	01:54	-133.062	43.633	0	2107.20	0	1.8840	0	34.6070	4	27.677	0	2079.890	0	60.9	4	18.3	4	-1E+10	1	-1E+10	1	-1E+10	1	-1E+10	1	-1E+10	1	-1E+10	1
4902643	36	C	06/16/2025	01:54	-133.062	43.633	0	2126.60	0	1.8720	0	34.6090	4	27.680	0	2098.943	0	61.7	4	18.5	4	-1E+10	1	-1E+10	1	-1E+10	1	-1E+10	1	-1E+10	1	-1E+10	1
4902643	36	C	06/16/2025	01:54	-133.062	43.633	0	2146.70	0	1.8640	0	34.6100	4	27.681	0	2118.682	0	62.5	4	18.8	4	-1E+10	1	-1E+10	1	-1E+10	1	-1E+10	1	-1E+10	1	-1E+10	1
4902643	36	C	06/16/2025	01:54	-133.062	43.633	0	2166.70	0	1.8520	0	34.6120	4	27.684	0	2138.321	0	63.3	4	19.0	4	-1E+10	1	-1E+10	1	-1E+10	1	-1E+10	1	-1E+10	1	-1E+10	1
4902643	36	C	06/16/2025	01:54	-133.062	43.633	0	2186.60	0	1.8460	0	34.6130	4	27.685	0	2157.860	0	63.8	4	19.2	4	-1E+10	1	-1E+10	1	-1E+10	1	-1E+10	1	-1E+10	1	-1E+10	1
4902643	36	C	06/16/2025	01:54	-133.062	43.633	0	2206.90	0	1.8430	0	34.6140	4	27.686	0	2177.790	0	64.3	4	19.3	4	-1E+10	1	-1E+10	1	-1E+10	1	-1E+10	1	-1E+10	1	-1E+10	1
4902643	36	C	06/16/2025	01:54	-133.062	43.633	0	2226.90	0	1.8370	0	34.6150	4	27.688	0	2197.423	0	64.8	4	19.5	4	-1E+10	1	-1E+10	1	-1E+10	1	-1E+10	1	-1E+10	1	-1E+10	1
4902643	36	C	06/16/2025	01:54	-133.062	43.633	0	2246.80	0	1.8330	0	34.6160	4	27.689	0	2216.957	0	65.3	4	19.6	4	-1E+10	1	-1E+10	1	-1E+10	1	-1E+10	1	-1E+10	1	-1E+10	1
4902643	36	C	06/16/2025	01:54	-133.062	43.633	0	2266.90	0	1.8290	0	34.6160	4	27.689	0	2236.685	0	65.9	4	19.8	4	-1E+10	1	-1E+10	1	-1E+10	1	-1E+10	1	-1E+10	1	-1E+10	1
4902643	36	C	06/16/2025	01:54	-133.062	43.633	0	2286.90	0	1.8230	0	34.6170	4	27.691	0	2256.313	0	66.5	4	20.0	4	-1E+10	1	-1E+10	1	-1E+10	1	-1E+10	1	-1E+10	1	-1E+10	1
4902643	36	C	06/16/2025	01:54	-133.062	43.633	0	2306.90	0	1.8160	0	34.6180	4	27.692	0	2275.939	0	67.2	4	20.2	4	-1E+10	1	-1E+10	1	-1E+10	1	-1E+10	1	-1E+10	1	-1E+10	1
4902643	36	C	06/16/2025	01:54	-133.062	43.633	0	2326.80	0	1.8100	0	34.6200	4	27.694	0	2295.466	0	67.9	4	20.4	4	-1E+10	1	-1E+10	1	-1E+10	1	-1E+10	1	-1E+10	1	-1E+10	1
4902643	36	C	06/16/2025	01:54	-133.062	43.633	0	2346.90	0	1.8040	0	34.6200	4	27.695	0	2315.187	0	68.5	4	20.5	4	-1E+10	1	-1E+10	1	-1E+10	1	-1E+10	1	-1E+10	1	-1E+10	1
4902643	36	C	06/16/2025	01:54	-133.062	43.633	0	2367.80	0	1.7980	0	34.6210	4	27.696	0	2335.691	0	69.1	4	20.7	4	-1E+10	1	-1E+10	1	-1E+10	1	-1E+10	1	-1E+10	1	-1E+10	1
4902643	36	C	06/16/2025	01:54	-133.062	43.633	0	2386.70	0	1.7910	0	34.6220	4	27.698	0	2354.231	0	69.8	4	20.9	4	-1E+10	1	-1E+10	1	-1E+10	1	-1E+10	1	-1E+10	1	-1E+10	1
4902643	36	C	06/16/2025	01:54	-133.062	43.633	0	2406.60	0	1.7840	0	34.6240	4	27.700	0	2373.750	0	70.5	4	21.1	4	-1E+10	1	-1E+10	1	-1E+10	1	-1E+10	1	-1E+10	1	-1E+10	1
4902643	36	C	06/16/2025	01:54	-133.062	43.633	0	2426.80	0	1.7780	0	34.6250	4	27.701	0	2393.562	0	71.2	4	21.4	4	-1E+10	1	-1E+10	1	-1E+10	1	-1E+10	1	-1E+10	1	-1E+10	1
4902643	36	C	06/16/2025	01:54	-133.062	43.633	0	2447.00	0	1.7710	0	34.6260	4	27.703	0	2413.371	0	72.0	4	21.6	4	-1E+10	1	-1E+10	1	-1E+10	1	-1E+10	1	-1E+10	1	-1E+10	1
4902643	36	C	06/16/2025	01:54	-133.062	43.633	0	2466.60	0	1.7630	0	34.6270	4	27.704	0	2432.591	0	72.9	4	21.9	4	-1E+10	1	-1E+10	1	-1E+10	1	-1E+10	1	-1E+10	1	-1E+10	1
4902643	36	C	06/16/2025	01:54	-133.062	43.633	0	2486.70	0	1.7570	0	34.6280	4	27.706	0	2452.299	0	73.5	4	22.0	4	-1E+10	1	-1E+10	1	-1E+10	1	-1E+10	1	-1E+10	1	-1E+10	1
4902643	36	C	06/16/2025	01:54	-133.062	43.633	0	2506.80	0	1.7490	0	34.6290	4	27.707	0	2472.006	0	74.4	4	22.3	4	-1E+10	1	-1E+10	1	-1E+10	1	-1E+10	1	-1E+10	1	-1E+10	1
4902643	36	C	06/16/2025	01:54	-133.062	43.633	0	2526.70	0	1.7420	0	34.6300	4	27.709	0	2491.514	0	75.3	4	22.6	4	-1E+10	1	-1E+10	1	-1E+10	1	-1E+10	1	-1E+10	1	-1E+10	1
4902643	36	C	06/16/2025	01:54	-133.062	43.633	0	2546.90	0	1.7340	0	34.6310	4	27.710	0	2511.315	0	76.0	4	22.8	4	-1E+10	1	-1E+10	1	-1E+10	1	-1E+10	1	-1E+10	1	-1E+10	1
4902643	36	C	06/16/2025	01:54	-133.062	43.633	0	2566.70	0	1.7280	0	34.6320	4	27.711	0	2530.722	0	76.7	4	23.0	4	-1E+10	1	-1E+10	1	-1E+10	1	-1E+10	1	-1E+10	1	-1E+10	1
4902643	36	C	06/16/2025	01:54	-133.062	43.633	0	2585.90	0	1.7220	0	34.6320	4	27.712	0	2549.539	0	77.4	4	23.2	4	-1E+10	1	-1E+10	1	-1E+10	1	-1E+10	1	-1E+10	1	-1E+10	1
4902643	36	C	06/16/2025	01:54	-133.062	43.633	0	2606.50	0	1.7150	0	34.6330	4	27.713	0	2569.727	0	78.2	4	23.4	4	-1E+10	1	-1E+10	1	-1E+10	1	-1E+10	1	-1E+10	1	-1E+10	1
4902643	36	C	06/16/2025	01:54	-133.062	43.633	0	2626.60	0	1.7100	0	34.6340	4	27.715	0	2589.423	0	79.0	4	23.6	4	-1E+10	1	-1E+10	1	-1E+10	1	-1E+10	1	-1E+10	1	-1E+10	1
4902643	36	C	06/16/2025	01:54	-133.062	43.633	0	2646.60	0	1.7020	0	34.6350	4	27.716	0	2609.019	0	79.8	4	23.9	4	-1E+10	1	-1E+10	1	-1E+10	1	-1E+10	1	-1E+10	1	-1E+10	1
4902643	36	C	06/16/2025	01:54	-133.062	43.633	0	2666.80	0	1.6960	0	34.6360	4	27.718	0	2628.809	0	80.5	4	24.1	4	-1E+10	1	-1E+10	1	-1E+10	1	-1E+10	1	-1E+10	1	-1E+10	1
4902643	36	C	06/16/2025	01:54	-133.062	43.633	0	2686.80	0	1.6900	0	34.6370	4	27.719	0	2648.401	0	81.3	4	24.3	4	-1E+10	1	-1E+10	1	-1E+10	1	-1E+10	1	-1E+10	1	-1E+10	1
4902643	36	C	06/16/2025	01:54	-133.062	43.633	0	2706.50	0	1.6850	0	34.6380	4	27.720	0	2667.697	0	81.9	4	24.5	4	-1E+10	1	-1E+10	1	-1E+10	1	-1E+10	1	-1E+10	1	-1E+10	1
4902643	36	C	06/16/2025	01:54	-133.062	43.633	0	2726.80	0	1.6790	0	34.6390	4	27.722	0	2687.580	0	82.7	4	24.7	4	-1E+10	1	-1E+10	1	-1E+10	1	-1E+10	1	-1E+10	1	-1E+10	1
4902643	36	C	06/16/2025	01:54	-133.062	43.633	0	2747.60	0	1.6750	0	34.6400	4	27.723	0	2707.951	0	83.5	4	25.0	4	-1E+10	1	-1E+10	1	-1E+10	1	-1E+10	1	-1E+10	1	-1E+10	1
4902643	36	C	06/16/2025	01:54	-133.062	43.633	0	2766.70	0	1.6700	0	34.6410	4	27.724	0	2726.654	0	84.1	4	25.2	4	-1E+10	1	-1E+10	1	-1E+10	1	-1E+10	1	-1E+10	1	-1E+10	1
4902643	36	C	06/16/2025	01:54	-133.062	43.633	0	2786.70	0	1.6660	0	34.6410	4	27.725	0	2746.238	0	84.9	4	25.4	4	-1E+10	1	-1E+10	1	-1E+10	1	-1E+10	1	-1E+10	1	-1E+10	1
4902643	36	C	06/16/2025	01:54	-133.062	43.633	0	2806.80	0	1.6600	0	34.6420	4	27.726	0	2765.917	0	85.6	4	25.6	4	-1E+10	1	-1E+10	1	-1E+10	1	-1E+10	1	-1E+10	1	-1E+10	1
4902643	36	C	06/16/2025	01:54	-133.062	43.633	0	2826.70	0	1.6560	0	34.6430	4	27.727	0	2785.399	0	86.3	4	25.8	4	-1E+10	1	-1E+10	1	-1E+10	1	-1E+10	1	-1E+10	1	-1E+10	1
4902643	36	C	06/16/2025	01:54	-133.062	43.633	0	2846.50	0	1.6500	0	34.6440	4	27.729	0	2804.782	0	87.0	4	26.0	4	-1E+10	1	-1E+10	1	-1E+10	1	-1E+10	1	-1E+10	1	-1E+10	1
4902643	36	C	06/16/2025	01:54	-133.062	43.633	0	2866.70	0	1.6450	0	34.6450	4	27.730	0	2824.554	0	87.8	4	26.2	4	-1E+10	1	-1E+10	1	-1E+10	1	-1E+10	1	-1E+10	1	-1E+10	1
4902643	36	C	06/16/2025	01:54	-133.062	43.633	0	2887.60	0	1.6400	0	34.6460	4	27.731	0	2845.009	0	88.4	4	26.4	4	-1E+10	1	-1E+10	1	-1E+10	1	-1E+10	1	-1E+10	1	-1E+10	1
4902643	36	C	06/16/2025	01:54	-133.062	43.633	0	2906.70	0	1.6370	0	34.6460	4	27.731	0	2863.701	0	89.0	4	26.6	4	-1E+10	1	-1E+10	1	-1E+10	1	-1E+10	1	-1E+10	1	-1E+10	1
4902643	36	C	06/16/2025	01:54	-133.062	43.633	0	2927.20	0	1.6330	0	34.6470	4	27.733	0	2883.761	0	89.6	4	26.8	4	-1E+10	1	-1E+10	1	-1E+10	1	-1E+10	1	-1E+10	1	-1E+10	1
4902643	36	C	06/16/2025	01:54	-133.062	43.633	0	2946.80	0	1.6290	0	34.6480	4	27.734	0	2902.939	0	90.1	4	26.9	4	-1E+10	1	-1E+10	1	-1E+10	1	-1E+10	1	-1E+10	1	-1E+10	1
4902643	36	C	06/16/2025	01:54	-133.062	43.633	0	2967.00	0	1.6270	0	34.6480	4	27.734	0	2922.702	0	90.6	4	27.1	4	-1E+10	1	-1E+10	1	-1E+10	1	-1E+10	1	-1E+10	1	-1E+10	1
4902643	36	C	06/16/2025	01:54	-133.062	43.633	0	2986.50	0	1.6230	0	34.6490	4	27.735	0	2941.779	0	91.2	4	27.2	4	-1E+10	1	-1E+10	1	-1E+10	1	-1E+10	1	-1E+10	1	-1E+10	1
4902643	36	C	06/16/2025	01:54	-133.062	43.633	0	3006.70	0	1.6190	0	34.6490	4	27.736	0	2961.539	0	91.8	4	27.4	4	-1E+10	1	-1E+10	1	-1E+10	1	-1E+10	1	-1E+10	1	-1E+10	1
4902643	36	C	06/16/2025	01:54	-133.062	43.633	0	3026.70	0	1.6150	0	34.6500	4	27.737	0	2981.101	0	92.7	4	27.7	4	-1E+10	1	-1E+10	1	-1E+10	1	-1E+10	1	-1E+10	1	-1E+10	1
4902643	36	C	06/16/2025	01:54	-133.062	43.633	0	3046.50	0	1.6090	0	34.6510	4	27.738	0	3000.466	0	93.4	4	27.9	4	-1E+10	1	-1E+10	1	-1E+10	1	-1E+10	1	-1E+10	1	-1E+10	1
4902643	36	C	06/16/2025	01:54	-133.062	43.633	0	3067.20	0	1.6050	0	34.6520	4	27.740	0	3020.709	0	94.0	4	28.1	4	-1E+10	1	-1E+10	1	-1E+10	1	-1E+10	1	-1E+10	1	-1E+10	1
4902643	36	C	06/16/2025	01:54	-133.062	43.633	0	3087.00	0	1.6010	0	34.6520	4	27.740	0	3040.070	0	94.6	4	28.3	4	-1E+10	1	-1E+10	1	-1E+10	1	-1E+10	1	-1E+10	1	-1E+10	1
4902643	36	C	06/16/2025	01:54	-133.062	43.633	0	3107.00	0	1.5980	0	34.6530	4	27.741	0	3059.625	0	95.2	4	28.4	4	-1E+10	1	-1E+10	1	-1E+10	1	-1E+10	1	-1E+10	1	-1E+10	1
4902643	36	C	06/16/2025	01:54	-133.062	43.633	0	3126.60	0	1.5940	0	34.6540	4	27.742	0	3078.788	0	95.7	4	28.6	4	-1E+10	1	-1E+10	1	-1E+10	1	-1E+10	1	-1E+10	1	-1E+10	1
4902643	36	C	06/16/2025	01:54	-133.062	43.633	0	3146.60	0	1.5920	0	34.6540	4	27.743	0	3098.339	0	96.2	4	28.7	4	-1E+10	1	-1E+10	1	-1E+10	1	-1E+10	1	-1E+10	1	-1E+10	1
4902643	36	C	06/16/2025	01:54	-133.062	43.633	0	3167.10	0	1.5880	0	34.6550	4	27.744	0	3118.378	0	96.8	4	28.9	4	-1E+10	1	-1E+10	1	-1E+10	1	-1E+10	1	-1E+10	1	-1E+10	1
4902643	36	C	06/16/2025	01:54	-133.062	43.633	0	3186.80	0	1.5850	0	34.6550	4	27.744	0	3137.633	0	97.3	4	29.1	4	-1E+10	1	-1E+10	1	-1E+10	1	-1E+10	1	-1E+10	1	-1E+10	1
4902643	36	C	06/16/2025	01:54	-133.062	43.633	0	3207.50	0	1.5820	0	34.6560	4	27.745	0	3157.863	0	97.8	4	29.2	4	-1E+10	1	-1E+10	1	-1E+10	1	-1E+10	1	-1E+10	1	-1E+10	1
4902643	36	C	06/16/2025	01:54	-133.062	43.633	0	3226.70	0	1.5800	0	34.6560	4	27.746	0	3176.626	0	98.2	4	29.3	4	-1E+10	1	-1E+10	1	-1E+10	1	-1E+10	1	-1E+10	1	-1E+10	1
4902643	36	C	06/16/2025	01:54	-133.062	43.633	0	3246.60	0	1.5780	0	34.6570	4	27.747	0	3196.071	0	98.7	4	29.5	4	-1E+10	1	-1E+10	1	-1E+10	1	-1E+10	1	-1E+10	1	-1E+10	1
4902643	36	C	06/16/2025	01:54	-133.062	43.633	0	3266.70	0	1.5760	0	34.6570	4	27.747	0	3215.710	0	99.3	4	29.6	4	-1E+10	1	-1E+10	1	-1E+10	1	-1E+10	1	-1E+10	1	-1E+10	1
4902643	36	C	06/16/2025	01:54	-133.062	43.633	0	3286.50	0	1.5750	0	34.6580	4	27.748	0	3235.054	0	99.7	4	29.8	4	-1E+10	1	-1E+10	1	-1E+10	1	-1E+10	1	-1E+10	1	-1E+10	1
4902643	36	C	06/16/2025	01:54	-133.062	43.633	0	3306.70	0	1.5740	0	34.6580	4	27.748	0	3254.787	0	100.1	4	29.9	4	-1E+10	1	-1E+10	1	-1E+10	1	-1E+10	1	-1E+10	1	-1E+10	1
4902643	36	C	06/16/2025	01:54	-133.062	43.633	0	3326.80	0	1.5720	0	34.6590	4	27.749	0	3274.421	0	100.5	4	30.0	4	-1E+10	1	-1E+10	1	-1E+10	1	-1E+10	1	-1E+10	1	-1E+10	1
4902643	36	C	06/16/2025	01:54	-133.062	43.633	0	3346.80	0	1.5690	0	34.6600	4	27.750	0	3293.955	0	101.0	4	30.2	4	-1E+10	1	-1E+10	1	-1E+10	1	-1E+10	1	-1E+10	1	-1E+10	1
4902643	36	C	06/16/2025	01:54	-133.062	43.633	0	3367.50	0	1.5670	0	34.6600	4	27.751	0	3314.171	0	101.5	4	30.3	4	-1E+10	1	-1E+10	1	-1E+10	1	-1E+10	1	-1E+10	1	-1E+10	1
4902643	36	C	06/16/2025	01:54	-133.062	43.633	0	3386.70	0	1.5650	0	34.6600	4	27.751	0	3332.920	0	101.8	4	30.4	4	-1E+10	1	-1E+10	1	-1E+10	1	-1E+10	1	-1E+10	1	-1E+10	1
4902643	36	C	06/16/2025	01:54	-133.062	43.633	0	3407.00	0	1.5650	0	34.6610	4	27.752	0	3352.742	0	102.1	4	30.5	4	-1E+10	1	-1E+10	1	-1E+10	1	-1E+10	1	-1E+10	1	-1E+10	1
4902643	36	C	06/16/2025	01:54	-133.062	43.633	0	3426.90	0	1.5650	0	34.6610	4	27.752	0	3372.171	0	102.4	4	30.6	4	-1E+10	1	-1E+10	1	-1E+10	1	-1E+10	1	-1E+10	1	-1E+10	1
4902643	36	C	06/16/2025	01:54	-133.062	43.633	0	3447.10	0	1.5630	0	34.6620	4	27.753	0	3391.892	0	102.9	4	30.7	4	-1E+10	1	-1E+10	1	-1E+10	1	-1E+10	1	-1E+10	1	-1E+10	1
4902643	36	C	06/16/2025	01:54	-133.062	43.633	0	3466.90	0	1.5620	0	34.6620	4	27.753	0	3411.220	0	103.2	4	30.8	4	-1E+10	1	-1E+10	1	-1E+10	1	-1E+10	1	-1E+10	1	-1E+10	1
4902643	36	C	06/16/2025	01:54	-133.062	43.633	0	3487.20	0	1.5620	0	34.6620	4	27.754	0	3431.035	0	103.6	4	30.9	4	-1E+10	1	-1E+10	1	-1E+10	1	-1E+10	1	-1E+10	1	-1E+10	1
4902643	36	C	06/16/2025	01:54	-133.062	43.633	0	3506.90	0	1.5610	0	34.6630	4	27.755	0	3450.262	0	103.9	4	31.0	4	-1E+10	1	-1E+10	1	-1E+10	1	-1E+10	1	-1E+10	1	-1E+10	1
4902643	36	C	06/16/2025	01:54	-133.062	43.633	0	3527.40	0	1.5610	0	34.6640	4	27.756	0	3470.268	0	104.1	4	31.1	4	-1E+10	1	-1E+10	1	-1E+10	1	-1E+10	1	-1E+10	1	-1E+10	1
4902643	36	C	06/16/2025	01:54	-133.062	43.633	0	3546.90	0	1.5610	0	34.6640	4	27.756	0	3489.297	0	104.4	4	31.2	4	-1E+10	1	-1E+10	1	-1E+10	1	-1E+10	1	-1E+10	1	-1E+10	1
4902643	36	C	06/16/2025	01:54	-133.062	43.633	0	3566.90	0	1.5600	0	34.6640	4	27.756	0	3508.812	0	104.7	4	31.2	4	-1E+10	1	-1E+10	1	-1E+10	1	-1E+10	1	-1E+10	1	-1E+10	1
4902643	36	C	06/16/2025	01:54	-133.062	43.633	0	3586.80	0	1.5600	0	34.6650	4	27.757	0	3528.228	0	104.9	4	31.3	4	-1E+10	1	-1E+10	1	-1E+10	1	-1E+10	1	-1E+10	1	-1E+10	1
4902643	36	C	06/16/2025	01:54	-133.062	43.633	0	3606.70	0	1.5610	0	34.6650	4	27.757	0	3547.642	0	105.0	4	31.3	4	-1E+10	1	-1E+10	1	-1E+10	1	-1E+10	1	-1E+10	1	-1E+10	1
4902643	36	C	06/16/2025	01:54	-133.062	43.633	0	3627.30	0	1.5610	0	34.6650	4	27.757	0	3567.737	0	105.2	4	31.4	4	-1E+10	1	-1E+10	1	-1E+10	1	-1E+10	1	-1E+10	1	-1E+10	1
4902643	36	C	06/16/2025	01:54	-133.062	43.633	0	3647.20	0	1.5610	0	34.6660	4	27.758	0	3587.147	0	105.5	4	31.5	4	-1E+10	1	-1E+10	1	-1E+10	1	-1E+10	1	-1E+10	1	-1E+10	1
4902643	36	C	06/16/2025	01:54	-133.062	43.633	0	3666.90	0	1.5610	0	34.6660	4	27.758	0	3606.361	0	105.8	4	31.6	4	-1E+10	1	-1E+10	1	-1E+10	1	-1E+10	1	-1E+10	1	-1E+10	1
4902643	36	C	06/16/2025	01:54	-133.062	43.633	0	3677.50	0	1.5590	0	34.6670	4	27.759	0	3616.699	0	105.9	4	31.6	4	-1E+10	1	-1E+10	1	-1E+10	1	-1E+10	1	-1E+10	1	-1E+10	1
4902643	36	C	06/16/2025	01:54	-133.062	43.633	0	3678.80	0	1.5590	0	34.6670	4	27.759	0	3617.966	0	106.0	4	31.6	4	-1E+10	1	-1E+10	1	-1E+10	1	-1E+10	1	-1E+10	1	-1E+10	1
4902643	36	C	06/16/2025	01:54	-133.062	43.633	0	3679.70	0	1.5590	0	34.6680	4	27.760	0	3618.844	0	106.0	4	31.6	4	-1E+10	1	-1E+10	1	-1E+10	1	-1E+10	1	-1E+10	1	-1E+10	1
4902643	36	C	06/16/2025	01:54	-133.062	43.633	0	3680.60	0	1.5580	0	34.6680	4	27.760	0	3619.722	0	106.0	4	31.6	4	-1E+10	1	-1E+10	1	-1E+10	1	-1E+10	1	-1E+10	1	-1E+10	1
4902643	36	C	06/16/2025	01:54	-133.062	43.633	0	3681.40	0	1.5590	0	34.6670	4	27.759	0	3620.502	0	106.0	4	31.6	4	-1E+10	1	-1E+10	1	-1E+10	1	-1E+10	1	-1E+10	1	-1E+10	1
4902643	36	C	06/16/2025	01:54	-133.062	43.633	0	3682.30	0	1.5580	0	34.6680	4	27.760	0	3621.380	0	106.0	4	31.6	4	-1E+10	1	-1E+10	1	-1E+10	1	-1E+10	1	-1E+10	1	-1E+10	1
4902643	36	C	06/16/2025	01:54	-133.062	43.633	0	3683.30	0	1.5580	0	34.6680	4	27.760	0	3622.355	0	106.1	4	31.6	4	-1E+10	1	-1E+10	1	-1E+10	1	-1E+10	1	-1E+10	1	-1E+10	1
4902643	36	C	06/16/2025	01:54	-133.062	43.633	0	3684.50	0	1.5570	0	34.6680	4	27.760	0	3623.525	0	106.1	4	31.6	4	-1E+10	1	-1E+10	1	-1E+10	1	-1E+10	1	-1E+10	1	-1E+10	1
4902643	36	C	06/16/2025	01:54	-133.062	43.633	0	3685.90	0	1.5570	0	34.6680	4	27.760	0	3624.890	0	106.1	4	31.7	4	-1E+10	1	-1E+10	1	-1E+10	1	-1E+10	1	-1E+10	1	-1E+10	1
4902643	36	C	06/16/2025	01:54	-133.062	43.633	0	3686.80	0	1.5570	0	34.6680	4	27.760	0	3625.768	0	106.1	4	31.7	4	-1E+10	1	-1E+10	1	-1E+10	1	-1E+10	1	-1E+10	1	-1E+10	1
4902643	36	C	06/16/2025	01:54	-133.062	43.633	0	3687.70	0	1.5570	0	34.6680	4	27.760	0	3626.646	0	106.1	4	31.7	4	-1E+10	1	-1E+10	1	-1E+10	1	-1E+10	1	-1E+10	1	-1E+10	1
4902643	36	C	06/16/2025	01:54	-133.062	43.633	0	3688.50	0	1.5560	0	34.6680	4	27.760	0	3627.426	0	106.2	4	31.7	4	-1E+10	1	-1E+10	1	-1E+10	1	-1E+10	1	-1E+10	1	-1E+10	1
4902643	36	C	06/16/2025	01:54	-133.062	43.633	0	3689.50	0	1.5560	0	34.6680	4	27.760	0	3628.401	0	106.2	4	31.7	4	-1E+10	1	-1E+10	1	-1E+10	1	-1E+10	1	-1E+10	1	-1E+10	1
4902643	36	C	06/16/2025	01:54	-133.062	43.633	0	3690.40	0	1.5550	0	34.6680	4	27.760	0	3629.279	0	106.2	4	31.7	4	-1E+10	1	-1E+10	1	-1E+10	1	-1E+10	1	-1E+10	1	-1E+10	1
4902643	36	C	06/16/2025	01:54	-133.062	43.633	0	3691.30	0	1.5550	0	34.6680	4	27.760	0	3630.156	0	106.2	4	31.7	4	-1E+10	1	-1E+10	1	-1E+10	1	-1E+10	1	-1E+10	1	-1E+10	1
4902643	36	C	06/16/2025	01:54	-133.062	43.633	0	3692.60	0	1.5530	0	34.6690	4	27.761	0	3631.424	0	106.2	4	31.7	4	-1E+10	1	-1E+10	1	-1E+10	1	-1E+10	1	-1E+10	1	-1E+10	1
4902643	36	C	06/16/2025	01:54	-133.062	43.633	0	3693.90	0	1.5530	0	34.6690	4	27.761	0	3632.692	0	106.2	4	31.7	4	-1E+10	1	-1E+10	1	-1E+10	1	-1E+10	1	-1E+10	1	-1E+10	1
4902643	36	C	06/16/2025	01:54	-133.062	43.633	0	3694.80	0	1.5530	0	34.6690	4	27.761	0	3633.569	0	106.2	4	31.7	4	-1E+10	1	-1E+10	1	-1E+10	1	-1E+10	1	-1E+10	1	-1E+10	1
4902643	36	C	06/16/2025	01:54	-133.062	43.633	0	3695.70	0	1.5520	0	34.6690	4	27.761	0	3634.447	0	106.2	4	31.7	4	-1E+10	1	-1E+10	1	-1E+10	1	-1E+10	1	-1E+10	1	-1E+10	1
4902643	36	C	06/16/2025	01:54	-133.062	43.633	0	3696.50	0	1.5520	0	34.6690	4	27.761	0	3635.227	0	106.2	4	31.7	4	-1E+10	1	-1E+10	1	-1E+10	1	-1E+10	1	-1E+10	1	-1E+10	1
4902643	36	C	06/16/2025	01:54	-133.062	43.633	0	3697.40	0	1.5520	0	34.6690	4	27.761	0	3636.105	0	106.2	4	31.7	4	-1E+10	1	-1E+10	1	-1E+10	1	-1E+10	1	-1E+10	1	-1E+10	1
4902643	36	C	06/16/2025	01:54	-133.062	43.633	0	3698.30	0	1.5520	0	34.6690	4	27.761	0	3636.982	0	106.3	4	31.7	4	-1E+10	1	-1E+10	1	-1E+10	1	-1E+10	1	-1E+10	1	-1E+10	1
4902643	36	C	06/16/2025	01:54	-133.062	43.633	0	3699.60	0	1.5510	0	34.6690	4	27.761	0	3638.250	0	106.3	4	31.7	4	-1E+10	1	-1E+10	1	-1E+10	1	-1E+10	1	-1E+10	1	-1E+10	1
4902643	36	C	06/16/2025	01:54	-133.062	43.633	0	3701.00	0	1.5520	0	34.6690	4	27.761	0	3639.615	0	106.3	4	31.7	4	-1E+10	1	-1E+10	1	-1E+10	1	-1E+10	1	-1E+10	1	-1E+10	1
4902643	36	C	06/16/2025	01:54	-133.062	43.633	0	3701.90	0	1.5520	0	34.6690	4	27.761	0	3640.493	0	106.3	4	31.7	4	-1E+10	1	-1E+10	1	-1E+10	1	-1E+10	1	-1E+10	1	-1E+10	1
4902643	36	C	06/16/2025	01:54	-133.062	43.633	0	3702.70	0	1.5520	0	34.6690	4	27.761	0	3641.273	0	106.3	4	31.7	4	-1E+10	1	-1E+10	1	-1E+10	1	-1E+10	1	-1E+10	1	-1E+10	1
4902643	36	C	06/16/2025	01:54	-133.062	43.633	0	3703.60	0	1.5520	0	34.6690	4	27.761	0	3642.151	0	106.2	4	31.7	4	-1E+10	1	-1E+10	1	-1E+10	1	-1E+10	1	-1E+10	1	-1E+10	1
4902643	36	C	06/16/2025	01:54	-133.062	43.633	0	3704.50	0	1.5520	0	34.6690	4	27.761	0	3643.028	0	106.3	4	31.7	4	-1E+10	1	-1E+10	1	-1E+10	1	-1E+10	1	-1E+10	1	-1E+10	1
4902643	36	C	06/16/2025	01:54	-133.062	43.633	0	3705.50	0	1.5520	0	34.6690	4	27.761	0	3644.003	0	106.2	4	31.7	4	-1E+10	1	-1E+10	1	-1E+10	1	-1E+10	1	-1E+10	1	-1E+10	1
4902643	36	C	06/16/2025	01:54	-133.062	43.633	0	3706.30	0	1.5520	0	34.6690	4	27.761	0	3644.783	0	106.2	4	31.7	4	-1E+10	1	-1E+10	1	-1E+10	1	-1E+10	1	-1E+10	1	-1E+10	1
4902643	36	C	06/16/2025	01:54	-133.062	43.633	0	3707.20	0	1.5520	0	34.6690	4	27.761	0	3645.661	0	106.2	4	31.7	4	-1E+10	1	-1E+10	1	-1E+10	1	-1E+10	1	-1E+10	1	-1E+10	1
4902643	36	C	06/16/2025	01:54	-133.062	43.633	0	3708.50	0	1.5520	0	34.6690	4	27.761	0	3646.929	0	106.2	4	31.7	4	-1E+10	1	-1E+10	1	-1E+10	1	-1E+10	1	-1E+10	1	-1E+10	1
4902643	36	C	06/16/2025	01:54	-133.062	43.633	0	3709.80	0	1.5520	0	34.6690	4	27.761	0	3648.196	0	106.2	4	31.7	4	-1E+10	1	-1E+10	1	-1E+10	1	-1E+10	1	-1E+10	1	-1E+10	1
4902643	36	C	06/16/2025	01:54	-133.062	43.633	0	3711.50	0	1.5530	0	34.6690	4	27.761	0	3649.854	0	106.2	4	31.7	4	-1E+10	1	-1E+10	1	-1E+10	1	-1E+10	1	-1E+10	1	-1E+10	1
4902643	36	C	06/16/2025	01:54	-133.062	43.633	0	3712.60	0	1.5530	0	34.6690	4	27.761	0	3650.926	0	106.2	4	31.7	4	-1E+10	1	-1E+10	1	-1E+10	1	-1E+10	1	-1E+10	1	-1E+10	1
4902643	36	C	06/16/2025	01:54	-133.062	43.633	0	3713.40	0	1.5530	0	34.6690	4	27.761	0	3651.706	0	106.2	4	31.7	4	-1E+10	1	-1E+10	1	-1E+10	1	-1E+10	1	-1E+10	1	-1E+10	1
4902643	36	C	06/16/2025	01:54	-133.062	43.633	0	3714.40	0	1.5530	0	34.6690	4	27.761	0	3652.681	0	106.2	4	31.7	4	-1E+10	1	-1E+10	1	-1E+10	1	-1E+10	1	-1E+10	1	-1E+10	1
4902643	36	C	06/16/2025	01:54	-133.062	43.633	0	3715.70	0	1.5530	0	34.6690	4	27.761	0	3653.949	0	106.2	4	31.7	4	-1E+10	1	-1E+10	1	-1E+10	1	-1E+10	1	-1E+10	1	-1E+10	1
4902643	36	C	06/16/2025	01:54	-133.062	43.633	0	3716.30	0	1.5530	0	34.6690	4	27.761	0	3654.534	0	106.3	4	31.7	4	-1E+10	1	-1E+10	1	-1E+10	1	-1E+10	1	-1E+10	1	-1E+10	1
4902643	36	C	06/16/2025	01:54	-133.062	43.633	0	3717.40	0	1.5530	0	34.6690	4	27.761	0	3655.607	0	106.2	4	31.7	4	-1E+10	1	-1E+10	1	-1E+10	1	-1E+10	1	-1E+10	1	-1E+10	1
4902643	36	C	06/16/2025	01:54	-133.062	43.633	0	3718.50	0	1.5530	0	34.6690	4	27.761	0	3656.679	0	106.2	4	31.7	4	-1E+10	1	-1E+10	1	-1E+10	1	-1E+10	1	-1E+10	1	-1E+10	1
4902643	36	C	06/16/2025	01:54	-133.062	43.633	0	3719.30	0	1.5530	0	34.6690	4	27.761	0	3657.459	0	106.2	4	31.7	4	-1E+10	1	-1E+10	1	-1E+10	1	-1E+10	1	-1E+10	1	-1E+10	1
4902643	36	C	06/16/2025	01:54	-133.062	43.633	0	3720.60	0	1.5530	0	34.6690	4	27.761	0	3658.727	0	106.2	4	31.7	4	-1E+10	1	-1E+10	1	-1E+10	1	-1E+10	1	-1E+10	1	-1E+10	1
4902643	36	C	06/16/2025	01:54	-133.062	43.633	0	3721.70	0	1.5540	0	34.6690	4	27.761	0	3659.799	0	106.2	4	31.7	4	-1E+10	1	-1E+10	1	-1E+10	1	-1E+10	1	-1E+10	1	-1E+10	1
4902643	36	C	06/16/2025	01:54	-133.062	43.633	0	3722.70	0	1.5540	0	34.6690	4	27.761	0	3660.774	0	106.2	4	31.7	4	-1E+10	1	-1E+10	1	-1E+10	1	-1E+10	1	-1E+10	1	-1E+10	1
4902643	36	C	06/16/2025	01:54	-133.062	43.633	0	3723.90	0	1.5540	0	34.6690	4	27.761	0	3661.944	0	106.2	4	31.7	4	-1E+10	1	-1E+10	1	-1E+10	1	-1E+10	1	-1E+10	1	-1E+10	1
4902643	36	C	06/16/2025	01:54	-133.062	43.633	0	3724.90	0	1.5540	0	34.6690	4	27.761	0	3662.919	0	106.2	4	31.7	4	-1E+10	1	-1E+10	1	-1E+10	1	-1E+10	1	-1E+10	1	-1E+10	1
4902643	36	C	06/16/2025	01:54	-133.062	43.633	0	3725.70	0	1.5550	0	34.6680	4	27.761	0	3663.699	0	106.2	4	31.7	4	-1E+10	1	-1E+10	1	-1E+10	1	-1E+10	1	-1E+10	1	-1E+10	1
4902643	36	C	06/16/2025	01:54	-133.062	43.633	0																										
4902643	37	C	06/26/2025	04:21	-133.005	43.618	0	1.40	0	14.6465	0	32.4955	0	24.118	0	1.389	0	241.7	4	95.2	4	-1E+10	1	-1E+10	1	-1E+10	1	-1E+10	1	-1E+10	1	-1E+10	1
4902643	37	C	06/26/2025	04:21	-133.005	43.618	0	1.50	0	14.6470	0	32.4960	0	24.118	0	1.488	0	241.7	4	95.2	4	-1E+10	1	-1E+10	1	-1E+10	1	-1E+10	1	-1E+10	1	-1E+10	1
4902643	37	C	06/26/2025	04:21	-133.005	43.618	0	1.60	0	14.6480	0	32.4970	0	24.119	0	1.587	0	241.7	4	95.2	4	-1E+10	1	-1E+10	1	-1E+10	1	-1E+10	1	-1E+10	1	-1E+10	1
4902643	37	C	06/26/2025	04:21	-133.005	43.618	0	1.70	0	14.6510	0	32.4960	0	24.118	0	1.686	0	241.7	4	95.2	4	-1E+10	1	-1E+10	1	-1E+10	1	-1E+10	1	-1E+10	1	-1E+10	1
4902643	37	C	06/26/2025	04:21	-133.005	43.618	0	1.80	0	14.6570	0	32.4915	0	24.113	0	1.786	0	241.6	4	95.2	4	-1E+10	1	-1E+10	1	-1E+10	1	-1E+10	1	-1E+10	1	-1E+10	1
4902643	37	C	06/26/2025	04:21	-133.005	43.618	0	1.90	0	14.6560	0	32.3180	0	23.979	0	1.885	0	241.0	4	94.8	4	-1E+10	1	-1E+10	1	-1E+10	1	-1E+10	1	-1E+10	1	-1E+10	1
4902643	37	C	06/26/2025	04:21	-133.005	43.618	0	2.80	0	14.5780	0	32.3180	0	23.996	0	2.778	0	241.0	4	94.7	4	-1E+10	1	-1E+10	1	-1E+10	1	-1E+10	1	-1E+10	1	-1E+10	1
4902643	37	C	06/26/2025	04:21	-133.005	43.618	0	3.60	0	14.4650	0	32.3480	0	24.043	0	3.571	0	241.1	4	94.5	4	-1E+10	1	-1E+10	1	-1E+10	1	-1E+10	1	-1E+10	1	-1E+10	1
4902643	37	C	06/26/2025	04:21	-133.005	43.618	0	4.50	0	14.2870	0	32.4870	0	24.187	0	4.464	0	241.8	4	94.6	4	-1E+10	1	-1E+10	1	-1E+10	1	-1E+10	1	-1E+10	1	-1E+10	1
4902643	37	C	06/26/2025	04:21	-133.005	43.618	0	5.60	0	14.2320	0	32.4920	0	24.202	0	5.555	0	242.3	4	94.7	4	-1E+10	1	-1E+10	1	-1E+10	1	-1E+10	1	-1E+10	1	-1E+10	1
4902643	37	C	06/26/2025	04:21	-133.005	43.618	0	6.50	0	14.1950	0	32.4950	0	24.213	0	6.448	0	242.5	4	94.7	4	-1E+10	1	-1E+10	1	-1E+10	1	-1E+10	1	-1E+10	1	-1E+10	1
4902643	37	C	06/26/2025	04:21	-133.005	43.618	0	7.30	0	14.1460	0	32.4960	0	24.223	0	7.242	0	242.7	4	94.6	4	-1E+10	1	-1E+10	1	-1E+10	1	-1E+10	1	-1E+10	1	-1E+10	1
4902643	37	C	06/26/2025	04:21	-133.005	43.618	0	8.20	0	14.1240	0	32.4930	0	24.226	0	8.134	0	242.9	4	94.7	4	-1E+10	1	-1E+10	1	-1E+10	1	-1E+10	1	-1E+10	1	-1E+10	1
4902643	37	C	06/26/2025	04:21	-133.005	43.618	0	9.40	0	14.1010	0	32.4950	0	24.232	0	9.325	0	243.1	4	94.7	4	-1E+10	1	-1E+10	1	-1E+10	1	-1E+10	1	-1E+10	1	-1E+10	1
4902643	37	C	06/26/2025	04:21	-133.005	43.618	0	14.70	0	14.0240	0	32.4960	0	24.249	0	14.582	0	243.6	4	94.8	4	-1E+10	1	-1E+10	1	-1E+10	1	-1E+10	1	-1E+10	1	-1E+10	1
4902643	37	C	06/26/2025	04:21	-133.005	43.618	0	25.30	0	13.7650	0	32.5100	0	24.313	0	25.096	0	246.4	4	95.4	4	-1E+10	1	-1E+10	1	-1E+10	1	-1E+10	1	-1E+10	1	-1E+10	1
4902643	37	C	06/26/2025	04:21	-133.005	43.618	0	34.90	0	12.5070	0	32.5100	0	24.561	0	34.618	0	254.4	4	96.0	4	-1E+10	1	-1E+10	1	-1E+10	1	-1E+10	1	-1E+10	1	-1E+10	1
4902643	37	C	06/26/2025	04:21	-133.005	43.618	0	45.00	0	11.5800	0	32.5110	0	24.735	0	44.636	0	256.3	4	94.8	4	-1E+10	1	-1E+10	1	-1E+10	1	-1E+10	1	-1E+10	1	-1E+10	1
4902643	37	C	06/26/2025	04:21	-133.005	43.618	0	54.60	0	11.0920	0	32.5330	0	24.840	0	54.157	0	255.3	4	93.5	4	-1E+10	1	-1E+10	1	-1E+10	1	-1E+10	1	-1E+10	1	-1E+10	1
4902643	37	C	06/26/2025	04:21	-133.005	43.618	0	64.60	0	10.4670	0	32.5930	0	24.996	0	64.074	0	253.2	4	91.5	4	-1E+10	1	-1E+10	1	-1E+10	1	-1E+10	1	-1E+10	1	-1E+10	1
4902643	37	C	06/26/2025	04:21	-133.005	43.618	0	74.70	0	10.4090	0	32.6720	0	25.068	0	74.090	0	249.1	4	90.0	4	-1E+10	1	-1E+10	1	-1E+10	1	-1E+10	1	-1E+10	1	-1E+10	1
4902643	37	C	06/26/2025	04:21	-133.005	43.618	0	84.80	0	10.1590	0	32.6680	0	25.107	0	84.105	0	246.4	4	88.6	4	-1E+10	1	-1E+10	1	-1E+10	1	-1E+10	1	-1E+10	1	-1E+10	1
4902643	37	C	06/26/2025	04:21	-133.005	43.618	0	94.20	0	10.1790	0	32.6890	0	25.120	0	93.426	0	240.9	4	86.6	4	-1E+10	1	-1E+10	1	-1E+10	1	-1E+10	1	-1E+10	1	-1E+10	1
4902643	37	C	06/26/2025	04:21	-133.005	43.618	0	104.90	0	10.2570	0	32.7870	0	25.184	0	104.035	0	228.7	4	82.4	4	-1E+10	1	-1E+10	1	-1E+10	1	-1E+10	1	-1E+10	1	-1E+10	1
4902643	37	C	06/26/2025	04:21	-133.005	43.618	0	114.80	0	9.9650	0	32.9830	0	25.386	0	113.851	0	219.5	4	78.7	4	-1E+10	1	-1E+10	1	-1E+10	1	-1E+10	1	-1E+10	1	-1E+10	1
4902643	37	C	06/26/2025	04:21	-133.005	43.618	0	125.50	0	9.4140	0	33.1550	0	25.610	0	124.459	0	213.3	4	75.7	4	-1E+10	1	-1E+10	1	-1E+10	1	-1E+10	1	-1E+10	1	-1E+10	1
4902643	37	C	06/26/2025	04:21	-133.005	43.618	0	134.70	0	9.2180	0	33.3210	0	25.772	0	133.580	0	206.8	4	73.2	4	-1E+10	1	-1E+10	1	-1E+10	1	-1E+10	1	-1E+10	1	-1E+10	1
4902643	37	C	06/26/2025	04:21	-133.005	43.618	0	144.90	0	9.0600	0	33.4790	0	25.920	0	143.692	0	199.4	4	70.4	4	-1E+10	1	-1E+10	1	-1E+10	1	-1E+10	1	-1E+10	1	-1E+10	1
4902643	37	C	06/26/2025	04:21	-133.005	43.618	0	155.50	0	8.8810	0	33.6020	0	26.045	0	154.199	0	194.1	4	68.3	4	-1E+10	1	-1E+10	1	-1E+10	1	-1E+10	1	-1E+10	1	-1E+10	1
4902643	37	C	06/26/2025	04:21	-133.005	43.618	0	164.50	0	8.6900	0	33.6800	0	26.136	0	163.120	0	189.4	4	66.4	4	-1E+10	1	-1E+10	1	-1E+10	1	-1E+10	1	-1E+10	1	-1E+10	1
4902643	37	C	06/26/2025	04:21	-133.005	43.618	0	174.70	0	8.4070	0	33.7450	0	26.230	0	173.231	0	186.3	4	64.9	4	-1E+10	1	-1E+10	1	-1E+10	1	-1E+10	1	-1E+10	1	-1E+10	1
4902643	37	C	06/26/2025	04:21	-133.005	43.618	0	184.80	0	8.2400	0	33.7840	0	26.286	0	183.241	0	184.3	4	64.0	4	-1E+10	1	-1E+10	1	-1E+10	1	-1E+10	1	-1E+10	1	-1E+10	1
4902643	37	C	06/26/2025	04:21	-133.005	43.618	0	194.70	0	8.0670	0	33.8170	0	26.338	0	193.053	0	181.2	4	62.7	4	-1E+10	1	-1E+10	1	-1E+10	1	-1E+10	1	-1E+10	1	-1E+10	1
4902643	37	C	06/26/2025	04:21	-133.005	43.618	0	209.80	0	7.8360	0	33.8420	0	26.392	0	208.018	0	175.8	4	60.5	4	-1E+10	1	-1E+10	1	-1E+10	1	-1E+10	1	-1E+10	1	-1E+10	1
4902643	37	C	06/26/2025	04:21	-133.005	43.618	0	230.20	0	7.5580	0	33.8560	0	26.443	0	228.233	0	168.3	4	57.6	4	-1E+10	1	-1E+10	1	-1E+10	1	-1E+10	1	-1E+10	1	-1E+10	1
4902643	37	C	06/26/2025	04:21	-133.005	43.618	0	249.30	0	7.2680	0	33.8560	0	26.484	0	247.159	0	159.6	4	54.3	4	-1E+10	1	-1E+10	1	-1E+10	1	-1E+10	1	-1E+10	1	-1E+10	1
4902643	37	C	06/26/2025	04:21	-133.005	43.618	0	269.80	0	6.8820	0	33.8510	0	26.533	0	267.469	0	149.1	4	50.3	4	-1E+10	1	-1E+10	1	-1E+10	1	-1E+10	1	-1E+10	1	-1E+10	1
4902643	37	C	06/26/2025	04:21	-133.005	43.618	0	290.00	0	6.5520	0	33.8480	0	26.575	0	287.481	0	136.0	4	45.5	4	-1E+10	1	-1E+10	1	-1E+10	1	-1E+10	1	-1E+10	1	-1E+10	1
4902643	37	C	06/26/2025	04:21	-133.005	43.618	0	309.60	0	6.1640	0	33.8480	0	26.625	0	306.896	0	120.5	4	39.9	4	-1E+10	1	-1E+10	1	-1E+10	1	-1E+10	1	-1E+10	1	-1E+10	1
4902643	37	C	06/26/2025	04:21	-133.005	43.618	0	329.30	0	5.8660	0	33.8580	0	26.671	0	326.408	0	105.2	4	34.6	4	-1E+10	1	-1E+10	1	-1E+10	1	-1E+10	1	-1E+10	1	-1E+10	1
4902643	37	C	06/26/2025	04:21	-133.005	43.618	0	350.30	0	5.6130	0	33.8700	0	26.711	0	347.206	0	94.5	4	30.9	4	-1E+10	1	-1E+10	1	-1E+10	1	-1E+10	1	-1E+10	1	-1E+10	1
4902643	37	C	06/26/2025	04:21	-133.005	43.618	0	369.90	0	5.4370	0	33.8800	0	26.740	0	366.616	0	87.3	4	28.5	4	-1E+10	1	-1E+10	1	-1E+10	1	-1E+10	1	-1E+10	1	-1E+10	1
4902643	37	C	06/26/2025	04:21	-133.005	43.618	0	389.90	0	5.2830	0	33.8870	0	26.764	0	386.420	0	80.5	4	26.1	4	-1E+10	1	-1E+10	1	-1E+10	1	-1E+10	1	-1E+10	1	-1E+10	1
4902643	37	C	06/26/2025	04:21	-133.005	43.618	0	409.90	0	5.1160	0	33.9010	0	26.795	0	406.222	0	74.1	4	24.0	4	-1E+10	1	-1E+10	1	-1E+10	1	-1E+10	1	-1E+10	1	-1E+10	1
4902643	37	C	06/26/2025	04:21	-133.005	43.618	0	429.90	0	5.0020	0	33.9160	0	26.820	0	426.022	0	68.6	4	22.1	4	-1E+10	1	-1E+10	1	-1E+10	1	-1E+10	1	-1E+10	1	-1E+10	1
4902643	37	C	06/26/2025	04:21	-133.005	43.618	0	450.20	0	4.8990	0	33.9360	0	26.847	0	446.117	0	63.6	4	20.5	4	-1E+10	1	-1E+10	1	-1E+10	1	-1E+10	1	-1E+10	1	-1E+10	1
4902643	37	C	06/26/2025	04:21	-133.005	43.618	0	469.80	0	4.7560	0	33.9540	0	26.878	0	465.517	0	58.5	4	18.8	4	-1E+10	1	-1E+10	1	-1E+10	1	-1E+10	1	-1E+10	1	-1E+10	1
4902643	37	C	06/26/2025	04:21	-133.005	43.618	0	489.90	0	4.6350	0	33.9720	0	26.905	0	485.410	0	53.2	4	17.0	4	-1E+10	1	-1E+10	1	-1E+10	1	-1E+10	1	-1E+10	1	-1E+10	1
4902643	37	C	06/26/2025	04:21	-133.005	43.618	0	509.70	0	4.5440	0	33.9980	0	26.936	0	505.005	0	46.8	4	15.0	4	-1E+10	1	-1E+10	1	-1E+10	1	-1E+10	1	-1E+10	1	-1E+10	1
4902643	37	C	06/26/2025	04:21	-133.005	43.618	0	529.60	0	4.4630	0	34.0140	0	26.958	0	524.697	0	43.8	4	14.0	4	-1E+10	1	-1E+10	1	-1E+10	1	-1E+10	1	-1E+10	1	-1E+10	1
4902643	37	C	06/26/2025	04:21	-133.005	43.618	0	548.70	0	4.3690	0	34.0240	0	26.976	0	543.595	0	40.9	4	13.0	4	-1E+10	1	-1E+10	1	-1E+10	1	-1E+10	1	-1E+10	1	-1E+10	1
4902643	37	C	06/26/2025	04:21	-133.005	43.618	0	569.30	0	4.3110	0	34.0460	0	26.999	0	563.975	0	35.0	4	11.1	4	-1E+10	1	-1E+10	1	-1E+10	1	-1E+10	1	-1E+10	1	-1E+10	1
4902643	37	C	06/26/2025	04:21	-133.005	43.618	0	589.70	0	4.2760	0	34.0750	0	27.026	0	584.156	0	30.4	4	9.7	4	-1E+10	1	-1E+10	1	-1E+10	1	-1E+10	1	-1E+10	1	-1E+10	1
4902643	37	C	06/26/2025	04:21	-133.005	43.618	0	610.00	0	4.1850	0	34.0910	0	27.049	0	604.235	0	27.7	4	8.8	4	-1E+10	1	-1E+10	1	-1E+10	1	-1E+10	1	-1E+10	1	-1E+10	1
4902643	37	C	06/26/2025	04:21	-133.005	43.618	0	629.70	0	4.1390	0	34.1100	0	27.069	0	623.720	0	24.4	4	7.7	4	-1E+10	1	-1E+10	1	-1E+10	1	-1E+10	1	-1E+10	1	-1E+10	1
4902643	37	C	06/26/2025	04:21	-133.005	43.618	0	649.40	0	4.0820	0	34.1240	0	27.086	0	643.202	0	22.7	4	7.2	4	-1E+10	1	-1E+10	1	-1E+10	1	-1E+10	1	-1E+10	1	-1E+10	1
4902643	37	C	06/26/2025	04:21	-133.005	43.618	0	669.50	0	4.0230	0	34.1390	0	27.104	0	663.078	0	20.1	4	6.4	4	-1E+10	1	-1E+10	1	-1E+10	1	-1E+10	1	-1E+10	1	-1E+10	1
4902643	37	C	06/26/2025	04:21	-133.005	43.618	0	689.60	0	3.9920	0	34.1580	0	27.122	0	682.953	0	17.2	4	5.4	4	-1E+10	1	-1E+10	1	-1E+10	1	-1E+10	1	-1E+10	1	-1E+10	1
4902643	37	C	06/26/2025	04:21	-133.005	43.618	0	709.60	0	3.9470	0	34.1790	0	27.144	0	702.726	0	15.1	4	4.8	4	-1E+10	1	-1E+10	1	-1E+10	1	-1E+10	1	-1E+10	1	-1E+10	1
4902643	37	C	06/26/2025	04:21	-133.005	43.618	0	729.70	0	3.8940	0	34.1920	0	27.160	0	722.597	0	13.7	4	4.3	4	-1E+10	1	-1E+10	1	-1E+10	1	-1E+10	1	-1E+10	1	-1E+10	1
4902643	37	C	06/26/2025	04:21	-133.005	43.618	0	749.80	0	3.8570	0	34.2070	0	27.175	0	742.465	0	12.3	4	3.9	4	-1E+10	1	-1E+10	1	-1E+10	1	-1E+10	1	-1E+10	1	-1E+10	1
4902643	37	C	06/26/2025	04:21	-133.005	43.618	0	770.10	0	3.8300	0	34.2210	0	27.189	0	762.530	0	11.1	4	3.5	4	-1E+10	1	-1E+10	1	-1E+10	1	-1E+10	1	-1E+10	1	-1E+10	1
4902643	37	C	06/26/2025	04:21	-133.005	43.618	0	789.30	0	3.7910	0	34.2360	0	27.205	0	781.505	0	10.0	4	3.1	4	-1E+10	1	-1E+10	1	-1E+10	1	-1E+10	1	-1E+10	1	-1E+10	1
4902643	37	C	06/26/2025	04:21	-133.005	43.618	0	808.60	0	3.7540	0	34.2500	0	27.220	0	800.577	0	9.4	4	2.9	4	-1E+10	1	-1E+10	1	-1E+10	1	-1E+10	1	-1E+10	1	-1E+10	1
4902643	37	C	06/26/2025	04:21	-133.005	43.618	0	829.90	0	3.7050	0	34.2590	0	27.233	0	821.624	0	8.7	4	2.7	4	-1E+10	1	-1E+10	1	-1E+10	1	-1E+10	1	-1E+10	1	-1E+10	1
4902643	37	C	06/26/2025	04:21	-133.005	43.618	0	850.10	0	3.6860	0	34.2760	0	27.248	0	841.582	0	7.9	4	2.5	4	-1E+10	1	-1E+10	1	-1E+10	1	-1E+10	1	-1E+10	1	-1E+10	1
4902643	37	C	06/26/2025	04:21	-133.005	43.618	0	870.10	0	3.6470	0	34.2900	0	27.263	0	861.341	0	7.4	4	2.3	4	-1E+10	1	-1E+10	1	-1E+10	1	-1E+10	1	-1E+10	1	-1E+10	1
4902643	37	C	06/26/2025	04:21	-133.005	43.618	0	889.80	0	3.6110	0	34.3030	0	27.277	0	880.801	0	7.0	4	2.2	4	-1E+10	1	-1E+10	1	-1E+10	1	-1E+10	1	-1E+10	1	-1E+10	1
4902643	37	C	06/26/2025	04:21	-133.005	43.618	0	909.80	0	3.5810	0	34.3140	0	27.289	0	900.556	0	6.8	4	2.1	4	-1E+10	1	-1E+10	1	-1E+10	1	-1E+10	1	-1E+10	1	-1E+10	1
4902643	37	C	06/26/2025	04:21	-133.005	43.618	0	930.00	0	3.5520	0	34.3280	0	27.303	0	920.506	0	6.6	4	2.1	4	-1E+10	1	-1E+10	1	-1E+10	1	-1E+10	1	-1E+10	1	-1E+10	1
4902643	37	C	06/26/2025	04:21	-133.005	43.618	0	949.70	0	3.5360	0	34.3410	0	27.315	0	939.961	0	6.5	4	2.0	4	-1E+10	1	-1E+10	1	-1E+10	1	-1E+10	1	-1E+10	1	-1E+10	1
4902643	37	C	06/26/2025	04:21	-133.005	43.618	0	969.40	0	3.5130	0	34.3540	0	27.328	0	959.413	0	6.6	4	2.1	4	-1E+10	1	-1E+10	1	-1E+10	1	-1E+10	1	-1E+10	1	-1E+10	1
4902643	37	C	06/26/2025	04:21	-133.005	43.618	0	989.30	0	3.4800	0	34.3660	0	27.341	0	979.062	0	6.7	4	2.1	4	-1E+10	1	-1E+10	1	-1E+10	1	-1E+10	1	-1E+10	1	-1E+10	1
4902643	37	C	06/26/2025	04:21	-133.005	43.618	0	1009.50	0	3.4390	0	34.3760	0	27.353	0	999.005	0	6.9	4	2.2	4	-1E+10	1	-1E+10	1	-1E+10	1	-1E+10	1	-1E+10	1	-1E+10	1
4902643	37	C	06/26/2025	04:21	-133.005	43.618	0	1029.70	0	3.4030	0	34.3850	0	27.364	0	1018.946	0	7.2	4	2.2	4	-1E+10	1	-1E+10	1	-1E+10	1	-1E+10	1	-1E+10	1	-1E+10	1
4902643	37	C	06/26/2025	04:21	-133.005	43.618	0	1049.80	0	3.3630	0	34.3930	0	27.374	0	1038.786	0	7.4	4	2.3	4	-1E+10	1	-1E+10	1	-1E+10	1	-1E+10	1	-1E+10	1	-1E+10	1
4902643	37	C	06/26/2025	04:21	-133.005	43.618	0	1069.50	0	3.3250	0	34.4010	0	27.384	0	1058.230	0	7.8	4	2.4	4	-1E+10	1	-1E+10	1	-1E+10	1	-1E+10	1	-1E+10	1	-1E+10	1
4902643	37	C	06/26/2025	04:21	-133.005	43.618	0	1089.90	0	3.2830	0	34.4090	0	27.394	0	1078.362	0	8.2	4	2.5	4	-1E+10	1	-1E+10	1	-1E+10	1	-1E+10	1	-1E+10	1	-1E+10	1
4902643	37	C	06/26/2025	04:21	-133.005	43.618	0	1110.70	0	3.2510	0	34.4180	0	27.405	0	1098.888	0	8.7	4	2.7	4	-1E+10	1	-1E+10	1	-1E+10	1	-1E+10	1	-1E+10	1	-1E+10	1
4902643	37	C	06/26/2025	04:21	-133.005	43.618	0	1129.60	0	3.2190	0	34.4230	0	27.412	0	1117.536	0	9.1	4	2.8	4	-1E+10	1	-1E+10	1	-1E+10	1	-1E+10	1	-1E+10	1	-1E+10	1
4902643	37	C	06/26/2025	04:21	-133.005	43.618	0	1149.90	0	3.1760	0	34.4320	0	27.423	0	1137.565	0	9.8	4	3.0	4	-1E+10	1	-1E+10	1	-1E+10	1	-1E+10	1	-1E+10	1	-1E+10	1
4902643	37	C	06/26/2025	04:21	-133.005	43.618	0	1169.90	0	3.1380	0	34.4390	0	27.432	0	1157.295	0	10.2	4	3.2	4	-1E+10	1	-1E+10	1	-1E+10	1	-1E+10	1	-1E+10	1	-1E+10	1
4902643	37	C	06/26/2025	04:21	-133.005	43.618	0	1190.10	0	3.1080	0	34.4440	0	27.439	0	1177.221	0	10.8	4	3.3	4	-1E+10	1	-1E+10	1	-1E+10	1	-1E+10	1	-1E+10	1	-1E+10	1
4902643	37	C	06/26/2025	04:21	-133.005	43.618	0	1210.10	0	3.0590	0	34.4510	0	27.449	0	1196.948	0	11.5	4	3.6	4	-1E+10	1	-1E+10	1	-1E+10	1	-1E+10	1	-1E+10	1	-1E+10	1
4902643	37	C	06/26/2025	04:21	-133.005	43.618	0	1230.10	0	3.0130	0	34.4590	0	27.460	0	1216.672	0	12.3	4	3.8	4	-1E+10	1	-1E+10	1	-1E+10	1	-1E+10	1	-1E+10	1	-1E+10	1
4902643	37	C	06/26/2025	04:21	-133.005	43.618	0	1250.00	0	2.9810	0	34.4640	0	27.467	0	1236.297	0	12.9	4	4.0	4	-1E+10	1	-1E+10	1	-1E+10	1	-1E+10	1	-1E+10	1	-1E+10	1
4902643	37	C	06/26/2025	04:21	-133.005	43.618	0	1269.90	0	2.9480	0	34.4680	0	27.473	0	1255.919	0	13.6	4	4.2	4	-1E+10	1	-1E+10	1	-1E+10	1	-1E+10	1	-1E+10	1	-1E+10	1
4902643	37	C	06/26/2025	04:21	-133.005	43.618	0	1289.60	0	2.9140	0	34.4730	0	27.480	0	1275.343	0	14.3	4	4.4	4	-1E+10	1	-1E+10	1	-1E+10	1	-1E+10	1	-1E+10	1	-1E+10	1
4902643	37	C	06/26/2025	04:21	-133.005	43.618	0	1310.00	0	2.8710	0	34.4790	0	27.489	0	1295.455	0	15.2	4	4.7	4	-1E+10	1	-1E+10	1	-1E+10	1	-1E+10	1	-1E+10	1	-1E+10	1
4902643	37	C	06/26/2025	04:21	-133.005	43.618	0	1330.10	0	2.8370	0	34.4830	0	27.495	0	1315.269	0	15.9	4	4.9	4	-1E+10	1	-1E+10	1	-1E+10	1	-1E+10	1	-1E+10	1	-1E+10	1
4902643	37	C	06/26/2025	04:21	-133.005	43.618	0	1350.10	0	2.7980	0	34.4880	0	27.503	0	1334.982	0	17.0	4	5.2	4	-1E+10	1	-1E+10	1	-1E+10	1	-1E+10	1	-1E+10	1	-1E+10	1
4902643	37	C	06/26/2025	04:21	-133.005	43.618	0	1370.30	0	2.7560	0	34.4940	0	27.511	0	1354.891	0	18.1	4	5.6	4	-1E+10	1	-1E+10	1	-1E+10	1	-1E+10	1	-1E+10	1	-1E+10	1
4902643	37	C	06/26/2025	04:21	-133.005	43.618	0	1390.40	0	2.7200	0	34.4980	0	27.518	0	1374.700	0	19.1	4	5.9	4	-1E+10	1	-1E+10	1	-1E+10	1	-1E+10	1	-1E+10	1	-1E+10	1
4902643	37	C	06/26/2025	04:21	-133.005	43.618	0	1409.80	0	2.6870	0	34.5030	0	27.525	0	1393.817	0	20.1	4	6.2	4	-1E+10	1	-1E+10	1	-1E+10	1	-1E+10	1	-1E+10	1	-1E+10	1
4902643	37	C	06/26/2025	04:21	-133.005	43.618	0	1429.70	0	2.6620	0	34.5060	0	27.529	0	1413.424	0	20.9	4	6.4	4	-1E+10	1	-1E+10	1	-1E+10	1	-1E+10	1	-1E+10	1	-1E+10	1
4902643	37	C	06/26/2025	04:21	-133.005	43.618	0	1449.70	0	2.6310	0	34.5100	0	27.535	0	1433.129	0	22.0	4	6.7	4	-1E+10	1	-1E+10	1	-1E+10	1	-1E+10	1	-1E+10	1	-1E+10	1
4902643	37	C	06/26/2025	04:21	-133.005	43.618	0	1470.30	0	2.5970	0	34.5140	0	27.542	0	1453.423	0	23.0	4	7.0	4	-1E+10	1	-1E+10	1	-1E+10	1	-1E+10	1	-1E+10	1	-1E+10	1
4902643	37	C	06/26/2025	04:21	-133.005	43.618	0	1490.20	0	2.5650	0	34.5170	0	27.547	0	1473.025	0	23.9	4	7.3	4	-1E+10	1	-1E+10	1	-1E+10	1	-1E+10	1	-1E+10	1	-1E+10	1
4902643	37	C	06/26/2025	04:21	-133.005	43.618	0	1510.10	0	2.5320	0	34.5210	0	27.553	0	1492.625	0	24.9	4	7.6	4	-1E+10	1	-1E+10	1	-1E+10	1	-1E+10	1	-1E+10	1	-1E+10	1
4902643	37	C	06/26/2025	04:21	-133.005	43.618	0	1529.70	0	2.5070	0	34.5240	0	27.558	0	1511.928	0	25.9	4	7.9	4	-1E+10	1	-1E+10	1	-1E+10	1	-1E+10	1	-1E+10	1	-1E+10	1
4902643	37	C	06/26/2025	04:21	-133.005	43.618	0	1549.80	0	2.4810	0	34.5280	0	27.563	0	1531.722	0	27.2	4	8.3	4	-1E+10	1	-1E+10	1	-1E+10	1	-1E+10	1	-1E+10	1	-1E+10	1
4902643	37	C	06/26/2025	04:21	-133.005	43.618	0	1569.80	0	2.4450	0	34.5320	0	27.569	0	1551.416	0	28.5	4	8.7	4	-1E+10	1	-1E+10	1	-1E+10	1	-1E+10	1	-1E+10	1	-1E+10	1
4902643	37	C	06/26/2025	04:21	-133.005	43.618	0	1589.80	0	2.4170	0	34.5360	0	27.575	0	1571.107	0	29.9	4	9.1	4	-1E+10	1	-1E+10	1	-1E+10	1	-1E+10	1	-1E+10	1	-1E+10	1
4902643	37	C	06/26/2025	04:21	-133.005	43.618	0	1610.40	0	2.3910	0	34.5390	0	27.580	0	1591.388	0	30.9	4	9.4	4	-1E+10	1	-1E+10	1	-1E+10	1	-1E+10	1	-1E+10	1	-1E+10	1
4902643	37	C	06/26/2025	04:21	-133.005	43.618	0	1630.10	0	2.3660	0	34.5420	0	27.584	0	1610.780	0	31.8	4	9.7	4	-1E+10	1	-1E+10	1	-1E+10	1	-1E+10	1	-1E+10	1	-1E+10	1
4902643	37	C	06/26/2025	04:21	-133.005	43.618	0	1650.10	0	2.3400	0	34.5450	0	27.589	0	1630.466	0	32.9	4	10.0	4	-1E+10	1	-1E+10	1	-1E+10	1	-1E+10	1	-1E+10	1	-1E+10	1
4902643	37	C	06/26/2025	04:21	-133.005	43.618	0	1670.40	0	2.3150	0	34.5480	0	27.593	0	1650.446	0	34.0	4	10.3	4	-1E+10	1	-1E+10	1	-1E+10	1	-1E+10	1	-1E+10	1	-1E+10	1
4902643	37	C	06/26/2025	04:21	-133.005	43.618	0	1690.50	0	2.2880	0	34.5510	0	27.598	0	1670.226	0	35.2	4	10.7	4	-1E+10	1	-1E+10	1	-1E+10	1	-1E+10	1	-1E+10	1	-1E+10	1
4902643	37	C	06/26/2025	04:21	-133.005	43.618	0	1709.90	0	2.2590	0	34.5550	0	27.604	0	1689.316	0	36.6	4	11.1	4	-1E+10	1	-1E+10	1	-1E+10	1	-1E+10	1	-1E+10	1	-1E+10	1
4902643	37	C	06/26/2025	04:21	-133.005	43.618	0	1730.10	0	2.2300	0	34.5580	0	27.609	0	1709.192	0	38.0	4	11.5	4	-1E+10	1	-1E+10	1	-1E+10	1	-1E+10	1	-1E+10	1	-1E+10	1
4902643	37	C	06/26/2025	04:21	-133.005	43.618	0	1750.20	0	2.2060	0	34.5620	0	27.614	0	1728.967	0	39.4	4	11.9	4	-1E+10	1	-1E+10	1	-1E+10	1	-1E+10	1	-1E+10	1	-1E+10	1
4902643	37	C	06/26/2025	04:21	-133.005	43.618	0	1770.10	0	2.1740	0	34.5660	0	27.620	0	1748.544	0	41.1	4	12.4	4	-1E+10	1	-1E+10	1	-1E+10	1	-1E+10	1	-1E+10	1	-1E+10	1
4902643	37	C	06/26/2025	04:21	-133.005	43.618	0	1790.30	0	2.1480	0	34.5690	0	27.624	0	1768.414	0	42.5	4	12.9	4	-1E+10	1	-1E+10	1	-1E+10	1	-1E+10	1	-1E+10	1	-1E+10	1
4902643	37	C	06/26/2025	04:21	-133.005	43.618	0	1809.90	0	2.1280	0	34.5720	0	27.628	0	1787.692	0	43.8	4	13.3	4	-1E+10	1	-1E+10	1	-1E+10	1	-1E+10	1	-1E+10	1	-1E+10	1
4902643	37	C	06/26/2025	04:21	-133.005	43.618	0	1830.10	0	2.1050	0	34.5750	0	27.633	0	1807.558	0	45.1	4	13.6	4	-1E+10	1	-1E+10	1	-1E+10	1	-1E+10	1	-1E+10	1	-1E+10	1
4902643	37	C	06/26/2025	04:21	-133.005	43.618	0	1849.70	0	2.0880	0	34.5780	0	27.637	0	1826.832	0	46.2	4	14.0	4	-1E+10	1	-1E+10	1	-1E+10	1	-1E+10	1	-1E+10	1	-1E+10	1
4902643	37	C	06/26/2025	04:21	-133.005	43.618	0	1869.80	0	2.0700	0	34.5800	0	27.640	0	1846.597	0	47.4	4	14.3	4	-1E+10	1	-1E+10	1	-1E+10	1	-1E+10	1	-1E+10	1	-1E+10	1
4902643	37	C	06/26/2025	04:21	-133.005	43.618	0	1889.70	0	2.0490	0	34.5830	0	27.644	0	1866.162	0	48.7	4	14.7	4	-1E+10	1	-1E+10	1	-1E+10	1	-1E+10	1	-1E+10	1	-1E+10	1
4902643	37	C	06/26/2025	04:21	-133.005	43.618	0	1909.50	0	2.0310	0	34.5850	0	27.647	0	1885.628	0	49.8	4	15.0	4	-1E+10	1	-1E+10	1	-1E+10	1	-1E+10	1	-1E+10	1	-1E+10	1
4902643	37	C	06/26/2025	04:21	-133.005	43.618	0	1929.60	0	2.0180	0	34.5870	0	27.650	0	1905.387	0	50.8	4	15.3	4	-1E+10	1	-1E+10	1	-1E+10	1	-1E+10	1	-1E+10	1	-1E+10	1
4902643	37	C	06/26/2025	04:21	-133.005	43.618	0	1949.60	0	1.9990	0	34.5900	0	27.654	0	1925.046	0	52.1	4	15.7	4	-1E+10	1	-1E+10	1	-1E+10	1	-1E+10	1	-1E+10	1	-1E+10	1
4902643	37	C	06/26/2025	04:21	-133.005	43.618	0	1969.80	0	1.9810	0	34.5930	0	27.658	0	1944.899	0	53.2	4	16.0	4	-1E+10	1	-1E+10	1	-1E+10	1	-1E+10	1	-1E+10	1	-1E+10	1
4902643	37	C	06/26/2025	04:21	-133.005	43.618	0	1990.10	0	1.9680	0	34.5940	0	27.659	0	1964.849	0	54.1	4	16.3	4	-1E+10	1	-1E+10	1	-1E+10	1	-1E+10	1	-1E+10	1	-1E+10	1
4902643	37	C	06/26/2025	04:21	-133.005	43.618	0	2010.10	0	1.9590	0	34.5960	4	27.662	0	1984.502	0	54.8	4	16.5	4	-1E+10	1	-1E+10	1	-1E+10	1	-1E+10	1	-1E+10	1	-1E+10	1
4902643	37	C	06/26/2025	04:21	-133.005	43.618	0	2029.90	0	1.9470	0	34.5980	4	27.665	0	2003.957	0	55.8	4	16.8	4	-1E+10	1	-1E+10	1	-1E+10	1	-1E+10	1	-1E+10	1	-1E+10	1
4902643	37	C	06/26/2025	04:21	-133.005	43.618	0	2049.70	0	1.9360	0	34.5990	4	27.666	0	2023.410	0	56.6	4	17.1	4	-1E+10	1	-1E+10	1	-1E+10	1	-1E+10	1	-1E+10	1	-1E+10	1
4902643	37	C	06/26/2025	04:21	-133.005	43.618	0	2070.40	0	1.9240	0	34.6010	4	27.669	0	2043.745	0	57.7	4	17.4	4	-1E+10	1	-1E+10	1	-1E+10	1	-1E+10	1	-1E+10	1	-1E+10	1
4902643	37	C	06/26/2025	04:21	-133.005	43.618	0	2090.20	0	1.9080	0	34.6040	4	27.673	0	2063.195	0	58.9	4	17.7	4	-1E+10	1	-1E+10	1	-1E+10	1	-1E+10	1	-1E+10	1	-1E+10	1
4902643	37	C	06/26/2025	04:21	-133.005	43.618	0	2109.70	0	1.8950	0	34.6060	4	27.675	0	2082.348	0	59.8	4	18.0	4	-1E+10	1	-1E+10	1	-1E+10	1	-1E+10	1	-1E+10	1	-1E+10	1
4902643	37	C	06/26/2025	04:21	-133.005	43.618	0	2129.70	0	1.8860	0	34.6070	4	27.677	0	2101.990	0	60.6	4	18.2	4	-1E+10	1	-1E+10	1	-1E+10	1	-1E+10	1	-1E+10	1	-1E+10	1
4902643	37	C	06/26/2025	04:21	-133.005	43.618	0	2150.00	0	1.8770	0	34.6090	4	27.679	0	2121.925	0	61.4	4	18.5	4	-1E+10	1	-1E+10	1	-1E+10	1	-1E+10	1	-1E+10	1	-1E+10	1
4902643	37	C	06/26/2025	04:21	-133.005	43.618	0	2170.10	0	1.8670	0	34.6100	4	27.681	0	2141.662	0	62.3	4	18.7	4	-1E+10	1	-1E+10	1	-1E+10	1	-1E+10	1	-1E+10	1	-1E+10	1
4902643	37	C	06/26/2025	04:21	-133.005	43.618	0	2189.70	0	1.8560	0	34.6120	4	27.684	0	2160.906	0	63.2	4	19.0	4	-1E+10	1	-1E+10	1	-1E+10	1	-1E+10	1	-1E+10	1	-1E+10	1
4902643	37	C	06/26/2025	04:21	-133.005	43.618	0	2209.80	0	1.8470	0	34.6130	4	27.685	0	2180.640	0	64.1	4	19.2	4	-1E+10	1	-1E+10	1	-1E+10	1	-1E+10	1	-1E+10	1	-1E+10	1
4902643	37	C	06/26/2025	04:21	-133.005	43.618	0	2230.10	0	1.8380	0	34.6150	4	27.688	0	2200.568	0	64.9	4	19.5	4	-1E+10	1	-1E+10	1	-1E+10	1	-1E+10	1	-1E+10	1	-1E+10	1
4902643	37	C	06/26/2025	04:21	-133.005	43.618	0	2250.50	0	1.8280	0	34.6160	4	27.689	0	2220.592	0	65.8	4	19.7	4	-1E+10	1	-1E+10	1	-1E+10	1	-1E+10	1	-1E+10	1	-1E+10	1
4902643	37	C	06/26/2025	04:21	-133.005	43.618	0	2269.60	0	1.8220	0	34.6170	4	27.691	0	2239.338	0	66.4	4	19.9	4	-1E+10	1	-1E+10	1	-1E+10	1	-1E+10	1	-1E+10	1	-1E+10	1
4902643	37	C	06/26/2025	04:21	-133.005	43.618	0	2289.70	0	1.8140	0	34.6190	4	27.693	0	2259.064	0	67.2	4	20.2	4	-1E+10	1	-1E+10	1	-1E+10	1	-1E+10	1	-1E+10	1	-1E+10	1
4902643	37	C	06/26/2025	04:21	-133.005	43.618	0	2309.90	0	1.8070	0	34.6200	4	27.694	0	2278.886	0	67.9	4	20.4	4	-1E+10	1	-1E+10	1	-1E+10	1	-1E+10	1	-1E+10	1	-1E+10	1
4902643	37	C	06/26/2025	04:21	-133.005	43.618	0	2329.90	0	1.8000	0	34.6210	4	27.696	0	2298.510	0	68.7	4	20.6	4	-1E+10	1	-1E+10	1	-1E+10	1	-1E+10	1	-1E+10	1	-1E+10	1
4902643	37	C	06/26/2025	04:21	-133.005	43.618	0	2349.70	0	1.7940	0	34.6220	4	27.697	0	2317.937	0	69.4	4	20.8	4	-1E+10	1	-1E+10	1	-1E+10	1	-1E+10	1	-1E+10	1	-1E+10	1
4902643	37	C	06/26/2025	04:21	-133.005	43.618	0	2369.50	0	1.7880	0	34.6230	4	27.699	0	2337.361	0	70.0	4	21.0	4	-1E+10	1	-1E+10	1	-1E+10	1	-1E+10	1	-1E+10	1	-1E+10	1
4902643	37	C	06/26/2025	04:21	-133.005	43.618	0	2390.00	0	1.7820	0	34.6240	4	27.700	0	2357.471	0	70.6	4	21.2	4	-1E+10	1	-1E+10	1	-1E+10	1	-1E+10	1	-1E+10	1	-1E+10	1
4902643	37	C	06/26/2025	04:21	-133.005	43.618	0	2410.30	0	1.7760	0	34.6250	4	27.701	0	2377.382	0	71.4	4	21.4	4	-1E+10	1	-1E+10	1	-1E+10	1	-1E+10	1	-1E+10	1	-1E+10	1
4902643	37	C	06/26/2025	04:21	-133.005	43.618	0	2430.20	0	1.7700	0	34.6260	4	27.703	0	2396.899	0	72.1	4	21.6	4	-1E+10	1	-1E+10	1	-1E+10	1	-1E+10	1	-1E+10	1	-1E+10	1
4902643	37	C	06/26/2025	04:21	-133.005	43.618	0	2450.20	0	1.7640	0	34.6270	4	27.704	0	2416.513	0	72.7	4	21.8	4	-1E+10	1	-1E+10	1	-1E+10	1	-1E+10	1	-1E+10	1	-1E+10	1
4902643	37	C	06/26/2025	04:21	-133.005	43.618	0	2470.00	0	1.7590	0	34.6270	4	27.705	0	2435.928	0	73.4	4	22.0	4	-1E+10	1	-1E+10	1	-1E+10	1	-1E+10	1	-1E+10	1	-1E+10	1
4902643	37	C	06/26/2025	04:21	-133.005	43.618	0	2489.60	0	1.7530	0	34.6280	4	27.706	0	2455.146	0	74.0	4	22.2	4	-1E+10	1	-1E+10	1	-1E+10	1	-1E+10	1	-1E+10	1	-1E+10	1
4902643	37	C	06/26/2025	04:21	-133.005	43.618	0	2509.60	0	1.7470	0	34.6290	4	27.707	0	2474.754	0	74.6	4	22.4	4	-1E+10	1	-1E+10	1	-1E+10	1	-1E+10	1	-1E+10	1	-1E+10	1
4902643	37	C	06/26/2025	04:21	-133.005	43.618	0	2529.60	0	1.7440	0	34.6300	4	27.708	0	2494.361	0	75.1	4	22.5	4	-1E+10	1	-1E+10	1	-1E+10	1	-1E+10	1	-1E+10	1	-1E+10	1
4902643	37	C	06/26/2025	04:21	-133.005	43.618	0	2549.70	0	1.7380	0	34.6310	4	27.710	0	2514.063	0	75.9	4	22.8	4	-1E+10	1	-1E+10	1	-1E+10	1	-1E+10	1	-1E+10	1	-1E+10	1
4902643	37	C	06/26/2025	04:21	-133.005	43.618	0	2570.10	0	1.7310	0	34.6320	4	27.711	0	2534.058	0	76.8	4	23.0	4	-1E+10	1	-1E+10	1	-1E+10	1	-1E+10	1	-1E+10	1	-1E+10	1
4902643	37	C	06/26/2025	04:21	-133.005	43.618	0	2590.70	0	1.7210	0	34.6330	4	27.713	0	2554.247	0	77.8	4	23.3	4	-1E+10	1	-1E+10	1	-1E+10	1	-1E+10	1	-1E+10	1	-1E+10	1
4902643	37	C	06/26/2025	04:21	-133.005	43.618	0	2610.00	0	1.7120	0	34.6340	4	27.714	0	2573.160	0	78.6	4	23.5	4	-1E+10	1	-1E+10	1	-1E+10	1	-1E+10	1	-1E+10	1	-1E+10	1
4902643	37	C	06/26/2025	04:21	-133.005	43.618	0	2630.20	0	1.7070	0	34.6350	4	27.716	0	2592.953	0	79.2	4	23.7	4	-1E+10	1	-1E+10	1	-1E+10	1	-1E+10	1	-1E+10	1	-1E+10	1
4902643	37	C	06/26/2025	04:21	-133.005	43.618	0	2650.10	0	1.7000	0	34.6360	4	27.717	0	2612.451	0	80.0	4	24.0	4	-1E+10	1	-1E+10	1	-1E+10	1	-1E+10	1	-1E+10	1	-1E+10	1
4902643	37	C	06/26/2025	04:21	-133.005	43.618	0	2669.90	0	1.6940	0	34.6370	4	27.719	0	2631.849	0	80.7	4	24.2	4	-1E+10	1	-1E+10	1	-1E+10	1	-1E+10	1	-1E+10	1	-1E+10	1
4902643	37	C	06/26/2025	04:21	-133.005	43.618	0	2689.70	0	1.6890	0	34.6380	4	27.720	0	2651.245	0	81.4	4	24.4	4	-1E+10	1	-1E+10	1	-1E+10	1	-1E+10	1	-1E+10	1	-1E+10	1
4902643	37	C	06/26/2025	04:21	-133.005	43.618	0	2709.60	0	1.6830	0	34.6390	4	27.721	0	2670.738	0	82.3	4	24.6	4	-1E+10	1	-1E+10	1	-1E+10	1	-1E+10	1	-1E+10	1	-1E+10	1
4902643	37	C	06/26/2025	04:21	-133.005	43.618	0	2729.80	0	1.6770	0	34.6400	4	27.723	0	2690.522	0	83.0	4	24.8	4	-1E+10	1	-1E+10	1	-1E+10	1	-1E+10	1	-1E+10	1	-1E+10	1
4902643	37	C	06/26/2025	04:21	-133.005	43.618	0	2749.90	0	1.6710	0	34.6400	4	27.723	0	2710.206	0	83.9	4	25.1	4	-1E+10	1	-1E+10	1	-1E+10	1	-1E+10	1	-1E+10	1	-1E+10	1
4902643	37	C	06/26/2025	04:21	-133.005	43.618	0	2770.40	0	1.6660	0	34.6410	4	27.724	0	2730.281	0	84.4	4	25.2	4	-1E+10	1	-1E+10	1	-1E+10	1	-1E+10	1	-1E+10	1	-1E+10	1
4902643	37	C	06/26/2025	04:21	-133.005	43.618	0	2790.10	0	1.6640	0	34.6420	4	27.726	0	2749.571	0	84.9	4	25.4	4	-1E+10	1	-1E+10	1	-1E+10	1	-1E+10	1	-1E+10	1	-1E+10	1
4902643	37	C	06/26/2025	04:21	-133.005	43.618	0	2809.90	0	1.6570	0	34.6430	4	27.727	0	2768.956	0	85.8	4	25.7	4	-1E+10	1	-1E+10	1	-1E+10	1	-1E+10	1	-1E+10	1	-1E+10	1
4902643	37	C	06/26/2025	04:21	-133.005	43.618	0	2829.80	0	1.6510	0	34.6430	4	27.728	0	2788.438	0	86.5	4	25.9	4	-1E+10	1	-1E+10	1	-1E+10	1	-1E+10	1	-1E+10	1	-1E+10	1
4902643	37	C	06/26/2025	04:21	-133.005	43.618	0	2849.80	0	1.6450	0	34.6440	4	27.729	0	2808.016	0	87.1	4	26.0	4	-1E+10	1	-1E+10	1	-1E+10	1	-1E+10	1	-1E+10	1	-1E+10	1
4902643	37	C	06/26/2025	04:21	-133.005	43.618	0	2870.10	0	1.6400	0	34.6450	4	27.730	0	2827.885	0	87.9	4	26.3	4	-1E+10	1	-1E+10	1	-1E+10	1	-1E+10	1	-1E+10	1	-1E+10	1
4902643	37	C	06/26/2025	04:21	-133.005	43.618	0	2889.70	0	1.6370	0	34.6460	4	27.731	0	2847.068	0	88.5	4	26.4	4	-1E+10	1	-1E+10	1	-1E+10	1	-1E+10	1	-1E+10	1	-1E+10	1
4902643	37	C	06/26/2025	04:21	-133.005	43.618	0	2909.90	0	1.6330	0	34.6470	4	27.733	0	2866.836	0	89.2	4	26.7	4	-1E+10	1	-1E+10	1	-1E+10	1	-1E+10	1	-1E+10	1	-1E+10	1
4902643	37	C	06/26/2025	04:21	-133.005	43.618	0	2930.10	0	1.6310	0	34.6470	4	27.733	0	2886.603	0	89.7	4	26.8	4	-1E+10	1	-1E+10	1	-1E+10	1	-1E+10	1	-1E+10	1	-1E+10	1
4902643	37	C	06/26/2025	04:21	-133.005	43.618	0	2950.00	0	1.6270	0	34.6480	4	27.734	0	2906.074	0	90.5	4	27.0	4	-1E+10	1	-1E+10	1	-1E+10	1	-1E+10	1	-1E+10	1	-1E+10	1
4902643	37	C	06/26/2025	04:21	-133.005	43.618	0	2969.90	0	1.6200	0	34.6490	4	27.735	0	2925.543	0	91.4	4	27.3	4	-1E+10	1	-1E+10	1	-1E+10	1	-1E+10	1	-1E+10	1	-1E+10	1
4902643	37	C	06/26/2025	04:21	-133.005	43.618	0	2990.10	0	1.6150	0	34.6500	4	27.737	0	2945.305	0	92.1	4	27.5	4	-1E+10	1	-1E+10	1	-1E+10	1	-1E+10	1	-1E+10	1	-1E+10	1
4902643	37	C	06/26/2025	04:21	-133.005	43.618	0	3010.00	0	1.6110	0	34.6510	4	27.738	0	2964.770	0	92.8	4	27.7	4	-1E+10	1	-1E+10	1	-1E+10	1	-1E+10	1	-1E+10	1	-1E+10	1
4902643	37	C	06/26/2025	04:21	-133.005	43.618	0	3030.20	0	1.6070	0	34.6510	4	27.738	0	2984.528	0	93.3	4	27.9	4	-1E+10	1	-1E+10	1	-1E+10	1	-1E+10	1	-1E+10	1	-1E+10	1
4902643	37	C	06/26/2025	04:21	-133.005	43.618	0	3049.90	0	1.6040	0	34.6520	4	27.740	0	3003.795	0	93.9	4	28.0	4	-1E+10	1	-1E+10	1	-1E+10	1	-1E+10	1	-1E+10	1	-1E+10	1
4902643	37	C	06/26/2025	04:21	-133.005	43.618	0	3069.90	0	1.6000	0	34.6520	4	27.740	0	3023.353	0	94.5	4	28.2	4	-1E+10	1	-1E+10	1	-1E+10	1	-1E+10	1	-1E+10	1	-1E+10	1
4902643	37	C	06/26/2025	04:21	-133.005	43.618	0	3089.80	0	1.5960	0	34.6530	4	27.741	0	3042.812	0	95.1	4	28.4	4	-1E+10	1	-1E+10	1	-1E+10	1	-1E+10	1	-1E+10	1	-1E+10	1
4902643	37	C	06/26/2025	04:21	-133.005	43.618	0	3109.90	0	1.5910	0	34.6540	4	27.742	0	3062.465	0	95.8	4	28.6	4	-1E+10	1	-1E+10	1	-1E+10	1	-1E+10	1	-1E+10	1	-1E+10	1
4902643	37	C	06/26/2025	04:21	-133.005	43.618	0	3129.90	0	1.5870	0	34.6540	4	27.743	0	3082.018	0	96.3	4	28.8	4	-1E+10	1	-1E+10	1	-1E+10	1	-1E+10	1	-1E+10	1	-1E+10	1
4902643	37	C	06/26/2025	04:21	-133.005	43.618	0	3150.00	0	1.5850	0	34.6550	4	27.744	0	3101.667	0	96.9	4	28.9	4	-1E+10	1	-1E+10	1	-1E+10	1	-1E+10	1	-1E+10	1	-1E+10	1
4902643	37	C	06/26/2025	04:21	-133.005	43.618	0	3170.00	0	1.5810	0	34.6560	4	27.745	0	3121.217	0	97.6	4	29.1	4	-1E+10	1	-1E+10	1	-1E+10	1	-1E+10	1	-1E+10	1	-1E+10	1
4902643	37	C	06/26/2025	04:21	-133.005	43.618	0	3189.70	0	1.5770	0	34.6560	4	27.746	0	3140.471	0	98.1	4	29.3	4	-1E+10	1	-1E+10	1	-1E+10	1	-1E+10	1	-1E+10	1	-1E+10	1
4902643	37	C	06/26/2025	04:21	-133.005	43.618	0	3210.10	0	1.5740	0	34.6570	4	27.747	0	3160.408	0	98.6	4	29.4	4	-1E+10	1	-1E+10	1	-1E+10	1	-1E+10	1	-1E+10	1	-1E+10	1
4902643	37	C	06/26/2025	04:21	-133.005	43.618	0	3230.00	0	1.5710	0	34.6570	4	27.747	0	3179.855	0	99.2	4	29.6	4	-1E+10	1	-1E+10	1	-1E+10	1	-1E+10	1	-1E+10	1	-1E+10	1
4902643	37	C	06/26/2025	04:21	-133.005	43.618	0	3250.10	0	1.5690	0	34.6580	4	27.748	0	3199.495	0	99.7	4	29.7	4	-1E+10	1	-1E+10	1	-1E+10	1	-1E+10	1	-1E+10	1	-1E+10	1
4902643	37	C	06/26/2025	04:21	-133.005	43.618	0	3269.70	0	1.5670	0	34.6580	4	27.748	0	3218.645	0	100.3	4	29.9	4	-1E+10	1	-1E+10	1	-1E+10	1	-1E+10	1	-1E+10	1	-1E+10	1
4902643	37	C	06/26/2025	04:21	-133.005	43.618	0	3290.10	0	1.5650	0	34.6590	4	27.750	0	3238.575	0	100.8	4	30.1	4	-1E+10	1	-1E+10	1	-1E+10	1	-1E+10	1	-1E+10	1	-1E+10	1
4902643	37	C	06/26/2025	04:21	-133.005	43.618	0	3310.10	0	1.5630	0	34.6600	4	27.751	0	3258.113	0	101.2	4	30.2	4	-1E+10	1	-1E+10	1	-1E+10	1	-1E+10	1	-1E+10	1	-1E+10	1
4902643	37	C	06/26/2025	04:21	-133.005	43.618	0	3329.90	0	1.5620	0	34.6600	4	27.751	0	3277.453	0	101.5	4	30.3	4	-1E+10	1	-1E+10	1	-1E+10	1	-1E+10	1	-1E+10	1	-1E+10	1
4902643	37	C	06/26/2025	04:21	-133.005	43.618	0	3349.90	0	1.5610	0	34.6610	4	27.752	0	3296.986	0	102.0	4	30.4	4	-1E+10	1	-1E+10	1	-1E+10	1	-1E+10	1	-1E+10	1	-1E+10	1
4902643	37	C	06/26/2025	04:21	-133.005	43.618	0	3370.50	0	1.5590	0	34.6610	4	27.752	0	3317.105	0	102.5	4	30.6	4	-1E+10	1	-1E+10	1	-1E+10	1	-1E+10	1	-1E+10	1	-1E+10	1
4902643	37	C	06/26/2025	04:21	-133.005	43.618	0	3390.10	0	1.5580	0	34.6620	4	27.753	0	3336.244	0	102.8	4	30.7	4	-1E+10	1	-1E+10	1	-1E+10	1	-1E+10	1	-1E+10	1	-1E+10	1
4902643	37	C	06/26/2025	04:21	-133.005	43.618	0	3410.00	0	1.5570	0	34.6620	4	27.753	0	3355.675	0	103.1	4	30.8	4	-1E+10	1	-1E+10	1	-1E+10	1	-1E+10	1	-1E+10	1	-1E+10	1
4902643	37	C	06/26/2025	04:21	-133.005	43.618	0	3430.00	0	1.5570	0	34.6630	4	27.754	0	3375.202	0	103.5	4	30.9	4	-1E+10	1	-1E+10	1	-1E+10	1	-1E+10	1	-1E+10	1	-1E+10	1
4902643	37	C	06/26/2025	04:21	-133.005	43.618	0	3450.20	0	1.5560	0	34.6630	4	27.755	0	3394.923	0	103.9	4	31.0	4	-1E+10	1	-1E+10	1	-1E+10	1	-1E+10	1	-1E+10	1	-1E+10	1
4902643	37	C	06/26/2025	04:21	-133.005	43.618	0	3470.10	0	1.5540	0	34.6640	4	27.756	0	3414.348	0	104.3	4	31.1	4	-1E+10	1	-1E+10	1	-1E+10	1	-1E+10	1	-1E+10	1	-1E+10	1
4902643	37	C	06/26/2025	04:21	-133.005	43.618	0	3490.40	0	1.5540	0	34.6640	4	27.756	0	3434.163	0	104.5	4	31.2	4	-1E+10	1	-1E+10	1	-1E+10	1	-1E+10	1	-1E+10	1	-1E+10	1
4902643	37	C	06/26/2025	04:21	-133.005	43.618	0	3509.90	0	1.5540	0	34.6650	4	27.757	0	3453.195	0	104.8	4	31.3	4	-1E+10	1	-1E+10	1	-1E+10	1	-1E+10	1	-1E+10	1	-1E+10	1
4902643	37	C	06/26/2025	04:21	-133.005	43.618	0	3529.80	0	1.5540	0	34.6650	4	27.757	0	3472.615	0	105.1	4	31.3	4	-1E+10	1	-1E+10	1	-1E+10	1	-1E+10	1	-1E+10	1	-1E+10	1
4902643	37	C	06/26/2025	04:21	-133.005	43.618	0	3549.90	0	1.5540	0	34.6650	4	27.757	0	3492.229	0	105.3	4	31.4	4	-1E+10	1	-1E+10	1	-1E+10	1	-1E+10	1	-1E+10	1	-1E+10	1
4902643	37	C	06/26/2025	04:21	-133.005	43.618	0	3570.10	0	1.5540	0	34.6660	4	27.758	0	3511.939	0	105.5	4	31.5	4	-1E+10	1	-1E+10	1	-1E+10	1	-1E+10	1	-1E+10	1	-1E+10	1
4902643	37	C	06/26/2025	04:21	-133.005	43.618	0	3589.90	0	1.5540	0	34.6660	4	27.758	0	3531.257	0	105.7	4	31.5	4	-1E+10	1	-1E+10	1	-1E+10	1	-1E+10	1	-1E+10	1	-1E+10	1
4902643	37	C	06/26/2025	04:21	-133.005	43.618	0	3609.80	0	1.5530	0	34.6660	4	27.758	0	3550.671	0	105.9	4	31.6	4	-1E+10	1	-1E+10	1	-1E+10	1	-1E+10	1	-1E+10	1	-1E+10	1
4902643	37	C	06/26/2025	04:21	-133.005	43.618	0	3629.70	0	1.5530	0	34.6670	4	27.759	0	3570.083	0	106.0	4	31.6	4	-1E+10	1	-1E+10	1	-1E+10	1	-1E+10	1	-1E+10	1	-1E+10	1
4902643	37	C	06/26/2025	04:21	-133.005	43.618	0	3649.90	0	1.5520	0	34.6670	4	27.759	0	3589.785	0	106.1	4	31.7	4	-1E+10	1	-1E+10	1	-1E+10	1	-1E+10	1	-1E+10	1	-1E+10	1
4902643	37	C	06/26/2025	04:21	-133.005	43.618	0	3662.40	0	1.5530	0	34.6680	4	27.760	0	3601.977	0	106.2	4	31.7	4	-1E+10	1	-1E+10	1	-1E+10	1	-1E+10	1	-1E+10	1	-1E+10	1
4902643	37	C	06/26/2025	04:21	-133.005	43.618	0	3665.50	0	1.5530	0	34.6680	4	27.760	0	3605.000	0	106.2	4	31.7	4	-1E+10	1	-1E+10	1	-1E+10	1	-1E+10	1	-1E+10	1	-1E+10	1
4902643	37	C	06/26/2025	04:21	-133.005	43.618	0	3666.90	0	1.5530	0	34.6680	4	27.760	0	3606.366	0	106.3	4	31.7	4	-1E+10	1	-1E+10	1	-1E+10	1	-1E+10	1	-1E+10	1	-1E+10	1
4902643	37	C	06/26/2025	04:21	-133.005	43.618	0	3667.70	0	1.5530	0	34.6680	4	27.760	0	3607.146	0	106.3	4	31.7	4	-1E+10	1	-1E+10	1	-1E+10	1	-1E+10	1	-1E+10	1	-1E+10	1
4902643	37	C	06/26/2025	04:21	-133.005	43.618	0	3668.60	0	1.5530	0	34.6680	4	27.760	0	3608.024	0	106.3	4	31.7	4	-1E+10	1	-1E+10	1	-1E+10	1	-1E+10	1	-1E+10	1	-1E+10	1
4902643	37	C	06/26/2025	04:21	-133.005	43.618	0	3669.50	0	1.5530	0	34.6680	4	27.760	0	3608.901	0	106.3	4	31.7	4	-1E+10	1	-1E+10	1	-1E+10	1	-1E+10	1	-1E+10	1	-1E+10	1
4902643	37	C	06/26/2025	04:21	-133.005	43.618	0	3670.30	0	1.5530	0	34.6680	4	27.760	0	3609.682	0	106.3	4	31.7	4	-1E+10	1	-1E+10	1	-1E+10	1	-1E+10	1	-1E+10	1	-1E+10	1
4902643	37	C	06/26/2025	04:21	-133.005	43.618	0	3671.20	0	1.5520	0	34.6690	4	27.761	0	3610.559	0	106.3	4	31.7	4	-1E+10	1	-1E+10	1	-1E+10	1	-1E+10	1	-1E+10	1	-1E+10	1
4902643	37	C	06/26/2025	04:21	-133.005	43.618	0	3672.50	0	1.5530	0	34.6680	4	27.760	0	3611.827	0	106.3	4	31.7	4	-1E+10	1	-1E+10	1	-1E+10	1	-1E+10	1	-1E+10	1	-1E+10	1
4902643	37	C	06/26/2025	04:21	-133.005	43.618	0	3673.90	0	1.5520	0	34.6680	4	27.760	0	3613.192	0	106.3	4	31.7	4	-1E+10	1	-1E+10	1	-1E+10	1	-1E+10	1	-1E+10	1	-1E+10	1
4902643	37	C	06/26/2025	04:21	-133.005	43.618	0	3674.80	0	1.5520	0	34.6680	4	27.760	0	3614.070	0	106.3	4	31.7	4	-1E+10	1	-1E+10	1	-1E+10	1	-1E+10	1	-1E+10	1	-1E+10	1
4902643	37	C	06/26/2025	04:21	-133.005	43.618	0	3675.60	0	1.5510	0	34.6690	4	27.761	0	3614.851	0	106.3	4	31.7	4	-1E+10	1	-1E+10	1	-1E+10	1	-1E+10	1	-1E+10	1	-1E+10	1
4902643	37	C	06/26/2025	04:21	-133.005	43.618	0	3676.60	0	1.5510	0	34.6690	4	27.761	0	3615.826	0	106.3	4	31.7	4	-1E+10	1	-1E+10	1	-1E+10	1	-1E+10	1	-1E+10	1	-1E+10	1
4902643	37	C	06/26/2025	04:21	-133.005	43.618	0	3677.30	0	1.5510	0	34.6680	4	27.761	0	3616.508	0	106.3	4	31.7	4	-1E+10	1	-1E+10	1	-1E+10	1	-1E+10	1	-1E+10	1	-1E+10	1
4902643	37	C	06/26/2025	04:21	-133.005	43.618	0	3678.30	0	1.5510	0	34.6690	4	27.761	0	3617.484	0	106.3	4	31.7	4	-1E+10	1	-1E+10	1	-1E+10	1	-1E+10	1	-1E+10	1	-1E+10	1
4902643	37	C	06/26/2025	04:21	-133.005	43.618	0	3679.50	0	1.5500	0	34.6680	4	27.761	0	3618.654	0	106.3	4	31.7	4	-1E+10	1	-1E+10	1	-1E+10	1	-1E+10	1	-1E+10	1	-1E+10	1
4902643	37	C	06/26/2025	04:21	-133.005	43.618	0	3681.00	0	1.5500	0	34.6690	4	27.761	0	3620.117	0	106.3	4	31.7	4	-1E+10	1	-1E+10	1	-1E+10	1	-1E+10	1	-1E+10	1	-1E+10	1
4902643	37	C	06/26/2025	04:21	-133.005	43.618	0	3681.80	0	1.5500	0	34.6690	4	27.761	0	3620.897	0	106.2	4	31.7	4	-1E+10	1	-1E+10	1	-1E+10	1	-1E+10	1	-1E+10	1	-1E+10	1
4902643	37	C	06/26/2025	04:21	-133.005	43.618	0	3682.70	0	1.5490	0	34.6690	4	27.761	0	3621.774	0	106.2	4	31.7	4	-1E+10	1	-1E+10	1	-1E+10	1	-1E+10	1	-1E+10	1	-1E+10	1
4902643	37	C	06/26/2025	04:21	-133.005	43.618	0	3683.60	0	1.5490	0	34.6690	4	27.761	0	3622.652	0	106.2	4	31.7	4	-1E+10	1	-1E+10	1	-1E+10	1	-1E+10	1	-1E+10	1	-1E+10	1
4902643	37	C	06/26/2025	04:21	-133.005	43.618	0	3684.50	0	1.5480	0	34.6700	4	27.762	0	3623.530	0	106.2	4	31.7	4	-1E+10	1	-1E+10	1	-1E+10	1	-1E+10	1	-1E+10	1	-1E+10	1
4902643	37	C	06/26/2025	04:21	-133.005	43.618	0	3685.40	0	1.5480	0	34.6690	4	27.762	0	3624.407	0	106.2	4	31.7	4	-1E+10	1	-1E+10	1	-1E+10	1	-1E+10	1	-1E+10	1	-1E+10	1
4902643	37	C	06/26/2025	04:21	-133.005	43.618	0	3686.30	0	1.5480	0	34.6690	4	27.762	0	3625.285	0	106.2	4	31.7	4	-1E+10	1	-1E+10	1	-1E+10	1	-1E+10	1	-1E+10	1	-1E+10	1
4902643	37	C	06/26/2025	04:21	-133.005	43.618	0	3687.60	0	1.5480	0	34.6690	4	27.762	0	3626.553	0	106.2	4	31.7	4	-1E+10	1	-1E+10	1	-1E+10	1	-1E+10	1	-1E+10	1	-1E+10	1
4902643	37	C	06/26/2025	04:21	-133.005	43.618	0	3689.50	0	1.5480	0	34.6700	4	27.762	0	3628.406	0	106.3	4	31.7	4	-1E+10	1	-1E+10	1	-1E+10	1	-1E+10	1	-1E+10	1	-1E+10	1
4902643	37	C	06/26/2025	04:21	-133.005	43.618	0	3690.50	0	1.5480	0	34.6690	4	27.762	0	3629.381	0	106.2	4	31.7	4	-1E+10	1	-1E+10	1	-1E+10	1	-1E+10	1	-1E+10	1	-1E+10	1
4902643	37	C	06/26/2025	04:21	-133.005	43.618	0	3691.60	0	1.5490	0	34.6690	4	27.762	0	3630.454	0	106.2	4	31.7	4	-1E+10	1	-1E+10	1	-1E+10	1	-1E+10	1	-1E+10	1	-1E+10	1
4902643	37	C	06/26/2025	04:21	-133.005	43.618	0	3692.40	0	1.5490	0	34.6700	4	27.762	0	3631.234	0	106.2	4	31.7	4	-1E+10	1	-1E+10	1	-1E+10	1	-1E+10	1	-1E+10	1	-1E+10	1
4902643	37	C	06/26/2025	04:21	-133.005	43.618	0	3693.60	0	1.5490	0	34.6690	4	27.762	0	3632.404	0	106.2	4	31.7	4	-1E+10	1	-1E+10	1	-1E+10	1	-1E+10	1	-1E+10	1	-1E+10	1
4902643	37	C	06/26/2025	04:21	-133.005	43.618	0	3694.70	0	1.5490	0	34.6700	4	27.762	0	3633.477	0	106.2	4	31.7	4	-1E+10	1	-1E+10	1	-1E+10	1	-1E+10	1	-1E+10	1	-1E+10	1
4902643	37	C	06/26/2025	04:21	-133.005	43.618	0	3695.40	0	1.5490	0	34.6690	4	27.762	0	3634.159	0	106.2	4	31.7	4	-1E+10	1	-1E+10	1	-1E+10	1	-1E+10	1	-1E+10	1	-1E+10	1
4902643	37	C	06/26/2025	04:21	-133.005	43.618	0	3696.50	0	1.5490	0	34.6690	4	27.762	0	3635.232	0	106.2	4	31.7	4	-1E+10	1	-1E+10	1	-1E+10	1	-1E+10	1	-1E+10	1	-1E+10	1
4902643	37	C	06/26/2025	04:21	-133.005	43.618	0	3697.70	0	1.5490	0	34.6700	4	27.762	0	3636.402	0	106.2	4	31.7	4	-1E+10	1	-1E+10	1	-1E+10	1	-1E+10	1	-1E+10	1	-1E+10	1
4902643	37	C	06/26/2025	04:21	-133.005	43.618	0	3698.40	0	1.5500	0	34.6690	4	27.762	0	3637.085	0	106.2	4	31.7	4	-1E+10	1	-1E+10	1	-1E+10	1	-1E+10	1	-1E+10	1	-1E+10	1
4902643	37	C	06/26/2025	04:21	-133.005	43.618	0	3699.50	0	1.5490	0	34.6690	4	27.762	0	3638.157	0	106.2	4	31.7	4	-1E+10	1	-1E+10	1	-1E+10	1	-1E+10	1	-1E+10	1	-1E+10	1
4902643	37	C	06/26/2025	04:21	-133.005	43.618	0	3700.70	0	1.5490	0	34.6700	4	27.762	0	3639.327	0	106.2	4	31.7	4	-1E+10	1	-1E+10	1	-1E+10	1	-1E+10	1	-1E+10	1	-1E+10	1
4902643	37	C	06/26/2025	04:21	-133.005	43.618	0	3701.50	0	1.5500	0	34.6690	4	27.762	0	3640.108	0	106.2	4	31.7	4	-1E+10	1	-1E+10	1	-1E+10	1	-1E+10	1	-1E+10	1	-1E+10	1
4902643	37	C	06/26/2025	04:21	-133.005	43.618	0	3702.50	0	1.5500	0	34.6690	4	27.762	0	3641.083	0	106.2	4	31.7	4	-1E+10	1	-1E+10	1	-1E+10	1	-1E+10	1	-1E+10	1	-1E+10	1
4902643	37	C	06/26/2025	04:21	-133.005	43.618	0	3703.70	0	1.5500	0	34.6700	4	27.762	0	3642.253	0	106.2	4	31.7	4	-1E+10	1	-1E+10	1	-1E+10	1	-1E+10	1	-1E+10	1	-1E+10	1
4902643	37	C	06/26/2025	04:21	-133.005	43.618	0	3704.40	0	1.5500	0	34.6690	4	27.762	0	3642.935	0	106.2	4	31.7	4	-1E+10	1	-1E+10	1	-1E+10	1	-1E+10	1	-1E+10	1	-1E+10	1
4902643	37	C	06/26/2025	04:21	-133.005	43.618	0	3705.50	0	1.5500	0	34.6690	4	27.762	0	3644.008	0	106.2	4	31.7	4	-1E+10	1	-1E+10	1	-1E+10	1	-1E+10	1	-1E+10	1	-1E+10	1
4902643	37	C	06/26/2025	04:21	-133.005	43.618	0	3706.50	0	1.5500	0	34.6690	4	27.762	0	3644.983	0	106.2	4	31.7	4	-1E+10	1	-1E+10	1	-1E+10	1	-1E+10	1	-1E+10	1	-1E+10	1
4902643	37	C	06/26/2025	04:21	-133.005	43.618	0	3707.60	0	1.5510	0	34.6690	4	27.762	0	3646.056	0	106.2	4	31.7	4	-1E+10	1	-1E+10	1	-1E+10	1	-1E+10	1	-1E+10	1	-1E+10	1
4902643	37	C	06/26/2025	04:21	-133.005	43.618	0	3708.60	0	1.5510	0	34.6690	4	27.762	0	3647.031	0	106.2	4	31.7	4	-1E+10	1	-1E+10	1	-1E+10	1	-1E+10	1	-1E+10	1	-1E+10	1
4902643	37	C	06/26/2025	04:21	-133.005	43.618	0	3709.50	0	1.5500	0	34.6690	4	27.762	0	3647.908	0	106.2	4	31.7	4	-1E+10	1	-1E+10	1	-1E+10	1	-1E+10	1	-1E+10	1	-1E+10	1
4902643	37	C	06/26/2025	04:21	-133.005	43.618	0	3710.50	0	1.5510	0	34.6690	4	27.762	0	3648.884	0	106.1	4	31.7	4	-1E+10	1	-1E+10	1	-1E+10	1	-1E+10	1	-1E+10	1	-1E+10	1
4902643	37	C	06/26/2025	04:21	-133.005	43.618	0	3711.90	0	1.5510	0	34.6700	4	27.762	0	3650.249	0	106.2	4	31.7	4	-1E+10	1	-1E+10	1	-1E+10	1	-1E+10	1	-1E+10	1	-1E+10	1
4902643	37	C	06/26/2025	04:21	-133.005	43.618	0	3712.60	0	1.5510	0	34.6700	4	27.762	0	3650.931	0	106.2	4	31.7	4	-1E+10	1	-1E+10	1	-1E+10	1	-1E+10	1	-1E+10	1	-1E+10	1
4902643	37	C	06/26/2025	04:21	-133.005	43.618	0																										
4902643	38	C	07/06/2025	02:28	-132.943	43.634	0	1.90	0	16.5060	0	32.5290	0	23.734	0	1.885	0	235.4	4	96.2	4	-1E+10	1	-1E+10	1	-1E+10	1	-1E+10	1	-1E+10	1	-1E+10	1
4902643	38	C	07/06/2025	02:28	-132.943	43.634	0	2.00	0	16.5070	0	32.5260	0	23.731	0	1.984	0	235.4	4	96.2	4	-1E+10	1	-1E+10	1	-1E+10	1	-1E+10	1	-1E+10	1	-1E+10	1
4902643	38	C	07/06/2025	02:28	-132.943	43.634	0	2.10	0	16.5050	0	32.5270	0	23.733	0	2.083	0	235.5	4	96.2	4	-1E+10	1	-1E+10	1	-1E+10	1	-1E+10	1	-1E+10	1	-1E+10	1
4902643	38	C	07/06/2025	02:28	-132.943	43.634	0	2.20	0	16.5020	0	32.5295	0	23.735	0	2.182	0	235.4	4	96.2	4	-1E+10	1	-1E+10	1	-1E+10	1	-1E+10	1	-1E+10	1	-1E+10	1
4902643	38	C	07/06/2025	02:28	-132.943	43.634	0	2.30	0	16.5030	0	32.5295	0	23.735	0	2.282	0	235.3	4	96.1	4	-1E+10	1	-1E+10	1	-1E+10	1	-1E+10	1	-1E+10	1	-1E+10	1
4902643	38	C	07/06/2025	02:28	-132.943	43.634	0	2.50	0	16.5023	0	32.5273	0	23.733	0	2.480	0	-1e10	1	-1e10	1	-1E+10	1	-1E+10	1	-1E+10	1	-1E+10	1	-1E+10	1	-1E+10	1
4902643	38	C	07/06/2025	02:28	-132.943	43.634	0	2.70	0	16.5010	0	32.5170	0	23.726	0	2.678	0	235.3	4	96.1	4	-1E+10	1	-1E+10	1	-1E+10	1	-1E+10	1	-1E+10	1	-1E+10	1
4902643	38	C	07/06/2025	02:28	-132.943	43.634	0	3.70	0	16.5040	0	32.5220	0	23.729	0	3.670	0	235.4	4	96.2	4	-1E+10	1	-1E+10	1	-1E+10	1	-1E+10	1	-1E+10	1	-1E+10	1
4902643	38	C	07/06/2025	02:28	-132.943	43.634	0	4.70	0	16.5020	0	32.5270	0	23.733	0	4.662	0	235.5	4	96.2	4	-1E+10	1	-1E+10	1	-1E+10	1	-1E+10	1	-1E+10	1	-1E+10	1
4902643	38	C	07/06/2025	02:28	-132.943	43.634	0	5.60	0	16.5000	0	32.5270	0	23.734	0	5.555	0	235.5	4	96.2	4	-1E+10	1	-1E+10	1	-1E+10	1	-1E+10	1	-1E+10	1	-1E+10	1
4902643	38	C	07/06/2025	02:28	-132.943	43.634	0	6.70	0	16.4940	0	32.5250	0	23.734	0	6.646	0	235.7	4	96.3	4	-1E+10	1	-1E+10	1	-1E+10	1	-1E+10	1	-1E+10	1	-1E+10	1
4902643	38	C	07/06/2025	02:28	-132.943	43.634	0	7.50	0	16.4950	0	32.5210	0	23.730	0	7.440	0	236.1	4	96.4	4	-1E+10	1	-1E+10	1	-1E+10	1	-1E+10	1	-1E+10	1	-1E+10	1
4902643	38	C	07/06/2025	02:28	-132.943	43.634	0	8.60	0	16.4150	0	32.5310	0	23.756	0	8.531	0	236.3	4	96.4	4	-1E+10	1	-1E+10	1	-1E+10	1	-1E+10	1	-1E+10	1	-1E+10	1
4902643	38	C	07/06/2025	02:28	-132.943	43.634	0	9.50	0	16.3920	0	32.5140	0	23.749	0	9.424	0	236.8	4	96.5	4	-1E+10	1	-1E+10	1	-1E+10	1	-1E+10	1	-1E+10	1	-1E+10	1
4902643	38	C	07/06/2025	02:28	-132.943	43.634	0	14.80	0	14.9740	0	32.4950	0	24.048	0	14.681	0	243.7	4	96.6	4	-1E+10	1	-1E+10	1	-1E+10	1	-1E+10	1	-1E+10	1	-1E+10	1
4902643	38	C	07/06/2025	02:28	-132.943	43.634	0	24.50	0	14.2280	0	32.4860	0	24.199	0	24.303	0	248.5	4	97.1	4	-1E+10	1	-1E+10	1	-1E+10	1	-1E+10	1	-1E+10	1	-1E+10	1
4902643	38	C	07/06/2025	02:28	-132.943	43.634	0	34.50	0	13.1770	0	32.5100	0	24.431	0	34.221	0	256.3	4	98.0	4	-1E+10	1	-1E+10	1	-1E+10	1	-1E+10	1	-1E+10	1	-1E+10	1
4902643	38	C	07/06/2025	02:28	-132.943	43.634	0	44.30	0	12.0400	0	32.5170	0	24.655	0	43.941	0	261.9	4	97.8	4	-1E+10	1	-1E+10	1	-1E+10	1	-1E+10	1	-1E+10	1	-1E+10	1
4902643	38	C	07/06/2025	02:28	-132.943	43.634	0	54.60	0	11.5140	0	32.5260	0	24.759	0	54.156	0	258.7	4	95.6	4	-1E+10	1	-1E+10	1	-1E+10	1	-1E+10	1	-1E+10	1	-1E+10	1
4902643	38	C	07/06/2025	02:28	-132.943	43.634	0	64.60	0	10.9560	0	32.5590	0	24.885	0	64.074	0	255.1	4	93.2	4	-1E+10	1	-1E+10	1	-1E+10	1	-1E+10	1	-1E+10	1	-1E+10	1
4902643	38	C	07/06/2025	02:28	-132.943	43.634	0	74.50	0	10.3290	0	32.5890	0	25.016	0	73.891	0	252.5	4	91.0	4	-1E+10	1	-1E+10	1	-1E+10	1	-1E+10	1	-1E+10	1	-1E+10	1
4902643	38	C	07/06/2025	02:28	-132.943	43.634	0	84.70	0	10.0250	0	32.6180	0	25.090	0	84.006	0	248.1	4	88.9	4	-1E+10	1	-1E+10	1	-1E+10	1	-1E+10	1	-1E+10	1	-1E+10	1
4902643	38	C	07/06/2025	02:28	-132.943	43.634	0	95.10	0	9.9420	0	32.6430	0	25.124	0	94.318	0	241.3	4	86.3	4	-1E+10	1	-1E+10	1	-1E+10	1	-1E+10	1	-1E+10	1	-1E+10	1
4902643	38	C	07/06/2025	02:28	-132.943	43.634	0	105.10	0	9.8270	0	32.6900	0	25.180	0	104.233	0	230.6	4	82.3	4	-1E+10	1	-1E+10	1	-1E+10	1	-1E+10	1	-1E+10	1	-1E+10	1
4902643	38	C	07/06/2025	02:28	-132.943	43.634	0	115.10	0	9.4920	0	32.9480	0	25.436	0	114.148	0	220.1	4	78.1	4	-1E+10	1	-1E+10	1	-1E+10	1	-1E+10	1	-1E+10	1	-1E+10	1
4902643	38	C	07/06/2025	02:28	-132.943	43.634	0	125.20	0	9.3610	0	33.0990	0	25.575	0	124.162	0	215.5	4	76.4	4	-1E+10	1	-1E+10	1	-1E+10	1	-1E+10	1	-1E+10	1	-1E+10	1
4902643	38	C	07/06/2025	02:28	-132.943	43.634	0	134.50	0	9.2970	0	33.1780	0	25.647	0	133.382	0	209.7	4	74.2	4	-1E+10	1	-1E+10	1	-1E+10	1	-1E+10	1	-1E+10	1	-1E+10	1
4902643	38	C	07/06/2025	02:28	-132.943	43.634	0	145.20	0	9.1000	0	33.4310	0	25.877	0	143.989	0	200.4	4	70.8	4	-1E+10	1	-1E+10	1	-1E+10	1	-1E+10	1	-1E+10	1	-1E+10	1
4902643	38	C	07/06/2025	02:28	-132.943	43.634	0	154.70	0	8.8440	0	33.6050	0	26.053	0	153.406	0	195.8	4	68.8	4	-1E+10	1	-1E+10	1	-1E+10	1	-1E+10	1	-1E+10	1	-1E+10	1
4902643	38	C	07/06/2025	02:28	-132.943	43.634	0	165.10	0	8.6760	0	33.6810	0	26.139	0	163.715	0	191.8	4	67.2	4	-1E+10	1	-1E+10	1	-1E+10	1	-1E+10	1	-1E+10	1	-1E+10	1
4902643	38	C	07/06/2025	02:28	-132.943	43.634	0	174.80	0	8.4560	0	33.7480	0	26.225	0	173.330	0	187.8	4	65.5	4	-1E+10	1	-1E+10	1	-1E+10	1	-1E+10	1	-1E+10	1	-1E+10	1
4902643	38	C	07/06/2025	02:28	-132.943	43.634	0	184.90	0	8.2710	0	33.7840	0	26.282	0	183.340	0	184.2	4	64.0	4	-1E+10	1	-1E+10	1	-1E+10	1	-1E+10	1	-1E+10	1	-1E+10	1
4902643	38	C	07/06/2025	02:28	-132.943	43.634	0	194.60	0	8.1010	0	33.8120	0	26.329	0	192.954	0	181.2	4	62.7	4	-1E+10	1	-1E+10	1	-1E+10	1	-1E+10	1	-1E+10	1	-1E+10	1
4902643	38	C	07/06/2025	02:28	-132.943	43.634	0	209.60	0	7.8860	0	33.8380	0	26.381	0	207.819	0	175.8	4	60.6	4	-1E+10	1	-1E+10	1	-1E+10	1	-1E+10	1	-1E+10	1	-1E+10	1
4902643	38	C	07/06/2025	02:28	-132.943	43.634	0	229.70	0	7.5330	0	33.8540	0	26.445	0	227.737	0	166.2	4	56.8	4	-1E+10	1	-1E+10	1	-1E+10	1	-1E+10	1	-1E+10	1	-1E+10	1
4902643	38	C	07/06/2025	02:28	-132.943	43.634	0	250.10	0	7.1390	0	33.8550	0	26.501	0	247.951	0	155.4	4	52.7	4	-1E+10	1	-1E+10	1	-1E+10	1	-1E+10	1	-1E+10	1	-1E+10	1
4902643	38	C	07/06/2025	02:28	-132.943	43.634	0	270.20	0	6.7400	0	33.8500	0	26.552	0	267.865	0	143.9	4	48.4	4	-1E+10	1	-1E+10	1	-1E+10	1	-1E+10	1	-1E+10	1	-1E+10	1
4902643	38	C	07/06/2025	02:28	-132.943	43.634	0	289.30	0	6.3770	0	33.8480	0	26.598	0	286.787	0	130.8	4	43.6	4	-1E+10	1	-1E+10	1	-1E+10	1	-1E+10	1	-1E+10	1	-1E+10	1
4902643	38	C	07/06/2025	02:28	-132.943	43.634	0	309.60	0	6.0800	0	33.8490	0	26.637	0	306.896	0	119.2	4	39.4	4	-1E+10	1	-1E+10	1	-1E+10	1	-1E+10	1	-1E+10	1	-1E+10	1
4902643	38	C	07/06/2025	02:28	-132.943	43.634	0	329.90	0	5.8640	0	33.8540	0	26.668	0	327.002	0	109.4	4	36.0	4	-1E+10	1	-1E+10	1	-1E+10	1	-1E+10	1	-1E+10	1	-1E+10	1
4902643	38	C	07/06/2025	02:28	-132.943	43.634	0	349.90	0	5.6720	0	33.8620	0	26.698	0	346.810	0	99.3	4	32.5	4	-1E+10	1	-1E+10	1	-1E+10	1	-1E+10	1	-1E+10	1	-1E+10	1
4902643	38	C	07/06/2025	02:28	-132.943	43.634	0	370.20	0	5.4610	0	33.8780	0	26.736	0	366.913	0	86.8	4	28.3	4	-1E+10	1	-1E+10	1	-1E+10	1	-1E+10	1	-1E+10	1	-1E+10	1
4902643	38	C	07/06/2025	02:28	-132.943	43.634	0	390.00	0	5.2280	0	33.8940	0	26.776	0	386.518	0	77.9	4	25.3	4	-1E+10	1	-1E+10	1	-1E+10	1	-1E+10	1	-1E+10	1	-1E+10	1
4902643	38	C	07/06/2025	02:28	-132.943	43.634	0	410.00	0	5.0760	0	33.9130	0	26.809	0	406.320	0	70.4	4	22.8	4	-1E+10	1	-1E+10	1	-1E+10	1	-1E+10	1	-1E+10	1	-1E+10	1
4902643	38	C	07/06/2025	02:28	-132.943	43.634	0	430.60	0	4.9350	0	33.9320	0	26.840	0	426.714	0	64.1	4	20.7	4	-1E+10	1	-1E+10	1	-1E+10	1	-1E+10	1	-1E+10	1	-1E+10	1
4902643	38	C	07/06/2025	02:28	-132.943	43.634	0	449.70	0	4.8100	0	33.9490	0	26.867	0	445.621	0	60.3	4	19.4	4	-1E+10	1	-1E+10	1	-1E+10	1	-1E+10	1	-1E+10	1	-1E+10	1
4902643	38	C	07/06/2025	02:28	-132.943	43.634	0	469.80	0	4.6540	0	33.9620	0	26.895	0	465.517	0	56.3	4	18.0	4	-1E+10	1	-1E+10	1	-1E+10	1	-1E+10	1	-1E+10	1	-1E+10	1
4902643	38	C	07/06/2025	02:28	-132.943	43.634	0	489.60	0	4.5600	0	33.9820	0	26.921	0	485.113	0	50.3	4	16.1	4	-1E+10	1	-1E+10	1	-1E+10	1	-1E+10	1	-1E+10	1	-1E+10	1
4902643	38	C	07/06/2025	02:28	-132.943	43.634	0	509.60	0	4.4360	0	34.0060	0	26.954	0	504.905	0	44.9	4	14.3	4	-1E+10	1	-1E+10	1	-1E+10	1	-1E+10	1	-1E+10	1	-1E+10	1
4902643	38	C	07/06/2025	02:28	-132.943	43.634	0	530.30	0	4.3750	0	34.0240	0	26.975	0	525.388	0	40.7	4	13.0	4	-1E+10	1	-1E+10	1	-1E+10	1	-1E+10	1	-1E+10	1	-1E+10	1
4902643	38	C	07/06/2025	02:28	-132.943	43.634	0	550.10	0	4.2940	0	34.0440	0	26.999	0	544.979	0	36.5	4	11.6	4	-1E+10	1	-1E+10	1	-1E+10	1	-1E+10	1	-1E+10	1	-1E+10	1
4902643	38	C	07/06/2025	02:28	-132.943	43.634	0	569.90	0	4.2470	0	34.0640	0	27.020	0	564.568	0	32.3	4	10.2	4	-1E+10	1	-1E+10	1	-1E+10	1	-1E+10	1	-1E+10	1	-1E+10	1
4902643	38	C	07/06/2025	02:28	-132.943	43.634	0	589.70	0	4.1840	0	34.0830	0	27.042	0	584.155	0	28.7	4	9.1	4	-1E+10	1	-1E+10	1	-1E+10	1	-1E+10	1	-1E+10	1	-1E+10	1
4902643	38	C	07/06/2025	02:28	-132.943	43.634	0	609.50	0	4.1450	0	34.1040	0	27.063	0	603.740	0	25.0	4	7.9	4	-1E+10	1	-1E+10	1	-1E+10	1	-1E+10	1	-1E+10	1	-1E+10	1
4902643	38	C	07/06/2025	02:28	-132.943	43.634	0	629.50	0	4.0850	0	34.1220	0	27.084	0	623.521	0	22.8	4	7.2	4	-1E+10	1	-1E+10	1	-1E+10	1	-1E+10	1	-1E+10	1	-1E+10	1
4902643	38	C	07/06/2025	02:28	-132.943	43.634	0	649.40	0	4.0350	0	34.1380	0	27.102	0	643.201	0	20.2	4	6.4	4	-1E+10	1	-1E+10	1	-1E+10	1	-1E+10	1	-1E+10	1	-1E+10	1
4902643	38	C	07/06/2025	02:28	-132.943	43.634	0	668.90	0	3.9890	0	34.1540	0	27.119	0	662.484	0	17.8	4	5.6	4	-1E+10	1	-1E+10	1	-1E+10	1	-1E+10	1	-1E+10	1	-1E+10	1
4902643	38	C	07/06/2025	02:28	-132.943	43.634	0	689.70	0	3.9590	0	34.1750	0	27.139	0	683.051	0	14.9	4	4.7	4	-1E+10	1	-1E+10	1	-1E+10	1	-1E+10	1	-1E+10	1	-1E+10	1
4902643	38	C	07/06/2025	02:28	-132.943	43.634	0	709.50	0	3.9480	0	34.1980	0	27.159	0	702.626	0	12.8	4	4.0	4	-1E+10	1	-1E+10	1	-1E+10	1	-1E+10	1	-1E+10	1	-1E+10	1
4902643	38	C	07/06/2025	02:28	-132.943	43.634	0	729.40	0	3.8640	0	34.2100	0	27.177	0	722.299	0	11.9	4	3.7	4	-1E+10	1	-1E+10	1	-1E+10	1	-1E+10	1	-1E+10	1	-1E+10	1
4902643	38	C	07/06/2025	02:28	-132.943	43.634	0	750.30	0	3.8620	0	34.2280	0	27.192	0	742.959	0	10.6	4	3.3	4	-1E+10	1	-1E+10	1	-1E+10	1	-1E+10	1	-1E+10	1	-1E+10	1
4902643	38	C	07/06/2025	02:28	-132.943	43.634	0	769.50	0	3.7980	0	34.2330	0	27.202	0	761.936	0	10.4	4	3.3	4	-1E+10	1	-1E+10	1	-1E+10	1	-1E+10	1	-1E+10	1	-1E+10	1
4902643	38	C	07/06/2025	02:28	-132.943	43.634	0	789.50	0	3.7680	0	34.2440	0	27.214	0	781.702	0	9.5	4	3.0	4	-1E+10	1	-1E+10	1	-1E+10	1	-1E+10	1	-1E+10	1	-1E+10	1
4902643	38	C	07/06/2025	02:28	-132.943	43.634	0	809.60	0	3.7690	0	34.2580	0	27.225	0	801.564	0	8.5	4	2.7	4	-1E+10	1	-1E+10	1	-1E+10	1	-1E+10	1	-1E+10	1	-1E+10	1
4902643	38	C	07/06/2025	02:28	-132.943	43.634	0	829.70	0	3.7410	0	34.2740	0	27.241	0	821.426	0	7.8	4	2.4	4	-1E+10	1	-1E+10	1	-1E+10	1	-1E+10	1	-1E+10	1	-1E+10	1
4902643	38	C	07/06/2025	02:28	-132.943	43.634	0	849.90	0	3.7610	0	34.2970	0	27.257	0	841.383	0	6.8	4	2.1	4	-1E+10	1	-1E+10	1	-1E+10	1	-1E+10	1	-1E+10	1	-1E+10	1
4902643	38	C	07/06/2025	02:28	-132.943	43.634	0	869.80	0	3.7340	0	34.3130	0	27.273	0	861.043	0	6.6	4	2.1	4	-1E+10	1	-1E+10	1	-1E+10	1	-1E+10	1	-1E+10	1	-1E+10	1
4902643	38	C	07/06/2025	02:28	-132.943	43.634	0	889.70	0	3.6870	0	34.3230	0	27.286	0	880.701	0	6.5	4	2.0	4	-1E+10	1	-1E+10	1	-1E+10	1	-1E+10	1	-1E+10	1	-1E+10	1
4902643	38	C	07/06/2025	02:28	-132.943	43.634	0	909.70	0	3.6760	0	34.3400	0	27.300	0	900.456	0	6.4	4	2.0	4	-1E+10	1	-1E+10	1	-1E+10	1	-1E+10	1	-1E+10	1	-1E+10	1
4902643	38	C	07/06/2025	02:28	-132.943	43.634	0	929.60	0	3.6110	0	34.3480	0	27.313	0	920.110	0	6.4	4	2.0	4	-1E+10	1	-1E+10	1	-1E+10	1	-1E+10	1	-1E+10	1	-1E+10	1
4902643	38	C	07/06/2025	02:28	-132.943	43.634	0	949.70	0	3.5450	0	34.3550	0	27.325	0	939.959	0	6.5	4	2.0	4	-1E+10	1	-1E+10	1	-1E+10	1	-1E+10	1	-1E+10	1	-1E+10	1
4902643	38	C	07/06/2025	02:28	-132.943	43.634	0	969.60	0	3.5230	0	34.3630	0	27.334	0	959.610	0	6.6	4	2.1	4	-1E+10	1	-1E+10	1	-1E+10	1	-1E+10	1	-1E+10	1	-1E+10	1
4902643	38	C	07/06/2025	02:28	-132.943	43.634	0	990.30	0	3.4790	0	34.3720	0	27.346	0	980.048	0	6.8	4	2.1	4	-1E+10	1	-1E+10	1	-1E+10	1	-1E+10	1	-1E+10	1	-1E+10	1
4902643	38	C	07/06/2025	02:28	-132.943	43.634	0	1009.70	0	3.4350	0	34.3820	0	27.358	0	999.201	0	7.0	4	2.2	4	-1E+10	1	-1E+10	1	-1E+10	1	-1E+10	1	-1E+10	1	-1E+10	1
4902643	38	C	07/06/2025	02:28	-132.943	43.634	0	1029.60	0	3.4070	0	34.3920	0	27.369	0	1018.846	0	7.3	4	2.3	4	-1E+10	1	-1E+10	1	-1E+10	1	-1E+10	1	-1E+10	1	-1E+10	1
4902643	38	C	07/06/2025	02:28	-132.943	43.634	0	1049.40	0	3.3750	0	34.3990	0	27.377	0	1038.390	0	7.6	4	2.4	4	-1E+10	1	-1E+10	1	-1E+10	1	-1E+10	1	-1E+10	1	-1E+10	1
4902643	38	C	07/06/2025	02:28	-132.943	43.634	0	1070.20	0	3.3280	0	34.4090	0	27.390	0	1058.919	0	8.1	4	2.5	4	-1E+10	1	-1E+10	1	-1E+10	1	-1E+10	1	-1E+10	1	-1E+10	1
4902643	38	C	07/06/2025	02:28	-132.943	43.634	0	1089.70	0	3.2920	0	34.4160	0	27.399	0	1078.163	0	8.5	4	2.7	4	-1E+10	1	-1E+10	1	-1E+10	1	-1E+10	1	-1E+10	1	-1E+10	1
4902643	38	C	07/06/2025	02:28	-132.943	43.634	0	1109.60	0	3.2530	0	34.4230	0	27.408	0	1097.801	0	9.1	4	2.8	4	-1E+10	1	-1E+10	1	-1E+10	1	-1E+10	1	-1E+10	1	-1E+10	1
4902643	38	C	07/06/2025	02:28	-132.943	43.634	0	1129.70	0	3.2010	0	34.4290	0	27.418	0	1117.633	0	9.4	4	2.9	4	-1E+10	1	-1E+10	1	-1E+10	1	-1E+10	1	-1E+10	1	-1E+10	1
4902643	38	C	07/06/2025	02:28	-132.943	43.634	0	1149.70	0	3.1600	0	34.4340	0	27.426	0	1137.366	0	9.9	4	3.1	4	-1E+10	1	-1E+10	1	-1E+10	1	-1E+10	1	-1E+10	1	-1E+10	1
4902643	38	C	07/06/2025	02:28	-132.943	43.634	0	1169.60	0	3.1280	0	34.4410	0	27.435	0	1156.998	0	10.5	4	3.2	4	-1E+10	1	-1E+10	1	-1E+10	1	-1E+10	1	-1E+10	1	-1E+10	1
4902643	38	C	07/06/2025	02:28	-132.943	43.634	0	1189.50	0	3.0910	0	34.4470	0	27.443	0	1176.627	0	11.0	4	3.4	4	-1E+10	1	-1E+10	1	-1E+10	1	-1E+10	1	-1E+10	1	-1E+10	1
4902643	38	C	07/06/2025	02:28	-132.943	43.634	0	1209.70	0	3.0550	0	34.4530	0	27.451	0	1196.551	0	11.6	4	3.6	4	-1E+10	1	-1E+10	1	-1E+10	1	-1E+10	1	-1E+10	1	-1E+10	1
4902643	38	C	07/06/2025	02:28	-132.943	43.634	0	1229.50	0	3.0200	0	34.4580	0	27.458	0	1216.079	0	12.2	4	3.8	4	-1E+10	1	-1E+10	1	-1E+10	1	-1E+10	1	-1E+10	1	-1E+10	1
4902643	38	C	07/06/2025	02:28	-132.943	43.634	0	1249.60	0	2.9850	0	34.4620	0	27.465	0	1235.901	0	12.9	4	4.0	4	-1E+10	1	-1E+10	1	-1E+10	1	-1E+10	1	-1E+10	1	-1E+10	1
4902643	38	C	07/06/2025	02:28	-132.943	43.634	0	1270.50	0	2.9470	0	34.4680	0	27.473	0	1256.509	0	13.8	4	4.3	4	-1E+10	1	-1E+10	1	-1E+10	1	-1E+10	1	-1E+10	1	-1E+10	1
4902643	38	C	07/06/2025	02:28	-132.943	43.634	0	1289.50	0	2.9080	0	34.4740	0	27.482	0	1275.242	0	14.5	4	4.5	4	-1E+10	1	-1E+10	1	-1E+10	1	-1E+10	1	-1E+10	1	-1E+10	1
4902643	38	C	07/06/2025	02:28	-132.943	43.634	0	1309.40	0	2.8660	0	34.4790	0	27.489	0	1294.861	0	15.5	4	4.8	4	-1E+10	1	-1E+10	1	-1E+10	1	-1E+10	1	-1E+10	1	-1E+10	1
4902643	38	C	07/06/2025	02:28	-132.943	43.634	0	1329.50	0	2.8270	0	34.4850	0	27.498	0	1314.675	0	16.5	4	5.1	4	-1E+10	1	-1E+10	1	-1E+10	1	-1E+10	1	-1E+10	1	-1E+10	1
4902643	38	C	07/06/2025	02:28	-132.943	43.634	0	1349.60	0	2.7890	0	34.4900	0	27.505	0	1334.488	0	17.7	4	5.4	4	-1E+10	1	-1E+10	1	-1E+10	1	-1E+10	1	-1E+10	1	-1E+10	1
4902643	38	C	07/06/2025	02:28	-132.943	43.634	0	1369.40	0	2.7430	0	34.4960	0	27.514	0	1354.002	0	18.9	4	5.8	4	-1E+10	1	-1E+10	1	-1E+10	1	-1E+10	1	-1E+10	1	-1E+10	1
4902643	38	C	07/06/2025	02:28	-132.943	43.634	0	1389.40	0	2.7110	0	34.5000	0	27.520	0	1373.712	0	19.8	4	6.1	4	-1E+10	1	-1E+10	1	-1E+10	1	-1E+10	1	-1E+10	1	-1E+10	1
4902643	38	C	07/06/2025	02:28	-132.943	43.634	0	1409.40	0	2.6810	0	34.5040	0	27.526	0	1393.421	0	20.8	4	6.4	4	-1E+10	1	-1E+10	1	-1E+10	1	-1E+10	1	-1E+10	1	-1E+10	1
4902643	38	C	07/06/2025	02:28	-132.943	43.634	0	1429.30	0	2.6480	0	34.5080	0	27.532	0	1413.028	0	21.9	4	6.7	4	-1E+10	1	-1E+10	1	-1E+10	1	-1E+10	1	-1E+10	1	-1E+10	1
4902643	38	C	07/06/2025	02:28	-132.943	43.634	0	1449.50	0	2.6030	0	34.5130	0	27.540	0	1432.930	0	23.3	4	7.1	4	-1E+10	1	-1E+10	1	-1E+10	1	-1E+10	1	-1E+10	1	-1E+10	1
4902643	38	C	07/06/2025	02:28	-132.943	43.634	0	1470.50	0	2.5590	0	34.5180	0	27.548	0	1453.618	0	24.7	4	7.6	4	-1E+10	1	-1E+10	1	-1E+10	1	-1E+10	1	-1E+10	1	-1E+10	1
4902643	38	C	07/06/2025	02:28	-132.943	43.634	0	1489.90	0	2.5190	0	34.5230	0	27.556	0	1472.727	0	25.9	4	7.9	4	-1E+10	1	-1E+10	1	-1E+10	1	-1E+10	1	-1E+10	1	-1E+10	1
4902643	38	C	07/06/2025	02:28	-132.943	43.634	0	1509.80	0	2.4880	0	34.5260	0	27.561	0	1492.328	0	27.2	4	8.3	4	-1E+10	1	-1E+10	1	-1E+10	1	-1E+10	1	-1E+10	1	-1E+10	1
4902643	38	C	07/06/2025	02:28	-132.943	43.634	0	1529.70	0	2.4520	0	34.5310	0	27.568	0	1511.926	0	28.3	4	8.6	4	-1E+10	1	-1E+10	1	-1E+10	1	-1E+10	1	-1E+10	1	-1E+10	1
4902643	38	C	07/06/2025	02:28	-132.943	43.634	0	1548.80	0	2.4170	0	34.5330	0	27.572	0	1530.735	0	29.3	4	8.9	4	-1E+10	1	-1E+10	1	-1E+10	1	-1E+10	1	-1E+10	1	-1E+10	1
4902643	38	C	07/06/2025	02:28	-132.943	43.634	0	1569.70	0	2.4010	0	34.5380	0	27.578	0	1551.315	0	30.4	4	9.3	4	-1E+10	1	-1E+10	1	-1E+10	1	-1E+10	1	-1E+10	1	-1E+10	1
4902643	38	C	07/06/2025	02:28	-132.943	43.634	0	1589.50	0	2.3750	0	34.5410	0	27.582	0	1570.810	0	31.5	4	9.6	4	-1E+10	1	-1E+10	1	-1E+10	1	-1E+10	1	-1E+10	1	-1E+10	1
4902643	38	C	07/06/2025	02:28	-132.943	43.634	0	1609.40	0	2.3430	0	34.5440	0	27.588	0	1590.401	0	32.8	4	10.0	4	-1E+10	1	-1E+10	1	-1E+10	1	-1E+10	1	-1E+10	1	-1E+10	1
4902643	38	C	07/06/2025	02:28	-132.943	43.634	0	1630.10	0	2.3170	0	34.5470	0	27.592	0	1610.778	0	33.8	4	10.3	4	-1E+10	1	-1E+10	1	-1E+10	1	-1E+10	1	-1E+10	1	-1E+10	1
4902643	38	C	07/06/2025	02:28	-132.943	43.634	0	1649.60	0	2.2910	0	34.5510	0	27.598	0	1629.972	0	35.0	4	10.6	4	-1E+10	1	-1E+10	1	-1E+10	1	-1E+10	1	-1E+10	1	-1E+10	1
4902643	38	C	07/06/2025	02:28	-132.943	43.634	0	1669.90	0	2.2630	0	34.5540	0	27.602	0	1649.951	0	36.4	4	11.0	4	-1E+10	1	-1E+10	1	-1E+10	1	-1E+10	1	-1E+10	1	-1E+10	1
4902643	38	C	07/06/2025	02:28	-132.943	43.634	0	1689.80	0	2.2360	0	34.5570	0	27.607	0	1669.535	0	37.7	4	11.4	4	-1E+10	1	-1E+10	1	-1E+10	1	-1E+10	1	-1E+10	1	-1E+10	1
4902643	38	C	07/06/2025	02:28	-132.943	43.634	0	1709.70	0	2.2100	0	34.5610	0	27.612	0	1689.117	0	39.0	4	11.8	4	-1E+10	1	-1E+10	1	-1E+10	1	-1E+10	1	-1E+10	1	-1E+10	1
4902643	38	C	07/06/2025	02:28	-132.943	43.634	0	1729.60	0	2.1910	0	34.5640	0	27.616	0	1708.698	0	40.1	4	12.2	4	-1E+10	1	-1E+10	1	-1E+10	1	-1E+10	1	-1E+10	1	-1E+10	1
4902643	38	C	07/06/2025	02:28	-132.943	43.634	0	1749.50	0	2.1690	0	34.5660	0	27.620	0	1728.276	0	41.5	4	12.6	4	-1E+10	1	-1E+10	1	-1E+10	1	-1E+10	1	-1E+10	1	-1E+10	1
4902643	38	C	07/06/2025	02:28	-132.943	43.634	0	1769.80	0	2.1460	0	34.5690	0	27.624	0	1748.246	0	42.6	4	12.9	4	-1E+10	1	-1E+10	1	-1E+10	1	-1E+10	1	-1E+10	1	-1E+10	1
4902643	38	C	07/06/2025	02:28	-132.943	43.634	0	1789.80	0	2.1280	0	34.5720	0	27.628	0	1767.920	0	43.8	4	13.3	4	-1E+10	1	-1E+10	1	-1E+10	1	-1E+10	1	-1E+10	1	-1E+10	1
4902643	38	C	07/06/2025	02:28	-132.943	43.634	0	1810.40	0	2.1090	0	34.5750	0	27.632	0	1788.181	0	45.1	4	13.6	4	-1E+10	1	-1E+10	1	-1E+10	1	-1E+10	1	-1E+10	1	-1E+10	1
4902643	38	C	07/06/2025	02:28	-132.943	43.634	0	1829.60	0	2.0890	0	34.5780	0	27.636	0	1807.064	0	46.4	4	14.0	4	-1E+10	1	-1E+10	1	-1E+10	1	-1E+10	1	-1E+10	1	-1E+10	1
4902643	38	C	07/06/2025	02:28	-132.943	43.634	0	1849.60	0	2.0690	0	34.5800	0	27.640	0	1826.731	0	47.6	4	14.4	4	-1E+10	1	-1E+10	1	-1E+10	1	-1E+10	1	-1E+10	1	-1E+10	1
4902643	38	C	07/06/2025	02:28	-132.943	43.634	0	1869.90	0	2.0500	0	34.5830	0	27.644	0	1846.692	0	48.8	4	14.7	4	-1E+10	1	-1E+10	1	-1E+10	1	-1E+10	1	-1E+10	1	-1E+10	1
4902643	38	C	07/06/2025	02:28	-132.943	43.634	0	1889.90	0	2.0340	0	34.5850	0	27.647	0	1866.356	0	49.9	4	15.0	4	-1E+10	1	-1E+10	1	-1E+10	1	-1E+10	1	-1E+10	1	-1E+10	1
4902643	38	C	07/06/2025	02:28	-132.943	43.634	0	1909.90	0	2.0160	0	34.5880	0	27.650	0	1886.019	0	51.0	4	15.4	4	-1E+10	1	-1E+10	1	-1E+10	1	-1E+10	1	-1E+10	1	-1E+10	1
4902643	38	C	07/06/2025	02:28	-132.943	43.634	0	1929.90	0	2.0000	0	34.5900	0	27.653	0	1905.679	0	52.1	4	15.7	4	-1E+10	1	-1E+10	1	-1E+10	1	-1E+10	1	-1E+10	1	-1E+10	1
4902643	38	C	07/06/2025	02:28	-132.943	43.634	0	1949.80	0	1.9830	0	34.5930	0	27.657	0	1925.240	0	53.3	4	16.1	4	-1E+10	1	-1E+10	1	-1E+10	1	-1E+10	1	-1E+10	1	-1E+10	1
4902643	38	C	07/06/2025	02:28	-132.943	43.634	0	1969.90	0	1.9720	0	34.5940	0	27.659	0	1944.995	0	54.0	4	16.3	4	-1E+10	1	-1E+10	1	-1E+10	1	-1E+10	1	-1E+10	1	-1E+10	1
4902643	38	C	07/06/2025	02:28	-132.943	43.634	0	1989.70	0	1.9610	0	34.5960	0	27.662	0	1964.453	0	54.8	4	16.5	4	-1E+10	1	-1E+10	1	-1E+10	1	-1E+10	1	-1E+10	1	-1E+10	1
4902643	38	C	07/06/2025	02:28	-132.943	43.634	0	2009.60	0	1.9530	0	34.5970	4	27.663	0	1984.008	0	55.7	4	16.8	4	-1E+10	1	-1E+10	1	-1E+10	1	-1E+10	1	-1E+10	1	-1E+10	1
4902643	38	C	07/06/2025	02:28	-132.943	43.634	0	2029.60	0	1.9390	0	34.5990	4	27.666	0	2003.659	0	56.7	4	17.1	4	-1E+10	1	-1E+10	1	-1E+10	1	-1E+10	1	-1E+10	1	-1E+10	1
4902643	38	C	07/06/2025	02:28	-132.943	43.634	0	2049.60	0	1.9270	0	34.6010	4	27.669	0	2023.309	0	57.6	4	17.4	4	-1E+10	1	-1E+10	1	-1E+10	1	-1E+10	1	-1E+10	1	-1E+10	1
4902643	38	C	07/06/2025	02:28	-132.943	43.634	0	2068.80	0	1.9150	0	34.6030	4	27.671	0	2042.171	0	58.6	4	17.6	4	-1E+10	1	-1E+10	1	-1E+10	1	-1E+10	1	-1E+10	1	-1E+10	1
4902643	38	C	07/06/2025	02:28	-132.943	43.634	0	2089.90	0	1.9030	0	34.6050	4	27.674	0	2062.897	0	59.6	4	17.9	4	-1E+10	1	-1E+10	1	-1E+10	1	-1E+10	1	-1E+10	1	-1E+10	1
4902643	38	C	07/06/2025	02:28	-132.943	43.634	0	2109.90	0	1.8910	0	34.6070	4	27.676	0	2082.541	0	60.4	4	18.2	4	-1E+10	1	-1E+10	1	-1E+10	1	-1E+10	1	-1E+10	1	-1E+10	1
4902643	38	C	07/06/2025	02:28	-132.943	43.634	0	2129.80	0	1.8830	0	34.6080	4	27.678	0	2102.086	0	61.1	4	18.4	4	-1E+10	1	-1E+10	1	-1E+10	1	-1E+10	1	-1E+10	1	-1E+10	1
4902643	38	C	07/06/2025	02:28	-132.943	43.634	0	2149.90	0	1.8760	0	34.6090	4	27.679	0	2121.824	0	61.7	4	18.6	4	-1E+10	1	-1E+10	1	-1E+10	1	-1E+10	1	-1E+10	1	-1E+10	1
4902643	38	C	07/06/2025	02:28	-132.943	43.634	0	2170.00	0	1.8690	0	34.6110	4	27.682	0	2141.561	0	62.4	4	18.7	4	-1E+10	1	-1E+10	1	-1E+10	1	-1E+10	1	-1E+10	1	-1E+10	1
4902643	38	C	07/06/2025	02:28	-132.943	43.634	0	2189.90	0	1.8620	0	34.6120	4	27.683	0	2161.100	0	63.1	4	19.0	4	-1E+10	1	-1E+10	1	-1E+10	1	-1E+10	1	-1E+10	1	-1E+10	1
4902643	38	C	07/06/2025	02:28	-132.943	43.634	0	2209.60	0	1.8530	0	34.6130	4	27.685	0	2180.440	0	63.7	4	19.2	4	-1E+10	1	-1E+10	1	-1E+10	1	-1E+10	1	-1E+10	1	-1E+10	1
4902643	38	C	07/06/2025	02:28	-132.943	43.634	0	2228.90	0	1.8470	0	34.6140	4	27.686	0	2199.386	0	64.5	4	19.4	4	-1E+10	1	-1E+10	1	-1E+10	1	-1E+10	1	-1E+10	1	-1E+10	1
4902643	38	C	07/06/2025	02:28	-132.943	43.634	0	2249.80	0	1.8360	0	34.6160	4	27.689	0	2219.901	0	65.5	4	19.7	4	-1E+10	1	-1E+10	1	-1E+10	1	-1E+10	1	-1E+10	1	-1E+10	1
4902643	38	C	07/06/2025	02:28	-132.943	43.634	0	2270.00	0	1.8250	0	34.6170	4	27.690	0	2239.727	0	66.2	4	19.9	4	-1E+10	1	-1E+10	1	-1E+10	1	-1E+10	1	-1E+10	1	-1E+10	1
4902643	38	C	07/06/2025	02:28	-132.943	43.634	0	2289.80	0	1.8210	0	34.6180	4	27.692	0	2259.159	0	66.6	4	20.0	4	-1E+10	1	-1E+10	1	-1E+10	1	-1E+10	1	-1E+10	1	-1E+10	1
4902643	38	C	07/06/2025	02:28	-132.943	43.634	0	2310.10	0	1.8170	0	34.6180	4	27.692	0	2279.079	0	67.1	4	20.2	4	-1E+10	1	-1E+10	1	-1E+10	1	-1E+10	1	-1E+10	1	-1E+10	1
4902643	38	C	07/06/2025	02:28	-132.943	43.634	0	2329.60	0	1.8110	0	34.6190	4	27.693	0	2298.213	0	67.8	4	20.3	4	-1E+10	1	-1E+10	1	-1E+10	1	-1E+10	1	-1E+10	1	-1E+10	1
4902643	38	C	07/06/2025	02:28	-132.943	43.634	0	2349.70	0	1.8040	0	34.6210	4	27.696	0	2317.933	0	68.5	4	20.6	4	-1E+10	1	-1E+10	1	-1E+10	1	-1E+10	1	-1E+10	1	-1E+10	1
4902643	38	C	07/06/2025	02:28	-132.943	43.634	0	2369.40	0	1.7970	0	34.6220	4	27.697	0	2337.260	0	69.3	4	20.8	4	-1E+10	1	-1E+10	1	-1E+10	1	-1E+10	1	-1E+10	1	-1E+10	1
4902643	38	C	07/06/2025	02:28	-132.943	43.634	0	2390.30	0	1.7890	0	34.6230	4	27.699	0	2357.762	0	70.0	4	21.0	4	-1E+10	1	-1E+10	1	-1E+10	1	-1E+10	1	-1E+10	1	-1E+10	1
4902643	38	C	07/06/2025	02:28	-132.943	43.634	0	2410.50	0	1.7830	0	34.6240	4	27.700	0	2377.575	0	70.6	4	21.2	4	-1E+10	1	-1E+10	1	-1E+10	1	-1E+10	1	-1E+10	1	-1E+10	1
4902643	38	C	07/06/2025	02:28	-132.943	43.634	0	2430.60	0	1.7770	0	34.6250	4	27.701	0	2397.288	0	71.3	4	21.4	4	-1E+10	1	-1E+10	1	-1E+10	1	-1E+10	1	-1E+10	1	-1E+10	1
4902643	38	C	07/06/2025	02:28	-132.943	43.634	0	2450.20	0	1.7730	0	34.6260	4	27.703	0	2416.509	0	71.8	4	21.5	4	-1E+10	1	-1E+10	1	-1E+10	1	-1E+10	1	-1E+10	1	-1E+10	1
4902643	38	C	07/06/2025	02:28	-132.943	43.634	0	2470.10	0	1.7680	0	34.6260	4	27.703	0	2436.023	0	72.4	4	21.7	4	-1E+10	1	-1E+10	1	-1E+10	1	-1E+10	1	-1E+10	1	-1E+10	1
4902643	38	C	07/06/2025	02:28	-132.943	43.634	0	2490.10	0	1.7630	0	34.6270	4	27.704	0	2455.633	0	73.1	4	21.9	4	-1E+10	1	-1E+10	1	-1E+10	1	-1E+10	1	-1E+10	1	-1E+10	1
4902643	38	C	07/06/2025	02:28	-132.943	43.634	0	2510.20	0	1.7550	0	34.6280	4	27.706	0	2475.339	0	73.9	4	22.1	4	-1E+10	1	-1E+10	1	-1E+10	1	-1E+10	1	-1E+10	1	-1E+10	1
4902643	38	C	07/06/2025	02:28	-132.943	43.634	0	2530.20	0	1.7500	0	34.6290	4	27.707	0	2494.945	0	74.6	4	22.3	4	-1E+10	1	-1E+10	1	-1E+10	1	-1E+10	1	-1E+10	1	-1E+10	1
4902643	38	C	07/06/2025	02:28	-132.943	43.634	0	2550.30	0	1.7430	0	34.6300	4	27.709	0	2514.648	0	75.4	4	22.6	4	-1E+10	1	-1E+10	1	-1E+10	1	-1E+10	1	-1E+10	1	-1E+10	1
4902643	38	C	07/06/2025	02:28	-132.943	43.634	0	2570.00	0	1.7350	0	34.6310	4	27.710	0	2533.956	0	76.3	4	22.8	4	-1E+10	1	-1E+10	1	-1E+10	1	-1E+10	1	-1E+10	1	-1E+10	1
4902643	38	C	07/06/2025	02:28	-132.943	43.634	0	2590.20	0	1.7270	0	34.6320	4	27.712	0	2553.753	0	77.1	4	23.1	4	-1E+10	1	-1E+10	1	-1E+10	1	-1E+10	1	-1E+10	1	-1E+10	1
4902643	38	C	07/06/2025	02:28	-132.943	43.634	0	2610.00	0	1.7190	0	34.6340	4	27.714	0	2573.156	0	78.1	4	23.4	4	-1E+10	1	-1E+10	1	-1E+10	1	-1E+10	1	-1E+10	1	-1E+10	1
4902643	38	C	07/06/2025	02:28	-132.943	43.634	0	2629.60	0	1.7090	0	34.6350	4	27.716	0	2592.362	0	79.1	4	23.7	4	-1E+10	1	-1E+10	1	-1E+10	1	-1E+10	1	-1E+10	1	-1E+10	1
4902643	38	C	07/06/2025	02:28	-132.943	43.634	0	2650.10	0	1.7010	0	34.6360	4	27.717	0	2612.447	0	79.8	4	23.9	4	-1E+10	1	-1E+10	1	-1E+10	1	-1E+10	1	-1E+10	1	-1E+10	1
4902643	38	C	07/06/2025	02:28	-132.943	43.634	0	2670.10	0	1.6950	0	34.6370	4	27.719	0	2632.041	0	80.7	4	24.1	4	-1E+10	1	-1E+10	1	-1E+10	1	-1E+10	1	-1E+10	1	-1E+10	1
4902643	38	C	07/06/2025	02:28	-132.943	43.634	0	2689.80	0	1.6880	0	34.6380	4	27.720	0	2651.339	0	81.4	4	24.4	4	-1E+10	1	-1E+10	1	-1E+10	1	-1E+10	1	-1E+10	1	-1E+10	1
4902643	38	C	07/06/2025	02:28	-132.943	43.634	0	2709.70	0	1.6820	0	34.6390	4	27.721	0	2670.832	0	82.2	4	24.6	4	-1E+10	1	-1E+10	1	-1E+10	1	-1E+10	1	-1E+10	1	-1E+10	1
4902643	38	C	07/06/2025	02:28	-132.943	43.634	0	2730.00	0	1.6750	0	34.6400	4	27.723	0	2690.714	0	83.2	4	24.9	4	-1E+10	1	-1E+10	1	-1E+10	1	-1E+10	1	-1E+10	1	-1E+10	1
4902643	38	C	07/06/2025	02:28	-132.943	43.634	0	2750.00	0	1.6670	0	34.6410	4	27.724	0	2710.301	0	84.3	4	25.2	4	-1E+10	1	-1E+10	1	-1E+10	1	-1E+10	1	-1E+10	1	-1E+10	1
4902643	38	C	07/06/2025	02:28	-132.943	43.634	0	2770.00	0	1.6610	0	34.6420	4	27.726	0	2729.885	0	85.0	4	25.4	4	-1E+10	1	-1E+10	1	-1E+10	1	-1E+10	1	-1E+10	1	-1E+10	1
4902643	38	C	07/06/2025	02:28	-132.943	43.634	0	2790.00	0	1.6560	0	34.6430	4	27.727	0	2749.469	0	85.8	4	25.7	4	-1E+10	1	-1E+10	1	-1E+10	1	-1E+10	1	-1E+10	1	-1E+10	1
4902643	38	C	07/06/2025	02:28	-132.943	43.634	0	2810.00	0	1.6500	0	34.6440	4	27.728	0	2769.050	0	86.6	4	25.9	4	-1E+10	1	-1E+10	1	-1E+10	1	-1E+10	1	-1E+10	1	-1E+10	1
4902643	38	C	07/06/2025	02:28	-132.943	43.634	0	2829.70	0	1.6450	0	34.6450	4	27.730	0	2788.336	0	87.3	4	26.1	4	-1E+10	1	-1E+10	1	-1E+10	1	-1E+10	1	-1E+10	1	-1E+10	1
4902643	38	C	07/06/2025	02:28	-132.943	43.634	0	2849.70	0	1.6390	0	34.6450	4	27.730	0	2807.914	0	88.1	4	26.3	4	-1E+10	1	-1E+10	1	-1E+10	1	-1E+10	1	-1E+10	1	-1E+10	1
4902643	38	C	07/06/2025	02:28	-132.943	43.634	0	2870.00	0	1.6340	0	34.6460	4	27.731	0	2827.783	0	88.9	4	26.6	4	-1E+10	1	-1E+10	1	-1E+10	1	-1E+10	1	-1E+10	1	-1E+10	1
4902643	38	C	07/06/2025	02:28	-132.943	43.634	0	2889.60	0	1.6270	0	34.6470	4	27.733	0	2846.966	0	89.8	4	26.8	4	-1E+10	1	-1E+10	1	-1E+10	1	-1E+10	1	-1E+10	1	-1E+10	1
4902643	38	C	07/06/2025	02:28	-132.943	43.634	0	2909.60	0	1.6210	0	34.6480	4	27.734	0	2866.539	0	90.5	4	27.0	4	-1E+10	1	-1E+10	1	-1E+10	1	-1E+10	1	-1E+10	1	-1E+10	1
4902643	38	C	07/06/2025	02:28	-132.943	43.634	0	2929.90	0	1.6180	0	34.6490	4	27.735	0	2886.403	0	91.1	4	27.2	4	-1E+10	1	-1E+10	1	-1E+10	1	-1E+10	1	-1E+10	1	-1E+10	1
4902643	38	C	07/06/2025	02:28	-132.943	43.634	0	2950.10	0	1.6150	0	34.6490	4	27.736	0	2906.168	0	91.6	4	27.4	4	-1E+10	1	-1E+10	1	-1E+10	1	-1E+10	1	-1E+10	1	-1E+10	1
4902643	38	C	07/06/2025	02:28	-132.943	43.634	0	2969.70	0	1.6130	0	34.6500	4	27.737	0	2925.344	0	92.1	4	27.5	4	-1E+10	1	-1E+10	1	-1E+10	1	-1E+10	1	-1E+10	1	-1E+10	1
4902643	38	C	07/06/2025	02:28	-132.943	43.634	0	2989.60	0	1.6080	0	34.6510	4	27.738	0	2944.811	0	92.9	4	27.7	4	-1E+10	1	-1E+10	1	-1E+10	1	-1E+10	1	-1E+10	1	-1E+10	1
4902643	38	C	07/06/2025	02:28	-132.943	43.634	0	3009.70	0	1.6020	0	34.6510	4	27.739	0	2964.473	0	93.6	4	27.9	4	-1E+10	1	-1E+10	1	-1E+10	1	-1E+10	1	-1E+10	1	-1E+10	1
4902643	38	C	07/06/2025	02:28	-132.943	43.634	0	3030.10	0	1.6000	0	34.6520	4	27.740	0	2984.426	0	94.0	4	28.1	4	-1E+10	1	-1E+10	1	-1E+10	1	-1E+10	1	-1E+10	1	-1E+10	1
4902643	38	C	07/06/2025	02:28	-132.943	43.634	0	3049.90	0	1.5970	0	34.6520	4	27.740	0	3003.790	0	94.6	4	28.2	4	-1E+10	1	-1E+10	1	-1E+10	1	-1E+10	1	-1E+10	1	-1E+10	1
4902643	38	C	07/06/2025	02:28	-132.943	43.634	0	3070.00	0	1.5920	0	34.6530	4	27.741	0	3023.447	0	95.2	4	28.4	4	-1E+10	1	-1E+10	1	-1E+10	1	-1E+10	1	-1E+10	1	-1E+10	1
4902643	38	C	07/06/2025	02:28	-132.943	43.634	0	3090.00	0	1.5890	0	34.6540	4	27.742	0	3043.003	0	95.8	4	28.6	4	-1E+10	1	-1E+10	1	-1E+10	1	-1E+10	1	-1E+10	1	-1E+10	1
4902643	38	C	07/06/2025	02:28	-132.943	43.634	0	3110.20	0	1.5870	0	34.6540	4	27.743	0	3062.754	0	96.3	4	28.7	4	-1E+10	1	-1E+10	1	-1E+10	1	-1E+10	1	-1E+10	1	-1E+10	1
4902643	38	C	07/06/2025	02:28	-132.943	43.634	0	3130.10	0	1.5850	0	34.6550	4	27.744	0	3082.209	0	96.7	4	28.9	4	-1E+10	1	-1E+10	1	-1E+10	1	-1E+10	1	-1E+10	1	-1E+10	1
4902643	38	C	07/06/2025	02:28	-132.943	43.634	0	3150.00	0	1.5820	0	34.6560	4	27.745	0	3101.663	0	97.4	4	29.1	4	-1E+10	1	-1E+10	1	-1E+10	1	-1E+10	1	-1E+10	1	-1E+10	1
4902643	38	C	07/06/2025	02:28	-132.943	43.634	0	3170.00	0	1.5780	0	34.6560	4	27.745	0	3121.212	0	97.9	4	29.2	4	-1E+10	1	-1E+10	1	-1E+10	1	-1E+10	1	-1E+10	1	-1E+10	1
4902643	38	C	07/06/2025	02:28	-132.943	43.634	0	3190.10	0	1.5760	0	34.6570	4	27.746	0	3140.858	0	98.4	4	29.4	4	-1E+10	1	-1E+10	1	-1E+10	1	-1E+10	1	-1E+10	1	-1E+10	1
4902643	38	C	07/06/2025	02:28	-132.943	43.634	0	3209.90	0	1.5730	0	34.6570	4	27.747	0	3160.208	0	99.0	4	29.6	4	-1E+10	1	-1E+10	1	-1E+10	1	-1E+10	1	-1E+10	1	-1E+10	1
4902643	38	C	07/06/2025	02:28	-132.943	43.634	0	3230.10	0	1.5690	0	34.6580	4	27.748	0	3179.948	0	99.6	4	29.7	4	-1E+10	1	-1E+10	1	-1E+10	1	-1E+10	1	-1E+10	1	-1E+10	1
4902643	38	C	07/06/2025	02:28	-132.943	43.634	0	3249.70	0	1.5680	0	34.6580	4	27.748	0	3199.100	0	100.0	4	29.8	4	-1E+10	1	-1E+10	1	-1E+10	1	-1E+10	1	-1E+10	1	-1E+10	1
4902643	38	C	07/06/2025	02:28	-132.943	43.634	0	3269.70	0	1.5650	0	34.6590	4	27.749	0	3218.641	0	100.5	4	30.0	4	-1E+10	1	-1E+10	1	-1E+10	1	-1E+10	1	-1E+10	1	-1E+10	1
4902643	38	C	07/06/2025	02:28	-132.943	43.634	0	3289.90	0	1.5640	0	34.6590	4	27.750	0	3238.375	0	101.0	4	30.1	4	-1E+10	1	-1E+10	1	-1E+10	1	-1E+10	1	-1E+10	1	-1E+10	1
4902643	38	C	07/06/2025	02:28	-132.943	43.634	0	3310.20	0	1.5630	0	34.6600	4	27.751	0	3258.205	0	101.3	4	30.2	4	-1E+10	1	-1E+10	1	-1E+10	1	-1E+10	1	-1E+10	1	-1E+10	1
4902643	38	C	07/06/2025	02:28	-132.943	43.634	0	3329.90	0	1.5620	0	34.6600	4	27.751	0	3277.448	0	101.7	4	30.3	4	-1E+10	1	-1E+10	1	-1E+10	1	-1E+10	1	-1E+10	1	-1E+10	1
4902643	38	C	07/06/2025	02:28	-132.943	43.634	0	3350.30	0	1.5610	0	34.6610	4	27.752	0	3297.373	0	102.0	4	30.4	4	-1E+10	1	-1E+10	1	-1E+10	1	-1E+10	1	-1E+10	1	-1E+10	1
4902643	38	C	07/06/2025	02:28	-132.943	43.634	0	3369.70	0	1.5590	0	34.6610	4	27.752	0	3316.319	0	102.4	4	30.6	4	-1E+10	1	-1E+10	1	-1E+10	1	-1E+10	1	-1E+10	1	-1E+10	1
4902643	38	C	07/06/2025	02:28	-132.943	43.634	0	3389.60	0	1.5570	0	34.6610	4	27.752	0	3335.751	0	102.9	4	30.7	4	-1E+10	1	-1E+10	1	-1E+10	1	-1E+10	1	-1E+10	1	-1E+10	1
4902643	38	C	07/06/2025	02:28	-132.943	43.634	0	3409.70	0	1.5560	0	34.6620	4	27.753	0	3355.378	0	103.2	4	30.8	4	-1E+10	1	-1E+10	1	-1E+10	1	-1E+10	1	-1E+10	1	-1E+10	1
4902643	38	C	07/06/2025	02:28	-132.943	43.634	0	3430.00	0	1.5570	0	34.6620	4	27.753	0	3375.197	0	103.3	4	30.8	4	-1E+10	1	-1E+10	1	-1E+10	1	-1E+10	1	-1E+10	1	-1E+10	1
4902643	38	C	07/06/2025	02:28	-132.943	43.634	0	3449.80	0	1.5580	0	34.6630	4	27.754	0	3394.527	0	103.6	4	30.9	4	-1E+10	1	-1E+10	1	-1E+10	1	-1E+10	1	-1E+10	1	-1E+10	1
4902643	38	C	07/06/2025	02:28	-132.943	43.634	0	3470.10	0	1.5570	0	34.6630	4	27.755	0	3414.344	0	103.9	4	31.0	4	-1E+10	1	-1E+10	1	-1E+10	1	-1E+10	1	-1E+10	1	-1E+10	1
4902643	38	C	07/06/2025	02:28	-132.943	43.634	0	3490.00	0	1.5570	0	34.6640	4	27.756	0	3433.767	0	104.2	4	31.1	4	-1E+10	1	-1E+10	1	-1E+10	1	-1E+10	1	-1E+10	1	-1E+10	1
4902643	38	C	07/06/2025	02:28	-132.943	43.634	0	3510.00	0	1.5560	0	34.6640	4	27.756	0	3453.287	0	104.6	4	31.2	4	-1E+10	1	-1E+10	1	-1E+10	1	-1E+10	1	-1E+10	1	-1E+10	1
4902643	38	C	07/06/2025	02:28	-132.943	43.634	0	3530.20	0	1.5550	0	34.6650	4	27.757	0	3473.001	0	104.9	4	31.3	4	-1E+10	1	-1E+10	1	-1E+10	1	-1E+10	1	-1E+10	1	-1E+10	1
4902643	38	C	07/06/2025	02:28	-132.943	43.634	0	3550.20	0	1.5550	0	34.6650	4	27.757	0	3492.517	0	105.1	4	31.3	4	-1E+10	1	-1E+10	1	-1E+10	1	-1E+10	1	-1E+10	1	-1E+10	1
4902643	38	C	07/06/2025	02:28	-132.943	43.634	0	3570.20	0	1.5560	0	34.6650	4	27.757	0	3512.032	0	105.3	4	31.4	4	-1E+10	1	-1E+10	1	-1E+10	1	-1E+10	1	-1E+10	1	-1E+10	1
4902643	38	C	07/06/2025	02:28	-132.943	43.634	0	3590.20	0	1.5550	0	34.6660	4	27.758	0	3531.545	0	105.4	4	31.5	4	-1E+10	1	-1E+10	1	-1E+10	1	-1E+10	1	-1E+10	1	-1E+10	1
4902643	38	C	07/06/2025	02:28	-132.943	43.634	0	3609.90	0	1.5540	0	34.6660	4	27.758	0	3550.763	0	105.5	4	31.5	4	-1E+10	1	-1E+10	1	-1E+10	1	-1E+10	1	-1E+10	1	-1E+10	1
4902643	38	C	07/06/2025	02:28	-132.943	43.634	0	3630.00	0	1.5540	0	34.6670	4	27.759	0	3570.370	0	105.5	4	31.5	4	-1E+10	1	-1E+10	1	-1E+10	1	-1E+10	1	-1E+10	1	-1E+10	1
4902643	38	C	07/06/2025	02:28	-132.943	43.634	0	3645.10	0	1.5540	0	34.6670	4	27.759	0	3585.099	0	105.5	4	31.5	4	-1E+10	1	-1E+10	1	-1E+10	1	-1E+10	1	-1E+10	1	-1E+10	1
4902643	38	C	07/06/2025	02:28	-132.943	43.634	0	3651.00	0	1.5550	0	34.6680	4	27.760	0	3590.853	0	105.5	4	31.5	4	-1E+10	1	-1E+10	1	-1E+10	1	-1E+10	1	-1E+10	1	-1E+10	1
4902643	38	C	07/06/2025	02:28	-132.943	43.634	0	3651.70	0	1.5550	0	34.6680	4	27.760	0	3591.536	0	105.5	4	31.5	4	-1E+10	1	-1E+10	1	-1E+10	1	-1E+10	1	-1E+10	1	-1E+10	1
4902643	38	C	07/06/2025	02:28	-132.943	43.634	0	3652.70	0	1.5550	0	34.6680	4	27.760	0	3592.511	0	105.5	4	31.5	4	-1E+10	1	-1E+10	1	-1E+10	1	-1E+10	1	-1E+10	1	-1E+10	1
4902643	38	C	07/06/2025	02:28	-132.943	43.634	0	3653.50	0	1.5550	0	34.6680	4	27.760	0	3593.292	0	105.5	4	31.5	4	-1E+10	1	-1E+10	1	-1E+10	1	-1E+10	1	-1E+10	1	-1E+10	1
4902643	38	C	07/06/2025	02:28	-132.943	43.634	0	3654.40	0	1.5550	0	34.6680	4	27.760	0	3594.169	0	105.5	4	31.5	4	-1E+10	1	-1E+10	1	-1E+10	1	-1E+10	1	-1E+10	1	-1E+10	1
4902643	38	C	07/06/2025	02:28	-132.943	43.634	0	3655.40	0	1.5550	0	34.6680	4	27.760	0	3595.145	0	105.5	4	31.5	4	-1E+10	1	-1E+10	1	-1E+10	1	-1E+10	1	-1E+10	1	-1E+10	1
4902643	38	C	07/06/2025	02:28	-132.943	43.634	0	3656.20	0	1.5550	0	34.6680	4	27.760	0	3595.925	0	105.5	4	31.5	4	-1E+10	1	-1E+10	1	-1E+10	1	-1E+10	1	-1E+10	1	-1E+10	1
4902643	38	C	07/06/2025	02:28	-132.943	43.634	0	3657.50	0	1.5550	0	34.6680	4	27.760	0	3597.193	0	105.5	4	31.5	4	-1E+10	1	-1E+10	1	-1E+10	1	-1E+10	1	-1E+10	1	-1E+10	1
4902643	38	C	07/06/2025	02:28	-132.943	43.634	0	3658.80	0	1.5560	0	34.6680	4	27.760	0	3598.461	0	105.5	4	31.5	4	-1E+10	1	-1E+10	1	-1E+10	1	-1E+10	1	-1E+10	1	-1E+10	1
4902643	38	C	07/06/2025	02:28	-132.943	43.634	0	3659.80	0	1.5550	0	34.6680	4	27.760	0	3599.436	0	105.5	4	31.5	4	-1E+10	1	-1E+10	1	-1E+10	1	-1E+10	1	-1E+10	1	-1E+10	1
4902643	38	C	07/06/2025	02:28	-132.943	43.634	0	3660.70	0	1.5560	0	34.6680	4	27.760	0	3600.314	0	105.5	4	31.5	4	-1E+10	1	-1E+10	1	-1E+10	1	-1E+10	1	-1E+10	1	-1E+10	1
4902643	38	C	07/06/2025	02:28	-132.943	43.634	0	3661.50	0	1.5560	0	34.6680	4	27.760	0	3601.094	0	105.5	4	31.5	4	-1E+10	1	-1E+10	1	-1E+10	1	-1E+10	1	-1E+10	1	-1E+10	1
4902643	38	C	07/06/2025	02:28	-132.943	43.634	0	3662.40	0	1.5560	0	34.6670	4	27.759	0	3601.972	0	105.5	4	31.5	4	-1E+10	1	-1E+10	1	-1E+10	1	-1E+10	1	-1E+10	1	-1E+10	1
4902643	38	C	07/06/2025	02:28	-132.943	43.634	0	3663.30	0	1.5560	0	34.6680	4	27.760	0	3602.850	0	105.5	4	31.5	4	-1E+10	1	-1E+10	1	-1E+10	1	-1E+10	1	-1E+10	1	-1E+10	1
4902643	38	C	07/06/2025	02:28	-132.943	43.634	0	3664.20	0	1.5560	0	34.6680	4	27.760	0	3603.727	0	105.5	4	31.5	4	-1E+10	1	-1E+10	1	-1E+10	1	-1E+10	1	-1E+10	1	-1E+10	1
4902643	38	C	07/06/2025	02:28	-132.943	43.634	0	3665.50	0	1.5560	0	34.6670	4	27.759	0	3604.995	0	105.5	4	31.5	4	-1E+10	1	-1E+10	1	-1E+10	1	-1E+10	1	-1E+10	1	-1E+10	1
4902643	38	C	07/06/2025	02:28	-132.943	43.634	0	3666.80	0	1.5560	0	34.6670	4	27.759	0	3606.263	0	105.5	4	31.5	4	-1E+10	1	-1E+10	1	-1E+10	1	-1E+10	1	-1E+10	1	-1E+10	1
4902643	38	C	07/06/2025	02:28	-132.943	43.634	0	3667.70	0	1.5560	0	34.6680	4	27.760	0	3607.141	0	105.5	4	31.5	4	-1E+10	1	-1E+10	1	-1E+10	1	-1E+10	1	-1E+10	1	-1E+10	1
4902643	38	C	07/06/2025	02:28	-132.943	43.634	0	3668.70	0	1.5560	0	34.6680	4	27.760	0	3608.116	0	105.5	4	31.5	4	-1E+10	1	-1E+10	1	-1E+10	1	-1E+10	1	-1E+10	1	-1E+10	1
4902643	38	C	07/06/2025	02:28	-132.943	43.634	0	3669.50	0	1.5570	0	34.6680	4	27.760	0	3608.896	0	105.5	4	31.5	4	-1E+10	1	-1E+10	1	-1E+10	1	-1E+10	1	-1E+10	1	-1E+10	1
4902643	38	C	07/06/2025	02:28	-132.943	43.634	0	3670.40	0	1.5560	0	34.6680	4	27.760	0	3609.774	0	105.5	4	31.5	4	-1E+10	1	-1E+10	1	-1E+10	1	-1E+10	1	-1E+10	1	-1E+10	1
4902643	38	C	07/06/2025	02:28	-132.943	43.634	0	3671.30	0	1.5570	0	34.6670	4	27.759	0	3610.652	0	105.5	4	31.5	4	-1E+10	1	-1E+10	1	-1E+10	1	-1E+10	1	-1E+10	1	-1E+10	1
4902643	38	C	07/06/2025	02:28	-132.943	43.634	0	3672.20	0	1.5570	0	34.6680	4	27.760	0	3611.529	0	105.5	4	31.5	4	-1E+10	1	-1E+10	1	-1E+10	1	-1E+10	1	-1E+10	1	-1E+10	1
4902643	38	C	07/06/2025	02:28	-132.943	43.634	0	3673.50	0	1.5570	0	34.6680	4	27.760	0	3612.797	0	105.5	4	31.5	4	-1E+10	1	-1E+10	1	-1E+10	1	-1E+10	1	-1E+10	1	-1E+10	1
4902643	38	C	07/06/2025	02:28	-132.943	43.634	0	3674.90	0	1.5570	0	34.6680	4	27.760	0	3614.163	0	105.5	4	31.5	4	-1E+10	1	-1E+10	1	-1E+10	1	-1E+10	1	-1E+10	1	-1E+10	1
4902643	38	C	07/06/2025	02:28	-132.943	43.634	0	3675.80	0	1.5570	0	34.6680	4	27.760	0	3615.040	0	105.5	4	31.5	4	-1E+10	1	-1E+10	1	-1E+10	1	-1E+10	1	-1E+10	1	-1E+10	1
4902643	38	C	07/06/2025	02:28	-132.943	43.634	0	3676.80	0	1.5570	0	34.6680	4	27.760	0	3616.016	0	105.5	4	31.5	4	-1E+10	1	-1E+10	1	-1E+10	1	-1E+10	1	-1E+10	1	-1E+10	1
4902643	38	C	07/06/2025	02:28	-132.943	43.634	0	3677.70	0	1.5580	0	34.6670	4	27.759	0	3616.893	0	105.5	4	31.5	4	-1E+10	1	-1E+10	1	-1E+10	1	-1E+10	1	-1E+10	1	-1E+10	1
4902643	38	C	07/06/2025	02:28	-132.943	43.634	0	3678.60	0	1.5570	0	34.6680	4	27.760	0	3617.771	0	105.5	4	31.5	4	-1E+10	1	-1E+10	1	-1E+10	1	-1E+10	1	-1E+10	1	-1E+10	1
4902643	38	C	07/06/2025	02:28	-132.943	43.634	0	3679.50	0	1.5580	0	34.6680	4	27.760	0	3618.649	0	105.5	4	31.5	4	-1E+10	1	-1E+10	1	-1E+10	1	-1E+10	1	-1E+10	1	-1E+10	1
4902643	38	C	07/06/2025	02:28	-132.943	43.634	0	3680.40	0	1.5580	0	34.6680	4	27.760	0	3619.526	0	105.5	4	31.5	4	-1E+10	1	-1E+10	1	-1E+10	1	-1E+10	1	-1E+10	1	-1E+10	1
4902643	38	C	07/06/2025	02:28	-132.943	43.634	0	3681.30	0	1.5580	0	34.6680	4	27.760	0	3620.404	0	105.5	4	31.5	4	-1E+10	1	-1E+10	1	-1E+10	1	-1E+10	1	-1E+10	1	-1E+10	1
4902643	38	C	07/06/2025	02:28	-132.943	43.634	0	3682.20	0	1.5580	0	34.6680	4	27.760	0	3621.282	0	105.5	4	31.5	4	-1E+10	1	-1E+10	1	-1E+10	1	-1E+10	1	-1E+10	1	-1E+10	1
4902643	38	C	07/06/2025	02:28	-132.943	43.634	0	3683.50	0	1.5580	0	34.6680	4	27.760	0	3622.550	0	105.5	4	31.5	4	-1E+10	1	-1E+10	1	-1E+10	1	-1E+10	1	-1E+10	1	-1E+10	1
4902643	38	C	07/06/2025	02:28	-132.943	43.634	0	3684.90	0	1.5580	0	34.6680	4	27.760	0	3623.915	0	105.5	4	31.5	4	-1E+10	1	-1E+10	1	-1E+10	1	-1E+10	1	-1E+10	1	-1E+10	1
4902643	38	C	07/06/2025	02:28	-132.943	43.634	0	3685.70	0	1.5580	0	34.6670	4	27.759	0	3624.695	0	105.5	4	31.5	4	-1E+10	1	-1E+10	1	-1E+10	1	-1E+10	1	-1E+10	1	-1E+10	1
4902643	38	C	07/06/2025	02:28	-132.943	43.634	0	3687.40	0	1.5580	0	34.6680	4	27.760	0	3626.353	0	105.5	4	31.5	4	-1E+10	1	-1E+10	1	-1E+10	1	-1E+10	1	-1E+10	1	-1E+10	1
4902643	38	C	07/06/2025	02:28	-132.943	43.634	0	3688.60	0	1.5580	0	34.6680	4	27.760	0	3627.523	0	105.5	4	31.5	4	-1E+10	1	-1E+10	1	-1E+10	1	-1E+10	1	-1E+10	1	-1E+10	1
4902643	38	C	07/06/2025	02:28	-132.943	43.634	0	3689.60	0	1.5590	0	34.6680	4	27.760	0	3628.498	0	105.5	4	31.5	4	-1E+10	1	-1E+10	1	-1E+10	1	-1E+10	1	-1E+10	1	-1E+10	1
4902643	38	C	07/06/2025	02:28	-132.943	43.634	0	3690.80	0	1.5580	0	34.6680	4	27.760	0	3629.668	0	105.5	4	31.5	4	-1E+10	1	-1E+10	1	-1E+10	1	-1E+10	1	-1E+10	1	-1E+10	1
4902643	38	C	07/06/2025	02:28	-132.943	43.634	0	3691.40	0	1.5590	0	34.6680	4	27.760	0	3630.253	0	105.5	4	31.5	4	-1E+10	1	-1E+10	1	-1E+10	1	-1E+10	1	-1E+10	1	-1E+10	1
4902643	38	C	07/06/2025	02:28	-132.943	43.634	0	3692.60	0	1.5580	0	34.6680	4	27.760	0	3631.424	0	105.5	4	31.5	4	-1E+10	1	-1E+10	1	-1E+10	1	-1E+10	1	-1E+10	1	-1E+10	1
4902643	38	C	07/06/2025	02:28	-132.943	43.634	0	3693.60	0	1.5590	0	34.6680	4	27.760	0	3632.399	0	105.5	4	31.5	4	-1E+10	1	-1E+10	1	-1E+10	1	-1E+10	1	-1E+10	1	-1E+10	1
4902643	38	C	07/06/2025	02:28	-132.943	43.634	0	3694.60	0	1.5590	0	34.6680	4	27.760	0	3633.374	0	105.5	4	31.5	4	-1E+10	1	-1E+10	1	-1E+10	1	-1E+10	1	-1E+10	1	-1E+10	1
4902643	38	C	07/06/2025	02:28	-132.943	43.634	0	3695.90	0	1.5570	0	34.6680	4	27.760	0	3634.642	0	105.5	4	31.5	4	-1E+10	1	-1E+10	1	-1E+10	1	-1E+10	1	-1E+10	1	-1E+10	1
4902643	38	C	07/06/2025	02:28	-132.943	43.634	0	3696.60	0	1.5570	0	34.6680	4	27.760	0	3635.324	0	105.6	4	31.5	4	-1E+10	1	-1E+10	1	-1E+10	1	-1E+10	1	-1E+10	1	-1E+10	1
4902643	38	C	07/06/2025	02:28	-132.943	43.634	0	3697.90	0	1.5570	0	34.6690	4	27.761	0	3636.592	0	105.5	4	31.5	4	-1E+10	1	-1E+10	1	-1E+10	1	-1E+10	1	-1E+10	1	-1E+10	1
4902643	38	C	07/06/2025	02:28	-132.943	43.634	0	3698.50	0	1.5560	0	34.6680	4	27.760	0	3637.177	0	105.6	4	31.5	4	-1E+10	1	-1E+10	1	-1E+10	1	-1E+10	1	-1E+10	1	-1E+10	1
4902643	38	C	07/06/2025	02:28	-132.943	43.634	0																										
4902643	39	C	07/16/2025	01:24	-132.918	43.610	0	1.50	0	17.0530	0	32.3230	0	23.449	0	1.488	0	230.6	4	95.1	4	-1E+10	1	-1E+10	1	-1E+10	1	-1E+10	1	-1E+10	1	-1E+10	1
4902643	39	C	07/16/2025	01:24	-132.918	43.610	0	1.70	0	17.0530	0	32.3220	0	23.449	0	1.686	0	230.7	4	95.1	4	-1E+10	1	-1E+10	1	-1E+10	1	-1E+10	1	-1E+10	1	-1E+10	1
4902643	39	C	07/16/2025	01:24	-132.918	43.610	0	1.80	0	17.0533	0	32.3230	0	23.449	0	1.786	0	230.5	4	95.0	4	-1E+10	1	-1E+10	1	-1E+10	1	-1E+10	1	-1E+10	1	-1E+10	1
4902643	39	C	07/16/2025	01:24	-132.918	43.610	0	2.00	0	17.0530	0	32.3220	0	23.449	0	1.984	0	230.5	4	95.0	4	-1E+10	1	-1E+10	1	-1E+10	1	-1E+10	1	-1E+10	1	-1E+10	1
4902643	39	C	07/16/2025	01:24	-132.918	43.610	0	2.10	0	17.0540	0	32.3200	0	23.447	0	2.083	0	230.7	4	95.1	4	-1E+10	1	-1E+10	1	-1E+10	1	-1E+10	1	-1E+10	1	-1E+10	1
4902643	39	C	07/16/2025	01:24	-132.918	43.610	0	2.20	0	17.0530	0	32.3225	0	23.449	0	2.182	0	230.6	4	95.1	4	-1E+10	1	-1E+10	1	-1E+10	1	-1E+10	1	-1E+10	1	-1E+10	1
4902643	39	C	07/16/2025	01:24	-132.918	43.610	0	2.30	0	17.0540	0	32.3210	0	23.448	0	2.282	0	-1e10	1	-1e10	1	-1E+10	1	-1E+10	1	-1E+10	1	-1E+10	1	-1E+10	1	-1E+10	1
4902643	39	C	07/16/2025	01:24	-132.918	43.610	0	2.50	0	17.0590	0	32.2660	0	23.404	0	2.480	0	230.5	4	95.0	4	-1E+10	1	-1E+10	1	-1E+10	1	-1E+10	1	-1E+10	1	-1E+10	1
4902643	39	C	07/16/2025	01:24	-132.918	43.610	0	3.60	0	17.0570	0	32.3660	0	23.481	0	3.571	0	230.3	4	95.0	4	-1E+10	1	-1E+10	1	-1E+10	1	-1E+10	1	-1E+10	1	-1E+10	1
4902643	39	C	07/16/2025	01:24	-132.918	43.610	0	4.50	0	17.0540	0	32.5240	0	23.603	0	4.464	0	230.1	4	95.0	4	-1E+10	1	-1E+10	1	-1E+10	1	-1E+10	1	-1E+10	1	-1E+10	1
4902643	39	C	07/16/2025	01:24	-132.918	43.610	0	5.60	0	17.0570	0	32.5250	0	23.603	0	5.555	0	230.1	4	95.0	4	-1E+10	1	-1E+10	1	-1E+10	1	-1E+10	1	-1E+10	1	-1E+10	1
4902643	39	C	07/16/2025	01:24	-132.918	43.610	0	6.50	0	17.0590	0	32.5250	0	23.603	0	6.448	0	230.0	4	95.0	4	-1E+10	1	-1E+10	1	-1E+10	1	-1E+10	1	-1E+10	1	-1E+10	1
4902643	39	C	07/16/2025	01:24	-132.918	43.610	0	7.70	0	17.0600	0	32.5250	0	23.603	0	7.638	0	230.0	4	95.0	4	-1E+10	1	-1E+10	1	-1E+10	1	-1E+10	1	-1E+10	1	-1E+10	1
4902643	39	C	07/16/2025	01:24	-132.918	43.610	0	8.50	0	17.0610	0	32.5250	0	23.603	0	8.432	0	230.1	4	95.0	4	-1E+10	1	-1E+10	1	-1E+10	1	-1E+10	1	-1E+10	1	-1E+10	1
4902643	39	C	07/16/2025	01:24	-132.918	43.610	0	9.60	0	17.0610	0	32.5250	0	23.603	0	9.523	0	230.2	4	95.1	4	-1E+10	1	-1E+10	1	-1E+10	1	-1E+10	1	-1E+10	1	-1E+10	1
4902643	39	C	07/16/2025	01:24	-132.918	43.610	0	14.40	0	17.0500	0	32.5230	0	23.604	0	14.284	0	231.4	4	95.5	4	-1E+10	1	-1E+10	1	-1E+10	1	-1E+10	1	-1E+10	1	-1E+10	1
4902643	39	C	07/16/2025	01:24	-132.918	43.610	0	24.40	0	15.5700	0	32.5780	0	23.983	0	24.204	0	242.2	4	97.2	4	-1E+10	1	-1E+10	1	-1E+10	1	-1E+10	1	-1E+10	1	-1E+10	1
4902643	39	C	07/16/2025	01:24	-132.918	43.610	0	34.90	0	14.0180	0	32.6750	0	24.389	0	34.618	0	250.4	4	97.5	4	-1E+10	1	-1E+10	1	-1E+10	1	-1E+10	1	-1E+10	1	-1E+10	1
4902643	39	C	07/16/2025	01:24	-132.918	43.610	0	44.40	0	13.2560	0	32.7420	0	24.595	0	44.040	0	254.3	4	97.6	4	-1E+10	1	-1E+10	1	-1E+10	1	-1E+10	1	-1E+10	1	-1E+10	1
4902643	39	C	07/16/2025	01:24	-132.918	43.610	0	54.80	0	11.9060	0	32.6510	0	24.784	0	54.355	0	254.7	4	95.0	4	-1E+10	1	-1E+10	1	-1E+10	1	-1E+10	1	-1E+10	1	-1E+10	1
4902643	39	C	07/16/2025	01:24	-132.918	43.610	0	64.90	0	11.0320	0	32.6960	0	24.978	0	64.371	0	249.4	4	91.3	4	-1E+10	1	-1E+10	1	-1E+10	1	-1E+10	1	-1E+10	1	-1E+10	1
4902643	39	C	07/16/2025	01:24	-132.918	43.610	0	74.10	0	10.5580	0	32.6730	0	25.043	0	73.495	0	248.5	4	90.1	4	-1E+10	1	-1E+10	1	-1E+10	1	-1E+10	1	-1E+10	1	-1E+10	1
4902643	39	C	07/16/2025	01:24	-132.918	43.610	0	84.70	0	10.0130	0	32.6090	0	25.085	0	84.006	0	246.2	4	88.2	4	-1E+10	1	-1E+10	1	-1E+10	1	-1E+10	1	-1E+10	1	-1E+10	1
4902643	39	C	07/16/2025	01:24	-132.918	43.610	0	94.80	0	9.9390	0	32.6510	0	25.130	0	94.021	0	237.2	4	84.8	4	-1E+10	1	-1E+10	1	-1E+10	1	-1E+10	1	-1E+10	1	-1E+10	1
4902643	39	C	07/16/2025	01:24	-132.918	43.610	0	104.20	0	9.7480	0	32.7580	0	25.246	0	103.341	0	226.2	4	80.6	4	-1E+10	1	-1E+10	1	-1E+10	1	-1E+10	1	-1E+10	1	-1E+10	1
4902643	39	C	07/16/2025	01:24	-132.918	43.610	0	115.30	0	9.3900	0	33.0440	0	25.527	0	114.347	0	214.1	4	75.9	4	-1E+10	1	-1E+10	1	-1E+10	1	-1E+10	1	-1E+10	1	-1E+10	1
4902643	39	C	07/16/2025	01:24	-132.918	43.610	0	124.90	0	9.1820	0	33.2700	0	25.737	0	123.865	0	206.6	4	73.0	4	-1E+10	1	-1E+10	1	-1E+10	1	-1E+10	1	-1E+10	1	-1E+10	1
4902643	39	C	07/16/2025	01:24	-132.918	43.610	0	134.50	0	9.0210	0	33.4350	0	25.892	0	133.382	0	199.7	4	70.4	4	-1E+10	1	-1E+10	1	-1E+10	1	-1E+10	1	-1E+10	1	-1E+10	1
4902643	39	C	07/16/2025	01:24	-132.918	43.610	0	145.40	0	8.8580	0	33.5910	0	26.040	0	144.187	0	193.3	4	68.0	4	-1E+10	1	-1E+10	1	-1E+10	1	-1E+10	1	-1E+10	1	-1E+10	1
4902643	39	C	07/16/2025	01:24	-132.918	43.610	0	154.80	0	8.6070	0	33.6970	0	26.162	0	153.506	0	189.8	4	66.4	4	-1E+10	1	-1E+10	1	-1E+10	1	-1E+10	1	-1E+10	1	-1E+10	1
4902643	39	C	07/16/2025	01:24	-132.918	43.610	0	164.70	0	8.4410	0	33.7380	0	26.220	0	163.319	0	187.0	4	65.2	4	-1E+10	1	-1E+10	1	-1E+10	1	-1E+10	1	-1E+10	1	-1E+10	1
4902643	39	C	07/16/2025	01:24	-132.918	43.610	0	174.60	0	8.2180	0	33.7690	0	26.278	0	173.132	0	184.6	4	64.1	4	-1E+10	1	-1E+10	1	-1E+10	1	-1E+10	1	-1E+10	1	-1E+10	1
4902643	39	C	07/16/2025	01:24	-132.918	43.610	0	184.70	0	8.0990	0	33.7960	0	26.317	0	183.142	0	182.0	4	63.0	4	-1E+10	1	-1E+10	1	-1E+10	1	-1E+10	1	-1E+10	1	-1E+10	1
4902643	39	C	07/16/2025	01:24	-132.918	43.610	0	194.90	0	8.0120	0	33.8180	0	26.347	0	193.251	0	179.0	4	61.9	4	-1E+10	1	-1E+10	1	-1E+10	1	-1E+10	1	-1E+10	1	-1E+10	1
4902643	39	C	07/16/2025	01:24	-132.918	43.610	0	210.00	0	7.7660	0	33.8440	0	26.403	0	208.216	0	172.9	4	59.5	4	-1E+10	1	-1E+10	1	-1E+10	1	-1E+10	1	-1E+10	1	-1E+10	1
4902643	39	C	07/16/2025	01:24	-132.918	43.610	0	229.80	0	7.4600	0	33.8560	0	26.457	0	227.837	0	166.2	4	56.7	4	-1E+10	1	-1E+10	1	-1E+10	1	-1E+10	1	-1E+10	1	-1E+10	1
4902643	39	C	07/16/2025	01:24	-132.918	43.610	0	249.40	0	7.1600	0	33.8520	0	26.496	0	247.258	0	157.9	4	53.6	4	-1E+10	1	-1E+10	1	-1E+10	1	-1E+10	1	-1E+10	1	-1E+10	1
4902643	39	C	07/16/2025	01:24	-132.918	43.610	0	269.40	0	6.8350	0	33.8480	0	26.537	0	267.073	0	145.8	4	49.1	4	-1E+10	1	-1E+10	1	-1E+10	1	-1E+10	1	-1E+10	1	-1E+10	1
4902643	39	C	07/16/2025	01:24	-132.918	43.610	0	289.60	0	6.4950	0	33.8470	0	26.582	0	287.085	0	133.5	4	44.6	4	-1E+10	1	-1E+10	1	-1E+10	1	-1E+10	1	-1E+10	1	-1E+10	1
4902643	39	C	07/16/2025	01:24	-132.918	43.610	0	309.60	0	6.1650	0	33.8500	0	26.627	0	306.896	0	120.8	4	40.1	4	-1E+10	1	-1E+10	1	-1E+10	1	-1E+10	1	-1E+10	1	-1E+10	1
4902643	39	C	07/16/2025	01:24	-132.918	43.610	0	330.40	0	5.8960	0	33.8560	0	26.665	0	327.498	0	108.0	4	35.6	4	-1E+10	1	-1E+10	1	-1E+10	1	-1E+10	1	-1E+10	1	-1E+10	1
4902643	39	C	07/16/2025	01:24	-132.918	43.610	0	350.60	0	5.6650	0	33.8670	0	26.702	0	347.504	0	97.8	4	32.1	4	-1E+10	1	-1E+10	1	-1E+10	1	-1E+10	1	-1E+10	1	-1E+10	1
4902643	39	C	07/16/2025	01:24	-132.918	43.610	0	370.00	0	5.5020	0	33.8770	0	26.730	0	366.715	0	89.1	4	29.1	4	-1E+10	1	-1E+10	1	-1E+10	1	-1E+10	1	-1E+10	1	-1E+10	1
4902643	39	C	07/16/2025	01:24	-132.918	43.610	0	389.70	0	5.3130	0	33.8890	0	26.762	0	386.222	0	81.1	4	26.4	4	-1E+10	1	-1E+10	1	-1E+10	1	-1E+10	1	-1E+10	1	-1E+10	1
4902643	39	C	07/16/2025	01:24	-132.918	43.610	0	409.40	0	5.1550	0	33.9060	0	26.794	0	405.727	0	74.0	4	24.0	4	-1E+10	1	-1E+10	1	-1E+10	1	-1E+10	1	-1E+10	1	-1E+10	1
4902643	39	C	07/16/2025	01:24	-132.918	43.610	0	429.50	0	5.0620	0	33.9200	0	26.816	0	425.626	0	68.7	4	22.2	4	-1E+10	1	-1E+10	1	-1E+10	1	-1E+10	1	-1E+10	1	-1E+10	1
4902643	39	C	07/16/2025	01:24	-132.918	43.610	0	449.90	0	4.9200	0	33.9340	0	26.843	0	445.820	0	63.8	4	20.5	4	-1E+10	1	-1E+10	1	-1E+10	1	-1E+10	1	-1E+10	1	-1E+10	1
4902643	39	C	07/16/2025	01:24	-132.918	43.610	0	469.90	0	4.8300	0	33.9430	0	26.861	0	465.616	0	60.3	4	19.4	4	-1E+10	1	-1E+10	1	-1E+10	1	-1E+10	1	-1E+10	1	-1E+10	1
4902643	39	C	07/16/2025	01:24	-132.918	43.610	0	489.80	0	4.7410	0	33.9610	0	26.885	0	485.312	0	54.8	4	17.6	4	-1E+10	1	-1E+10	1	-1E+10	1	-1E+10	1	-1E+10	1	-1E+10	1
4902643	39	C	07/16/2025	01:24	-132.918	43.610	0	509.90	0	4.6550	0	33.9890	0	26.917	0	505.203	0	47.9	4	15.3	4	-1E+10	1	-1E+10	1	-1E+10	1	-1E+10	1	-1E+10	1	-1E+10	1
4902643	39	C	07/16/2025	01:24	-132.918	43.610	0	529.90	0	4.6210	0	34.0170	0	26.943	0	524.994	0	41.6	4	13.3	4	-1E+10	1	-1E+10	1	-1E+10	1	-1E+10	1	-1E+10	1	-1E+10	1
4902643	39	C	07/16/2025	01:24	-132.918	43.610	0	549.90	0	4.5370	0	34.0450	0	26.974	0	544.782	0	34.8	4	11.1	4	-1E+10	1	-1E+10	1	-1E+10	1	-1E+10	1	-1E+10	1	-1E+10	1
4902643	39	C	07/16/2025	01:24	-132.918	43.610	0	570.30	0	4.4260	0	34.0740	0	27.009	0	564.965	0	29.8	4	9.5	4	-1E+10	1	-1E+10	1	-1E+10	1	-1E+10	1	-1E+10	1	-1E+10	1
4902643	39	C	07/16/2025	01:24	-132.918	43.610	0	590.00	0	4.3680	0	34.0970	0	27.034	0	584.453	0	25.9	4	8.3	4	-1E+10	1	-1E+10	1	-1E+10	1	-1E+10	1	-1E+10	1	-1E+10	1
4902643	39	C	07/16/2025	01:24	-132.918	43.610	0	609.70	0	4.2950	0	34.1150	0	27.056	0	603.939	0	23.4	4	7.4	4	-1E+10	1	-1E+10	1	-1E+10	1	-1E+10	1	-1E+10	1	-1E+10	1
4902643	39	C	07/16/2025	01:24	-132.918	43.610	0	629.60	0	4.2390	0	34.1280	0	27.073	0	623.621	0	21.1	4	6.7	4	-1E+10	1	-1E+10	1	-1E+10	1	-1E+10	1	-1E+10	1	-1E+10	1
4902643	39	C	07/16/2025	01:24	-132.918	43.610	0	649.70	0	4.1520	0	34.1460	0	27.096	0	643.499	0	18.7	4	5.9	4	-1E+10	1	-1E+10	1	-1E+10	1	-1E+10	1	-1E+10	1	-1E+10	1
4902643	39	C	07/16/2025	01:24	-132.918	43.610	0	670.10	0	4.1000	0	34.1620	0	27.114	0	663.672	0	16.9	4	5.3	4	-1E+10	1	-1E+10	1	-1E+10	1	-1E+10	1	-1E+10	1	-1E+10	1
4902643	39	C	07/16/2025	01:24	-132.918	43.610	0	689.80	0	4.0420	0	34.1750	0	27.131	0	683.151	0	15.5	4	4.9	4	-1E+10	1	-1E+10	1	-1E+10	1	-1E+10	1	-1E+10	1	-1E+10	1
4902643	39	C	07/16/2025	01:24	-132.918	43.610	0	709.70	0	3.9940	0	34.1890	0	27.147	0	702.826	0	13.8	4	4.4	4	-1E+10	1	-1E+10	1	-1E+10	1	-1E+10	1	-1E+10	1	-1E+10	1
4902643	39	C	07/16/2025	01:24	-132.918	43.610	0	729.90	0	3.9040	0	34.2030	0	27.167	0	722.795	0	12.8	4	4.0	4	-1E+10	1	-1E+10	1	-1E+10	1	-1E+10	1	-1E+10	1	-1E+10	1
4902643	39	C	07/16/2025	01:24	-132.918	43.610	0	749.90	0	3.8350	0	34.2170	0	27.186	0	742.565	0	11.3	4	3.5	4	-1E+10	1	-1E+10	1	-1E+10	1	-1E+10	1	-1E+10	1	-1E+10	1
4902643	39	C	07/16/2025	01:24	-132.918	43.610	0	769.90	0	3.7940	0	34.2360	0	27.205	0	762.333	0	10.1	4	3.2	4	-1E+10	1	-1E+10	1	-1E+10	1	-1E+10	1	-1E+10	1	-1E+10	1
4902643	39	C	07/16/2025	01:24	-132.918	43.610	0	789.80	0	3.7430	0	34.2490	0	27.221	0	782.000	0	9.2	4	2.9	4	-1E+10	1	-1E+10	1	-1E+10	1	-1E+10	1	-1E+10	1	-1E+10	1
4902643	39	C	07/16/2025	01:24	-132.918	43.610	0	809.90	0	3.7220	0	34.2680	0	27.238	0	801.863	0	8.2	4	2.6	4	-1E+10	1	-1E+10	1	-1E+10	1	-1E+10	1	-1E+10	1	-1E+10	1
4902643	39	C	07/16/2025	01:24	-132.918	43.610	0	830.10	0	3.6870	0	34.2850	0	27.255	0	821.823	0	7.3	4	2.3	4	-1E+10	1	-1E+10	1	-1E+10	1	-1E+10	1	-1E+10	1	-1E+10	1
4902643	39	C	07/16/2025	01:24	-132.918	43.610	0	849.50	0	3.7430	0	34.3130	0	27.272	0	840.990	0	6.5	4	2.0	4	-1E+10	1	-1E+10	1	-1E+10	1	-1E+10	1	-1E+10	1	-1E+10	1
4902643	39	C	07/16/2025	01:24	-132.918	43.610	0	869.50	0	3.7130	0	34.3310	0	27.289	0	860.749	0	6.4	4	2.0	4	-1E+10	1	-1E+10	1	-1E+10	1	-1E+10	1	-1E+10	1	-1E+10	1
4902643	39	C	07/16/2025	01:24	-132.918	43.610	0	889.50	0	3.6420	0	34.3360	0	27.300	0	880.505	0	6.5	4	2.0	4	-1E+10	1	-1E+10	1	-1E+10	1	-1E+10	1	-1E+10	1	-1E+10	1
4902643	39	C	07/16/2025	01:24	-132.918	43.610	0	909.40	0	3.5680	0	34.3400	0	27.311	0	900.161	0	6.5	4	2.0	4	-1E+10	1	-1E+10	1	-1E+10	1	-1E+10	1	-1E+10	1	-1E+10	1
4902643	39	C	07/16/2025	01:24	-132.918	43.610	0	929.50	0	3.5380	0	34.3530	0	27.324	0	920.013	0	6.5	4	2.0	4	-1E+10	1	-1E+10	1	-1E+10	1	-1E+10	1	-1E+10	1	-1E+10	1
4902643	39	C	07/16/2025	01:24	-132.918	43.610	0	949.50	0	3.5000	0	34.3650	0	27.338	0	939.764	0	6.6	4	2.1	4	-1E+10	1	-1E+10	1	-1E+10	1	-1E+10	1	-1E+10	1	-1E+10	1
4902643	39	C	07/16/2025	01:24	-132.918	43.610	0	969.50	0	3.4750	0	34.3730	0	27.347	0	959.513	0	6.8	4	2.1	4	-1E+10	1	-1E+10	1	-1E+10	1	-1E+10	1	-1E+10	1	-1E+10	1
4902643	39	C	07/16/2025	01:24	-132.918	43.610	0	990.00	0	3.4460	0	34.3820	0	27.357	0	979.754	0	7.0	4	2.2	4	-1E+10	1	-1E+10	1	-1E+10	1	-1E+10	1	-1E+10	1	-1E+10	1
4902643	39	C	07/16/2025	01:24	-132.918	43.610	0	1009.70	0	3.4100	0	34.3890	0	27.366	0	999.203	0	7.2	4	2.3	4	-1E+10	1	-1E+10	1	-1E+10	1	-1E+10	1	-1E+10	1	-1E+10	1
4902643	39	C	07/16/2025	01:24	-132.918	43.610	0	1029.60	0	3.3780	0	34.3980	0	27.376	0	1018.848	0	7.6	4	2.4	4	-1E+10	1	-1E+10	1	-1E+10	1	-1E+10	1	-1E+10	1	-1E+10	1
4902643	39	C	07/16/2025	01:24	-132.918	43.610	0	1049.90	0	3.3380	0	34.4040	0	27.385	0	1038.886	0	7.8	4	2.4	4	-1E+10	1	-1E+10	1	-1E+10	1	-1E+10	1	-1E+10	1	-1E+10	1
4902643	39	C	07/16/2025	01:24	-132.918	43.610	0	1069.80	0	3.2830	0	34.4110	0	27.396	0	1058.527	0	8.2	4	2.5	4	-1E+10	1	-1E+10	1	-1E+10	1	-1E+10	1	-1E+10	1	-1E+10	1
4902643	39	C	07/16/2025	01:24	-132.918	43.610	0	1089.70	0	3.2570	0	34.4150	0	27.402	0	1078.166	0	8.5	4	2.6	4	-1E+10	1	-1E+10	1	-1E+10	1	-1E+10	1	-1E+10	1	-1E+10	1
4902643	39	C	07/16/2025	01:24	-132.918	43.610	0	1109.70	0	3.2230	0	34.4220	0	27.410	0	1097.902	0	9.0	4	2.8	4	-1E+10	1	-1E+10	1	-1E+10	1	-1E+10	1	-1E+10	1	-1E+10	1
4902643	39	C	07/16/2025	01:24	-132.918	43.610	0	1129.70	0	3.1810	0	34.4300	0	27.421	0	1117.636	0	9.6	4	3.0	4	-1E+10	1	-1E+10	1	-1E+10	1	-1E+10	1	-1E+10	1	-1E+10	1
4902643	39	C	07/16/2025	01:24	-132.918	43.610	0	1149.90	0	3.1460	0	34.4380	0	27.431	0	1137.566	0	10.2	4	3.2	4	-1E+10	1	-1E+10	1	-1E+10	1	-1E+10	1	-1E+10	1	-1E+10	1
4902643	39	C	07/16/2025	01:24	-132.918	43.610	0	1169.90	0	3.1190	0	34.4430	0	27.437	0	1157.296	0	10.9	4	3.4	4	-1E+10	1	-1E+10	1	-1E+10	1	-1E+10	1	-1E+10	1	-1E+10	1
4902643	39	C	07/16/2025	01:24	-132.918	43.610	0	1189.00	0	3.0910	0	34.4500	0	27.445	0	1176.137	0	11.8	4	3.7	4	-1E+10	1	-1E+10	1	-1E+10	1	-1E+10	1	-1E+10	1	-1E+10	1
4902643	39	C	07/16/2025	01:24	-132.918	43.610	0	1209.60	0	3.0530	0	34.4570	0	27.455	0	1196.455	0	12.4	4	3.8	4	-1E+10	1	-1E+10	1	-1E+10	1	-1E+10	1	-1E+10	1	-1E+10	1
4902643	39	C	07/16/2025	01:24	-132.918	43.610	0	1229.60	0	3.0120	0	34.4620	0	27.462	0	1216.180	0	13.2	4	4.1	4	-1E+10	1	-1E+10	1	-1E+10	1	-1E+10	1	-1E+10	1	-1E+10	1
4902643	39	C	07/16/2025	01:24	-132.918	43.610	0	1249.50	0	2.9680	0	34.4680	0	27.471	0	1235.805	0	14.0	4	4.3	4	-1E+10	1	-1E+10	1	-1E+10	1	-1E+10	1	-1E+10	1	-1E+10	1
4902643	39	C	07/16/2025	01:24	-132.918	43.610	0	1270.40	0	2.9190	0	34.4730	0	27.480	0	1256.413	0	14.6	4	4.5	4	-1E+10	1	-1E+10	1	-1E+10	1	-1E+10	1	-1E+10	1	-1E+10	1
4902643	39	C	07/16/2025	01:24	-132.918	43.610	0	1290.00	0	2.8870	0	34.4770	0	27.486	0	1275.738	0	15.4	4	4.7	4	-1E+10	1	-1E+10	1	-1E+10	1	-1E+10	1	-1E+10	1	-1E+10	1
4902643	39	C	07/16/2025	01:24	-132.918	43.610	0	1310.00	0	2.8530	0	34.4840	0	27.495	0	1295.455	0	16.7	4	5.2	4	-1E+10	1	-1E+10	1	-1E+10	1	-1E+10	1	-1E+10	1	-1E+10	1
4902643	39	C	07/16/2025	01:24	-132.918	43.610	0	1330.00	0	2.8230	0	34.4880	0	27.501	0	1315.171	0	17.3	4	5.3	4	-1E+10	1	-1E+10	1	-1E+10	1	-1E+10	1	-1E+10	1	-1E+10	1
4902643	39	C	07/16/2025	01:24	-132.918	43.610	0	1350.20	0	2.7920	0	34.4910	0	27.506	0	1335.082	0	18.2	4	5.6	4	-1E+10	1	-1E+10	1	-1E+10	1	-1E+10	1	-1E+10	1	-1E+10	1
4902643	39	C	07/16/2025	01:24	-132.918	43.610	0	1369.70	0	2.7470	0	34.4960	0	27.514	0	1354.301	0	19.1	4	5.9	4	-1E+10	1	-1E+10	1	-1E+10	1	-1E+10	1	-1E+10	1	-1E+10	1
4902643	39	C	07/16/2025	01:24	-132.918	43.610	0	1390.40	0	2.7100	0	34.5000	0	27.520	0	1374.701	0	19.8	4	6.1	4	-1E+10	1	-1E+10	1	-1E+10	1	-1E+10	1	-1E+10	1	-1E+10	1
4902643	39	C	07/16/2025	01:24	-132.918	43.610	0	1409.50	0	2.6770	0	34.5040	0	27.526	0	1393.522	0	20.8	4	6.4	4	-1E+10	1	-1E+10	1	-1E+10	1	-1E+10	1	-1E+10	1	-1E+10	1
4902643	39	C	07/16/2025	01:24	-132.918	43.610	0	1429.30	0	2.6420	0	34.5090	0	27.534	0	1413.031	0	22.0	4	6.7	4	-1E+10	1	-1E+10	1	-1E+10	1	-1E+10	1	-1E+10	1	-1E+10	1
4902643	39	C	07/16/2025	01:24	-132.918	43.610	0	1449.60	0	2.5950	0	34.5140	0	27.542	0	1433.031	0	23.2	4	7.1	4	-1E+10	1	-1E+10	1	-1E+10	1	-1E+10	1	-1E+10	1	-1E+10	1
4902643	39	C	07/16/2025	01:24	-132.918	43.610	0	1470.00	0	2.5540	0	34.5180	0	27.548	0	1453.128	0	24.3	4	7.4	4	-1E+10	1	-1E+10	1	-1E+10	1	-1E+10	1	-1E+10	1	-1E+10	1
4902643	39	C	07/16/2025	01:24	-132.918	43.610	0	1489.80	0	2.5260	0	34.5220	0	27.554	0	1472.632	0	25.5	4	7.8	4	-1E+10	1	-1E+10	1	-1E+10	1	-1E+10	1	-1E+10	1	-1E+10	1
4902643	39	C	07/16/2025	01:24	-132.918	43.610	0	1509.80	0	2.4920	0	34.5260	0	27.560	0	1492.331	0	26.6	4	8.1	4	-1E+10	1	-1E+10	1	-1E+10	1	-1E+10	1	-1E+10	1	-1E+10	1
4902643	39	C	07/16/2025	01:24	-132.918	43.610	0	1529.90	0	2.4630	0	34.5300	0	27.566	0	1512.126	0	27.6	4	8.4	4	-1E+10	1	-1E+10	1	-1E+10	1	-1E+10	1	-1E+10	1	-1E+10	1
4902643	39	C	07/16/2025	01:24	-132.918	43.610	0	1550.50	0	2.4380	0	34.5320	0	27.570	0	1532.413	0	28.5	4	8.7	4	-1E+10	1	-1E+10	1	-1E+10	1	-1E+10	1	-1E+10	1	-1E+10	1
4902643	39	C	07/16/2025	01:24	-132.918	43.610	0	1569.70	0	2.4140	0	34.5360	0	27.575	0	1551.318	0	29.6	4	9.0	4	-1E+10	1	-1E+10	1	-1E+10	1	-1E+10	1	-1E+10	1	-1E+10	1
4902643	39	C	07/16/2025	01:24	-132.918	43.610	0	1589.50	0	2.3830	0	34.5390	0	27.580	0	1570.813	0	31.0	4	9.4	4	-1E+10	1	-1E+10	1	-1E+10	1	-1E+10	1	-1E+10	1	-1E+10	1
4902643	39	C	07/16/2025	01:24	-132.918	43.610	0	1609.60	0	2.3480	0	34.5440	0	27.587	0	1590.601	0	32.6	4	9.9	4	-1E+10	1	-1E+10	1	-1E+10	1	-1E+10	1	-1E+10	1	-1E+10	1
4902643	39	C	07/16/2025	01:24	-132.918	43.610	0	1629.80	0	2.3160	0	34.5470	0	27.592	0	1610.486	0	33.8	4	10.3	4	-1E+10	1	-1E+10	1	-1E+10	1	-1E+10	1	-1E+10	1	-1E+10	1
4902643	39	C	07/16/2025	01:24	-132.918	43.610	0	1649.80	0	2.2890	0	34.5510	0	27.598	0	1630.172	0	35.0	4	10.6	4	-1E+10	1	-1E+10	1	-1E+10	1	-1E+10	1	-1E+10	1	-1E+10	1
4902643	39	C	07/16/2025	01:24	-132.918	43.610	0	1669.80	0	2.2690	0	34.5530	0	27.601	0	1649.856	0	35.9	4	10.9	4	-1E+10	1	-1E+10	1	-1E+10	1	-1E+10	1	-1E+10	1	-1E+10	1
4902643	39	C	07/16/2025	01:24	-132.918	43.610	0	1689.80	0	2.2560	0	34.5550	0	27.604	0	1669.539	0	36.7	4	11.1	4	-1E+10	1	-1E+10	1	-1E+10	1	-1E+10	1	-1E+10	1	-1E+10	1
4902643	39	C	07/16/2025	01:24	-132.918	43.610	0	1709.90	0	2.2350	0	34.5580	0	27.608	0	1689.318	0	37.8	4	11.5	4	-1E+10	1	-1E+10	1	-1E+10	1	-1E+10	1	-1E+10	1	-1E+10	1
4902643	39	C	07/16/2025	01:24	-132.918	43.610	0	1729.90	0	2.2120	0	34.5610	0	27.612	0	1708.996	0	39.2	4	11.9	4	-1E+10	1	-1E+10	1	-1E+10	1	-1E+10	1	-1E+10	1	-1E+10	1
4902643	39	C	07/16/2025	01:24	-132.918	43.610	0	1749.80	0	2.1800	0	34.5650	0	27.618	0	1728.575	0	40.9	4	12.4	4	-1E+10	1	-1E+10	1	-1E+10	1	-1E+10	1	-1E+10	1	-1E+10	1
4902643	39	C	07/16/2025	01:24	-132.918	43.610	0	1769.80	0	2.1490	0	34.5690	0	27.624	0	1748.250	0	42.4	4	12.8	4	-1E+10	1	-1E+10	1	-1E+10	1	-1E+10	1	-1E+10	1	-1E+10	1
4902643	39	C	07/16/2025	01:24	-132.918	43.610	0	1790.50	0	2.1280	0	34.5720	0	27.628	0	1768.612	0	43.6	4	13.2	4	-1E+10	1	-1E+10	1	-1E+10	1	-1E+10	1	-1E+10	1	-1E+10	1
4902643	39	C	07/16/2025	01:24	-132.918	43.610	0	1809.90	0	2.1100	0	34.5740	0	27.631	0	1787.693	0	44.8	4	13.5	4	-1E+10	1	-1E+10	1	-1E+10	1	-1E+10	1	-1E+10	1	-1E+10	1
4902643	39	C	07/16/2025	01:24	-132.918	43.610	0	1829.60	0	2.0920	0	34.5770	0	27.635	0	1807.068	0	45.9	4	13.9	4	-1E+10	1	-1E+10	1	-1E+10	1	-1E+10	1	-1E+10	1	-1E+10	1
4902643	39	C	07/16/2025	01:24	-132.918	43.610	0	1849.60	0	2.0790	0	34.5790	0	27.638	0	1826.735	0	46.8	4	14.1	4	-1E+10	1	-1E+10	1	-1E+10	1	-1E+10	1	-1E+10	1	-1E+10	1
4902643	39	C	07/16/2025	01:24	-132.918	43.610	0	1869.00	0	2.0640	0	34.5810	0	27.641	0	1845.811	0	47.8	4	14.4	4	-1E+10	1	-1E+10	1	-1E+10	1	-1E+10	1	-1E+10	1	-1E+10	1
4902643	39	C	07/16/2025	01:24	-132.918	43.610	0	1889.80	0	2.0440	0	34.5840	0	27.645	0	1866.262	0	49.2	4	14.9	4	-1E+10	1	-1E+10	1	-1E+10	1	-1E+10	1	-1E+10	1	-1E+10	1
4902643	39	C	07/16/2025	01:24	-132.918	43.610	0	1909.50	0	2.0270	0	34.5870	0	27.649	0	1885.630	0	50.3	4	15.2	4	-1E+10	1	-1E+10	1	-1E+10	1	-1E+10	1	-1E+10	1	-1E+10	1
4902643	39	C	07/16/2025	01:24	-132.918	43.610	0	1929.60	0	2.0120	0	34.5890	0	27.652	0	1905.388	0	51.4	4	15.5	4	-1E+10	1	-1E+10	1	-1E+10	1	-1E+10	1	-1E+10	1	-1E+10	1
4902643	39	C	07/16/2025	01:24	-132.918	43.610	0	1949.60	0	1.9940	0	34.5910	0	27.655	0	1925.047	0	52.8	4	15.9	4	-1E+10	1	-1E+10	1	-1E+10	1	-1E+10	1	-1E+10	1	-1E+10	1
4902643	39	C	07/16/2025	01:24	-132.918	43.610	0	1969.70	0	1.9740	0	34.5940	0	27.659	0	1944.802	0	54.1	4	16.3	4	-1E+10	1	-1E+10	1	-1E+10	1	-1E+10	1	-1E+10	1	-1E+10	1
4902643	39	C	07/16/2025	01:24	-132.918	43.610	0	1989.60	0	1.9600	0	34.5970	0	27.662	0	1964.359	0	55.3	4	16.6	4	-1E+10	1	-1E+10	1	-1E+10	1	-1E+10	1	-1E+10	1	-1E+10	1
4902643	39	C	07/16/2025	01:24	-132.918	43.610	0	2009.50	0	1.9410	0	34.5990	4	27.666	0	1983.914	0	56.6	4	17.0	4	-1E+10	1	-1E+10	1	-1E+10	1	-1E+10	1	-1E+10	1	-1E+10	1
4902643	39	C	07/16/2025	01:24	-132.918	43.610	0	2029.60	0	1.9260	0	34.6010	4	27.668	0	2003.664	0	57.6	4	17.3	4	-1E+10	1	-1E+10	1	-1E+10	1	-1E+10	1	-1E+10	1	-1E+10	1
4902643	39	C	07/16/2025	01:24	-132.918	43.610	0	2048.90	0	1.9130	0	34.6030	4	27.671	0	2022.625	0	58.5	4	17.6	4	-1E+10	1	-1E+10	1	-1E+10	1	-1E+10	1	-1E+10	1	-1E+10	1
4902643	39	C	07/16/2025	01:24	-132.918	43.610	0	2069.80	0	1.8990	0	34.6050	4	27.674	0	2043.158	0	59.5	4	17.9	4	-1E+10	1	-1E+10	1	-1E+10	1	-1E+10	1	-1E+10	1	-1E+10	1
4902643	39	C	07/16/2025	01:24	-132.918	43.610	0	2089.90	0	1.8880	0	34.6070	4	27.677	0	2062.902	0	60.2	4	18.1	4	-1E+10	1	-1E+10	1	-1E+10	1	-1E+10	1	-1E+10	1	-1E+10	1
4902643	39	C	07/16/2025	01:24	-132.918	43.610	0	2109.60	0	1.8790	0	34.6080	4	27.678	0	2082.251	0	60.9	4	18.3	4	-1E+10	1	-1E+10	1	-1E+10	1	-1E+10	1	-1E+10	1	-1E+10	1
4902643	39	C	07/16/2025	01:24	-132.918	43.610	0	2129.70	0	1.8720	0	34.6090	4	27.680	0	2101.992	0	61.6	4	18.5	4	-1E+10	1	-1E+10	1	-1E+10	1	-1E+10	1	-1E+10	1	-1E+10	1
4902643	39	C	07/16/2025	01:24	-132.918	43.610	0	2150.30	0	1.8660	0	34.6110	4	27.682	0	2122.222	0	62.3	4	18.7	4	-1E+10	1	-1E+10	1	-1E+10	1	-1E+10	1	-1E+10	1	-1E+10	1
4902643	39	C	07/16/2025	01:24	-132.918	43.610	0	2169.50	0	1.8590	0	34.6120	4	27.683	0	2141.075	0	63.0	4	18.9	4	-1E+10	1	-1E+10	1	-1E+10	1	-1E+10	1	-1E+10	1	-1E+10	1
4902643	39	C	07/16/2025	01:24	-132.918	43.610	0	2189.60	0	1.8500	0	34.6130	4	27.685	0	2160.810	0	63.9	4	19.2	4	-1E+10	1	-1E+10	1	-1E+10	1	-1E+10	1	-1E+10	1	-1E+10	1
4902643	39	C	07/16/2025	01:24	-132.918	43.610	0	2209.20	0	1.8430	0	34.6150	4	27.687	0	2180.052	0	64.5	4	19.4	4	-1E+10	1	-1E+10	1	-1E+10	1	-1E+10	1	-1E+10	1	-1E+10	1
4902643	39	C	07/16/2025	01:24	-132.918	43.610	0	2229.60	0	1.8360	0	34.6160	4	27.689	0	2200.078	0	65.1	4	19.5	4	-1E+10	1	-1E+10	1	-1E+10	1	-1E+10	1	-1E+10	1	-1E+10	1
4902643	39	C	07/16/2025	01:24	-132.918	43.610	0	2249.70	0	1.8300	0	34.6170	4	27.690	0	2219.808	0	65.7	4	19.7	4	-1E+10	1	-1E+10	1	-1E+10	1	-1E+10	1	-1E+10	1	-1E+10	1
4902643	39	C	07/16/2025	01:24	-132.918	43.610	0	2269.90	0	1.8220	0	34.6180	4	27.691	0	2239.634	0	66.5	4	20.0	4	-1E+10	1	-1E+10	1	-1E+10	1	-1E+10	1	-1E+10	1	-1E+10	1
4902643	39	C	07/16/2025	01:24	-132.918	43.610	0	2289.60	0	1.8140	0	34.6190	4	27.693	0	2258.968	0	67.2	4	20.2	4	-1E+10	1	-1E+10	1	-1E+10	1	-1E+10	1	-1E+10	1	-1E+10	1
4902643	39	C	07/16/2025	01:24	-132.918	43.610	0	2309.40	0	1.8090	0	34.6200	4	27.694	0	2278.397	0	68.0	4	20.4	4	-1E+10	1	-1E+10	1	-1E+10	1	-1E+10	1	-1E+10	1	-1E+10	1
4902643	39	C	07/16/2025	01:24	-132.918	43.610	0	2329.50	0	1.8020	0	34.6210	4	27.696	0	2298.120	0	68.7	4	20.6	4	-1E+10	1	-1E+10	1	-1E+10	1	-1E+10	1	-1E+10	1	-1E+10	1
4902643	39	C	07/16/2025	01:24	-132.918	43.610	0	2349.60	0	1.7970	0	34.6220	4	27.697	0	2317.840	0	69.2	4	20.8	4	-1E+10	1	-1E+10	1	-1E+10	1	-1E+10	1	-1E+10	1	-1E+10	1
4902643	39	C	07/16/2025	01:24	-132.918	43.610	0	2370.40	0	1.7910	0	34.6230	4	27.698	0	2338.246	0	69.9	4	21.0	4	-1E+10	1	-1E+10	1	-1E+10	1	-1E+10	1	-1E+10	1	-1E+10	1
4902643	39	C	07/16/2025	01:24	-132.918	43.610	0	2389.60	0	1.7850	0	34.6240	4	27.700	0	2357.080	0	70.5	4	21.2	4	-1E+10	1	-1E+10	1	-1E+10	1	-1E+10	1	-1E+10	1	-1E+10	1
4902643	39	C	07/16/2025	01:24	-132.918	43.610	0	2409.70	0	1.7810	0	34.6250	4	27.701	0	2376.795	0	71.1	4	21.3	4	-1E+10	1	-1E+10	1	-1E+10	1	-1E+10	1	-1E+10	1	-1E+10	1
4902643	39	C	07/16/2025	01:24	-132.918	43.610	0	2430.10	0	1.7760	0	34.6250	4	27.701	0	2396.803	0	71.7	4	21.5	4	-1E+10	1	-1E+10	1	-1E+10	1	-1E+10	1	-1E+10	1	-1E+10	1
4902643	39	C	07/16/2025	01:24	-132.918	43.610	0	2449.80	0	1.7700	0	34.6260	4	27.703	0	2416.122	0	72.4	4	21.7	4	-1E+10	1	-1E+10	1	-1E+10	1	-1E+10	1	-1E+10	1	-1E+10	1
4902643	39	C	07/16/2025	01:24	-132.918	43.610	0	2469.80	0	1.7610	0	34.6270	4	27.704	0	2435.734	0	73.3	4	22.0	4	-1E+10	1	-1E+10	1	-1E+10	1	-1E+10	1	-1E+10	1	-1E+10	1
4902643	39	C	07/16/2025	01:24	-132.918	43.610	0	2489.70	0	1.7530	0	34.6280	4	27.706	0	2455.246	0	74.0	4	22.2	4	-1E+10	1	-1E+10	1	-1E+10	1	-1E+10	1	-1E+10	1	-1E+10	1
4902643	39	C	07/16/2025	01:24	-132.918	43.610	0	2510.10	0	1.7470	0	34.6290	4	27.707	0	2475.246	0	74.7	4	22.4	4	-1E+10	1	-1E+10	1	-1E+10	1	-1E+10	1	-1E+10	1	-1E+10	1
4902643	39	C	07/16/2025	01:24	-132.918	43.610	0	2529.70	0	1.7430	0	34.6300	4	27.709	0	2494.460	0	75.3	4	22.6	4	-1E+10	1	-1E+10	1	-1E+10	1	-1E+10	1	-1E+10	1	-1E+10	1
4902643	39	C	07/16/2025	01:24	-132.918	43.610	0	2549.90	0	1.7360	0	34.6310	4	27.710	0	2514.261	0	76.1	4	22.8	4	-1E+10	1	-1E+10	1	-1E+10	1	-1E+10	1	-1E+10	1	-1E+10	1
4902643	39	C	07/16/2025	01:24	-132.918	43.610	0	2569.70	0	1.7300	0	34.6320	4	27.711	0	2533.668	0	76.7	4	23.0	4	-1E+10	1	-1E+10	1	-1E+10	1	-1E+10	1	-1E+10	1	-1E+10	1
4902643	39	C	07/16/2025	01:24	-132.918	43.610	0	2589.80	0	1.7260	0	34.6330	4	27.713	0	2553.367	0	77.4	4	23.2	4	-1E+10	1	-1E+10	1	-1E+10	1	-1E+10	1	-1E+10	1	-1E+10	1
4902643	39	C	07/16/2025	01:24	-132.918	43.610	0	2609.70	0	1.7180	0	34.6340	4	27.714	0	2572.868	0	78.2	4	23.4	4	-1E+10	1	-1E+10	1	-1E+10	1	-1E+10	1	-1E+10	1	-1E+10	1
4902643	39	C	07/16/2025	01:24	-132.918	43.610	0	2629.80	0	1.7110	0	34.6350	4	27.715	0	2592.563	0	79.1	4	23.7	4	-1E+10	1	-1E+10	1	-1E+10	1	-1E+10	1	-1E+10	1	-1E+10	1
4902643	39	C	07/16/2025	01:24	-132.918	43.610	0	2649.20	0	1.7050	0	34.6360	4	27.717	0	2611.571	0	79.9	4	23.9	4	-1E+10	1	-1E+10	1	-1E+10	1	-1E+10	1	-1E+10	1	-1E+10	1
4902643	39	C	07/16/2025	01:24	-132.918	43.610	0	2669.80	0	1.6980	0	34.6370	4	27.718	0	2631.753	0	80.6	4	24.1	4	-1E+10	1	-1E+10	1	-1E+10	1	-1E+10	1	-1E+10	1	-1E+10	1
4902643	39	C	07/16/2025	01:24	-132.918	43.610	0	2689.70	0	1.6930	0	34.6380	4	27.720	0	2651.247	0	81.1	4	24.3	4	-1E+10	1	-1E+10	1	-1E+10	1	-1E+10	1	-1E+10	1	-1E+10	1
4902643	39	C	07/16/2025	01:24	-132.918	43.610	0	2709.50	0	1.6870	0	34.6380	4	27.720	0	2670.641	0	81.8	4	24.5	4	-1E+10	1	-1E+10	1	-1E+10	1	-1E+10	1	-1E+10	1	-1E+10	1
4902643	39	C	07/16/2025	01:24	-132.918	43.610	0	2729.60	0	1.6820	0	34.6390	4	27.721	0	2690.328	0	82.5	4	24.7	4	-1E+10	1	-1E+10	1	-1E+10	1	-1E+10	1	-1E+10	1	-1E+10	1
4902643	39	C	07/16/2025	01:24	-132.918	43.610	0	2749.70	0	1.6760	0	34.6400	4	27.723	0	2710.013	0	83.3	4	24.9	4	-1E+10	1	-1E+10	1	-1E+10	1	-1E+10	1	-1E+10	1	-1E+10	1
4902643	39	C	07/16/2025	01:24	-132.918	43.610	0	2769.60	0	1.6710	0	34.6410	4	27.724	0	2729.500	0	83.9	4	25.1	4	-1E+10	1	-1E+10	1	-1E+10	1	-1E+10	1	-1E+10	1	-1E+10	1
4902643	39	C	07/16/2025	01:24	-132.918	43.610	0	2789.60	0	1.6680	0	34.6410	4	27.724	0	2749.083	0	84.4	4	25.3	4	-1E+10	1	-1E+10	1	-1E+10	1	-1E+10	1	-1E+10	1	-1E+10	1
4902643	39	C	07/16/2025	01:24	-132.918	43.610	0	2809.70	0	1.6640	0	34.6420	4	27.726	0	2768.762	0	85.0	4	25.4	4	-1E+10	1	-1E+10	1	-1E+10	1	-1E+10	1	-1E+10	1	-1E+10	1
4902643	39	C	07/16/2025	01:24	-132.918	43.610	0	2829.90	0	1.6590	0	34.6430	4	27.727	0	2788.538	0	85.6	4	25.6	4	-1E+10	1	-1E+10	1	-1E+10	1	-1E+10	1	-1E+10	1	-1E+10	1
4902643	39	C	07/16/2025	01:24	-132.918	43.610	0	2849.70	0	1.6550	0	34.6430	4	27.727	0	2807.920	0	86.4	4	25.8	4	-1E+10	1	-1E+10	1	-1E+10	1	-1E+10	1	-1E+10	1	-1E+10	1
4902643	39	C	07/16/2025	01:24	-132.918	43.610	0	2870.40	0	1.6480	0	34.6440	4	27.729	0	2828.181	0	87.3	4	26.1	4	-1E+10	1	-1E+10	1	-1E+10	1	-1E+10	1	-1E+10	1	-1E+10	1
4902643	39	C	07/16/2025	01:24	-132.918	43.610	0	2889.80	0	1.6410	0	34.6450	4	27.730	0	2847.168	0	88.1	4	26.3	4	-1E+10	1	-1E+10	1	-1E+10	1	-1E+10	1	-1E+10	1	-1E+10	1
4902643	39	C	07/16/2025	01:24	-132.918	43.610	0	2909.50	0	1.6370	0	34.6460	4	27.731	0	2866.447	0	88.8	4	26.5	4	-1E+10	1	-1E+10	1	-1E+10	1	-1E+10	1	-1E+10	1	-1E+10	1
4902643	39	C	07/16/2025	01:24	-132.918	43.610	0	2929.80	0	1.6320	0	34.6470	4	27.733	0	2886.311	0	89.6	4	26.8	4	-1E+10	1	-1E+10	1	-1E+10	1	-1E+10	1	-1E+10	1	-1E+10	1
4902643	39	C	07/16/2025	01:24	-132.918	43.610	0	2949.70	0	1.6280	0	34.6480	4	27.734	0	2905.783	0	90.2	4	27.0	4	-1E+10	1	-1E+10	1	-1E+10	1	-1E+10	1	-1E+10	1	-1E+10	1
4902643	39	C	07/16/2025	01:24	-132.918	43.610	0	2969.70	0	1.6230	0	34.6480	4	27.734	0	2925.350	0	91.0	4	27.2	4	-1E+10	1	-1E+10	1	-1E+10	1	-1E+10	1	-1E+10	1	-1E+10	1
4902643	39	C	07/16/2025	01:24	-132.918	43.610	0	2989.80	0	1.6170	0	34.6490	4	27.736	0	2945.013	0	91.9	4	27.4	4	-1E+10	1	-1E+10	1	-1E+10	1	-1E+10	1	-1E+10	1	-1E+10	1
4902643	39	C	07/16/2025	01:24	-132.918	43.610	0	3009.50	0	1.6120	0	34.6500	4	27.737	0	2964.283	0	92.6	4	27.7	4	-1E+10	1	-1E+10	1	-1E+10	1	-1E+10	1	-1E+10	1	-1E+10	1
4902643	39	C	07/16/2025	01:24	-132.918	43.610	0	3029.50	0	1.6070	0	34.6510	4	27.738	0	2983.845	0	93.3	4	27.9	4	-1E+10	1	-1E+10	1	-1E+10	1	-1E+10	1	-1E+10	1	-1E+10	1
4902643	39	C	07/16/2025	01:24	-132.918	43.610	0	3049.70	0	1.6030	0	34.6520	4	27.740	0	3003.601	0	94.0	4	28.1	4	-1E+10	1	-1E+10	1	-1E+10	1	-1E+10	1	-1E+10	1	-1E+10	1
4902643	39	C	07/16/2025	01:24	-132.918	43.610	0	3069.80	0	1.5980	0	34.6520	4	27.740	0	3023.258	0	94.8	4	28.3	4	-1E+10	1	-1E+10	1	-1E+10	1	-1E+10	1	-1E+10	1	-1E+10	1
4902643	39	C	07/16/2025	01:24	-132.918	43.610	0	3089.10	0	1.5930	0	34.6530	4	27.741	0	3042.130	0	95.4	4	28.5	4	-1E+10	1	-1E+10	1	-1E+10	1	-1E+10	1	-1E+10	1	-1E+10	1
4902643	39	C	07/16/2025	01:24	-132.918	43.610	0	3109.90	0	1.5880	0	34.6540	4	27.743	0	3062.467	0	96.1	4	28.7	4	-1E+10	1	-1E+10	1	-1E+10	1	-1E+10	1	-1E+10	1	-1E+10	1
4902643	39	C	07/16/2025	01:24	-132.918	43.610	0	3130.10	0	1.5840	0	34.6550	4	27.744	0	3082.216	0	96.7	4	28.9	4	-1E+10	1	-1E+10	1	-1E+10	1	-1E+10	1	-1E+10	1	-1E+10	1
4902643	39	C	07/16/2025	01:24	-132.918	43.610	0	3149.80	0	1.5820	0	34.6550	4	27.744	0	3101.474	0	97.2	4	29.0	4	-1E+10	1	-1E+10	1	-1E+10	1	-1E+10	1	-1E+10	1	-1E+10	1
4902643	39	C	07/16/2025	01:24	-132.918	43.610	0	3170.60	0	1.5770	0	34.6560	4	27.745	0	3121.805	0	97.9	4	29.2	4	-1E+10	1	-1E+10	1	-1E+10	1	-1E+10	1	-1E+10	1	-1E+10	1
4902643	39	C	07/16/2025	01:24	-132.918	43.610	0	3189.80	0	1.5740	0	34.6570	4	27.747	0	3140.571	0	98.5	4	29.4	4	-1E+10	1	-1E+10	1	-1E+10	1	-1E+10	1	-1E+10	1	-1E+10	1
4902643	39	C	07/16/2025	01:24	-132.918	43.610	0	3209.40	0	1.5720	0	34.6570	4	27.747	0	3159.726	0	99.0	4	29.5	4	-1E+10	1	-1E+10	1	-1E+10	1	-1E+10	1	-1E+10	1	-1E+10	1
4902643	39	C	07/16/2025	01:24	-132.918	43.610	0	3229.70	0	1.5700	0	34.6580	4	27.748	0	3179.564	0	99.5	4	29.7	4	-1E+10	1	-1E+10	1	-1E+10	1	-1E+10	1	-1E+10	1	-1E+10	1
4902643	39	C	07/16/2025	01:24	-132.918	43.610	0	3250.80	0	1.5660	0	34.6590	4	27.749	0	3200.182	0	100.1	4	29.9	4	-1E+10	1	-1E+10	1	-1E+10	1	-1E+10	1	-1E+10	1	-1E+10	1
4902643	39	C	07/16/2025	01:24	-132.918	43.610	0	3270.00	0	1.5640	0	34.6590	4	27.749	0	3218.941	0	100.6	4	30.0	4	-1E+10	1	-1E+10	1	-1E+10	1	-1E+10	1	-1E+10	1	-1E+10	1
4902643	39	C	07/16/2025	01:24	-132.918	43.610	0	3289.70	0	1.5630	0	34.6600	4	27.750	0	3238.187	0	101.1	4	30.2	4	-1E+10	1	-1E+10	1	-1E+10	1	-1E+10	1	-1E+10	1	-1E+10	1
4902643	39	C	07/16/2025	01:24	-132.918	43.610	0	3310.20	0	1.5600	0	34.6600	4	27.751	0	3258.212	0	101.6	4	30.3	4	-1E+10	1	-1E+10	1	-1E+10	1	-1E+10	1	-1E+10	1	-1E+10	1
4902643	39	C	07/16/2025	01:24	-132.918	43.610	0	3330.00	0	1.5580	0	34.6610	4	27.752	0	3277.553	0	102.1	4	30.5	4	-1E+10	1	-1E+10	1	-1E+10	1	-1E+10	1	-1E+10	1	-1E+10	1
4902643	39	C	07/16/2025	01:24	-132.918	43.610	0	3350.10	0	1.5570	0	34.6620	4	27.753	0	3297.184	0	102.5	4	30.6	4	-1E+10	1	-1E+10	1	-1E+10	1	-1E+10	1	-1E+10	1	-1E+10	1
4902643	39	C	07/16/2025	01:24	-132.918	43.610	0	3369.90	0	1.5550	0	34.6620	4	27.753	0	3316.521	0	103.0	4	30.7	4	-1E+10	1	-1E+10	1	-1E+10	1	-1E+10	1	-1E+10	1	-1E+10	1
4902643	39	C	07/16/2025	01:24	-132.918	43.610	0	3389.80	0	1.5530	0	34.6630	4	27.754	0	3335.954	0	103.4	4	30.8	4	-1E+10	1	-1E+10	1	-1E+10	1	-1E+10	1	-1E+10	1	-1E+10	1
4902643	39	C	07/16/2025	01:24	-132.918	43.610	0	3409.80	0	1.5520	0	34.6630	4	27.754	0	3355.483	0	103.8	4	31.0	4	-1E+10	1	-1E+10	1	-1E+10	1	-1E+10	1	-1E+10	1	-1E+10	1
4902643	39	C	07/16/2025	01:24	-132.918	43.610	0	3430.00	0	1.5510	0	34.6640	4	27.756	0	3375.205	0	104.1	4	31.0	4	-1E+10	1	-1E+10	1	-1E+10	1	-1E+10	1	-1E+10	1	-1E+10	1
4902643	39	C	07/16/2025	01:24	-132.918	43.610	0	3449.70	0	1.5510	0	34.6640	4	27.756	0	3394.437	0	104.4	4	31.1	4	-1E+10	1	-1E+10	1	-1E+10	1	-1E+10	1	-1E+10	1	-1E+10	1
4902643	39	C	07/16/2025	01:24	-132.918	43.610	0	3469.90	0	1.5510	0	34.6640	4	27.756	0	3414.156	0	104.7	4	31.2	4	-1E+10	1	-1E+10	1	-1E+10	1	-1E+10	1	-1E+10	1	-1E+10	1
4902643	39	C	07/16/2025	01:24	-132.918	43.610	0	3489.80	0	1.5510	0	34.6650	4	27.757	0	3433.580	0	105.0	4	31.3	4	-1E+10	1	-1E+10	1	-1E+10	1	-1E+10	1	-1E+10	1	-1E+10	1
4902643	39	C	07/16/2025	01:24	-132.918	43.610	0	3509.70	0	1.5510	0	34.6650	4	27.757	0	3453.002	0	105.2	4	31.4	4	-1E+10	1	-1E+10	1	-1E+10	1	-1E+10	1	-1E+10	1	-1E+10	1
4902643	39	C	07/16/2025	01:24	-132.918	43.610	0	3530.20	0	1.5510	0	34.6660	4	27.758	0	3473.008	0	105.3	4	31.4	4	-1E+10	1	-1E+10	1	-1E+10	1	-1E+10	1	-1E+10	1	-1E+10	1
4902643	39	C	07/16/2025	01:24	-132.918	43.610	0	3549.90	0	1.5520	0	34.6660	4	27.758	0	3492.232	0	105.5	4	31.5	4	-1E+10	1	-1E+10	1	-1E+10	1	-1E+10	1	-1E+10	1	-1E+10	1
4902643	39	C	07/16/2025	01:24	-132.918	43.610	0	3570.00	0	1.5520	0	34.6660	4	27.758	0	3511.844	0	105.7	4	31.5	4	-1E+10	1	-1E+10	1	-1E+10	1	-1E+10	1	-1E+10	1	-1E+10	1
4902643	39	C	07/16/2025	01:24	-132.918	43.610	0	3590.20	0	1.5520	0	34.6670	4	27.759	0	3531.552	0	105.9	4	31.6	4	-1E+10	1	-1E+10	1	-1E+10	1	-1E+10	1	-1E+10	1	-1E+10	1
4902643	39	C	07/16/2025	01:24	-132.918	43.610	0	3610.10	0	1.5520	0	34.6670	4	27.759	0	3550.966	0	106.0	4	31.6	4	-1E+10	1	-1E+10	1	-1E+10	1	-1E+10	1	-1E+10	1	-1E+10	1
4902643	39	C	07/16/2025	01:24	-132.918	43.610	0	3630.00	0	1.5520	0	34.6670	4	27.759	0	3570.378	0	106.2	4	31.7	4	-1E+10	1	-1E+10	1	-1E+10	1	-1E+10	1	-1E+10	1	-1E+10	1
4902643	39	C	07/16/2025	01:24	-132.918	43.610	0	3640.80	0	1.5530	0	34.6680	4	27.760	0	3580.912	0	106.2	4	31.7	4	-1E+10	1	-1E+10	1	-1E+10	1	-1E+10	1	-1E+10	1	-1E+10	1
4902643	39	C	07/16/2025	01:24	-132.918	43.610	0	3641.80	0	1.5530	0	34.6680	4	27.760	0	3581.888	0	106.2	4	31.7	4	-1E+10	1	-1E+10	1	-1E+10	1	-1E+10	1	-1E+10	1	-1E+10	1
4902643	39	C	07/16/2025	01:24	-132.918	43.610	0	3642.70	0	1.5530	0	34.6680	4	27.760	0	3582.765	0	106.2	4	31.7	4	-1E+10	1	-1E+10	1	-1E+10	1	-1E+10	1	-1E+10	1	-1E+10	1
4902643	39	C	07/16/2025	01:24	-132.918	43.610	0	3643.70	0	1.5530	0	34.6680	4	27.760	0	3583.741	0	106.2	4	31.7	4	-1E+10	1	-1E+10	1	-1E+10	1	-1E+10	1	-1E+10	1	-1E+10	1
4902643	39	C	07/16/2025	01:24	-132.918	43.610	0	3644.60	0	1.5520	0	34.6680	4	27.760	0	3584.619	0	106.2	4	31.7	4	-1E+10	1	-1E+10	1	-1E+10	1	-1E+10	1	-1E+10	1	-1E+10	1
4902643	39	C	07/16/2025	01:24	-132.918	43.610	0	3645.50	0	1.5530	0	34.6680	4	27.760	0	3585.497	0	106.2	4	31.7	4	-1E+10	1	-1E+10	1	-1E+10	1	-1E+10	1	-1E+10	1	-1E+10	1
4902643	39	C	07/16/2025	01:24	-132.918	43.610	0	3646.40	0	1.5530	0	34.6680	4	27.760	0	3586.374	0	106.2	4	31.7	4	-1E+10	1	-1E+10	1	-1E+10	1	-1E+10	1	-1E+10	1	-1E+10	1
4902643	39	C	07/16/2025	01:24	-132.918	43.610	0	3647.40	0	1.5530	0	34.6680	4	27.760	0	3587.350	0	106.2	4	31.7	4	-1E+10	1	-1E+10	1	-1E+10	1	-1E+10	1	-1E+10	1	-1E+10	1
4902643	39	C	07/16/2025	01:24	-132.918	43.610	0	3648.30	0	1.5530	0	34.6680	4	27.760	0	3588.228	0	106.2	4	31.7	4	-1E+10	1	-1E+10	1	-1E+10	1	-1E+10	1	-1E+10	1	-1E+10	1
4902643	39	C	07/16/2025	01:24	-132.918	43.610	0	3649.20	0	1.5530	0	34.6680	4	27.760	0	3589.105	0	106.3	4	31.7	4	-1E+10	1	-1E+10	1	-1E+10	1	-1E+10	1	-1E+10	1	-1E+10	1
4902643	39	C	07/16/2025	01:24	-132.918	43.610	0	3650.20	0	1.5530	0	34.6680	4	27.760	0	3590.081	0	106.3	4	31.7	4	-1E+10	1	-1E+10	1	-1E+10	1	-1E+10	1	-1E+10	1	-1E+10	1
4902643	39	C	07/16/2025	01:24	-132.918	43.610	0	3651.60	0	1.5530	0	34.6680	4	27.760	0	3591.446	0	106.2	4	31.7	4	-1E+10	1	-1E+10	1	-1E+10	1	-1E+10	1	-1E+10	1	-1E+10	1
4902643	39	C	07/16/2025	01:24	-132.918	43.610	0	3653.10	0	1.5530	0	34.6680	4	27.760	0	3592.909	0	106.3	4	31.7	4	-1E+10	1	-1E+10	1	-1E+10	1	-1E+10	1	-1E+10	1	-1E+10	1
4902643	39	C	07/16/2025	01:24	-132.918	43.610	0	3654.50	0	1.5520	0	34.6680	4	27.760	0	3594.275	0	106.2	4	31.7	4	-1E+10	1	-1E+10	1	-1E+10	1	-1E+10	1	-1E+10	1	-1E+10	1
4902643	39	C	07/16/2025	01:24	-132.918	43.610	0	3655.80	0	1.5520	0	34.6680	4	27.760	0	3595.543	0	106.2	4	31.7	4	-1E+10	1	-1E+10	1	-1E+10	1	-1E+10	1	-1E+10	1	-1E+10	1
4902643	39	C	07/16/2025	01:24	-132.918	43.610	0	3656.80	0	1.5520	0	34.6680	4	27.760	0	3596.518	0	106.2	4	31.7	4	-1E+10	1	-1E+10	1	-1E+10	1	-1E+10	1	-1E+10	1	-1E+10	1
4902643	39	C	07/16/2025	01:24	-132.918	43.610	0	3657.50	0	1.5520	0	34.6680	4	27.760	0	3597.201	0	106.2	4	31.7	4	-1E+10	1	-1E+10	1	-1E+10	1	-1E+10	1	-1E+10	1	-1E+10	1
4902643	39	C	07/16/2025	01:24	-132.918	43.610	0	3658.50	0	1.5520	0	34.6680	4	27.760	0	3598.176	0	106.2	4	31.7	4	-1E+10	1	-1E+10	1	-1E+10	1	-1E+10	1	-1E+10	1	-1E+10	1
4902643	39	C	07/16/2025	01:24	-132.918	43.610	0	3660.00	0	1.5510	0	34.6690	4	27.761	0	3599.639	0	106.2	4	31.7	4	-1E+10	1	-1E+10	1	-1E+10	1	-1E+10	1	-1E+10	1	-1E+10	1
4902643	39	C	07/16/2025	01:24	-132.918	43.610	0	3660.80	0	1.5510	0	34.6690	4	27.761	0	3600.419	0	106.2	4	31.7	4	-1E+10	1	-1E+10	1	-1E+10	1	-1E+10	1	-1E+10	1	-1E+10	1
4902643	39	C	07/16/2025	01:24	-132.918	43.610	0	3661.60	0	1.5510	0	34.6690	4	27.761	0	3601.199	0	106.2	4	31.7	4	-1E+10	1	-1E+10	1	-1E+10	1	-1E+10	1	-1E+10	1	-1E+10	1
4902643	39	C	07/16/2025	01:24	-132.918	43.610	0	3662.30	0	1.5510	0	34.6690	4	27.761	0	3601.882	0	106.2	4	31.7	4	-1E+10	1	-1E+10	1	-1E+10	1	-1E+10	1	-1E+10	1	-1E+10	1
4902643	39	C	07/16/2025	01:24	-132.918	43.610	0	3663.50	0	1.5500	0	34.6690	4	27.761	0	3603.052	0	106.2	4	31.7	4	-1E+10	1	-1E+10	1	-1E+10	1	-1E+10	1	-1E+10	1	-1E+10	1
4902643	39	C	07/16/2025	01:24	-132.918	43.610	0	3664.70	0	1.5500	0	34.6690	4	27.761	0	3604.223	0	106.2	4	31.7	4	-1E+10	1	-1E+10	1	-1E+10	1	-1E+10	1	-1E+10	1	-1E+10	1
4902643	39	C	07/16/2025	01:24	-132.918	43.610	0	3665.50	0	1.5500	0	34.6690	4	27.761	0	3605.003	0	106.2	4	31.7	4	-1E+10	1	-1E+10	1	-1E+10	1	-1E+10	1	-1E+10	1	-1E+10	1
4902643	39	C	07/16/2025	01:24	-132.918	43.610	0	3666.60	0	1.5500	0	34.6680	4	27.761	0	3606.076	0	106.2	4	31.7	4	-1E+10	1	-1E+10	1	-1E+10	1	-1E+10	1	-1E+10	1	-1E+10	1
4902643	39	C	07/16/2025	01:24	-132.918	43.610	0	3667.80	0	1.5510	0	34.6690	4	27.761	0	3607.246	0	106.2	4	31.7	4	-1E+10	1	-1E+10	1	-1E+10	1	-1E+10	1	-1E+10	1	-1E+10	1
4902643	39	C	07/16/2025	01:24	-132.918	43.610	0	3668.60	0	1.5510	0	34.6690	4	27.761	0	3608.026	0	106.2	4	31.7	4	-1E+10	1	-1E+10	1	-1E+10	1	-1E+10	1	-1E+10	1	-1E+10	1
4902643	39	C	07/16/2025	01:24	-132.918	43.610	0	3669.30	0	1.5510	0	34.6690	4	27.761	0	3608.709	0	106.2	4	31.7	4	-1E+10	1	-1E+10	1	-1E+10	1	-1E+10	1	-1E+10	1	-1E+10	1
4902643	39	C	07/16/2025	01:24	-132.918	43.610	0	3670.60	0	1.5500	0	34.6690	4	27.761	0	3609.977	0	106.2	4	31.7	4	-1E+10	1	-1E+10	1	-1E+10	1	-1E+10	1	-1E+10	1	-1E+10	1
4902643	39	C	07/16/2025	01:24	-132.918	43.610	0	3671.70	0	1.5500	0	34.6690	4	27.761	0	3611.050	0	106.2	4	31.7	4	-1E+10	1	-1E+10	1	-1E+10	1	-1E+10	1	-1E+10	1	-1E+10	1
4902643	39	C	07/16/2025	01:24	-132.918	43.610	0	3672.60	0	1.5510	0	34.6690	4	27.761	0	3611.927	0	106.2	4	31.7	4	-1E+10	1	-1E+10	1	-1E+10	1	-1E+10	1	-1E+10	1	-1E+10	1
4902643	39	C	07/16/2025	01:24	-132.918	43.610	0	3673.60	0	1.5510	0	34.6690	4	27.761	0	3612.903	0	106.2	4	31.7	4	-1E+10	1	-1E+10	1	-1E+10	1	-1E+10	1	-1E+10	1	-1E+10	1
4902643	39	C	07/16/2025	01:24	-132.918	43.610	0	3674.80	0	1.5510	0	34.6690	4	27.761	0	3614.073	0	106.2	4	31.7	4	-1E+10	1	-1E+10	1	-1E+10	1	-1E+10	1	-1E+10	1	-1E+10	1
4902643	39	C	07/16/2025	01:24	-132.918	43.610	0	3675.50	0	1.5510	0	34.6690	4	27.761	0	3614.756	0	106.2	4	31.7	4	-1E+10	1	-1E+10	1	-1E+10	1	-1E+10	1	-1E+10	1	-1E+10	1
4902643	39	C	07/16/2025	01:24	-132.918	43.610	0	3676.60	0	1.5510	0	34.6690	4	27.761	0	3615.828	0	106.2	4	31.7	4	-1E+10	1	-1E+10	1	-1E+10	1	-1E+10	1	-1E+10	1	-1E+10	1
4902643	39	C	07/16/2025	01:24	-132.918	43.610	0	3677.70	0	1.5510	0	34.6690	4	27.761	0	3616.901	0	106.2	4	31.7	4	-1E+10	1	-1E+10	1	-1E+10	1	-1E+10	1	-1E+10	1	-1E+10	1
4902643	39	C	07/16/2025	01:24	-132.918	43.610	0	3678.80	0	1.5510	0	34.6690	4	27.761	0	3617.974	0	106.2	4	31.7	4	-1E+10	1	-1E+10	1	-1E+10	1	-1E+10	1	-1E+10	1	-1E+10	1
4902643	39	C	07/16/2025	01:24	-132.918	43.610	0	3679.70	0	1.5510	0	34.6690	4	27.761	0	3618.851	0	106.2	4	31.7	4	-1E+10	1	-1E+10	1	-1E+10	1	-1E+10	1	-1E+10	1	-1E+10	1
4902643	39	C	07/16/2025	01:24	-132.918	43.610	0	3680.60	0	1.5520	0	34.6690	4	27.761	0	3619.729	0	106.2	4	31.7	4	-1E+10	1	-1E+10	1	-1E+10	1	-1E+10	1	-1E+10	1	-1E+10	1
4902643	39	C	07/16/2025	01:24	-132.918	43.610	0	3681.50	0	1.5520	0	34.6690	4	27.761	0	3620.607	0	106.2	4	31.7	4	-1E+10	1	-1E+10	1	-1E+10	1	-1E+10	1	-1E+10	1	-1E+10	1
4902643	39	C	07/16/2025	01:24	-132.918	43.610	0	3682.50	0	1.5520	0	34.6690	4	27.761	0	3621.582	0	106.2	4	31.7	4	-1E+10	1	-1E+10	1	-1E+10	1	-1E+10	1	-1E+10	1	-1E+10	1
4902643	39	C	07/16/2025	01:24	-132.918	43.610	0	3683.50	0	1.5510	0	34.6690	4	27.761	0	3622.557	0	106.2	4	31.7	4	-1E+10	1	-1E+10	1	-1E+10	1	-1E+10	1	-1E+10	1	-1E+10	1
4902643	39	C	07/16/2025	01:24	-132.918	43.610	0	3684.50	0	1.5520	0	34.6690	4	27.761	0	3623.533	0	106.2	4	31.7	4	-1E+10	1	-1E+10	1	-1E+10	1	-1E+10	1	-1E+10	1	-1E+10	1
4902643	39	C	07/16/2025	01:24	-132.918	43.610	0	3685.60	0	1.5520	0	34.6690	4	27.761	0	3624.605	0	106.2	4	31.7	4	-1E+10	1	-1E+10	1	-1E+10	1	-1E+10	1	-1E+10	1	-1E+10	1
4902643	39	C	07/16/2025	01:24	-132.918	43.610	0	3686.60	0	1.5520	0	34.6690	4	27.761	0	3625.581	0	106.2	4	31.7	4	-1E+10	1	-1E+10	1	-1E+10	1	-1E+10	1	-1E+10	1	-1E+10	1
4902643	39	C	07/16/2025	01:24	-132.918	43.610	0	3687.60	0	1.5520	0	34.6690	4	27.761	0	3626.556	0	106.1	4	31.7	4	-1E+10	1	-1E+10	1	-1E+10	1	-1E+10	1	-1E+10	1	-1E+10	1
4902643	39	C	07/16/2025	01:24	-132.918	43.610	0	3688.40	0	1.5530	0	34.6690	4	27.761	0	3627.336	0	106.2	4	31.7	4	-1E+10	1	-1E+10	1	-1E+10	1	-1E+10	1	-1E+10	1	-1E+10	1
4902643	39	C	07/16/2025	01:24	-132.918	43.610	0																										
4902643	40	C	07/26/2025	04:06	-132.853	43.568	0	1.70	0	17.4520	0	32.5550	0	23.533	0	1.686	0	226.8	4	94.4	4	-1E+10	1	-1E+10	1	-1E+10	1	-1E+10	1	-1E+10	1	-1E+10	1
4902643	40	C	07/26/2025	04:06	-132.853	43.568	0	1.90	0	17.4500	0	32.5580	0	23.536	0	1.885	0	226.8	4	94.4	4	-1E+10	1	-1E+10	1	-1E+10	1	-1E+10	1	-1E+10	1	-1E+10	1
4902643	40	C	07/26/2025	04:06	-132.853	43.568	0	2.00	0	17.4540	0	32.5540	0	23.532	0	1.984	0	226.8	4	94.4	4	-1E+10	1	-1E+10	1	-1E+10	1	-1E+10	1	-1E+10	1	-1E+10	1
4902643	40	C	07/26/2025	04:06	-132.853	43.568	0	2.10	0	17.4530	0	32.5545	0	23.532	0	2.083	0	226.8	4	94.4	4	-1E+10	1	-1E+10	1	-1E+10	1	-1E+10	1	-1E+10	1	-1E+10	1
4902643	40	C	07/26/2025	04:06	-132.853	43.568	0	2.20	0	17.4525	0	32.5545	0	23.533	0	2.182	0	226.8	4	94.4	4	-1E+10	1	-1E+10	1	-1E+10	1	-1E+10	1	-1E+10	1	-1E+10	1
4902643	40	C	07/26/2025	04:06	-132.853	43.568	0	2.30	0	17.4550	0	32.5530	0	23.531	0	2.282	0	226.7	4	94.3	4	-1E+10	1	-1E+10	1	-1E+10	1	-1E+10	1	-1E+10	1	-1E+10	1
4902643	40	C	07/26/2025	04:06	-132.853	43.568	0	2.50	0	17.4540	0	32.5530	0	23.531	0	2.480	0	-1e10	1	-1e10	1	-1E+10	1	-1E+10	1	-1E+10	1	-1E+10	1	-1E+10	1	-1E+10	1
4902643	40	C	07/26/2025	04:06	-132.853	43.568	0	2.60	0	17.4580	0	32.5440	0	23.523	0	2.579	0	226.8	4	94.4	4	-1E+10	1	-1E+10	1	-1E+10	1	-1E+10	1	-1E+10	1	-1E+10	1
4902643	40	C	07/26/2025	04:06	-132.853	43.568	0	3.70	0	17.4590	0	32.5480	0	23.526	0	3.670	0	226.9	4	94.4	4	-1E+10	1	-1E+10	1	-1E+10	1	-1E+10	1	-1E+10	1	-1E+10	1
4902643	40	C	07/26/2025	04:06	-132.853	43.568	0	4.50	0	17.4590	0	32.5550	0	23.532	0	4.464	0	226.9	4	94.4	4	-1E+10	1	-1E+10	1	-1E+10	1	-1E+10	1	-1E+10	1	-1E+10	1
4902643	40	C	07/26/2025	04:06	-132.853	43.568	0	5.50	0	17.4590	0	32.5540	0	23.531	0	5.456	0	227.0	4	94.5	4	-1E+10	1	-1E+10	1	-1E+10	1	-1E+10	1	-1E+10	1	-1E+10	1
4902643	40	C	07/26/2025	04:06	-132.853	43.568	0	6.50	0	17.4500	0	32.5540	0	23.533	0	6.448	0	226.9	4	94.4	4	-1E+10	1	-1E+10	1	-1E+10	1	-1E+10	1	-1E+10	1	-1E+10	1
4902643	40	C	07/26/2025	04:06	-132.853	43.568	0	7.70	0	17.4230	0	32.5520	0	23.538	0	7.638	0	227.1	4	94.5	4	-1E+10	1	-1E+10	1	-1E+10	1	-1E+10	1	-1E+10	1	-1E+10	1
4902643	40	C	07/26/2025	04:06	-132.853	43.568	0	8.40	0	17.3980	0	32.5500	0	23.542	0	8.333	0	227.3	4	94.5	4	-1E+10	1	-1E+10	1	-1E+10	1	-1E+10	1	-1E+10	1	-1E+10	1
4902643	40	C	07/26/2025	04:06	-132.853	43.568	0	9.40	0	17.2160	0	32.5630	0	23.595	0	9.325	0	227.8	4	94.4	4	-1E+10	1	-1E+10	1	-1E+10	1	-1E+10	1	-1E+10	1	-1E+10	1
4902643	40	C	07/26/2025	04:06	-132.853	43.568	0	14.60	0	16.9940	0	32.5520	0	23.639	0	14.483	0	230.5	4	95.1	4	-1E+10	1	-1E+10	1	-1E+10	1	-1E+10	1	-1E+10	1	-1E+10	1
4902643	40	C	07/26/2025	04:06	-132.853	43.568	0	24.90	0	15.9410	0	32.5390	0	23.870	0	24.700	0	244.0	4	98.6	4	-1E+10	1	-1E+10	1	-1E+10	1	-1E+10	1	-1E+10	1	-1E+10	1
4902643	40	C	07/26/2025	04:06	-132.853	43.568	0	34.50	0	13.6570	0	32.5170	0	24.341	0	34.222	0	262.1	4	101.2	4	-1E+10	1	-1E+10	1	-1E+10	1	-1E+10	1	-1E+10	1	-1E+10	1
4902643	40	C	07/26/2025	04:06	-132.853	43.568	0	45.40	0	12.2870	0	32.5090	0	24.603	0	45.032	0	263.7	4	99.0	4	-1E+10	1	-1E+10	1	-1E+10	1	-1E+10	1	-1E+10	1	-1E+10	1
4902643	40	C	07/26/2025	04:06	-132.853	43.568	0	54.90	0	11.6290	0	32.5390	0	24.748	0	54.454	0	257.3	4	95.3	4	-1E+10	1	-1E+10	1	-1E+10	1	-1E+10	1	-1E+10	1	-1E+10	1
4902643	40	C	07/26/2025	04:06	-132.853	43.568	0	64.80	0	10.8220	0	32.5700	0	24.917	0	64.272	0	256.0	4	93.2	4	-1E+10	1	-1E+10	1	-1E+10	1	-1E+10	1	-1E+10	1	-1E+10	1
4902643	40	C	07/26/2025	04:06	-132.853	43.568	0	74.70	0	10.1650	0	32.5890	0	25.044	0	74.090	0	254.7	4	91.5	4	-1E+10	1	-1E+10	1	-1E+10	1	-1E+10	1	-1E+10	1	-1E+10	1
4902643	40	C	07/26/2025	04:06	-132.853	43.568	0	84.80	0	9.9590	0	32.5970	0	25.085	0	84.105	0	251.5	4	89.9	4	-1E+10	1	-1E+10	1	-1E+10	1	-1E+10	1	-1E+10	1	-1E+10	1
4902643	40	C	07/26/2025	04:06	-132.853	43.568	0	94.90	0	9.8710	0	32.6090	0	25.109	0	94.120	0	245.8	4	87.7	4	-1E+10	1	-1E+10	1	-1E+10	1	-1E+10	1	-1E+10	1	-1E+10	1
4902643	40	C	07/26/2025	04:06	-132.853	43.568	0	104.80	0	9.7930	0	32.6270	0	25.136	0	103.937	0	237.1	4	84.5	4	-1E+10	1	-1E+10	1	-1E+10	1	-1E+10	1	-1E+10	1	-1E+10	1
4902643	40	C	07/26/2025	04:06	-132.853	43.568	0	115.20	0	9.7140	0	32.8780	0	25.345	0	114.248	0	220.9	4	78.8	4	-1E+10	1	-1E+10	1	-1E+10	1	-1E+10	1	-1E+10	1	-1E+10	1
4902643	40	C	07/26/2025	04:06	-132.853	43.568	0	125.10	0	9.3960	0	33.2130	0	25.659	0	124.063	0	211.4	4	75.0	4	-1E+10	1	-1E+10	1	-1E+10	1	-1E+10	1	-1E+10	1	-1E+10	1
4902643	40	C	07/26/2025	04:06	-132.853	43.568	0	135.70	0	9.1270	0	33.3910	0	25.841	0	134.572	0	205.1	4	72.4	4	-1E+10	1	-1E+10	1	-1E+10	1	-1E+10	1	-1E+10	1	-1E+10	1
4902643	40	C	07/26/2025	04:06	-132.853	43.568	0	145.10	0	8.9390	0	33.5100	0	25.964	0	143.891	0	199.7	4	70.3	4	-1E+10	1	-1E+10	1	-1E+10	1	-1E+10	1	-1E+10	1	-1E+10	1
4902643	40	C	07/26/2025	04:06	-132.853	43.568	0	154.90	0	8.7740	0	33.6240	0	26.079	0	153.605	0	196.0	4	68.8	4	-1E+10	1	-1E+10	1	-1E+10	1	-1E+10	1	-1E+10	1	-1E+10	1
4902643	40	C	07/26/2025	04:06	-132.853	43.568	0	164.70	0	8.6950	0	33.6570	0	26.117	0	163.319	0	193.5	4	67.8	4	-1E+10	1	-1E+10	1	-1E+10	1	-1E+10	1	-1E+10	1	-1E+10	1
4902643	40	C	07/26/2025	04:06	-132.853	43.568	0	174.90	0	8.5130	0	33.7220	0	26.196	0	173.430	0	190.6	4	66.6	4	-1E+10	1	-1E+10	1	-1E+10	1	-1E+10	1	-1E+10	1	-1E+10	1
4902643	40	C	07/26/2025	04:06	-132.853	43.568	0	184.90	0	8.3610	0	33.7700	0	26.257	0	183.341	0	188.6	4	65.7	4	-1E+10	1	-1E+10	1	-1E+10	1	-1E+10	1	-1E+10	1	-1E+10	1
4902643	40	C	07/26/2025	04:06	-132.853	43.568	0	194.50	0	8.1690	0	33.7900	0	26.302	0	192.856	0	184.7	4	64.1	4	-1E+10	1	-1E+10	1	-1E+10	1	-1E+10	1	-1E+10	1	-1E+10	1
4902643	40	C	07/26/2025	04:06	-132.853	43.568	0	210.50	0	7.8270	0	33.8190	0	26.375	0	208.712	0	177.5	4	61.1	4	-1E+10	1	-1E+10	1	-1E+10	1	-1E+10	1	-1E+10	1	-1E+10	1
4902643	40	C	07/26/2025	04:06	-132.853	43.568	0	229.90	0	7.4630	0	33.8400	0	26.444	0	227.937	0	166.6	4	56.9	4	-1E+10	1	-1E+10	1	-1E+10	1	-1E+10	1	-1E+10	1	-1E+10	1
4902643	40	C	07/26/2025	04:06	-132.853	43.568	0	249.80	0	7.1200	0	33.8480	0	26.498	0	247.655	0	157.4	4	53.3	4	-1E+10	1	-1E+10	1	-1E+10	1	-1E+10	1	-1E+10	1	-1E+10	1
4902643	40	C	07/26/2025	04:06	-132.853	43.568	0	269.80	0	6.8960	0	33.8490	0	26.530	0	267.471	0	149.2	4	50.3	4	-1E+10	1	-1E+10	1	-1E+10	1	-1E+10	1	-1E+10	1	-1E+10	1
4902643	40	C	07/26/2025	04:06	-132.853	43.568	0	289.90	0	6.6190	0	33.8470	0	26.565	0	287.383	0	138.1	4	46.2	4	-1E+10	1	-1E+10	1	-1E+10	1	-1E+10	1	-1E+10	1	-1E+10	1
4902643	40	C	07/26/2025	04:06	-132.853	43.568	0	309.80	0	6.3090	0	33.8480	0	26.607	0	307.096	0	125.2	4	41.7	4	-1E+10	1	-1E+10	1	-1E+10	1	-1E+10	1	-1E+10	1	-1E+10	1
4902643	40	C	07/26/2025	04:06	-132.853	43.568	0	329.40	0	6.0130	0	33.8530	0	26.648	0	326.509	0	111.5	4	36.8	4	-1E+10	1	-1E+10	1	-1E+10	1	-1E+10	1	-1E+10	1	-1E+10	1
4902643	40	C	07/26/2025	04:06	-132.853	43.568	0	349.70	0	5.7310	0	33.8620	0	26.690	0	346.614	0	99.3	4	32.6	4	-1E+10	1	-1E+10	1	-1E+10	1	-1E+10	1	-1E+10	1	-1E+10	1
4902643	40	C	07/26/2025	04:06	-132.853	43.568	0	369.80	0	5.4580	0	33.8760	0	26.734	0	366.519	0	86.5	4	28.2	4	-1E+10	1	-1E+10	1	-1E+10	1	-1E+10	1	-1E+10	1	-1E+10	1
4902643	40	C	07/26/2025	04:06	-132.853	43.568	0	389.90	0	5.2070	0	33.8980	0	26.781	0	386.422	0	76.2	4	24.7	4	-1E+10	1	-1E+10	1	-1E+10	1	-1E+10	1	-1E+10	1	-1E+10	1
4902643	40	C	07/26/2025	04:06	-132.853	43.568	0	410.30	0	5.0770	0	33.9230	0	26.816	0	406.620	0	68.4	4	22.1	4	-1E+10	1	-1E+10	1	-1E+10	1	-1E+10	1	-1E+10	1	-1E+10	1
4902643	40	C	07/26/2025	04:06	-132.853	43.568	0	429.00	0	4.9730	0	33.9440	0	26.845	0	425.133	0	62.9	4	20.3	4	-1E+10	1	-1E+10	1	-1E+10	1	-1E+10	1	-1E+10	1	-1E+10	1
4902643	40	C	07/26/2025	04:06	-132.853	43.568	0	449.50	0	4.7820	0	33.9540	0	26.875	0	445.426	0	58.6	4	18.8	4	-1E+10	1	-1E+10	1	-1E+10	1	-1E+10	1	-1E+10	1	-1E+10	1
4902643	40	C	07/26/2025	04:06	-132.853	43.568	0	469.50	0	4.6640	0	33.9770	0	26.906	0	465.222	0	50.9	4	16.3	4	-1E+10	1	-1E+10	1	-1E+10	1	-1E+10	1	-1E+10	1	-1E+10	1
4902643	40	C	07/26/2025	04:06	-132.853	43.568	0	490.50	0	4.6080	0	34.0050	0	26.934	0	486.007	0	44.0	4	14.1	4	-1E+10	1	-1E+10	1	-1E+10	1	-1E+10	1	-1E+10	1	-1E+10	1
4902643	40	C	07/26/2025	04:06	-132.853	43.568	0	509.90	0	4.5620	0	34.0330	0	26.962	0	505.205	0	38.5	4	12.3	4	-1E+10	1	-1E+10	1	-1E+10	1	-1E+10	1	-1E+10	1	-1E+10	1
4902643	40	C	07/26/2025	04:06	-132.853	43.568	0	529.80	0	4.5360	0	34.0510	0	26.979	0	524.897	0	35.2	4	11.2	4	-1E+10	1	-1E+10	1	-1E+10	1	-1E+10	1	-1E+10	1	-1E+10	1
4902643	40	C	07/26/2025	04:06	-132.853	43.568	0	549.80	0	4.4850	0	34.0660	0	26.997	0	544.686	0	32.1	4	10.3	4	-1E+10	1	-1E+10	1	-1E+10	1	-1E+10	1	-1E+10	1	-1E+10	1
4902643	40	C	07/26/2025	04:06	-132.853	43.568	0	569.80	0	4.4320	0	34.0780	0	27.012	0	564.472	0	29.7	4	9.5	4	-1E+10	1	-1E+10	1	-1E+10	1	-1E+10	1	-1E+10	1	-1E+10	1
4902643	40	C	07/26/2025	04:06	-132.853	43.568	0	589.40	0	4.3790	0	34.0920	0	27.029	0	583.862	0	27.1	4	8.6	4	-1E+10	1	-1E+10	1	-1E+10	1	-1E+10	1	-1E+10	1	-1E+10	1
4902643	40	C	07/26/2025	04:06	-132.853	43.568	0	609.60	0	4.3340	0	34.1050	0	27.044	0	603.843	0	24.9	4	7.9	4	-1E+10	1	-1E+10	1	-1E+10	1	-1E+10	1	-1E+10	1	-1E+10	1
4902643	40	C	07/26/2025	04:06	-132.853	43.568	0	629.90	0	4.2860	0	34.1180	0	27.060	0	623.920	0	22.8	4	7.2	4	-1E+10	1	-1E+10	1	-1E+10	1	-1E+10	1	-1E+10	1	-1E+10	1
4902643	40	C	07/26/2025	04:06	-132.853	43.568	0	649.80	0	4.2000	0	34.1330	0	27.081	0	643.601	0	20.9	4	6.6	4	-1E+10	1	-1E+10	1	-1E+10	1	-1E+10	1	-1E+10	1	-1E+10	1
4902643	40	C	07/26/2025	04:06	-132.853	43.568	0	669.60	0	4.0970	0	34.1420	0	27.099	0	663.180	0	19.3	4	6.1	4	-1E+10	1	-1E+10	1	-1E+10	1	-1E+10	1	-1E+10	1	-1E+10	1
4902643	40	C	07/26/2025	04:06	-132.853	43.568	0	689.70	0	4.0420	0	34.1570	0	27.117	0	683.055	0	17.3	4	5.5	4	-1E+10	1	-1E+10	1	-1E+10	1	-1E+10	1	-1E+10	1	-1E+10	1
4902643	40	C	07/26/2025	04:06	-132.853	43.568	0	709.70	0	4.0240	0	34.1760	0	27.134	0	702.828	0	15.1	4	4.8	4	-1E+10	1	-1E+10	1	-1E+10	1	-1E+10	1	-1E+10	1	-1E+10	1
4902643	40	C	07/26/2025	04:06	-132.853	43.568	0	729.70	0	3.9720	0	34.1930	0	27.153	0	722.600	0	13.3	4	4.2	4	-1E+10	1	-1E+10	1	-1E+10	1	-1E+10	1	-1E+10	1	-1E+10	1
4902643	40	C	07/26/2025	04:06	-132.853	43.568	0	749.60	0	3.9070	0	34.2080	0	27.171	0	742.271	0	12.3	4	3.9	4	-1E+10	1	-1E+10	1	-1E+10	1	-1E+10	1	-1E+10	1	-1E+10	1
4902643	40	C	07/26/2025	04:06	-132.853	43.568	0	769.60	0	3.8400	0	34.2210	0	27.188	0	762.039	0	10.9	4	3.4	4	-1E+10	1	-1E+10	1	-1E+10	1	-1E+10	1	-1E+10	1	-1E+10	1
4902643	40	C	07/26/2025	04:06	-132.853	43.568	0	790.30	0	3.7990	0	34.2380	0	27.206	0	782.497	0	9.7	4	3.1	4	-1E+10	1	-1E+10	1	-1E+10	1	-1E+10	1	-1E+10	1	-1E+10	1
4902643	40	C	07/26/2025	04:06	-132.853	43.568	0	809.00	0	3.7630	0	34.2550	0	27.223	0	800.976	0	8.8	4	2.8	4	-1E+10	1	-1E+10	1	-1E+10	1	-1E+10	1	-1E+10	1	-1E+10	1
4902643	40	C	07/26/2025	04:06	-132.853	43.568	0	829.60	0	3.7210	0	34.2690	0	27.239	0	821.332	0	8.1	4	2.5	4	-1E+10	1	-1E+10	1	-1E+10	1	-1E+10	1	-1E+10	1	-1E+10	1
4902643	40	C	07/26/2025	04:06	-132.853	43.568	0	849.60	0	3.6840	0	34.2810	0	27.252	0	841.092	0	7.6	4	2.4	4	-1E+10	1	-1E+10	1	-1E+10	1	-1E+10	1	-1E+10	1	-1E+10	1
4902643	40	C	07/26/2025	04:06	-132.853	43.568	0	869.90	0	3.6580	0	34.2970	0	27.268	0	861.147	0	7.0	4	2.2	4	-1E+10	1	-1E+10	1	-1E+10	1	-1E+10	1	-1E+10	1	-1E+10	1
4902643	40	C	07/26/2025	04:06	-132.853	43.568	0	890.00	0	3.6390	0	34.3150	0	27.284	0	881.002	0	6.6	4	2.1	4	-1E+10	1	-1E+10	1	-1E+10	1	-1E+10	1	-1E+10	1	-1E+10	1
4902643	40	C	07/26/2025	04:06	-132.853	43.568	0	909.90	0	3.6440	0	34.3310	0	27.296	0	900.659	0	6.5	4	2.0	4	-1E+10	1	-1E+10	1	-1E+10	1	-1E+10	1	-1E+10	1	-1E+10	1
4902643	40	C	07/26/2025	04:06	-132.853	43.568	0	930.30	0	3.5810	0	34.3370	0	27.307	0	920.806	0	6.4	4	2.0	4	-1E+10	1	-1E+10	1	-1E+10	1	-1E+10	1	-1E+10	1	-1E+10	1
4902643	40	C	07/26/2025	04:06	-132.853	43.568	0	949.50	0	3.5800	0	34.3530	0	27.320	0	939.767	0	6.4	4	2.0	4	-1E+10	1	-1E+10	1	-1E+10	1	-1E+10	1	-1E+10	1	-1E+10	1
4902643	40	C	07/26/2025	04:06	-132.853	43.568	0	969.50	0	3.5150	0	34.3580	0	27.331	0	959.517	0	6.6	4	2.0	4	-1E+10	1	-1E+10	1	-1E+10	1	-1E+10	1	-1E+10	1	-1E+10	1
4902643	40	C	07/26/2025	04:06	-132.853	43.568	0	989.60	0	3.4760	0	34.3650	0	27.340	0	979.363	0	6.7	4	2.1	4	-1E+10	1	-1E+10	1	-1E+10	1	-1E+10	1	-1E+10	1	-1E+10	1
4902643	40	C	07/26/2025	04:06	-132.853	43.568	0	1009.70	0	3.4320	0	34.3770	0	27.354	0	999.207	0	6.9	4	2.2	4	-1E+10	1	-1E+10	1	-1E+10	1	-1E+10	1	-1E+10	1	-1E+10	1
4902643	40	C	07/26/2025	04:06	-132.853	43.568	0	1029.70	0	3.3870	0	34.3880	0	27.367	0	1018.950	0	7.2	4	2.2	4	-1E+10	1	-1E+10	1	-1E+10	1	-1E+10	1	-1E+10	1	-1E+10	1
4902643	40	C	07/26/2025	04:06	-132.853	43.568	0	1049.40	0	3.3550	0	34.3950	0	27.376	0	1038.396	0	7.4	4	2.3	4	-1E+10	1	-1E+10	1	-1E+10	1	-1E+10	1	-1E+10	1	-1E+10	1
4902643	40	C	07/26/2025	04:06	-132.853	43.568	0	1070.30	0	3.3120	0	34.4040	0	27.388	0	1059.024	0	7.8	4	2.4	4	-1E+10	1	-1E+10	1	-1E+10	1	-1E+10	1	-1E+10	1	-1E+10	1
4902643	40	C	07/26/2025	04:06	-132.853	43.568	0	1089.90	0	3.2750	0	34.4120	0	27.397	0	1078.367	0	8.3	4	2.6	4	-1E+10	1	-1E+10	1	-1E+10	1	-1E+10	1	-1E+10	1	-1E+10	1
4902643	40	C	07/26/2025	04:06	-132.853	43.568	0	1109.70	0	3.2300	0	34.4210	0	27.409	0	1097.906	0	8.8	4	2.7	4	-1E+10	1	-1E+10	1	-1E+10	1	-1E+10	1	-1E+10	1	-1E+10	1
4902643	40	C	07/26/2025	04:06	-132.853	43.568	0	1130.10	0	3.2000	0	34.4270	0	27.417	0	1118.035	0	9.2	4	2.8	4	-1E+10	1	-1E+10	1	-1E+10	1	-1E+10	1	-1E+10	1	-1E+10	1
4902643	40	C	07/26/2025	04:06	-132.853	43.568	0	1150.50	0	3.1640	0	34.4330	0	27.425	0	1138.162	0	9.6	4	3.0	4	-1E+10	1	-1E+10	1	-1E+10	1	-1E+10	1	-1E+10	1	-1E+10	1
4902643	40	C	07/26/2025	04:06	-132.853	43.568	0	1169.90	0	3.1280	0	34.4400	0	27.434	0	1157.300	0	10.4	4	3.2	4	-1E+10	1	-1E+10	1	-1E+10	1	-1E+10	1	-1E+10	1	-1E+10	1
4902643	40	C	07/26/2025	04:06	-132.853	43.568	0	1189.60	0	3.0990	0	34.4480	0	27.443	0	1176.733	0	11.1	4	3.4	4	-1E+10	1	-1E+10	1	-1E+10	1	-1E+10	1	-1E+10	1	-1E+10	1
4902643	40	C	07/26/2025	04:06	-132.853	43.568	0	1209.80	0	3.0620	0	34.4520	0	27.450	0	1196.657	0	11.5	4	3.6	4	-1E+10	1	-1E+10	1	-1E+10	1	-1E+10	1	-1E+10	1	-1E+10	1
4902643	40	C	07/26/2025	04:06	-132.853	43.568	0	1229.80	0	3.0200	0	34.4580	0	27.458	0	1216.382	0	12.5	4	3.8	4	-1E+10	1	-1E+10	1	-1E+10	1	-1E+10	1	-1E+10	1	-1E+10	1
4902643	40	C	07/26/2025	04:06	-132.853	43.568	0	1249.60	0	2.9700	0	34.4660	0	27.469	0	1235.908	0	13.5	4	4.2	4	-1E+10	1	-1E+10	1	-1E+10	1	-1E+10	1	-1E+10	1	-1E+10	1
4902643	40	C	07/26/2025	04:06	-132.853	43.568	0	1270.00	0	2.9380	0	34.4730	0	27.478	0	1256.024	0	14.6	4	4.5	4	-1E+10	1	-1E+10	1	-1E+10	1	-1E+10	1	-1E+10	1	-1E+10	1
4902643	40	C	07/26/2025	04:06	-132.853	43.568	0	1290.20	0	2.8940	0	34.4770	0	27.485	0	1275.940	0	15.3	4	4.7	4	-1E+10	1	-1E+10	1	-1E+10	1	-1E+10	1	-1E+10	1	-1E+10	1
4902643	40	C	07/26/2025	04:06	-132.853	43.568	0	1310.30	0	2.8640	0	34.4830	0	27.493	0	1295.756	0	16.4	4	5.0	4	-1E+10	1	-1E+10	1	-1E+10	1	-1E+10	1	-1E+10	1	-1E+10	1
4902643	40	C	07/26/2025	04:06	-132.853	43.568	0	1330.00	0	2.8300	0	34.4870	0	27.499	0	1315.176	0	17.0	4	5.2	4	-1E+10	1	-1E+10	1	-1E+10	1	-1E+10	1	-1E+10	1	-1E+10	1
4902643	40	C	07/26/2025	04:06	-132.853	43.568	0	1349.70	0	2.7990	0	34.4900	0	27.504	0	1334.594	0	17.6	4	5.4	4	-1E+10	1	-1E+10	1	-1E+10	1	-1E+10	1	-1E+10	1	-1E+10	1
4902643	40	C	07/26/2025	04:06	-132.853	43.568	0	1369.60	0	2.7630	0	34.4940	0	27.511	0	1354.208	0	18.3	4	5.6	4	-1E+10	1	-1E+10	1	-1E+10	1	-1E+10	1	-1E+10	1	-1E+10	1
4902643	40	C	07/26/2025	04:06	-132.853	43.568	0	1389.90	0	2.7270	0	34.4990	0	27.518	0	1374.213	0	19.5	4	6.0	4	-1E+10	1	-1E+10	1	-1E+10	1	-1E+10	1	-1E+10	1	-1E+10	1
4902643	40	C	07/26/2025	04:06	-132.853	43.568	0	1409.90	0	2.6890	0	34.5030	0	27.525	0	1393.922	0	20.4	4	6.2	4	-1E+10	1	-1E+10	1	-1E+10	1	-1E+10	1	-1E+10	1	-1E+10	1
4902643	40	C	07/26/2025	04:06	-132.853	43.568	0	1430.20	0	2.6600	0	34.5070	0	27.530	0	1413.924	0	21.2	4	6.5	4	-1E+10	1	-1E+10	1	-1E+10	1	-1E+10	1	-1E+10	1	-1E+10	1
4902643	40	C	07/26/2025	04:06	-132.853	43.568	0	1450.20	0	2.6300	0	34.5100	0	27.536	0	1433.628	0	22.2	4	6.8	4	-1E+10	1	-1E+10	1	-1E+10	1	-1E+10	1	-1E+10	1	-1E+10	1
4902643	40	C	07/26/2025	04:06	-132.853	43.568	0	1470.20	0	2.5920	0	34.5140	0	27.542	0	1453.331	0	23.1	4	7.1	4	-1E+10	1	-1E+10	1	-1E+10	1	-1E+10	1	-1E+10	1	-1E+10	1
4902643	40	C	07/26/2025	04:06	-132.853	43.568	0	1490.20	0	2.5530	0	34.5190	0	27.549	0	1473.032	0	24.3	4	7.4	4	-1E+10	1	-1E+10	1	-1E+10	1	-1E+10	1	-1E+10	1	-1E+10	1
4902643	40	C	07/26/2025	04:06	-132.853	43.568	0	1510.00	0	2.5170	0	34.5230	0	27.556	0	1492.534	0	25.5	4	7.8	4	-1E+10	1	-1E+10	1	-1E+10	1	-1E+10	1	-1E+10	1	-1E+10	1
4902643	40	C	07/26/2025	04:06	-132.853	43.568	0	1529.80	0	2.4880	0	34.5270	0	27.562	0	1512.034	0	27.1	4	8.3	4	-1E+10	1	-1E+10	1	-1E+10	1	-1E+10	1	-1E+10	1	-1E+10	1
4902643	40	C	07/26/2025	04:06	-132.853	43.568	0	1549.90	0	2.4500	0	34.5320	0	27.569	0	1531.828	0	28.6	4	8.7	4	-1E+10	1	-1E+10	1	-1E+10	1	-1E+10	1	-1E+10	1	-1E+10	1
4902643	40	C	07/26/2025	04:06	-132.853	43.568	0	1569.60	0	2.4120	0	34.5370	0	27.576	0	1551.226	0	29.9	4	9.1	4	-1E+10	1	-1E+10	1	-1E+10	1	-1E+10	1	-1E+10	1	-1E+10	1
4902643	40	C	07/26/2025	04:06	-132.853	43.568	0	1589.80	0	2.3770	0	34.5400	0	27.581	0	1571.114	0	31.1	4	9.5	4	-1E+10	1	-1E+10	1	-1E+10	1	-1E+10	1	-1E+10	1	-1E+10	1
4902643	40	C	07/26/2025	04:06	-132.853	43.568	0	1610.50	0	2.3400	0	34.5440	0	27.588	0	1591.493	0	32.6	4	9.9	4	-1E+10	1	-1E+10	1	-1E+10	1	-1E+10	1	-1E+10	1	-1E+10	1
4902643	40	C	07/26/2025	04:06	-132.853	43.568	0	1630.00	0	2.3020	0	34.5490	0	27.595	0	1610.689	0	34.3	4	10.4	4	-1E+10	1	-1E+10	1	-1E+10	1	-1E+10	1	-1E+10	1	-1E+10	1
4902643	40	C	07/26/2025	04:06	-132.853	43.568	0	1650.00	0	2.2740	0	34.5520	0	27.600	0	1630.375	0	35.3	4	10.7	4	-1E+10	1	-1E+10	1	-1E+10	1	-1E+10	1	-1E+10	1	-1E+10	1
4902643	40	C	07/26/2025	04:06	-132.853	43.568	0	1669.90	0	2.2540	0	34.5550	0	27.604	0	1649.961	0	36.3	4	11.0	4	-1E+10	1	-1E+10	1	-1E+10	1	-1E+10	1	-1E+10	1	-1E+10	1
4902643	40	C	07/26/2025	04:06	-132.853	43.568	0	1690.20	0	2.2370	0	34.5570	0	27.607	0	1669.939	0	37.4	4	11.3	4	-1E+10	1	-1E+10	1	-1E+10	1	-1E+10	1	-1E+10	1	-1E+10	1
4902643	40	C	07/26/2025	04:06	-132.853	43.568	0	1710.00	0	2.2170	0	34.5600	0	27.611	0	1689.423	0	38.4	4	11.6	4	-1E+10	1	-1E+10	1	-1E+10	1	-1E+10	1	-1E+10	1	-1E+10	1
4902643	40	C	07/26/2025	04:06	-132.853	43.568	0	1730.00	0	2.1960	0	34.5630	0	27.615	0	1709.101	0	39.7	4	12.0	4	-1E+10	1	-1E+10	1	-1E+10	1	-1E+10	1	-1E+10	1	-1E+10	1
4902643	40	C	07/26/2025	04:06	-132.853	43.568	0	1750.30	0	2.1720	0	34.5660	0	27.620	0	1729.074	0	41.0	4	12.4	4	-1E+10	1	-1E+10	1	-1E+10	1	-1E+10	1	-1E+10	1	-1E+10	1
4902643	40	C	07/26/2025	04:06	-132.853	43.568	0	1770.30	0	2.1510	0	34.5690	0	27.624	0	1748.749	0	42.2	4	12.8	4	-1E+10	1	-1E+10	1	-1E+10	1	-1E+10	1	-1E+10	1	-1E+10	1
4902643	40	C	07/26/2025	04:06	-132.853	43.568	0	1790.00	0	2.1290	0	34.5710	0	27.627	0	1768.127	0	43.6	4	13.2	4	-1E+10	1	-1E+10	1	-1E+10	1	-1E+10	1	-1E+10	1	-1E+10	1
4902643	40	C	07/26/2025	04:06	-132.853	43.568	0	1809.90	0	2.1060	0	34.5750	0	27.632	0	1787.700	0	44.9	4	13.6	4	-1E+10	1	-1E+10	1	-1E+10	1	-1E+10	1	-1E+10	1	-1E+10	1
4902643	40	C	07/26/2025	04:06	-132.853	43.568	0	1830.10	0	2.0870	0	34.5770	0	27.636	0	1807.566	0	46.1	4	13.9	4	-1E+10	1	-1E+10	1	-1E+10	1	-1E+10	1	-1E+10	1	-1E+10	1
4902643	40	C	07/26/2025	04:06	-132.853	43.568	0	1849.90	0	2.0660	0	34.5800	0	27.640	0	1827.038	0	47.4	4	14.3	4	-1E+10	1	-1E+10	1	-1E+10	1	-1E+10	1	-1E+10	1	-1E+10	1
4902643	40	C	07/26/2025	04:06	-132.853	43.568	0	1869.70	0	2.0480	0	34.5830	0	27.644	0	1846.507	0	48.6	4	14.7	4	-1E+10	1	-1E+10	1	-1E+10	1	-1E+10	1	-1E+10	1	-1E+10	1
4902643	40	C	07/26/2025	04:06	-132.853	43.568	0	1890.40	0	2.0300	0	34.5850	0	27.647	0	1866.859	0	49.9	4	15.0	4	-1E+10	1	-1E+10	1	-1E+10	1	-1E+10	1	-1E+10	1	-1E+10	1
4902643	40	C	07/26/2025	04:06	-132.853	43.568	0	1910.00	0	2.0120	0	34.5880	0	27.651	0	1886.128	0	51.1	4	15.4	4	-1E+10	1	-1E+10	1	-1E+10	1	-1E+10	1	-1E+10	1	-1E+10	1
4902643	40	C	07/26/2025	04:06	-132.853	43.568	0	1930.20	0	1.9970	0	34.5900	0	27.654	0	1905.986	0	52.0	4	15.7	4	-1E+10	1	-1E+10	1	-1E+10	1	-1E+10	1	-1E+10	1	-1E+10	1
4902643	40	C	07/26/2025	04:06	-132.853	43.568	0	1950.10	0	1.9850	0	34.5920	0	27.656	0	1925.546	0	53.0	4	16.0	4	-1E+10	1	-1E+10	1	-1E+10	1	-1E+10	1	-1E+10	1	-1E+10	1
4902643	40	C	07/26/2025	04:06	-132.853	43.568	0	1970.10	0	1.9700	0	34.5940	0	27.659	0	1945.203	0	53.9	4	16.2	4	-1E+10	1	-1E+10	1	-1E+10	1	-1E+10	1	-1E+10	1	-1E+10	1
4902643	40	C	07/26/2025	04:06	-132.853	43.568	0	1990.10	0	1.9580	0	34.5960	0	27.662	0	1964.858	0	55.0	4	16.6	4	-1E+10	1	-1E+10	1	-1E+10	1	-1E+10	1	-1E+10	1	-1E+10	1
4902643	40	C	07/26/2025	04:06	-132.853	43.568	0	2010.00	0	1.9440	0	34.5980	4	27.665	0	1984.413	0	56.0	4	16.9	4	-1E+10	1	-1E+10	1	-1E+10	1	-1E+10	1	-1E+10	1	-1E+10	1
4902643	40	C	07/26/2025	04:06	-132.853	43.568	0	2030.60	0	1.9300	0	34.6000	4	27.667	0	2004.654	0	57.0	4	17.1	4	-1E+10	1	-1E+10	1	-1E+10	1	-1E+10	1	-1E+10	1	-1E+10	1
4902643	40	C	07/26/2025	04:06	-132.853	43.568	0	2049.90	0	1.9200	0	34.6020	4	27.670	0	2023.616	0	57.8	4	17.4	4	-1E+10	1	-1E+10	1	-1E+10	1	-1E+10	1	-1E+10	1	-1E+10	1
4902643	40	C	07/26/2025	04:06	-132.853	43.568	0	2069.80	0	1.9100	0	34.6030	4	27.672	0	2043.165	0	58.6	4	17.6	4	-1E+10	1	-1E+10	1	-1E+10	1	-1E+10	1	-1E+10	1	-1E+10	1
4902643	40	C	07/26/2025	04:06	-132.853	43.568	0	2089.70	0	1.9000	0	34.6050	4	27.674	0	2062.713	0	59.4	4	17.9	4	-1E+10	1	-1E+10	1	-1E+10	1	-1E+10	1	-1E+10	1	-1E+10	1
4902643	40	C	07/26/2025	04:06	-132.853	43.568	0	2110.00	0	1.8910	0	34.6060	4	27.676	0	2082.652	0	60.2	4	18.1	4	-1E+10	1	-1E+10	1	-1E+10	1	-1E+10	1	-1E+10	1	-1E+10	1
4902643	40	C	07/26/2025	04:06	-132.853	43.568	0	2130.20	0	1.8840	0	34.6080	4	27.678	0	2102.491	0	60.8	4	18.3	4	-1E+10	1	-1E+10	1	-1E+10	1	-1E+10	1	-1E+10	1	-1E+10	1
4902643	40	C	07/26/2025	04:06	-132.853	43.568	0	2150.70	0	1.8770	0	34.6090	4	27.679	0	2122.622	0	61.4	4	18.5	4	-1E+10	1	-1E+10	1	-1E+10	1	-1E+10	1	-1E+10	1	-1E+10	1
4902643	40	C	07/26/2025	04:06	-132.853	43.568	0	2170.10	0	1.8720	0	34.6100	4	27.681	0	2141.672	0	61.9	4	18.6	4	-1E+10	1	-1E+10	1	-1E+10	1	-1E+10	1	-1E+10	1	-1E+10	1
4902643	40	C	07/26/2025	04:06	-132.853	43.568	0	2189.70	0	1.8650	0	34.6110	4	27.682	0	2160.916	0	62.5	4	18.8	4	-1E+10	1	-1E+10	1	-1E+10	1	-1E+10	1	-1E+10	1	-1E+10	1
4902643	40	C	07/26/2025	04:06	-132.853	43.568	0	2210.00	0	1.8600	0	34.6120	4	27.683	0	2180.846	0	63.0	4	18.9	4	-1E+10	1	-1E+10	1	-1E+10	1	-1E+10	1	-1E+10	1	-1E+10	1
4902643	40	C	07/26/2025	04:06	-132.853	43.568	0	2230.20	0	1.8560	0	34.6130	4	27.685	0	2200.676	0	63.5	4	19.1	4	-1E+10	1	-1E+10	1	-1E+10	1	-1E+10	1	-1E+10	1	-1E+10	1
4902643	40	C	07/26/2025	04:06	-132.853	43.568	0	2250.20	0	1.8500	0	34.6140	4	27.686	0	2220.307	0	64.1	4	19.3	4	-1E+10	1	-1E+10	1	-1E+10	1	-1E+10	1	-1E+10	1	-1E+10	1
4902643	40	C	07/26/2025	04:06	-132.853	43.568	0	2270.00	0	1.8440	0	34.6150	4	27.687	0	2239.741	0	64.7	4	19.4	4	-1E+10	1	-1E+10	1	-1E+10	1	-1E+10	1	-1E+10	1	-1E+10	1
4902643	40	C	07/26/2025	04:06	-132.853	43.568	0	2289.80	0	1.8390	0	34.6160	4	27.689	0	2259.173	0	65.3	4	19.6	4	-1E+10	1	-1E+10	1	-1E+10	1	-1E+10	1	-1E+10	1	-1E+10	1
4902643	40	C	07/26/2025	04:06	-132.853	43.568	0	2309.80	0	1.8340	0	34.6170	4	27.690	0	2278.799	0	65.8	4	19.8	4	-1E+10	1	-1E+10	1	-1E+10	1	-1E+10	1	-1E+10	1	-1E+10	1
4902643	40	C	07/26/2025	04:06	-132.853	43.568	0	2330.20	0	1.8280	0	34.6180	4	27.691	0	2298.815	0	66.5	4	20.0	4	-1E+10	1	-1E+10	1	-1E+10	1	-1E+10	1	-1E+10	1	-1E+10	1
4902643	40	C	07/26/2025	04:06	-132.853	43.568	0	2349.90	0	1.8220	0	34.6190	4	27.693	0	2318.144	0	67.3	4	20.2	4	-1E+10	1	-1E+10	1	-1E+10	1	-1E+10	1	-1E+10	1	-1E+10	1
4902643	40	C	07/26/2025	04:06	-132.853	43.568	0	2370.10	0	1.8090	0	34.6210	4	27.695	0	2337.961	0	68.4	4	20.5	4	-1E+10	1	-1E+10	1	-1E+10	1	-1E+10	1	-1E+10	1	-1E+10	1
4902643	40	C	07/26/2025	04:06	-132.853	43.568	0	2390.00	0	1.8000	0	34.6220	4	27.697	0	2357.482	0	69.2	4	20.8	4	-1E+10	1	-1E+10	1	-1E+10	1	-1E+10	1	-1E+10	1	-1E+10	1
4902643	40	C	07/26/2025	04:06	-132.853	43.568	0	2410.30	0	1.7940	0	34.6230	4	27.698	0	2377.393	0	69.9	4	21.0	4	-1E+10	1	-1E+10	1	-1E+10	1	-1E+10	1	-1E+10	1	-1E+10	1
4902643	40	C	07/26/2025	04:06	-132.853	43.568	0	2430.30	0	1.7850	0	34.6240	4	27.700	0	2397.008	0	70.9	4	21.3	4	-1E+10	1	-1E+10	1	-1E+10	1	-1E+10	1	-1E+10	1	-1E+10	1
4902643	40	C	07/26/2025	04:06	-132.853	43.568	0	2449.90	0	1.7770	0	34.6260	4	27.702	0	2416.229	0	71.7	4	21.5	4	-1E+10	1	-1E+10	1	-1E+10	1	-1E+10	1	-1E+10	1	-1E+10	1
4902643	40	C	07/26/2025	04:06	-132.853	43.568	0	2469.60	0	1.7700	0	34.6270	4	27.704	0	2435.547	0	72.2	4	21.7	4	-1E+10	1	-1E+10	1	-1E+10	1	-1E+10	1	-1E+10	1	-1E+10	1
4902643	40	C	07/26/2025	04:06	-132.853	43.568	0	2490.20	0	1.7650	0	34.6270	4	27.704	0	2455.745	0	72.7	4	21.8	4	-1E+10	1	-1E+10	1	-1E+10	1	-1E+10	1	-1E+10	1	-1E+10	1
4902643	40	C	07/26/2025	04:06	-132.853	43.568	0	2510.10	0	1.7610	0	34.6280	4	27.705	0	2475.256	0	73.3	4	22.0	4	-1E+10	1	-1E+10	1	-1E+10	1	-1E+10	1	-1E+10	1	-1E+10	1
4902643	40	C	07/26/2025	04:06	-132.853	43.568	0	2530.00	0	1.7540	0	34.6290	4	27.707	0	2494.764	0	74.2	4	22.2	4	-1E+10	1	-1E+10	1	-1E+10	1	-1E+10	1	-1E+10	1	-1E+10	1
4902643	40	C	07/26/2025	04:06	-132.853	43.568	0	2549.90	0	1.7460	0	34.6300	4	27.708	0	2514.271	0	75.0	4	22.5	4	-1E+10	1	-1E+10	1	-1E+10	1	-1E+10	1	-1E+10	1	-1E+10	1
4902643	40	C	07/26/2025	04:06	-132.853	43.568	0	2569.70	0	1.7390	0	34.6310	4	27.710	0	2533.677	0	75.9	4	22.7	4	-1E+10	1	-1E+10	1	-1E+10	1	-1E+10	1	-1E+10	1	-1E+10	1
4902643	40	C	07/26/2025	04:06	-132.853	43.568	0	2590.50	0	1.7320	0	34.6320	4	27.711	0	2554.063	0	76.7	4	23.0	4	-1E+10	1	-1E+10	1	-1E+10	1	-1E+10	1	-1E+10	1	-1E+10	1
4902643	40	C	07/26/2025	04:06	-132.853	43.568	0	2610.20	0	1.7250	0	34.6330	4	27.713	0	2573.368	0	77.4	4	23.2	4	-1E+10	1	-1E+10	1	-1E+10	1	-1E+10	1	-1E+10	1	-1E+10	1
4902643	40	C	07/26/2025	04:06	-132.853	43.568	0	2630.10	0	1.7210	0	34.6340	4	27.714	0	2592.867	0	77.9	4	23.3	4	-1E+10	1	-1E+10	1	-1E+10	1	-1E+10	1	-1E+10	1	-1E+10	1
4902643	40	C	07/26/2025	04:06	-132.853	43.568	0	2649.80	0	1.7150	0	34.6350	4	27.715	0	2612.169	0	78.7	4	23.6	4	-1E+10	1	-1E+10	1	-1E+10	1	-1E+10	1	-1E+10	1	-1E+10	1
4902643	40	C	07/26/2025	04:06	-132.853	43.568	0	2670.10	0	1.7120	0	34.6360	4	27.716	0	2632.057	0	79.1	4	23.7	4	-1E+10	1	-1E+10	1	-1E+10	1	-1E+10	1	-1E+10	1	-1E+10	1
4902643	40	C	07/26/2025	04:06	-132.853	43.568	0	2690.30	0	1.7090	0	34.6360	4	27.717	0	2651.845	0	79.8	4	23.9	4	-1E+10	1	-1E+10	1	-1E+10	1	-1E+10	1	-1E+10	1	-1E+10	1
4902643	40	C	07/26/2025	04:06	-132.853	43.568	0	2710.00	0	1.7010	0	34.6370	4	27.718	0	2671.141	0	80.8	4	24.2	4	-1E+10	1	-1E+10	1	-1E+10	1	-1E+10	1	-1E+10	1	-1E+10	1
4902643	40	C	07/26/2025	04:06	-132.853	43.568	0	2729.90	0	1.6920	0	34.6380	4	27.720	0	2690.632	0	81.7	4	24.4	4	-1E+10	1	-1E+10	1	-1E+10	1	-1E+10	1	-1E+10	1	-1E+10	1
4902643	40	C	07/26/2025	04:06	-132.853	43.568	0	2750.20	0	1.6870	0	34.6390	4	27.721	0	2710.513	0	82.0	4	24.5	4	-1E+10	1	-1E+10	1	-1E+10	1	-1E+10	1	-1E+10	1	-1E+10	1
4902643	40	C	07/26/2025	04:06	-132.853	43.568	0	2770.30	0	1.6800	0	34.6390	4	27.722	0	2730.196	0	82.7	4	24.7	4	-1E+10	1	-1E+10	1	-1E+10	1	-1E+10	1	-1E+10	1	-1E+10	1
4902643	40	C	07/26/2025	04:06	-132.853	43.568	0	2790.20	0	1.6720	0	34.6410	4	27.724	0	2749.681	0	83.8	4	25.1	4	-1E+10	1	-1E+10	1	-1E+10	1	-1E+10	1	-1E+10	1	-1E+10	1
4902643	40	C	07/26/2025	04:06	-132.853	43.568	0	2810.10	0	1.6640	0	34.6420	4	27.726	0	2769.165	0	85.0	4	25.4	4	-1E+10	1	-1E+10	1	-1E+10	1	-1E+10	1	-1E+10	1	-1E+10	1
4902643	40	C	07/26/2025	04:06	-132.853	43.568	0	2830.10	0	1.6560	0	34.6430	4	27.727	0	2788.744	0	85.9	4	25.7	4	-1E+10	1	-1E+10	1	-1E+10	1	-1E+10	1	-1E+10	1	-1E+10	1
4902643	40	C	07/26/2025	04:06	-132.853	43.568	0	2850.30	0	1.6490	0	34.6440	4	27.729	0	2808.518	0	86.8	4	25.9	4	-1E+10	1	-1E+10	1	-1E+10	1	-1E+10	1	-1E+10	1	-1E+10	1
4902643	40	C	07/26/2025	04:06	-132.853	43.568	0	2869.70	0	1.6440	0	34.6450	4	27.730	0	2827.507	0	87.5	4	26.2	4	-1E+10	1	-1E+10	1	-1E+10	1	-1E+10	1	-1E+10	1	-1E+10	1
4902643	40	C	07/26/2025	04:06	-132.853	43.568	0	2889.60	0	1.6390	0	34.6460	4	27.731	0	2846.983	0	88.3	4	26.4	4	-1E+10	1	-1E+10	1	-1E+10	1	-1E+10	1	-1E+10	1	-1E+10	1
4902643	40	C	07/26/2025	04:06	-132.853	43.568	0	2909.60	0	1.6330	0	34.6470	4	27.733	0	2866.556	0	89.1	4	26.6	4	-1E+10	1	-1E+10	1	-1E+10	1	-1E+10	1	-1E+10	1	-1E+10	1
4902643	40	C	07/26/2025	04:06	-132.853	43.568	0	2929.80	0	1.6260	0	34.6480	4	27.734	0	2886.323	0	90.0	4	26.9	4	-1E+10	1	-1E+10	1	-1E+10	1	-1E+10	1	-1E+10	1	-1E+10	1
4902643	40	C	07/26/2025	04:06	-132.853	43.568	0	2949.80	0	1.6220	0	34.6480	4	27.734	0	2905.892	0	90.7	4	27.1	4	-1E+10	1	-1E+10	1	-1E+10	1	-1E+10	1	-1E+10	1	-1E+10	1
4902643	40	C	07/26/2025	04:06	-132.853	43.568	0	2969.60	0	1.6180	0	34.6490	4	27.736	0	2925.263	0	91.4	4	27.3	4	-1E+10	1	-1E+10	1	-1E+10	1	-1E+10	1	-1E+10	1	-1E+10	1
4902643	40	C	07/26/2025	04:06	-132.853	43.568	0	2990.30	0	1.6130	0	34.6500	4	27.737	0	2945.514	0	92.2	4	27.5	4	-1E+10	1	-1E+10	1	-1E+10	1	-1E+10	1	-1E+10	1	-1E+10	1
4902643	40	C	07/26/2025	04:06	-132.853	43.568	0	3009.90	0	1.6080	0	34.6510	4	27.738	0	2964.686	0	92.9	4	27.7	4	-1E+10	1	-1E+10	1	-1E+10	1	-1E+10	1	-1E+10	1	-1E+10	1
4902643	40	C	07/26/2025	04:06	-132.853	43.568	0	3029.80	0	1.6040	0	34.6510	4	27.739	0	2984.150	0	93.5	4	27.9	4	-1E+10	1	-1E+10	1	-1E+10	1	-1E+10	1	-1E+10	1	-1E+10	1
4902643	40	C	07/26/2025	04:06	-132.853	43.568	0	3050.10	0	1.6000	0	34.6520	4	27.740	0	3004.004	0	94.2	4	28.1	4	-1E+10	1	-1E+10	1	-1E+10	1	-1E+10	1	-1E+10	1	-1E+10	1
4902643	40	C	07/26/2025	04:06	-132.853	43.568	0	3070.20	0	1.5950	0	34.6530	4	27.741	0	3023.660	0	95.0	4	28.4	4	-1E+10	1	-1E+10	1	-1E+10	1	-1E+10	1	-1E+10	1	-1E+10	1
4902643	40	C	07/26/2025	04:06	-132.853	43.568	0	3090.30	0	1.5890	0	34.6540	4	27.742	0	3043.315	0	95.8	4	28.6	4	-1E+10	1	-1E+10	1	-1E+10	1	-1E+10	1	-1E+10	1	-1E+10	1
4902643	40	C	07/26/2025	04:06	-132.853	43.568	0	3109.60	0	1.5850	0	34.6550	4	27.744	0	3062.186	0	96.5	4	28.8	4	-1E+10	1	-1E+10	1	-1E+10	1	-1E+10	1	-1E+10	1	-1E+10	1
4902643	40	C	07/26/2025	04:06	-132.853	43.568	0	3129.90	0	1.5790	0	34.6550	4	27.744	0	3082.032	0	97.2	4	29.0	4	-1E+10	1	-1E+10	1	-1E+10	1	-1E+10	1	-1E+10	1	-1E+10	1
4902643	40	C	07/26/2025	04:06	-132.853	43.568	0	3150.00	0	1.5740	0	34.6560	4	27.746	0	3101.681	0	97.9	4	29.2	4	-1E+10	1	-1E+10	1	-1E+10	1	-1E+10	1	-1E+10	1	-1E+10	1
4902643	40	C	07/26/2025	04:06	-132.853	43.568	0	3170.50	0	1.5720	0	34.6570	4	27.747	0	3121.720	0	98.4	4	29.4	4	-1E+10	1	-1E+10	1	-1E+10	1	-1E+10	1	-1E+10	1	-1E+10	1
4902643	40	C	07/26/2025	04:06	-132.853	43.568	0	3189.90	0	1.5700	0	34.6570	4	27.747	0	3140.681	0	99.0	4	29.6	4	-1E+10	1	-1E+10	1	-1E+10	1	-1E+10	1	-1E+10	1	-1E+10	1
4902643	40	C	07/26/2025	04:06	-132.853	43.568	0	3209.80	0	1.5670	0	34.6580	4	27.748	0	3160.130	0	99.6	4	29.7	4	-1E+10	1	-1E+10	1	-1E+10	1	-1E+10	1	-1E+10	1	-1E+10	1
4902643	40	C	07/26/2025	04:06	-132.853	43.568	0	3229.80	0	1.5650	0	34.6590	4	27.749	0	3179.674	0	100.0	4	29.9	4	-1E+10	1	-1E+10	1	-1E+10	1	-1E+10	1	-1E+10	1	-1E+10	1
4902643	40	C	07/26/2025	04:06	-132.853	43.568	0	3249.80	0	1.5640	0	34.6590	4	27.749	0	3199.217	0	100.5	4	30.0	4	-1E+10	1	-1E+10	1	-1E+10	1	-1E+10	1	-1E+10	1	-1E+10	1
4902643	40	C	07/26/2025	04:06	-132.853	43.568	0	3270.10	0	1.5620	0	34.6600	4	27.750	0	3219.051	0	101.0	4	30.1	4	-1E+10	1	-1E+10	1	-1E+10	1	-1E+10	1	-1E+10	1	-1E+10	1
4902643	40	C	07/26/2025	04:06	-132.853	43.568	0	3289.70	0	1.5590	0	34.6600	4	27.751	0	3238.199	0	101.5	4	30.3	4	-1E+10	1	-1E+10	1	-1E+10	1	-1E+10	1	-1E+10	1	-1E+10	1
4902643	40	C	07/26/2025	04:06	-132.853	43.568	0	3309.60	0	1.5570	0	34.6610	4	27.752	0	3257.639	0	101.9	4	30.4	4	-1E+10	1	-1E+10	1	-1E+10	1	-1E+10	1	-1E+10	1	-1E+10	1
4902643	40	C	07/26/2025	04:06	-132.853	43.568	0	3329.70	0	1.5560	0	34.6610	4	27.752	0	3277.272	0	102.3	4	30.5	4	-1E+10	1	-1E+10	1	-1E+10	1	-1E+10	1	-1E+10	1	-1E+10	1
4902643	40	C	07/26/2025	04:06	-132.853	43.568	0	3350.20	0	1.5560	0	34.6620	4	27.753	0	3297.295	0	102.5	4	30.6	4	-1E+10	1	-1E+10	1	-1E+10	1	-1E+10	1	-1E+10	1	-1E+10	1
4902643	40	C	07/26/2025	04:06	-132.853	43.568	0	3370.30	0	1.5560	0	34.6620	4	27.753	0	3316.925	0	102.8	4	30.7	4	-1E+10	1	-1E+10	1	-1E+10	1	-1E+10	1	-1E+10	1	-1E+10	1
4902643	40	C	07/26/2025	04:06	-132.853	43.568	0	3390.50	0	1.5550	0	34.6620	4	27.753	0	3336.650	0	103.1	4	30.8	4	-1E+10	1	-1E+10	1	-1E+10	1	-1E+10	1	-1E+10	1	-1E+10	1
4902643	40	C	07/26/2025	04:06	-132.853	43.568	0	3409.70	0	1.5540	0	34.6630	4	27.754	0	3355.398	0	103.5	4	30.9	4	-1E+10	1	-1E+10	1	-1E+10	1	-1E+10	1	-1E+10	1	-1E+10	1
4902643	40	C	07/26/2025	04:06	-132.853	43.568	0	3429.60	0	1.5530	0	34.6630	4	27.755	0	3374.827	0	103.9	4	31.0	4	-1E+10	1	-1E+10	1	-1E+10	1	-1E+10	1	-1E+10	1	-1E+10	1
4902643	40	C	07/26/2025	04:06	-132.853	43.568	0	3450.00	0	1.5520	0	34.6640	4	27.756	0	3394.743	0	104.2	4	31.1	4	-1E+10	1	-1E+10	1	-1E+10	1	-1E+10	1	-1E+10	1	-1E+10	1
4902643	40	C	07/26/2025	04:06	-132.853	43.568	0	3469.90	0	1.5520	0	34.6640	4	27.756	0	3414.169	0	104.6	4	31.2	4	-1E+10	1	-1E+10	1	-1E+10	1	-1E+10	1	-1E+10	1	-1E+10	1
4902643	40	C	07/26/2025	04:06	-132.853	43.568	0	3489.60	0	1.5510	0	34.6650	4	27.757	0	3433.398	0	104.9	4	31.3	4	-1E+10	1	-1E+10	1	-1E+10	1	-1E+10	1	-1E+10	1	-1E+10	1
4902643	40	C	07/26/2025	04:06	-132.853	43.568	0	3509.80	0	1.5510	0	34.6650	4	27.757	0	3453.113	0	105.1	4	31.4	4	-1E+10	1	-1E+10	1	-1E+10	1	-1E+10	1	-1E+10	1	-1E+10	1
4902643	40	C	07/26/2025	04:06	-132.853	43.568	0	3529.60	0	1.5510	0	34.6660	4	27.758	0	3472.436	0	105.4	4	31.4	4	-1E+10	1	-1E+10	1	-1E+10	1	-1E+10	1	-1E+10	1	-1E+10	1
4902643	40	C	07/26/2025	04:06	-132.853	43.568	0	3550.00	0	1.5500	0	34.6660	4	27.758	0	3492.343	0	105.6	4	31.5	4	-1E+10	1	-1E+10	1	-1E+10	1	-1E+10	1	-1E+10	1	-1E+10	1
4902643	40	C	07/26/2025	04:06	-132.853	43.568	0	3570.10	0	1.5510	0	34.6660	4	27.758	0	3511.955	0	105.8	4	31.6	4	-1E+10	1	-1E+10	1	-1E+10	1	-1E+10	1	-1E+10	1	-1E+10	1
4902643	40	C	07/26/2025	04:06	-132.853	43.568	0	3590.10	0	1.5510	0	34.6670	4	27.759	0	3531.468	0	105.8	4	31.6	4	-1E+10	1	-1E+10	1	-1E+10	1	-1E+10	1	-1E+10	1	-1E+10	1
4902643	40	C	07/26/2025	04:06	-132.853	43.568	0	3610.10	0	1.5510	0	34.6670	4	27.759	0	3550.980	0	105.9	4	31.6	4	-1E+10	1	-1E+10	1	-1E+10	1	-1E+10	1	-1E+10	1	-1E+10	1
4902643	40	C	07/26/2025	04:06	-132.853	43.568	0	3625.70	0	1.5510	0	34.6680	4	27.760	0	3566.197	0	106.0	4	31.6	4	-1E+10	1	-1E+10	1	-1E+10	1	-1E+10	1	-1E+10	1	-1E+10	1
4902643	40	C	07/26/2025	04:06	-132.853	43.568	0	3631.70	0	1.5520	0	34.6680	4	27.760	0	3572.050	0	106.0	4	31.6	4	-1E+10	1	-1E+10	1	-1E+10	1	-1E+10	1	-1E+10	1	-1E+10	1
4902643	40	C	07/26/2025	04:06	-132.853	43.568	0	3632.60	0	1.5520	0	34.6680	4	27.760	0	3572.928	0	106.0	4	31.6	4	-1E+10	1	-1E+10	1	-1E+10	1	-1E+10	1	-1E+10	1	-1E+10	1
4902643	40	C	07/26/2025	04:06	-132.853	43.568	0	3633.50	0	1.5520	0	34.6680	4	27.760	0	3573.806	0	106.0	4	31.6	4	-1E+10	1	-1E+10	1	-1E+10	1	-1E+10	1	-1E+10	1	-1E+10	1
4902643	40	C	07/26/2025	04:06	-132.853	43.568	0	3634.40	0	1.5520	0	34.6680	4	27.760	0	3574.684	0	106.0	4	31.6	4	-1E+10	1	-1E+10	1	-1E+10	1	-1E+10	1	-1E+10	1	-1E+10	1
4902643	40	C	07/26/2025	04:06	-132.853	43.568	0	3635.30	0	1.5520	0	34.6680	4	27.760	0	3575.562	0	105.9	4	31.6	4	-1E+10	1	-1E+10	1	-1E+10	1	-1E+10	1	-1E+10	1	-1E+10	1
4902643	40	C	07/26/2025	04:06	-132.853	43.568	0	3636.30	0	1.5520	0	34.6680	4	27.760	0	3576.537	0	105.9	4	31.6	4	-1E+10	1	-1E+10	1	-1E+10	1	-1E+10	1	-1E+10	1	-1E+10	1
4902643	40	C	07/26/2025	04:06	-132.853	43.568	0	3637.10	0	1.5520	0	34.6680	4	27.760	0	3577.317	0	105.9	4	31.6	4	-1E+10	1	-1E+10	1	-1E+10	1	-1E+10	1	-1E+10	1	-1E+10	1
4902643	40	C	07/26/2025	04:06	-132.853	43.568	0	3638.10	0	1.5520	0	34.6680	4	27.760	0	3578.293	0	105.9	4	31.6	4	-1E+10	1	-1E+10	1	-1E+10	1	-1E+10	1	-1E+10	1	-1E+10	1
4902643	40	C	07/26/2025	04:06	-132.853	43.568	0	3639.50	0	1.5520	0	34.6680	4	27.760	0	3579.658	0	105.9	4	31.6	4	-1E+10	1	-1E+10	1	-1E+10	1	-1E+10	1	-1E+10	1	-1E+10	1
4902643	40	C	07/26/2025	04:06	-132.853	43.568	0	3640.80	0	1.5520	0	34.6680	4	27.760	0	3580.926	0	105.9	4	31.6	4	-1E+10	1	-1E+10	1	-1E+10	1	-1E+10	1	-1E+10	1	-1E+10	1
4902643	40	C	07/26/2025	04:06	-132.853	43.568	0	3641.70	0	1.5530	0	34.6680	4	27.760	0	3581.804	0	105.9	4	31.6	4	-1E+10	1	-1E+10	1	-1E+10	1	-1E+10	1	-1E+10	1	-1E+10	1
4902643	40	C	07/26/2025	04:06	-132.853	43.568	0	3642.60	0	1.5530	0	34.6680	4	27.760	0	3582.682	0	105.9	4	31.6	4	-1E+10	1	-1E+10	1	-1E+10	1	-1E+10	1	-1E+10	1	-1E+10	1
4902643	40	C	07/26/2025	04:06	-132.853	43.568	0	3643.50	0	1.5530	0	34.6680	4	27.760	0	3583.560	0	105.8	4	31.6	4	-1E+10	1	-1E+10	1	-1E+10	1	-1E+10	1	-1E+10	1	-1E+10	1
4902643	40	C	07/26/2025	04:06	-132.853	43.568	0	3644.40	0	1.5530	0	34.6680	4	27.760	0	3584.437	0	105.8	4	31.6	4	-1E+10	1	-1E+10	1	-1E+10	1	-1E+10	1	-1E+10	1	-1E+10	1
4902643	40	C	07/26/2025	04:06	-132.853	43.568	0	3645.40	0	1.5530	0	34.6680	4	27.760	0	3585.413	0	105.8	4	31.6	4	-1E+10	1	-1E+10	1	-1E+10	1	-1E+10	1	-1E+10	1	-1E+10	1
4902643	40	C	07/26/2025	04:06	-132.853	43.568	0	3646.30	0	1.5530	0	34.6680	4	27.760	0	3586.291	0	105.8	4	31.6	4	-1E+10	1	-1E+10	1	-1E+10	1	-1E+10	1	-1E+10	1	-1E+10	1
4902643	40	C	07/26/2025	04:06	-132.853	43.568	0	3647.30	0	1.5520	0	34.6680	4	27.760	0	3587.266	0	105.9	4	31.6	4	-1E+10	1	-1E+10	1	-1E+10	1	-1E+10	1	-1E+10	1	-1E+10	1
4902643	40	C	07/26/2025	04:06	-132.853	43.568	0	3648.50	0	1.5530	0	34.6680	4	27.760	0	3588.437	0	105.9	4	31.6	4	-1E+10	1	-1E+10	1	-1E+10	1	-1E+10	1	-1E+10	1	-1E+10	1
4902643	40	C	07/26/2025	04:06	-132.853	43.568	0	3650.50	0	1.5530	0	34.6680	4	27.760	0	3590.387	0	105.9	4	31.6	4	-1E+10	1	-1E+10	1	-1E+10	1	-1E+10	1	-1E+10	1	-1E+10	1
4902643	40	C	07/26/2025	04:06	-132.853	43.568	0	3651.90	0	1.5520	0	34.6680	4	27.760	0	3591.753	0	106.0	4	31.6	4	-1E+10	1	-1E+10	1	-1E+10	1	-1E+10	1	-1E+10	1	-1E+10	1
4902643	40	C	07/26/2025	04:06	-132.853	43.568	0	3652.70	0	1.5520	0	34.6680	4	27.760	0	3592.533	0	106.0	4	31.6	4	-1E+10	1	-1E+10	1	-1E+10	1	-1E+10	1	-1E+10	1	-1E+10	1
4902643	40	C	07/26/2025	04:06	-132.853	43.568	0	3654.50	0	1.5500	0	34.6680	4	27.760	0	3594.289	0	106.0	4	31.6	4	-1E+10	1	-1E+10	1	-1E+10	1	-1E+10	1	-1E+10	1	-1E+10	1
4902643	40	C	07/26/2025	04:06	-132.853	43.568	0	3655.70	0	1.5500	0	34.6690	4	27.761	0	3595.459	0	105.9	4	31.6	4	-1E+10	1	-1E+10	1	-1E+10	1	-1E+10	1	-1E+10	1	-1E+10	1
4902643	40	C	07/26/2025	04:06	-132.853	43.568	0	3656.50	0	1.5510	0	34.6690	4	27.761	0	3596.239	0	106.0	4	31.6	4	-1E+10	1	-1E+10	1	-1E+10	1	-1E+10	1	-1E+10	1	-1E+10	1
4902643	40	C	07/26/2025	04:06	-132.853	43.568	0	3657.60	0	1.5510	0	34.6680	4	27.760	0	3597.312	0	105.9	4	31.6	4	-1E+10	1	-1E+10	1	-1E+10	1	-1E+10	1	-1E+10	1	-1E+10	1
4902643	40	C	07/26/2025	04:06	-132.853	43.568	0	3658.70	0	1.5510	0	34.6690	4	27.761	0	3598.385	0	105.9	4	31.6	4	-1E+10	1	-1E+10	1	-1E+10	1	-1E+10	1	-1E+10	1	-1E+10	1
4902643	40	C	07/26/2025	04:06	-132.853	43.568	0	3659.60	0	1.5500	0	34.6690	4	27.761	0	3599.263	0	105.9	4	31.6	4	-1E+10	1	-1E+10	1	-1E+10	1	-1E+10	1	-1E+10	1	-1E+10	1
4902643	40	C	07/26/2025	04:06	-132.853	43.568	0	3660.60	0	1.5500	0	34.6690	4	27.761	0	3600.238	0	106.0	4	31.6	4	-1E+10	1	-1E+10	1	-1E+10	1	-1E+10	1	-1E+10	1	-1E+10	1
4902643	40	C	07/26/2025	04:06	-132.853	43.568	0	3661.80	0	1.5510	0	34.6690	4	27.761	0	3601.408	0	106.0	4	31.6	4	-1E+10	1	-1E+10	1	-1E+10	1	-1E+10	1	-1E+10	1	-1E+10	1
4902643	40	C	07/26/2025	04:06	-132.853	43.568	0	3662.60	0	1.5500	0	34.6690	4	27.761	0	3602.189	0	105.9	4	31.6	4	-1E+10	1	-1E+10	1	-1E+10	1	-1E+10	1	-1E+10	1	-1E+10	1
4902643	40	C	07/26/2025	04:06	-132.853	43.568	0	3663.30	0	1.5510	0	34.6690	4	27.761	0	3602.871	0	105.9	4	31.6	4	-1E+10	1	-1E+10	1	-1E+10	1	-1E+10	1	-1E+10	1	-1E+10	1
4902643	40	C	07/26/2025	04:06	-132.853	43.568	0	3664.50	0	1.5500	0	34.6690	4	27.761	0	3604.042	0	105.9	4	31.6	4	-1E+10	1	-1E+10	1	-1E+10	1	-1E+10	1	-1E+10	1	-1E+10	1
4902643	40	C	07/26/2025	04:06	-132.853	43.568	0	3665.80	0	1.5510	0	34.6690	4	27.761	0	3605.310	0	105.9	4	31.6	4	-1E+10	1	-1E+10	1	-1E+10	1	-1E+10	1	-1E+10	1	-1E+10	1
4902643	40	C	07/26/2025	04:06	-132.853	43.568	0	3666.50	0	1.5510	0	34.6690	4	27.761	0	3605.992	0	105.9	4	31.6	4	-1E+10	1	-1E+10	1	-1E+10	1	-1E+10	1	-1E+10	1	-1E+10	1
4902643	40	C	07/26/2025	04:06	-132.853	43.568	0	3667.40	0	1.5510	0	34.6690	4	27.761	0	3606.870	0	105.9	4	31.6	4	-1E+10	1	-1E+10	1	-1E+10	1	-1E+10	1	-1E+10	1	-1E+10	1
4902643	40	C	07/26/2025	04:06	-132.853	43.568	0	3668.50	0	1.5510	0	34.6690	4	27.761	0	3607.943	0	105.9	4	31.6	4	-1E+10	1	-1E+10	1	-1E+10	1	-1E+10	1	-1E+10	1	-1E+10	1
4902643	40	C	07/26/2025	04:06	-132.853	43.568	0	3669.60	0	1.5510	0	34.6690	4	27.761	0	3609.016	0	105.9	4	31.6	4	-1E+10	1	-1E+10	1	-1E+10	1	-1E+10	1	-1E+10	1	-1E+10	1
4902643	40	C	07/26/2025	04:06	-132.853	43.568	0	3670.40	0	1.5510	0	34.6690	4	27.761	0	3609.796	0	105.9	4	31.6	4	-1E+10	1	-1E+10	1	-1E+10	1	-1E+10	1	-1E+10	1	-1E+10	1
4902643	40	C	07/26/2025	04:06	-132.853	43.568	0	3671.50	0	1.5510	0	34.6690	4	27.761	0	3610.869	0	105.9	4	31.6	4	-1E+10	1	-1E+10	1	-1E+10	1	-1E+10	1	-1E+10	1	-1E+10	1
4902643	40	C	07/26/2025	04:06	-132.853	43.568	0	3673.00	0	1.5510	0	34.6690	4	27.761	0	3612.331	0	105.9	4	31.6	4	-1E+10	1	-1E+10	1	-1E+10	1	-1E+10	1	-1E+10	1	-1E+10	1
4902643	40	C	07/26/2025	04:06	-132.853	43.568	0	3673.50	0	1.5520	0	34.6690	4	27.761	0	3612.819	0	105.9	4	31.6	4	-1E+10	1	-1E+10	1	-1E+10	1	-1E+10	1	-1E+10	1	-1E+10	1
4902643	40	C	07/26/2025	04:06	-132.853	43.568	0	3674.40	0	1.5510	0	34.6680	4	27.760	0	3613.697	0	105.9	4	31.6	4	-1E+10	1	-1E+10	1	-1E+10	1	-1E+10	1	-1E+10	1	-1E+10	1
4902643	40	C	07/26/2025	04:06	-132.853	43.568	0	3675.50	0	1.5510	0	34.6690	4	27.761	0	3614.770	0	105.9	4	31.6	4	-1E+10	1	-1E+10	1	-1E+10	1	-1E+10	1	-1E+10	1	-1E+10	1
4902643	40	C	07/26/2025	04:06	-132.853	43.568	0	3676.60	0	1.5510	0	34.6690	4	27.761	0	3615.842	0	105.9	4	31.6	4	-1E+10	1	-1E+10	1	-1E+10	1	-1E+10	1	-1E+10	1	-1E+10	1
4902643	40	C	07/26/2025	04:06	-132.853	43.568	0	3678.00	0	1.5520	0	34.6690	4	27.761	0	3617.208	0	105.9	4	31.6	4	-1E+10	1	-1E+10	1	-1E+10	1	-1E+10	1	-1E+10	1	-1E+10	1
4902643	40	C	07/26/2025	04:06	-132.853	43.568	0	3678.40	0	1.5520	0	34.6680	4	27.760	0	3617.598	0	105.9	4	31.6	4	-1E+10	1	-1E+10	1	-1E+10	1	-1E+10	1	-1E+10	1	-1E+10	1
4902643	40	C	07/26/2025	04:06	-132.853	43.568	0																										
4902643	41	C	08/05/2025	03:24	-132.803	43.532	0	2.10	0	19.0390	0	32.5220	0	23.120	0	2.083	0	221.9	4	95.1	4	-1E+10	1	-1E+10	1	-1E+10	1	-1E+10	1	-1E+10	1	-1E+10	1
4902643	41	C	08/05/2025	03:24	-132.803	43.532	0	2.20	0	19.0390	0	32.5210	0	23.119	0	2.182	0	222.0	4	95.1	4	-1E+10	1	-1E+10	1	-1E+10	1	-1E+10	1	-1E+10	1	-1E+10	1
4902643	41	C	08/05/2025	03:24	-132.803	43.532	0	2.30	0	19.0390	0	32.5200	0	23.118	0	2.282	0	222.0	4	95.1	4	-1E+10	1	-1E+10	1	-1E+10	1	-1E+10	1	-1E+10	1	-1E+10	1
4902643	41	C	08/05/2025	03:24	-132.803	43.532	0	2.50	0	19.0390	0	32.5200	0	23.118	0	2.480	0	222.0	4	95.1	4	-1E+10	1	-1E+10	1	-1E+10	1	-1E+10	1	-1E+10	1	-1E+10	1
4902643	41	C	08/05/2025	03:24	-132.803	43.532	0	2.60	0	19.0380	0	32.5210	0	23.119	0	2.579	0	221.9	4	95.1	4	-1E+10	1	-1E+10	1	-1E+10	1	-1E+10	1	-1E+10	1	-1E+10	1
4902643	41	C	08/05/2025	03:24	-132.803	43.532	0	2.70	0	19.0390	0	32.5200	0	23.118	0	2.678	0	221.8	4	95.0	4	-1E+10	1	-1E+10	1	-1E+10	1	-1E+10	1	-1E+10	1	-1E+10	1
4902643	41	C	08/05/2025	03:24	-132.803	43.532	0	2.80	0	19.0390	0	32.5195	0	23.118	0	2.778	0	-1e10	1	-1e10	1	-1E+10	1	-1E+10	1	-1E+10	1	-1E+10	1	-1E+10	1	-1E+10	1
4902643	41	C	08/05/2025	03:24	-132.803	43.532	0	2.90	0	19.0410	0	32.5150	0	23.114	0	2.877	0	221.9	4	95.1	4	-1E+10	1	-1E+10	1	-1E+10	1	-1E+10	1	-1E+10	1	-1E+10	1
4902643	41	C	08/05/2025	03:24	-132.803	43.532	0	3.60	0	19.0410	0	32.5170	0	23.115	0	3.571	0	222.0	4	95.1	4	-1E+10	1	-1E+10	1	-1E+10	1	-1E+10	1	-1E+10	1	-1E+10	1
4902643	41	C	08/05/2025	03:24	-132.803	43.532	0	4.50	0	19.0420	0	32.5210	0	23.118	0	4.464	0	222.1	4	95.2	4	-1E+10	1	-1E+10	1	-1E+10	1	-1E+10	1	-1E+10	1	-1E+10	1
4902643	41	C	08/05/2025	03:24	-132.803	43.532	0	5.40	0	19.0410	0	32.5210	0	23.119	0	5.357	0	222.1	4	95.2	4	-1E+10	1	-1E+10	1	-1E+10	1	-1E+10	1	-1E+10	1	-1E+10	1
4902643	41	C	08/05/2025	03:24	-132.803	43.532	0	6.60	0	19.0420	0	32.5210	0	23.118	0	6.547	0	222.3	4	95.2	4	-1E+10	1	-1E+10	1	-1E+10	1	-1E+10	1	-1E+10	1	-1E+10	1
4902643	41	C	08/05/2025	03:24	-132.803	43.532	0	7.90	0	19.0420	0	32.5210	0	23.118	0	7.837	0	222.4	4	95.3	4	-1E+10	1	-1E+10	1	-1E+10	1	-1E+10	1	-1E+10	1	-1E+10	1
4902643	41	C	08/05/2025	03:24	-132.803	43.532	0	8.70	0	19.0420	0	32.5210	0	23.118	0	8.630	0	222.5	4	95.4	4	-1E+10	1	-1E+10	1	-1E+10	1	-1E+10	1	-1E+10	1	-1E+10	1
4902643	41	C	08/05/2025	03:24	-132.803	43.532	0	9.60	0	19.0430	0	32.5200	0	23.118	0	9.523	0	222.7	4	95.4	4	-1E+10	1	-1E+10	1	-1E+10	1	-1E+10	1	-1E+10	1	-1E+10	1
4902643	41	C	08/05/2025	03:24	-132.803	43.532	0	14.50	0	18.6530	0	32.5260	0	23.220	0	14.384	0	225.3	4	95.9	4	-1E+10	1	-1E+10	1	-1E+10	1	-1E+10	1	-1E+10	1	-1E+10	1
4902643	41	C	08/05/2025	03:24	-132.803	43.532	0	25.00	0	17.1500	0	32.5310	0	23.587	0	24.799	0	237.5	4	98.2	4	-1E+10	1	-1E+10	1	-1E+10	1	-1E+10	1	-1E+10	1	-1E+10	1
4902643	41	C	08/05/2025	03:24	-132.803	43.532	0	34.60	0	14.8450	0	32.5480	0	24.117	0	34.321	0	257.5	4	101.9	4	-1E+10	1	-1E+10	1	-1E+10	1	-1E+10	1	-1E+10	1	-1E+10	1
4902643	41	C	08/05/2025	03:24	-132.803	43.532	0	45.50	0	12.9350	0	32.5720	0	24.527	0	45.132	0	264.2	4	100.6	4	-1E+10	1	-1E+10	1	-1E+10	1	-1E+10	1	-1E+10	1	-1E+10	1
4902643	41	C	08/05/2025	03:24	-132.803	43.532	0	54.90	0	11.8380	0	32.5860	0	24.747	0	54.454	0	259.2	4	96.5	4	-1E+10	1	-1E+10	1	-1E+10	1	-1E+10	1	-1E+10	1	-1E+10	1
4902643	41	C	08/05/2025	03:24	-132.803	43.532	0	64.80	0	10.8900	0	32.5850	0	24.917	0	64.273	0	256.0	4	93.4	4	-1E+10	1	-1E+10	1	-1E+10	1	-1E+10	1	-1E+10	1	-1E+10	1
4902643	41	C	08/05/2025	03:24	-132.803	43.532	0	74.70	0	10.2670	0	32.6100	0	25.043	0	74.090	0	252.3	4	90.8	4	-1E+10	1	-1E+10	1	-1E+10	1	-1E+10	1	-1E+10	1	-1E+10	1
4902643	41	C	08/05/2025	03:24	-132.803	43.532	0	84.70	0	9.9300	0	32.6070	0	25.097	0	84.007	0	248.0	4	88.7	4	-1E+10	1	-1E+10	1	-1E+10	1	-1E+10	1	-1E+10	1	-1E+10	1
4902643	41	C	08/05/2025	03:24	-132.803	43.532	0	94.80	0	9.8490	0	32.6180	0	25.120	0	94.022	0	242.4	4	86.5	4	-1E+10	1	-1E+10	1	-1E+10	1	-1E+10	1	-1E+10	1	-1E+10	1
4902643	41	C	08/05/2025	03:24	-132.803	43.532	0	104.60	0	9.8410	0	32.6710	0	25.162	0	103.739	0	233.7	4	83.4	4	-1E+10	1	-1E+10	1	-1E+10	1	-1E+10	1	-1E+10	1	-1E+10	1
4902643	41	C	08/05/2025	03:24	-132.803	43.532	0	115.40	0	9.5430	0	32.8680	0	25.365	0	114.447	0	222.4	4	79.0	4	-1E+10	1	-1E+10	1	-1E+10	1	-1E+10	1	-1E+10	1	-1E+10	1
4902643	41	C	08/05/2025	03:24	-132.803	43.532	0	124.90	0	9.3160	0	33.1510	0	25.623	0	123.865	0	213.6	4	75.6	4	-1E+10	1	-1E+10	1	-1E+10	1	-1E+10	1	-1E+10	1	-1E+10	1
4902643	41	C	08/05/2025	03:24	-132.803	43.532	0	134.80	0	9.1800	0	33.3520	0	25.802	0	133.680	0	207.1	4	73.2	4	-1E+10	1	-1E+10	1	-1E+10	1	-1E+10	1	-1E+10	1	-1E+10	1
4902643	41	C	08/05/2025	03:24	-132.803	43.532	0	144.80	0	9.0360	0	33.4810	0	25.926	0	143.594	0	201.0	4	70.9	4	-1E+10	1	-1E+10	1	-1E+10	1	-1E+10	1	-1E+10	1	-1E+10	1
4902643	41	C	08/05/2025	03:24	-132.803	43.532	0	155.10	0	8.8380	0	33.6390	0	26.081	0	153.804	0	195.6	4	68.8	4	-1E+10	1	-1E+10	1	-1E+10	1	-1E+10	1	-1E+10	1	-1E+10	1
4902643	41	C	08/05/2025	03:24	-132.803	43.532	0	164.90	0	8.6720	0	33.7090	0	26.161	0	163.518	0	192.5	4	67.5	4	-1E+10	1	-1E+10	1	-1E+10	1	-1E+10	1	-1E+10	1	-1E+10	1
4902643	41	C	08/05/2025	03:24	-132.803	43.532	0	174.80	0	8.5360	0	33.7450	0	26.211	0	173.331	0	190.0	4	66.4	4	-1E+10	1	-1E+10	1	-1E+10	1	-1E+10	1	-1E+10	1	-1E+10	1
4902643	41	C	08/05/2025	03:24	-132.803	43.532	0	184.70	0	8.3460	0	33.7840	0	26.270	0	183.144	0	187.6	4	65.3	4	-1E+10	1	-1E+10	1	-1E+10	1	-1E+10	1	-1E+10	1	-1E+10	1
4902643	41	C	08/05/2025	03:24	-132.803	43.532	0	194.70	0	8.1590	0	33.8050	0	26.315	0	193.055	0	185.1	4	64.2	4	-1E+10	1	-1E+10	1	-1E+10	1	-1E+10	1	-1E+10	1	-1E+10	1
4902643	41	C	08/05/2025	03:24	-132.803	43.532	0	209.80	0	7.9140	0	33.8270	0	26.369	0	208.019	0	181.5	4	62.6	4	-1E+10	1	-1E+10	1	-1E+10	1	-1E+10	1	-1E+10	1	-1E+10	1
4902643	41	C	08/05/2025	03:24	-132.803	43.532	0	229.60	0	7.6240	0	33.8400	0	26.421	0	227.641	0	176.2	4	60.4	4	-1E+10	1	-1E+10	1	-1E+10	1	-1E+10	1	-1E+10	1	-1E+10	1
4902643	41	C	08/05/2025	03:24	-132.803	43.532	0	249.80	0	7.2970	0	33.8450	0	26.471	0	247.656	0	169.3	4	57.6	4	-1E+10	1	-1E+10	1	-1E+10	1	-1E+10	1	-1E+10	1	-1E+10	1
4902643	41	C	08/05/2025	03:24	-132.803	43.532	0	269.50	0	6.9460	0	33.8430	0	26.518	0	267.174	0	153.5	4	51.8	4	-1E+10	1	-1E+10	1	-1E+10	1	-1E+10	1	-1E+10	1	-1E+10	1
4902643	41	C	08/05/2025	03:24	-132.803	43.532	0	289.70	0	6.5900	0	33.8470	0	26.569	0	287.186	0	138.8	4	46.5	4	-1E+10	1	-1E+10	1	-1E+10	1	-1E+10	1	-1E+10	1	-1E+10	1
4902643	41	C	08/05/2025	03:24	-132.803	43.532	0	310.00	0	6.3140	0	33.8470	0	26.605	0	307.295	0	125.3	4	41.7	4	-1E+10	1	-1E+10	1	-1E+10	1	-1E+10	1	-1E+10	1	-1E+10	1
4902643	41	C	08/05/2025	03:24	-132.803	43.532	0	329.70	0	5.9700	0	33.8560	0	26.656	0	326.807	0	110.0	4	36.3	4	-1E+10	1	-1E+10	1	-1E+10	1	-1E+10	1	-1E+10	1	-1E+10	1
4902643	41	C	08/05/2025	03:24	-132.803	43.532	0	349.40	0	5.7020	0	33.8630	0	26.695	0	346.318	0	99.5	4	32.6	4	-1E+10	1	-1E+10	1	-1E+10	1	-1E+10	1	-1E+10	1	-1E+10	1
4902643	41	C	08/05/2025	03:24	-132.803	43.532	0	370.30	0	5.4780	0	33.8740	0	26.731	0	367.015	0	90.0	4	29.4	4	-1E+10	1	-1E+10	1	-1E+10	1	-1E+10	1	-1E+10	1	-1E+10	1
4902643	41	C	08/05/2025	03:24	-132.803	43.532	0	389.70	0	5.2850	0	33.8930	0	26.768	0	386.225	0	78.5	4	25.5	4	-1E+10	1	-1E+10	1	-1E+10	1	-1E+10	1	-1E+10	1	-1E+10	1
4902643	41	C	08/05/2025	03:24	-132.803	43.532	0	409.50	0	5.1890	0	33.9250	0	26.805	0	405.829	0	68.4	4	22.2	4	-1E+10	1	-1E+10	1	-1E+10	1	-1E+10	1	-1E+10	1	-1E+10	1
4902643	41	C	08/05/2025	03:24	-132.803	43.532	0	429.70	0	5.0260	0	33.9490	0	26.843	0	425.827	0	59.1	4	19.1	4	-1E+10	1	-1E+10	1	-1E+10	1	-1E+10	1	-1E+10	1	-1E+10	1
4902643	41	C	08/05/2025	03:24	-132.803	43.532	0	450.00	0	4.8930	0	33.9830	0	26.885	0	445.922	0	50.3	4	16.2	4	-1E+10	1	-1E+10	1	-1E+10	1	-1E+10	1	-1E+10	1	-1E+10	1
4902643	41	C	08/05/2025	03:24	-132.803	43.532	0	469.30	0	4.8050	0	34.0090	0	26.916	0	465.026	0	44.4	4	14.3	4	-1E+10	1	-1E+10	1	-1E+10	1	-1E+10	1	-1E+10	1	-1E+10	1
4902643	41	C	08/05/2025	03:24	-132.803	43.532	0	489.70	0	4.6640	0	34.0260	0	26.945	0	485.216	0	40.2	4	12.9	4	-1E+10	1	-1E+10	1	-1E+10	1	-1E+10	1	-1E+10	1	-1E+10	1
4902643	41	C	08/05/2025	03:24	-132.803	43.532	0	510.00	0	4.6030	0	34.0460	0	26.968	0	505.306	0	36.1	4	11.6	4	-1E+10	1	-1E+10	1	-1E+10	1	-1E+10	1	-1E+10	1	-1E+10	1
4902643	41	C	08/05/2025	03:24	-132.803	43.532	0	529.80	0	4.5090	0	34.0590	0	26.988	0	524.899	0	33.1	4	10.6	4	-1E+10	1	-1E+10	1	-1E+10	1	-1E+10	1	-1E+10	1	-1E+10	1
4902643	41	C	08/05/2025	03:24	-132.803	43.532	0	550.40	0	4.4160	0	34.0770	0	27.013	0	545.281	0	30.1	4	9.6	4	-1E+10	1	-1E+10	1	-1E+10	1	-1E+10	1	-1E+10	1	-1E+10	1
4902643	41	C	08/05/2025	03:24	-132.803	43.532	0	570.00	0	4.3550	0	34.0900	0	27.030	0	564.672	0	27.9	4	8.9	4	-1E+10	1	-1E+10	1	-1E+10	1	-1E+10	1	-1E+10	1	-1E+10	1
4902643	41	C	08/05/2025	03:24	-132.803	43.532	0	590.00	0	4.3010	0	34.1010	0	27.044	0	584.457	0	25.9	4	8.2	4	-1E+10	1	-1E+10	1	-1E+10	1	-1E+10	1	-1E+10	1	-1E+10	1
4902643	41	C	08/05/2025	03:24	-132.803	43.532	0	610.10	0	4.2170	0	34.1100	0	27.060	0	604.339	0	24.5	4	7.8	4	-1E+10	1	-1E+10	1	-1E+10	1	-1E+10	1	-1E+10	1	-1E+10	1
4902643	41	C	08/05/2025	03:24	-132.803	43.532	0	630.10	0	4.1500	0	34.1210	0	27.076	0	624.120	0	22.3	4	7.1	4	-1E+10	1	-1E+10	1	-1E+10	1	-1E+10	1	-1E+10	1	-1E+10	1
4902643	41	C	08/05/2025	03:24	-132.803	43.532	0	649.60	0	4.1170	0	34.1380	0	27.093	0	643.405	0	19.9	4	6.3	4	-1E+10	1	-1E+10	1	-1E+10	1	-1E+10	1	-1E+10	1	-1E+10	1
4902643	41	C	08/05/2025	03:24	-132.803	43.532	0	669.70	0	4.0610	0	34.1540	0	27.112	0	663.282	0	17.7	4	5.6	4	-1E+10	1	-1E+10	1	-1E+10	1	-1E+10	1	-1E+10	1	-1E+10	1
4902643	41	C	08/05/2025	03:24	-132.803	43.532	0	690.10	0	4.0100	0	34.1710	0	27.131	0	683.453	0	15.6	4	4.9	4	-1E+10	1	-1E+10	1	-1E+10	1	-1E+10	1	-1E+10	1	-1E+10	1
4902643	41	C	08/05/2025	03:24	-132.803	43.532	0	709.70	0	3.9690	0	34.1870	0	27.148	0	702.831	0	13.9	4	4.4	4	-1E+10	1	-1E+10	1	-1E+10	1	-1E+10	1	-1E+10	1	-1E+10	1
4902643	41	C	08/05/2025	03:24	-132.803	43.532	0	730.20	0	3.9260	0	34.2060	0	27.168	0	723.097	0	12.5	4	3.9	4	-1E+10	1	-1E+10	1	-1E+10	1	-1E+10	1	-1E+10	1	-1E+10	1
4902643	41	C	08/05/2025	03:24	-132.803	43.532	0	750.00	0	3.8920	0	34.2170	0	27.180	0	742.669	0	11.4	4	3.6	4	-1E+10	1	-1E+10	1	-1E+10	1	-1E+10	1	-1E+10	1	-1E+10	1
4902643	41	C	08/05/2025	03:24	-132.803	43.532	0	769.70	0	3.8410	0	34.2330	0	27.198	0	762.140	0	10.1	4	3.2	4	-1E+10	1	-1E+10	1	-1E+10	1	-1E+10	1	-1E+10	1	-1E+10	1
4902643	41	C	08/05/2025	03:24	-132.803	43.532	0	789.60	0	3.7850	0	34.2500	0	27.217	0	781.808	0	9.2	4	2.9	4	-1E+10	1	-1E+10	1	-1E+10	1	-1E+10	1	-1E+10	1	-1E+10	1
4902643	41	C	08/05/2025	03:24	-132.803	43.532	0	809.20	0	3.7480	0	34.2620	0	27.231	0	801.177	0	8.6	4	2.7	4	-1E+10	1	-1E+10	1	-1E+10	1	-1E+10	1	-1E+10	1	-1E+10	1
4902643	41	C	08/05/2025	03:24	-132.803	43.532	0	829.60	0	3.7110	0	34.2720	0	27.242	0	821.334	0	8.0	4	2.5	4	-1E+10	1	-1E+10	1	-1E+10	1	-1E+10	1	-1E+10	1	-1E+10	1
4902643	41	C	08/05/2025	03:24	-132.803	43.532	0	849.50	0	3.6830	0	34.2870	0	27.257	0	840.996	0	7.5	4	2.3	4	-1E+10	1	-1E+10	1	-1E+10	1	-1E+10	1	-1E+10	1	-1E+10	1
4902643	41	C	08/05/2025	03:24	-132.803	43.532	0	869.70	0	3.6600	0	34.2980	0	27.268	0	860.952	0	7.1	4	2.2	4	-1E+10	1	-1E+10	1	-1E+10	1	-1E+10	1	-1E+10	1	-1E+10	1
4902643	41	C	08/05/2025	03:24	-132.803	43.532	0	890.00	0	3.6520	0	34.3150	0	27.283	0	881.005	0	6.6	4	2.1	4	-1E+10	1	-1E+10	1	-1E+10	1	-1E+10	1	-1E+10	1	-1E+10	1
4902643	41	C	08/05/2025	03:24	-132.803	43.532	0	909.80	0	3.6300	0	34.3280	0	27.295	0	900.563	0	6.5	4	2.0	4	-1E+10	1	-1E+10	1	-1E+10	1	-1E+10	1	-1E+10	1	-1E+10	1
4902643	41	C	08/05/2025	03:24	-132.803	43.532	0	929.80	0	3.5940	0	34.3370	0	27.306	0	920.316	0	6.4	4	2.0	4	-1E+10	1	-1E+10	1	-1E+10	1	-1E+10	1	-1E+10	1	-1E+10	1
4902643	41	C	08/05/2025	03:24	-132.803	43.532	0	949.70	0	3.5720	0	34.3490	0	27.318	0	939.968	0	6.4	4	2.0	4	-1E+10	1	-1E+10	1	-1E+10	1	-1E+10	1	-1E+10	1	-1E+10	1
4902643	41	C	08/05/2025	03:24	-132.803	43.532	0	969.80	0	3.5280	0	34.3580	0	27.330	0	959.816	0	6.5	4	2.0	4	-1E+10	1	-1E+10	1	-1E+10	1	-1E+10	1	-1E+10	1	-1E+10	1
4902643	41	C	08/05/2025	03:24	-132.803	43.532	0	990.20	0	3.4880	0	34.3660	0	27.340	0	979.958	0	6.7	4	2.1	4	-1E+10	1	-1E+10	1	-1E+10	1	-1E+10	1	-1E+10	1	-1E+10	1
4902643	41	C	08/05/2025	03:24	-132.803	43.532	0	1010.00	0	3.4330	0	34.3770	0	27.354	0	999.506	0	7.0	4	2.2	4	-1E+10	1	-1E+10	1	-1E+10	1	-1E+10	1	-1E+10	1	-1E+10	1
4902643	41	C	08/05/2025	03:24	-132.803	43.532	0	1029.70	0	3.3850	0	34.3880	0	27.368	0	1018.954	0	7.2	4	2.3	4	-1E+10	1	-1E+10	1	-1E+10	1	-1E+10	1	-1E+10	1	-1E+10	1
4902643	41	C	08/05/2025	03:24	-132.803	43.532	0	1049.60	0	3.3440	0	34.3970	0	27.379	0	1038.597	0	7.5	4	2.3	4	-1E+10	1	-1E+10	1	-1E+10	1	-1E+10	1	-1E+10	1	-1E+10	1
4902643	41	C	08/05/2025	03:24	-132.803	43.532	0	1070.00	0	3.3070	0	34.4050	0	27.389	0	1058.732	0	7.9	4	2.4	4	-1E+10	1	-1E+10	1	-1E+10	1	-1E+10	1	-1E+10	1	-1E+10	1
4902643	41	C	08/05/2025	03:24	-132.803	43.532	0	1089.90	0	3.2720	0	34.4120	0	27.398	0	1078.371	0	8.3	4	2.6	4	-1E+10	1	-1E+10	1	-1E+10	1	-1E+10	1	-1E+10	1	-1E+10	1
4902643	41	C	08/05/2025	03:24	-132.803	43.532	0	1110.00	0	3.2430	0	34.4180	0	27.405	0	1098.206	0	8.7	4	2.7	4	-1E+10	1	-1E+10	1	-1E+10	1	-1E+10	1	-1E+10	1	-1E+10	1
4902643	41	C	08/05/2025	03:24	-132.803	43.532	0	1129.80	0	3.2130	0	34.4250	0	27.414	0	1117.743	0	9.2	4	2.8	4	-1E+10	1	-1E+10	1	-1E+10	1	-1E+10	1	-1E+10	1	-1E+10	1
4902643	41	C	08/05/2025	03:24	-132.803	43.532	0	1149.50	0	3.1740	0	34.4320	0	27.423	0	1137.179	0	9.8	4	3.0	4	-1E+10	1	-1E+10	1	-1E+10	1	-1E+10	1	-1E+10	1	-1E+10	1
4902643	41	C	08/05/2025	03:24	-132.803	43.532	0	1169.30	0	3.1550	0	34.4390	0	27.431	0	1156.713	0	10.6	4	3.3	4	-1E+10	1	-1E+10	1	-1E+10	1	-1E+10	1	-1E+10	1	-1E+10	1
4902643	41	C	08/05/2025	03:24	-132.803	43.532	0	1189.50	0	3.1120	0	34.4470	0	27.441	0	1176.639	0	11.6	4	3.6	4	-1E+10	1	-1E+10	1	-1E+10	1	-1E+10	1	-1E+10	1	-1E+10	1
4902643	41	C	08/05/2025	03:24	-132.803	43.532	0	1210.50	0	3.0650	0	34.4550	0	27.452	0	1197.352	0	12.4	4	3.8	4	-1E+10	1	-1E+10	1	-1E+10	1	-1E+10	1	-1E+10	1	-1E+10	1
4902643	41	C	08/05/2025	03:24	-132.803	43.532	0	1230.00	0	3.0370	0	34.4600	0	27.459	0	1216.584	0	12.9	4	4.0	4	-1E+10	1	-1E+10	1	-1E+10	1	-1E+10	1	-1E+10	1	-1E+10	1
4902643	41	C	08/05/2025	03:24	-132.803	43.532	0	1249.70	0	3.0100	0	34.4640	0	27.464	0	1236.011	0	13.4	4	4.1	4	-1E+10	1	-1E+10	1	-1E+10	1	-1E+10	1	-1E+10	1	-1E+10	1
4902643	41	C	08/05/2025	03:24	-132.803	43.532	0	1269.80	0	2.9820	0	34.4680	0	27.470	0	1255.831	0	14.1	4	4.4	4	-1E+10	1	-1E+10	1	-1E+10	1	-1E+10	1	-1E+10	1	-1E+10	1
4902643	41	C	08/05/2025	03:24	-132.803	43.532	0	1290.00	0	2.9420	0	34.4730	0	27.478	0	1275.747	0	15.1	4	4.6	4	-1E+10	1	-1E+10	1	-1E+10	1	-1E+10	1	-1E+10	1	-1E+10	1
4902643	41	C	08/05/2025	03:24	-132.803	43.532	0	1309.60	0	2.8870	0	34.4790	0	27.488	0	1295.070	0	16.1	4	5.0	4	-1E+10	1	-1E+10	1	-1E+10	1	-1E+10	1	-1E+10	1	-1E+10	1
4902643	41	C	08/05/2025	03:24	-132.803	43.532	0	1329.40	0	2.8340	0	34.4850	0	27.497	0	1314.589	0	17.2	4	5.3	4	-1E+10	1	-1E+10	1	-1E+10	1	-1E+10	1	-1E+10	1	-1E+10	1
4902643	41	C	08/05/2025	03:24	-132.803	43.532	0	1349.70	0	2.7900	0	34.4910	0	27.506	0	1334.599	0	18.1	4	5.5	4	-1E+10	1	-1E+10	1	-1E+10	1	-1E+10	1	-1E+10	1	-1E+10	1
4902643	41	C	08/05/2025	03:24	-132.803	43.532	0	1369.70	0	2.7570	0	34.4940	0	27.511	0	1354.311	0	18.9	4	5.8	4	-1E+10	1	-1E+10	1	-1E+10	1	-1E+10	1	-1E+10	1	-1E+10	1
4902643	41	C	08/05/2025	03:24	-132.803	43.532	0	1389.70	0	2.7170	0	34.4990	0	27.519	0	1374.021	0	20.1	4	6.2	4	-1E+10	1	-1E+10	1	-1E+10	1	-1E+10	1	-1E+10	1	-1E+10	1
4902643	41	C	08/05/2025	03:24	-132.803	43.532	0	1410.20	0	2.6770	0	34.5050	0	27.527	0	1394.222	0	21.2	4	6.5	4	-1E+10	1	-1E+10	1	-1E+10	1	-1E+10	1	-1E+10	1	-1E+10	1
4902643	41	C	08/05/2025	03:24	-132.803	43.532	0	1429.40	0	2.6440	0	34.5080	0	27.533	0	1413.140	0	22.1	4	6.8	4	-1E+10	1	-1E+10	1	-1E+10	1	-1E+10	1	-1E+10	1	-1E+10	1
4902643	41	C	08/05/2025	03:24	-132.803	43.532	0	1449.40	0	2.6070	0	34.5130	0	27.540	0	1432.845	0	23.4	4	7.2	4	-1E+10	1	-1E+10	1	-1E+10	1	-1E+10	1	-1E+10	1	-1E+10	1
4902643	41	C	08/05/2025	03:24	-132.803	43.532	0	1469.60	0	2.5650	0	34.5180	0	27.548	0	1452.745	0	24.6	4	7.5	4	-1E+10	1	-1E+10	1	-1E+10	1	-1E+10	1	-1E+10	1	-1E+10	1
4902643	41	C	08/05/2025	03:24	-132.803	43.532	0	1489.50	0	2.5300	0	34.5210	0	27.553	0	1472.347	0	25.6	4	7.8	4	-1E+10	1	-1E+10	1	-1E+10	1	-1E+10	1	-1E+10	1	-1E+10	1
4902643	41	C	08/05/2025	03:24	-132.803	43.532	0	1508.90	0	2.5040	0	34.5240	0	27.558	0	1491.455	0	26.6	4	8.1	4	-1E+10	1	-1E+10	1	-1E+10	1	-1E+10	1	-1E+10	1	-1E+10	1
4902643	41	C	08/05/2025	03:24	-132.803	43.532	0	1530.00	0	2.4670	0	34.5280	0	27.564	0	1512.236	0	28.0	4	8.5	4	-1E+10	1	-1E+10	1	-1E+10	1	-1E+10	1	-1E+10	1	-1E+10	1
4902643	41	C	08/05/2025	03:24	-132.803	43.532	0	1550.00	0	2.4330	0	34.5320	0	27.570	0	1531.931	0	29.1	4	8.9	4	-1E+10	1	-1E+10	1	-1E+10	1	-1E+10	1	-1E+10	1	-1E+10	1
4902643	41	C	08/05/2025	03:24	-132.803	43.532	0	1570.00	0	2.4040	0	34.5350	0	27.575	0	1551.625	0	30.2	4	9.2	4	-1E+10	1	-1E+10	1	-1E+10	1	-1E+10	1	-1E+10	1	-1E+10	1
4902643	41	C	08/05/2025	03:24	-132.803	43.532	0	1589.80	0	2.3700	0	34.5390	0	27.581	0	1571.120	0	31.4	4	9.6	4	-1E+10	1	-1E+10	1	-1E+10	1	-1E+10	1	-1E+10	1	-1E+10	1
4902643	41	C	08/05/2025	03:24	-132.803	43.532	0	1609.70	0	2.3410	0	34.5420	0	27.586	0	1590.711	0	32.4	4	9.9	4	-1E+10	1	-1E+10	1	-1E+10	1	-1E+10	1	-1E+10	1	-1E+10	1
4902643	41	C	08/05/2025	03:24	-132.803	43.532	0	1630.10	0	2.3150	0	34.5450	0	27.591	0	1610.793	0	33.5	4	10.2	4	-1E+10	1	-1E+10	1	-1E+10	1	-1E+10	1	-1E+10	1	-1E+10	1
4902643	41	C	08/05/2025	03:24	-132.803	43.532	0	1649.50	0	2.2860	0	34.5480	0	27.596	0	1629.889	0	34.8	4	10.6	4	-1E+10	1	-1E+10	1	-1E+10	1	-1E+10	1	-1E+10	1	-1E+10	1
4902643	41	C	08/05/2025	03:24	-132.803	43.532	0	1669.70	0	2.2650	0	34.5520	0	27.601	0	1649.770	0	36.2	4	11.0	4	-1E+10	1	-1E+10	1	-1E+10	1	-1E+10	1	-1E+10	1	-1E+10	1
4902643	41	C	08/05/2025	03:24	-132.803	43.532	0	1689.70	0	2.2350	0	34.5560	0	27.606	0	1669.452	0	37.7	4	11.4	4	-1E+10	1	-1E+10	1	-1E+10	1	-1E+10	1	-1E+10	1	-1E+10	1
4902643	41	C	08/05/2025	03:24	-132.803	43.532	0	1709.80	0	2.2070	0	34.5610	0	27.613	0	1689.232	0	39.0	4	11.8	4	-1E+10	1	-1E+10	1	-1E+10	1	-1E+10	1	-1E+10	1	-1E+10	1
4902643	41	C	08/05/2025	03:24	-132.803	43.532	0	1730.00	0	2.1840	0	34.5620	0	27.615	0	1709.107	0	40.0	4	12.1	4	-1E+10	1	-1E+10	1	-1E+10	1	-1E+10	1	-1E+10	1	-1E+10	1
4902643	41	C	08/05/2025	03:24	-132.803	43.532	0	1750.00	0	2.1640	0	34.5650	0	27.620	0	1728.784	0	41.3	4	12.5	4	-1E+10	1	-1E+10	1	-1E+10	1	-1E+10	1	-1E+10	1	-1E+10	1
4902643	41	C	08/05/2025	03:24	-132.803	43.532	0	1770.30	0	2.1450	0	34.5690	0	27.624	0	1748.755	0	42.6	4	12.9	4	-1E+10	1	-1E+10	1	-1E+10	1	-1E+10	1	-1E+10	1	-1E+10	1
4902643	41	C	08/05/2025	03:24	-132.803	43.532	0	1789.60	0	2.1270	0	34.5720	0	27.628	0	1767.739	0	43.7	4	13.2	4	-1E+10	1	-1E+10	1	-1E+10	1	-1E+10	1	-1E+10	1	-1E+10	1
4902643	41	C	08/05/2025	03:24	-132.803	43.532	0	1810.40	0	2.1080	0	34.5750	0	27.632	0	1788.198	0	44.9	4	13.6	4	-1E+10	1	-1E+10	1	-1E+10	1	-1E+10	1	-1E+10	1	-1E+10	1
4902643	41	C	08/05/2025	03:24	-132.803	43.532	0	1829.80	0	2.0900	0	34.5770	0	27.635	0	1807.277	0	46.0	4	13.9	4	-1E+10	1	-1E+10	1	-1E+10	1	-1E+10	1	-1E+10	1	-1E+10	1
4902643	41	C	08/05/2025	03:24	-132.803	43.532	0	1850.10	0	2.0720	0	34.5800	0	27.639	0	1827.240	0	47.3	4	14.3	4	-1E+10	1	-1E+10	1	-1E+10	1	-1E+10	1	-1E+10	1	-1E+10	1
4902643	41	C	08/05/2025	03:24	-132.803	43.532	0	1869.90	0	2.0470	0	34.5830	0	27.644	0	1846.710	0	48.9	4	14.8	4	-1E+10	1	-1E+10	1	-1E+10	1	-1E+10	1	-1E+10	1	-1E+10	1
4902643	41	C	08/05/2025	03:24	-132.803	43.532	0	1890.00	0	2.0280	0	34.5860	0	27.648	0	1866.472	0	50.1	4	15.1	4	-1E+10	1	-1E+10	1	-1E+10	1	-1E+10	1	-1E+10	1	-1E+10	1
4902643	41	C	08/05/2025	03:24	-132.803	43.532	0	1910.20	0	2.0070	0	34.5890	0	27.652	0	1886.331	0	51.5	4	15.5	4	-1E+10	1	-1E+10	1	-1E+10	1	-1E+10	1	-1E+10	1	-1E+10	1
4902643	41	C	08/05/2025	03:24	-132.803	43.532	0	1929.90	0	1.9860	0	34.5920	0	27.656	0	1905.697	0	52.9	4	15.9	4	-1E+10	1	-1E+10	1	-1E+10	1	-1E+10	1	-1E+10	1	-1E+10	1
4902643	41	C	08/05/2025	03:24	-132.803	43.532	0	1949.50	0	1.9710	0	34.5940	0	27.659	0	1924.963	0	54.0	4	16.3	4	-1E+10	1	-1E+10	1	-1E+10	1	-1E+10	1	-1E+10	1	-1E+10	1
4902643	41	C	08/05/2025	03:24	-132.803	43.532	0	1970.20	0	1.9550	0	34.5970	0	27.663	0	1945.308	0	55.1	4	16.6	4	-1E+10	1	-1E+10	1	-1E+10	1	-1E+10	1	-1E+10	1	-1E+10	1
4902643	41	C	08/05/2025	03:24	-132.803	43.532	0	1989.80	0	1.9420	0	34.5990	0	27.665	0	1964.570	0	56.1	4	16.9	4	-1E+10	1	-1E+10	1	-1E+10	1	-1E+10	1	-1E+10	1	-1E+10	1
4902643	41	C	08/05/2025	03:24	-132.803	43.532	0	2009.70	0	1.9300	0	34.6010	4	27.668	0	1984.125	0	57.1	4	17.2	4	-1E+10	1	-1E+10	1	-1E+10	1	-1E+10	1	-1E+10	1	-1E+10	1
4902643	41	C	08/05/2025	03:24	-132.803	43.532	0	2030.00	0	1.9180	0	34.6020	4	27.670	0	2004.071	0	57.9	4	17.4	4	-1E+10	1	-1E+10	1	-1E+10	1	-1E+10	1	-1E+10	1	-1E+10	1
4902643	41	C	08/05/2025	03:24	-132.803	43.532	0	2049.90	0	1.9080	0	34.6040	4	27.672	0	2023.623	0	58.7	4	17.7	4	-1E+10	1	-1E+10	1	-1E+10	1	-1E+10	1	-1E+10	1	-1E+10	1
4902643	41	C	08/05/2025	03:24	-132.803	43.532	0	2070.40	0	1.8990	0	34.6050	4	27.674	0	2043.762	0	59.4	4	17.9	4	-1E+10	1	-1E+10	1	-1E+10	1	-1E+10	1	-1E+10	1	-1E+10	1
4902643	41	C	08/05/2025	03:24	-132.803	43.532	0	2090.10	0	1.8950	0	34.6060	4	27.675	0	2063.113	0	59.9	4	18.0	4	-1E+10	1	-1E+10	1	-1E+10	1	-1E+10	1	-1E+10	1	-1E+10	1
4902643	41	C	08/05/2025	03:24	-132.803	43.532	0	2110.00	0	1.8870	0	34.6070	4	27.677	0	2082.659	0	60.7	4	18.3	4	-1E+10	1	-1E+10	1	-1E+10	1	-1E+10	1	-1E+10	1	-1E+10	1
4902643	41	C	08/05/2025	03:24	-132.803	43.532	0	2129.80	0	1.8770	0	34.6090	4	27.679	0	2102.105	0	61.5	4	18.5	4	-1E+10	1	-1E+10	1	-1E+10	1	-1E+10	1	-1E+10	1	-1E+10	1
4902643	41	C	08/05/2025	03:24	-132.803	43.532	0	2149.80	0	1.8680	0	34.6100	4	27.681	0	2121.746	0	62.3	4	18.7	4	-1E+10	1	-1E+10	1	-1E+10	1	-1E+10	1	-1E+10	1	-1E+10	1
4902643	41	C	08/05/2025	03:24	-132.803	43.532	0	2170.00	0	1.8590	0	34.6120	4	27.683	0	2141.581	0	63.0	4	18.9	4	-1E+10	1	-1E+10	1	-1E+10	1	-1E+10	1	-1E+10	1	-1E+10	1
4902643	41	C	08/05/2025	03:24	-132.803	43.532	0	2189.90	0	1.8520	0	34.6130	4	27.685	0	2161.120	0	63.6	4	19.1	4	-1E+10	1	-1E+10	1	-1E+10	1	-1E+10	1	-1E+10	1	-1E+10	1
4902643	41	C	08/05/2025	03:24	-132.803	43.532	0	2210.20	0	1.8450	0	34.6140	4	27.686	0	2181.050	0	64.3	4	19.3	4	-1E+10	1	-1E+10	1	-1E+10	1	-1E+10	1	-1E+10	1	-1E+10	1
4902643	41	C	08/05/2025	03:24	-132.803	43.532	0	2230.10	0	1.8390	0	34.6150	4	27.688	0	2200.585	0	64.9	4	19.5	4	-1E+10	1	-1E+10	1	-1E+10	1	-1E+10	1	-1E+10	1	-1E+10	1
4902643	41	C	08/05/2025	03:24	-132.803	43.532	0	2249.80	0	1.8320	0	34.6160	4	27.689	0	2219.922	0	65.6	4	19.7	4	-1E+10	1	-1E+10	1	-1E+10	1	-1E+10	1	-1E+10	1	-1E+10	1
4902643	41	C	08/05/2025	03:24	-132.803	43.532	0	2269.90	0	1.8250	0	34.6180	4	27.691	0	2239.650	0	66.3	4	19.9	4	-1E+10	1	-1E+10	1	-1E+10	1	-1E+10	1	-1E+10	1	-1E+10	1
4902643	41	C	08/05/2025	03:24	-132.803	43.532	0	2290.10	0	1.8190	0	34.6180	4	27.692	0	2259.475	0	66.9	4	20.1	4	-1E+10	1	-1E+10	1	-1E+10	1	-1E+10	1	-1E+10	1	-1E+10	1
4902643	41	C	08/05/2025	03:24	-132.803	43.532	0	2310.00	0	1.8120	0	34.6200	4	27.694	0	2279.003	0	67.6	4	20.3	4	-1E+10	1	-1E+10	1	-1E+10	1	-1E+10	1	-1E+10	1	-1E+10	1
4902643	41	C	08/05/2025	03:24	-132.803	43.532	0	2330.00	0	1.8050	0	34.6210	4	27.695	0	2298.627	0	68.4	4	20.5	4	-1E+10	1	-1E+10	1	-1E+10	1	-1E+10	1	-1E+10	1	-1E+10	1
4902643	41	C	08/05/2025	03:24	-132.803	43.532	0	2349.80	0	1.7960	0	34.6220	4	27.697	0	2318.053	0	69.2	4	20.8	4	-1E+10	1	-1E+10	1	-1E+10	1	-1E+10	1	-1E+10	1	-1E+10	1
4902643	41	C	08/05/2025	03:24	-132.803	43.532	0	2369.70	0	1.7890	0	34.6230	4	27.699	0	2337.576	0	70.0	4	21.0	4	-1E+10	1	-1E+10	1	-1E+10	1	-1E+10	1	-1E+10	1	-1E+10	1
4902643	41	C	08/05/2025	03:24	-132.803	43.532	0	2390.30	0	1.7830	0	34.6240	4	27.700	0	2357.784	0	70.7	4	21.2	4	-1E+10	1	-1E+10	1	-1E+10	1	-1E+10	1	-1E+10	1	-1E+10	1
4902643	41	C	08/05/2025	03:24	-132.803	43.532	0	2410.00	0	1.7740	0	34.6250	4	27.701	0	2377.107	0	71.5	4	21.5	4	-1E+10	1	-1E+10	1	-1E+10	1	-1E+10	1	-1E+10	1	-1E+10	1
4902643	41	C	08/05/2025	03:24	-132.803	43.532	0	2429.80	0	1.7680	0	34.6260	4	27.703	0	2396.526	0	72.1	4	21.6	4	-1E+10	1	-1E+10	1	-1E+10	1	-1E+10	1	-1E+10	1	-1E+10	1
4902643	41	C	08/05/2025	03:24	-132.803	43.532	0	2449.50	0	1.7610	0	34.6270	4	27.704	0	2415.845	0	72.8	4	21.8	4	-1E+10	1	-1E+10	1	-1E+10	1	-1E+10	1	-1E+10	1	-1E+10	1
4902643	41	C	08/05/2025	03:24	-132.803	43.532	0	2469.60	0	1.7520	0	34.6280	4	27.706	0	2435.556	0	73.7	4	22.1	4	-1E+10	1	-1E+10	1	-1E+10	1	-1E+10	1	-1E+10	1	-1E+10	1
4902643	41	C	08/05/2025	03:24	-132.803	43.532	0	2489.60	0	1.7440	0	34.6300	4	27.708	0	2455.166	0	74.5	4	22.3	4	-1E+10	1	-1E+10	1	-1E+10	1	-1E+10	1	-1E+10	1	-1E+10	1
4902643	41	C	08/05/2025	03:24	-132.803	43.532	0	2509.70	0	1.7370	0	34.6310	4	27.710	0	2474.872	0	75.4	4	22.6	4	-1E+10	1	-1E+10	1	-1E+10	1	-1E+10	1	-1E+10	1	-1E+10	1
4902643	41	C	08/05/2025	03:24	-132.803	43.532	0	2530.40	0	1.7290	0	34.6320	4	27.711	0	2495.164	0	76.4	4	22.9	4	-1E+10	1	-1E+10	1	-1E+10	1	-1E+10	1	-1E+10	1	-1E+10	1
4902643	41	C	08/05/2025	03:24	-132.803	43.532	0	2550.10	0	1.7230	0	34.6330	4	27.712	0	2514.475	0	77.1	4	23.1	4	-1E+10	1	-1E+10	1	-1E+10	1	-1E+10	1	-1E+10	1	-1E+10	1
4902643	41	C	08/05/2025	03:24	-132.803	43.532	0	2570.20	0	1.7170	0	34.6340	4	27.714	0	2534.176	0	77.8	4	23.3	4	-1E+10	1	-1E+10	1	-1E+10	1	-1E+10	1	-1E+10	1	-1E+10	1
4902643	41	C	08/05/2025	03:24	-132.803	43.532	0	2589.90	0	1.7110	0	34.6350	4	27.715	0	2553.483	0	78.4	4	23.5	4	-1E+10	1	-1E+10	1	-1E+10	1	-1E+10	1	-1E+10	1	-1E+10	1
4902643	41	C	08/05/2025	03:24	-132.803	43.532	0	2610.40	0	1.7050	0	34.6350	4	27.716	0	2573.572	0	79.2	4	23.7	4	-1E+10	1	-1E+10	1	-1E+10	1	-1E+10	1	-1E+10	1	-1E+10	1
4902643	41	C	08/05/2025	03:24	-132.803	43.532	0	2630.20	0	1.7000	0	34.6360	4	27.717	0	2592.974	0	80.1	4	24.0	4	-1E+10	1	-1E+10	1	-1E+10	1	-1E+10	1	-1E+10	1	-1E+10	1
4902643	41	C	08/05/2025	03:24	-132.803	43.532	0	2650.20	0	1.6940	0	34.6370	4	27.718	0	2612.570	0	80.4	4	24.1	4	-1E+10	1	-1E+10	1	-1E+10	1	-1E+10	1	-1E+10	1	-1E+10	1
4902643	41	C	08/05/2025	03:24	-132.803	43.532	0	2670.30	0	1.6890	0	34.6370	4	27.719	0	2632.262	0	80.9	4	24.2	4	-1E+10	1	-1E+10	1	-1E+10	1	-1E+10	1	-1E+10	1	-1E+10	1
4902643	41	C	08/05/2025	03:24	-132.803	43.532	0	2689.90	0	1.6840	0	34.6380	4	27.720	0	2651.462	0	81.6	4	24.4	4	-1E+10	1	-1E+10	1	-1E+10	1	-1E+10	1	-1E+10	1	-1E+10	1
4902643	41	C	08/05/2025	03:24	-132.803	43.532	0	2709.90	0	1.6780	0	34.6390	4	27.722	0	2671.052	0	82.4	4	24.6	4	-1E+10	1	-1E+10	1	-1E+10	1	-1E+10	1	-1E+10	1	-1E+10	1
4902643	41	C	08/05/2025	03:24	-132.803	43.532	0	2730.00	0	1.6740	0	34.6400	4	27.723	0	2690.739	0	83.0	4	24.8	4	-1E+10	1	-1E+10	1	-1E+10	1	-1E+10	1	-1E+10	1	-1E+10	1
4902643	41	C	08/05/2025	03:24	-132.803	43.532	0	2749.80	0	1.6710	0	34.6410	4	27.724	0	2710.130	0	83.5	4	25.0	4	-1E+10	1	-1E+10	1	-1E+10	1	-1E+10	1	-1E+10	1	-1E+10	1
4902643	41	C	08/05/2025	03:24	-132.803	43.532	0	2770.50	0	1.6680	0	34.6410	4	27.724	0	2730.401	0	84.0	4	25.1	4	-1E+10	1	-1E+10	1	-1E+10	1	-1E+10	1	-1E+10	1	-1E+10	1
4902643	41	C	08/05/2025	03:24	-132.803	43.532	0	2790.10	0	1.6640	0	34.6420	4	27.726	0	2749.592	0	84.7	4	25.3	4	-1E+10	1	-1E+10	1	-1E+10	1	-1E+10	1	-1E+10	1	-1E+10	1
4902643	41	C	08/05/2025	03:24	-132.803	43.532	0	2809.90	0	1.6590	0	34.6430	4	27.727	0	2768.978	0	85.4	4	25.5	4	-1E+10	1	-1E+10	1	-1E+10	1	-1E+10	1	-1E+10	1	-1E+10	1
4902643	41	C	08/05/2025	03:24	-132.803	43.532	0	2830.00	0	1.6540	0	34.6430	4	27.727	0	2788.656	0	86.1	4	25.7	4	-1E+10	1	-1E+10	1	-1E+10	1	-1E+10	1	-1E+10	1	-1E+10	1
4902643	41	C	08/05/2025	03:24	-132.803	43.532	0	2850.10	0	1.6480	0	34.6440	4	27.729	0	2808.332	0	86.9	4	26.0	4	-1E+10	1	-1E+10	1	-1E+10	1	-1E+10	1	-1E+10	1	-1E+10	1
4902643	41	C	08/05/2025	03:24	-132.803	43.532	0	2870.00	0	1.6420	0	34.6450	4	27.730	0	2827.810	0	87.7	4	26.2	4	-1E+10	1	-1E+10	1	-1E+10	1	-1E+10	1	-1E+10	1	-1E+10	1
4902643	41	C	08/05/2025	03:24	-132.803	43.532	0	2890.10	0	1.6370	0	34.6460	4	27.731	0	2847.482	0	88.3	4	26.4	4	-1E+10	1	-1E+10	1	-1E+10	1	-1E+10	1	-1E+10	1	-1E+10	1
4902643	41	C	08/05/2025	03:24	-132.803	43.532	0	2910.10	0	1.6330	0	34.6470	4	27.733	0	2867.055	0	89.0	4	26.6	4	-1E+10	1	-1E+10	1	-1E+10	1	-1E+10	1	-1E+10	1	-1E+10	1
4902643	41	C	08/05/2025	03:24	-132.803	43.532	0	2930.10	0	1.6290	0	34.6470	4	27.733	0	2886.626	0	89.6	4	26.8	4	-1E+10	1	-1E+10	1	-1E+10	1	-1E+10	1	-1E+10	1	-1E+10	1
4902643	41	C	08/05/2025	03:24	-132.803	43.532	0	2950.50	0	1.6270	0	34.6480	4	27.734	0	2906.586	0	90.1	4	26.9	4	-1E+10	1	-1E+10	1	-1E+10	1	-1E+10	1	-1E+10	1	-1E+10	1
4902643	41	C	08/05/2025	03:24	-132.803	43.532	0	2969.90	0	1.6240	0	34.6480	4	27.734	0	2925.567	0	90.7	4	27.1	4	-1E+10	1	-1E+10	1	-1E+10	1	-1E+10	1	-1E+10	1	-1E+10	1
4902643	41	C	08/05/2025	03:24	-132.803	43.532	0	2990.00	0	1.6180	0	34.6490	4	27.736	0	2945.230	0	91.4	4	27.3	4	-1E+10	1	-1E+10	1	-1E+10	1	-1E+10	1	-1E+10	1	-1E+10	1
4902643	41	C	08/05/2025	03:24	-132.803	43.532	0	3010.00	0	1.6140	0	34.6500	4	27.737	0	2964.794	0	92.1	4	27.5	4	-1E+10	1	-1E+10	1	-1E+10	1	-1E+10	1	-1E+10	1	-1E+10	1
4902643	41	C	08/05/2025	03:24	-132.803	43.532	0	3030.00	0	1.6090	0	34.6510	4	27.738	0	2984.356	0	92.8	4	27.7	4	-1E+10	1	-1E+10	1	-1E+10	1	-1E+10	1	-1E+10	1	-1E+10	1
4902643	41	C	08/05/2025	03:24	-132.803	43.532	0	3050.10	0	1.6050	0	34.6510	4	27.739	0	3004.014	0	93.5	4	27.9	4	-1E+10	1	-1E+10	1	-1E+10	1	-1E+10	1	-1E+10	1	-1E+10	1
4902643	41	C	08/05/2025	03:24	-132.803	43.532	0	3070.10	0	1.6000	0	34.6520	4	27.740	0	3023.573	0	94.3	4	28.2	4	-1E+10	1	-1E+10	1	-1E+10	1	-1E+10	1	-1E+10	1	-1E+10	1
4902643	41	C	08/05/2025	03:24	-132.803	43.532	0	3089.80	0	1.5960	0	34.6530	4	27.741	0	3042.836	0	94.8	4	28.3	4	-1E+10	1	-1E+10	1	-1E+10	1	-1E+10	1	-1E+10	1	-1E+10	1
4902643	41	C	08/05/2025	03:24	-132.803	43.532	0	3109.70	0	1.5930	0	34.6540	4	27.742	0	3062.293	0	95.5	4	28.5	4	-1E+10	1	-1E+10	1	-1E+10	1	-1E+10	1	-1E+10	1	-1E+10	1
4902643	41	C	08/05/2025	03:24	-132.803	43.532	0	3130.10	0	1.5870	0	34.6540	4	27.743	0	3082.238	0	96.3	4	28.7	4	-1E+10	1	-1E+10	1	-1E+10	1	-1E+10	1	-1E+10	1	-1E+10	1
4902643	41	C	08/05/2025	03:24	-132.803	43.532	0	3149.80	0	1.5830	0	34.6550	4	27.744	0	3101.496	0	97.0	4	28.9	4	-1E+10	1	-1E+10	1	-1E+10	1	-1E+10	1	-1E+10	1	-1E+10	1
4902643	41	C	08/05/2025	03:24	-132.803	43.532	0	3169.70	0	1.5790	0	34.6560	4	27.745	0	3120.948	0	97.7	4	29.2	4	-1E+10	1	-1E+10	1	-1E+10	1	-1E+10	1	-1E+10	1	-1E+10	1
4902643	41	C	08/05/2025	03:24	-132.803	43.532	0	3189.90	0	1.5760	0	34.6570	4	27.746	0	3140.692	0	98.3	4	29.4	4	-1E+10	1	-1E+10	1	-1E+10	1	-1E+10	1	-1E+10	1	-1E+10	1
4902643	41	C	08/05/2025	03:24	-132.803	43.532	0	3209.80	0	1.5730	0	34.6570	4	27.747	0	3160.140	0	98.8	4	29.5	4	-1E+10	1	-1E+10	1	-1E+10	1	-1E+10	1	-1E+10	1	-1E+10	1
4902643	41	C	08/05/2025	03:24	-132.803	43.532	0	3229.80	0	1.5710	0	34.6580	4	27.748	0	3179.685	0	99.3	4	29.6	4	-1E+10	1	-1E+10	1	-1E+10	1	-1E+10	1	-1E+10	1	-1E+10	1
4902643	41	C	08/05/2025	03:24	-132.803	43.532	0	3249.70	0	1.5680	0	34.6580	4	27.748	0	3199.130	0	99.9	4	29.8	4	-1E+10	1	-1E+10	1	-1E+10	1	-1E+10	1	-1E+10	1	-1E+10	1
4902643	41	C	08/05/2025	03:24	-132.803	43.532	0	3270.00	0	1.5650	0	34.6590	4	27.749	0	3218.964	0	100.5	4	30.0	4	-1E+10	1	-1E+10	1	-1E+10	1	-1E+10	1	-1E+10	1	-1E+10	1
4902643	41	C	08/05/2025	03:24	-132.803	43.532	0	3290.10	0	1.5630	0	34.6600	4	27.750	0	3238.601	0	100.9	4	30.1	4	-1E+10	1	-1E+10	1	-1E+10	1	-1E+10	1	-1E+10	1	-1E+10	1
4902643	41	C	08/05/2025	03:24	-132.803	43.532	0	3310.10	0	1.5620	0	34.6600	4	27.751	0	3258.139	0	101.4	4	30.2	4	-1E+10	1	-1E+10	1	-1E+10	1	-1E+10	1	-1E+10	1	-1E+10	1
4902643	41	C	08/05/2025	03:24	-132.803	43.532	0	3330.10	0	1.5600	0	34.6610	4	27.752	0	3277.674	0	101.8	4	30.4	4	-1E+10	1	-1E+10	1	-1E+10	1	-1E+10	1	-1E+10	1	-1E+10	1
4902643	41	C	08/05/2025	03:24	-132.803	43.532	0	3350.30	0	1.5580	0	34.6610	4	27.752	0	3297.404	0	102.3	4	30.5	4	-1E+10	1	-1E+10	1	-1E+10	1	-1E+10	1	-1E+10	1	-1E+10	1
4902643	41	C	08/05/2025	03:24	-132.803	43.532	0	3369.80	0	1.5570	0	34.6620	4	27.753	0	3316.448	0	102.6	4	30.6	4	-1E+10	1	-1E+10	1	-1E+10	1	-1E+10	1	-1E+10	1	-1E+10	1
4902643	41	C	08/05/2025	03:24	-132.803	43.532	0	3389.90	0	1.5560	0	34.6620	4	27.753	0	3336.076	0	103.0	4	30.7	4	-1E+10	1	-1E+10	1	-1E+10	1	-1E+10	1	-1E+10	1	-1E+10	1
4902643	41	C	08/05/2025	03:24	-132.803	43.532	0	3409.80	0	1.5560	0	34.6630	4	27.754	0	3355.507	0	103.3	4	30.8	4	-1E+10	1	-1E+10	1	-1E+10	1	-1E+10	1	-1E+10	1	-1E+10	1
4902643	41	C	08/05/2025	03:24	-132.803	43.532	0	3429.80	0	1.5550	0	34.6630	4	27.754	0	3375.034	0	103.6	4	30.9	4	-1E+10	1	-1E+10	1	-1E+10	1	-1E+10	1	-1E+10	1	-1E+10	1
4902643	41	C	08/05/2025	03:24	-132.803	43.532	0	3449.90	0	1.5540	0	34.6630	4	27.755	0	3394.657	0	104.0	4	31.0	4	-1E+10	1	-1E+10	1	-1E+10	1	-1E+10	1	-1E+10	1	-1E+10	1
4902643	41	C	08/05/2025	03:24	-132.803	43.532	0	3470.10	0	1.5540	0	34.6640	4	27.756	0	3414.376	0	104.3	4	31.1	4	-1E+10	1	-1E+10	1	-1E+10	1	-1E+10	1	-1E+10	1	-1E+10	1
4902643	41	C	08/05/2025	03:24	-132.803	43.532	0	3489.70	0	1.5530	0	34.6650	4	27.757	0	3433.507	0	104.7	4	31.2	4	-1E+10	1	-1E+10	1	-1E+10	1	-1E+10	1	-1E+10	1	-1E+10	1
4902643	41	C	08/05/2025	03:24	-132.803	43.532	0	3509.70	0	1.5520	0	34.6650	4	27.757	0	3453.027	0	105.0	4	31.3	4	-1E+10	1	-1E+10	1	-1E+10	1	-1E+10	1	-1E+10	1	-1E+10	1
4902643	41	C	08/05/2025	03:24	-132.803	43.532	0	3529.90	0	1.5520	0	34.6650	4	27.757	0	3472.740	0	105.3	4	31.4	4	-1E+10	1	-1E+10	1	-1E+10	1	-1E+10	1	-1E+10	1	-1E+10	1
4902643	41	C	08/05/2025	03:24	-132.803	43.532	0	3549.80	0	1.5520	0	34.6660	4	27.758	0	3492.160	0	105.5	4	31.5	4	-1E+10	1	-1E+10	1	-1E+10	1	-1E+10	1	-1E+10	1	-1E+10	1
4902643	41	C	08/05/2025	03:24	-132.803	43.532	0	3569.40	0	1.5520	0	34.6660	4	27.758	0	3511.284	0	105.7	4	31.5	4	-1E+10	1	-1E+10	1	-1E+10	1	-1E+10	1	-1E+10	1	-1E+10	1
4902643	41	C	08/05/2025	03:24	-132.803	43.532	0	3590.10	0	1.5520	0	34.6670	4	27.759	0	3531.480	0	105.9	4	31.6	4	-1E+10	1	-1E+10	1	-1E+10	1	-1E+10	1	-1E+10	1	-1E+10	1
4902643	41	C	08/05/2025	03:24	-132.803	43.532	0	3610.20	0	1.5510	0	34.6670	4	27.759	0	3551.089	0	106.0	4	31.6	4	-1E+10	1	-1E+10	1	-1E+10	1	-1E+10	1	-1E+10	1	-1E+10	1
4902643	41	C	08/05/2025	03:24	-132.803	43.532	0	3623.60	0	1.5510	0	34.6680	4	27.760	0	3564.161	0	106.1	4	31.6	4	-1E+10	1	-1E+10	1	-1E+10	1	-1E+10	1	-1E+10	1	-1E+10	1
4902643	41	C	08/05/2025	03:24	-132.803	43.532	0	3627.50	0	1.5510	0	34.6680	4	27.760	0	3567.965	0	106.1	4	31.7	4	-1E+10	1	-1E+10	1	-1E+10	1	-1E+10	1	-1E+10	1	-1E+10	1
4902643	41	C	08/05/2025	03:24	-132.803	43.532	0	3628.30	0	1.5510	0	34.6680	4	27.760	0	3568.746	0	106.1	4	31.7	4	-1E+10	1	-1E+10	1	-1E+10	1	-1E+10	1	-1E+10	1	-1E+10	1
4902643	41	C	08/05/2025	03:24	-132.803	43.532	0	3629.60	0	1.5500	0	34.6680	4	27.760	0	3570.014	0	106.1	4	31.7	4	-1E+10	1	-1E+10	1	-1E+10	1	-1E+10	1	-1E+10	1	-1E+10	1
4902643	41	C	08/05/2025	03:24	-132.803	43.532	0	3630.90	0	1.5500	0	34.6680	4	27.760	0	3571.282	0	106.1	4	31.7	4	-1E+10	1	-1E+10	1	-1E+10	1	-1E+10	1	-1E+10	1	-1E+10	1
4902643	41	C	08/05/2025	03:24	-132.803	43.532	0	3631.70	0	1.5500	0	34.6680	4	27.760	0	3572.062	0	106.1	4	31.7	4	-1E+10	1	-1E+10	1	-1E+10	1	-1E+10	1	-1E+10	1	-1E+10	1
4902643	41	C	08/05/2025	03:24	-132.803	43.532	0	3632.60	0	1.5510	0	34.6680	4	27.760	0	3572.940	0	106.1	4	31.7	4	-1E+10	1	-1E+10	1	-1E+10	1	-1E+10	1	-1E+10	1	-1E+10	1
4902643	41	C	08/05/2025	03:24	-132.803	43.532	0	3633.40	0	1.5500	0	34.6680	4	27.760	0	3573.720	0	106.1	4	31.7	4	-1E+10	1	-1E+10	1	-1E+10	1	-1E+10	1	-1E+10	1	-1E+10	1
4902643	41	C	08/05/2025	03:24	-132.803	43.532	0	3634.20	0	1.5500	0	34.6680	4	27.760	0	3574.501	0	106.1	4	31.7	4	-1E+10	1	-1E+10	1	-1E+10	1	-1E+10	1	-1E+10	1	-1E+10	1
4902643	41	C	08/05/2025	03:24	-132.803	43.532	0	3635.60	0	1.5500	0	34.6680	4	27.760	0	3575.866	0	106.1	4	31.7	4	-1E+10	1	-1E+10	1	-1E+10	1	-1E+10	1	-1E+10	1	-1E+10	1
4902643	41	C	08/05/2025	03:24	-132.803	43.532	0	3636.90	0	1.5490	0	34.6690	4	27.761	0	3577.134	0	106.1	4	31.7	4	-1E+10	1	-1E+10	1	-1E+10	1	-1E+10	1	-1E+10	1	-1E+10	1
4902643	41	C	08/05/2025	03:24	-132.803	43.532	0	3637.70	0	1.5490	0	34.6680	4	27.760	0	3577.914	0	106.1	4	31.6	4	-1E+10	1	-1E+10	1	-1E+10	1	-1E+10	1	-1E+10	1	-1E+10	1
4902643	41	C	08/05/2025	03:24	-132.803	43.532	0	3638.60	0	1.5490	0	34.6690	4	27.761	0	3578.792	0	106.1	4	31.6	4	-1E+10	1	-1E+10	1	-1E+10	1	-1E+10	1	-1E+10	1	-1E+10	1
4902643	41	C	08/05/2025	03:24	-132.803	43.532	0	3639.40	0	1.5490	0	34.6680	4	27.760	0	3579.573	0	106.1	4	31.7	4	-1E+10	1	-1E+10	1	-1E+10	1	-1E+10	1	-1E+10	1	-1E+10	1
4902643	41	C	08/05/2025	03:24	-132.803	43.532	0	3640.30	0	1.5490	0	34.6690	4	27.761	0	3580.451	0	106.1	4	31.6	4	-1E+10	1	-1E+10	1	-1E+10	1	-1E+10	1	-1E+10	1	-1E+10	1
4902643	41	C	08/05/2025	03:24	-132.803	43.532	0	3641.50	0	1.5490	0	34.6680	4	27.760	0	3581.621	0	106.1	4	31.6	4	-1E+10	1	-1E+10	1	-1E+10	1	-1E+10	1	-1E+10	1	-1E+10	1
4902643	41	C	08/05/2025	03:24	-132.803	43.532	0	3642.80	0	1.5490	0	34.6680	4	27.760	0	3582.889	0	106.1	4	31.6	4	-1E+10	1	-1E+10	1	-1E+10	1	-1E+10	1	-1E+10	1	-1E+10	1
4902643	41	C	08/05/2025	03:24	-132.803	43.532	0	3643.60	0	1.5480	0	34.6690	4	27.761	0	3583.669	0	106.0	4	31.6	4	-1E+10	1	-1E+10	1	-1E+10	1	-1E+10	1	-1E+10	1	-1E+10	1
4902643	41	C	08/05/2025	03:24	-132.803	43.532	0	3644.60	0	1.5490	0	34.6680	4	27.760	0	3584.645	0	106.0	4	31.6	4	-1E+10	1	-1E+10	1	-1E+10	1	-1E+10	1	-1E+10	1	-1E+10	1
4902643	41	C	08/05/2025	03:24	-132.803	43.532	0	3645.40	0	1.5480	0	34.6690	4	27.761	0	3585.425	0	106.0	4	31.6	4	-1E+10	1	-1E+10	1	-1E+10	1	-1E+10	1	-1E+10	1	-1E+10	1
4902643	41	C	08/05/2025	03:24	-132.803	43.532	0	3646.40	0	1.5480	0	34.6690	4	27.761	0	3586.400	0	106.0	4	31.6	4	-1E+10	1	-1E+10	1	-1E+10	1	-1E+10	1	-1E+10	1	-1E+10	1
4902643	41	C	08/05/2025	03:24	-132.803	43.532	0	3647.20	0	1.5480	0	34.6690	4	27.761	0	3587.181	0	106.0	4	31.6	4	-1E+10	1	-1E+10	1	-1E+10	1	-1E+10	1	-1E+10	1	-1E+10	1
4902643	41	C	08/05/2025	03:24	-132.803	43.532	0	3648.50	0	1.5480	0	34.6690	4	27.761	0	3588.449	0	106.0	4	31.6	4	-1E+10	1	-1E+10	1	-1E+10	1	-1E+10	1	-1E+10	1	-1E+10	1
4902643	41	C	08/05/2025	03:24	-132.803	43.532	0	3649.90	0	1.5470	0	34.6690	4	27.761	0	3589.814	0	105.9	4	31.6	4	-1E+10	1	-1E+10	1	-1E+10	1	-1E+10	1	-1E+10	1	-1E+10	1
4902643	41	C	08/05/2025	03:24	-132.803	43.532	0	3650.70	0	1.5480	0	34.6690	4	27.761	0	3590.594	0	105.9	4	31.6	4	-1E+10	1	-1E+10	1	-1E+10	1	-1E+10	1	-1E+10	1	-1E+10	1
4902643	41	C	08/05/2025	03:24	-132.803	43.532	0	3651.60	0	1.5470	0	34.6690	4	27.761	0	3591.472	0	105.9	4	31.6	4	-1E+10	1	-1E+10	1	-1E+10	1	-1E+10	1	-1E+10	1	-1E+10	1
4902643	41	C	08/05/2025	03:24	-132.803	43.532	0	3652.50	0	1.5480	0	34.6690	4	27.761	0	3592.350	0	105.9	4	31.6	4	-1E+10	1	-1E+10	1	-1E+10	1	-1E+10	1	-1E+10	1	-1E+10	1
4902643	41	C	08/05/2025	03:24	-132.803	43.532	0	3653.40	0	1.5470	0	34.6690	4	27.761	0	3593.228	0	105.9	4	31.6	4	-1E+10	1	-1E+10	1	-1E+10	1	-1E+10	1	-1E+10	1	-1E+10	1
4902643	41	C	08/05/2025	03:24	-132.803	43.532	0	3654.30	0	1.5480	0	34.6690	4	27.761	0	3594.106	0	105.9	4	31.6	4	-1E+10	1	-1E+10	1	-1E+10	1	-1E+10	1	-1E+10	1	-1E+10	1
4902643	41	C	08/05/2025	03:24	-132.803	43.532	0	3655.50	0	1.5480	0	34.6690	4	27.761	0	3595.276	0	105.9	4	31.6	4	-1E+10	1	-1E+10	1	-1E+10	1	-1E+10	1	-1E+10	1	-1E+10	1
4902643	41	C	08/05/2025	03:24	-132.803	43.532	0	3656.80	0	1.5480	0	34.6690	4	27.761	0	3596.544	0	105.9	4	31.6	4	-1E+10	1	-1E+10	1	-1E+10	1	-1E+10	1	-1E+10	1	-1E+10	1
4902643	41	C	08/05/2025	03:24	-132.803	43.532	0	3657.80	0	1.5480	0	34.6690	4	27.761	0	3597.519	0	105.9	4	31.6	4	-1E+10	1	-1E+10	1	-1E+10	1	-1E+10	1	-1E+10	1	-1E+10	1
4902643	41	C	08/05/2025	03:24	-132.803	43.532	0	3658.50	0	1.5480	0	34.6690	4	27.761	0	3598.202	0	105.9	4	31.6	4	-1E+10	1	-1E+10	1	-1E+10	1	-1E+10	1	-1E+10	1	-1E+10	1
4902643	41	C	08/05/2025	03:24	-132.803	43.532	0	3659.50	0	1.5480	0	34.6690	4	27.761	0	3599.177	0	105.8	4	31.6	4	-1E+10	1	-1E+10	1	-1E+10	1	-1E+10	1	-1E+10	1	-1E+10	1
4902643	41	C	08/05/2025	03:24	-132.803	43.532	0	3660.80	0	1.5480	0	34.6690	4	27.761	0	3600.445	0	105.9	4	31.6	4	-1E+10	1	-1E+10	1	-1E+10	1	-1E+10	1	-1E+10	1	-1E+10	1
4902643	41	C	08/05/2025	03:24	-132.803	43.532	0	3661.60	0	1.5480	0	34.6700	4	27.762	0	3601.226	0	105.8	4	31.6	4	-1E+10	1	-1E+10	1	-1E+10	1	-1E+10	1	-1E+10	1	-1E+10	1
4902643	41	C	08/05/2025	03:24	-132.803	43.532	0	3662.60	0	1.5480	0	34.6690	4	27.761	0	3602.201	0	105.9	4	31.6	4	-1E+10	1	-1E+10	1	-1E+10	1	-1E+10	1	-1E+10	1	-1E+10	1
4902643	41	C	08/05/2025	03:24	-132.803	43.532	0	3663.80	0	1.5490	0	34.6690	4	27.761	0	3603.371	0	105.9	4	31.6	4	-1E+10	1	-1E+10	1	-1E+10	1	-1E+10	1	-1E+10	1	-1E+10	1
4902643	41	C	08/05/2025	03:24	-132.803	43.532	0	3664.50	0	1.5480	0	34.6690	4	27.761	0	3604.054	0	105.8	4	31.6	4	-1E+10	1	-1E+10	1	-1E+10	1	-1E+10	1	-1E+10	1	-1E+10	1
4902643	41	C	08/05/2025	03:24	-132.803	43.532	0	3665.60	0	1.5490	0	34.6690	4	27.761	0	3605.127	0	105.8	4	31.6	4	-1E+10	1	-1E+10	1	-1E+10	1	-1E+10	1	-1E+10	1	-1E+10	1
4902643	41	C	08/05/2025	03:24	-132.803	43.532	0	3666.70	0	1.5490	0	34.6690	4	27.761	0	3606.199	0	105.8	4	31.6	4	-1E+10	1	-1E+10	1	-1E+10	1	-1E+10	1	-1E+10	1	-1E+10	1
4902643	41	C	08/05/2025	03:24	-132.803	43.532	0	3667.30	0	1.5490	0	34.6690	4	27.761	0	3606.785	0	105.8	4	31.6	4	-1E+10	1	-1E+10	1	-1E+10	1	-1E+10	1	-1E+10	1	-1E+10	1
4902643	41	C	08/05/2025	03:24	-132.803	43.532	0	3668.40	0	1.5490	0	34.6690	4	27.761	0	3607.857	0	105.8	4	31.6	4	-1E+10	1	-1E+10	1	-1E+10	1	-1E+10	1	-1E+10	1	-1E+10	1
4902643	41	C	08/05/2025	03:24	-132.803	43.532	0	3669.70	0	1.5490	0	34.6690	4	27.761	0	3609.125	0	105.8	4	31.5	4	-1E+10	1	-1E+10	1	-1E+10	1	-1E+10	1	-1E+10	1	-1E+10	1
4902643	41	C	08/05/2025	03:24	-132.803	43.532	0	3670.40	0	1.5490	0	34.6690	4	27.761	0	3609.808	0	105.7	4	31.5	4	-1E+10	1	-1E+10	1	-1E+10	1	-1E+10	1	-1E+10	1	-1E+10	1
4902643	41	C	08/05/2025	03:24	-132.803	43.532	0	3671.40	0	1.5490	0	34.6690	4	27.761	0	3610.783	0	105.7	4	31.5	4	-1E+10	1	-1E+10	1	-1E+10	1	-1E+10	1	-1E+10	1	-1E+10	1
4902643	41	C	08/05/2025	03:24	-132.803	43.532	0	3672.40	0	1.5490	0	34.6690	4	27.761	0	3611.758	0	105.7	4	31.5	4	-1E+10	1	-1E+10	1	-1E+10	1	-1E+10	1	-1E+10	1	-1E+10	1
4902643	41	C	08/05/2025	03:24	-132.803	43.532	0	3673.70	0	1.5490	0	34.6690	4	27.761	0	3613.026	0	105.7	4	31.5	4	-1E+10	1	-1E+10	1	-1E+10	1	-1E+10	1	-1E+10	1	-1E+10	1
4902643	41	C	08/05/2025	03:24	-132.803	43.532	0	3674.40	0	1.5490	0	34.6690	4	27.761	0	3613.709	0	105.7	4	31.5	4	-1E+10	1	-1E+10	1	-1E+10	1	-1E+10	1	-1E+10	1	-1E+10	1
4902643	41	C	08/05/2025	03:24	-132.803	43.532	0																										
4902643	43	C	08/25/2025	01:16	-132.763	43.522	0	2.50	0	20.6480	0	32.4730	0	22.667	0	2.480	0	215.9	4	95.2	4	-1E+10	1	-1E+10	1	-1E+10	1	-1E+10	1	-1E+10	1	-1E+10	1
4902643	43	C	08/25/2025	01:16	-132.763	43.522	0	2.60	0	20.6470	0	32.4720	0	22.666	0	2.579	0	216.2	4	95.4	4	-1E+10	1	-1E+10	1	-1E+10	1	-1E+10	1	-1E+10	1	-1E+10	1
4902643	43	C	08/25/2025	01:16	-132.763	43.522	0	2.70	0	20.6470	0	32.4720	0	22.666	0	2.678	0	216.0	4	95.3	4	-1E+10	1	-1E+10	1	-1E+10	1	-1E+10	1	-1E+10	1	-1E+10	1
4902643	43	C	08/25/2025	01:16	-132.763	43.522	0	2.80	0	20.6440	0	32.4740	0	22.669	0	2.778	0	216.0	4	95.3	4	-1E+10	1	-1E+10	1	-1E+10	1	-1E+10	1	-1E+10	1	-1E+10	1
4902643	43	C	08/25/2025	01:16	-132.763	43.522	0	3.00	0	20.6460	0	32.4700	0	22.665	0	2.976	0	215.7	4	95.1	4	-1E+10	1	-1E+10	1	-1E+10	1	-1E+10	1	-1E+10	1	-1E+10	1
4902643	43	C	08/25/2025	01:16	-132.763	43.522	0	3.10	0	20.6410	0	32.4720	0	22.668	0	3.075	0	215.2	4	94.9	4	-1E+10	1	-1E+10	1	-1E+10	1	-1E+10	1	-1E+10	1	-1E+10	1
4902643	43	C	08/25/2025	01:16	-132.763	43.522	0	3.20	0	20.6420	0	32.4630	0	22.661	0	3.174	0	215.6	4	95.1	4	-1E+10	1	-1E+10	1	-1E+10	1	-1E+10	1	-1E+10	1	-1E+10	1
4902643	43	C	08/25/2025	01:16	-132.763	43.522	0	3.30	0	20.6390	0	32.4720	0	22.668	0	3.274	0	-1e10	1	-1e10	1	-1E+10	1	-1E+10	1	-1E+10	1	-1E+10	1	-1E+10	1	-1E+10	1
4902643	43	C	08/25/2025	01:16	-132.763	43.522	0	3.60	0	20.6210	0	32.4610	0	22.665	0	3.571	0	215.3	4	94.9	4	-1E+10	1	-1E+10	1	-1E+10	1	-1E+10	1	-1E+10	1	-1E+10	1
4902643	43	C	08/25/2025	01:16	-132.763	43.522	0	4.60	0	20.6280	0	32.4710	0	22.671	0	4.563	0	215.4	4	95.0	4	-1E+10	1	-1E+10	1	-1E+10	1	-1E+10	1	-1E+10	1	-1E+10	1
4902643	43	C	08/25/2025	01:16	-132.763	43.522	0	5.60	0	20.6280	0	32.4700	0	22.670	0	5.555	0	215.5	4	95.0	4	-1E+10	1	-1E+10	1	-1E+10	1	-1E+10	1	-1E+10	1	-1E+10	1
4902643	43	C	08/25/2025	01:16	-132.763	43.522	0	6.70	0	20.6200	0	32.4660	0	22.669	0	6.646	0	215.3	4	94.9	4	-1E+10	1	-1E+10	1	-1E+10	1	-1E+10	1	-1E+10	1	-1E+10	1
4902643	43	C	08/25/2025	01:16	-132.763	43.522	0	7.50	0	20.5870	0	32.4710	0	22.682	0	7.440	0	215.6	4	95.0	4	-1E+10	1	-1E+10	1	-1E+10	1	-1E+10	1	-1E+10	1	-1E+10	1
4902643	43	C	08/25/2025	01:16	-132.763	43.522	0	8.70	0	20.5150	0	32.5020	0	22.724	0	8.630	0	215.8	4	95.0	4	-1E+10	1	-1E+10	1	-1E+10	1	-1E+10	1	-1E+10	1	-1E+10	1
4902643	43	C	08/25/2025	01:16	-132.763	43.522	0	9.70	0	20.4030	0	32.4690	0	22.729	0	9.622	0	216.2	4	94.9	4	-1E+10	1	-1E+10	1	-1E+10	1	-1E+10	1	-1E+10	1	-1E+10	1
4902643	43	C	08/25/2025	01:16	-132.763	43.522	0	14.90	0	19.6410	0	32.4610	0	22.921	0	14.781	0	219.9	4	95.2	4	-1E+10	1	-1E+10	1	-1E+10	1	-1E+10	1	-1E+10	1	-1E+10	1
4902643	43	C	08/25/2025	01:16	-132.763	43.522	0	24.80	0	19.2150	0	32.4420	0	23.015	0	24.601	0	225.1	4	96.7	4	-1E+10	1	-1E+10	1	-1E+10	1	-1E+10	1	-1E+10	1	-1E+10	1
4902643	43	C	08/25/2025	01:16	-132.763	43.522	0	34.70	0	16.9720	0	32.4870	0	23.595	0	34.420	0	245.3	4	101.1	4	-1E+10	1	-1E+10	1	-1E+10	1	-1E+10	1	-1E+10	1	-1E+10	1
4902643	43	C	08/25/2025	01:16	-132.763	43.522	0	44.80	0	13.4600	0	32.5410	0	24.399	0	44.438	0	263.0	4	101.2	4	-1E+10	1	-1E+10	1	-1E+10	1	-1E+10	1	-1E+10	1	-1E+10	1
4902643	43	C	08/25/2025	01:16	-132.763	43.522	0	54.90	0	11.9630	0	32.5550	0	24.699	0	54.455	0	256.5	4	95.7	4	-1E+10	1	-1E+10	1	-1E+10	1	-1E+10	1	-1E+10	1	-1E+10	1
4902643	43	C	08/25/2025	01:16	-132.763	43.522	0	64.90	0	10.8290	0	32.5560	0	24.905	0	64.372	0	252.9	4	92.1	4	-1E+10	1	-1E+10	1	-1E+10	1	-1E+10	1	-1E+10	1	-1E+10	1
4902643	43	C	08/25/2025	01:16	-132.763	43.522	0	75.20	0	10.1920	0	32.5750	0	25.029	0	74.586	0	249.4	4	89.6	4	-1E+10	1	-1E+10	1	-1E+10	1	-1E+10	1	-1E+10	1	-1E+10	1
4902643	43	C	08/25/2025	01:16	-132.763	43.522	0	85.20	0	9.8750	0	32.5800	0	25.085	0	84.502	0	245.6	4	87.7	4	-1E+10	1	-1E+10	1	-1E+10	1	-1E+10	1	-1E+10	1	-1E+10	1
4902643	43	C	08/25/2025	01:16	-132.763	43.522	0	95.10	0	9.7180	0	32.6060	0	25.132	0	94.319	0	238.3	4	84.8	4	-1E+10	1	-1E+10	1	-1E+10	1	-1E+10	1	-1E+10	1	-1E+10	1
4902643	43	C	08/25/2025	01:16	-132.763	43.522	0	104.60	0	9.6200	0	32.7330	0	25.247	0	103.739	0	227.5	4	80.8	4	-1E+10	1	-1E+10	1	-1E+10	1	-1E+10	1	-1E+10	1	-1E+10	1
4902643	43	C	08/25/2025	01:16	-132.763	43.522	0	114.90	0	9.7540	0	33.0140	0	25.445	0	113.951	0	215.6	4	77.0	4	-1E+10	1	-1E+10	1	-1E+10	1	-1E+10	1	-1E+10	1	-1E+10	1
4902643	43	C	08/25/2025	01:16	-132.763	43.522	0	124.60	0	9.6130	0	33.2050	0	25.617	0	123.568	0	209.3	4	74.6	4	-1E+10	1	-1E+10	1	-1E+10	1	-1E+10	1	-1E+10	1	-1E+10	1
4902643	43	C	08/25/2025	01:16	-132.763	43.522	0	134.70	0	9.3550	0	33.3620	0	25.782	0	133.581	0	203.6	4	72.3	4	-1E+10	1	-1E+10	1	-1E+10	1	-1E+10	1	-1E+10	1	-1E+10	1
4902643	43	C	08/25/2025	01:16	-132.763	43.522	0	145.00	0	9.0530	0	33.5500	0	25.977	0	143.792	0	197.7	4	69.8	4	-1E+10	1	-1E+10	1	-1E+10	1	-1E+10	1	-1E+10	1	-1E+10	1
4902643	43	C	08/25/2025	01:16	-132.763	43.522	0	155.30	0	8.7760	0	33.6560	0	26.104	0	154.002	0	192.9	4	67.8	4	-1E+10	1	-1E+10	1	-1E+10	1	-1E+10	1	-1E+10	1	-1E+10	1
4902643	43	C	08/25/2025	01:16	-132.763	43.522	0	165.00	0	8.5770	0	33.7340	0	26.196	0	163.618	0	188.8	4	66.0	4	-1E+10	1	-1E+10	1	-1E+10	1	-1E+10	1	-1E+10	1	-1E+10	1
4902643	43	C	08/25/2025	01:16	-132.763	43.522	0	175.00	0	8.3550	0	33.7820	0	26.267	0	173.530	0	186.1	4	64.8	4	-1E+10	1	-1E+10	1	-1E+10	1	-1E+10	1	-1E+10	1	-1E+10	1
4902643	43	C	08/25/2025	01:16	-132.763	43.522	0	184.90	0	8.1670	0	33.8080	0	26.316	0	183.342	0	184.3	4	63.9	4	-1E+10	1	-1E+10	1	-1E+10	1	-1E+10	1	-1E+10	1	-1E+10	1
4902643	43	C	08/25/2025	01:16	-132.763	43.522	0	194.70	0	8.0360	0	33.8200	0	26.345	0	193.055	0	181.8	4	62.9	4	-1E+10	1	-1E+10	1	-1E+10	1	-1E+10	1	-1E+10	1	-1E+10	1
4902643	43	C	08/25/2025	01:16	-132.763	43.522	0	210.30	0	7.6840	0	33.8390	0	26.411	0	208.515	0	176.2	4	60.5	4	-1E+10	1	-1E+10	1	-1E+10	1	-1E+10	1	-1E+10	1	-1E+10	1
4902643	43	C	08/25/2025	01:16	-132.763	43.522	0	229.60	0	7.3590	0	33.8480	0	26.465	0	227.641	0	168.0	4	57.2	4	-1E+10	1	-1E+10	1	-1E+10	1	-1E+10	1	-1E+10	1	-1E+10	1
4902643	43	C	08/25/2025	01:16	-132.763	43.522	0	249.90	0	7.0670	0	33.8510	0	26.508	0	247.755	0	157.6	4	53.3	4	-1E+10	1	-1E+10	1	-1E+10	1	-1E+10	1	-1E+10	1	-1E+10	1
4902643	43	C	08/25/2025	01:16	-132.763	43.522	0	269.60	0	6.8200	0	33.8500	0	26.541	0	267.274	0	148.9	4	50.1	4	-1E+10	1	-1E+10	1	-1E+10	1	-1E+10	1	-1E+10	1	-1E+10	1
4902643	43	C	08/25/2025	01:16	-132.763	43.522	0	289.40	0	6.5530	0	33.8470	0	26.574	0	286.889	0	139.2	4	46.5	4	-1E+10	1	-1E+10	1	-1E+10	1	-1E+10	1	-1E+10	1	-1E+10	1
4902643	43	C	08/25/2025	01:16	-132.763	43.522	0	310.30	0	6.2200	0	33.8450	0	26.616	0	307.592	0	126.7	4	42.1	4	-1E+10	1	-1E+10	1	-1E+10	1	-1E+10	1	-1E+10	1	-1E+10	1
4902643	43	C	08/25/2025	01:16	-132.763	43.522	0	329.50	0	5.9270	0	33.8480	0	26.655	0	326.609	0	113.5	4	37.4	4	-1E+10	1	-1E+10	1	-1E+10	1	-1E+10	1	-1E+10	1	-1E+10	1
4902643	43	C	08/25/2025	01:16	-132.763	43.522	0	349.60	0	5.6510	0	33.8560	0	26.695	0	346.516	0	99.9	4	32.7	4	-1E+10	1	-1E+10	1	-1E+10	1	-1E+10	1	-1E+10	1	-1E+10	1
4902643	43	C	08/25/2025	01:16	-132.763	43.522	0	369.60	0	5.3930	0	33.8730	0	26.740	0	366.322	0	88.4	4	28.8	4	-1E+10	1	-1E+10	1	-1E+10	1	-1E+10	1	-1E+10	1	-1E+10	1
4902643	43	C	08/25/2025	01:16	-132.763	43.522	0	389.70	0	5.2090	0	33.8890	0	26.774	0	386.225	0	79.7	4	25.8	4	-1E+10	1	-1E+10	1	-1E+10	1	-1E+10	1	-1E+10	1	-1E+10	1
4902643	43	C	08/25/2025	01:16	-132.763	43.522	0	409.80	0	5.0480	0	33.9070	0	26.807	0	406.126	0	72.1	4	23.3	4	-1E+10	1	-1E+10	1	-1E+10	1	-1E+10	1	-1E+10	1	-1E+10	1
4902643	43	C	08/25/2025	01:16	-132.763	43.522	0	430.00	0	4.9080	0	33.9240	0	26.837	0	426.125	0	66.7	4	21.5	4	-1E+10	1	-1E+10	1	-1E+10	1	-1E+10	1	-1E+10	1	-1E+10	1
4902643	43	C	08/25/2025	01:16	-132.763	43.522	0	449.80	0	4.8360	0	33.9400	0	26.857	0	445.725	0	61.5	4	19.8	4	-1E+10	1	-1E+10	1	-1E+10	1	-1E+10	1	-1E+10	1	-1E+10	1
4902643	43	C	08/25/2025	01:16	-132.763	43.522	0	469.60	0	4.7080	0	33.9600	0	26.888	0	465.323	0	55.5	4	17.8	4	-1E+10	1	-1E+10	1	-1E+10	1	-1E+10	1	-1E+10	1	-1E+10	1
4902643	43	C	08/25/2025	01:16	-132.763	43.522	0	490.80	0	4.6600	0	33.9880	0	26.915	0	486.305	0	48.0	4	15.4	4	-1E+10	1	-1E+10	1	-1E+10	1	-1E+10	1	-1E+10	1	-1E+10	1
4902643	43	C	08/25/2025	01:16	-132.763	43.522	0	509.90	0	4.6240	0	34.0180	0	26.943	0	505.207	0	41.1	4	13.2	4	-1E+10	1	-1E+10	1	-1E+10	1	-1E+10	1	-1E+10	1	-1E+10	1
4902643	43	C	08/25/2025	01:16	-132.763	43.522	0	529.60	0	4.5490	0	34.0440	0	26.972	0	524.701	0	36.1	4	11.5	4	-1E+10	1	-1E+10	1	-1E+10	1	-1E+10	1	-1E+10	1	-1E+10	1
4902643	43	C	08/25/2025	01:16	-132.763	43.522	0	549.40	0	4.4620	0	34.0620	0	26.996	0	544.292	0	32.4	4	10.3	4	-1E+10	1	-1E+10	1	-1E+10	1	-1E+10	1	-1E+10	1	-1E+10	1
4902643	43	C	08/25/2025	01:16	-132.763	43.522	0	569.50	0	4.3690	0	34.0790	0	27.020	0	564.178	0	28.8	4	9.2	4	-1E+10	1	-1E+10	1	-1E+10	1	-1E+10	1	-1E+10	1	-1E+10	1
4902643	43	C	08/25/2025	01:16	-132.763	43.522	0	590.60	0	4.3150	0	34.0980	0	27.040	0	585.051	0	25.6	4	8.1	4	-1E+10	1	-1E+10	1	-1E+10	1	-1E+10	1	-1E+10	1	-1E+10	1
4902643	43	C	08/25/2025	01:16	-132.763	43.522	0	610.00	0	4.2570	0	34.1150	0	27.060	0	604.241	0	23.2	4	7.4	4	-1E+10	1	-1E+10	1	-1E+10	1	-1E+10	1	-1E+10	1	-1E+10	1
4902643	43	C	08/25/2025	01:16	-132.763	43.522	0	629.90	0	4.1990	0	34.1260	0	27.075	0	623.923	0	21.4	4	6.8	4	-1E+10	1	-1E+10	1	-1E+10	1	-1E+10	1	-1E+10	1	-1E+10	1
4902643	43	C	08/25/2025	01:16	-132.763	43.522	0	649.70	0	4.1300	0	34.1380	0	27.092	0	643.505	0	19.2	4	6.1	4	-1E+10	1	-1E+10	1	-1E+10	1	-1E+10	1	-1E+10	1	-1E+10	1
4902643	43	C	08/25/2025	01:16	-132.763	43.522	0	669.50	0	4.1320	0	34.1570	0	27.107	0	663.084	0	15.6	4	4.9	4	-1E+10	1	-1E+10	1	-1E+10	1	-1E+10	1	-1E+10	1	-1E+10	1
4902643	43	C	08/25/2025	01:16	-132.763	43.522	0	690.20	0	4.1700	0	34.1940	0	27.133	0	683.552	0	12.4	4	3.9	4	-1E+10	1	-1E+10	1	-1E+10	1	-1E+10	1	-1E+10	1	-1E+10	1
4902643	43	C	08/25/2025	01:16	-132.763	43.522	0	709.30	0	4.0930	0	34.2110	0	27.154	0	702.436	0	10.6	4	3.4	4	-1E+10	1	-1E+10	1	-1E+10	1	-1E+10	1	-1E+10	1	-1E+10	1
4902643	43	C	08/25/2025	01:16	-132.763	43.522	0	729.80	0	4.1130	0	34.2400	0	27.176	0	722.702	0	9.3	4	3.0	4	-1E+10	1	-1E+10	1	-1E+10	1	-1E+10	1	-1E+10	1	-1E+10	1
4902643	43	C	08/25/2025	01:16	-132.763	43.522	0	749.90	0	3.9750	0	34.2360	0	27.187	0	742.571	0	10.4	4	3.3	4	-1E+10	1	-1E+10	1	-1E+10	1	-1E+10	1	-1E+10	1	-1E+10	1
4902643	43	C	08/25/2025	01:16	-132.763	43.522	0	769.80	0	3.8510	0	34.2350	0	27.198	0	762.240	0	10.0	4	3.1	4	-1E+10	1	-1E+10	1	-1E+10	1	-1E+10	1	-1E+10	1	-1E+10	1
4902643	43	C	08/25/2025	01:16	-132.763	43.522	0	789.80	0	3.7740	0	34.2530	0	27.221	0	782.006	0	9.0	4	2.8	4	-1E+10	1	-1E+10	1	-1E+10	1	-1E+10	1	-1E+10	1	-1E+10	1
4902643	43	C	08/25/2025	01:16	-132.763	43.522	0	810.10	0	3.7320	0	34.2680	0	27.237	0	802.067	0	8.4	4	2.6	4	-1E+10	1	-1E+10	1	-1E+10	1	-1E+10	1	-1E+10	1	-1E+10	1
4902643	43	C	08/25/2025	01:16	-132.763	43.522	0	829.40	0	3.7100	0	34.2780	0	27.247	0	821.138	0	8.0	4	2.5	4	-1E+10	1	-1E+10	1	-1E+10	1	-1E+10	1	-1E+10	1	-1E+10	1
4902643	43	C	08/25/2025	01:16	-132.763	43.522	0	849.50	0	3.6990	0	34.2860	0	27.255	0	840.997	0	7.6	4	2.4	4	-1E+10	1	-1E+10	1	-1E+10	1	-1E+10	1	-1E+10	1	-1E+10	1
4902643	43	C	08/25/2025	01:16	-132.763	43.522	0	869.70	0	3.6820	0	34.3000	0	27.268	0	860.953	0	7.0	4	2.2	4	-1E+10	1	-1E+10	1	-1E+10	1	-1E+10	1	-1E+10	1	-1E+10	1
4902643	43	C	08/25/2025	01:16	-132.763	43.522	0	889.60	0	3.6470	0	34.3130	0	27.282	0	880.611	0	6.7	4	2.1	4	-1E+10	1	-1E+10	1	-1E+10	1	-1E+10	1	-1E+10	1	-1E+10	1
4902643	43	C	08/25/2025	01:16	-132.763	43.522	0	909.60	0	3.6100	0	34.3260	0	27.296	0	900.366	0	6.5	4	2.0	4	-1E+10	1	-1E+10	1	-1E+10	1	-1E+10	1	-1E+10	1	-1E+10	1
4902643	43	C	08/25/2025	01:16	-132.763	43.522	0	929.80	0	3.5860	0	34.3380	0	27.308	0	920.317	0	6.4	4	2.0	4	-1E+10	1	-1E+10	1	-1E+10	1	-1E+10	1	-1E+10	1	-1E+10	1
4902643	43	C	08/25/2025	01:16	-132.763	43.522	0	949.70	0	3.5510	0	34.3480	0	27.319	0	939.969	0	6.5	4	2.0	4	-1E+10	1	-1E+10	1	-1E+10	1	-1E+10	1	-1E+10	1	-1E+10	1
4902643	43	C	08/25/2025	01:16	-132.763	43.522	0	969.60	0	3.5070	0	34.3600	0	27.333	0	959.619	0	6.6	4	2.1	4	-1E+10	1	-1E+10	1	-1E+10	1	-1E+10	1	-1E+10	1	-1E+10	1
4902643	43	C	08/25/2025	01:16	-132.763	43.522	0	989.50	0	3.4550	0	34.3720	0	27.348	0	979.268	0	6.8	4	2.1	4	-1E+10	1	-1E+10	1	-1E+10	1	-1E+10	1	-1E+10	1	-1E+10	1
4902643	43	C	08/25/2025	01:16	-132.763	43.522	0	1009.50	0	3.4160	0	34.3830	0	27.361	0	999.014	0	7.0	4	2.2	4	-1E+10	1	-1E+10	1	-1E+10	1	-1E+10	1	-1E+10	1	-1E+10	1
4902643	43	C	08/25/2025	01:16	-132.763	43.522	0	1029.40	0	3.3940	0	34.3900	0	27.368	0	1018.659	0	7.3	4	2.3	4	-1E+10	1	-1E+10	1	-1E+10	1	-1E+10	1	-1E+10	1	-1E+10	1
4902643	43	C	08/25/2025	01:16	-132.763	43.522	0	1050.30	0	3.3550	0	34.4020	0	27.382	0	1039.289	0	7.9	4	2.4	4	-1E+10	1	-1E+10	1	-1E+10	1	-1E+10	1	-1E+10	1	-1E+10	1
4902643	43	C	08/25/2025	01:16	-132.763	43.522	0	1069.70	0	3.2980	0	34.4110	0	27.394	0	1058.436	0	8.3	4	2.6	4	-1E+10	1	-1E+10	1	-1E+10	1	-1E+10	1	-1E+10	1	-1E+10	1
4902643	43	C	08/25/2025	01:16	-132.763	43.522	0	1089.60	0	3.2640	0	34.4200	0	27.405	0	1078.076	0	8.9	4	2.8	4	-1E+10	1	-1E+10	1	-1E+10	1	-1E+10	1	-1E+10	1	-1E+10	1
4902643	43	C	08/25/2025	01:16	-132.763	43.522	0	1109.40	0	3.2350	0	34.4280	0	27.414	0	1097.615	0	9.6	4	3.0	4	-1E+10	1	-1E+10	1	-1E+10	1	-1E+10	1	-1E+10	1	-1E+10	1
4902643	43	C	08/25/2025	01:16	-132.763	43.522	0	1129.50	0	3.1860	0	34.4360	0	27.425	0	1117.448	0	10.2	4	3.2	4	-1E+10	1	-1E+10	1	-1E+10	1	-1E+10	1	-1E+10	1	-1E+10	1
4902643	43	C	08/25/2025	01:16	-132.763	43.522	0	1150.30	0	3.1430	0	34.4430	0	27.435	0	1137.969	0	10.9	4	3.4	4	-1E+10	1	-1E+10	1	-1E+10	1	-1E+10	1	-1E+10	1	-1E+10	1
4902643	43	C	08/25/2025	01:16	-132.763	43.522	0	1169.50	0	3.1160	0	34.4480	0	27.441	0	1156.911	0	11.4	4	3.5	4	-1E+10	1	-1E+10	1	-1E+10	1	-1E+10	1	-1E+10	1	-1E+10	1
4902643	43	C	08/25/2025	01:16	-132.763	43.522	0	1189.80	0	3.0820	0	34.4530	0	27.449	0	1176.935	0	12.0	4	3.7	4	-1E+10	1	-1E+10	1	-1E+10	1	-1E+10	1	-1E+10	1	-1E+10	1
4902643	43	C	08/25/2025	01:16	-132.763	43.522	0	1209.90	0	3.0540	0	34.4580	0	27.455	0	1196.761	0	12.7	4	3.9	4	-1E+10	1	-1E+10	1	-1E+10	1	-1E+10	1	-1E+10	1	-1E+10	1
4902643	43	C	08/25/2025	01:16	-132.763	43.522	0	1229.90	0	3.0230	0	34.4630	0	27.462	0	1216.486	0	13.2	4	4.1	4	-1E+10	1	-1E+10	1	-1E+10	1	-1E+10	1	-1E+10	1	-1E+10	1
4902643	43	C	08/25/2025	01:16	-132.763	43.522	0	1249.90	0	2.9840	0	34.4670	0	27.469	0	1236.209	0	14.0	4	4.3	4	-1E+10	1	-1E+10	1	-1E+10	1	-1E+10	1	-1E+10	1	-1E+10	1
4902643	43	C	08/25/2025	01:16	-132.763	43.522	0	1269.70	0	2.9400	0	34.4730	0	27.478	0	1255.733	0	14.8	4	4.6	4	-1E+10	1	-1E+10	1	-1E+10	1	-1E+10	1	-1E+10	1	-1E+10	1
4902643	43	C	08/25/2025	01:16	-132.763	43.522	0	1289.50	0	2.9040	0	34.4780	0	27.485	0	1275.255	0	15.5	4	4.8	4	-1E+10	1	-1E+10	1	-1E+10	1	-1E+10	1	-1E+10	1	-1E+10	1
4902643	43	C	08/25/2025	01:16	-132.763	43.522	0	1309.90	0	2.8620	0	34.4820	0	27.492	0	1295.367	0	16.4	4	5.0	4	-1E+10	1	-1E+10	1	-1E+10	1	-1E+10	1	-1E+10	1	-1E+10	1
4902643	43	C	08/25/2025	01:16	-132.763	43.522	0	1329.80	0	2.8230	0	34.4870	0	27.500	0	1314.985	0	17.2	4	5.3	4	-1E+10	1	-1E+10	1	-1E+10	1	-1E+10	1	-1E+10	1	-1E+10	1
4902643	43	C	08/25/2025	01:16	-132.763	43.522	0	1349.50	0	2.7920	0	34.4910	0	27.506	0	1334.403	0	18.1	4	5.6	4	-1E+10	1	-1E+10	1	-1E+10	1	-1E+10	1	-1E+10	1	-1E+10	1
4902643	43	C	08/25/2025	01:16	-132.763	43.522	0	1369.60	0	2.7590	0	34.4950	0	27.512	0	1354.213	0	19.0	4	5.8	4	-1E+10	1	-1E+10	1	-1E+10	1	-1E+10	1	-1E+10	1	-1E+10	1
4902643	43	C	08/25/2025	01:16	-132.763	43.522	0	1390.20	0	2.7170	0	34.5000	0	27.520	0	1374.515	0	20.2	4	6.2	4	-1E+10	1	-1E+10	1	-1E+10	1	-1E+10	1	-1E+10	1	-1E+10	1
4902643	43	C	08/25/2025	01:16	-132.763	43.522	0	1409.40	0	2.6830	0	34.5040	0	27.526	0	1393.435	0	21.1	4	6.5	4	-1E+10	1	-1E+10	1	-1E+10	1	-1E+10	1	-1E+10	1	-1E+10	1
4902643	43	C	08/25/2025	01:16	-132.763	43.522	0	1429.80	0	2.6440	0	34.5090	0	27.533	0	1413.536	0	22.4	4	6.8	4	-1E+10	1	-1E+10	1	-1E+10	1	-1E+10	1	-1E+10	1	-1E+10	1
4902643	43	C	08/25/2025	01:16	-132.763	43.522	0	1449.90	0	2.5990	0	34.5140	0	27.541	0	1433.339	0	23.5	4	7.2	4	-1E+10	1	-1E+10	1	-1E+10	1	-1E+10	1	-1E+10	1	-1E+10	1
4902643	43	C	08/25/2025	01:16	-132.763	43.522	0	1470.50	0	2.5610	0	34.5180	0	27.548	0	1453.632	0	24.5	4	7.5	4	-1E+10	1	-1E+10	1	-1E+10	1	-1E+10	1	-1E+10	1	-1E+10	1
4902643	43	C	08/25/2025	01:16	-132.763	43.522	0	1489.90	0	2.5240	0	34.5220	0	27.554	0	1472.742	0	25.5	4	7.8	4	-1E+10	1	-1E+10	1	-1E+10	1	-1E+10	1	-1E+10	1	-1E+10	1
4902643	43	C	08/25/2025	01:16	-132.763	43.522	0	1509.80	0	2.4940	0	34.5260	0	27.560	0	1492.343	0	26.5	4	8.1	4	-1E+10	1	-1E+10	1	-1E+10	1	-1E+10	1	-1E+10	1	-1E+10	1
4902643	43	C	08/25/2025	01:16	-132.763	43.522	0	1529.60	0	2.4600	0	34.5300	0	27.566	0	1511.843	0	27.6	4	8.4	4	-1E+10	1	-1E+10	1	-1E+10	1	-1E+10	1	-1E+10	1	-1E+10	1
4902643	43	C	08/25/2025	01:16	-132.763	43.522	0	1549.00	0	2.4370	0	34.5330	0	27.571	0	1530.948	0	28.6	4	8.7	4	-1E+10	1	-1E+10	1	-1E+10	1	-1E+10	1	-1E+10	1	-1E+10	1
4902643	43	C	08/25/2025	01:16	-132.763	43.522	0	1569.70	0	2.4070	0	34.5360	0	27.576	0	1551.331	0	29.9	4	9.1	4	-1E+10	1	-1E+10	1	-1E+10	1	-1E+10	1	-1E+10	1	-1E+10	1
4902643	43	C	08/25/2025	01:16	-132.763	43.522	0	1589.30	0	2.3730	0	34.5410	0	27.583	0	1570.629	0	31.5	4	9.6	4	-1E+10	1	-1E+10	1	-1E+10	1	-1E+10	1	-1E+10	1	-1E+10	1
4902643	43	C	08/25/2025	01:16	-132.763	43.522	0	1609.50	0	2.3350	0	34.5450	0	27.589	0	1590.516	0	32.9	4	10.0	4	-1E+10	1	-1E+10	1	-1E+10	1	-1E+10	1	-1E+10	1	-1E+10	1
4902643	43	C	08/25/2025	01:16	-132.763	43.522	0	1629.90	0	2.3180	0	34.5470	0	27.592	0	1610.597	0	33.8	4	10.3	4	-1E+10	1	-1E+10	1	-1E+10	1	-1E+10	1	-1E+10	1	-1E+10	1
4902643	43	C	08/25/2025	01:16	-132.763	43.522	0	1649.70	0	2.2960	0	34.5500	0	27.596	0	1630.087	0	35.0	4	10.6	4	-1E+10	1	-1E+10	1	-1E+10	1	-1E+10	1	-1E+10	1	-1E+10	1
4902643	43	C	08/25/2025	01:16	-132.763	43.522	0	1669.80	0	2.2710	0	34.5530	0	27.601	0	1649.870	0	36.0	4	10.9	4	-1E+10	1	-1E+10	1	-1E+10	1	-1E+10	1	-1E+10	1	-1E+10	1
4902643	43	C	08/25/2025	01:16	-132.763	43.522	0	1689.90	0	2.2510	0	34.5560	0	27.605	0	1669.651	0	37.0	4	11.2	4	-1E+10	1	-1E+10	1	-1E+10	1	-1E+10	1	-1E+10	1	-1E+10	1
4902643	43	C	08/25/2025	01:16	-132.763	43.522	0	1709.90	0	2.2250	0	34.5590	0	27.610	0	1689.331	0	38.0	4	11.5	4	-1E+10	1	-1E+10	1	-1E+10	1	-1E+10	1	-1E+10	1	-1E+10	1
4902643	43	C	08/25/2025	01:16	-132.763	43.522	0	1730.00	0	2.2120	0	34.5610	0	27.612	0	1709.109	0	38.9	4	11.8	4	-1E+10	1	-1E+10	1	-1E+10	1	-1E+10	1	-1E+10	1	-1E+10	1
4902643	43	C	08/25/2025	01:16	-132.763	43.522	0	1749.80	0	2.1910	0	34.5640	0	27.617	0	1728.589	0	40.1	4	12.1	4	-1E+10	1	-1E+10	1	-1E+10	1	-1E+10	1	-1E+10	1	-1E+10	1
4902643	43	C	08/25/2025	01:16	-132.763	43.522	0	1769.60	0	2.1680	0	34.5660	0	27.620	0	1748.067	0	41.4	4	12.5	4	-1E+10	1	-1E+10	1	-1E+10	1	-1E+10	1	-1E+10	1	-1E+10	1
4902643	43	C	08/25/2025	01:16	-132.763	43.522	0	1789.70	0	2.1470	0	34.5690	0	27.624	0	1767.839	0	42.6	4	12.9	4	-1E+10	1	-1E+10	1	-1E+10	1	-1E+10	1	-1E+10	1	-1E+10	1
4902643	43	C	08/25/2025	01:16	-132.763	43.522	0	1810.00	0	2.1260	0	34.5720	0	27.629	0	1787.806	0	44.0	4	13.3	4	-1E+10	1	-1E+10	1	-1E+10	1	-1E+10	1	-1E+10	1	-1E+10	1
4902643	43	C	08/25/2025	01:16	-132.763	43.522	0	1829.90	0	2.1040	0	34.5750	0	27.633	0	1807.377	0	45.3	4	13.7	4	-1E+10	1	-1E+10	1	-1E+10	1	-1E+10	1	-1E+10	1	-1E+10	1
4902643	43	C	08/25/2025	01:16	-132.763	43.522	0	1850.10	0	2.0820	0	34.5790	0	27.638	0	1827.242	0	46.7	4	14.1	4	-1E+10	1	-1E+10	1	-1E+10	1	-1E+10	1	-1E+10	1	-1E+10	1
4902643	43	C	08/25/2025	01:16	-132.763	43.522	0	1869.80	0	2.0620	0	34.5810	0	27.641	0	1846.613	0	48.0	4	14.5	4	-1E+10	1	-1E+10	1	-1E+10	1	-1E+10	1	-1E+10	1	-1E+10	1
4902643	43	C	08/25/2025	01:16	-132.763	43.522	0	1889.80	0	2.0390	0	34.5850	0	27.646	0	1866.277	0	49.5	4	14.9	4	-1E+10	1	-1E+10	1	-1E+10	1	-1E+10	1	-1E+10	1	-1E+10	1
4902643	43	C	08/25/2025	01:16	-132.763	43.522	0	1909.70	0	2.0190	0	34.5870	0	27.649	0	1885.841	0	50.8	4	15.3	4	-1E+10	1	-1E+10	1	-1E+10	1	-1E+10	1	-1E+10	1	-1E+10	1
4902643	43	C	08/25/2025	01:16	-132.763	43.522	0	1929.80	0	2.0020	0	34.5900	0	27.653	0	1905.600	0	51.9	4	15.7	4	-1E+10	1	-1E+10	1	-1E+10	1	-1E+10	1	-1E+10	1	-1E+10	1
4902643	43	C	08/25/2025	01:16	-132.763	43.522	0	1949.20	0	1.9850	0	34.5920	0	27.656	0	1924.669	0	53.2	4	16.0	4	-1E+10	1	-1E+10	1	-1E+10	1	-1E+10	1	-1E+10	1	-1E+10	1
4902643	43	C	08/25/2025	01:16	-132.763	43.522	0	1969.80	0	1.9680	0	34.5950	0	27.660	0	1944.916	0	54.2	4	16.3	4	-1E+10	1	-1E+10	1	-1E+10	1	-1E+10	1	-1E+10	1	-1E+10	1
4902643	43	C	08/25/2025	01:16	-132.763	43.522	0	1989.70	0	1.9570	0	34.5970	0	27.663	0	1964.473	0	55.1	4	16.6	4	-1E+10	1	-1E+10	1	-1E+10	1	-1E+10	1	-1E+10	1	-1E+10	1
4902643	43	C	08/25/2025	01:16	-132.763	43.522	0	2010.00	0	1.9430	0	34.5980	4	27.665	0	1984.421	0	56.0	4	16.9	4	-1E+10	1	-1E+10	1	-1E+10	1	-1E+10	1	-1E+10	1	-1E+10	1
4902643	43	C	08/25/2025	01:16	-132.763	43.522	0	2029.90	0	1.9310	0	34.6000	4	27.667	0	2003.975	0	57.0	4	17.1	4	-1E+10	1	-1E+10	1	-1E+10	1	-1E+10	1	-1E+10	1	-1E+10	1
4902643	43	C	08/25/2025	01:16	-132.763	43.522	0	2049.60	0	1.9220	0	34.6010	4	27.669	0	2023.330	0	57.7	4	17.4	4	-1E+10	1	-1E+10	1	-1E+10	1	-1E+10	1	-1E+10	1	-1E+10	1
4902643	43	C	08/25/2025	01:16	-132.763	43.522	0	2069.60	0	1.9100	0	34.6030	4	27.672	0	2042.978	0	58.6	4	17.6	4	-1E+10	1	-1E+10	1	-1E+10	1	-1E+10	1	-1E+10	1	-1E+10	1
4902643	43	C	08/25/2025	01:16	-132.763	43.522	0	2089.90	0	1.8980	0	34.6050	4	27.674	0	2062.918	0	59.6	4	17.9	4	-1E+10	1	-1E+10	1	-1E+10	1	-1E+10	1	-1E+10	1	-1E+10	1
4902643	43	C	08/25/2025	01:16	-132.763	43.522	0	2109.70	0	1.8890	0	34.6070	4	27.677	0	2082.366	0	60.4	4	18.2	4	-1E+10	1	-1E+10	1	-1E+10	1	-1E+10	1	-1E+10	1	-1E+10	1
4902643	43	C	08/25/2025	01:16	-132.763	43.522	0	2129.60	0	1.8810	0	34.6080	4	27.678	0	2101.911	0	61.0	4	18.3	4	-1E+10	1	-1E+10	1	-1E+10	1	-1E+10	1	-1E+10	1	-1E+10	1
4902643	43	C	08/25/2025	01:16	-132.763	43.522	0	2150.50	0	1.8750	0	34.6090	4	27.680	0	2122.435	0	61.6	4	18.5	4	-1E+10	1	-1E+10	1	-1E+10	1	-1E+10	1	-1E+10	1	-1E+10	1
4902643	43	C	08/25/2025	01:16	-132.763	43.522	0	2169.90	0	1.8670	0	34.6110	4	27.682	0	2141.485	0	62.4	4	18.8	4	-1E+10	1	-1E+10	1	-1E+10	1	-1E+10	1	-1E+10	1	-1E+10	1
4902643	43	C	08/25/2025	01:16	-132.763	43.522	0	2189.70	0	1.8580	0	34.6120	4	27.683	0	2160.925	0	63.1	4	19.0	4	-1E+10	1	-1E+10	1	-1E+10	1	-1E+10	1	-1E+10	1	-1E+10	1
4902643	43	C	08/25/2025	01:16	-132.763	43.522	0	2210.30	0	1.8510	0	34.6130	4	27.685	0	2181.150	0	63.7	4	19.1	4	-1E+10	1	-1E+10	1	-1E+10	1	-1E+10	1	-1E+10	1	-1E+10	1
4902643	43	C	08/25/2025	01:16	-132.763	43.522	0	2230.00	0	1.8440	0	34.6140	4	27.686	0	2200.489	0	64.5	4	19.4	4	-1E+10	1	-1E+10	1	-1E+10	1	-1E+10	1	-1E+10	1	-1E+10	1
4902643	43	C	08/25/2025	01:16	-132.763	43.522	0	2249.80	0	1.8360	0	34.6150	4	27.688	0	2219.924	0	65.1	4	19.6	4	-1E+10	1	-1E+10	1	-1E+10	1	-1E+10	1	-1E+10	1	-1E+10	1
4902643	43	C	08/25/2025	01:16	-132.763	43.522	0	2269.80	0	1.8300	0	34.6160	4	27.689	0	2239.554	0	65.8	4	19.8	4	-1E+10	1	-1E+10	1	-1E+10	1	-1E+10	1	-1E+10	1	-1E+10	1
4902643	43	C	08/25/2025	01:16	-132.763	43.522	0	2289.80	0	1.8240	0	34.6180	4	27.691	0	2259.182	0	66.5	4	20.0	4	-1E+10	1	-1E+10	1	-1E+10	1	-1E+10	1	-1E+10	1	-1E+10	1
4902643	43	C	08/25/2025	01:16	-132.763	43.522	0	2309.60	0	1.8170	0	34.6190	4	27.693	0	2278.612	0	67.2	4	20.2	4	-1E+10	1	-1E+10	1	-1E+10	1	-1E+10	1	-1E+10	1	-1E+10	1
4902643	43	C	08/25/2025	01:16	-132.763	43.522	0	2329.50	0	1.8100	0	34.6200	4	27.694	0	2298.138	0	68.0	4	20.4	4	-1E+10	1	-1E+10	1	-1E+10	1	-1E+10	1	-1E+10	1	-1E+10	1
4902643	43	C	08/25/2025	01:16	-132.763	43.522	0	2350.10	0	1.8020	0	34.6210	4	27.696	0	2318.350	0	68.7	4	20.6	4	-1E+10	1	-1E+10	1	-1E+10	1	-1E+10	1	-1E+10	1	-1E+10	1
4902643	43	C	08/25/2025	01:16	-132.763	43.522	0	2369.40	0	1.7960	0	34.6220	4	27.697	0	2337.284	0	69.4	4	20.8	4	-1E+10	1	-1E+10	1	-1E+10	1	-1E+10	1	-1E+10	1	-1E+10	1
4902643	43	C	08/25/2025	01:16	-132.763	43.522	0	2389.40	0	1.7910	0	34.6230	4	27.698	0	2356.903	0	69.9	4	21.0	4	-1E+10	1	-1E+10	1	-1E+10	1	-1E+10	1	-1E+10	1	-1E+10	1
4902643	43	C	08/25/2025	01:16	-132.763	43.522	0	2409.80	0	1.7850	0	34.6240	4	27.700	0	2376.913	0	70.5	4	21.2	4	-1E+10	1	-1E+10	1	-1E+10	1	-1E+10	1	-1E+10	1	-1E+10	1
4902643	43	C	08/25/2025	01:16	-132.763	43.522	0	2430.00	0	1.7810	0	34.6250	4	27.701	0	2396.724	0	71.3	4	21.4	4	-1E+10	1	-1E+10	1	-1E+10	1	-1E+10	1	-1E+10	1	-1E+10	1
4902643	43	C	08/25/2025	01:16	-132.763	43.522	0	2450.00	0	1.7700	0	34.6260	4	27.703	0	2416.338	0	72.4	4	21.7	4	-1E+10	1	-1E+10	1	-1E+10	1	-1E+10	1	-1E+10	1	-1E+10	1
4902643	43	C	08/25/2025	01:16	-132.763	43.522	0	2470.20	0	1.7620	0	34.6270	4	27.704	0	2436.146	0	73.2	4	21.9	4	-1E+10	1	-1E+10	1	-1E+10	1	-1E+10	1	-1E+10	1	-1E+10	1
4902643	43	C	08/25/2025	01:16	-132.763	43.522	0	2489.80	0	1.7560	0	34.6280	4	27.706	0	2455.364	0	73.9	4	22.2	4	-1E+10	1	-1E+10	1	-1E+10	1	-1E+10	1	-1E+10	1	-1E+10	1
4902643	43	C	08/25/2025	01:16	-132.763	43.522	0	2509.80	0	1.7460	0	34.6300	4	27.708	0	2474.972	0	74.8	4	22.4	4	-1E+10	1	-1E+10	1	-1E+10	1	-1E+10	1	-1E+10	1	-1E+10	1
4902643	43	C	08/25/2025	01:16	-132.763	43.522	0	2529.80	0	1.7400	0	34.6310	4	27.710	0	2494.579	0	75.5	4	22.6	4	-1E+10	1	-1E+10	1	-1E+10	1	-1E+10	1	-1E+10	1	-1E+10	1
4902643	43	C	08/25/2025	01:16	-132.763	43.522	0	2550.00	0	1.7340	0	34.6310	4	27.710	0	2514.379	0	76.3	4	22.9	4	-1E+10	1	-1E+10	1	-1E+10	1	-1E+10	1	-1E+10	1	-1E+10	1
4902643	43	C	08/25/2025	01:16	-132.763	43.522	0	2569.70	0	1.7270	0	34.6320	4	27.712	0	2533.688	0	77.1	4	23.1	4	-1E+10	1	-1E+10	1	-1E+10	1	-1E+10	1	-1E+10	1	-1E+10	1
4902643	43	C	08/25/2025	01:16	-132.763	43.522	0	2589.60	0	1.7210	0	34.6330	4	27.713	0	2553.192	0	77.8	4	23.3	4	-1E+10	1	-1E+10	1	-1E+10	1	-1E+10	1	-1E+10	1	-1E+10	1
4902643	43	C	08/25/2025	01:16	-132.763	43.522	0	2609.70	0	1.7150	0	34.6340	4	27.714	0	2572.889	0	78.4	4	23.5	4	-1E+10	1	-1E+10	1	-1E+10	1	-1E+10	1	-1E+10	1	-1E+10	1
4902643	43	C	08/25/2025	01:16	-132.763	43.522	0	2629.60	0	1.7080	0	34.6350	4	27.716	0	2592.389	0	79.4	4	23.8	4	-1E+10	1	-1E+10	1	-1E+10	1	-1E+10	1	-1E+10	1	-1E+10	1
4902643	43	C	08/25/2025	01:16	-132.763	43.522	0	2650.60	0	1.6990	0	34.6360	4	27.717	0	2612.964	0	80.4	4	24.1	4	-1E+10	1	-1E+10	1	-1E+10	1	-1E+10	1	-1E+10	1	-1E+10	1
4902643	43	C	08/25/2025	01:16	-132.763	43.522	0	2669.90	0	1.6910	0	34.6380	4	27.720	0	2631.872	0	81.2	4	24.3	4	-1E+10	1	-1E+10	1	-1E+10	1	-1E+10	1	-1E+10	1	-1E+10	1
4902643	43	C	08/25/2025	01:16	-132.763	43.522	0	2689.80	0	1.6850	0	34.6380	4	27.720	0	2651.367	0	81.8	4	24.5	4	-1E+10	1	-1E+10	1	-1E+10	1	-1E+10	1	-1E+10	1	-1E+10	1
4902643	43	C	08/25/2025	01:16	-132.763	43.522	0	2709.80	0	1.6800	0	34.6390	4	27.721	0	2670.957	0	82.5	4	24.7	4	-1E+10	1	-1E+10	1	-1E+10	1	-1E+10	1	-1E+10	1	-1E+10	1
4902643	43	C	08/25/2025	01:16	-132.763	43.522	0	2730.50	0	1.6760	0	34.6400	4	27.723	0	2691.231	0	83.2	4	24.9	4	-1E+10	1	-1E+10	1	-1E+10	1	-1E+10	1	-1E+10	1	-1E+10	1
4902643	43	C	08/25/2025	01:16	-132.763	43.522	0	2749.80	0	1.6710	0	34.6410	4	27.724	0	2710.133	0	83.9	4	25.1	4	-1E+10	1	-1E+10	1	-1E+10	1	-1E+10	1	-1E+10	1	-1E+10	1
4902643	43	C	08/25/2025	01:16	-132.763	43.522	0	2769.70	0	1.6660	0	34.6410	4	27.724	0	2729.620	0	84.6	4	25.3	4	-1E+10	1	-1E+10	1	-1E+10	1	-1E+10	1	-1E+10	1	-1E+10	1
4902643	43	C	08/25/2025	01:16	-132.763	43.522	0	2789.60	0	1.6610	0	34.6420	4	27.726	0	2749.105	0	85.3	4	25.5	4	-1E+10	1	-1E+10	1	-1E+10	1	-1E+10	1	-1E+10	1	-1E+10	1
4902643	43	C	08/25/2025	01:16	-132.763	43.522	0	2809.40	0	1.6540	0	34.6430	4	27.727	0	2768.491	0	86.1	4	25.8	4	-1E+10	1	-1E+10	1	-1E+10	1	-1E+10	1	-1E+10	1	-1E+10	1
4902643	43	C	08/25/2025	01:16	-132.763	43.522	0	2829.50	0	1.6500	0	34.6440	4	27.728	0	2788.169	0	86.8	4	25.9	4	-1E+10	1	-1E+10	1	-1E+10	1	-1E+10	1	-1E+10	1	-1E+10	1
4902643	43	C	08/25/2025	01:16	-132.763	43.522	0	2849.60	0	1.6460	0	34.6450	4	27.730	0	2807.845	0	87.4	4	26.1	4	-1E+10	1	-1E+10	1	-1E+10	1	-1E+10	1	-1E+10	1	-1E+10	1
4902643	43	C	08/25/2025	01:16	-132.763	43.522	0	2870.10	0	1.6400	0	34.6460	4	27.731	0	2827.910	0	88.3	4	26.4	4	-1E+10	1	-1E+10	1	-1E+10	1	-1E+10	1	-1E+10	1	-1E+10	1
4902643	43	C	08/25/2025	01:16	-132.763	43.522	0	2889.50	0	1.6350	0	34.6470	4	27.732	0	2846.898	0	89.0	4	26.6	4	-1E+10	1	-1E+10	1	-1E+10	1	-1E+10	1	-1E+10	1	-1E+10	1
4902643	43	C	08/25/2025	01:16	-132.763	43.522	0	2909.50	0	1.6300	0	34.6470	4	27.733	0	2866.470	0	89.8	4	26.9	4	-1E+10	1	-1E+10	1	-1E+10	1	-1E+10	1	-1E+10	1	-1E+10	1
4902643	43	C	08/25/2025	01:16	-132.763	43.522	0	2929.80	0	1.6240	0	34.6480	4	27.734	0	2886.335	0	90.5	4	27.1	4	-1E+10	1	-1E+10	1	-1E+10	1	-1E+10	1	-1E+10	1	-1E+10	1
4902643	43	C	08/25/2025	01:16	-132.763	43.522	0	2949.80	0	1.6210	0	34.6490	4	27.735	0	2905.904	0	90.9	4	27.2	4	-1E+10	1	-1E+10	1	-1E+10	1	-1E+10	1	-1E+10	1	-1E+10	1
4902643	43	C	08/25/2025	01:16	-132.763	43.522	0	2969.50	0	1.6210	0	34.6490	4	27.735	0	2925.178	0	91.1	4	27.2	4	-1E+10	1	-1E+10	1	-1E+10	1	-1E+10	1	-1E+10	1	-1E+10	1
4902643	43	C	08/25/2025	01:16	-132.763	43.522	0	2990.20	0	1.6180	0	34.6490	4	27.736	0	2945.428	0	91.6	4	27.4	4	-1E+10	1	-1E+10	1	-1E+10	1	-1E+10	1	-1E+10	1	-1E+10	1
4902643	43	C	08/25/2025	01:16	-132.763	43.522	0	3009.60	0	1.6140	0	34.6500	4	27.737	0	2964.405	0	92.2	4	27.5	4	-1E+10	1	-1E+10	1	-1E+10	1	-1E+10	1	-1E+10	1	-1E+10	1
4902643	43	C	08/25/2025	01:16	-132.763	43.522	0	3029.50	0	1.6100	0	34.6510	4	27.738	0	2983.870	0	92.8	4	27.7	4	-1E+10	1	-1E+10	1	-1E+10	1	-1E+10	1	-1E+10	1	-1E+10	1
4902643	43	C	08/25/2025	01:16	-132.763	43.522	0	3049.40	0	1.6070	0	34.6510	4	27.739	0	3003.332	0	93.4	4	27.9	4	-1E+10	1	-1E+10	1	-1E+10	1	-1E+10	1	-1E+10	1	-1E+10	1
4902643	43	C	08/25/2025	01:16	-132.763	43.522	0	3069.70	0	1.6030	0	34.6520	4	27.740	0	3023.184	0	94.0	4	28.1	4	-1E+10	1	-1E+10	1	-1E+10	1	-1E+10	1	-1E+10	1	-1E+10	1
4902643	43	C	08/25/2025	01:16	-132.763	43.522	0	3089.70	0	1.6000	0	34.6520	4	27.740	0	3042.741	0	94.4	4	28.2	4	-1E+10	1	-1E+10	1	-1E+10	1	-1E+10	1	-1E+10	1	-1E+10	1
4902643	43	C	08/25/2025	01:16	-132.763	43.522	0	3108.90	0	1.5980	0	34.6530	4	27.741	0	3061.514	0	94.7	4	28.3	4	-1E+10	1	-1E+10	1	-1E+10	1	-1E+10	1	-1E+10	1	-1E+10	1
4902643	43	C	08/25/2025	01:16	-132.763	43.522	0	3129.70	0	1.5950	0	34.6530	4	27.742	0	3081.849	0	95.4	4	28.5	4	-1E+10	1	-1E+10	1	-1E+10	1	-1E+10	1	-1E+10	1	-1E+10	1
4902643	43	C	08/25/2025	01:16	-132.763	43.522	0	3149.70	0	1.5930	0	34.6540	4	27.743	0	3101.401	0	95.9	4	28.6	4	-1E+10	1	-1E+10	1	-1E+10	1	-1E+10	1	-1E+10	1	-1E+10	1
4902643	43	C	08/25/2025	01:16	-132.763	43.522	0	3169.80	0	1.5880	0	34.6550	4	27.744	0	3121.049	0	96.6	4	28.8	4	-1E+10	1	-1E+10	1	-1E+10	1	-1E+10	1	-1E+10	1	-1E+10	1
4902643	43	C	08/25/2025	01:16	-132.763	43.522	0	3189.70	0	1.5840	0	34.6550	4	27.744	0	3140.499	0	97.3	4	29.1	4	-1E+10	1	-1E+10	1	-1E+10	1	-1E+10	1	-1E+10	1	-1E+10	1
4902643	43	C	08/25/2025	01:16	-132.763	43.522	0	3209.40	0	1.5810	0	34.6560	4	27.745	0	3159.752	0	97.8	4	29.2	4	-1E+10	1	-1E+10	1	-1E+10	1	-1E+10	1	-1E+10	1	-1E+10	1
4902643	43	C	08/25/2025	01:16	-132.763	43.522	0	3229.70	0	1.5800	0	34.6570	4	27.746	0	3179.590	0	98.4	4	29.4	4	-1E+10	1	-1E+10	1	-1E+10	1	-1E+10	1	-1E+10	1	-1E+10	1
4902643	43	C	08/25/2025	01:16	-132.763	43.522	0	3250.40	0	1.5780	0	34.6570	4	27.747	0	3199.817	0	98.9	4	29.5	4	-1E+10	1	-1E+10	1	-1E+10	1	-1E+10	1	-1E+10	1	-1E+10	1
4902643	43	C	08/25/2025	01:16	-132.763	43.522	0	3269.70	0	1.5760	0	34.6580	4	27.748	0	3218.674	0	99.2	4	29.6	4	-1E+10	1	-1E+10	1	-1E+10	1	-1E+10	1	-1E+10	1	-1E+10	1
4902643	43	C	08/25/2025	01:16	-132.763	43.522	0	3289.70	0	1.5740	0	34.6580	4	27.748	0	3238.213	0	99.7	4	29.7	4	-1E+10	1	-1E+10	1	-1E+10	1	-1E+10	1	-1E+10	1	-1E+10	1
4902643	43	C	08/25/2025	01:16	-132.763	43.522	0	3309.90	0	1.5720	0	34.6590	4	27.749	0	3257.946	0	100.1	4	29.9	4	-1E+10	1	-1E+10	1	-1E+10	1	-1E+10	1	-1E+10	1	-1E+10	1
4902643	43	C	08/25/2025	01:16	-132.763	43.522	0	3329.90	0	1.5700	0	34.6590	4	27.749	0	3277.482	0	100.6	4	30.0	4	-1E+10	1	-1E+10	1	-1E+10	1	-1E+10	1	-1E+10	1	-1E+10	1
4902643	43	C	08/25/2025	01:16	-132.763	43.522	0	3350.30	0	1.5680	0	34.6600	4	27.751	0	3297.406	0	101.1	4	30.2	4	-1E+10	1	-1E+10	1	-1E+10	1	-1E+10	1	-1E+10	1	-1E+10	1
4902643	43	C	08/25/2025	01:16	-132.763	43.522	0	3370.20	0	1.5660	0	34.6600	4	27.751	0	3316.841	0	101.5	4	30.3	4	-1E+10	1	-1E+10	1	-1E+10	1	-1E+10	1	-1E+10	1	-1E+10	1
4902643	43	C	08/25/2025	01:16	-132.763	43.522	0	3390.30	0	1.5650	0	34.6610	4	27.752	0	3336.469	0	101.9	4	30.4	4	-1E+10	1	-1E+10	1	-1E+10	1	-1E+10	1	-1E+10	1	-1E+10	1
4902643	43	C	08/25/2025	01:16	-132.763	43.522	0	3410.30	0	1.5640	0	34.6620	4	27.753	0	3355.998	0	102.3	4	30.5	4	-1E+10	1	-1E+10	1	-1E+10	1	-1E+10	1	-1E+10	1	-1E+10	1
4902643	43	C	08/25/2025	01:16	-132.763	43.522	0	3430.10	0	1.5630	0	34.6620	4	27.753	0	3375.330	0	102.6	4	30.6	4	-1E+10	1	-1E+10	1	-1E+10	1	-1E+10	1	-1E+10	1	-1E+10	1
4902643	43	C	08/25/2025	01:16	-132.763	43.522	0	3450.30	0	1.5620	0	34.6620	4	27.753	0	3395.050	0	103.0	4	30.7	4	-1E+10	1	-1E+10	1	-1E+10	1	-1E+10	1	-1E+10	1	-1E+10	1
4902643	43	C	08/25/2025	01:16	-132.763	43.522	0	3470.00	0	1.5620	0	34.6630	4	27.754	0	3414.281	0	103.2	4	30.8	4	-1E+10	1	-1E+10	1	-1E+10	1	-1E+10	1	-1E+10	1	-1E+10	1
4902643	43	C	08/25/2025	01:16	-132.763	43.522	0	3490.10	0	1.5610	0	34.6630	4	27.754	0	3433.900	0	103.5	4	30.9	4	-1E+10	1	-1E+10	1	-1E+10	1	-1E+10	1	-1E+10	1	-1E+10	1
4902643	43	C	08/25/2025	01:16	-132.763	43.522	0	3510.00	0	1.5610	0	34.6640	4	27.755	0	3453.323	0	103.9	4	31.0	4	-1E+10	1	-1E+10	1	-1E+10	1	-1E+10	1	-1E+10	1	-1E+10	1
4902643	43	C	08/25/2025	01:16	-132.763	43.522	0	3530.20	0	1.5610	0	34.6640	4	27.756	0	3473.036	0	104.1	4	31.1	4	-1E+10	1	-1E+10	1	-1E+10	1	-1E+10	1	-1E+10	1	-1E+10	1
4902643	43	C	08/25/2025	01:16	-132.763	43.522	0	3550.20	0	1.5600	0	34.6650	4	27.757	0	3492.553	0	104.4	4	31.1	4	-1E+10	1	-1E+10	1	-1E+10	1	-1E+10	1	-1E+10	1	-1E+10	1
4902643	43	C	08/25/2025	01:16	-132.763	43.522	0	3569.80	0	1.5600	0	34.6650	4	27.757	0	3511.678	0	104.6	4	31.2	4	-1E+10	1	-1E+10	1	-1E+10	1	-1E+10	1	-1E+10	1	-1E+10	1
4902643	43	C	08/25/2025	01:16	-132.763	43.522	0	3590.20	0	1.5590	0	34.6650	4	27.757	0	3531.581	0	104.9	4	31.3	4	-1E+10	1	-1E+10	1	-1E+10	1	-1E+10	1	-1E+10	1	-1E+10	1
4902643	43	C	08/25/2025	01:16	-132.763	43.522	0	3609.90	0	1.5560	0	34.6660	4	27.758	0	3550.800	0	105.3	4	31.4	4	-1E+10	1	-1E+10	1	-1E+10	1	-1E+10	1	-1E+10	1	-1E+10	1
4902643	43	C	08/25/2025	01:16	-132.763	43.522	0	3623.20	0	1.5520	0	34.6670	4	27.759	0	3563.774	0	105.6	4	31.5	4	-1E+10	1	-1E+10	1	-1E+10	1	-1E+10	1	-1E+10	1	-1E+10	1
4902643	43	C	08/25/2025	01:16	-132.763	43.522	0	3626.80	0	1.5500	0	34.6680	4	27.760	0	3567.285	0	105.6	4	31.5	4	-1E+10	1	-1E+10	1	-1E+10	1	-1E+10	1	-1E+10	1	-1E+10	1
4902643	43	C	08/25/2025	01:16	-132.763	43.522	0	3627.50	0	1.5500	0	34.6680	4	27.760	0	3567.968	0	105.6	4	31.5	4	-1E+10	1	-1E+10	1	-1E+10	1	-1E+10	1	-1E+10	1	-1E+10	1
4902643	43	C	08/25/2025	01:16	-132.763	43.522	0	3628.40	0	1.5490	0	34.6690	4	27.761	0	3568.846	0	105.6	4	31.5	4	-1E+10	1	-1E+10	1	-1E+10	1	-1E+10	1	-1E+10	1	-1E+10	1
4902643	43	C	08/25/2025	01:16	-132.763	43.522	0	3629.30	0	1.5490	0	34.6680	4	27.760	0	3569.724	0	105.6	4	31.5	4	-1E+10	1	-1E+10	1	-1E+10	1	-1E+10	1	-1E+10	1	-1E+10	1
4902643	43	C	08/25/2025	01:16	-132.763	43.522	0	3630.60	0	1.5490	0	34.6690	4	27.761	0	3570.992	0	105.6	4	31.5	4	-1E+10	1	-1E+10	1	-1E+10	1	-1E+10	1	-1E+10	1	-1E+10	1
4902643	43	C	08/25/2025	01:16	-132.763	43.522	0	3631.90	0	1.5490	0	34.6690	4	27.761	0	3572.260	0	105.6	4	31.5	4	-1E+10	1	-1E+10	1	-1E+10	1	-1E+10	1	-1E+10	1	-1E+10	1
4902643	43	C	08/25/2025	01:16	-132.763	43.522	0	3632.80	0	1.5480	0	34.6690	4	27.761	0	3573.138	0	105.6	4	31.5	4	-1E+10	1	-1E+10	1	-1E+10	1	-1E+10	1	-1E+10	1	-1E+10	1
4902643	43	C	08/25/2025	01:16	-132.763	43.522	0	3633.60	0	1.5490	0	34.6690	4	27.761	0	3573.919	0	105.6	4	31.5	4	-1E+10	1	-1E+10	1	-1E+10	1	-1E+10	1	-1E+10	1	-1E+10	1
4902643	43	C	08/25/2025	01:16	-132.763	43.522	0	3634.60	0	1.5480	0	34.6690	4	27.761	0	3574.894	0	105.6	4	31.5	4	-1E+10	1	-1E+10	1	-1E+10	1	-1E+10	1	-1E+10	1	-1E+10	1
4902643	43	C	08/25/2025	01:16	-132.763	43.522	0	3635.40	0	1.5490	0	34.6690	4	27.761	0	3575.674	0	105.6	4	31.5	4	-1E+10	1	-1E+10	1	-1E+10	1	-1E+10	1	-1E+10	1	-1E+10	1
4902643	43	C	08/25/2025	01:16	-132.763	43.522	0	3636.30	0	1.5480	0	34.6690	4	27.761	0	3576.552	0	105.6	4	31.5	4	-1E+10	1	-1E+10	1	-1E+10	1	-1E+10	1	-1E+10	1	-1E+10	1
4902643	43	C	08/25/2025	01:16	-132.763	43.522	0	3637.10	0	1.5490	0	34.6690	4	27.761	0	3577.332	0	105.6	4	31.5	4	-1E+10	1	-1E+10	1	-1E+10	1	-1E+10	1	-1E+10	1	-1E+10	1
4902643	43	C	08/25/2025	01:16	-132.763	43.522	0	3638.50	0	1.5480	0	34.6690	4	27.761	0	3578.698	0	105.6	4	31.5	4	-1E+10	1	-1E+10	1	-1E+10	1	-1E+10	1	-1E+10	1	-1E+10	1
4902643	43	C	08/25/2025	01:16	-132.763	43.522	0	3639.80	0	1.5490	0	34.6690	4	27.761	0	3579.966	0	105.6	4	31.5	4	-1E+10	1	-1E+10	1	-1E+10	1	-1E+10	1	-1E+10	1	-1E+10	1
4902643	43	C	08/25/2025	01:16	-132.763	43.522	0	3640.60	0	1.5480	0	34.6690	4	27.761	0	3580.746	0	105.6	4	31.5	4	-1E+10	1	-1E+10	1	-1E+10	1	-1E+10	1	-1E+10	1	-1E+10	1
4902643	43	C	08/25/2025	01:16	-132.763	43.522	0	3641.40	0	1.5490	0	34.6690	4	27.761	0	3581.527	0	105.5	4	31.5	4	-1E+10	1	-1E+10	1	-1E+10	1	-1E+10	1	-1E+10	1	-1E+10	1
4902643	43	C	08/25/2025	01:16	-132.763	43.522	0	3642.30	0	1.5490	0	34.6690	4	27.761	0	3582.404	0	105.5	4	31.5	4	-1E+10	1	-1E+10	1	-1E+10	1	-1E+10	1	-1E+10	1	-1E+10	1
4902643	43	C	08/25/2025	01:16	-132.763	43.522	0	3643.20	0	1.5490	0	34.6690	4	27.761	0	3583.282	0	105.5	4	31.5	4	-1E+10	1	-1E+10	1	-1E+10	1	-1E+10	1	-1E+10	1	-1E+10	1
4902643	43	C	08/25/2025	01:16	-132.763	43.522	0	3644.50	0	1.5490	0	34.6690	4	27.761	0	3584.550	0	105.6	4	31.5	4	-1E+10	1	-1E+10	1	-1E+10	1	-1E+10	1	-1E+10	1	-1E+10	1
4902643	43	C	08/25/2025	01:16	-132.763	43.522	0	3645.90	0	1.5490	0	34.6690	4	27.761	0	3585.916	0	105.6	4	31.5	4	-1E+10	1	-1E+10	1	-1E+10	1	-1E+10	1	-1E+10	1	-1E+10	1
4902643	43	C	08/25/2025	01:16	-132.763	43.522	0	3646.90	0	1.5490	0	34.6690	4	27.761	0	3586.891	0	105.6	4	31.5	4	-1E+10	1	-1E+10	1	-1E+10	1	-1E+10	1	-1E+10	1	-1E+10	1
4902643	43	C	08/25/2025	01:16	-132.763	43.522	0	3647.70	0	1.5490	0	34.6690	4	27.761	0	3587.671	0	105.6	4	31.5	4	-1E+10	1	-1E+10	1	-1E+10	1	-1E+10	1	-1E+10	1	-1E+10	1
4902643	43	C	08/25/2025	01:16	-132.763	43.522	0	3648.60	0	1.5490	0	34.6690	4	27.761	0	3588.549	0	105.6	4	31.5	4	-1E+10	1	-1E+10	1	-1E+10	1	-1E+10	1	-1E+10	1	-1E+10	1
4902643	43	C	08/25/2025	01:16	-132.763	43.522	0	3649.40	0	1.5490	0	34.6690	4	27.761	0	3589.329	0	105.5	4	31.5	4	-1E+10	1	-1E+10	1	-1E+10	1	-1E+10	1	-1E+10	1	-1E+10	1
4902643	43	C	08/25/2025	01:16	-132.763	43.522	0	3650.30	0	1.5490	0	34.6690	4	27.761	0	3590.207	0	105.5	4	31.5	4	-1E+10	1	-1E+10	1	-1E+10	1	-1E+10	1	-1E+10	1	-1E+10	1
4902643	43	C	08/25/2025	01:16	-132.763	43.522	0	3651.20	0	1.5500	0	34.6690	4	27.761	0	3591.085	0	105.5	4	31.5	4	-1E+10	1	-1E+10	1	-1E+10	1	-1E+10	1	-1E+10	1	-1E+10	1
4902643	43	C	08/25/2025	01:16	-132.763	43.522	0	3652.10	0	1.5500	0	34.6690	4	27.761	0	3591.963	0	105.5	4	31.5	4	-1E+10	1	-1E+10	1	-1E+10	1	-1E+10	1	-1E+10	1	-1E+10	1
4902643	43	C	08/25/2025	01:16	-132.763	43.522	0	3653.40	0	1.5500	0	34.6690	4	27.761	0	3593.231	0	105.6	4	31.5	4	-1E+10	1	-1E+10	1	-1E+10	1	-1E+10	1	-1E+10	1	-1E+10	1
4902643	43	C	08/25/2025	01:16	-132.763	43.522	0	3654.90	0	1.5500	0	34.6690	4	27.761	0	3594.694	0	105.6	4	31.5	4	-1E+10	1	-1E+10	1	-1E+10	1	-1E+10	1	-1E+10	1	-1E+10	1
4902643	43	C	08/25/2025	01:16	-132.763	43.522	0	3655.50	0	1.5500	0	34.6690	4	27.761	0	3595.279	0	105.5	4	31.5	4	-1E+10	1	-1E+10	1	-1E+10	1	-1E+10	1	-1E+10	1	-1E+10	1
4902643	43	C	08/25/2025	01:16	-132.763	43.522	0	3656.60	0	1.5500	0	34.6690	4	27.761	0	3596.352	0	105.6	4	31.5	4	-1E+10	1	-1E+10	1	-1E+10	1	-1E+10	1	-1E+10	1	-1E+10	1
4902643	43	C	08/25/2025	01:16	-132.763	43.522	0	3657.40	0	1.5500	0	34.6690	4	27.761	0	3597.132	0	105.5	4	31.5	4	-1E+10	1	-1E+10	1	-1E+10	1	-1E+10	1	-1E+10	1	-1E+10	1
4902643	43	C	08/25/2025	01:16	-132.763	43.522	0	3658.40	0	1.5500	0	34.6690	4	27.761	0	3598.108	0	105.5	4	31.5	4	-1E+10	1	-1E+10	1	-1E+10	1	-1E+10	1	-1E+10	1	-1E+10	1
4902643	43	C	08/25/2025	01:16	-132.763	43.522	0	3659.20	0	1.5510	0	34.6690	4	27.761	0	3598.888	0	105.5	4	31.5	4	-1E+10	1	-1E+10	1	-1E+10	1	-1E+10	1	-1E+10	1	-1E+10	1
4902643	43	C	08/25/2025	01:16	-132.763	43.522	0	3660.50	0	1.5500	0	34.6690	4	27.761	0	3600.156	0	105.5	4	31.5	4	-1E+10	1	-1E+10	1	-1E+10	1	-1E+10	1	-1E+10	1	-1E+10	1
4902643	43	C	08/25/2025	01:16	-132.763	43.522	0	3662.60	0	1.5510	0	34.6690	4	27.761	0	3602.204	0	105.5	4	31.5	4	-1E+10	1	-1E+10	1	-1E+10	1	-1E+10	1	-1E+10	1	-1E+10	1
4902643	43	C	08/25/2025	01:16	-132.763	43.522	0	3663.70	0	1.5510	0	34.6690	4	27.761	0	3603.277	0	105.5	4	31.5	4	-1E+10	1	-1E+10	1	-1E+10	1	-1E+10	1	-1E+10	1	-1E+10	1
4902643	43	C	08/25/2025	01:16	-132.763	43.522	0	3664.50	0	1.5510	0	34.6690	4	27.761	0	3604.057	0	105.5	4	31.5	4	-1E+10	1	-1E+10	1	-1E+10	1	-1E+10	1	-1E+10	1	-1E+10	1
4902643	43	C	08/25/2025	01:16	-132.763	43.522	0	3665.60	0	1.5510	0	34.6690	4	27.761	0	3605.130	0	105.5	4	31.5	4	-1E+10	1	-1E+10	1	-1E+10	1	-1E+10	1	-1E+10	1	-1E+10	1
4902643	43	C	08/25/2025	01:16	-132.763	43.522	0	3666.70	0	1.5510	0	34.6690	4	27.761	0	3606.203	0	105.5	4	31.5	4	-1E+10	1	-1E+10	1	-1E+10	1	-1E+10	1	-1E+10	1	-1E+10	1
4902643	43	C	08/25/2025	01:16	-132.763	43.522	0	3667.50	0	1.5510	0	34.6690	4	27.761	0	3606.983	0	105.5	4	31.5	4	-1E+10	1	-1E+10	1	-1E+10	1	-1E+10	1	-1E+10	1	-1E+10	1
4902643	43	C	08/25/2025	01:16	-132.763	43.522	0	3668.60	0	1.5510	0	34.6690	4	27.761	0	3608.056	0	105.5	4	31.5	4	-1E+10	1	-1E+10	1	-1E+10	1	-1E+10	1	-1E+10	1	-1E+10	1
4902643	43	C	08/25/2025	01:16	-132.763	43.522	0	3669.60	0	1.5520	0	34.6690	4	27.761	0	3609.031	0	105.5	4	31.5	4	-1E+10	1	-1E+10	1	-1E+10	1	-1E+10	1	-1E+10	1	-1E+10	1
4902643	43	C	08/25/2025	01:16	-132.763	43.522	0	3670.30	0	1.5510	0	34.6690	4	27.761	0	3609.714	0	105.5	4	31.5	4	-1E+10	1	-1E+10	1	-1E+10	1	-1E+10	1	-1E+10	1	-1E+10	1
4902643	43	C	08/25/2025	01:16	-132.763	43.522	0	3671.40	0	1.5520	0	34.6690	4	27.761	0	3610.786	0	105.5	4	31.5	4	-1E+10	1	-1E+10	1	-1E+10	1	-1E+10	1	-1E+10	1	-1E+10	1
4902643	43	C	08/25/2025	01:16	-132.763	43.522	0	3672.60	0	1.5520	0	34.6690	4	27.761	0	3611.957	0	105.5	4	31.5	4	-1E+10	1	-1E+10	1	-1E+10	1	-1E+10	1	-1E+10	1	-1E+10	1
4902643	43	C	08/25/2025	01:16	-132.763	43.522	0	3673.60	0	1.5520	0	34.6680	4	27.760	0	3612.932	0	105.5	4	31.5	4	-1E+10	1	-1E+10	1	-1E+10	1	-1E+10	1	-1E+10	1	-1E+10	1
4902643	43	C	08/25/2025	01:16	-132.763	43.522	0																										
4902643	44	C	09/04/2025	01:26	-132.737	43.511	0	1.90	0	20.7835	0	32.4760	0	22.633	0	1.885	0	212.1	4	93.8	4	-1E+10	1	-1E+10	1	-1E+10	1	-1E+10	1	-1E+10	1	-1E+10	1
4902643	44	C	09/04/2025	01:26	-132.737	43.511	0	2.10	0	20.7850	0	32.4750	0	22.632	0	2.083	0	211.7	4	93.6	4	-1E+10	1	-1E+10	1	-1E+10	1	-1E+10	1	-1E+10	1	-1E+10	1
4902643	44	C	09/04/2025	01:26	-132.737	43.511	0	2.20	0	20.7850	0	32.4750	0	22.632	0	2.182	0	212.1	4	93.8	4	-1E+10	1	-1E+10	1	-1E+10	1	-1E+10	1	-1E+10	1	-1E+10	1
4902643	44	C	09/04/2025	01:26	-132.737	43.511	0	2.30	0	20.7830	0	32.4770	0	22.634	0	2.282	0	212.0	4	93.7	4	-1E+10	1	-1E+10	1	-1E+10	1	-1E+10	1	-1E+10	1	-1E+10	1
4902643	44	C	09/04/2025	01:26	-132.737	43.511	0	2.40	0	20.7880	0	32.4750	0	22.631	0	2.381	0	212.1	4	93.8	4	-1E+10	1	-1E+10	1	-1E+10	1	-1E+10	1	-1E+10	1	-1E+10	1
4902643	44	C	09/04/2025	01:26	-132.737	43.511	0	2.50	0	20.7860	0	32.4740	0	22.631	0	2.480	0	212.0	4	93.7	4	-1E+10	1	-1E+10	1	-1E+10	1	-1E+10	1	-1E+10	1	-1E+10	1
4902643	44	C	09/04/2025	01:26	-132.737	43.511	0	2.60	0	20.7890	0	32.4730	0	22.629	0	2.579	0	211.7	4	93.6	4	-1E+10	1	-1E+10	1	-1E+10	1	-1E+10	1	-1E+10	1	-1E+10	1
4902643	44	C	09/04/2025	01:26	-132.737	43.511	0	2.70	0	20.7880	0	32.4730	0	22.630	0	2.678	0	-1e10	1	-1e10	1	-1E+10	1	-1E+10	1	-1E+10	1	-1E+10	1	-1E+10	1	-1E+10	1
4902643	44	C	09/04/2025	01:26	-132.737	43.511	0	3.00	0	20.7860	0	32.4730	0	22.630	0	2.976	0	212.0	4	93.8	4	-1E+10	1	-1E+10	1	-1E+10	1	-1E+10	1	-1E+10	1	-1E+10	1
4902643	44	C	09/04/2025	01:26	-132.737	43.511	0	3.40	0	20.7840	0	32.4590	0	22.620	0	3.373	0	211.7	4	93.6	4	-1E+10	1	-1E+10	1	-1E+10	1	-1E+10	1	-1E+10	1	-1E+10	1
4902643	44	C	09/04/2025	01:26	-132.737	43.511	0	4.40	0	20.7830	0	32.4690	0	22.628	0	4.365	0	211.7	4	93.6	4	-1E+10	1	-1E+10	1	-1E+10	1	-1E+10	1	-1E+10	1	-1E+10	1
4902643	44	C	09/04/2025	01:26	-132.737	43.511	0	5.40	0	20.7610	0	32.4720	0	22.636	0	5.357	0	211.9	4	93.6	4	-1E+10	1	-1E+10	1	-1E+10	1	-1E+10	1	-1E+10	1	-1E+10	1
4902643	44	C	09/04/2025	01:26	-132.737	43.511	0	6.70	0	20.7110	0	32.4690	0	22.647	0	6.646	0	211.8	4	93.5	4	-1E+10	1	-1E+10	1	-1E+10	1	-1E+10	1	-1E+10	1	-1E+10	1
4902643	44	C	09/04/2025	01:26	-132.737	43.511	0	7.60	0	20.6450	0	32.4920	0	22.682	0	7.539	0	211.8	4	93.5	4	-1E+10	1	-1E+10	1	-1E+10	1	-1E+10	1	-1E+10	1	-1E+10	1
4902643	44	C	09/04/2025	01:26	-132.737	43.511	0	8.60	0	20.5840	0	32.4670	0	22.679	0	8.531	0	212.1	4	93.5	4	-1E+10	1	-1E+10	1	-1E+10	1	-1E+10	1	-1E+10	1	-1E+10	1
4902643	44	C	09/04/2025	01:26	-132.737	43.511	0	9.80	0	20.5230	0	32.4650	0	22.694	0	9.722	0	212.5	4	93.5	4	-1E+10	1	-1E+10	1	-1E+10	1	-1E+10	1	-1E+10	1	-1E+10	1
4902643	44	C	09/04/2025	01:26	-132.737	43.511	0	15.00	0	20.4390	0	32.4620	0	22.714	0	14.880	0	214.1	4	94.1	4	-1E+10	1	-1E+10	1	-1E+10	1	-1E+10	1	-1E+10	1	-1E+10	1
4902643	44	C	09/04/2025	01:26	-132.737	43.511	0	25.30	0	19.7640	0	32.4540	0	22.884	0	25.097	0	221.8	4	96.3	4	-1E+10	1	-1E+10	1	-1E+10	1	-1E+10	1	-1E+10	1	-1E+10	1
4902643	44	C	09/04/2025	01:26	-132.737	43.511	0	35.10	0	17.8340	0	32.4670	0	23.376	0	34.817	0	241.2	4	101.0	4	-1E+10	1	-1E+10	1	-1E+10	1	-1E+10	1	-1E+10	1	-1E+10	1
4902643	44	C	09/04/2025	01:26	-132.737	43.511	0	44.50	0	14.4610	0	32.5520	0	24.202	0	44.140	0	263.1	4	103.3	4	-1E+10	1	-1E+10	1	-1E+10	1	-1E+10	1	-1E+10	1	-1E+10	1
4902643	44	C	09/04/2025	01:26	-132.737	43.511	0	55.00	0	12.5320	0	32.5600	0	24.596	0	54.554	0	262.0	4	98.9	4	-1E+10	1	-1E+10	1	-1E+10	1	-1E+10	1	-1E+10	1	-1E+10	1
4902643	44	C	09/04/2025	01:26	-132.737	43.511	0	64.80	0	11.4340	0	32.6020	0	24.833	0	64.273	0	249.1	4	91.9	4	-1E+10	1	-1E+10	1	-1E+10	1	-1E+10	1	-1E+10	1	-1E+10	1
4902643	44	C	09/04/2025	01:26	-132.737	43.511	0	74.70	0	10.5820	0	32.6330	0	25.008	0	74.090	0	246.1	4	89.2	4	-1E+10	1	-1E+10	1	-1E+10	1	-1E+10	1	-1E+10	1	-1E+10	1
4902643	44	C	09/04/2025	01:26	-132.737	43.511	0	84.50	0	10.1840	0	32.6320	0	25.075	0	83.808	0	243.5	4	87.5	4	-1E+10	1	-1E+10	1	-1E+10	1	-1E+10	1	-1E+10	1	-1E+10	1
4902643	44	C	09/04/2025	01:26	-132.737	43.511	0	94.60	0	9.8660	0	32.6160	0	25.115	0	93.823	0	239.0	4	85.3	4	-1E+10	1	-1E+10	1	-1E+10	1	-1E+10	1	-1E+10	1	-1E+10	1
4902643	44	C	09/04/2025	01:26	-132.737	43.511	0	105.10	0	9.6660	0	32.6980	0	25.212	0	104.235	0	228.4	4	81.2	4	-1E+10	1	-1E+10	1	-1E+10	1	-1E+10	1	-1E+10	1	-1E+10	1
4902643	44	C	09/04/2025	01:26	-132.737	43.511	0	114.50	0	9.4860	0	32.9330	0	25.425	0	113.555	0	218.5	4	77.5	4	-1E+10	1	-1E+10	1	-1E+10	1	-1E+10	1	-1E+10	1	-1E+10	1
4902643	44	C	09/04/2025	01:26	-132.737	43.511	0	125.00	0	9.2450	0	33.1810	0	25.658	0	123.965	0	211.8	4	74.9	4	-1E+10	1	-1E+10	1	-1E+10	1	-1E+10	1	-1E+10	1	-1E+10	1
4902643	44	C	09/04/2025	01:26	-132.737	43.511	0	134.80	0	9.0960	0	33.3130	0	25.785	0	133.680	0	206.0	4	72.7	4	-1E+10	1	-1E+10	1	-1E+10	1	-1E+10	1	-1E+10	1	-1E+10	1
4902643	44	C	09/04/2025	01:26	-132.737	43.511	0	144.90	0	8.9600	0	33.4870	0	25.942	0	143.693	0	200.1	4	70.5	4	-1E+10	1	-1E+10	1	-1E+10	1	-1E+10	1	-1E+10	1	-1E+10	1
4902643	44	C	09/04/2025	01:26	-132.737	43.511	0	154.70	0	8.8310	0	33.6150	0	26.063	0	153.408	0	195.4	4	68.7	4	-1E+10	1	-1E+10	1	-1E+10	1	-1E+10	1	-1E+10	1	-1E+10	1
4902643	44	C	09/04/2025	01:26	-132.737	43.511	0	164.80	0	8.7010	0	33.6930	0	26.144	0	163.419	0	191.7	4	67.2	4	-1E+10	1	-1E+10	1	-1E+10	1	-1E+10	1	-1E+10	1	-1E+10	1
4902643	44	C	09/04/2025	01:26	-132.737	43.511	0	175.10	0	8.4940	0	33.7630	0	26.231	0	173.629	0	187.8	4	65.6	4	-1E+10	1	-1E+10	1	-1E+10	1	-1E+10	1	-1E+10	1	-1E+10	1
4902643	44	C	09/04/2025	01:26	-132.737	43.511	0	184.80	0	8.2100	0	33.8070	0	26.309	0	183.243	0	184.4	4	64.0	4	-1E+10	1	-1E+10	1	-1E+10	1	-1E+10	1	-1E+10	1	-1E+10	1
4902643	44	C	09/04/2025	01:26	-132.737	43.511	0	194.60	0	7.9630	0	33.8280	0	26.362	0	192.956	0	181.1	4	62.5	4	-1E+10	1	-1E+10	1	-1E+10	1	-1E+10	1	-1E+10	1	-1E+10	1
4902643	44	C	09/04/2025	01:26	-132.737	43.511	0	209.90	0	7.6270	0	33.8440	0	26.423	0	208.119	0	176.3	4	60.4	4	-1E+10	1	-1E+10	1	-1E+10	1	-1E+10	1	-1E+10	1	-1E+10	1
4902643	44	C	09/04/2025	01:26	-132.737	43.511	0	229.10	0	7.3810	0	33.8480	0	26.462	0	227.146	0	170.6	4	58.2	4	-1E+10	1	-1E+10	1	-1E+10	1	-1E+10	1	-1E+10	1	-1E+10	1
4902643	44	C	09/04/2025	01:26	-132.737	43.511	0	249.60	0	7.1260	0	33.8490	0	26.498	0	247.458	0	160.3	4	54.3	4	-1E+10	1	-1E+10	1	-1E+10	1	-1E+10	1	-1E+10	1	-1E+10	1
4902643	44	C	09/04/2025	01:26	-132.737	43.511	0	269.90	0	6.7770	0	33.8490	0	26.546	0	267.571	0	147.1	4	49.4	4	-1E+10	1	-1E+10	1	-1E+10	1	-1E+10	1	-1E+10	1	-1E+10	1
4902643	44	C	09/04/2025	01:26	-132.737	43.511	0	290.10	0	6.4180	0	33.8470	0	26.592	0	287.583	0	134.9	4	45.0	4	-1E+10	1	-1E+10	1	-1E+10	1	-1E+10	1	-1E+10	1	-1E+10	1
4902643	44	C	09/04/2025	01:26	-132.737	43.511	0	309.80	0	6.1960	0	33.8480	0	26.621	0	307.097	0	124.4	4	41.3	4	-1E+10	1	-1E+10	1	-1E+10	1	-1E+10	1	-1E+10	1	-1E+10	1
4902643	44	C	09/04/2025	01:26	-132.737	43.511	0	330.20	0	5.9170	0	33.8530	0	26.660	0	327.303	0	111.4	4	36.7	4	-1E+10	1	-1E+10	1	-1E+10	1	-1E+10	1	-1E+10	1	-1E+10	1
4902643	44	C	09/04/2025	01:26	-132.737	43.511	0	349.30	0	5.6940	0	33.8600	0	26.693	0	346.220	0	101.7	4	33.4	4	-1E+10	1	-1E+10	1	-1E+10	1	-1E+10	1	-1E+10	1	-1E+10	1
4902643	44	C	09/04/2025	01:26	-132.737	43.511	0	369.80	0	5.4780	0	33.8720	0	26.729	0	366.521	0	91.6	4	29.9	4	-1E+10	1	-1E+10	1	-1E+10	1	-1E+10	1	-1E+10	1	-1E+10	1
4902643	44	C	09/04/2025	01:26	-132.737	43.511	0	390.00	0	5.3410	0	33.8820	0	26.753	0	386.523	0	83.7	4	27.2	4	-1E+10	1	-1E+10	1	-1E+10	1	-1E+10	1	-1E+10	1	-1E+10	1
4902643	44	C	09/04/2025	01:26	-132.737	43.511	0	409.60	0	5.1820	0	33.8980	0	26.785	0	405.929	0	77.6	4	25.1	4	-1E+10	1	-1E+10	1	-1E+10	1	-1E+10	1	-1E+10	1	-1E+10	1
4902643	44	C	09/04/2025	01:26	-132.737	43.511	0	429.70	0	5.0080	0	33.9070	0	26.812	0	425.828	0	73.0	4	23.6	4	-1E+10	1	-1E+10	1	-1E+10	1	-1E+10	1	-1E+10	1	-1E+10	1
4902643	44	C	09/04/2025	01:26	-132.737	43.511	0	449.80	0	4.8970	0	33.9190	0	26.834	0	445.725	0	67.4	4	21.7	4	-1E+10	1	-1E+10	1	-1E+10	1	-1E+10	1	-1E+10	1	-1E+10	1
4902643	44	C	09/04/2025	01:26	-132.737	43.511	0	470.20	0	4.7730	0	33.9400	0	26.865	0	465.918	0	60.6	4	19.5	4	-1E+10	1	-1E+10	1	-1E+10	1	-1E+10	1	-1E+10	1	-1E+10	1
4902643	44	C	09/04/2025	01:26	-132.737	43.511	0	489.80	0	4.7050	0	33.9660	0	26.893	0	485.316	0	53.7	4	17.2	4	-1E+10	1	-1E+10	1	-1E+10	1	-1E+10	1	-1E+10	1	-1E+10	1
4902643	44	C	09/04/2025	01:26	-132.737	43.511	0	509.90	0	4.6510	0	33.9930	0	26.920	0	505.208	0	47.1	4	15.1	4	-1E+10	1	-1E+10	1	-1E+10	1	-1E+10	1	-1E+10	1	-1E+10	1
4902643	44	C	09/04/2025	01:26	-132.737	43.511	0	530.00	0	4.6100	0	34.0190	0	26.946	0	525.098	0	41.1	4	13.1	4	-1E+10	1	-1E+10	1	-1E+10	1	-1E+10	1	-1E+10	1	-1E+10	1
4902643	44	C	09/04/2025	01:26	-132.737	43.511	0	549.80	0	4.5460	0	34.0420	0	26.971	0	544.688	0	36.8	4	11.7	4	-1E+10	1	-1E+10	1	-1E+10	1	-1E+10	1	-1E+10	1	-1E+10	1
4902643	44	C	09/04/2025	01:26	-132.737	43.511	0	569.70	0	4.4820	0	34.0570	0	26.990	0	564.377	0	33.4	4	10.6	4	-1E+10	1	-1E+10	1	-1E+10	1	-1E+10	1	-1E+10	1	-1E+10	1
4902643	44	C	09/04/2025	01:26	-132.737	43.511	0	589.10	0	4.3900	0	34.0770	0	27.016	0	583.568	0	28.9	4	9.2	4	-1E+10	1	-1E+10	1	-1E+10	1	-1E+10	1	-1E+10	1	-1E+10	1
4902643	44	C	09/04/2025	01:26	-132.737	43.511	0	609.70	0	4.3300	0	34.0990	0	27.040	0	603.945	0	25.4	4	8.1	4	-1E+10	1	-1E+10	1	-1E+10	1	-1E+10	1	-1E+10	1	-1E+10	1
4902643	44	C	09/04/2025	01:26	-132.737	43.511	0	629.40	0	4.2660	0	34.1180	0	27.062	0	623.429	0	21.2	4	6.7	4	-1E+10	1	-1E+10	1	-1E+10	1	-1E+10	1	-1E+10	1	-1E+10	1
4902643	44	C	09/04/2025	01:26	-132.737	43.511	0	649.20	0	4.2800	0	34.1530	0	27.088	0	643.011	0	16.3	4	5.2	4	-1E+10	1	-1E+10	1	-1E+10	1	-1E+10	1	-1E+10	1	-1E+10	1
4902643	44	C	09/04/2025	01:26	-132.737	43.511	0	669.80	0	4.2440	0	34.1740	0	27.109	0	663.382	0	14.2	4	4.5	4	-1E+10	1	-1E+10	1	-1E+10	1	-1E+10	1	-1E+10	1	-1E+10	1
4902643	44	C	09/04/2025	01:26	-132.737	43.511	0	689.80	0	4.1550	0	34.1900	0	27.131	0	683.157	0	12.7	4	4.0	4	-1E+10	1	-1E+10	1	-1E+10	1	-1E+10	1	-1E+10	1	-1E+10	1
4902643	44	C	09/04/2025	01:26	-132.737	43.511	0	709.70	0	4.1260	0	34.2090	0	27.149	0	702.832	0	11.4	4	3.6	4	-1E+10	1	-1E+10	1	-1E+10	1	-1E+10	1	-1E+10	1	-1E+10	1
4902643	44	C	09/04/2025	01:26	-132.737	43.511	0	729.80	0	4.0520	0	34.2180	0	27.164	0	722.703	0	10.9	4	3.4	4	-1E+10	1	-1E+10	1	-1E+10	1	-1E+10	1	-1E+10	1	-1E+10	1
4902643	44	C	09/04/2025	01:26	-132.737	43.511	0	750.20	0	3.9750	0	34.2320	0	27.183	0	742.868	0	9.7	4	3.1	4	-1E+10	1	-1E+10	1	-1E+10	1	-1E+10	1	-1E+10	1	-1E+10	1
4902643	44	C	09/04/2025	01:26	-132.737	43.511	0	770.00	0	3.9470	0	34.2510	0	27.202	0	762.438	0	9.2	4	2.9	4	-1E+10	1	-1E+10	1	-1E+10	1	-1E+10	1	-1E+10	1	-1E+10	1
4902643	44	C	09/04/2025	01:26	-132.737	43.511	0	790.20	0	3.8150	0	34.2510	0	27.215	0	782.402	0	9.0	4	2.8	4	-1E+10	1	-1E+10	1	-1E+10	1	-1E+10	1	-1E+10	1	-1E+10	1
4902643	44	C	09/04/2025	01:26	-132.737	43.511	0	809.50	0	3.7610	0	34.2660	0	27.232	0	801.475	0	8.3	4	2.6	4	-1E+10	1	-1E+10	1	-1E+10	1	-1E+10	1	-1E+10	1	-1E+10	1
4902643	44	C	09/04/2025	01:26	-132.737	43.511	0	830.00	0	3.7150	0	34.2820	0	27.250	0	821.731	0	7.7	4	2.4	4	-1E+10	1	-1E+10	1	-1E+10	1	-1E+10	1	-1E+10	1	-1E+10	1
4902643	44	C	09/04/2025	01:26	-132.737	43.511	0	849.70	0	3.6760	0	34.2970	0	27.266	0	841.195	0	7.2	4	2.2	4	-1E+10	1	-1E+10	1	-1E+10	1	-1E+10	1	-1E+10	1	-1E+10	1
4902643	44	C	09/04/2025	01:26	-132.737	43.511	0	869.90	0	3.6590	0	34.3100	0	27.278	0	861.152	0	6.7	4	2.1	4	-1E+10	1	-1E+10	1	-1E+10	1	-1E+10	1	-1E+10	1	-1E+10	1
4902643	44	C	09/04/2025	01:26	-132.737	43.511	0	889.90	0	3.6320	0	34.3220	0	27.290	0	880.908	0	6.5	4	2.0	4	-1E+10	1	-1E+10	1	-1E+10	1	-1E+10	1	-1E+10	1	-1E+10	1
4902643	44	C	09/04/2025	01:26	-132.737	43.511	0	909.70	0	3.5960	0	34.3330	0	27.303	0	900.466	0	6.4	4	2.0	4	-1E+10	1	-1E+10	1	-1E+10	1	-1E+10	1	-1E+10	1	-1E+10	1
4902643	44	C	09/04/2025	01:26	-132.737	43.511	0	929.40	0	3.5700	0	34.3430	0	27.313	0	919.923	0	6.4	4	2.0	4	-1E+10	1	-1E+10	1	-1E+10	1	-1E+10	1	-1E+10	1	-1E+10	1
4902643	44	C	09/04/2025	01:26	-132.737	43.511	0	949.30	0	3.5320	0	34.3520	0	27.324	0	939.575	0	6.5	4	2.0	4	-1E+10	1	-1E+10	1	-1E+10	1	-1E+10	1	-1E+10	1	-1E+10	1
4902643	44	C	09/04/2025	01:26	-132.737	43.511	0	969.60	0	3.4960	0	34.3620	0	27.336	0	959.620	0	6.6	4	2.1	4	-1E+10	1	-1E+10	1	-1E+10	1	-1E+10	1	-1E+10	1	-1E+10	1
4902643	44	C	09/04/2025	01:26	-132.737	43.511	0	990.30	0	3.4560	0	34.3730	0	27.349	0	980.059	0	6.7	4	2.1	4	-1E+10	1	-1E+10	1	-1E+10	1	-1E+10	1	-1E+10	1	-1E+10	1
4902643	44	C	09/04/2025	01:26	-132.737	43.511	0	1009.80	0	3.4250	0	34.3810	0	27.358	0	999.311	0	7.0	4	2.2	4	-1E+10	1	-1E+10	1	-1E+10	1	-1E+10	1	-1E+10	1	-1E+10	1
4902643	44	C	09/04/2025	01:26	-132.737	43.511	0	1029.70	0	3.3910	0	34.3900	0	27.369	0	1018.956	0	7.2	4	2.2	4	-1E+10	1	-1E+10	1	-1E+10	1	-1E+10	1	-1E+10	1	-1E+10	1
4902643	44	C	09/04/2025	01:26	-132.737	43.511	0	1049.70	0	3.3630	0	34.3960	0	27.376	0	1038.698	0	7.5	4	2.3	4	-1E+10	1	-1E+10	1	-1E+10	1	-1E+10	1	-1E+10	1	-1E+10	1
4902643	44	C	09/04/2025	01:26	-132.737	43.511	0	1069.70	0	3.3340	0	34.4050	0	27.386	0	1058.438	0	7.9	4	2.5	4	-1E+10	1	-1E+10	1	-1E+10	1	-1E+10	1	-1E+10	1	-1E+10	1
4902643	44	C	09/04/2025	01:26	-132.737	43.511	0	1089.50	0	3.3020	0	34.4130	0	27.396	0	1077.978	0	8.3	4	2.6	4	-1E+10	1	-1E+10	1	-1E+10	1	-1E+10	1	-1E+10	1	-1E+10	1
4902643	44	C	09/04/2025	01:26	-132.737	43.511	0	1109.80	0	3.2670	0	34.4200	0	27.405	0	1098.011	0	8.9	4	2.8	4	-1E+10	1	-1E+10	1	-1E+10	1	-1E+10	1	-1E+10	1	-1E+10	1
4902643	44	C	09/04/2025	01:26	-132.737	43.511	0	1130.30	0	3.2310	0	34.4280	0	27.415	0	1118.238	0	9.5	4	2.9	4	-1E+10	1	-1E+10	1	-1E+10	1	-1E+10	1	-1E+10	1	-1E+10	1
4902643	44	C	09/04/2025	01:26	-132.737	43.511	0	1149.60	0	3.2020	0	34.4340	0	27.422	0	1137.280	0	10.1	4	3.1	4	-1E+10	1	-1E+10	1	-1E+10	1	-1E+10	1	-1E+10	1	-1E+10	1
4902643	44	C	09/04/2025	01:26	-132.737	43.511	0	1169.60	0	3.1600	0	34.4420	0	27.433	0	1157.011	0	10.8	4	3.3	4	-1E+10	1	-1E+10	1	-1E+10	1	-1E+10	1	-1E+10	1	-1E+10	1
4902643	44	C	09/04/2025	01:26	-132.737	43.511	0	1189.60	0	3.1200	0	34.4480	0	27.441	0	1176.739	0	11.4	4	3.5	4	-1E+10	1	-1E+10	1	-1E+10	1	-1E+10	1	-1E+10	1	-1E+10	1
4902643	44	C	09/04/2025	01:26	-132.737	43.511	0	1209.70	0	3.0850	0	34.4530	0	27.448	0	1196.565	0	12.1	4	3.7	4	-1E+10	1	-1E+10	1	-1E+10	1	-1E+10	1	-1E+10	1	-1E+10	1
4902643	44	C	09/04/2025	01:26	-132.737	43.511	0	1229.90	0	3.0350	0	34.4610	0	27.460	0	1216.487	0	12.9	4	4.0	4	-1E+10	1	-1E+10	1	-1E+10	1	-1E+10	1	-1E+10	1	-1E+10	1
4902643	44	C	09/04/2025	01:26	-132.737	43.511	0	1249.90	0	2.9990	0	34.4660	0	27.467	0	1236.210	0	13.6	4	4.2	4	-1E+10	1	-1E+10	1	-1E+10	1	-1E+10	1	-1E+10	1	-1E+10	1
4902643	44	C	09/04/2025	01:26	-132.737	43.511	0	1269.80	0	2.9610	0	34.4710	0	27.474	0	1255.833	0	14.3	4	4.4	4	-1E+10	1	-1E+10	1	-1E+10	1	-1E+10	1	-1E+10	1	-1E+10	1
4902643	44	C	09/04/2025	01:26	-132.737	43.511	0	1289.80	0	2.9210	0	34.4750	0	27.481	0	1275.553	0	15.0	4	4.6	4	-1E+10	1	-1E+10	1	-1E+10	1	-1E+10	1	-1E+10	1	-1E+10	1
4902643	44	C	09/04/2025	01:26	-132.737	43.511	0	1309.60	0	2.8760	0	34.4810	0	27.490	0	1295.073	0	15.9	4	4.9	4	-1E+10	1	-1E+10	1	-1E+10	1	-1E+10	1	-1E+10	1	-1E+10	1
4902643	44	C	09/04/2025	01:26	-132.737	43.511	0	1329.70	0	2.8370	0	34.4850	0	27.497	0	1314.887	0	16.5	4	5.1	4	-1E+10	1	-1E+10	1	-1E+10	1	-1E+10	1	-1E+10	1	-1E+10	1
4902643	44	C	09/04/2025	01:26	-132.737	43.511	0	1350.40	0	2.8060	0	34.4880	0	27.502	0	1335.291	0	17.4	4	5.3	4	-1E+10	1	-1E+10	1	-1E+10	1	-1E+10	1	-1E+10	1	-1E+10	1
4902643	44	C	09/04/2025	01:26	-132.737	43.511	0	1369.50	0	2.7830	0	34.4930	0	27.508	0	1354.116	0	18.4	4	5.7	4	-1E+10	1	-1E+10	1	-1E+10	1	-1E+10	1	-1E+10	1	-1E+10	1
4902643	44	C	09/04/2025	01:26	-132.737	43.511	0	1389.80	0	2.7390	0	34.4980	0	27.516	0	1374.122	0	19.4	4	6.0	4	-1E+10	1	-1E+10	1	-1E+10	1	-1E+10	1	-1E+10	1	-1E+10	1
4902643	44	C	09/04/2025	01:26	-132.737	43.511	0	1410.40	0	2.6930	0	34.5020	0	27.523	0	1394.422	0	20.5	4	6.3	4	-1E+10	1	-1E+10	1	-1E+10	1	-1E+10	1	-1E+10	1	-1E+10	1
4902643	44	C	09/04/2025	01:26	-132.737	43.511	0	1429.60	0	2.6520	0	34.5070	0	27.531	0	1413.340	0	21.6	4	6.6	4	-1E+10	1	-1E+10	1	-1E+10	1	-1E+10	1	-1E+10	1	-1E+10	1
4902643	44	C	09/04/2025	01:26	-132.737	43.511	0	1449.60	0	2.6210	0	34.5110	0	27.537	0	1433.045	0	22.5	4	6.9	4	-1E+10	1	-1E+10	1	-1E+10	1	-1E+10	1	-1E+10	1	-1E+10	1
4902643	44	C	09/04/2025	01:26	-132.737	43.511	0	1469.70	0	2.5960	0	34.5130	0	27.541	0	1452.846	0	23.3	4	7.1	4	-1E+10	1	-1E+10	1	-1E+10	1	-1E+10	1	-1E+10	1	-1E+10	1
4902643	44	C	09/04/2025	01:26	-132.737	43.511	0	1490.00	0	2.5580	0	34.5170	0	27.547	0	1472.842	0	24.5	4	7.5	4	-1E+10	1	-1E+10	1	-1E+10	1	-1E+10	1	-1E+10	1	-1E+10	1
4902643	44	C	09/04/2025	01:26	-132.737	43.511	0	1509.80	0	2.5230	0	34.5210	0	27.554	0	1492.345	0	25.8	4	7.9	4	-1E+10	1	-1E+10	1	-1E+10	1	-1E+10	1	-1E+10	1	-1E+10	1
4902643	44	C	09/04/2025	01:26	-132.737	43.511	0	1530.30	0	2.4850	0	34.5260	0	27.561	0	1512.534	0	27.0	4	8.2	4	-1E+10	1	-1E+10	1	-1E+10	1	-1E+10	1	-1E+10	1	-1E+10	1
4902643	44	C	09/04/2025	01:26	-132.737	43.511	0	1549.80	0	2.4500	0	34.5290	0	27.566	0	1531.737	0	27.8	4	8.5	4	-1E+10	1	-1E+10	1	-1E+10	1	-1E+10	1	-1E+10	1	-1E+10	1
4902643	44	C	09/04/2025	01:26	-132.737	43.511	0	1570.00	0	2.4120	0	34.5320	0	27.572	0	1551.628	0	28.9	4	8.8	4	-1E+10	1	-1E+10	1	-1E+10	1	-1E+10	1	-1E+10	1	-1E+10	1
4902643	44	C	09/04/2025	01:26	-132.737	43.511	0	1590.10	0	2.3840	0	34.5350	0	27.577	0	1571.418	0	29.7	4	9.0	4	-1E+10	1	-1E+10	1	-1E+10	1	-1E+10	1	-1E+10	1	-1E+10	1
4902643	44	C	09/04/2025	01:26	-132.737	43.511	0	1609.90	0	2.3630	0	34.5380	0	27.581	0	1590.911	0	30.7	4	9.3	4	-1E+10	1	-1E+10	1	-1E+10	1	-1E+10	1	-1E+10	1	-1E+10	1
4902643	44	C	09/04/2025	01:26	-132.737	43.511	0	1629.80	0	2.3360	0	34.5410	0	27.586	0	1610.501	0	31.7	4	9.6	4	-1E+10	1	-1E+10	1	-1E+10	1	-1E+10	1	-1E+10	1	-1E+10	1
4902643	44	C	09/04/2025	01:26	-132.737	43.511	0	1649.80	0	2.3150	0	34.5430	0	27.589	0	1630.187	0	32.7	4	9.9	4	-1E+10	1	-1E+10	1	-1E+10	1	-1E+10	1	-1E+10	1	-1E+10	1
4902643	44	C	09/04/2025	01:26	-132.737	43.511	0	1669.90	0	2.2920	0	34.5460	0	27.594	0	1649.970	0	33.6	4	10.2	4	-1E+10	1	-1E+10	1	-1E+10	1	-1E+10	1	-1E+10	1	-1E+10	1
4902643	44	C	09/04/2025	01:26	-132.737	43.511	0	1689.70	0	2.2730	0	34.5490	0	27.598	0	1669.456	0	34.6	4	10.5	4	-1E+10	1	-1E+10	1	-1E+10	1	-1E+10	1	-1E+10	1	-1E+10	1
4902643	44	C	09/04/2025	01:26	-132.737	43.511	0	1709.40	0	2.2480	0	34.5520	0	27.602	0	1688.841	0	36.1	4	10.9	4	-1E+10	1	-1E+10	1	-1E+10	1	-1E+10	1	-1E+10	1	-1E+10	1
4902643	44	C	09/04/2025	01:26	-132.737	43.511	0	1729.70	0	2.2210	0	34.5560	0	27.608	0	1708.815	0	37.7	4	11.4	4	-1E+10	1	-1E+10	1	-1E+10	1	-1E+10	1	-1E+10	1	-1E+10	1
4902643	44	C	09/04/2025	01:26	-132.737	43.511	0	1750.10	0	2.1960	0	34.5600	0	27.613	0	1728.886	0	39.0	4	11.8	4	-1E+10	1	-1E+10	1	-1E+10	1	-1E+10	1	-1E+10	1	-1E+10	1
4902643	44	C	09/04/2025	01:26	-132.737	43.511	0	1769.70	0	2.1810	0	34.5630	0	27.617	0	1748.168	0	40.2	4	12.2	4	-1E+10	1	-1E+10	1	-1E+10	1	-1E+10	1	-1E+10	1	-1E+10	1
4902643	44	C	09/04/2025	01:26	-132.737	43.511	0	1789.70	0	2.1610	0	34.5670	0	27.622	0	1767.841	0	41.5	4	12.6	4	-1E+10	1	-1E+10	1	-1E+10	1	-1E+10	1	-1E+10	1	-1E+10	1
4902643	44	C	09/04/2025	01:26	-132.737	43.511	0	1810.10	0	2.1420	0	34.5700	0	27.626	0	1787.906	0	43.0	4	13.0	4	-1E+10	1	-1E+10	1	-1E+10	1	-1E+10	1	-1E+10	1	-1E+10	1
4902643	44	C	09/04/2025	01:26	-132.737	43.511	0	1829.70	0	2.1180	0	34.5740	0	27.631	0	1807.183	0	44.5	4	13.4	4	-1E+10	1	-1E+10	1	-1E+10	1	-1E+10	1	-1E+10	1	-1E+10	1
4902643	44	C	09/04/2025	01:26	-132.737	43.511	0	1849.50	0	2.0890	0	34.5770	0	27.636	0	1826.654	0	46.0	4	13.9	4	-1E+10	1	-1E+10	1	-1E+10	1	-1E+10	1	-1E+10	1	-1E+10	1
4902643	44	C	09/04/2025	01:26	-132.737	43.511	0	1869.70	0	2.0720	0	34.5800	0	27.640	0	1846.517	0	47.4	4	14.3	4	-1E+10	1	-1E+10	1	-1E+10	1	-1E+10	1	-1E+10	1	-1E+10	1
4902643	44	C	09/04/2025	01:26	-132.737	43.511	0	1889.50	0	2.0510	0	34.5830	0	27.644	0	1865.984	0	48.7	4	14.7	4	-1E+10	1	-1E+10	1	-1E+10	1	-1E+10	1	-1E+10	1	-1E+10	1
4902643	44	C	09/04/2025	01:26	-132.737	43.511	0	1910.20	0	2.0310	0	34.5860	0	27.648	0	1886.335	0	49.9	4	15.1	4	-1E+10	1	-1E+10	1	-1E+10	1	-1E+10	1	-1E+10	1	-1E+10	1
4902643	44	C	09/04/2025	01:26	-132.737	43.511	0	1929.50	0	2.0170	0	34.5880	0	27.651	0	1905.308	0	51.0	4	15.4	4	-1E+10	1	-1E+10	1	-1E+10	1	-1E+10	1	-1E+10	1	-1E+10	1
4902643	44	C	09/04/2025	01:26	-132.737	43.511	0	1949.70	0	2.0000	0	34.5910	0	27.654	0	1925.163	0	52.1	4	15.7	4	-1E+10	1	-1E+10	1	-1E+10	1	-1E+10	1	-1E+10	1	-1E+10	1
4902643	44	C	09/04/2025	01:26	-132.737	43.511	0	1969.80	0	1.9850	0	34.5930	0	27.657	0	1944.918	0	53.2	4	16.0	4	-1E+10	1	-1E+10	1	-1E+10	1	-1E+10	1	-1E+10	1	-1E+10	1
4902643	44	C	09/04/2025	01:26	-132.737	43.511	0	1990.40	0	1.9670	0	34.5950	0	27.660	0	1965.163	0	54.5	4	16.4	4	-1E+10	1	-1E+10	1	-1E+10	1	-1E+10	1	-1E+10	1	-1E+10	1
4902643	44	C	09/04/2025	01:26	-132.737	43.511	0	2009.30	0	1.9490	0	34.5970	4	27.663	0	1983.736	0	55.6	4	16.7	4	-1E+10	1	-1E+10	1	-1E+10	1	-1E+10	1	-1E+10	1	-1E+10	1
4902643	44	C	09/04/2025	01:26	-132.737	43.511	0	2029.70	0	1.9340	0	34.6000	4	27.667	0	2003.780	0	56.8	4	17.1	4	-1E+10	1	-1E+10	1	-1E+10	1	-1E+10	1	-1E+10	1	-1E+10	1
4902643	44	C	09/04/2025	01:26	-132.737	43.511	0	2049.80	0	1.9200	0	34.6020	4	27.670	0	2023.528	0	57.8	4	17.4	4	-1E+10	1	-1E+10	1	-1E+10	1	-1E+10	1	-1E+10	1	-1E+10	1
4902643	44	C	09/04/2025	01:26	-132.737	43.511	0	2070.20	0	1.9090	0	34.6040	4	27.672	0	2043.569	0	58.8	4	17.7	4	-1E+10	1	-1E+10	1	-1E+10	1	-1E+10	1	-1E+10	1	-1E+10	1
4902643	44	C	09/04/2025	01:26	-132.737	43.511	0	2089.80	0	1.8980	0	34.6060	4	27.675	0	2062.823	0	59.8	4	18.0	4	-1E+10	1	-1E+10	1	-1E+10	1	-1E+10	1	-1E+10	1	-1E+10	1
4902643	44	C	09/04/2025	01:26	-132.737	43.511	0	2109.70	0	1.8860	0	34.6080	4	27.678	0	2082.369	0	60.6	4	18.2	4	-1E+10	1	-1E+10	1	-1E+10	1	-1E+10	1	-1E+10	1	-1E+10	1
4902643	44	C	09/04/2025	01:26	-132.737	43.511	0	2129.80	0	1.8790	0	34.6090	4	27.679	0	2102.109	0	61.2	4	18.4	4	-1E+10	1	-1E+10	1	-1E+10	1	-1E+10	1	-1E+10	1	-1E+10	1
4902643	44	C	09/04/2025	01:26	-132.737	43.511	0	2150.00	0	1.8690	0	34.6100	4	27.681	0	2121.946	0	62.0	4	18.6	4	-1E+10	1	-1E+10	1	-1E+10	1	-1E+10	1	-1E+10	1	-1E+10	1
4902643	44	C	09/04/2025	01:26	-132.737	43.511	0	2169.20	0	1.8640	0	34.6110	4	27.682	0	2140.800	0	62.5	4	18.8	4	-1E+10	1	-1E+10	1	-1E+10	1	-1E+10	1	-1E+10	1	-1E+10	1
4902643	44	C	09/04/2025	01:26	-132.737	43.511	0	2189.50	0	1.8590	0	34.6120	4	27.683	0	2160.732	0	63.0	4	18.9	4	-1E+10	1	-1E+10	1	-1E+10	1	-1E+10	1	-1E+10	1	-1E+10	1
4902643	44	C	09/04/2025	01:26	-132.737	43.511	0	2209.60	0	1.8520	0	34.6140	4	27.686	0	2180.465	0	63.7	4	19.1	4	-1E+10	1	-1E+10	1	-1E+10	1	-1E+10	1	-1E+10	1	-1E+10	1
4902643	44	C	09/04/2025	01:26	-132.737	43.511	0	2229.50	0	1.8460	0	34.6150	4	27.687	0	2200.000	0	64.3	4	19.3	4	-1E+10	1	-1E+10	1	-1E+10	1	-1E+10	1	-1E+10	1	-1E+10	1
4902643	44	C	09/04/2025	01:26	-132.737	43.511	0	2249.60	0	1.8400	0	34.6150	4	27.688	0	2219.730	0	64.9	4	19.5	4	-1E+10	1	-1E+10	1	-1E+10	1	-1E+10	1	-1E+10	1	-1E+10	1
4902643	44	C	09/04/2025	01:26	-132.737	43.511	0	2269.70	0	1.8350	0	34.6160	4	27.689	0	2239.458	0	65.4	4	19.6	4	-1E+10	1	-1E+10	1	-1E+10	1	-1E+10	1	-1E+10	1	-1E+10	1
4902643	44	C	09/04/2025	01:26	-132.737	43.511	0	2290.20	0	1.8290	0	34.6170	4	27.690	0	2259.577	0	66.1	4	19.8	4	-1E+10	1	-1E+10	1	-1E+10	1	-1E+10	1	-1E+10	1	-1E+10	1
4902643	44	C	09/04/2025	01:26	-132.737	43.511	0	2309.70	0	1.8220	0	34.6190	4	27.692	0	2278.713	0	66.8	4	20.1	4	-1E+10	1	-1E+10	1	-1E+10	1	-1E+10	1	-1E+10	1	-1E+10	1
4902643	44	C	09/04/2025	01:26	-132.737	43.511	0	2329.70	0	1.8170	0	34.6200	4	27.694	0	2298.337	0	67.4	4	20.2	4	-1E+10	1	-1E+10	1	-1E+10	1	-1E+10	1	-1E+10	1	-1E+10	1
4902643	44	C	09/04/2025	01:26	-132.737	43.511	0	2349.50	0	1.8100	0	34.6210	4	27.695	0	2317.764	0	68.2	4	20.5	4	-1E+10	1	-1E+10	1	-1E+10	1	-1E+10	1	-1E+10	1	-1E+10	1
4902643	44	C	09/04/2025	01:26	-132.737	43.511	0	2369.50	0	1.8030	0	34.6220	4	27.697	0	2337.385	0	68.9	4	20.7	4	-1E+10	1	-1E+10	1	-1E+10	1	-1E+10	1	-1E+10	1	-1E+10	1
4902643	44	C	09/04/2025	01:26	-132.737	43.511	0	2389.70	0	1.7930	0	34.6230	4	27.698	0	2357.200	0	69.8	4	21.0	4	-1E+10	1	-1E+10	1	-1E+10	1	-1E+10	1	-1E+10	1	-1E+10	1
4902643	44	C	09/04/2025	01:26	-132.737	43.511	0	2409.80	0	1.7840	0	34.6250	4	27.701	0	2376.915	0	70.7	4	21.2	4	-1E+10	1	-1E+10	1	-1E+10	1	-1E+10	1	-1E+10	1	-1E+10	1
4902643	44	C	09/04/2025	01:26	-132.737	43.511	0	2429.70	0	1.7760	0	34.6260	4	27.702	0	2396.433	0	71.5	4	21.4	4	-1E+10	1	-1E+10	1	-1E+10	1	-1E+10	1	-1E+10	1	-1E+10	1
4902643	44	C	09/04/2025	01:26	-132.737	43.511	0	2449.50	0	1.7710	0	34.6270	4	27.704	0	2415.850	0	72.2	4	21.6	4	-1E+10	1	-1E+10	1	-1E+10	1	-1E+10	1	-1E+10	1	-1E+10	1
4902643	44	C	09/04/2025	01:26	-132.737	43.511	0	2469.60	0	1.7630	0	34.6270	4	27.704	0	2435.560	0	73.2	4	21.9	4	-1E+10	1	-1E+10	1	-1E+10	1	-1E+10	1	-1E+10	1	-1E+10	1
4902643	44	C	09/04/2025	01:26	-132.737	43.511	0	2489.90	0	1.7580	0	34.6280	4	27.706	0	2455.464	0	73.7	4	22.1	4	-1E+10	1	-1E+10	1	-1E+10	1	-1E+10	1	-1E+10	1	-1E+10	1
4902643	44	C	09/04/2025	01:26	-132.737	43.511	0	2510.40	0	1.7530	0	34.6290	4	27.707	0	2475.563	0	74.4	4	22.3	4	-1E+10	1	-1E+10	1	-1E+10	1	-1E+10	1	-1E+10	1	-1E+10	1
4902643	44	C	09/04/2025	01:26	-132.737	43.511	0	2529.80	0	1.7450	0	34.6300	4	27.708	0	2494.581	0	75.2	4	22.5	4	-1E+10	1	-1E+10	1	-1E+10	1	-1E+10	1	-1E+10	1	-1E+10	1
4902643	44	C	09/04/2025	01:26	-132.737	43.511	0	2549.70	0	1.7390	0	34.6310	4	27.710	0	2514.088	0	75.9	4	22.7	4	-1E+10	1	-1E+10	1	-1E+10	1	-1E+10	1	-1E+10	1	-1E+10	1
4902643	44	C	09/04/2025	01:26	-132.737	43.511	0	2569.50	0	1.7360	0	34.6320	4	27.711	0	2533.495	0	76.4	4	22.9	4	-1E+10	1	-1E+10	1	-1E+10	1	-1E+10	1	-1E+10	1	-1E+10	1
4902643	44	C	09/04/2025	01:26	-132.737	43.511	0	2589.60	0	1.7300	0	34.6320	4	27.711	0	2553.194	0	77.2	4	23.1	4	-1E+10	1	-1E+10	1	-1E+10	1	-1E+10	1	-1E+10	1	-1E+10	1
4902643	44	C	09/04/2025	01:26	-132.737	43.511	0	2609.50	0	1.7190	0	34.6340	4	27.714	0	2572.696	0	78.2	4	23.4	4	-1E+10	1	-1E+10	1	-1E+10	1	-1E+10	1	-1E+10	1	-1E+10	1
4902643	44	C	09/04/2025	01:26	-132.737	43.511	0	2629.80	0	1.7090	0	34.6350	4	27.716	0	2592.587	0	79.1	4	23.7	4	-1E+10	1	-1E+10	1	-1E+10	1	-1E+10	1	-1E+10	1	-1E+10	1
4902643	44	C	09/04/2025	01:26	-132.737	43.511	0	2649.80	0	1.7030	0	34.6360	4	27.717	0	2612.183	0	80.2	4	24.0	4	-1E+10	1	-1E+10	1	-1E+10	1	-1E+10	1	-1E+10	1	-1E+10	1
4902643	44	C	09/04/2025	01:26	-132.737	43.511	0	2670.60	0	1.6930	0	34.6380	4	27.719	0	2632.561	0	81.1	4	24.3	4	-1E+10	1	-1E+10	1	-1E+10	1	-1E+10	1	-1E+10	1	-1E+10	1
4902643	44	C	09/04/2025	01:26	-132.737	43.511	0	2690.00	0	1.6880	0	34.6380	4	27.720	0	2651.565	0	81.7	4	24.5	4	-1E+10	1	-1E+10	1	-1E+10	1	-1E+10	1	-1E+10	1	-1E+10	1
4902643	44	C	09/04/2025	01:26	-132.737	43.511	0	2709.70	0	1.6850	0	34.6390	4	27.721	0	2670.862	0	82.3	4	24.6	4	-1E+10	1	-1E+10	1	-1E+10	1	-1E+10	1	-1E+10	1	-1E+10	1
4902643	44	C	09/04/2025	01:26	-132.737	43.511	0	2729.70	0	1.6800	0	34.6400	4	27.722	0	2690.451	0	82.9	4	24.8	4	-1E+10	1	-1E+10	1	-1E+10	1	-1E+10	1	-1E+10	1	-1E+10	1
4902643	44	C	09/04/2025	01:26	-132.737	43.511	0	2750.10	0	1.6750	0	34.6410	4	27.724	0	2710.429	0	83.6	4	25.0	4	-1E+10	1	-1E+10	1	-1E+10	1	-1E+10	1	-1E+10	1	-1E+10	1
4902643	44	C	09/04/2025	01:26	-132.737	43.511	0	2770.60	0	1.6690	0	34.6420	4	27.725	0	2730.504	0	84.4	4	25.2	4	-1E+10	1	-1E+10	1	-1E+10	1	-1E+10	1	-1E+10	1	-1E+10	1
4902643	44	C	09/04/2025	01:26	-132.737	43.511	0	2789.40	0	1.6640	0	34.6420	4	27.726	0	2748.912	0	85.1	4	25.5	4	-1E+10	1	-1E+10	1	-1E+10	1	-1E+10	1	-1E+10	1	-1E+10	1
4902643	44	C	09/04/2025	01:26	-132.737	43.511	0	2809.80	0	1.6560	0	34.6430	4	27.727	0	2768.886	0	85.8	4	25.7	4	-1E+10	1	-1E+10	1	-1E+10	1	-1E+10	1	-1E+10	1	-1E+10	1
4902643	44	C	09/04/2025	01:26	-132.737	43.511	0	2830.00	0	1.6520	0	34.6440	4	27.728	0	2788.661	0	86.5	4	25.9	4	-1E+10	1	-1E+10	1	-1E+10	1	-1E+10	1	-1E+10	1	-1E+10	1
4902643	44	C	09/04/2025	01:26	-132.737	43.511	0	2849.80	0	1.6470	0	34.6450	4	27.730	0	2808.043	0	87.3	4	26.1	4	-1E+10	1	-1E+10	1	-1E+10	1	-1E+10	1	-1E+10	1	-1E+10	1
4902643	44	C	09/04/2025	01:26	-132.737	43.511	0	2869.50	0	1.6450	0	34.6450	4	27.730	0	2827.326	0	88.0	4	26.3	4	-1E+10	1	-1E+10	1	-1E+10	1	-1E+10	1	-1E+10	1	-1E+10	1
4902643	44	C	09/04/2025	01:26	-132.737	43.511	0	2890.10	0	1.6380	0	34.6460	4	27.731	0	2847.488	0	88.7	4	26.5	4	-1E+10	1	-1E+10	1	-1E+10	1	-1E+10	1	-1E+10	1	-1E+10	1
4902643	44	C	09/04/2025	01:26	-132.737	43.511	0	2909.90	0	1.6310	0	34.6470	4	27.733	0	2866.865	0	89.5	4	26.8	4	-1E+10	1	-1E+10	1	-1E+10	1	-1E+10	1	-1E+10	1	-1E+10	1
4902643	44	C	09/04/2025	01:26	-132.737	43.511	0	2929.80	0	1.6280	0	34.6480	4	27.734	0	2886.338	0	90.2	4	27.0	4	-1E+10	1	-1E+10	1	-1E+10	1	-1E+10	1	-1E+10	1	-1E+10	1
4902643	44	C	09/04/2025	01:26	-132.737	43.511	0	2949.70	0	1.6200	0	34.6490	4	27.735	0	2905.809	0	91.2	4	27.2	4	-1E+10	1	-1E+10	1	-1E+10	1	-1E+10	1	-1E+10	1	-1E+10	1
4902643	44	C	09/04/2025	01:26	-132.737	43.511	0	2969.20	0	1.6130	0	34.6500	4	27.737	0	2924.888	0	92.1	4	27.5	4	-1E+10	1	-1E+10	1	-1E+10	1	-1E+10	1	-1E+10	1	-1E+10	1
4902643	44	C	09/04/2025	01:26	-132.737	43.511	0	2989.50	0	1.6070	0	34.6510	4	27.738	0	2944.747	0	92.8	4	27.7	4	-1E+10	1	-1E+10	1	-1E+10	1	-1E+10	1	-1E+10	1	-1E+10	1
4902643	44	C	09/04/2025	01:26	-132.737	43.511	0	3009.80	0	1.6050	0	34.6520	4	27.739	0	2964.604	0	93.3	4	27.9	4	-1E+10	1	-1E+10	1	-1E+10	1	-1E+10	1	-1E+10	1	-1E+10	1
4902643	44	C	09/04/2025	01:26	-132.737	43.511	0	3030.10	0	1.6020	0	34.6530	4	27.740	0	2984.460	0	93.8	4	28.0	4	-1E+10	1	-1E+10	1	-1E+10	1	-1E+10	1	-1E+10	1	-1E+10	1
4902643	44	C	09/04/2025	01:26	-132.737	43.511	0	3049.90	0	1.6000	0	34.6530	4	27.741	0	3003.824	0	94.3	4	28.2	4	-1E+10	1	-1E+10	1	-1E+10	1	-1E+10	1	-1E+10	1	-1E+10	1
4902643	44	C	09/04/2025	01:26	-132.737	43.511	0	3069.60	0	1.5980	0	34.6540	4	27.742	0	3023.090	0	94.8	4	28.3	4	-1E+10	1	-1E+10	1	-1E+10	1	-1E+10	1	-1E+10	1	-1E+10	1
4902643	44	C	09/04/2025	01:26	-132.737	43.511	0	3088.90	0	1.5950	0	34.6540	4	27.742	0	3041.962	0	95.2	4	28.4	4	-1E+10	1	-1E+10	1	-1E+10	1	-1E+10	1	-1E+10	1	-1E+10	1
4902643	44	C	09/04/2025	01:26	-132.737	43.511	0	3109.10	0	1.5930	0	34.6540	4	27.742	0	3061.713	0	95.6	4	28.5	4	-1E+10	1	-1E+10	1	-1E+10	1	-1E+10	1	-1E+10	1	-1E+10	1
4902643	44	C	09/04/2025	01:26	-132.737	43.511	0	3130.20	0	1.5920	0	34.6550	4	27.743	0	3082.342	0	96.0	4	28.7	4	-1E+10	1	-1E+10	1	-1E+10	1	-1E+10	1	-1E+10	1	-1E+10	1
4902643	44	C	09/04/2025	01:26	-132.737	43.511	0	3150.10	0	1.5900	0	34.6550	4	27.744	0	3101.796	0	96.4	4	28.8	4	-1E+10	1	-1E+10	1	-1E+10	1	-1E+10	1	-1E+10	1	-1E+10	1
4902643	44	C	09/04/2025	01:26	-132.737	43.511	0	3170.20	0	1.5880	0	34.6560	4	27.745	0	3121.443	0	96.8	4	28.9	4	-1E+10	1	-1E+10	1	-1E+10	1	-1E+10	1	-1E+10	1	-1E+10	1
4902643	44	C	09/04/2025	01:26	-132.737	43.511	0	3190.20	0	1.5870	0	34.6560	4	27.745	0	3140.991	0	97.2	4	29.0	4	-1E+10	1	-1E+10	1	-1E+10	1	-1E+10	1	-1E+10	1	-1E+10	1
4902643	44	C	09/04/2025	01:26	-132.737	43.511	0	3210.20	0	1.5840	0	34.6570	4	27.746	0	3160.537	0	97.7	4	29.2	4	-1E+10	1	-1E+10	1	-1E+10	1	-1E+10	1	-1E+10	1	-1E+10	1
4902643	44	C	09/04/2025	01:26	-132.737	43.511	0	3230.60	0	1.5810	0	34.6570	4	27.746	0	3180.473	0	98.3	4	29.3	4	-1E+10	1	-1E+10	1	-1E+10	1	-1E+10	1	-1E+10	1	-1E+10	1
4902643	44	C	09/04/2025	01:26	-132.737	43.511	0	3250.00	0	1.5780	0	34.6580	4	27.748	0	3199.429	0	98.8	4	29.5	4	-1E+10	1	-1E+10	1	-1E+10	1	-1E+10	1	-1E+10	1	-1E+10	1
4902643	44	C	09/04/2025	01:26	-132.737	43.511	0	3269.90	0	1.5760	0	34.6590	4	27.749	0	3218.872	0	99.3	4	29.6	4	-1E+10	1	-1E+10	1	-1E+10	1	-1E+10	1	-1E+10	1	-1E+10	1
4902643	44	C	09/04/2025	01:26	-132.737	43.511	0	3290.00	0	1.5730	0	34.6590	4	27.749	0	3238.510	0	99.8	4	29.8	4	-1E+10	1	-1E+10	1	-1E+10	1	-1E+10	1	-1E+10	1	-1E+10	1
4902643	44	C	09/04/2025	01:26	-132.737	43.511	0	3310.10	0	1.5710	0	34.6600	4	27.750	0	3258.145	0	100.2	4	29.9	4	-1E+10	1	-1E+10	1	-1E+10	1	-1E+10	1	-1E+10	1	-1E+10	1
4902643	44	C	09/04/2025	01:26	-132.737	43.511	0	3330.20	0	1.5700	0	34.6600	4	27.750	0	3277.778	0	100.6	4	30.0	4	-1E+10	1	-1E+10	1	-1E+10	1	-1E+10	1	-1E+10	1	-1E+10	1
4902643	44	C	09/04/2025	01:26	-132.737	43.511	0	3349.90	0	1.5680	0	34.6610	4	27.751	0	3297.019	0	101.1	4	30.2	4	-1E+10	1	-1E+10	1	-1E+10	1	-1E+10	1	-1E+10	1	-1E+10	1
4902643	44	C	09/04/2025	01:26	-132.737	43.511	0	3370.00	0	1.5650	0	34.6610	4	27.752	0	3316.649	0	101.6	4	30.3	4	-1E+10	1	-1E+10	1	-1E+10	1	-1E+10	1	-1E+10	1	-1E+10	1
4902643	44	C	09/04/2025	01:26	-132.737	43.511	0	3389.70	0	1.5640	0	34.6620	4	27.753	0	3335.887	0	102.0	4	30.4	4	-1E+10	1	-1E+10	1	-1E+10	1	-1E+10	1	-1E+10	1	-1E+10	1
4902643	44	C	09/04/2025	01:26	-132.737	43.511	0	3409.90	0	1.5630	0	34.6620	4	27.753	0	3355.611	0	102.3	4	30.5	4	-1E+10	1	-1E+10	1	-1E+10	1	-1E+10	1	-1E+10	1	-1E+10	1
4902643	44	C	09/04/2025	01:26	-132.737	43.511	0	3429.90	0	1.5630	0	34.6630	4	27.754	0	3375.138	0	102.6	4	30.6	4	-1E+10	1	-1E+10	1	-1E+10	1	-1E+10	1	-1E+10	1	-1E+10	1
4902643	44	C	09/04/2025	01:26	-132.737	43.511	0	3450.00	0	1.5620	0	34.6630	4	27.754	0	3394.761	0	103.0	4	30.7	4	-1E+10	1	-1E+10	1	-1E+10	1	-1E+10	1	-1E+10	1	-1E+10	1
4902643	44	C	09/04/2025	01:26	-132.737	43.511	0	3469.80	0	1.5620	0	34.6630	4	27.754	0	3414.089	0	103.2	4	30.8	4	-1E+10	1	-1E+10	1	-1E+10	1	-1E+10	1	-1E+10	1	-1E+10	1
4902643	44	C	09/04/2025	01:26	-132.737	43.511	0	3490.00	0	1.5610	0	34.6640	4	27.755	0	3433.806	0	103.5	4	30.9	4	-1E+10	1	-1E+10	1	-1E+10	1	-1E+10	1	-1E+10	1	-1E+10	1
4902643	44	C	09/04/2025	01:26	-132.737	43.511	0	3509.80	0	1.5610	0	34.6640	4	27.755	0	3453.131	0	103.7	4	31.0	4	-1E+10	1	-1E+10	1	-1E+10	1	-1E+10	1	-1E+10	1	-1E+10	1
4902643	44	C	09/04/2025	01:26	-132.737	43.511	0	3529.60	0	1.5610	0	34.6650	4	27.756	0	3472.455	0	104.1	4	31.1	4	-1E+10	1	-1E+10	1	-1E+10	1	-1E+10	1	-1E+10	1	-1E+10	1
4902643	44	C	09/04/2025	01:26	-132.737	43.511	0	3549.60	0	1.5600	0	34.6650	4	27.757	0	3491.971	0	104.4	4	31.1	4	-1E+10	1	-1E+10	1	-1E+10	1	-1E+10	1	-1E+10	1	-1E+10	1
4902643	44	C	09/04/2025	01:26	-132.737	43.511	0	3569.80	0	1.5600	0	34.6650	4	27.757	0	3511.681	0	104.8	4	31.3	4	-1E+10	1	-1E+10	1	-1E+10	1	-1E+10	1	-1E+10	1	-1E+10	1
4902643	44	C	09/04/2025	01:26	-132.737	43.511	0	3590.20	0	1.5590	0	34.6660	4	27.758	0	3531.585	0	104.9	4	31.3	4	-1E+10	1	-1E+10	1	-1E+10	1	-1E+10	1	-1E+10	1	-1E+10	1
4902643	44	C	09/04/2025	01:26	-132.737	43.511	0	3610.10	0	1.5590	0	34.6660	4	27.758	0	3550.999	0	105.1	4	31.4	4	-1E+10	1	-1E+10	1	-1E+10	1	-1E+10	1	-1E+10	1	-1E+10	1
4902643	44	C	09/04/2025	01:26	-132.737	43.511	0	3624.00	0	1.5590	0	34.6670	4	27.759	0	3564.558	0	105.3	4	31.4	4	-1E+10	1	-1E+10	1	-1E+10	1	-1E+10	1	-1E+10	1	-1E+10	1
4902643	44	C	09/04/2025	01:26	-132.737	43.511	0	3628.40	0	1.5590	0	34.6670	4	27.759	0	3568.850	0	105.3	4	31.4	4	-1E+10	1	-1E+10	1	-1E+10	1	-1E+10	1	-1E+10	1	-1E+10	1
4902643	44	C	09/04/2025	01:26	-132.737	43.511	0	3629.70	0	1.5590	0	34.6670	4	27.759	0	3570.118	0	105.4	4	31.4	4	-1E+10	1	-1E+10	1	-1E+10	1	-1E+10	1	-1E+10	1	-1E+10	1
4902643	44	C	09/04/2025	01:26	-132.737	43.511	0	3630.50	0	1.5590	0	34.6670	4	27.759	0	3570.898	0	105.4	4	31.4	4	-1E+10	1	-1E+10	1	-1E+10	1	-1E+10	1	-1E+10	1	-1E+10	1
4902643	44	C	09/04/2025	01:26	-132.737	43.511	0	3631.30	0	1.5590	0	34.6670	4	27.759	0	3571.679	0	105.4	4	31.4	4	-1E+10	1	-1E+10	1	-1E+10	1	-1E+10	1	-1E+10	1	-1E+10	1
4902643	44	C	09/04/2025	01:26	-132.737	43.511	0	3632.50	0	1.5590	0	34.6670	4	27.759	0	3572.849	0	105.4	4	31.5	4	-1E+10	1	-1E+10	1	-1E+10	1	-1E+10	1	-1E+10	1	-1E+10	1
4902643	44	C	09/04/2025	01:26	-132.737	43.511	0	3633.90	0	1.5590	0	34.6670	4	27.759	0	3574.215	0	105.4	4	31.5	4	-1E+10	1	-1E+10	1	-1E+10	1	-1E+10	1	-1E+10	1	-1E+10	1
4902643	44	C	09/04/2025	01:26	-132.737	43.511	0	3634.60	0	1.5590	0	34.6670	4	27.759	0	3574.898	0	105.5	4	31.5	4	-1E+10	1	-1E+10	1	-1E+10	1	-1E+10	1	-1E+10	1	-1E+10	1
4902643	44	C	09/04/2025	01:26	-132.737	43.511	0	3635.50	0	1.5590	0	34.6670	4	27.759	0	3575.776	0	105.4	4	31.5	4	-1E+10	1	-1E+10	1	-1E+10	1	-1E+10	1	-1E+10	1	-1E+10	1
4902643	44	C	09/04/2025	01:26	-132.737	43.511	0	3636.30	0	1.5590	0	34.6670	4	27.759	0	3576.556	0	105.5	4	31.5	4	-1E+10	1	-1E+10	1	-1E+10	1	-1E+10	1	-1E+10	1	-1E+10	1
4902643	44	C	09/04/2025	01:26	-132.737	43.511	0	3637.50	0	1.5580	0	34.6670	4	27.759	0	3577.726	0	105.5	4	31.5	4	-1E+10	1	-1E+10	1	-1E+10	1	-1E+10	1	-1E+10	1	-1E+10	1
4902643	44	C	09/04/2025	01:26	-132.737	43.511	0	3638.80	0	1.5580	0	34.6680	4	27.760	0	3578.994	0	105.5	4	31.5	4	-1E+10	1	-1E+10	1	-1E+10	1	-1E+10	1	-1E+10	1	-1E+10	1
4902643	44	C	09/04/2025	01:26	-132.737	43.511	0	3639.60	0	1.5580	0	34.6670	4	27.759	0	3579.775	0	105.5	4	31.5	4	-1E+10	1	-1E+10	1	-1E+10	1	-1E+10	1	-1E+10	1	-1E+10	1
4902643	44	C	09/04/2025	01:26	-132.737	43.511	0	3640.40	0	1.5580	0	34.6680	4	27.760	0	3580.555	0	105.6	4	31.5	4	-1E+10	1	-1E+10	1	-1E+10	1	-1E+10	1	-1E+10	1	-1E+10	1
4902643	44	C	09/04/2025	01:26	-132.737	43.511	0	3641.40	0	1.5580	0	34.6680	4	27.760	0	3581.530	0	105.6	4	31.5	4	-1E+10	1	-1E+10	1	-1E+10	1	-1E+10	1	-1E+10	1	-1E+10	1
4902643	44	C	09/04/2025	01:26	-132.737	43.511	0	3642.50	0	1.5580	0	34.6670	4	27.759	0	3582.603	0	105.6	4	31.5	4	-1E+10	1	-1E+10	1	-1E+10	1	-1E+10	1	-1E+10	1	-1E+10	1
4902643	44	C	09/04/2025	01:26	-132.737	43.511	0	3643.80	0	1.5580	0	34.6680	4	27.760	0	3583.871	0	105.7	4	31.5	4	-1E+10	1	-1E+10	1	-1E+10	1	-1E+10	1	-1E+10	1	-1E+10	1
4902643	44	C	09/04/2025	01:26	-132.737	43.511	0	3644.70	0	1.5570	0	34.6680	4	27.760	0	3584.749	0	105.7	4	31.5	4	-1E+10	1	-1E+10	1	-1E+10	1	-1E+10	1	-1E+10	1	-1E+10	1
4902643	44	C	09/04/2025	01:26	-132.737	43.511	0	3645.50	0	1.5570	0	34.6680	4	27.760	0	3585.530	0	105.7	4	31.6	4	-1E+10	1	-1E+10	1	-1E+10	1	-1E+10	1	-1E+10	1	-1E+10	1
4902643	44	C	09/04/2025	01:26	-132.737	43.511	0	3646.30	0	1.5560	0	34.6680	4	27.760	0	3586.310	0	105.7	4	31.5	4	-1E+10	1	-1E+10	1	-1E+10	1	-1E+10	1	-1E+10	1	-1E+10	1
4902643	44	C	09/04/2025	01:26	-132.737	43.511	0	3647.20	0	1.5570	0	34.6680	4	27.760	0	3587.188	0	105.8	4	31.6	4	-1E+10	1	-1E+10	1	-1E+10	1	-1E+10	1	-1E+10	1	-1E+10	1
4902643	44	C	09/04/2025	01:26	-132.737	43.511	0	3648.50	0	1.5560	0	34.6680	4	27.760	0	3588.456	0	105.8	4	31.6	4	-1E+10	1	-1E+10	1	-1E+10	1	-1E+10	1	-1E+10	1	-1E+10	1
4902643	44	C	09/04/2025	01:26	-132.737	43.511	0	3649.80	0	1.5560	0	34.6680	4	27.760	0	3589.724	0	105.8	4	31.6	4	-1E+10	1	-1E+10	1	-1E+10	1	-1E+10	1	-1E+10	1	-1E+10	1
4902643	44	C	09/04/2025	01:26	-132.737	43.511	0	3650.60	0	1.5560	0	34.6680	4	27.760	0	3590.504	0	105.8	4	31.6	4	-1E+10	1	-1E+10	1	-1E+10	1	-1E+10	1	-1E+10	1	-1E+10	1
4902643	44	C	09/04/2025	01:26	-132.737	43.511	0	3651.50	0	1.5560	0	34.6680	4	27.760	0	3591.382	0	105.9	4	31.6	4	-1E+10	1	-1E+10	1	-1E+10	1	-1E+10	1	-1E+10	1	-1E+10	1
4902643	44	C	09/04/2025	01:26	-132.737	43.511	0	3652.30	0	1.5560	0	34.6680	4	27.760	0	3592.162	0	105.9	4	31.6	4	-1E+10	1	-1E+10	1	-1E+10	1	-1E+10	1	-1E+10	1	-1E+10	1
4902643	44	C	09/04/2025	01:26	-132.737	43.511	0	3653.20	0	1.5560	0	34.6680	4	27.760	0	3593.040	0	105.8	4	31.6	4	-1E+10	1	-1E+10	1	-1E+10	1	-1E+10	1	-1E+10	1	-1E+10	1
4902643	44	C	09/04/2025	01:26	-132.737	43.511	0	3654.50	0	1.5560	0	34.6680	4	27.760	0	3594.308	0	105.8	4	31.6	4	-1E+10	1	-1E+10	1	-1E+10	1	-1E+10	1	-1E+10	1	-1E+10	1
4902643	44	C	09/04/2025	01:26	-132.737	43.511	0	3655.90	0	1.5550	0	34.6680	4	27.760	0	3595.673	0	105.9	4	31.6	4	-1E+10	1	-1E+10	1	-1E+10	1	-1E+10	1	-1E+10	1	-1E+10	1
4902643	44	C	09/04/2025	01:26	-132.737	43.511	0	3656.70	0	1.5560	0	34.6680	4	27.760	0	3596.453	0	105.8	4	31.6	4	-1E+10	1	-1E+10	1	-1E+10	1	-1E+10	1	-1E+10	1	-1E+10	1
4902643	44	C	09/04/2025	01:26	-132.737	43.511	0	3657.50	0	1.5550	0	34.6680	4	27.760	0	3597.234	0	105.9	4	31.6	4	-1E+10	1	-1E+10	1	-1E+10	1	-1E+10	1	-1E+10	1	-1E+10	1
4902643	44	C	09/04/2025	01:26	-132.737	43.511	0	3658.40	0	1.5550	0	34.6680	4	27.760	0	3598.111	0	105.9	4	31.6	4	-1E+10	1	-1E+10	1	-1E+10	1	-1E+10	1	-1E+10	1	-1E+10	1
4902643	44	C	09/04/2025	01:26	-132.737	43.511	0	3659.30	0	1.5550	0	34.6690	4	27.761	0	3598.989	0	105.8	4	31.6	4	-1E+10	1	-1E+10	1	-1E+10	1	-1E+10	1	-1E+10	1	-1E+10	1
4902643	44	C	09/04/2025	01:26	-132.737	43.511	0	3660.50	0	1.5550	0	34.6680	4	27.760	0	3600.160	0	105.8	4	31.6	4	-1E+10	1	-1E+10	1	-1E+10	1	-1E+10	1	-1E+10	1	-1E+10	1
4902643	44	C	09/04/2025	01:26	-132.737	43.511	0	3661.90	0	1.5550	0	34.6680	4	27.760	0	3601.525	0	105.8	4	31.6	4	-1E+10	1	-1E+10	1	-1E+10	1	-1E+10	1	-1E+10	1	-1E+10	1
4902643	44	C	09/04/2025	01:26	-132.737	43.511	0	3662.70	0	1.5550	0	34.6680	4	27.760	0	3602.305	0	105.8	4	31.6	4	-1E+10	1	-1E+10	1	-1E+10	1	-1E+10	1	-1E+10	1	-1E+10	1
4902643	44	C	09/04/2025	01:26	-132.737	43.511	0	3663.60	0	1.5550	0	34.6680	4	27.760	0	3603.183	0	105.8	4	31.6	4	-1E+10	1	-1E+10	1	-1E+10	1	-1E+10	1	-1E+10	1	-1E+10	1
4902643	44	C	09/04/2025	01:26	-132.737	43.511	0	3664.30	0	1.5550	0	34.6680	4	27.760	0	3603.866	0	105.8	4	31.6	4	-1E+10	1	-1E+10	1	-1E+10	1	-1E+10	1	-1E+10	1	-1E+10	1
4902643	44	C	09/04/2025	01:26	-132.737	43.511	0	3665.70	0	1.5540	0	34.6680	4	27.760	0	3605.231	0	105.7	4	31.5	4	-1E+10	1	-1E+10	1	-1E+10	1	-1E+10	1	-1E+10	1	-1E+10	1
4902643	44	C	09/04/2025	01:26	-132.737	43.511	0	3666.60	0	1.5540	0	34.6690	4	27.761	0	3606.109	0	105.7	4	31.5	4	-1E+10	1	-1E+10	1	-1E+10	1	-1E+10	1	-1E+10	1	-1E+10	1
4902643	44	C	09/04/2025	01:26	-132.737	43.511	0	3667.70	0	1.5530	0	34.6690	4	27.761	0	3607.182	0	105.7	4	31.5	4	-1E+10	1	-1E+10	1	-1E+10	1	-1E+10	1	-1E+10	1	-1E+10	1
4902643	44	C	09/04/2025	01:26	-132.737	43.511	0	3668.40	0	1.5530	0	34.6690	4	27.761	0	3607.864	0	105.7	4	31.5	4	-1E+10	1	-1E+10	1	-1E+10	1	-1E+10	1	-1E+10	1	-1E+10	1
4902643	44	C	09/04/2025	01:26	-132.737	43.511	0	3669.40	0	1.5530	0	34.6690	4	27.761	0	3608.840	0	105.7	4	31.5	4	-1E+10	1	-1E+10	1	-1E+10	1	-1E+10	1	-1E+10	1	-1E+10	1
4902643	44	C	09/04/2025	01:26	-132.737	43.511	0	3670.40	0	1.5530	0	34.6690	4	27.761	0	3609.815	0	105.7	4	31.5	4	-1E+10	1	-1E+10	1	-1E+10	1	-1E+10	1	-1E+10	1	-1E+10	1
4902643	44	C	09/04/2025	01:26	-132.737	43.511	0	3671.40	0	1.5530	0	34.6690	4	27.761	0	3610.790	0	105.6	4	31.5	4	-1E+10	1	-1E+10	1	-1E+10	1	-1E+10	1	-1E+10	1	-1E+10	1
4902643	44	C	09/04/2025	01:26	-132.737	43.511	0	3672.70	0	1.5530	0	34.6690	4	27.761	0	3612.058	0	105.6	4	31.5	4	-1E+10	1	-1E+10	1	-1E+10	1	-1E+10	1	-1E+10	1	-1E+10	1
4902643	44	C	09/04/2025	01:26	-132.737	43.511	0	3673.90	0	1.5530	0	34.6690	4	27.761	0	3613.228	0	105.6	4	31.5	4	-1E+10	1	-1E+10	1	-1E+10	1	-1E+10	1	-1E+10	1	-1E+10	1
4902643	44	C	09/04/2025	01:26	-132.737	43.511	0	3674.80	0	1.5530	0	34.6690	4	27.761	0	3614.106	0	105.6	4	31.5	4	-1E+10	1	-1E+10	1	-1E+10	1	-1E+10	1	-1E+10	1	-1E+10	1
4902643	44	C	09/04/2025	01:26	-132.737	43.511	0	3675.60	0	1.5540	0	34.6690	4	27.761	0	3614.886	0	105.6	4	31.5	4	-1E+10	1	-1E+10	1	-1E+10	1	-1E+10	1	-1E+10	1	-1E+10	1
4902643	44	C	09/04/2025	01:26	-132.737	43.511	0																										
4902643	46	C	09/23/2025	23:41	-132.724	43.538	0	2.10	0	20.1490	0	32.5210	0	22.835	0	2.083	0	213.5	4	93.4	4	-1E+10	1	-1E+10	1	-1E+10	1	-1E+10	1	-1E+10	1	-1E+10	1
4902643	46	C	09/23/2025	23:41	-132.724	43.538	0	2.30	0	20.1450	0	32.5220	0	22.836	0	2.282	0	213.6	4	93.4	4	-1E+10	1	-1E+10	1	-1E+10	1	-1E+10	1	-1E+10	1	-1E+10	1
4902643	46	C	09/23/2025	23:41	-132.724	43.538	0	2.40	0	20.1443	0	32.5223	0	22.837	0	2.381	0	213.5	4	93.4	4	-1E+10	1	-1E+10	1	-1E+10	1	-1E+10	1	-1E+10	1	-1E+10	1
4902643	46	C	09/23/2025	23:41	-132.724	43.538	0	2.60	0	20.1490	0	32.5220	0	22.835	0	2.579	0	213.4	4	93.3	4	-1E+10	1	-1E+10	1	-1E+10	1	-1E+10	1	-1E+10	1	-1E+10	1
4902643	46	C	09/23/2025	23:41	-132.724	43.538	0	2.70	0	20.1510	0	32.5190	0	22.832	0	2.678	0	213.4	4	93.3	4	-1E+10	1	-1E+10	1	-1E+10	1	-1E+10	1	-1E+10	1	-1E+10	1
4902643	46	C	09/23/2025	23:41	-132.724	43.538	0	2.80	0	20.1490	0	32.5200	0	22.834	0	2.778	0	213.2	4	93.2	4	-1E+10	1	-1E+10	1	-1E+10	1	-1E+10	1	-1E+10	1	-1E+10	1
4902643	46	C	09/23/2025	23:41	-132.724	43.538	0	3.00	0	20.1490	0	32.5210	0	22.835	0	2.976	0	213.1	4	93.2	4	-1E+10	1	-1E+10	1	-1E+10	1	-1E+10	1	-1E+10	1	-1E+10	1
4902643	46	C	09/23/2025	23:41	-132.724	43.538	0	3.40	0	20.1520	0	32.5160	0	22.830	0	3.373	0	213.3	4	93.3	4	-1E+10	1	-1E+10	1	-1E+10	1	-1E+10	1	-1E+10	1	-1E+10	1
4902643	46	C	09/23/2025	23:41	-132.724	43.538	0	4.50	0	20.1530	0	32.5190	0	22.832	0	4.464	0	213.2	4	93.2	4	-1E+10	1	-1E+10	1	-1E+10	1	-1E+10	1	-1E+10	1	-1E+10	1
4902643	46	C	09/23/2025	23:41	-132.724	43.538	0	5.40	0	20.1300	0	32.5230	0	22.841	0	5.357	0	213.2	4	93.2	4	-1E+10	1	-1E+10	1	-1E+10	1	-1E+10	1	-1E+10	1	-1E+10	1
4902643	46	C	09/23/2025	23:41	-132.724	43.538	0	6.60	0	20.1250	0	32.5210	0	22.841	0	6.547	0	213.3	4	93.2	4	-1E+10	1	-1E+10	1	-1E+10	1	-1E+10	1	-1E+10	1	-1E+10	1
4902643	46	C	09/23/2025	23:41	-132.724	43.538	0	7.60	0	20.1200	0	32.5180	0	22.840	0	7.539	0	213.2	4	93.2	4	-1E+10	1	-1E+10	1	-1E+10	1	-1E+10	1	-1E+10	1	-1E+10	1
4902643	46	C	09/23/2025	23:41	-132.724	43.538	0	8.60	0	20.1010	0	32.5220	0	22.848	0	8.531	0	213.3	4	93.2	4	-1E+10	1	-1E+10	1	-1E+10	1	-1E+10	1	-1E+10	1	-1E+10	1
4902643	46	C	09/23/2025	23:41	-132.724	43.538	0	9.50	0	20.0320	0	32.5260	0	22.869	0	9.424	0	213.4	4	93.1	4	-1E+10	1	-1E+10	1	-1E+10	1	-1E+10	1	-1E+10	1	-1E+10	1
4902643	46	C	09/23/2025	23:41	-132.724	43.538	0	15.30	0	19.9840	0	32.5220	0	22.879	0	15.177	0	214.4	4	93.5	4	-1E+10	1	-1E+10	1	-1E+10	1	-1E+10	1	-1E+10	1	-1E+10	1
4902643	46	C	09/23/2025	23:41	-132.724	43.538	0	25.20	0	19.9340	0	32.5260	0	22.895	0	24.997	0	221.0	4	96.3	4	-1E+10	1	-1E+10	1	-1E+10	1	-1E+10	1	-1E+10	1	-1E+10	1
4902643	46	C	09/23/2025	23:41	-132.724	43.538	0	35.10	0	17.3850	0	32.5560	0	23.551	0	34.817	0	252.6	4	105.0	4	-1E+10	1	-1E+10	1	-1E+10	1	-1E+10	1	-1E+10	1	-1E+10	1
4902643	46	C	09/23/2025	23:41	-132.724	43.538	0	44.60	0	13.7050	0	32.5650	0	24.368	0	44.239	0	264.5	4	102.3	4	-1E+10	1	-1E+10	1	-1E+10	1	-1E+10	1	-1E+10	1	-1E+10	1
4902643	46	C	09/23/2025	23:41	-132.724	43.538	0	54.50	0	11.9930	0	32.5630	0	24.700	0	54.058	0	254.2	4	94.9	4	-1E+10	1	-1E+10	1	-1E+10	1	-1E+10	1	-1E+10	1	-1E+10	1
4902643	46	C	09/23/2025	23:41	-132.724	43.538	0	64.60	0	11.0920	0	32.5940	0	24.888	0	64.074	0	246.6	4	90.4	4	-1E+10	1	-1E+10	1	-1E+10	1	-1E+10	1	-1E+10	1	-1E+10	1
4902643	46	C	09/23/2025	23:41	-132.724	43.538	0	75.00	0	10.3060	0	32.5950	0	25.025	0	74.388	0	244.4	4	88.1	4	-1E+10	1	-1E+10	1	-1E+10	1	-1E+10	1	-1E+10	1	-1E+10	1
4902643	46	C	09/23/2025	23:41	-132.724	43.538	0	84.90	0	10.0070	0	32.6330	0	25.105	0	84.205	0	241.1	4	86.3	4	-1E+10	1	-1E+10	1	-1E+10	1	-1E+10	1	-1E+10	1	-1E+10	1
4902643	46	C	09/23/2025	23:41	-132.724	43.538	0	94.60	0	9.9020	0	32.6370	0	25.126	0	93.823	0	238.4	4	85.2	4	-1E+10	1	-1E+10	1	-1E+10	1	-1E+10	1	-1E+10	1	-1E+10	1
4902643	46	C	09/23/2025	23:41	-132.724	43.538	0	104.10	0	9.7920	0	32.6510	0	25.155	0	103.243	0	233.1	4	83.1	4	-1E+10	1	-1E+10	1	-1E+10	1	-1E+10	1	-1E+10	1	-1E+10	1
4902643	46	C	09/23/2025	23:41	-132.724	43.538	0	114.90	0	9.6370	0	32.8130	0	25.307	0	113.951	0	219.5	4	78.1	4	-1E+10	1	-1E+10	1	-1E+10	1	-1E+10	1	-1E+10	1	-1E+10	1
4902643	46	C	09/23/2025	23:41	-132.724	43.538	0	124.80	0	9.2030	0	33.2040	0	25.682	0	123.766	0	208.4	4	73.6	4	-1E+10	1	-1E+10	1	-1E+10	1	-1E+10	1	-1E+10	1	-1E+10	1
4902643	46	C	09/23/2025	23:41	-132.724	43.538	0	134.40	0	8.9650	0	33.4620	0	25.922	0	133.284	0	201.9	4	71.1	4	-1E+10	1	-1E+10	1	-1E+10	1	-1E+10	1	-1E+10	1	-1E+10	1
4902643	46	C	09/23/2025	23:41	-132.724	43.538	0	144.70	0	8.8330	0	33.6020	0	26.052	0	143.494	0	196.3	4	69.0	4	-1E+10	1	-1E+10	1	-1E+10	1	-1E+10	1	-1E+10	1	-1E+10	1
4902643	46	C	09/23/2025	23:41	-132.724	43.538	0	154.80	0	8.7320	0	33.6950	0	26.141	0	153.507	0	192.0	4	67.4	4	-1E+10	1	-1E+10	1	-1E+10	1	-1E+10	1	-1E+10	1	-1E+10	1
4902643	46	C	09/23/2025	23:41	-132.724	43.538	0	164.60	0	8.5350	0	33.7620	0	26.224	0	163.221	0	188.7	4	66.0	4	-1E+10	1	-1E+10	1	-1E+10	1	-1E+10	1	-1E+10	1	-1E+10	1
4902643	46	C	09/23/2025	23:41	-132.724	43.538	0	174.90	0	8.3350	0	33.7990	0	26.284	0	173.430	0	186.5	4	64.9	4	-1E+10	1	-1E+10	1	-1E+10	1	-1E+10	1	-1E+10	1	-1E+10	1
4902643	46	C	09/23/2025	23:41	-132.724	43.538	0	185.00	0	8.1540	0	33.8120	0	26.321	0	183.441	0	184.5	4	64.0	4	-1E+10	1	-1E+10	1	-1E+10	1	-1E+10	1	-1E+10	1	-1E+10	1
4902643	46	C	09/23/2025	23:41	-132.724	43.538	0	194.50	0	7.9970	0	33.8220	0	26.352	0	192.856	0	182.2	4	63.0	4	-1E+10	1	-1E+10	1	-1E+10	1	-1E+10	1	-1E+10	1	-1E+10	1
4902643	46	C	09/23/2025	23:41	-132.724	43.538	0	209.40	0	7.7150	0	33.8350	0	26.404	0	207.623	0	177.9	4	61.1	4	-1E+10	1	-1E+10	1	-1E+10	1	-1E+10	1	-1E+10	1	-1E+10	1
4902643	46	C	09/23/2025	23:41	-132.724	43.538	0	229.40	0	7.3850	0	33.8460	0	26.460	0	227.442	0	171.4	4	58.4	4	-1E+10	1	-1E+10	1	-1E+10	1	-1E+10	1	-1E+10	1	-1E+10	1
4902643	46	C	09/23/2025	23:41	-132.724	43.538	0	250.30	0	7.0830	0	33.8480	0	26.503	0	248.151	0	162.9	4	55.1	4	-1E+10	1	-1E+10	1	-1E+10	1	-1E+10	1	-1E+10	1	-1E+10	1
4902643	46	C	09/23/2025	23:41	-132.724	43.538	0	269.80	0	6.7440	0	33.8470	0	26.549	0	267.471	0	149.2	4	50.1	4	-1E+10	1	-1E+10	1	-1E+10	1	-1E+10	1	-1E+10	1	-1E+10	1
4902643	46	C	09/23/2025	23:41	-132.724	43.538	0	289.90	0	6.4090	0	33.8480	0	26.594	0	287.384	0	133.2	4	44.4	4	-1E+10	1	-1E+10	1	-1E+10	1	-1E+10	1	-1E+10	1	-1E+10	1
4902643	46	C	09/23/2025	23:41	-132.724	43.538	0	309.80	0	6.1510	0	33.8500	0	26.628	0	307.096	0	121.1	4	40.1	4	-1E+10	1	-1E+10	1	-1E+10	1	-1E+10	1	-1E+10	1	-1E+10	1
4902643	46	C	09/23/2025	23:41	-132.724	43.538	0	329.50	0	5.9170	0	33.8530	0	26.660	0	326.609	0	111.6	4	36.8	4	-1E+10	1	-1E+10	1	-1E+10	1	-1E+10	1	-1E+10	1	-1E+10	1
4902643	46	C	09/23/2025	23:41	-132.724	43.538	0	349.80	0	5.6880	0	33.8600	0	26.694	0	346.714	0	101.0	4	33.1	4	-1E+10	1	-1E+10	1	-1E+10	1	-1E+10	1	-1E+10	1	-1E+10	1
4902643	46	C	09/23/2025	23:41	-132.724	43.538	0	369.90	0	5.4320	0	33.8730	0	26.735	0	366.619	0	89.5	4	29.2	4	-1E+10	1	-1E+10	1	-1E+10	1	-1E+10	1	-1E+10	1	-1E+10	1
4902643	46	C	09/23/2025	23:41	-132.724	43.538	0	389.30	0	5.2370	0	33.8880	0	26.770	0	385.829	0	81.1	4	26.3	4	-1E+10	1	-1E+10	1	-1E+10	1	-1E+10	1	-1E+10	1	-1E+10	1
4902643	46	C	09/23/2025	23:41	-132.724	43.538	0	409.80	0	5.0380	0	33.9090	0	26.810	0	406.126	0	73.8	4	23.8	4	-1E+10	1	-1E+10	1	-1E+10	1	-1E+10	1	-1E+10	1	-1E+10	1
4902643	46	C	09/23/2025	23:41	-132.724	43.538	0	429.80	0	4.9360	0	33.9270	0	26.836	0	425.926	0	69.3	4	22.3	4	-1E+10	1	-1E+10	1	-1E+10	1	-1E+10	1	-1E+10	1	-1E+10	1
4902643	46	C	09/23/2025	23:41	-132.724	43.538	0	450.00	0	4.8290	0	33.9400	0	26.858	0	445.922	0	63.4	4	20.4	4	-1E+10	1	-1E+10	1	-1E+10	1	-1E+10	1	-1E+10	1	-1E+10	1
4902643	46	C	09/23/2025	23:41	-132.724	43.538	0	469.70	0	4.7210	0	33.9570	0	26.884	0	465.422	0	57.1	4	18.3	4	-1E+10	1	-1E+10	1	-1E+10	1	-1E+10	1	-1E+10	1	-1E+10	1
4902643	46	C	09/23/2025	23:41	-132.724	43.538	0	489.50	0	4.6770	0	33.9740	0	26.902	0	485.018	0	52.8	4	16.9	4	-1E+10	1	-1E+10	1	-1E+10	1	-1E+10	1	-1E+10	1	-1E+10	1
4902643	46	C	09/23/2025	23:41	-132.724	43.538	0	509.50	0	4.6080	0	33.9880	0	26.921	0	504.811	0	48.1	4	15.4	4	-1E+10	1	-1E+10	1	-1E+10	1	-1E+10	1	-1E+10	1	-1E+10	1
4902643	46	C	09/23/2025	23:41	-132.724	43.538	0	529.50	0	4.5320	0	34.0140	0	26.950	0	524.601	0	41.9	4	13.4	4	-1E+10	1	-1E+10	1	-1E+10	1	-1E+10	1	-1E+10	1	-1E+10	1
4902643	46	C	09/23/2025	23:41	-132.724	43.538	0	549.40	0	4.4550	0	34.0380	0	26.978	0	544.291	0	36.3	4	11.6	4	-1E+10	1	-1E+10	1	-1E+10	1	-1E+10	1	-1E+10	1	-1E+10	1
4902643	46	C	09/23/2025	23:41	-132.724	43.538	0	569.60	0	4.4020	0	34.0640	0	27.004	0	564.276	0	31.3	4	10.0	4	-1E+10	1	-1E+10	1	-1E+10	1	-1E+10	1	-1E+10	1	-1E+10	1
4902643	46	C	09/23/2025	23:41	-132.724	43.538	0	589.60	0	4.3900	0	34.0880	0	27.025	0	584.061	0	26.3	4	8.4	4	-1E+10	1	-1E+10	1	-1E+10	1	-1E+10	1	-1E+10	1	-1E+10	1
4902643	46	C	09/23/2025	23:41	-132.724	43.538	0	609.50	0	4.3870	0	34.1130	0	27.045	0	603.745	0	22.4	4	7.1	4	-1E+10	1	-1E+10	1	-1E+10	1	-1E+10	1	-1E+10	1	-1E+10	1
4902643	46	C	09/23/2025	23:41	-132.724	43.538	0	630.50	0	4.3250	0	34.1320	0	27.067	0	624.516	0	19.3	4	6.1	4	-1E+10	1	-1E+10	1	-1E+10	1	-1E+10	1	-1E+10	1	-1E+10	1
4902643	46	C	09/23/2025	23:41	-132.724	43.538	0	649.90	0	4.3100	0	34.1530	0	27.085	0	643.702	0	16.3	4	5.2	4	-1E+10	1	-1E+10	1	-1E+10	1	-1E+10	1	-1E+10	1	-1E+10	1
4902643	46	C	09/23/2025	23:41	-132.724	43.538	0	669.60	0	4.2430	0	34.1680	0	27.104	0	663.182	0	14.6	4	4.6	4	-1E+10	1	-1E+10	1	-1E+10	1	-1E+10	1	-1E+10	1	-1E+10	1
4902643	46	C	09/23/2025	23:41	-132.724	43.538	0	689.90	0	4.1820	0	34.1910	0	27.129	0	683.254	0	12.5	4	4.0	4	-1E+10	1	-1E+10	1	-1E+10	1	-1E+10	1	-1E+10	1	-1E+10	1
4902643	46	C	09/23/2025	23:41	-132.724	43.538	0	710.00	0	4.1260	0	34.2080	0	27.149	0	703.127	0	11.4	4	3.6	4	-1E+10	1	-1E+10	1	-1E+10	1	-1E+10	1	-1E+10	1	-1E+10	1
4902643	46	C	09/23/2025	23:41	-132.724	43.538	0	729.80	0	4.0610	0	34.2210	0	27.166	0	722.701	0	10.4	4	3.3	4	-1E+10	1	-1E+10	1	-1E+10	1	-1E+10	1	-1E+10	1	-1E+10	1
4902643	46	C	09/23/2025	23:41	-132.724	43.538	0	749.90	0	4.0020	0	34.2330	0	27.182	0	742.570	0	9.7	4	3.1	4	-1E+10	1	-1E+10	1	-1E+10	1	-1E+10	1	-1E+10	1	-1E+10	1
4902643	46	C	09/23/2025	23:41	-132.724	43.538	0	769.70	0	3.9530	0	34.2450	0	27.196	0	762.140	0	8.8	4	2.8	4	-1E+10	1	-1E+10	1	-1E+10	1	-1E+10	1	-1E+10	1	-1E+10	1
4902643	46	C	09/23/2025	23:41	-132.724	43.538	0	789.60	0	3.9460	0	34.2670	0	27.215	0	781.807	0	7.7	4	2.4	4	-1E+10	1	-1E+10	1	-1E+10	1	-1E+10	1	-1E+10	1	-1E+10	1
4902643	46	C	09/23/2025	23:41	-132.724	43.538	0	810.50	0	3.9160	0	34.2830	0	27.231	0	802.461	0	7.3	4	2.3	4	-1E+10	1	-1E+10	1	-1E+10	1	-1E+10	1	-1E+10	1	-1E+10	1
4902643	46	C	09/23/2025	23:41	-132.724	43.538	0	830.00	0	3.8520	0	34.2920	0	27.244	0	821.729	0	7.0	4	2.2	4	-1E+10	1	-1E+10	1	-1E+10	1	-1E+10	1	-1E+10	1	-1E+10	1
4902643	46	C	09/23/2025	23:41	-132.724	43.538	0	849.90	0	3.8020	0	34.3030	0	27.258	0	841.391	0	6.8	4	2.1	4	-1E+10	1	-1E+10	1	-1E+10	1	-1E+10	1	-1E+10	1	-1E+10	1
4902643	46	C	09/23/2025	23:41	-132.724	43.538	0	869.80	0	3.7550	0	34.3090	0	27.268	0	861.051	0	6.8	4	2.1	4	-1E+10	1	-1E+10	1	-1E+10	1	-1E+10	1	-1E+10	1	-1E+10	1
4902643	46	C	09/23/2025	23:41	-132.724	43.538	0	890.00	0	3.6850	0	34.3100	0	27.276	0	881.005	0	6.9	4	2.2	4	-1E+10	1	-1E+10	1	-1E+10	1	-1E+10	1	-1E+10	1	-1E+10	1
4902643	46	C	09/23/2025	23:41	-132.724	43.538	0	909.70	0	3.6180	0	34.3180	0	27.289	0	900.463	0	6.7	4	2.1	4	-1E+10	1	-1E+10	1	-1E+10	1	-1E+10	1	-1E+10	1	-1E+10	1
4902643	46	C	09/23/2025	23:41	-132.724	43.538	0	929.40	0	3.5850	0	34.3330	0	27.304	0	919.920	0	6.5	4	2.0	4	-1E+10	1	-1E+10	1	-1E+10	1	-1E+10	1	-1E+10	1	-1E+10	1
4902643	46	C	09/23/2025	23:41	-132.724	43.538	0	949.50	0	3.5710	0	34.3490	0	27.318	0	939.770	0	6.4	4	2.0	4	-1E+10	1	-1E+10	1	-1E+10	1	-1E+10	1	-1E+10	1	-1E+10	1
4902643	46	C	09/23/2025	23:41	-132.724	43.538	0	969.70	0	3.5250	0	34.3600	0	27.332	0	959.717	0	6.5	4	2.0	4	-1E+10	1	-1E+10	1	-1E+10	1	-1E+10	1	-1E+10	1	-1E+10	1
4902643	46	C	09/23/2025	23:41	-132.724	43.538	0	989.30	0	3.4910	0	34.3710	0	27.344	0	979.069	0	6.7	4	2.1	4	-1E+10	1	-1E+10	1	-1E+10	1	-1E+10	1	-1E+10	1	-1E+10	1
4902643	46	C	09/23/2025	23:41	-132.724	43.538	0	1010.20	0	3.4270	0	34.3810	0	27.358	0	999.703	0	7.0	4	2.2	4	-1E+10	1	-1E+10	1	-1E+10	1	-1E+10	1	-1E+10	1	-1E+10	1
4902643	46	C	09/23/2025	23:41	-132.724	43.538	0	1029.60	0	3.3870	0	34.3920	0	27.371	0	1018.855	0	7.3	4	2.3	4	-1E+10	1	-1E+10	1	-1E+10	1	-1E+10	1	-1E+10	1	-1E+10	1
4902643	46	C	09/23/2025	23:41	-132.724	43.538	0	1049.70	0	3.3580	0	34.4010	0	27.381	0	1038.695	0	7.8	4	2.4	4	-1E+10	1	-1E+10	1	-1E+10	1	-1E+10	1	-1E+10	1	-1E+10	1
4902643	46	C	09/23/2025	23:41	-132.724	43.538	0	1069.80	0	3.3080	0	34.4110	0	27.393	0	1058.534	0	8.3	4	2.6	4	-1E+10	1	-1E+10	1	-1E+10	1	-1E+10	1	-1E+10	1	-1E+10	1
4902643	46	C	09/23/2025	23:41	-132.724	43.538	0	1089.70	0	3.2640	0	34.4210	0	27.406	0	1078.173	0	9.0	4	2.8	4	-1E+10	1	-1E+10	1	-1E+10	1	-1E+10	1	-1E+10	1	-1E+10	1
4902643	46	C	09/23/2025	23:41	-132.724	43.538	0	1109.90	0	3.2390	0	34.4270	0	27.413	0	1098.106	0	9.4	4	2.9	4	-1E+10	1	-1E+10	1	-1E+10	1	-1E+10	1	-1E+10	1	-1E+10	1
4902643	46	C	09/23/2025	23:41	-132.724	43.538	0	1130.60	0	3.2090	0	34.4340	0	27.421	0	1118.531	0	9.9	4	3.1	4	-1E+10	1	-1E+10	1	-1E+10	1	-1E+10	1	-1E+10	1	-1E+10	1
4902643	46	C	09/23/2025	23:41	-132.724	43.538	0	1149.60	0	3.1760	0	34.4390	0	27.429	0	1137.277	0	10.5	4	3.3	4	-1E+10	1	-1E+10	1	-1E+10	1	-1E+10	1	-1E+10	1	-1E+10	1
4902643	46	C	09/23/2025	23:41	-132.724	43.538	0	1169.70	0	3.1310	0	34.4460	0	27.438	0	1157.106	0	11.3	4	3.5	4	-1E+10	1	-1E+10	1	-1E+10	1	-1E+10	1	-1E+10	1	-1E+10	1
4902643	46	C	09/23/2025	23:41	-132.724	43.538	0	1189.60	0	3.0810	0	34.4540	0	27.449	0	1176.736	0	12.1	4	3.7	4	-1E+10	1	-1E+10	1	-1E+10	1	-1E+10	1	-1E+10	1	-1E+10	1
4902643	46	C	09/23/2025	23:41	-132.724	43.538	0	1209.80	0	3.0390	0	34.4600	0	27.458	0	1196.661	0	12.9	4	4.0	4	-1E+10	1	-1E+10	1	-1E+10	1	-1E+10	1	-1E+10	1	-1E+10	1
4902643	46	C	09/23/2025	23:41	-132.724	43.538	0	1229.20	0	3.0000	0	34.4650	0	27.466	0	1215.794	0	13.5	4	4.2	4	-1E+10	1	-1E+10	1	-1E+10	1	-1E+10	1	-1E+10	1	-1E+10	1
4902643	46	C	09/23/2025	23:41	-132.724	43.538	0	1249.90	0	2.9630	0	34.4700	0	27.473	0	1236.207	0	14.1	4	4.4	4	-1E+10	1	-1E+10	1	-1E+10	1	-1E+10	1	-1E+10	1	-1E+10	1
4902643	46	C	09/23/2025	23:41	-132.724	43.538	0	1269.60	0	2.9290	0	34.4750	0	27.480	0	1255.633	0	14.9	4	4.6	4	-1E+10	1	-1E+10	1	-1E+10	1	-1E+10	1	-1E+10	1	-1E+10	1
4902643	46	C	09/23/2025	23:41	-132.724	43.538	0	1289.80	0	2.8950	0	34.4790	0	27.487	0	1275.549	0	15.5	4	4.8	4	-1E+10	1	-1E+10	1	-1E+10	1	-1E+10	1	-1E+10	1	-1E+10	1
4902643	46	C	09/23/2025	23:41	-132.724	43.538	0	1310.00	0	2.8560	0	34.4820	0	27.493	0	1295.464	0	16.2	4	5.0	4	-1E+10	1	-1E+10	1	-1E+10	1	-1E+10	1	-1E+10	1	-1E+10	1
4902643	46	C	09/23/2025	23:41	-132.724	43.538	0	1329.70	0	2.8140	0	34.4870	0	27.501	0	1314.884	0	17.1	4	5.3	4	-1E+10	1	-1E+10	1	-1E+10	1	-1E+10	1	-1E+10	1	-1E+10	1
4902643	46	C	09/23/2025	23:41	-132.724	43.538	0	1349.50	0	2.7720	0	34.4910	0	27.507	0	1334.401	0	18.2	4	5.6	4	-1E+10	1	-1E+10	1	-1E+10	1	-1E+10	1	-1E+10	1	-1E+10	1
4902643	46	C	09/23/2025	23:41	-132.724	43.538	0	1369.60	0	2.7260	0	34.4970	0	27.516	0	1354.211	0	19.1	4	5.9	4	-1E+10	1	-1E+10	1	-1E+10	1	-1E+10	1	-1E+10	1	-1E+10	1
4902643	46	C	09/23/2025	23:41	-132.724	43.538	0	1389.50	0	2.7040	0	34.5000	0	27.521	0	1373.823	0	19.9	4	6.1	4	-1E+10	1	-1E+10	1	-1E+10	1	-1E+10	1	-1E+10	1	-1E+10	1
4902643	46	C	09/23/2025	23:41	-132.724	43.538	0	1409.70	0	2.6720	0	34.5040	0	27.527	0	1393.728	0	21.1	4	6.5	4	-1E+10	1	-1E+10	1	-1E+10	1	-1E+10	1	-1E+10	1	-1E+10	1
4902643	46	C	09/23/2025	23:41	-132.724	43.538	0	1429.70	0	2.6340	0	34.5090	0	27.534	0	1413.435	0	22.3	4	6.8	4	-1E+10	1	-1E+10	1	-1E+10	1	-1E+10	1	-1E+10	1	-1E+10	1
4902643	46	C	09/23/2025	23:41	-132.724	43.538	0	1449.50	0	2.5920	0	34.5140	0	27.542	0	1432.942	0	23.6	4	7.2	4	-1E+10	1	-1E+10	1	-1E+10	1	-1E+10	1	-1E+10	1	-1E+10	1
4902643	46	C	09/23/2025	23:41	-132.724	43.538	0	1470.20	0	2.5490	0	34.5190	0	27.550	0	1453.335	0	25.1	4	7.7	4	-1E+10	1	-1E+10	1	-1E+10	1	-1E+10	1	-1E+10	1	-1E+10	1
4902643	46	C	09/23/2025	23:41	-132.724	43.538	0	1489.80	0	2.5150	0	34.5230	0	27.556	0	1472.642	0	26.2	4	8.0	4	-1E+10	1	-1E+10	1	-1E+10	1	-1E+10	1	-1E+10	1	-1E+10	1
4902643	46	C	09/23/2025	23:41	-132.724	43.538	0	1510.50	0	2.4750	0	34.5280	0	27.563	0	1493.030	0	27.4	4	8.4	4	-1E+10	1	-1E+10	1	-1E+10	1	-1E+10	1	-1E+10	1	-1E+10	1
4902643	46	C	09/23/2025	23:41	-132.724	43.538	0	1529.30	0	2.4500	0	34.5300	0	27.567	0	1511.546	0	28.2	4	8.6	4	-1E+10	1	-1E+10	1	-1E+10	1	-1E+10	1	-1E+10	1	-1E+10	1
4902643	46	C	09/23/2025	23:41	-132.724	43.538	0	1549.80	0	2.4250	0	34.5330	0	27.572	0	1531.733	0	29.4	4	9.0	4	-1E+10	1	-1E+10	1	-1E+10	1	-1E+10	1	-1E+10	1	-1E+10	1
4902643	46	C	09/23/2025	23:41	-132.724	43.538	0	1570.10	0	2.3940	0	34.5370	0	27.578	0	1551.722	0	30.7	4	9.3	4	-1E+10	1	-1E+10	1	-1E+10	1	-1E+10	1	-1E+10	1	-1E+10	1
4902643	46	C	09/23/2025	23:41	-132.724	43.538	0	1590.20	0	2.3620	0	34.5410	0	27.583	0	1571.512	0	31.7	4	9.6	4	-1E+10	1	-1E+10	1	-1E+10	1	-1E+10	1	-1E+10	1	-1E+10	1
4902643	46	C	09/23/2025	23:41	-132.724	43.538	0	1609.40	0	2.3400	0	34.5430	0	27.587	0	1590.415	0	32.6	4	9.9	4	-1E+10	1	-1E+10	1	-1E+10	1	-1E+10	1	-1E+10	1	-1E+10	1
4902643	46	C	09/23/2025	23:41	-132.724	43.538	0	1629.80	0	2.3120	0	34.5470	0	27.593	0	1610.497	0	34.0	4	10.3	4	-1E+10	1	-1E+10	1	-1E+10	1	-1E+10	1	-1E+10	1	-1E+10	1
4902643	46	C	09/23/2025	23:41	-132.724	43.538	0	1649.80	0	2.2920	0	34.5500	0	27.597	0	1630.183	0	35.1	4	10.7	4	-1E+10	1	-1E+10	1	-1E+10	1	-1E+10	1	-1E+10	1	-1E+10	1
4902643	46	C	09/23/2025	23:41	-132.724	43.538	0	1669.60	0	2.2720	0	34.5530	0	27.601	0	1649.670	0	36.2	4	11.0	4	-1E+10	1	-1E+10	1	-1E+10	1	-1E+10	1	-1E+10	1	-1E+10	1
4902643	46	C	09/23/2025	23:41	-132.724	43.538	0	1690.10	0	2.2410	0	34.5560	0	27.606	0	1669.845	0	37.6	4	11.4	4	-1E+10	1	-1E+10	1	-1E+10	1	-1E+10	1	-1E+10	1	-1E+10	1
4902643	46	C	09/23/2025	23:41	-132.724	43.538	0	1710.50	0	2.2150	0	34.5600	0	27.611	0	1689.919	0	39.0	4	11.8	4	-1E+10	1	-1E+10	1	-1E+10	1	-1E+10	1	-1E+10	1	-1E+10	1
4902643	46	C	09/23/2025	23:41	-132.724	43.538	0	1730.00	0	2.1890	0	34.5640	0	27.617	0	1709.106	0	40.4	4	12.2	4	-1E+10	1	-1E+10	1	-1E+10	1	-1E+10	1	-1E+10	1	-1E+10	1
4902643	46	C	09/23/2025	23:41	-132.724	43.538	0	1749.60	0	2.1530	0	34.5670	0	27.622	0	1728.390	0	42.0	4	12.7	4	-1E+10	1	-1E+10	1	-1E+10	1	-1E+10	1	-1E+10	1	-1E+10	1
4902643	46	C	09/23/2025	23:41	-132.724	43.538	0	1769.80	0	2.1220	0	34.5710	0	27.628	0	1748.262	0	43.2	4	13.1	4	-1E+10	1	-1E+10	1	-1E+10	1	-1E+10	1	-1E+10	1	-1E+10	1
4902643	46	C	09/23/2025	23:41	-132.724	43.538	0	1790.10	0	2.0980	0	34.5730	0	27.631	0	1768.230	0	44.2	4	13.4	4	-1E+10	1	-1E+10	1	-1E+10	1	-1E+10	1	-1E+10	1	-1E+10	1
4902643	46	C	09/23/2025	23:41	-132.724	43.538	0	1810.10	0	2.0750	0	34.5760	0	27.636	0	1787.902	0	45.7	4	13.8	4	-1E+10	1	-1E+10	1	-1E+10	1	-1E+10	1	-1E+10	1	-1E+10	1
4902643	46	C	09/23/2025	23:41	-132.724	43.538	0	1830.10	0	2.0570	0	34.5790	0	27.640	0	1807.571	0	46.6	4	14.1	4	-1E+10	1	-1E+10	1	-1E+10	1	-1E+10	1	-1E+10	1	-1E+10	1
4902643	46	C	09/23/2025	23:41	-132.724	43.538	0	1850.00	0	2.0450	0	34.5810	0	27.642	0	1827.141	0	47.4	4	14.3	4	-1E+10	1	-1E+10	1	-1E+10	1	-1E+10	1	-1E+10	1	-1E+10	1
4902643	46	C	09/23/2025	23:41	-132.724	43.538	0	1870.10	0	2.0350	0	34.5820	0	27.644	0	1846.905	0	48.2	4	14.5	4	-1E+10	1	-1E+10	1	-1E+10	1	-1E+10	1	-1E+10	1	-1E+10	1
4902643	46	C	09/23/2025	23:41	-132.724	43.538	0	1890.10	0	2.0300	0	34.5840	0	27.646	0	1866.570	0	49.0	4	14.8	4	-1E+10	1	-1E+10	1	-1E+10	1	-1E+10	1	-1E+10	1	-1E+10	1
4902643	46	C	09/23/2025	23:41	-132.724	43.538	0	1910.30	0	2.0180	0	34.5860	0	27.649	0	1886.429	0	50.4	4	15.2	4	-1E+10	1	-1E+10	1	-1E+10	1	-1E+10	1	-1E+10	1	-1E+10	1
4902643	46	C	09/23/2025	23:41	-132.724	43.538	0	1930.20	0	1.9970	0	34.5900	0	27.654	0	1905.991	0	51.9	4	15.6	4	-1E+10	1	-1E+10	1	-1E+10	1	-1E+10	1	-1E+10	1	-1E+10	1
4902643	46	C	09/23/2025	23:41	-132.724	43.538	0	1949.90	0	1.9860	0	34.5920	0	27.656	0	1925.355	0	52.7	4	15.9	4	-1E+10	1	-1E+10	1	-1E+10	1	-1E+10	1	-1E+10	1	-1E+10	1
4902643	46	C	09/23/2025	23:41	-132.724	43.538	0	1969.80	0	1.9720	0	34.5940	0	27.659	0	1944.913	0	53.8	4	16.2	4	-1E+10	1	-1E+10	1	-1E+10	1	-1E+10	1	-1E+10	1	-1E+10	1
4902643	46	C	09/23/2025	23:41	-132.724	43.538	0	1990.30	0	1.9530	0	34.5970	0	27.663	0	1965.060	0	55.4	4	16.7	4	-1E+10	1	-1E+10	1	-1E+10	1	-1E+10	1	-1E+10	1	-1E+10	1
4902643	46	C	09/23/2025	23:41	-132.724	43.538	0	2010.00	0	1.9400	0	34.5990	4	27.666	0	1984.418	0	56.5	4	17.0	4	-1E+10	1	-1E+10	1	-1E+10	1	-1E+10	1	-1E+10	1	-1E+10	1
4902643	46	C	09/23/2025	23:41	-132.724	43.538	0	2029.60	0	1.9240	0	34.6010	4	27.669	0	2003.677	0	57.6	4	17.3	4	-1E+10	1	-1E+10	1	-1E+10	1	-1E+10	1	-1E+10	1	-1E+10	1
4902643	46	C	09/23/2025	23:41	-132.724	43.538	0	2049.80	0	1.9130	0	34.6030	4	27.671	0	2023.523	0	58.3	4	17.6	4	-1E+10	1	-1E+10	1	-1E+10	1	-1E+10	1	-1E+10	1	-1E+10	1
4902643	46	C	09/23/2025	23:41	-132.724	43.538	0	2069.70	0	1.9100	0	34.6040	4	27.672	0	2043.073	0	58.6	4	17.6	4	-1E+10	1	-1E+10	1	-1E+10	1	-1E+10	1	-1E+10	1	-1E+10	1
4902643	46	C	09/23/2025	23:41	-132.724	43.538	0	2089.80	0	1.9080	0	34.6040	4	27.673	0	2062.817	0	58.9	4	17.7	4	-1E+10	1	-1E+10	1	-1E+10	1	-1E+10	1	-1E+10	1	-1E+10	1
4902643	46	C	09/23/2025	23:41	-132.724	43.538	0	2110.00	0	1.9040	0	34.6050	4	27.674	0	2082.658	0	59.3	4	17.8	4	-1E+10	1	-1E+10	1	-1E+10	1	-1E+10	1	-1E+10	1	-1E+10	1
4902643	46	C	09/23/2025	23:41	-132.724	43.538	0	2129.90	0	1.9010	0	34.6060	4	27.675	0	2102.202	0	59.6	4	17.9	4	-1E+10	1	-1E+10	1	-1E+10	1	-1E+10	1	-1E+10	1	-1E+10	1
4902643	46	C	09/23/2025	23:41	-132.724	43.538	0	2150.10	0	1.8970	0	34.6060	4	27.675	0	2122.039	0	60.2	4	18.1	4	-1E+10	1	-1E+10	1	-1E+10	1	-1E+10	1	-1E+10	1	-1E+10	1
4902643	46	C	09/23/2025	23:41	-132.724	43.538	0	2170.30	0	1.8890	0	34.6080	4	27.678	0	2141.874	0	61.0	4	18.3	4	-1E+10	1	-1E+10	1	-1E+10	1	-1E+10	1	-1E+10	1	-1E+10	1
4902643	46	C	09/23/2025	23:41	-132.724	43.538	0	2190.10	0	1.8800	0	34.6090	4	27.679	0	2161.315	0	61.7	4	18.6	4	-1E+10	1	-1E+10	1	-1E+10	1	-1E+10	1	-1E+10	1	-1E+10	1
4902643	46	C	09/23/2025	23:41	-132.724	43.538	0	2209.70	0	1.8710	0	34.6110	4	27.682	0	2180.558	0	62.5	4	18.8	4	-1E+10	1	-1E+10	1	-1E+10	1	-1E+10	1	-1E+10	1	-1E+10	1
4902643	46	C	09/23/2025	23:41	-132.724	43.538	0	2229.90	0	1.8610	0	34.6120	4	27.683	0	2200.387	0	63.4	4	19.1	4	-1E+10	1	-1E+10	1	-1E+10	1	-1E+10	1	-1E+10	1	-1E+10	1
4902643	46	C	09/23/2025	23:41	-132.724	43.538	0	2250.50	0	1.8520	0	34.6140	4	27.686	0	2220.608	0	64.3	4	19.3	4	-1E+10	1	-1E+10	1	-1E+10	1	-1E+10	1	-1E+10	1	-1E+10	1
4902643	46	C	09/23/2025	23:41	-132.724	43.538	0	2269.80	0	1.8420	0	34.6150	4	27.688	0	2239.551	0	64.9	4	19.5	4	-1E+10	1	-1E+10	1	-1E+10	1	-1E+10	1	-1E+10	1	-1E+10	1
4902643	46	C	09/23/2025	23:41	-132.724	43.538	0	2290.10	0	1.8390	0	34.6160	4	27.689	0	2259.473	0	65.3	4	19.6	4	-1E+10	1	-1E+10	1	-1E+10	1	-1E+10	1	-1E+10	1	-1E+10	1
4902643	46	C	09/23/2025	23:41	-132.724	43.538	0	2310.10	0	1.8310	0	34.6170	4	27.690	0	2279.099	0	66.0	4	19.8	4	-1E+10	1	-1E+10	1	-1E+10	1	-1E+10	1	-1E+10	1	-1E+10	1
4902643	46	C	09/23/2025	23:41	-132.724	43.538	0	2330.10	0	1.8220	0	34.6190	4	27.693	0	2298.724	0	66.8	4	20.0	4	-1E+10	1	-1E+10	1	-1E+10	1	-1E+10	1	-1E+10	1	-1E+10	1
4902643	46	C	09/23/2025	23:41	-132.724	43.538	0	2350.20	0	1.8150	0	34.6200	4	27.694	0	2318.444	0	67.5	4	20.3	4	-1E+10	1	-1E+10	1	-1E+10	1	-1E+10	1	-1E+10	1	-1E+10	1
4902643	46	C	09/23/2025	23:41	-132.724	43.538	0	2370.30	0	1.8100	0	34.6200	4	27.695	0	2338.163	0	68.1	4	20.4	4	-1E+10	1	-1E+10	1	-1E+10	1	-1E+10	1	-1E+10	1	-1E+10	1
4902643	46	C	09/23/2025	23:41	-132.724	43.538	0	2389.60	0	1.8060	0	34.6210	4	27.696	0	2357.096	0	68.6	4	20.6	4	-1E+10	1	-1E+10	1	-1E+10	1	-1E+10	1	-1E+10	1	-1E+10	1
4902643	46	C	09/23/2025	23:41	-132.724	43.538	0	2409.80	0	1.8010	0	34.6220	4	27.697	0	2376.909	0	69.3	4	20.8	4	-1E+10	1	-1E+10	1	-1E+10	1	-1E+10	1	-1E+10	1	-1E+10	1
4902643	46	C	09/23/2025	23:41	-132.724	43.538	0	2430.20	0	1.7940	0	34.6230	4	27.699	0	2396.917	0	70.0	4	21.0	4	-1E+10	1	-1E+10	1	-1E+10	1	-1E+10	1	-1E+10	1	-1E+10	1
4902643	46	C	09/23/2025	23:41	-132.724	43.538	0	2450.40	0	1.7860	0	34.6240	4	27.700	0	2416.727	0	71.1	4	21.3	4	-1E+10	1	-1E+10	1	-1E+10	1	-1E+10	1	-1E+10	1	-1E+10	1
4902643	46	C	09/23/2025	23:41	-132.724	43.538	0	2470.20	0	1.7720	0	34.6260	4	27.703	0	2436.142	0	72.6	4	21.8	4	-1E+10	1	-1E+10	1	-1E+10	1	-1E+10	1	-1E+10	1	-1E+10	1
4902643	46	C	09/23/2025	23:41	-132.724	43.538	0	2490.00	0	1.7570	0	34.6280	4	27.706	0	2455.556	0	73.9	4	22.2	4	-1E+10	1	-1E+10	1	-1E+10	1	-1E+10	1	-1E+10	1	-1E+10	1
4902643	46	C	09/23/2025	23:41	-132.724	43.538	0	2509.80	0	1.7460	0	34.6300	4	27.708	0	2474.968	0	74.9	4	22.4	4	-1E+10	1	-1E+10	1	-1E+10	1	-1E+10	1	-1E+10	1	-1E+10	1
4902643	46	C	09/23/2025	23:41	-132.724	43.538	0	2530.00	0	1.7390	0	34.6310	4	27.710	0	2494.771	0	75.5	4	22.6	4	-1E+10	1	-1E+10	1	-1E+10	1	-1E+10	1	-1E+10	1	-1E+10	1
4902643	46	C	09/23/2025	23:41	-132.724	43.538	0	2550.40	0	1.7360	0	34.6310	4	27.710	0	2514.768	0	75.9	4	22.7	4	-1E+10	1	-1E+10	1	-1E+10	1	-1E+10	1	-1E+10	1	-1E+10	1
4902643	46	C	09/23/2025	23:41	-132.724	43.538	0	2570.60	0	1.7330	0	34.6320	4	27.711	0	2534.567	0	76.4	4	22.9	4	-1E+10	1	-1E+10	1	-1E+10	1	-1E+10	1	-1E+10	1	-1E+10	1
4902643	46	C	09/23/2025	23:41	-132.724	43.538	0	2589.90	0	1.7260	0	34.6330	4	27.713	0	2553.482	0	77.2	4	23.1	4	-1E+10	1	-1E+10	1	-1E+10	1	-1E+10	1	-1E+10	1	-1E+10	1
4902643	46	C	09/23/2025	23:41	-132.724	43.538	0	2609.70	0	1.7210	0	34.6340	4	27.714	0	2572.885	0	77.9	4	23.3	4	-1E+10	1	-1E+10	1	-1E+10	1	-1E+10	1	-1E+10	1	-1E+10	1
4902643	46	C	09/23/2025	23:41	-132.724	43.538	0	2629.70	0	1.7120	0	34.6350	4	27.715	0	2592.483	0	79.1	4	23.7	4	-1E+10	1	-1E+10	1	-1E+10	1	-1E+10	1	-1E+10	1	-1E+10	1
4902643	46	C	09/23/2025	23:41	-132.724	43.538	0	2650.00	0	1.7030	0	34.6360	4	27.717	0	2612.372	0	80.1	4	24.0	4	-1E+10	1	-1E+10	1	-1E+10	1	-1E+10	1	-1E+10	1	-1E+10	1
4902643	46	C	09/23/2025	23:41	-132.724	43.538	0	2670.40	0	1.6940	0	34.6380	4	27.719	0	2632.358	0	81.1	4	24.3	4	-1E+10	1	-1E+10	1	-1E+10	1	-1E+10	1	-1E+10	1	-1E+10	1
4902643	46	C	09/23/2025	23:41	-132.724	43.538	0	2690.20	0	1.6870	0	34.6380	4	27.720	0	2651.754	0	81.9	4	24.5	4	-1E+10	1	-1E+10	1	-1E+10	1	-1E+10	1	-1E+10	1	-1E+10	1
4902643	46	C	09/23/2025	23:41	-132.724	43.538	0	2709.90	0	1.6830	0	34.6390	4	27.721	0	2671.051	0	82.4	4	24.7	4	-1E+10	1	-1E+10	1	-1E+10	1	-1E+10	1	-1E+10	1	-1E+10	1
4902643	46	C	09/23/2025	23:41	-132.724	43.538	0	2729.70	0	1.6780	0	34.6400	4	27.723	0	2690.444	0	83.0	4	24.8	4	-1E+10	1	-1E+10	1	-1E+10	1	-1E+10	1	-1E+10	1	-1E+10	1
4902643	46	C	09/23/2025	23:41	-132.724	43.538	0	2749.90	0	1.6720	0	34.6410	4	27.724	0	2710.226	0	83.6	4	25.0	4	-1E+10	1	-1E+10	1	-1E+10	1	-1E+10	1	-1E+10	1	-1E+10	1
4902643	46	C	09/23/2025	23:41	-132.724	43.538	0	2770.30	0	1.6680	0	34.6410	4	27.724	0	2730.203	0	84.4	4	25.3	4	-1E+10	1	-1E+10	1	-1E+10	1	-1E+10	1	-1E+10	1	-1E+10	1
4902643	46	C	09/23/2025	23:41	-132.724	43.538	0	2790.20	0	1.6610	0	34.6420	4	27.726	0	2749.689	0	85.3	4	25.5	4	-1E+10	1	-1E+10	1	-1E+10	1	-1E+10	1	-1E+10	1	-1E+10	1
4902643	46	C	09/23/2025	23:41	-132.724	43.538	0	2810.20	0	1.6550	0	34.6430	4	27.727	0	2769.270	0	86.1	4	25.8	4	-1E+10	1	-1E+10	1	-1E+10	1	-1E+10	1	-1E+10	1	-1E+10	1
4902643	46	C	09/23/2025	23:41	-132.724	43.538	0	2830.10	0	1.6500	0	34.6440	4	27.728	0	2788.752	0	86.8	4	26.0	4	-1E+10	1	-1E+10	1	-1E+10	1	-1E+10	1	-1E+10	1	-1E+10	1
4902643	46	C	09/23/2025	23:41	-132.724	43.538	0	2849.90	0	1.6460	0	34.6450	4	27.730	0	2808.134	0	87.4	4	26.1	4	-1E+10	1	-1E+10	1	-1E+10	1	-1E+10	1	-1E+10	1	-1E+10	1
4902643	46	C	09/23/2025	23:41	-132.724	43.538	0	2870.00	0	1.6430	0	34.6460	4	27.731	0	2827.808	0	87.9	4	26.3	4	-1E+10	1	-1E+10	1	-1E+10	1	-1E+10	1	-1E+10	1	-1E+10	1
4902643	46	C	09/23/2025	23:41	-132.724	43.538	0	2889.80	0	1.6400	0	34.6460	4	27.731	0	2847.187	0	88.5	4	26.5	4	-1E+10	1	-1E+10	1	-1E+10	1	-1E+10	1	-1E+10	1	-1E+10	1
4902643	46	C	09/23/2025	23:41	-132.724	43.538	0	2909.80	0	1.6330	0	34.6470	4	27.733	0	2866.760	0	89.3	4	26.7	4	-1E+10	1	-1E+10	1	-1E+10	1	-1E+10	1	-1E+10	1	-1E+10	1
4902643	46	C	09/23/2025	23:41	-132.724	43.538	0	2930.00	0	1.6310	0	34.6480	4	27.734	0	2886.526	0	89.8	4	26.8	4	-1E+10	1	-1E+10	1	-1E+10	1	-1E+10	1	-1E+10	1	-1E+10	1
4902643	46	C	09/23/2025	23:41	-132.724	43.538	0	2950.00	0	1.6260	0	34.6480	4	27.734	0	2906.095	0	90.4	4	27.0	4	-1E+10	1	-1E+10	1	-1E+10	1	-1E+10	1	-1E+10	1	-1E+10	1
4902643	46	C	09/23/2025	23:41	-132.724	43.538	0	2969.70	0	1.6230	0	34.6490	4	27.735	0	2925.369	0	90.9	4	27.2	4	-1E+10	1	-1E+10	1	-1E+10	1	-1E+10	1	-1E+10	1	-1E+10	1
4902643	46	C	09/23/2025	23:41	-132.724	43.538	0	2990.50	0	1.6210	0	34.6500	4	27.736	0	2945.718	0	91.4	4	27.3	4	-1E+10	1	-1E+10	1	-1E+10	1	-1E+10	1	-1E+10	1	-1E+10	1
4902643	46	C	09/23/2025	23:41	-132.724	43.538	0	3010.10	0	1.6190	0	34.6500	4	27.737	0	2964.890	0	91.7	4	27.4	4	-1E+10	1	-1E+10	1	-1E+10	1	-1E+10	1	-1E+10	1	-1E+10	1
4902643	46	C	09/23/2025	23:41	-132.724	43.538	0	3030.10	0	1.6190	0	34.6510	4	27.738	0	2984.452	0	91.9	4	27.5	4	-1E+10	1	-1E+10	1	-1E+10	1	-1E+10	1	-1E+10	1	-1E+10	1
4902643	46	C	09/23/2025	23:41	-132.724	43.538	0	3049.90	0	1.6170	0	34.6510	4	27.738	0	3003.817	0	92.4	4	27.6	4	-1E+10	1	-1E+10	1	-1E+10	1	-1E+10	1	-1E+10	1	-1E+10	1
4902643	46	C	09/23/2025	23:41	-132.724	43.538	0	3069.80	0	1.6150	0	34.6510	4	27.738	0	3023.278	0	92.8	4	27.7	4	-1E+10	1	-1E+10	1	-1E+10	1	-1E+10	1	-1E+10	1	-1E+10	1
4902643	46	C	09/23/2025	23:41	-132.724	43.538	0	3089.80	0	1.6130	0	34.6520	4	27.739	0	3042.834	0	93.3	4	27.9	4	-1E+10	1	-1E+10	1	-1E+10	1	-1E+10	1	-1E+10	1	-1E+10	1
4902643	46	C	09/23/2025	23:41	-132.724	43.538	0	3110.30	0	1.6080	0	34.6530	4	27.740	0	3062.878	0	94.0	4	28.1	4	-1E+10	1	-1E+10	1	-1E+10	1	-1E+10	1	-1E+10	1	-1E+10	1
4902643	46	C	09/23/2025	23:41	-132.724	43.538	0	3129.80	0	1.6050	0	34.6530	4	27.741	0	3081.943	0	94.5	4	28.2	4	-1E+10	1	-1E+10	1	-1E+10	1	-1E+10	1	-1E+10	1	-1E+10	1
4902643	46	C	09/23/2025	23:41	-132.724	43.538	0	3149.90	0	1.6000	0	34.6540	4	27.742	0	3101.592	0	95.2	4	28.4	4	-1E+10	1	-1E+10	1	-1E+10	1	-1E+10	1	-1E+10	1	-1E+10	1
4902643	46	C	09/23/2025	23:41	-132.724	43.538	0	3169.90	0	1.5980	0	34.6550	4	27.743	0	3121.142	0	95.7	4	28.6	4	-1E+10	1	-1E+10	1	-1E+10	1	-1E+10	1	-1E+10	1	-1E+10	1
4902643	46	C	09/23/2025	23:41	-132.724	43.538	0	3189.80	0	1.5960	0	34.6550	4	27.743	0	3140.592	0	96.2	4	28.7	4	-1E+10	1	-1E+10	1	-1E+10	1	-1E+10	1	-1E+10	1	-1E+10	1
4902643	46	C	09/23/2025	23:41	-132.724	43.538	0	3209.70	0	1.5920	0	34.6560	4	27.745	0	3160.041	0	96.8	4	28.9	4	-1E+10	1	-1E+10	1	-1E+10	1	-1E+10	1	-1E+10	1	-1E+10	1
4902643	46	C	09/23/2025	23:41	-132.724	43.538	0	3229.90	0	1.5880	0	34.6560	4	27.745	0	3179.781	0	97.4	4	29.1	4	-1E+10	1	-1E+10	1	-1E+10	1	-1E+10	1	-1E+10	1	-1E+10	1
4902643	46	C	09/23/2025	23:41	-132.724	43.538	0	3250.40	0	1.5850	0	34.6570	4	27.746	0	3199.812	0	98.1	4	29.3	4	-1E+10	1	-1E+10	1	-1E+10	1	-1E+10	1	-1E+10	1	-1E+10	1
4902643	46	C	09/23/2025	23:41	-132.724	43.538	0	3270.00	0	1.5820	0	34.6580	4	27.747	0	3218.962	0	98.6	4	29.4	4	-1E+10	1	-1E+10	1	-1E+10	1	-1E+10	1	-1E+10	1	-1E+10	1
4902643	46	C	09/23/2025	23:41	-132.724	43.538	0	3290.10	0	1.5780	0	34.6580	4	27.748	0	3238.599	0	99.2	4	29.6	4	-1E+10	1	-1E+10	1	-1E+10	1	-1E+10	1	-1E+10	1	-1E+10	1
4902643	46	C	09/23/2025	23:41	-132.724	43.538	0	3310.10	0	1.5750	0	34.6590	4	27.749	0	3258.137	0	99.8	4	29.8	4	-1E+10	1	-1E+10	1	-1E+10	1	-1E+10	1	-1E+10	1	-1E+10	1
4902643	46	C	09/23/2025	23:41	-132.724	43.538	0	3330.00	0	1.5720	0	34.6590	4	27.749	0	3277.575	0	100.5	4	30.0	4	-1E+10	1	-1E+10	1	-1E+10	1	-1E+10	1	-1E+10	1	-1E+10	1
4902643	46	C	09/23/2025	23:41	-132.724	43.538	0	3350.40	0	1.5700	0	34.6600	4	27.750	0	3297.499	0	100.9	4	30.1	4	-1E+10	1	-1E+10	1	-1E+10	1	-1E+10	1	-1E+10	1	-1E+10	1
4902643	46	C	09/23/2025	23:41	-132.724	43.538	0	3370.00	0	1.5690	0	34.6600	4	27.751	0	3316.641	0	101.2	4	30.2	4	-1E+10	1	-1E+10	1	-1E+10	1	-1E+10	1	-1E+10	1	-1E+10	1
4902643	46	C	09/23/2025	23:41	-132.724	43.538	0	3390.00	0	1.5680	0	34.6610	4	27.752	0	3336.171	0	101.5	4	30.3	4	-1E+10	1	-1E+10	1	-1E+10	1	-1E+10	1	-1E+10	1	-1E+10	1
4902643	46	C	09/23/2025	23:41	-132.724	43.538	0	3410.20	0	1.5670	0	34.6610	4	27.752	0	3355.895	0	101.9	4	30.4	4	-1E+10	1	-1E+10	1	-1E+10	1	-1E+10	1	-1E+10	1	-1E+10	1
4902643	46	C	09/23/2025	23:41	-132.724	43.538	0	3430.10	0	1.5660	0	34.6620	4	27.753	0	3375.325	0	102.1	4	30.5	4	-1E+10	1	-1E+10	1	-1E+10	1	-1E+10	1	-1E+10	1	-1E+10	1
4902643	46	C	09/23/2025	23:41	-132.724	43.538	0	3450.00	0	1.5660	0	34.6620	4	27.753	0	3394.752	0	102.4	4	30.5	4	-1E+10	1	-1E+10	1	-1E+10	1	-1E+10	1	-1E+10	1	-1E+10	1
4902643	46	C	09/23/2025	23:41	-132.724	43.538	0	3469.90	0	1.5670	0	34.6630	4	27.754	0	3414.178	0	102.6	4	30.6	4	-1E+10	1	-1E+10	1	-1E+10	1	-1E+10	1	-1E+10	1	-1E+10	1
4902643	46	C	09/23/2025	23:41	-132.724	43.538	0	3489.70	0	1.5650	0	34.6630	4	27.754	0	3433.505	0	103.1	4	30.8	4	-1E+10	1	-1E+10	1	-1E+10	1	-1E+10	1	-1E+10	1	-1E+10	1
4902643	46	C	09/23/2025	23:41	-132.724	43.538	0	3509.90	0	1.5620	0	34.6640	4	27.755	0	3453.220	0	103.7	4	31.0	4	-1E+10	1	-1E+10	1	-1E+10	1	-1E+10	1	-1E+10	1	-1E+10	1
4902643	46	C	09/23/2025	23:41	-132.724	43.538	0	3530.10	0	1.5610	0	34.6640	4	27.756	0	3472.934	0	104.0	4	31.0	4	-1E+10	1	-1E+10	1	-1E+10	1	-1E+10	1	-1E+10	1	-1E+10	1
4902643	46	C	09/23/2025	23:41	-132.724	43.538	0	3550.00	0	1.5620	0	34.6640	4	27.756	0	3492.353	0	104.0	4	31.0	4	-1E+10	1	-1E+10	1	-1E+10	1	-1E+10	1	-1E+10	1	-1E+10	1
4902643	46	C	09/23/2025	23:41	-132.724	43.538	0	3570.40	0	1.5630	0	34.6650	4	27.757	0	3512.258	0	104.1	4	31.1	4	-1E+10	1	-1E+10	1	-1E+10	1	-1E+10	1	-1E+10	1	-1E+10	1
4902643	46	C	09/23/2025	23:41	-132.724	43.538	0	3589.90	0	1.5620	0	34.6650	4	27.757	0	3531.283	0	104.4	4	31.1	4	-1E+10	1	-1E+10	1	-1E+10	1	-1E+10	1	-1E+10	1	-1E+10	1
4902643	46	C	09/23/2025	23:41	-132.724	43.538	0	3609.90	0	1.5610	0	34.6660	4	27.758	0	3550.794	0	104.7	4	31.3	4	-1E+10	1	-1E+10	1	-1E+10	1	-1E+10	1	-1E+10	1	-1E+10	1
4902643	46	C	09/23/2025	23:41	-132.724	43.538	0	3623.40	0	1.5610	0	34.6660	4	27.758	0	3563.964	0	104.8	4	31.3	4	-1E+10	1	-1E+10	1	-1E+10	1	-1E+10	1	-1E+10	1	-1E+10	1
4902643	46	C	09/23/2025	23:41	-132.724	43.538	0	3627.20	0	1.5620	0	34.6660	4	27.758	0	3567.670	0	104.8	4	31.3	4	-1E+10	1	-1E+10	1	-1E+10	1	-1E+10	1	-1E+10	1	-1E+10	1
4902643	46	C	09/23/2025	23:41	-132.724	43.538	0	3628.50	0	1.5610	0	34.6670	4	27.759	0	3568.938	0	104.8	4	31.3	4	-1E+10	1	-1E+10	1	-1E+10	1	-1E+10	1	-1E+10	1	-1E+10	1
4902643	46	C	09/23/2025	23:41	-132.724	43.538	0	3629.90	0	1.5620	0	34.6670	4	27.759	0	3570.304	0	104.8	4	31.3	4	-1E+10	1	-1E+10	1	-1E+10	1	-1E+10	1	-1E+10	1	-1E+10	1
4902643	46	C	09/23/2025	23:41	-132.724	43.538	0	3630.70	0	1.5620	0	34.6670	4	27.759	0	3571.084	0	104.8	4	31.3	4	-1E+10	1	-1E+10	1	-1E+10	1	-1E+10	1	-1E+10	1	-1E+10	1
4902643	46	C	09/23/2025	23:41	-132.724	43.538	0	3631.70	0	1.5620	0	34.6670	4	27.759	0	3572.060	0	104.9	4	31.3	4	-1E+10	1	-1E+10	1	-1E+10	1	-1E+10	1	-1E+10	1	-1E+10	1
4902643	46	C	09/23/2025	23:41	-132.724	43.538	0	3632.40	0	1.5620	0	34.6670	4	27.759	0	3572.743	0	104.9	4	31.3	4	-1E+10	1	-1E+10	1	-1E+10	1	-1E+10	1	-1E+10	1	-1E+10	1
4902643	46	C	09/23/2025	23:41	-132.724	43.538	0	3633.30	0	1.5620	0	34.6670	4	27.759	0	3573.621	0	104.9	4	31.3	4	-1E+10	1	-1E+10	1	-1E+10	1	-1E+10	1	-1E+10	1	-1E+10	1
4902643	46	C	09/23/2025	23:41	-132.724	43.538	0	3634.30	0	1.5620	0	34.6670	4	27.759	0	3574.596	0	104.9	4	31.3	4	-1E+10	1	-1E+10	1	-1E+10	1	-1E+10	1	-1E+10	1	-1E+10	1
4902643	46	C	09/23/2025	23:41	-132.724	43.538	0	3635.50	0	1.5620	0	34.6660	4	27.758	0	3575.766	0	104.9	4	31.3	4	-1E+10	1	-1E+10	1	-1E+10	1	-1E+10	1	-1E+10	1	-1E+10	1
4902643	46	C	09/23/2025	23:41	-132.724	43.538	0	3636.90	0	1.5630	0	34.6670	4	27.759	0	3577.132	0	104.9	4	31.3	4	-1E+10	1	-1E+10	1	-1E+10	1	-1E+10	1	-1E+10	1	-1E+10	1
4902643	46	C	09/23/2025	23:41	-132.724	43.538	0	3637.60	0	1.5630	0	34.6660	4	27.758	0	3577.815	0	104.9	4	31.3	4	-1E+10	1	-1E+10	1	-1E+10	1	-1E+10	1	-1E+10	1	-1E+10	1
4902643	46	C	09/23/2025	23:41	-132.724	43.538	0	3638.50	0	1.5630	0	34.6670	4	27.759	0	3578.693	0	104.9	4	31.3	4	-1E+10	1	-1E+10	1	-1E+10	1	-1E+10	1	-1E+10	1	-1E+10	1
4902643	46	C	09/23/2025	23:41	-132.724	43.538	0	3639.40	0	1.5630	0	34.6670	4	27.759	0	3579.570	0	104.9	4	31.3	4	-1E+10	1	-1E+10	1	-1E+10	1	-1E+10	1	-1E+10	1	-1E+10	1
4902643	46	C	09/23/2025	23:41	-132.724	43.538	0	3640.60	0	1.5620	0	34.6670	4	27.759	0	3580.741	0	104.9	4	31.3	4	-1E+10	1	-1E+10	1	-1E+10	1	-1E+10	1	-1E+10	1	-1E+10	1
4902643	46	C	09/23/2025	23:41	-132.724	43.538	0	3641.90	0	1.5620	0	34.6670	4	27.759	0	3582.009	0	104.9	4	31.3	4	-1E+10	1	-1E+10	1	-1E+10	1	-1E+10	1	-1E+10	1	-1E+10	1
4902643	46	C	09/23/2025	23:41	-132.724	43.538	0	3642.80	0	1.5620	0	34.6660	4	27.758	0	3582.887	0	105.0	4	31.3	4	-1E+10	1	-1E+10	1	-1E+10	1	-1E+10	1	-1E+10	1	-1E+10	1
4902643	46	C	09/23/2025	23:41	-132.724	43.538	0	3643.60	0	1.5620	0	34.6670	4	27.759	0	3583.667	0	105.0	4	31.3	4	-1E+10	1	-1E+10	1	-1E+10	1	-1E+10	1	-1E+10	1	-1E+10	1
4902643	46	C	09/23/2025	23:41	-132.724	43.538	0	3644.50	0	1.5620	0	34.6670	4	27.759	0	3584.545	0	105.0	4	31.3	4	-1E+10	1	-1E+10	1	-1E+10	1	-1E+10	1	-1E+10	1	-1E+10	1
4902643	46	C	09/23/2025	23:41	-132.724	43.538	0	3645.30	0	1.5620	0	34.6670	4	27.759	0	3585.325	0	105.1	4	31.4	4	-1E+10	1	-1E+10	1	-1E+10	1	-1E+10	1	-1E+10	1	-1E+10	1
4902643	46	C	09/23/2025	23:41	-132.724	43.538	0	3646.20	0	1.5620	0	34.6670	4	27.759	0	3586.203	0	105.1	4	31.4	4	-1E+10	1	-1E+10	1	-1E+10	1	-1E+10	1	-1E+10	1	-1E+10	1
4902643	46	C	09/23/2025	23:41	-132.724	43.538	0	3647.50	0	1.5600	0	34.6670	4	27.759	0	3587.471	0	105.1	4	31.4	4	-1E+10	1	-1E+10	1	-1E+10	1	-1E+10	1	-1E+10	1	-1E+10	1
4902643	46	C	09/23/2025	23:41	-132.724	43.538	0	3648.80	0	1.5600	0	34.6670	4	27.759	0	3588.739	0	105.1	4	31.4	4	-1E+10	1	-1E+10	1	-1E+10	1	-1E+10	1	-1E+10	1	-1E+10	1
4902643	46	C	09/23/2025	23:41	-132.724	43.538	0	3649.60	0	1.5590	0	34.6680	4	27.760	0	3589.519	0	105.1	4	31.4	4	-1E+10	1	-1E+10	1	-1E+10	1	-1E+10	1	-1E+10	1	-1E+10	1
4902643	46	C	09/23/2025	23:41	-132.724	43.538	0	3650.50	0	1.5590	0	34.6670	4	27.759	0	3590.397	0	105.1	4	31.4	4	-1E+10	1	-1E+10	1	-1E+10	1	-1E+10	1	-1E+10	1	-1E+10	1
4902643	46	C	09/23/2025	23:41	-132.724	43.538	0	3651.30	0	1.5590	0	34.6680	4	27.760	0	3591.178	0	105.2	4	31.4	4	-1E+10	1	-1E+10	1	-1E+10	1	-1E+10	1	-1E+10	1	-1E+10	1
4902643	46	C	09/23/2025	23:41	-132.724	43.538	0	3652.60	0	1.5580	0	34.6670	4	27.759	0	3592.446	0	105.2	4	31.4	4	-1E+10	1	-1E+10	1	-1E+10	1	-1E+10	1	-1E+10	1	-1E+10	1
4902643	46	C	09/23/2025	23:41	-132.724	43.538	0	3653.90	0	1.5580	0	34.6680	4	27.760	0	3593.713	0	105.2	4	31.4	4	-1E+10	1	-1E+10	1	-1E+10	1	-1E+10	1	-1E+10	1	-1E+10	1
4902643	46	C	09/23/2025	23:41	-132.724	43.538	0	3654.80	0	1.5570	0	34.6680	4	27.760	0	3594.591	0	105.2	4	31.4	4	-1E+10	1	-1E+10	1	-1E+10	1	-1E+10	1	-1E+10	1	-1E+10	1
4902643	46	C	09/23/2025	23:41	-132.724	43.538	0	3655.60	0	1.5570	0	34.6680	4	27.760	0	3595.372	0	105.2	4	31.4	4	-1E+10	1	-1E+10	1	-1E+10	1	-1E+10	1	-1E+10	1	-1E+10	1
4902643	46	C	09/23/2025	23:41	-132.724	43.538	0	3656.50	0	1.5560	0	34.6680	4	27.760	0	3596.249	0	105.2	4	31.4	4	-1E+10	1	-1E+10	1	-1E+10	1	-1E+10	1	-1E+10	1	-1E+10	1
4902643	46	C	09/23/2025	23:41	-132.724	43.538	0	3657.30	0	1.5560	0	34.6680	4	27.760	0	3597.030	0	105.2	4	31.4	4	-1E+10	1	-1E+10	1	-1E+10	1	-1E+10	1	-1E+10	1	-1E+10	1
4902643	46	C	09/23/2025	23:41	-132.724	43.538	0	3658.50	0	1.5550	0	34.6680	4	27.760	0	3598.200	0	105.2	4	31.4	4	-1E+10	1	-1E+10	1	-1E+10	1	-1E+10	1	-1E+10	1	-1E+10	1
4902643	46	C	09/23/2025	23:41	-132.724	43.538	0	3659.80	0	1.5560	0	34.6680	4	27.760	0	3599.468	0	105.2	4	31.4	4	-1E+10	1	-1E+10	1	-1E+10	1	-1E+10	1	-1E+10	1	-1E+10	1
4902643	46	C	09/23/2025	23:41	-132.724	43.538	0	3660.60	0	1.5560	0	34.6680	4	27.760	0	3600.248	0	105.2	4	31.4	4	-1E+10	1	-1E+10	1	-1E+10	1	-1E+10	1	-1E+10	1	-1E+10	1
4902643	46	C	09/23/2025	23:41	-132.724	43.538	0	3661.50	0	1.5560	0	34.6690	4	27.761	0	3601.126	0	105.3	4	31.4	4	-1E+10	1	-1E+10	1	-1E+10	1	-1E+10	1	-1E+10	1	-1E+10	1
4902643	46	C	09/23/2025	23:41	-132.724	43.538	0	3662.30	0	1.5560	0	34.6680	4	27.760	0	3601.906	0	105.3	4	31.4	4	-1E+10	1	-1E+10	1	-1E+10	1	-1E+10	1	-1E+10	1	-1E+10	1
4902643	46	C	09/23/2025	23:41	-132.724	43.538	0	3663.40	0	1.5560	0	34.6680	4	27.760	0	3602.979	0	105.3	4	31.4	4	-1E+10	1	-1E+10	1	-1E+10	1	-1E+10	1	-1E+10	1	-1E+10	1
4902643	46	C	09/23/2025	23:41	-132.724	43.538	0	3665.00	0	1.5560	0	34.6680	4	27.760	0	3604.539	0	105.3	4	31.4	4	-1E+10	1	-1E+10	1	-1E+10	1	-1E+10	1	-1E+10	1	-1E+10	1
4902643	46	C	09/23/2025	23:41	-132.724	43.538	0	3665.80	0	1.5560	0	34.6680	4	27.760	0	3605.320	0	105.2	4	31.4	4	-1E+10	1	-1E+10	1	-1E+10	1	-1E+10	1	-1E+10	1	-1E+10	1
4902643	46	C	09/23/2025	23:41	-132.724	43.538	0	3666.40	0	1.5560	0	34.6690	4	27.761	0	3605.905	0	105.2	4	31.4	4	-1E+10	1	-1E+10	1	-1E+10	1	-1E+10	1	-1E+10	1	-1E+10	1
4902643	46	C	09/23/2025	23:41	-132.724	43.538	0	3667.40	0	1.5560	0	34.6680	4	27.760	0	3606.880	0	105.2	4	31.4	4	-1E+10	1	-1E+10	1	-1E+10	1	-1E+10	1	-1E+10	1	-1E+10	1
4902643	46	C	09/23/2025	23:41	-132.724	43.538	0	3668.70	0	1.5550	0	34.6690	4	27.761	0	3608.148	0	105.2	4	31.4	4	-1E+10	1	-1E+10	1	-1E+10	1	-1E+10	1	-1E+10	1	-1E+10	1
4902643	46	C	09/23/2025	23:41	-132.724	43.538	0	3669.60	0	1.5550	0	34.6690	4	27.761	0	3609.026	0	105.2	4	31.4	4	-1E+10	1	-1E+10	1	-1E+10	1	-1E+10	1	-1E+10	1	-1E+10	1
4902643	46	C	09/23/2025	23:41	-132.724	43.538	0	3670.50	0	1.5550	0	34.6690	4	27.761	0	3609.903	0	105.2	4	31.4	4	-1E+10	1	-1E+10	1	-1E+10	1	-1E+10	1	-1E+10	1	-1E+10	1
4902643	46	C	09/23/2025	23:41	-132.724	43.538	0	3671.70	0	1.5550	0	34.6680	4	27.760	0	3611.074	0	105.1	4	31.4	4	-1E+10	1	-1E+10	1	-1E+10	1	-1E+10	1	-1E+10	1	-1E+10	1
4902643	46	C	09/23/2025	23:41	-132.724	43.538	0	3672.90	0	1.5560	0	34.6690	4	27.761	0	3612.244	0	105.1	4	31.4	4	-1E+10	1	-1E+10	1	-1E+10	1	-1E+10	1	-1E+10	1	-1E+10	1
4902643	46	C	09/23/2025	23:41	-132.724	43.538	0	3673.50	0	1.5560	0	34.6680	4	27.760	0	3612.829	0	105.1	4	31.4	4	-1E+10	1	-1E+10	1	-1E+10	1	-1E+10	1	-1E+10	1	-1E+10	1
4902643	46	C	09/23/2025	23:41	-132.724	43.538	0	3674.20	0	1.5560	0	34.6680	4	27.760	0	3613.512	0	105.2	4	31.4	4	-1E+10	1	-1E+10	1	-1E+10	1	-1E+10	1	-1E+10	1	-1E+10	1
4902643	46	C	09/23/2025	23:41	-132.724	43.538	0																										
4902643	47	C	10/03/2025	20:43	-132.661	43.545	0	1.80	0	18.3660	0	32.5115	0	23.279	0	1.786	0	220.6	4	93.3	4	-1E+10	1	-1E+10	1	-1E+10	1	-1E+10	1	-1E+10	1	-1E+10	1
4902643	47	C	10/03/2025	20:43	-132.661	43.545	0	2.00	0	18.3615	0	32.5140	0	23.282	0	1.984	0	220.5	4	93.3	4	-1E+10	1	-1E+10	1	-1E+10	1	-1E+10	1	-1E+10	1	-1E+10	1
4902643	47	C	10/03/2025	20:43	-132.661	43.545	0	2.10	0	18.3670	0	32.5130	0	23.280	0	2.083	0	220.5	4	93.3	4	-1E+10	1	-1E+10	1	-1E+10	1	-1E+10	1	-1E+10	1	-1E+10	1
4902643	47	C	10/03/2025	20:43	-132.661	43.545	0	2.30	0	18.3625	0	32.5110	0	23.279	0	2.282	0	220.3	4	93.2	4	-1E+10	1	-1E+10	1	-1E+10	1	-1E+10	1	-1E+10	1	-1E+10	1
4902643	47	C	10/03/2025	20:43	-132.661	43.545	0	2.40	0	18.3700	0	32.4850	0	23.258	0	2.381	0	-1e10	1	-1e10	1	-1E+10	1	-1E+10	1	-1E+10	1	-1E+10	1	-1E+10	1	-1E+10	1
4902643	47	C	10/03/2025	20:43	-132.661	43.545	0	2.60	0	18.3540	0	32.5100	0	23.281	0	2.579	0	220.1	4	93.1	4	-1E+10	1	-1E+10	1	-1E+10	1	-1E+10	1	-1E+10	1	-1E+10	1
4902643	47	C	10/03/2025	20:43	-132.661	43.545	0	3.60	0	18.3530	0	32.5060	0	23.278	0	3.571	0	220.0	4	93.1	4	-1E+10	1	-1E+10	1	-1E+10	1	-1E+10	1	-1E+10	1	-1E+10	1
4902643	47	C	10/03/2025	20:43	-132.661	43.545	0	4.70	0	18.3500	0	32.5100	0	23.282	0	4.662	0	219.9	4	93.0	4	-1E+10	1	-1E+10	1	-1E+10	1	-1E+10	1	-1E+10	1	-1E+10	1
4902643	47	C	10/03/2025	20:43	-132.661	43.545	0	5.60	0	18.3480	0	32.5100	0	23.282	0	5.555	0	220.0	4	93.1	4	-1E+10	1	-1E+10	1	-1E+10	1	-1E+10	1	-1E+10	1	-1E+10	1
4902643	47	C	10/03/2025	20:43	-132.661	43.545	0	6.80	0	18.3490	0	32.5100	0	23.282	0	6.746	0	219.9	4	93.0	4	-1E+10	1	-1E+10	1	-1E+10	1	-1E+10	1	-1E+10	1	-1E+10	1
4902643	47	C	10/03/2025	20:43	-132.661	43.545	0	7.70	0	18.3460	0	32.5110	0	23.284	0	7.638	0	219.9	4	93.0	4	-1E+10	1	-1E+10	1	-1E+10	1	-1E+10	1	-1E+10	1	-1E+10	1
4902643	47	C	10/03/2025	20:43	-132.661	43.545	0	8.70	0	18.3440	0	32.5110	0	23.284	0	8.630	0	220.0	4	93.1	4	-1E+10	1	-1E+10	1	-1E+10	1	-1E+10	1	-1E+10	1	-1E+10	1
4902643	47	C	10/03/2025	20:43	-132.661	43.545	0	10.00	0	18.3450	0	32.5090	0	23.283	0	9.920	0	220.0	4	93.1	4	-1E+10	1	-1E+10	1	-1E+10	1	-1E+10	1	-1E+10	1	-1E+10	1
4902643	47	C	10/03/2025	20:43	-132.661	43.545	0	14.80	0	18.3420	0	32.5090	0	23.283	0	14.681	0	220.0	4	93.0	4	-1E+10	1	-1E+10	1	-1E+10	1	-1E+10	1	-1E+10	1	-1E+10	1
4902643	47	C	10/03/2025	20:43	-132.661	43.545	0	24.90	0	18.3330	0	32.5080	0	23.285	0	24.700	0	220.6	4	93.3	4	-1E+10	1	-1E+10	1	-1E+10	1	-1E+10	1	-1E+10	1	-1E+10	1
4902643	47	C	10/03/2025	20:43	-132.661	43.545	0	35.30	0	18.3260	0	32.5070	0	23.287	0	35.015	0	224.2	4	94.8	4	-1E+10	1	-1E+10	1	-1E+10	1	-1E+10	1	-1E+10	1	-1E+10	1
4902643	47	C	10/03/2025	20:43	-132.661	43.545	0	44.80	0	16.7010	0	32.5470	0	23.704	0	44.437	0	246.7	4	101.2	4	-1E+10	1	-1E+10	1	-1E+10	1	-1E+10	1	-1E+10	1	-1E+10	1
4902643	47	C	10/03/2025	20:43	-132.661	43.545	0	55.30	0	12.4960	0	32.5970	0	24.632	0	54.851	0	252.8	4	95.4	4	-1E+10	1	-1E+10	1	-1E+10	1	-1E+10	1	-1E+10	1	-1E+10	1
4902643	47	C	10/03/2025	20:43	-132.661	43.545	0	64.80	0	11.1810	0	32.6560	0	24.920	0	64.273	0	242.5	4	89.0	4	-1E+10	1	-1E+10	1	-1E+10	1	-1E+10	1	-1E+10	1	-1E+10	1
4902643	47	C	10/03/2025	20:43	-132.661	43.545	0	74.60	0	10.6790	0	32.7050	0	25.047	0	73.991	0	238.1	4	86.5	4	-1E+10	1	-1E+10	1	-1E+10	1	-1E+10	1	-1E+10	1	-1E+10	1
4902643	47	C	10/03/2025	20:43	-132.661	43.545	0	85.20	0	10.4390	0	32.7270	0	25.106	0	84.502	0	235.5	4	85.2	4	-1E+10	1	-1E+10	1	-1E+10	1	-1E+10	1	-1E+10	1	-1E+10	1
4902643	47	C	10/03/2025	20:43	-132.661	43.545	0	94.50	0	10.2860	0	32.7250	0	25.130	0	93.724	0	233.7	4	84.3	4	-1E+10	1	-1E+10	1	-1E+10	1	-1E+10	1	-1E+10	1	-1E+10	1
4902643	47	C	10/03/2025	20:43	-132.661	43.545	0	104.50	0	10.0860	0	32.7350	0	25.172	0	103.639	0	228.2	4	81.9	4	-1E+10	1	-1E+10	1	-1E+10	1	-1E+10	1	-1E+10	1	-1E+10	1
4902643	47	C	10/03/2025	20:43	-132.661	43.545	0	114.80	0	9.6790	0	32.8790	0	25.352	0	113.852	0	218.4	4	77.8	4	-1E+10	1	-1E+10	1	-1E+10	1	-1E+10	1	-1E+10	1	-1E+10	1
4902643	47	C	10/03/2025	20:43	-132.661	43.545	0	125.10	0	9.2790	0	33.2090	0	25.674	0	124.064	0	208.7	4	73.9	4	-1E+10	1	-1E+10	1	-1E+10	1	-1E+10	1	-1E+10	1	-1E+10	1
4902643	47	C	10/03/2025	20:43	-132.661	43.545	0	134.80	0	9.0250	0	33.4360	0	25.892	0	133.680	0	202.8	4	71.5	4	-1E+10	1	-1E+10	1	-1E+10	1	-1E+10	1	-1E+10	1	-1E+10	1
4902643	47	C	10/03/2025	20:43	-132.661	43.545	0	145.40	0	8.8620	0	33.5770	0	26.028	0	144.188	0	197.1	4	69.3	4	-1E+10	1	-1E+10	1	-1E+10	1	-1E+10	1	-1E+10	1	-1E+10	1
4902643	47	C	10/03/2025	20:43	-132.661	43.545	0	154.90	0	8.7180	0	33.6840	0	26.135	0	153.606	0	193.1	4	67.7	4	-1E+10	1	-1E+10	1	-1E+10	1	-1E+10	1	-1E+10	1	-1E+10	1
4902643	47	C	10/03/2025	20:43	-132.661	43.545	0	164.60	0	8.5720	0	33.7340	0	26.196	0	163.221	0	190.5	4	66.6	4	-1E+10	1	-1E+10	1	-1E+10	1	-1E+10	1	-1E+10	1	-1E+10	1
4902643	47	C	10/03/2025	20:43	-132.661	43.545	0	174.80	0	8.4300	0	33.7770	0	26.252	0	173.331	0	187.5	4	65.4	4	-1E+10	1	-1E+10	1	-1E+10	1	-1E+10	1	-1E+10	1	-1E+10	1
4902643	47	C	10/03/2025	20:43	-132.661	43.545	0	185.00	0	8.2510	0	33.8090	0	26.304	0	183.441	0	185.2	4	64.3	4	-1E+10	1	-1E+10	1	-1E+10	1	-1E+10	1	-1E+10	1	-1E+10	1
4902643	47	C	10/03/2025	20:43	-132.661	43.545	0	194.80	0	8.0570	0	33.8220	0	26.343	0	193.154	0	182.9	4	63.3	4	-1E+10	1	-1E+10	1	-1E+10	1	-1E+10	1	-1E+10	1	-1E+10	1
4902643	47	C	10/03/2025	20:43	-132.661	43.545	0	209.70	0	7.7510	0	33.8330	0	26.397	0	207.920	0	178.8	4	61.4	4	-1E+10	1	-1E+10	1	-1E+10	1	-1E+10	1	-1E+10	1	-1E+10	1
4902643	47	C	10/03/2025	20:43	-132.661	43.545	0	229.70	0	7.3450	0	33.8420	0	26.462	0	227.739	0	172.6	4	58.8	4	-1E+10	1	-1E+10	1	-1E+10	1	-1E+10	1	-1E+10	1	-1E+10	1
4902643	47	C	10/03/2025	20:43	-132.661	43.545	0	249.80	0	7.0890	0	33.8460	0	26.501	0	247.656	0	163.0	4	55.2	4	-1E+10	1	-1E+10	1	-1E+10	1	-1E+10	1	-1E+10	1	-1E+10	1
4902643	47	C	10/03/2025	20:43	-132.661	43.545	0	269.30	0	6.7740	0	33.8470	0	26.545	0	266.976	0	150.4	4	50.6	4	-1E+10	1	-1E+10	1	-1E+10	1	-1E+10	1	-1E+10	1	-1E+10	1
4902643	47	C	10/03/2025	20:43	-132.661	43.545	0	289.80	0	6.3780	0	33.8460	0	26.596	0	287.285	0	133.2	4	44.4	4	-1E+10	1	-1E+10	1	-1E+10	1	-1E+10	1	-1E+10	1	-1E+10	1
4902643	47	C	10/03/2025	20:43	-132.661	43.545	0	309.50	0	6.0940	0	33.8500	0	26.636	0	306.799	0	118.5	4	39.2	4	-1E+10	1	-1E+10	1	-1E+10	1	-1E+10	1	-1E+10	1	-1E+10	1
4902643	47	C	10/03/2025	20:43	-132.661	43.545	0	329.50	0	5.8440	0	33.8570	0	26.672	0	326.609	0	105.6	4	34.7	4	-1E+10	1	-1E+10	1	-1E+10	1	-1E+10	1	-1E+10	1	-1E+10	1
4902643	47	C	10/03/2025	20:43	-132.661	43.545	0	349.80	0	5.5580	0	33.8690	0	26.717	0	346.714	0	94.2	4	30.8	4	-1E+10	1	-1E+10	1	-1E+10	1	-1E+10	1	-1E+10	1	-1E+10	1
4902643	47	C	10/03/2025	20:43	-132.661	43.545	0	370.10	0	5.3540	0	33.8820	0	26.752	0	366.817	0	86.0	4	28.0	4	-1E+10	1	-1E+10	1	-1E+10	1	-1E+10	1	-1E+10	1	-1E+10	1
4902643	47	C	10/03/2025	20:43	-132.661	43.545	0	389.70	0	5.1890	0	33.8930	0	26.780	0	386.225	0	79.2	4	25.7	4	-1E+10	1	-1E+10	1	-1E+10	1	-1E+10	1	-1E+10	1	-1E+10	1
4902643	47	C	10/03/2025	20:43	-132.661	43.545	0	409.60	0	5.0310	0	33.9110	0	26.812	0	405.928	0	72.6	4	23.5	4	-1E+10	1	-1E+10	1	-1E+10	1	-1E+10	1	-1E+10	1	-1E+10	1
4902643	47	C	10/03/2025	20:43	-132.661	43.545	0	429.90	0	4.8970	0	33.9320	0	26.844	0	426.025	0	66.4	4	21.4	4	-1E+10	1	-1E+10	1	-1E+10	1	-1E+10	1	-1E+10	1	-1E+10	1
4902643	47	C	10/03/2025	20:43	-132.661	43.545	0	450.20	0	4.7600	0	33.9520	0	26.875	0	446.120	0	58.8	4	18.9	4	-1E+10	1	-1E+10	1	-1E+10	1	-1E+10	1	-1E+10	1	-1E+10	1
4902643	47	C	10/03/2025	20:43	-132.661	43.545	0	469.40	0	4.7000	0	33.9760	0	26.901	0	465.124	0	51.0	4	16.4	4	-1E+10	1	-1E+10	1	-1E+10	1	-1E+10	1	-1E+10	1	-1E+10	1
4902643	47	C	10/03/2025	20:43	-132.661	43.545	0	489.50	0	4.7270	0	34.0140	0	26.929	0	485.018	0	41.7	4	13.4	4	-1E+10	1	-1E+10	1	-1E+10	1	-1E+10	1	-1E+10	1	-1E+10	1
4902643	47	C	10/03/2025	20:43	-132.661	43.545	0	510.00	0	4.6850	0	34.0420	0	26.956	0	505.305	0	36.0	4	11.5	4	-1E+10	1	-1E+10	1	-1E+10	1	-1E+10	1	-1E+10	1	-1E+10	1
4902643	47	C	10/03/2025	20:43	-132.661	43.545	0	529.40	0	4.5870	0	34.0590	0	26.980	0	524.502	0	31.9	4	10.2	4	-1E+10	1	-1E+10	1	-1E+10	1	-1E+10	1	-1E+10	1	-1E+10	1
4902643	47	C	10/03/2025	20:43	-132.661	43.545	0	549.60	0	4.5420	0	34.0840	0	27.005	0	544.489	0	28.1	4	9.0	4	-1E+10	1	-1E+10	1	-1E+10	1	-1E+10	1	-1E+10	1	-1E+10	1
4902643	47	C	10/03/2025	20:43	-132.661	43.545	0	569.50	0	4.4360	0	34.0890	0	27.020	0	564.177	0	26.9	4	8.6	4	-1E+10	1	-1E+10	1	-1E+10	1	-1E+10	1	-1E+10	1	-1E+10	1
4902643	47	C	10/03/2025	20:43	-132.661	43.545	0	589.60	0	4.3840	0	34.1040	0	27.038	0	584.061	0	23.9	4	7.6	4	-1E+10	1	-1E+10	1	-1E+10	1	-1E+10	1	-1E+10	1	-1E+10	1
4902643	47	C	10/03/2025	20:43	-132.661	43.545	0	609.80	0	4.3470	0	34.1240	0	27.058	0	604.042	0	20.8	4	6.6	4	-1E+10	1	-1E+10	1	-1E+10	1	-1E+10	1	-1E+10	1	-1E+10	1
4902643	47	C	10/03/2025	20:43	-132.661	43.545	0	629.90	0	4.2760	0	34.1380	0	27.077	0	623.922	0	18.9	4	6.0	4	-1E+10	1	-1E+10	1	-1E+10	1	-1E+10	1	-1E+10	1	-1E+10	1
4902643	47	C	10/03/2025	20:43	-132.661	43.545	0	650.60	0	4.2580	0	34.1570	0	27.094	0	644.393	0	15.9	4	5.0	4	-1E+10	1	-1E+10	1	-1E+10	1	-1E+10	1	-1E+10	1	-1E+10	1
4902643	47	C	10/03/2025	20:43	-132.661	43.545	0	671.10	0	4.2150	0	34.1780	0	27.115	0	664.665	0	13.7	4	4.4	4	-1E+10	1	-1E+10	1	-1E+10	1	-1E+10	1	-1E+10	1	-1E+10	1
4902643	47	C	10/03/2025	20:43	-132.661	43.545	0	690.00	0	4.1610	0	34.1970	0	27.136	0	683.353	0	12.2	4	3.9	4	-1E+10	1	-1E+10	1	-1E+10	1	-1E+10	1	-1E+10	1	-1E+10	1
4902643	47	C	10/03/2025	20:43	-132.661	43.545	0	710.20	0	4.1020	0	34.2130	0	27.155	0	703.324	0	11.0	4	3.5	4	-1E+10	1	-1E+10	1	-1E+10	1	-1E+10	1	-1E+10	1	-1E+10	1
4902643	47	C	10/03/2025	20:43	-132.661	43.545	0	729.40	0	4.0480	0	34.2280	0	27.173	0	722.305	0	9.9	4	3.1	4	-1E+10	1	-1E+10	1	-1E+10	1	-1E+10	1	-1E+10	1	-1E+10	1
4902643	47	C	10/03/2025	20:43	-132.661	43.545	0	749.90	0	4.0060	0	34.2460	0	27.191	0	742.569	0	9.0	4	2.8	4	-1E+10	1	-1E+10	1	-1E+10	1	-1E+10	1	-1E+10	1	-1E+10	1
4902643	47	C	10/03/2025	20:43	-132.661	43.545	0	770.30	0	3.9530	0	34.2560	0	27.205	0	762.733	0	8.4	4	2.7	4	-1E+10	1	-1E+10	1	-1E+10	1	-1E+10	1	-1E+10	1	-1E+10	1
4902643	47	C	10/03/2025	20:43	-132.661	43.545	0	790.00	0	3.8870	0	34.2650	0	27.219	0	782.202	0	8.0	4	2.5	4	-1E+10	1	-1E+10	1	-1E+10	1	-1E+10	1	-1E+10	1	-1E+10	1
4902643	47	C	10/03/2025	20:43	-132.661	43.545	0	809.60	0	3.8580	0	34.2780	0	27.232	0	801.571	0	7.4	4	2.3	4	-1E+10	1	-1E+10	1	-1E+10	1	-1E+10	1	-1E+10	1	-1E+10	1
4902643	47	C	10/03/2025	20:43	-132.661	43.545	0	829.80	0	3.8580	0	34.2970	0	27.248	0	821.531	0	6.9	4	2.2	4	-1E+10	1	-1E+10	1	-1E+10	1	-1E+10	1	-1E+10	1	-1E+10	1
4902643	47	C	10/03/2025	20:43	-132.661	43.545	0	850.00	0	3.8290	0	34.3100	0	27.261	0	841.489	0	6.6	4	2.1	4	-1E+10	1	-1E+10	1	-1E+10	1	-1E+10	1	-1E+10	1	-1E+10	1
4902643	47	C	10/03/2025	20:43	-132.661	43.545	0	870.30	0	3.7710	0	34.3190	0	27.274	0	861.544	0	6.5	4	2.0	4	-1E+10	1	-1E+10	1	-1E+10	1	-1E+10	1	-1E+10	1	-1E+10	1
4902643	47	C	10/03/2025	20:43	-132.661	43.545	0	890.40	0	3.7000	0	34.3240	0	27.285	0	881.400	0	6.4	4	2.0	4	-1E+10	1	-1E+10	1	-1E+10	1	-1E+10	1	-1E+10	1	-1E+10	1
4902643	47	C	10/03/2025	20:43	-132.661	43.545	0	909.80	0	3.6210	0	34.3340	0	27.301	0	900.562	0	6.4	4	2.0	4	-1E+10	1	-1E+10	1	-1E+10	1	-1E+10	1	-1E+10	1	-1E+10	1
4902643	47	C	10/03/2025	20:43	-132.661	43.545	0	929.90	0	3.5700	0	34.3440	0	27.314	0	920.413	0	6.4	4	2.0	4	-1E+10	1	-1E+10	1	-1E+10	1	-1E+10	1	-1E+10	1	-1E+10	1
4902643	47	C	10/03/2025	20:43	-132.661	43.545	0	949.80	0	3.5380	0	34.3570	0	27.328	0	940.066	0	6.5	4	2.0	4	-1E+10	1	-1E+10	1	-1E+10	1	-1E+10	1	-1E+10	1	-1E+10	1
4902643	47	C	10/03/2025	20:43	-132.661	43.545	0	969.90	0	3.5010	0	34.3700	0	27.342	0	959.914	0	6.6	4	2.1	4	-1E+10	1	-1E+10	1	-1E+10	1	-1E+10	1	-1E+10	1	-1E+10	1
4902643	47	C	10/03/2025	20:43	-132.661	43.545	0	990.20	0	3.4740	0	34.3800	0	27.352	0	979.957	0	6.8	4	2.1	4	-1E+10	1	-1E+10	1	-1E+10	1	-1E+10	1	-1E+10	1	-1E+10	1
4902643	47	C	10/03/2025	20:43	-132.661	43.545	0	1010.20	0	3.4280	0	34.3840	0	27.360	0	999.703	0	7.0	4	2.2	4	-1E+10	1	-1E+10	1	-1E+10	1	-1E+10	1	-1E+10	1	-1E+10	1
4902643	47	C	10/03/2025	20:43	-132.661	43.545	0	1030.40	0	3.3960	0	34.3950	0	27.372	0	1019.644	0	7.5	4	2.3	4	-1E+10	1	-1E+10	1	-1E+10	1	-1E+10	1	-1E+10	1	-1E+10	1
4902643	47	C	10/03/2025	20:43	-132.661	43.545	0	1049.90	0	3.3480	0	34.4060	0	27.386	0	1038.892	0	8.0	4	2.5	4	-1E+10	1	-1E+10	1	-1E+10	1	-1E+10	1	-1E+10	1	-1E+10	1
4902643	47	C	10/03/2025	20:43	-132.661	43.545	0	1069.70	0	3.3060	0	34.4150	0	27.397	0	1058.434	0	8.4	4	2.6	4	-1E+10	1	-1E+10	1	-1E+10	1	-1E+10	1	-1E+10	1	-1E+10	1
4902643	47	C	10/03/2025	20:43	-132.661	43.545	0	1089.50	0	3.2690	0	34.4210	0	27.405	0	1077.975	0	8.9	4	2.8	4	-1E+10	1	-1E+10	1	-1E+10	1	-1E+10	1	-1E+10	1	-1E+10	1
4902643	47	C	10/03/2025	20:43	-132.661	43.545	0	1109.80	0	3.2230	0	34.4290	0	27.416	0	1098.007	0	9.6	4	3.0	4	-1E+10	1	-1E+10	1	-1E+10	1	-1E+10	1	-1E+10	1	-1E+10	1
4902643	47	C	10/03/2025	20:43	-132.661	43.545	0	1130.00	0	3.1850	0	34.4370	0	27.426	0	1117.939	0	10.4	4	3.2	4	-1E+10	1	-1E+10	1	-1E+10	1	-1E+10	1	-1E+10	1	-1E+10	1
4902643	47	C	10/03/2025	20:43	-132.661	43.545	0	1150.00	0	3.1560	0	34.4450	0	27.435	0	1137.671	0	11.2	4	3.5	4	-1E+10	1	-1E+10	1	-1E+10	1	-1E+10	1	-1E+10	1	-1E+10	1
4902643	47	C	10/03/2025	20:43	-132.661	43.545	0	1169.70	0	3.1220	0	34.4500	0	27.442	0	1157.106	0	11.7	4	3.6	4	-1E+10	1	-1E+10	1	-1E+10	1	-1E+10	1	-1E+10	1	-1E+10	1
4902643	47	C	10/03/2025	20:43	-132.661	43.545	0	1189.70	0	3.0900	0	34.4550	0	27.449	0	1176.834	0	12.3	4	3.8	4	-1E+10	1	-1E+10	1	-1E+10	1	-1E+10	1	-1E+10	1	-1E+10	1
4902643	47	C	10/03/2025	20:43	-132.661	43.545	0	1209.70	0	3.0390	0	34.4600	0	27.458	0	1196.561	0	12.7	4	3.9	4	-1E+10	1	-1E+10	1	-1E+10	1	-1E+10	1	-1E+10	1	-1E+10	1
4902643	47	C	10/03/2025	20:43	-132.661	43.545	0	1230.20	0	3.0100	0	34.4630	0	27.463	0	1216.779	0	13.1	4	4.0	4	-1E+10	1	-1E+10	1	-1E+10	1	-1E+10	1	-1E+10	1	-1E+10	1
4902643	47	C	10/03/2025	20:43	-132.661	43.545	0	1250.30	0	2.9810	0	34.4680	0	27.470	0	1236.601	0	13.8	4	4.3	4	-1E+10	1	-1E+10	1	-1E+10	1	-1E+10	1	-1E+10	1	-1E+10	1
4902643	47	C	10/03/2025	20:43	-132.661	43.545	0	1270.30	0	2.9440	0	34.4720	0	27.477	0	1256.322	0	14.3	4	4.4	4	-1E+10	1	-1E+10	1	-1E+10	1	-1E+10	1	-1E+10	1	-1E+10	1
4902643	47	C	10/03/2025	20:43	-132.661	43.545	0	1290.00	0	2.9110	0	34.4760	0	27.483	0	1275.746	0	15.2	4	4.7	4	-1E+10	1	-1E+10	1	-1E+10	1	-1E+10	1	-1E+10	1	-1E+10	1
4902643	47	C	10/03/2025	20:43	-132.661	43.545	0	1310.00	0	2.8680	0	34.4810	0	27.491	0	1295.463	0	16.1	4	5.0	4	-1E+10	1	-1E+10	1	-1E+10	1	-1E+10	1	-1E+10	1	-1E+10	1
4902643	47	C	10/03/2025	20:43	-132.661	43.545	0	1330.30	0	2.8290	0	34.4860	0	27.498	0	1315.475	0	17.1	4	5.3	4	-1E+10	1	-1E+10	1	-1E+10	1	-1E+10	1	-1E+10	1	-1E+10	1
4902643	47	C	10/03/2025	20:43	-132.661	43.545	0	1350.40	0	2.7710	0	34.4930	0	27.509	0	1335.287	0	18.4	4	5.6	4	-1E+10	1	-1E+10	1	-1E+10	1	-1E+10	1	-1E+10	1	-1E+10	1
4902643	47	C	10/03/2025	20:43	-132.661	43.545	0	1370.10	0	2.7330	0	34.4980	0	27.517	0	1354.703	0	19.4	4	5.9	4	-1E+10	1	-1E+10	1	-1E+10	1	-1E+10	1	-1E+10	1	-1E+10	1
4902643	47	C	10/03/2025	20:43	-132.661	43.545	0	1390.30	0	2.7060	0	34.5020	0	27.522	0	1374.611	0	20.4	4	6.2	4	-1E+10	1	-1E+10	1	-1E+10	1	-1E+10	1	-1E+10	1	-1E+10	1
4902643	47	C	10/03/2025	20:43	-132.661	43.545	0	1410.10	0	2.6840	0	34.5060	0	27.527	0	1394.122	0	21.3	4	6.5	4	-1E+10	1	-1E+10	1	-1E+10	1	-1E+10	1	-1E+10	1	-1E+10	1
4902643	47	C	10/03/2025	20:43	-132.661	43.545	0	1429.90	0	2.6560	0	34.5100	0	27.533	0	1413.631	0	22.2	4	6.8	4	-1E+10	1	-1E+10	1	-1E+10	1	-1E+10	1	-1E+10	1	-1E+10	1
4902643	47	C	10/03/2025	20:43	-132.661	43.545	0	1450.20	0	2.6180	0	34.5130	0	27.539	0	1433.631	0	23.0	4	7.0	4	-1E+10	1	-1E+10	1	-1E+10	1	-1E+10	1	-1E+10	1	-1E+10	1
4902643	47	C	10/03/2025	20:43	-132.661	43.545	0	1470.60	0	2.5960	0	34.5160	0	27.543	0	1453.728	0	24.0	4	7.3	4	-1E+10	1	-1E+10	1	-1E+10	1	-1E+10	1	-1E+10	1	-1E+10	1
4902643	47	C	10/03/2025	20:43	-132.661	43.545	0	1490.00	0	2.5320	0	34.5220	0	27.554	0	1472.838	0	25.7	4	7.9	4	-1E+10	1	-1E+10	1	-1E+10	1	-1E+10	1	-1E+10	1	-1E+10	1
4902643	47	C	10/03/2025	20:43	-132.661	43.545	0	1510.00	0	2.4780	0	34.5270	0	27.562	0	1492.537	0	27.3	4	8.3	4	-1E+10	1	-1E+10	1	-1E+10	1	-1E+10	1	-1E+10	1	-1E+10	1
4902643	47	C	10/03/2025	20:43	-132.661	43.545	0	1530.00	0	2.4470	0	34.5310	0	27.568	0	1512.234	0	28.1	4	8.6	4	-1E+10	1	-1E+10	1	-1E+10	1	-1E+10	1	-1E+10	1	-1E+10	1
4902643	47	C	10/03/2025	20:43	-132.661	43.545	0	1549.80	0	2.4260	0	34.5320	0	27.571	0	1531.733	0	28.9	4	8.8	4	-1E+10	1	-1E+10	1	-1E+10	1	-1E+10	1	-1E+10	1	-1E+10	1
4902643	47	C	10/03/2025	20:43	-132.661	43.545	0	1570.10	0	2.3800	0	34.5360	0	27.578	0	1551.721	0	30.0	4	9.1	4	-1E+10	1	-1E+10	1	-1E+10	1	-1E+10	1	-1E+10	1	-1E+10	1
4902643	47	C	10/03/2025	20:43	-132.661	43.545	0	1590.00	0	2.3410	0	34.5400	0	27.584	0	1571.315	0	31.6	4	9.6	4	-1E+10	1	-1E+10	1	-1E+10	1	-1E+10	1	-1E+10	1	-1E+10	1
4902643	47	C	10/03/2025	20:43	-132.661	43.545	0	1610.20	0	2.3220	0	34.5440	0	27.589	0	1591.201	0	33.1	4	10.0	4	-1E+10	1	-1E+10	1	-1E+10	1	-1E+10	1	-1E+10	1	-1E+10	1
4902643	47	C	10/03/2025	20:43	-132.661	43.545	0	1630.80	0	2.2910	0	34.5480	0	27.595	0	1611.480	0	34.2	4	10.4	4	-1E+10	1	-1E+10	1	-1E+10	1	-1E+10	1	-1E+10	1	-1E+10	1
4902643	47	C	10/03/2025	20:43	-132.661	43.545	0	1649.40	0	2.2650	0	34.5500	0	27.599	0	1629.788	0	34.8	4	10.6	4	-1E+10	1	-1E+10	1	-1E+10	1	-1E+10	1	-1E+10	1	-1E+10	1
4902643	47	C	10/03/2025	20:43	-132.661	43.545	0	1669.70	0	2.2510	0	34.5520	0	27.602	0	1649.768	0	35.7	4	10.8	4	-1E+10	1	-1E+10	1	-1E+10	1	-1E+10	1	-1E+10	1	-1E+10	1
4902643	47	C	10/03/2025	20:43	-132.661	43.545	0	1689.90	0	2.2220	0	34.5560	0	27.607	0	1669.647	0	37.4	4	11.3	4	-1E+10	1	-1E+10	1	-1E+10	1	-1E+10	1	-1E+10	1	-1E+10	1
4902643	47	C	10/03/2025	20:43	-132.661	43.545	0	1710.00	0	2.1900	0	34.5600	0	27.613	0	1689.426	0	38.8	4	11.8	4	-1E+10	1	-1E+10	1	-1E+10	1	-1E+10	1	-1E+10	1	-1E+10	1
4902643	47	C	10/03/2025	20:43	-132.661	43.545	0	1729.60	0	2.1650	0	34.5630	0	27.618	0	1708.711	0	40.3	4	12.2	4	-1E+10	1	-1E+10	1	-1E+10	1	-1E+10	1	-1E+10	1	-1E+10	1
4902643	47	C	10/03/2025	20:43	-132.661	43.545	0	1750.40	0	2.1330	0	34.5680	0	27.624	0	1729.176	0	41.9	4	12.7	4	-1E+10	1	-1E+10	1	-1E+10	1	-1E+10	1	-1E+10	1	-1E+10	1
4902643	47	C	10/03/2025	20:43	-132.661	43.545	0	1769.70	0	2.1130	0	34.5700	0	27.628	0	1748.162	0	43.1	4	13.0	4	-1E+10	1	-1E+10	1	-1E+10	1	-1E+10	1	-1E+10	1	-1E+10	1
4902643	47	C	10/03/2025	20:43	-132.661	43.545	0	1789.90	0	2.0940	0	34.5740	0	27.632	0	1768.032	0	44.5	4	13.4	4	-1E+10	1	-1E+10	1	-1E+10	1	-1E+10	1	-1E+10	1	-1E+10	1
4902643	47	C	10/03/2025	20:43	-132.661	43.545	0	1810.10	0	2.0720	0	34.5770	0	27.637	0	1787.901	0	45.6	4	13.8	4	-1E+10	1	-1E+10	1	-1E+10	1	-1E+10	1	-1E+10	1	-1E+10	1
4902643	47	C	10/03/2025	20:43	-132.661	43.545	0	1830.00	0	2.0630	0	34.5780	0	27.638	0	1807.472	0	46.2	4	14.0	4	-1E+10	1	-1E+10	1	-1E+10	1	-1E+10	1	-1E+10	1	-1E+10	1
4902643	47	C	10/03/2025	20:43	-132.661	43.545	0	1849.70	0	2.0470	0	34.5800	0	27.641	0	1826.845	0	47.5	4	14.3	4	-1E+10	1	-1E+10	1	-1E+10	1	-1E+10	1	-1E+10	1	-1E+10	1
4902643	47	C	10/03/2025	20:43	-132.661	43.545	0	1870.10	0	2.0300	0	34.5830	0	27.645	0	1846.904	0	48.6	4	14.7	4	-1E+10	1	-1E+10	1	-1E+10	1	-1E+10	1	-1E+10	1	-1E+10	1
4902643	47	C	10/03/2025	20:43	-132.661	43.545	0	1890.00	0	2.0130	0	34.5860	0	27.649	0	1866.470	0	49.8	4	15.0	4	-1E+10	1	-1E+10	1	-1E+10	1	-1E+10	1	-1E+10	1	-1E+10	1
4902643	47	C	10/03/2025	20:43	-132.661	43.545	0	1910.00	0	1.9970	0	34.5880	0	27.652	0	1886.132	0	50.7	4	15.3	4	-1E+10	1	-1E+10	1	-1E+10	1	-1E+10	1	-1E+10	1	-1E+10	1
4902643	47	C	10/03/2025	20:43	-132.661	43.545	0	1930.10	0	1.9880	0	34.5900	0	27.654	0	1905.891	0	52.0	4	15.7	4	-1E+10	1	-1E+10	1	-1E+10	1	-1E+10	1	-1E+10	1	-1E+10	1
4902643	47	C	10/03/2025	20:43	-132.661	43.545	0	1949.60	0	1.9790	0	34.5930	0	27.658	0	1925.059	0	53.0	4	16.0	4	-1E+10	1	-1E+10	1	-1E+10	1	-1E+10	1	-1E+10	1	-1E+10	1
4902643	47	C	10/03/2025	20:43	-132.661	43.545	0	1970.00	0	1.9650	0	34.5950	0	27.660	0	1945.109	0	54.1	4	16.3	4	-1E+10	1	-1E+10	1	-1E+10	1	-1E+10	1	-1E+10	1	-1E+10	1
4902643	47	C	10/03/2025	20:43	-132.661	43.545	0	1990.10	0	1.9520	0	34.5980	0	27.664	0	1964.862	0	55.3	4	16.6	4	-1E+10	1	-1E+10	1	-1E+10	1	-1E+10	1	-1E+10	1	-1E+10	1
4902643	47	C	10/03/2025	20:43	-132.661	43.545	0	2010.00	0	1.9410	0	34.5990	4	27.666	0	1984.417	0	56.2	4	16.9	4	-1E+10	1	-1E+10	1	-1E+10	1	-1E+10	1	-1E+10	1	-1E+10	1
4902643	47	C	10/03/2025	20:43	-132.661	43.545	0	2030.60	0	1.9320	0	34.6010	4	27.668	0	2004.658	0	56.9	4	17.1	4	-1E+10	1	-1E+10	1	-1E+10	1	-1E+10	1	-1E+10	1	-1E+10	1
4902643	47	C	10/03/2025	20:43	-132.661	43.545	0	2049.90	0	1.9210	0	34.6020	4	27.670	0	2023.620	0	57.7	4	17.4	4	-1E+10	1	-1E+10	1	-1E+10	1	-1E+10	1	-1E+10	1	-1E+10	1
4902643	47	C	10/03/2025	20:43	-132.661	43.545	0	2069.90	0	1.9130	0	34.6040	4	27.672	0	2043.268	0	58.3	4	17.5	4	-1E+10	1	-1E+10	1	-1E+10	1	-1E+10	1	-1E+10	1	-1E+10	1
4902643	47	C	10/03/2025	20:43	-132.661	43.545	0	2090.10	0	1.9070	0	34.6050	4	27.674	0	2063.111	0	58.9	4	17.7	4	-1E+10	1	-1E+10	1	-1E+10	1	-1E+10	1	-1E+10	1	-1E+10	1
4902643	47	C	10/03/2025	20:43	-132.661	43.545	0	2110.00	0	1.8990	0	34.6060	4	27.675	0	2082.657	0	59.5	4	17.9	4	-1E+10	1	-1E+10	1	-1E+10	1	-1E+10	1	-1E+10	1	-1E+10	1
4902643	47	C	10/03/2025	20:43	-132.661	43.545	0	2129.70	0	1.8940	0	34.6070	4	27.676	0	2102.004	0	60.0	4	18.0	4	-1E+10	1	-1E+10	1	-1E+10	1	-1E+10	1	-1E+10	1	-1E+10	1
4902643	47	C	10/03/2025	20:43	-132.661	43.545	0	2149.90	0	1.8900	0	34.6080	4	27.678	0	2121.841	0	60.6	4	18.2	4	-1E+10	1	-1E+10	1	-1E+10	1	-1E+10	1	-1E+10	1	-1E+10	1
4902643	47	C	10/03/2025	20:43	-132.661	43.545	0	2170.40	0	1.8840	0	34.6090	4	27.679	0	2141.971	0	61.2	4	18.4	4	-1E+10	1	-1E+10	1	-1E+10	1	-1E+10	1	-1E+10	1	-1E+10	1
4902643	47	C	10/03/2025	20:43	-132.661	43.545	0	2190.20	0	1.8740	0	34.6110	4	27.681	0	2161.412	0	62.1	4	18.7	4	-1E+10	1	-1E+10	1	-1E+10	1	-1E+10	1	-1E+10	1	-1E+10	1
4902643	47	C	10/03/2025	20:43	-132.661	43.545	0	2210.10	0	1.8660	0	34.6120	4	27.683	0	2180.949	0	62.8	4	18.9	4	-1E+10	1	-1E+10	1	-1E+10	1	-1E+10	1	-1E+10	1	-1E+10	1
4902643	47	C	10/03/2025	20:43	-132.661	43.545	0	2229.70	0	1.8590	0	34.6130	4	27.684	0	2200.190	0	63.5	4	19.1	4	-1E+10	1	-1E+10	1	-1E+10	1	-1E+10	1	-1E+10	1	-1E+10	1
4902643	47	C	10/03/2025	20:43	-132.661	43.545	0	2249.90	0	1.8480	0	34.6150	4	27.687	0	2220.018	0	64.5	4	19.4	4	-1E+10	1	-1E+10	1	-1E+10	1	-1E+10	1	-1E+10	1	-1E+10	1
4902643	47	C	10/03/2025	20:43	-132.661	43.545	0	2270.10	0	1.8390	0	34.6160	4	27.689	0	2239.844	0	65.2	4	19.6	4	-1E+10	1	-1E+10	1	-1E+10	1	-1E+10	1	-1E+10	1	-1E+10	1
4902643	47	C	10/03/2025	20:43	-132.661	43.545	0	2289.90	0	1.8320	0	34.6170	4	27.690	0	2259.275	0	66.0	4	19.8	4	-1E+10	1	-1E+10	1	-1E+10	1	-1E+10	1	-1E+10	1	-1E+10	1
4902643	47	C	10/03/2025	20:43	-132.661	43.545	0	2309.90	0	1.8220	0	34.6190	4	27.692	0	2278.902	0	67.0	4	20.1	4	-1E+10	1	-1E+10	1	-1E+10	1	-1E+10	1	-1E+10	1	-1E+10	1
4902643	47	C	10/03/2025	20:43	-132.661	43.545	0	2329.80	0	1.8110	0	34.6200	4	27.694	0	2298.428	0	68.1	4	20.5	4	-1E+10	1	-1E+10	1	-1E+10	1	-1E+10	1	-1E+10	1	-1E+10	1
4902643	47	C	10/03/2025	20:43	-132.661	43.545	0	2350.00	0	1.8010	0	34.6220	4	27.697	0	2318.247	0	69.0	4	20.7	4	-1E+10	1	-1E+10	1	-1E+10	1	-1E+10	1	-1E+10	1	-1E+10	1
4902643	47	C	10/03/2025	20:43	-132.661	43.545	0	2370.20	0	1.7920	0	34.6230	4	27.698	0	2338.064	0	70.0	4	21.0	4	-1E+10	1	-1E+10	1	-1E+10	1	-1E+10	1	-1E+10	1	-1E+10	1
4902643	47	C	10/03/2025	20:43	-132.661	43.545	0	2389.80	0	1.7800	0	34.6250	4	27.701	0	2357.290	0	71.0	4	21.3	4	-1E+10	1	-1E+10	1	-1E+10	1	-1E+10	1	-1E+10	1	-1E+10	1
4902643	47	C	10/03/2025	20:43	-132.661	43.545	0	2409.60	0	1.7740	0	34.6260	4	27.702	0	2376.712	0	71.7	4	21.5	4	-1E+10	1	-1E+10	1	-1E+10	1	-1E+10	1	-1E+10	1	-1E+10	1
4902643	47	C	10/03/2025	20:43	-132.661	43.545	0	2430.10	0	1.7650	0	34.6270	4	27.704	0	2396.817	0	72.5	4	21.8	4	-1E+10	1	-1E+10	1	-1E+10	1	-1E+10	1	-1E+10	1	-1E+10	1
4902643	47	C	10/03/2025	20:43	-132.661	43.545	0	2449.80	0	1.7610	0	34.6280	4	27.705	0	2416.137	0	73.0	4	21.9	4	-1E+10	1	-1E+10	1	-1E+10	1	-1E+10	1	-1E+10	1	-1E+10	1
4902643	47	C	10/03/2025	20:43	-132.661	43.545	0	2470.20	0	1.7570	0	34.6290	4	27.706	0	2436.141	0	73.6	4	22.1	4	-1E+10	1	-1E+10	1	-1E+10	1	-1E+10	1	-1E+10	1	-1E+10	1
4902643	47	C	10/03/2025	20:43	-132.661	43.545	0	2490.30	0	1.7510	0	34.6300	4	27.708	0	2455.849	0	74.2	4	22.3	4	-1E+10	1	-1E+10	1	-1E+10	1	-1E+10	1	-1E+10	1	-1E+10	1
4902643	47	C	10/03/2025	20:43	-132.661	43.545	0	2510.00	0	1.7470	0	34.6300	4	27.708	0	2475.163	0	74.7	4	22.4	4	-1E+10	1	-1E+10	1	-1E+10	1	-1E+10	1	-1E+10	1	-1E+10	1
4902643	47	C	10/03/2025	20:43	-132.661	43.545	0	2530.00	0	1.7450	0	34.6310	4	27.709	0	2494.769	0	75.0	4	22.5	4	-1E+10	1	-1E+10	1	-1E+10	1	-1E+10	1	-1E+10	1	-1E+10	1
4902643	47	C	10/03/2025	20:43	-132.661	43.545	0	2549.80	0	1.7430	0	34.6310	4	27.709	0	2514.178	0	75.4	4	22.6	4	-1E+10	1	-1E+10	1	-1E+10	1	-1E+10	1	-1E+10	1	-1E+10	1
4902643	47	C	10/03/2025	20:43	-132.661	43.545	0	2569.70	0	1.7390	0	34.6320	4	27.711	0	2533.683	0	75.9	4	22.7	4	-1E+10	1	-1E+10	1	-1E+10	1	-1E+10	1	-1E+10	1	-1E+10	1
4902643	47	C	10/03/2025	20:43	-132.661	43.545	0	2590.00	0	1.7330	0	34.6330	4	27.712	0	2553.578	0	76.6	4	23.0	4	-1E+10	1	-1E+10	1	-1E+10	1	-1E+10	1	-1E+10	1	-1E+10	1
4902643	47	C	10/03/2025	20:43	-132.661	43.545	0	2610.20	0	1.7270	0	34.6330	4	27.713	0	2573.373	0	77.3	4	23.2	4	-1E+10	1	-1E+10	1	-1E+10	1	-1E+10	1	-1E+10	1	-1E+10	1
4902643	47	C	10/03/2025	20:43	-132.661	43.545	0	2630.20	0	1.7200	0	34.6340	4	27.714	0	2592.971	0	78.2	4	23.4	4	-1E+10	1	-1E+10	1	-1E+10	1	-1E+10	1	-1E+10	1	-1E+10	1
4902643	47	C	10/03/2025	20:43	-132.661	43.545	0	2650.10	0	1.7090	0	34.6360	4	27.717	0	2612.469	0	79.2	4	23.7	4	-1E+10	1	-1E+10	1	-1E+10	1	-1E+10	1	-1E+10	1	-1E+10	1
4902643	47	C	10/03/2025	20:43	-132.661	43.545	0	2670.00	0	1.7030	0	34.6360	4	27.717	0	2631.965	0	80.0	4	23.9	4	-1E+10	1	-1E+10	1	-1E+10	1	-1E+10	1	-1E+10	1	-1E+10	1
4902643	47	C	10/03/2025	20:43	-132.661	43.545	0	2689.60	0	1.6940	0	34.6380	4	27.720	0	2651.165	0	80.9	4	24.2	4	-1E+10	1	-1E+10	1	-1E+10	1	-1E+10	1	-1E+10	1	-1E+10	1
4902643	47	C	10/03/2025	20:43	-132.661	43.545	0	2709.90	0	1.6840	0	34.6390	4	27.721	0	2671.049	0	82.1	4	24.6	4	-1E+10	1	-1E+10	1	-1E+10	1	-1E+10	1	-1E+10	1	-1E+10	1
4902643	47	C	10/03/2025	20:43	-132.661	43.545	0	2729.80	0	1.6730	0	34.6400	4	27.723	0	2690.540	0	83.1	4	24.9	4	-1E+10	1	-1E+10	1	-1E+10	1	-1E+10	1	-1E+10	1	-1E+10	1
4902643	47	C	10/03/2025	20:43	-132.661	43.545	0	2749.80	0	1.6690	0	34.6410	4	27.724	0	2710.127	0	83.7	4	25.0	4	-1E+10	1	-1E+10	1	-1E+10	1	-1E+10	1	-1E+10	1	-1E+10	1
4902643	47	C	10/03/2025	20:43	-132.661	43.545	0	2769.80	0	1.6710	0	34.6410	4	27.724	0	2729.712	0	83.7	4	25.1	4	-1E+10	1	-1E+10	1	-1E+10	1	-1E+10	1	-1E+10	1	-1E+10	1
4902643	47	C	10/03/2025	20:43	-132.661	43.545	0	2790.70	0	1.6720	0	34.6410	4	27.724	0	2750.176	0	83.9	4	25.1	4	-1E+10	1	-1E+10	1	-1E+10	1	-1E+10	1	-1E+10	1	-1E+10	1
4902643	47	C	10/03/2025	20:43	-132.661	43.545	0	2809.60	0	1.6730	0	34.6410	4	27.724	0	2768.681	0	83.9	4	25.1	4	-1E+10	1	-1E+10	1	-1E+10	1	-1E+10	1	-1E+10	1	-1E+10	1
4902643	47	C	10/03/2025	20:43	-132.661	43.545	0	2830.90	0	1.6750	0	34.6410	4	27.724	0	2789.533	0	84.0	4	25.1	4	-1E+10	1	-1E+10	1	-1E+10	1	-1E+10	1	-1E+10	1	-1E+10	1
4902643	47	C	10/03/2025	20:43	-132.661	43.545	0	2850.30	0	1.6780	0	34.6410	4	27.724	0	2808.524	0	84.0	4	25.1	4	-1E+10	1	-1E+10	1	-1E+10	1	-1E+10	1	-1E+10	1	-1E+10	1
4902643	47	C	10/03/2025	20:43	-132.661	43.545	0	2869.80	0	1.6770	0	34.6420	4	27.725	0	2827.611	0	84.4	4	25.2	4	-1E+10	1	-1E+10	1	-1E+10	1	-1E+10	1	-1E+10	1	-1E+10	1
4902643	47	C	10/03/2025	20:43	-132.661	43.545	0	2889.80	0	1.6760	0	34.6420	4	27.725	0	2847.185	0	84.6	4	25.3	4	-1E+10	1	-1E+10	1	-1E+10	1	-1E+10	1	-1E+10	1	-1E+10	1
4902643	47	C	10/03/2025	20:43	-132.661	43.545	0	2909.70	0	1.6740	0	34.6420	4	27.726	0	2866.660	0	85.0	4	25.4	4	-1E+10	1	-1E+10	1	-1E+10	1	-1E+10	1	-1E+10	1	-1E+10	1
4902643	47	C	10/03/2025	20:43	-132.661	43.545	0	2929.90	0	1.6760	0	34.6420	4	27.726	0	2886.427	0	84.9	4	25.4	4	-1E+10	1	-1E+10	1	-1E+10	1	-1E+10	1	-1E+10	1	-1E+10	1
4902643	47	C	10/03/2025	20:43	-132.661	43.545	0	2950.60	0	1.6780	0	34.6420	4	27.726	0	2906.681	0	85.2	4	25.5	4	-1E+10	1	-1E+10	1	-1E+10	1	-1E+10	1	-1E+10	1	-1E+10	1
4902643	47	C	10/03/2025	20:43	-132.661	43.545	0	2970.50	0	1.6750	0	34.6430	4	27.727	0	2926.150	0	85.9	4	25.7	4	-1E+10	1	-1E+10	1	-1E+10	1	-1E+10	1	-1E+10	1	-1E+10	1
4902643	47	C	10/03/2025	20:43	-132.661	43.545	0	2990.00	0	1.6700	0	34.6440	4	27.728	0	2945.227	0	86.8	4	26.0	4	-1E+10	1	-1E+10	1	-1E+10	1	-1E+10	1	-1E+10	1	-1E+10	1
4902643	47	C	10/03/2025	20:43	-132.661	43.545	0	3010.50	0	1.6560	0	34.6460	4	27.731	0	2965.279	0	88.1	4	26.4	4	-1E+10	1	-1E+10	1	-1E+10	1	-1E+10	1	-1E+10	1	-1E+10	1
4902643	47	C	10/03/2025	20:43	-132.661	43.545	0	3029.90	0	1.6550	0	34.6460	4	27.731	0	2984.255	0	88.1	4	26.4	4	-1E+10	1	-1E+10	1	-1E+10	1	-1E+10	1	-1E+10	1	-1E+10	1
4902643	47	C	10/03/2025	20:43	-132.661	43.545	0	3049.90	0	1.6540	0	34.6460	4	27.731	0	3003.815	0	88.3	4	26.4	4	-1E+10	1	-1E+10	1	-1E+10	1	-1E+10	1	-1E+10	1	-1E+10	1
4902643	47	C	10/03/2025	20:43	-132.661	43.545	0	3070.80	0	1.6570	0	34.6460	4	27.731	0	3024.254	0	88.3	4	26.4	4	-1E+10	1	-1E+10	1	-1E+10	1	-1E+10	1	-1E+10	1	-1E+10	1
4902643	47	C	10/03/2025	20:43	-132.661	43.545	0	3090.00	0	1.6570	0	34.6460	4	27.731	0	3043.028	0	88.9	4	26.6	4	-1E+10	1	-1E+10	1	-1E+10	1	-1E+10	1	-1E+10	1	-1E+10	1
4902643	47	C	10/03/2025	20:43	-132.661	43.545	0	3109.80	0	1.6510	0	34.6470	4	27.733	0	3062.388	0	89.9	4	26.9	4	-1E+10	1	-1E+10	1	-1E+10	1	-1E+10	1	-1E+10	1	-1E+10	1
4902643	47	C	10/03/2025	20:43	-132.661	43.545	0	3119.40	0	1.6460	0	34.6500	4	27.735	0	3071.773	0	91.0	4	27.2	4	-1E+10	1	-1E+10	1	-1E+10	1	-1E+10	1	-1E+10	1	-1E+10	1
4902643	47	C	10/03/2025	20:43	-132.661	43.545	0	3120.50	0	1.6420	0	34.6490	4	27.735	0	3072.849	0	91.1	4	27.2	4	-1E+10	1	-1E+10	1	-1E+10	1	-1E+10	1	-1E+10	1	-1E+10	1
4902643	47	C	10/03/2025	20:43	-132.661	43.545	0	3121.50	0	1.6420	0	34.6490	4	27.735	0	3073.826	0	91.3	4	27.3	4	-1E+10	1	-1E+10	1	-1E+10	1	-1E+10	1	-1E+10	1	-1E+10	1
4902643	47	C	10/03/2025	20:43	-132.661	43.545	0	3122.80	0	1.6420	0	34.6480	4	27.734	0	3075.097	0	91.5	4	27.4	4	-1E+10	1	-1E+10	1	-1E+10	1	-1E+10	1	-1E+10	1	-1E+10	1
4902643	47	C	10/03/2025	20:43	-132.661	43.545	0	3123.60	0	1.6400	0	34.6500	4	27.736	0	3075.880	0	91.7	4	27.4	4	-1E+10	1	-1E+10	1	-1E+10	1	-1E+10	1	-1E+10	1	-1E+10	1
4902643	47	C	10/03/2025	20:43	-132.661	43.545	0	3124.70	0	1.6400	0	34.6490	4	27.735	0	3076.955	0	91.8	4	27.4	4	-1E+10	1	-1E+10	1	-1E+10	1	-1E+10	1	-1E+10	1	-1E+10	1
4902643	47	C	10/03/2025	20:43	-132.661	43.545	0	3125.80	0	1.6390	0	34.6480	4	27.734	0	3078.030	0	91.9	4	27.5	4	-1E+10	1	-1E+10	1	-1E+10	1	-1E+10	1	-1E+10	1	-1E+10	1
4902643	47	C	10/03/2025	20:43	-132.661	43.545	0	3127.00	0	1.6320	0	34.6510	4	27.737	0	3079.204	0	92.0	4	27.5	4	-1E+10	1	-1E+10	1	-1E+10	1	-1E+10	1	-1E+10	1	-1E+10	1
4902643	47	C	10/03/2025	20:43	-132.661	43.545	0	3128.00	0	1.6320	0	34.6510	4	27.737	0	3080.181	0	92.0	4	27.5	4	-1E+10	1	-1E+10	1	-1E+10	1	-1E+10	1	-1E+10	1	-1E+10	1
4902643	47	C	10/03/2025	20:43	-132.661	43.545	0	3128.90	0	1.6320	0	34.6500	4	27.737	0	3081.061	0	92.1	4	27.5	4	-1E+10	1	-1E+10	1	-1E+10	1	-1E+10	1	-1E+10	1	-1E+10	1
4902643	47	C	10/03/2025	20:43	-132.661	43.545	0	3129.80	0	1.6320	0	34.6510	4	27.737	0	3081.941	0	92.1	4	27.5	4	-1E+10	1	-1E+10	1	-1E+10	1	-1E+10	1	-1E+10	1	-1E+10	1
4902643	47	C	10/03/2025	20:43	-132.661	43.545	0	3130.70	0	1.6320	0	34.6510	4	27.737	0	3082.821	0	92.2	4	27.5	4	-1E+10	1	-1E+10	1	-1E+10	1	-1E+10	1	-1E+10	1	-1E+10	1
4902643	47	C	10/03/2025	20:43	-132.661	43.545	0	3131.60	0	1.6320	0	34.6510	4	27.737	0	3083.701	0	92.2	4	27.6	4	-1E+10	1	-1E+10	1	-1E+10	1	-1E+10	1	-1E+10	1	-1E+10	1
4902643	47	C	10/03/2025	20:43	-132.661	43.545	0	3132.30	0	1.6310	0	34.6500	4	27.737	0	3084.385	0	92.3	4	27.6	4	-1E+10	1	-1E+10	1	-1E+10	1	-1E+10	1	-1E+10	1	-1E+10	1
4902643	47	C	10/03/2025	20:43	-132.661	43.545	0	3133.50	0	1.6310	0	34.6500	4	27.737	0	3085.558	0	92.4	4	27.6	4	-1E+10	1	-1E+10	1	-1E+10	1	-1E+10	1	-1E+10	1	-1E+10	1
4902643	47	C	10/03/2025	20:43	-132.661	43.545	0	3134.70	0	1.6310	0	34.6510	4	27.737	0	3086.731	0	92.6	4	27.7	4	-1E+10	1	-1E+10	1	-1E+10	1	-1E+10	1	-1E+10	1	-1E+10	1
4902643	47	C	10/03/2025	20:43	-132.661	43.545	0	3135.70	0	1.6320	0	34.6500	4	27.737	0	3087.709	0	92.7	4	27.7	4	-1E+10	1	-1E+10	1	-1E+10	1	-1E+10	1	-1E+10	1	-1E+10	1
4902643	47	C	10/03/2025	20:43	-132.661	43.545	0	3136.50	0	1.6310	0	34.6500	4	27.737	0	3088.491	0	92.8	4	27.7	4	-1E+10	1	-1E+10	1	-1E+10	1	-1E+10	1	-1E+10	1	-1E+10	1
4902643	47	C	10/03/2025	20:43	-132.661	43.545	0	3137.50	0	1.6230	0	34.6520	4	27.739	0	3089.468	0	92.9	4	27.8	4	-1E+10	1	-1E+10	1	-1E+10	1	-1E+10	1	-1E+10	1	-1E+10	1
4902643	47	C	10/03/2025	20:43	-132.661	43.545	0	3138.40	0	1.6210	0	34.6520	4	27.739	0	3090.348	0	92.9	4	27.8	4	-1E+10	1	-1E+10	1	-1E+10	1	-1E+10	1	-1E+10	1	-1E+10	1
4902643	47	C	10/03/2025	20:43	-132.661	43.545	0	3139.30	0	1.6200	0	34.6520	4	27.739	0	3091.228	0	92.9	4	27.8	4	-1E+10	1	-1E+10	1	-1E+10	1	-1E+10	1	-1E+10	1	-1E+10	1
4902643	47	C	10/03/2025	20:43	-132.661	43.545	0	3140.50	0	1.6200	0	34.6520	4	27.739	0	3092.401	0	92.8	4	27.7	4	-1E+10	1	-1E+10	1	-1E+10	1	-1E+10	1	-1E+10	1	-1E+10	1
4902643	47	C	10/03/2025	20:43	-132.661	43.545	0	3142.00	0	1.6240	0	34.6500	4	27.737	0	3093.867	0	92.9	4	27.8	4	-1E+10	1	-1E+10	1	-1E+10	1	-1E+10	1	-1E+10	1	-1E+10	1
4902643	47	C	10/03/2025	20:43	-132.661	43.545	0	3142.80	0	1.6220	0	34.6520	4	27.739	0	3094.650	0	92.9	4	27.8	4	-1E+10	1	-1E+10	1	-1E+10	1	-1E+10	1	-1E+10	1	-1E+10	1
4902643	47	C	10/03/2025	20:43	-132.661	43.545	0	3143.60	0	1.6220	0	34.6520	4	27.739	0	3095.432	0	92.9	4	27.8	4	-1E+10	1	-1E+10	1	-1E+10	1	-1E+10	1	-1E+10	1	-1E+10	1
4902643	47	C	10/03/2025	20:43	-132.661	43.545	0	3144.50	0	1.6190	0	34.6520	4	27.739	0	3096.311	0	92.9	4	27.8	4	-1E+10	1	-1E+10	1	-1E+10	1	-1E+10	1	-1E+10	1	-1E+10	1
4902643	47	C	10/03/2025	20:43	-132.661	43.545	0	3145.40	0	1.6210	0	34.6530	4	27.740	0	3097.191	0	92.9	4	27.8	4	-1E+10	1	-1E+10	1	-1E+10	1	-1E+10	1	-1E+10	1	-1E+10	1
4902643	47	C	10/03/2025	20:43	-132.661	43.545	0	3146.30	0	1.6250	0	34.6520	4	27.739	0	3098.071	0	93.0	4	27.8	4	-1E+10	1	-1E+10	1	-1E+10	1	-1E+10	1	-1E+10	1	-1E+10	1
4902643	47	C	10/03/2025	20:43	-132.661	43.545	0	3147.40	0	1.6230	0	34.6520	4	27.739	0	3099.146	0	93.0	4	27.8	4	-1E+10	1	-1E+10	1	-1E+10	1	-1E+10	1	-1E+10	1	-1E+10	1
4902643	47	C	10/03/2025	20:43	-132.661	43.545	0	3148.30	0	1.6230	0	34.6540	4	27.741	0	3100.026	0	93.1	4	27.8	4	-1E+10	1	-1E+10	1	-1E+10	1	-1E+10	1	-1E+10	1	-1E+10	1
4902643	47	C	10/03/2025	20:43	-132.661	43.545	0	3149.40	0	1.6210	0	34.6530	4	27.740	0	3101.101	0	93.1	4	27.8	4	-1E+10	1	-1E+10	1	-1E+10	1	-1E+10	1	-1E+10	1	-1E+10	1
4902643	47	C	10/03/2025	20:43	-132.661	43.545	0	3150.40	0	1.6190	0	34.6520	4	27.739	0	3102.079	0	93.1	4	27.8	4	-1E+10	1	-1E+10	1	-1E+10	1	-1E+10	1	-1E+10	1	-1E+10	1
4902643	47	C	10/03/2025	20:43	-132.661	43.545	0	3151.30	0	1.6200	0	34.6530	4	27.740	0	3102.959	0	93.1	4	27.8	4	-1E+10	1	-1E+10	1	-1E+10	1	-1E+10	1	-1E+10	1	-1E+10	1
4902643	47	C	10/03/2025	20:43	-132.661	43.545	0	3152.30	0	1.6220	0	34.6510	4	27.738	0	3103.936	0	93.2	4	27.8	4	-1E+10	1	-1E+10	1	-1E+10	1	-1E+10	1	-1E+10	1	-1E+10	1
4902643	47	C	10/03/2025	20:43	-132.661	43.545	0	3153.30	0	1.6180	0	34.6540	4	27.741	0	3104.914	0	93.2	4	27.8	4	-1E+10	1	-1E+10	1	-1E+10	1	-1E+10	1	-1E+10	1	-1E+10	1
4902643	47	C	10/03/2025	20:43	-132.661	43.545	0	3154.30	0	1.6170	0	34.6520	4	27.739	0	3105.891	0	93.1	4	27.8	4	-1E+10	1	-1E+10	1	-1E+10	1	-1E+10	1	-1E+10	1	-1E+10	1
4902643	47	C	10/03/2025	20:43	-132.661	43.545	0	3155.20	0	1.6100	0	34.6540	4	27.741	0	3106.771	0	93.0	4	27.8	4	-1E+10	1	-1E+10	1	-1E+10	1	-1E+10	1	-1E+10	1	-1E+10	1
4902643	47	C	10/03/2025	20:43	-132.661	43.545	0	3156.20	0	1.6090	0	34.6540	4	27.742	0	3107.748	0	92.8	4	27.7	4	-1E+10	1	-1E+10	1	-1E+10	1	-1E+10	1	-1E+10	1	-1E+10	1
4902643	47	C	10/03/2025	20:43	-132.661	43.545	0	3157.20	0	1.6140	0	34.6520	4	27.740	0	3108.726	0	92.7	4	27.7	4	-1E+10	1	-1E+10	1	-1E+10	1	-1E+10	1	-1E+10	1	-1E+10	1
4902643	47	C	10/03/2025	20:43	-132.661	43.545	0	3158.30	0	1.6220	0	34.6520	4	27.739	0	3109.801	0	92.7	4	27.7	4	-1E+10	1	-1E+10	1	-1E+10	1	-1E+10	1	-1E+10	1	-1E+10	1
4902643	47	C	10/03/2025	20:43	-132.661	43.545	0	3159.20	0	1.6230	0	34.6510	4	27.738	0	3110.681	0	92.6	4	27.7	4	-1E+10	1	-1E+10	1	-1E+10	1	-1E+10	1	-1E+10	1	-1E+10	1
4902643	47	C	10/03/2025	20:43	-132.661	43.545	0	3160.20	0	1.6210	0	34.6520	4	27.739	0	3111.658	0	92.6	4	27.7	4	-1E+10	1	-1E+10	1	-1E+10	1	-1E+10	1	-1E+10	1	-1E+10	1
4902643	47	C	10/03/2025	20:43	-132.661	43.545	0	3161.50	0	1.6310	0	34.6510	4	27.738	0	3112.929	0	92.7	4	27.7	4	-1E+10	1	-1E+10	1	-1E+10	1	-1E+10	1	-1E+10	1	-1E+10	1
4902643	47	C	10/03/2025	20:43	-132.661	43.545	0	3163.00	0	1.6300	0	34.6500	4	27.737	0	3114.395	0	92.8	4	27.7	4	-1E+10	1	-1E+10	1	-1E+10	1	-1E+10	1	-1E+10	1	-1E+10	1
4902643	47	C	10/03/2025	20:43	-132.661	43.545	0	3163.70	0	1.6260	0	34.6520	4	27.739	0	3115.080	0	92.9	4	27.8	4	-1E+10	1	-1E+10	1	-1E+10	1	-1E+10	1	-1E+10	1	-1E+10	1
4902643	47	C	10/03/2025	20:43	-132.661	43.545	0	3164.80	0	1.6290	0	34.6500	4	27.737	0	3116.155	0	93.0	4	27.8	4	-1E+10	1	-1E+10	1	-1E+10	1	-1E+10	1	-1E+10	1	-1E+10	1
4902643	47	C	10/03/2025	20:43	-132.661	43.545	0	3165.70	0	1.6290	0	34.6510	4	27.738	0	3117.035	0	93.1	4	27.8	4	-1E+10	1	-1E+10	1	-1E+10	1	-1E+10	1	-1E+10	1	-1E+10	1
4902643	47	C	10/03/2025	20:43	-132.661	43.545	0	3166.60	0	1.6240	0	34.6510	4	27.738	0	3117.914	0	92.8	4	27.7	4	-1E+10	1	-1E+10	1	-1E+10	1	-1E+10	1	-1E+10	1	-1E+10	1
4902643	47	C	10/03/2025	20:43	-132.661	43.545	0																										
4902643	48	C	10/13/2025	09:22	-132.581	43.548	0	0.50	0	17.6320	0	32.5420	0	23.480	0	0.496	0	221.5	4	92.4	4	-1E+10	1	-1E+10	1	-1E+10	1	-1E+10	1	-1E+10	1	-1E+10	1
4902643	48	C	10/13/2025	09:22	-132.581	43.548	0	0.70	0	17.6350	0	32.5410	0	23.479	0	0.694	0	221.4	4	92.4	4	-1E+10	1	-1E+10	1	-1E+10	1	-1E+10	1	-1E+10	1	-1E+10	1
4902643	48	C	10/13/2025	09:22	-132.581	43.548	0	0.90	0	17.6370	0	32.5405	0	23.478	0	0.893	0	221.4	4	92.4	4	-1E+10	1	-1E+10	1	-1E+10	1	-1E+10	1	-1E+10	1	-1E+10	1
4902643	48	C	10/13/2025	09:22	-132.581	43.548	0	1.00	0	17.6270	0	32.5470	0	23.485	0	0.992	0	221.4	4	92.4	4	-1E+10	1	-1E+10	1	-1E+10	1	-1E+10	1	-1E+10	1	-1E+10	1
4902643	48	C	10/13/2025	09:22	-132.581	43.548	0	1.70	0	17.6390	0	32.5440	0	23.480	0	1.686	0	221.3	4	92.4	4	-1E+10	1	-1E+10	1	-1E+10	1	-1E+10	1	-1E+10	1	-1E+10	1
4902643	48	C	10/13/2025	09:22	-132.581	43.548	0	2.70	0	17.6450	0	32.5420	0	23.477	0	2.678	0	221.3	4	92.4	4	-1E+10	1	-1E+10	1	-1E+10	1	-1E+10	1	-1E+10	1	-1E+10	1
4902643	48	C	10/13/2025	09:22	-132.581	43.548	0	3.40	0	17.6440	0	32.5430	0	23.478	0	3.373	0	221.2	4	92.4	4	-1E+10	1	-1E+10	1	-1E+10	1	-1E+10	1	-1E+10	1	-1E+10	1
4902643	48	C	10/13/2025	09:22	-132.581	43.548	0	4.50	0	17.6430	0	32.5450	0	23.480	0	4.464	0	221.3	4	92.4	4	-1E+10	1	-1E+10	1	-1E+10	1	-1E+10	1	-1E+10	1	-1E+10	1
4902643	48	C	10/13/2025	09:22	-132.581	43.548	0	5.40	0	17.6440	0	32.5450	0	23.480	0	5.357	0	221.3	4	92.4	4	-1E+10	1	-1E+10	1	-1E+10	1	-1E+10	1	-1E+10	1	-1E+10	1
4902643	48	C	10/13/2025	09:22	-132.581	43.548	0	6.20	0	17.6450	0	32.5450	0	23.480	0	6.150	0	221.2	4	92.4	4	-1E+10	1	-1E+10	1	-1E+10	1	-1E+10	1	-1E+10	1	-1E+10	1
4902643	48	C	10/13/2025	09:22	-132.581	43.548	0	7.20	0	17.6440	0	32.5460	0	23.481	0	7.142	0	221.2	4	92.4	4	-1E+10	1	-1E+10	1	-1E+10	1	-1E+10	1	-1E+10	1	-1E+10	1
4902643	48	C	10/13/2025	09:22	-132.581	43.548	0	8.30	0	17.6450	0	32.5450	0	23.480	0	8.234	0	221.2	4	92.4	4	-1E+10	1	-1E+10	1	-1E+10	1	-1E+10	1	-1E+10	1	-1E+10	1
4902643	48	C	10/13/2025	09:22	-132.581	43.548	0	9.30	0	17.6450	0	32.5450	0	23.480	0	9.226	0	221.2	4	92.4	4	-1E+10	1	-1E+10	1	-1E+10	1	-1E+10	1	-1E+10	1	-1E+10	1
4902643	48	C	10/13/2025	09:22	-132.581	43.548	0	14.90	0	17.6470	0	32.5440	0	23.479	0	14.780	0	221.2	4	92.4	4	-1E+10	1	-1E+10	1	-1E+10	1	-1E+10	1	-1E+10	1	-1E+10	1
4902643	48	C	10/13/2025	09:22	-132.581	43.548	0	25.10	0	17.6470	0	32.5440	0	23.479	0	24.898	0	221.2	4	92.4	4	-1E+10	1	-1E+10	1	-1E+10	1	-1E+10	1	-1E+10	1	-1E+10	1
4902643	48	C	10/13/2025	09:22	-132.581	43.548	0	35.00	0	17.6400	0	32.5450	0	23.482	0	34.718	0	221.6	4	92.5	4	-1E+10	1	-1E+10	1	-1E+10	1	-1E+10	1	-1E+10	1	-1E+10	1
4902643	48	C	10/13/2025	09:22	-132.581	43.548	0	45.00	0	15.5290	0	32.5590	0	23.978	0	44.636	0	244.4	4	98.0	4	-1E+10	1	-1E+10	1	-1E+10	1	-1E+10	1	-1E+10	1	-1E+10	1
4902643	48	C	10/13/2025	09:22	-132.581	43.548	0	55.00	0	11.8270	0	32.6110	0	24.768	0	54.554	0	250.9	4	93.4	4	-1E+10	1	-1E+10	1	-1E+10	1	-1E+10	1	-1E+10	1	-1E+10	1
4902643	48	C	10/13/2025	09:22	-132.581	43.548	0	65.30	0	10.7680	0	32.6590	0	24.995	0	64.768	0	242.2	4	88.2	4	-1E+10	1	-1E+10	1	-1E+10	1	-1E+10	1	-1E+10	1	-1E+10	1
4902643	48	C	10/13/2025	09:22	-132.581	43.548	0	75.30	0	10.2310	0	32.6610	0	25.089	0	74.685	0	240.0	4	86.4	4	-1E+10	1	-1E+10	1	-1E+10	1	-1E+10	1	-1E+10	1	-1E+10	1
4902643	48	C	10/13/2025	09:22	-132.581	43.548	0	85.10	0	10.0450	0	32.6600	0	25.120	0	84.403	0	239.0	4	85.7	4	-1E+10	1	-1E+10	1	-1E+10	1	-1E+10	1	-1E+10	1	-1E+10	1
4902643	48	C	10/13/2025	09:22	-132.581	43.548	0	95.30	0	9.9910	0	32.6830	0	25.147	0	94.517	0	237.1	4	84.9	4	-1E+10	1	-1E+10	1	-1E+10	1	-1E+10	1	-1E+10	1	-1E+10	1
4902643	48	C	10/13/2025	09:22	-132.581	43.548	0	104.80	0	9.9090	0	32.7090	0	25.181	0	103.937	0	232.8	4	83.2	4	-1E+10	1	-1E+10	1	-1E+10	1	-1E+10	1	-1E+10	1	-1E+10	1
4902643	48	C	10/13/2025	09:22	-132.581	43.548	0	114.80	0	9.7510	0	32.8450	0	25.313	0	113.852	0	223.6	4	79.8	4	-1E+10	1	-1E+10	1	-1E+10	1	-1E+10	1	-1E+10	1	-1E+10	1
4902643	48	C	10/13/2025	09:22	-132.581	43.548	0	124.70	0	9.4450	0	33.0410	0	25.516	0	123.667	0	216.4	4	76.8	4	-1E+10	1	-1E+10	1	-1E+10	1	-1E+10	1	-1E+10	1	-1E+10	1
4902643	48	C	10/13/2025	09:22	-132.581	43.548	0	134.80	0	9.2360	0	33.2030	0	25.676	0	133.680	0	210.8	4	74.5	4	-1E+10	1	-1E+10	1	-1E+10	1	-1E+10	1	-1E+10	1	-1E+10	1
4902643	48	C	10/13/2025	09:22	-132.581	43.548	0	144.70	0	9.0330	0	33.3920	0	25.857	0	143.494	0	203.3	4	71.7	4	-1E+10	1	-1E+10	1	-1E+10	1	-1E+10	1	-1E+10	1	-1E+10	1
4902643	48	C	10/13/2025	09:22	-132.581	43.548	0	155.00	0	8.8260	0	33.6340	0	26.079	0	153.705	0	195.5	4	68.7	4	-1E+10	1	-1E+10	1	-1E+10	1	-1E+10	1	-1E+10	1	-1E+10	1
4902643	48	C	10/13/2025	09:22	-132.581	43.548	0	164.80	0	8.6530	0	33.7360	0	26.186	0	163.419	0	190.7	4	66.8	4	-1E+10	1	-1E+10	1	-1E+10	1	-1E+10	1	-1E+10	1	-1E+10	1
4902643	48	C	10/13/2025	09:22	-132.581	43.548	0	174.50	0	8.3530	0	33.8010	0	26.282	0	173.034	0	186.9	4	65.1	4	-1E+10	1	-1E+10	1	-1E+10	1	-1E+10	1	-1E+10	1	-1E+10	1
4902643	48	C	10/13/2025	09:22	-132.581	43.548	0	184.90	0	8.1160	0	33.8200	0	26.333	0	183.342	0	184.7	4	64.0	4	-1E+10	1	-1E+10	1	-1E+10	1	-1E+10	1	-1E+10	1	-1E+10	1
4902643	48	C	10/13/2025	09:22	-132.581	43.548	0	195.10	0	7.9190	0	33.8290	0	26.369	0	193.451	0	182.5	4	62.9	4	-1E+10	1	-1E+10	1	-1E+10	1	-1E+10	1	-1E+10	1	-1E+10	1
4902643	48	C	10/13/2025	09:22	-132.581	43.548	0	210.00	0	7.6460	0	33.8380	0	26.416	0	208.217	0	179.1	4	61.4	4	-1E+10	1	-1E+10	1	-1E+10	1	-1E+10	1	-1E+10	1	-1E+10	1
4902643	48	C	10/13/2025	09:22	-132.581	43.548	0	230.10	0	7.3310	0	33.8450	0	26.466	0	228.136	0	171.9	4	58.5	4	-1E+10	1	-1E+10	1	-1E+10	1	-1E+10	1	-1E+10	1	-1E+10	1
4902643	48	C	10/13/2025	09:22	-132.581	43.548	0	249.60	0	7.0250	0	33.8490	0	26.512	0	247.458	0	161.8	4	54.7	4	-1E+10	1	-1E+10	1	-1E+10	1	-1E+10	1	-1E+10	1	-1E+10	1
4902643	48	C	10/13/2025	09:22	-132.581	43.548	0	269.90	0	6.6950	0	33.8470	0	26.555	0	267.570	0	150.9	4	50.6	4	-1E+10	1	-1E+10	1	-1E+10	1	-1E+10	1	-1E+10	1	-1E+10	1
4902643	48	C	10/13/2025	09:22	-132.581	43.548	0	290.00	0	6.4540	0	33.8470	0	26.587	0	287.483	0	139.5	4	46.6	4	-1E+10	1	-1E+10	1	-1E+10	1	-1E+10	1	-1E+10	1	-1E+10	1
4902643	48	C	10/13/2025	09:22	-132.581	43.548	0	309.80	0	6.1760	0	33.8480	0	26.624	0	307.096	0	124.3	4	41.2	4	-1E+10	1	-1E+10	1	-1E+10	1	-1E+10	1	-1E+10	1	-1E+10	1
4902643	48	C	10/13/2025	09:22	-132.581	43.548	0	329.80	0	5.8820	0	33.8560	0	26.667	0	326.906	0	109.4	4	36.0	4	-1E+10	1	-1E+10	1	-1E+10	1	-1E+10	1	-1E+10	1	-1E+10	1
4902643	48	C	10/13/2025	09:22	-132.581	43.548	0	350.00	0	5.6740	0	33.8640	0	26.699	0	346.912	0	100.2	4	32.8	4	-1E+10	1	-1E+10	1	-1E+10	1	-1E+10	1	-1E+10	1	-1E+10	1
4902643	48	C	10/13/2025	09:22	-132.581	43.548	0	369.80	0	5.4680	0	33.8750	0	26.733	0	366.519	0	90.9	4	29.7	4	-1E+10	1	-1E+10	1	-1E+10	1	-1E+10	1	-1E+10	1	-1E+10	1
4902643	48	C	10/13/2025	09:22	-132.581	43.548	0	390.50	0	5.2570	0	33.8890	0	26.769	0	387.017	0	83.1	4	27.0	4	-1E+10	1	-1E+10	1	-1E+10	1	-1E+10	1	-1E+10	1	-1E+10	1
4902643	48	C	10/13/2025	09:22	-132.581	43.548	0	410.10	0	5.1020	0	33.9020	0	26.797	0	406.422	0	77.2	4	25.0	4	-1E+10	1	-1E+10	1	-1E+10	1	-1E+10	1	-1E+10	1	-1E+10	1
4902643	48	C	10/13/2025	09:22	-132.581	43.548	0	430.00	0	4.9850	0	33.9170	0	26.822	0	426.124	0	72.1	4	23.2	4	-1E+10	1	-1E+10	1	-1E+10	1	-1E+10	1	-1E+10	1	-1E+10	1
4902643	48	C	10/13/2025	09:22	-132.581	43.548	0	450.00	0	4.8880	0	33.9320	0	26.845	0	445.922	0	67.2	4	21.6	4	-1E+10	1	-1E+10	1	-1E+10	1	-1E+10	1	-1E+10	1	-1E+10	1
4902643	48	C	10/13/2025	09:22	-132.581	43.548	0	469.90	0	4.7860	0	33.9480	0	26.869	0	465.619	0	62.2	4	20.0	4	-1E+10	1	-1E+10	1	-1E+10	1	-1E+10	1	-1E+10	1	-1E+10	1
4902643	48	C	10/13/2025	09:22	-132.581	43.548	0	490.20	0	4.7690	0	33.9690	0	26.888	0	485.711	0	54.4	4	17.5	4	-1E+10	1	-1E+10	1	-1E+10	1	-1E+10	1	-1E+10	1	-1E+10	1
4902643	48	C	10/13/2025	09:22	-132.581	43.548	0	510.00	0	4.7540	0	33.9940	0	26.910	0	505.305	0	48.3	4	15.5	4	-1E+10	1	-1E+10	1	-1E+10	1	-1E+10	1	-1E+10	1	-1E+10	1
4902643	48	C	10/13/2025	09:22	-132.581	43.548	0	530.20	0	4.6850	0	34.0110	0	26.931	0	525.294	0	43.8	4	14.0	4	-1E+10	1	-1E+10	1	-1E+10	1	-1E+10	1	-1E+10	1	-1E+10	1
4902643	48	C	10/13/2025	09:22	-132.581	43.548	0	549.70	0	4.5950	0	34.0340	0	26.959	0	544.588	0	37.9	4	12.1	4	-1E+10	1	-1E+10	1	-1E+10	1	-1E+10	1	-1E+10	1	-1E+10	1
4902643	48	C	10/13/2025	09:22	-132.581	43.548	0	569.50	0	4.5500	0	34.0600	0	26.985	0	564.177	0	32.2	4	10.3	4	-1E+10	1	-1E+10	1	-1E+10	1	-1E+10	1	-1E+10	1	-1E+10	1
4902643	48	C	10/13/2025	09:22	-132.581	43.548	0	589.90	0	4.5200	0	34.0830	0	27.007	0	584.357	0	28.3	4	9.0	4	-1E+10	1	-1E+10	1	-1E+10	1	-1E+10	1	-1E+10	1	-1E+10	1
4902643	48	C	10/13/2025	09:22	-132.581	43.548	0	609.90	0	4.4250	0	34.0930	0	27.025	0	604.140	0	26.5	4	8.4	4	-1E+10	1	-1E+10	1	-1E+10	1	-1E+10	1	-1E+10	1	-1E+10	1
4902643	48	C	10/13/2025	09:22	-132.581	43.548	0	629.60	0	4.3520	0	34.1080	0	27.045	0	623.625	0	23.4	4	7.4	4	-1E+10	1	-1E+10	1	-1E+10	1	-1E+10	1	-1E+10	1	-1E+10	1
4902643	48	C	10/13/2025	09:22	-132.581	43.548	0	649.60	0	4.2990	0	34.1290	0	27.067	0	643.404	0	20.4	4	6.5	4	-1E+10	1	-1E+10	1	-1E+10	1	-1E+10	1	-1E+10	1	-1E+10	1
4902643	48	C	10/13/2025	09:22	-132.581	43.548	0	670.60	0	4.2510	0	34.1520	0	27.091	0	664.170	0	17.0	4	5.4	4	-1E+10	1	-1E+10	1	-1E+10	1	-1E+10	1	-1E+10	1	-1E+10	1
4902643	48	C	10/13/2025	09:22	-132.581	43.548	0	689.90	0	4.1690	0	34.1650	0	27.110	0	683.254	0	16.0	4	5.1	4	-1E+10	1	-1E+10	1	-1E+10	1	-1E+10	1	-1E+10	1	-1E+10	1
4902643	48	C	10/13/2025	09:22	-132.581	43.548	0	710.00	0	4.1170	0	34.1820	0	27.129	0	703.126	0	13.8	4	4.4	4	-1E+10	1	-1E+10	1	-1E+10	1	-1E+10	1	-1E+10	1	-1E+10	1
4902643	48	C	10/13/2025	09:22	-132.581	43.548	0	730.00	0	4.0490	0	34.1970	0	27.148	0	722.898	0	12.2	4	3.9	4	-1E+10	1	-1E+10	1	-1E+10	1	-1E+10	1	-1E+10	1	-1E+10	1
4902643	48	C	10/13/2025	09:22	-132.581	43.548	0	749.70	0	4.0450	0	34.2240	0	27.170	0	742.371	0	10.1	4	3.2	4	-1E+10	1	-1E+10	1	-1E+10	1	-1E+10	1	-1E+10	1	-1E+10	1
4902643	48	C	10/13/2025	09:22	-132.581	43.548	0	769.80	0	3.9870	0	34.2420	0	27.190	0	762.238	0	9.3	4	2.9	4	-1E+10	1	-1E+10	1	-1E+10	1	-1E+10	1	-1E+10	1	-1E+10	1
4902643	48	C	10/13/2025	09:22	-132.581	43.548	0	789.60	0	3.9210	0	34.2540	0	27.207	0	781.807	0	8.5	4	2.7	4	-1E+10	1	-1E+10	1	-1E+10	1	-1E+10	1	-1E+10	1	-1E+10	1
4902643	48	C	10/13/2025	09:22	-132.581	43.548	0	809.70	0	3.8840	0	34.2710	0	27.224	0	801.670	0	7.7	4	2.4	4	-1E+10	1	-1E+10	1	-1E+10	1	-1E+10	1	-1E+10	1	-1E+10	1
4902643	48	C	10/13/2025	09:22	-132.581	43.548	0	829.90	0	3.8630	0	34.2900	0	27.242	0	821.630	0	7.0	4	2.2	4	-1E+10	1	-1E+10	1	-1E+10	1	-1E+10	1	-1E+10	1	-1E+10	1
4902643	48	C	10/13/2025	09:22	-132.581	43.548	0	850.10	0	3.8190	0	34.2990	0	27.253	0	841.588	0	6.9	4	2.2	4	-1E+10	1	-1E+10	1	-1E+10	1	-1E+10	1	-1E+10	1	-1E+10	1
4902643	48	C	10/13/2025	09:22	-132.581	43.548	0	869.80	0	3.7660	0	34.3080	0	27.266	0	861.050	0	6.6	4	2.1	4	-1E+10	1	-1E+10	1	-1E+10	1	-1E+10	1	-1E+10	1	-1E+10	1
4902643	48	C	10/13/2025	09:22	-132.581	43.548	0	889.70	0	3.7200	0	34.3180	0	27.279	0	880.708	0	6.5	4	2.0	4	-1E+10	1	-1E+10	1	-1E+10	1	-1E+10	1	-1E+10	1	-1E+10	1
4902643	48	C	10/13/2025	09:22	-132.581	43.548	0	909.50	0	3.6800	0	34.3280	0	27.291	0	900.265	0	6.4	4	2.0	4	-1E+10	1	-1E+10	1	-1E+10	1	-1E+10	1	-1E+10	1	-1E+10	1
4902643	48	C	10/13/2025	09:22	-132.581	43.548	0	929.90	0	3.6530	0	34.3380	0	27.301	0	920.413	0	6.4	4	2.0	4	-1E+10	1	-1E+10	1	-1E+10	1	-1E+10	1	-1E+10	1	-1E+10	1
4902643	48	C	10/13/2025	09:22	-132.581	43.548	0	949.90	0	3.6000	0	34.3430	0	27.311	0	940.164	0	6.4	4	2.0	4	-1E+10	1	-1E+10	1	-1E+10	1	-1E+10	1	-1E+10	1	-1E+10	1
4902643	48	C	10/13/2025	09:22	-132.581	43.548	0	969.80	0	3.5610	0	34.3520	0	27.322	0	959.815	0	6.4	4	2.0	4	-1E+10	1	-1E+10	1	-1E+10	1	-1E+10	1	-1E+10	1	-1E+10	1
4902643	48	C	10/13/2025	09:22	-132.581	43.548	0	989.90	0	3.5480	0	34.3660	0	27.334	0	979.661	0	6.7	4	2.1	4	-1E+10	1	-1E+10	1	-1E+10	1	-1E+10	1	-1E+10	1	-1E+10	1
4902643	48	C	10/13/2025	09:22	-132.581	43.548	0	1009.90	0	3.5260	0	34.3750	0	27.344	0	999.406	0	6.8	4	2.1	4	-1E+10	1	-1E+10	1	-1E+10	1	-1E+10	1	-1E+10	1	-1E+10	1
4902643	48	C	10/13/2025	09:22	-132.581	43.548	0	1029.60	0	3.4650	0	34.3800	0	27.354	0	1018.854	0	6.9	4	2.2	4	-1E+10	1	-1E+10	1	-1E+10	1	-1E+10	1	-1E+10	1	-1E+10	1
4902643	48	C	10/13/2025	09:22	-132.581	43.548	0	1049.60	0	3.4210	0	34.3890	0	27.365	0	1038.595	0	7.2	4	2.2	4	-1E+10	1	-1E+10	1	-1E+10	1	-1E+10	1	-1E+10	1	-1E+10	1
4902643	48	C	10/13/2025	09:22	-132.581	43.548	0	1069.90	0	3.3870	0	34.3980	0	27.376	0	1058.631	0	7.5	4	2.4	4	-1E+10	1	-1E+10	1	-1E+10	1	-1E+10	1	-1E+10	1	-1E+10	1
4902643	48	C	10/13/2025	09:22	-132.581	43.548	0	1089.90	0	3.3640	0	34.4040	0	27.383	0	1078.369	0	7.9	4	2.4	4	-1E+10	1	-1E+10	1	-1E+10	1	-1E+10	1	-1E+10	1	-1E+10	1
4902643	48	C	10/13/2025	09:22	-132.581	43.548	0	1110.00	0	3.3390	0	34.4100	0	27.390	0	1098.204	0	8.2	4	2.5	4	-1E+10	1	-1E+10	1	-1E+10	1	-1E+10	1	-1E+10	1	-1E+10	1
4902643	48	C	10/13/2025	09:22	-132.581	43.548	0	1130.20	0	3.3050	0	34.4170	0	27.399	0	1118.136	0	8.7	4	2.7	4	-1E+10	1	-1E+10	1	-1E+10	1	-1E+10	1	-1E+10	1	-1E+10	1
4902643	48	C	10/13/2025	09:22	-132.581	43.548	0	1150.10	0	3.2550	0	34.4260	0	27.411	0	1137.769	0	9.1	4	2.8	4	-1E+10	1	-1E+10	1	-1E+10	1	-1E+10	1	-1E+10	1	-1E+10	1
4902643	48	C	10/13/2025	09:22	-132.581	43.548	0	1170.20	0	3.2210	0	34.4310	0	27.418	0	1157.599	0	9.7	4	3.0	4	-1E+10	1	-1E+10	1	-1E+10	1	-1E+10	1	-1E+10	1	-1E+10	1
4902643	48	C	10/13/2025	09:22	-132.581	43.548	0	1190.00	0	3.1660	0	34.4400	0	27.431	0	1177.130	0	10.6	4	3.3	4	-1E+10	1	-1E+10	1	-1E+10	1	-1E+10	1	-1E+10	1	-1E+10	1
4902643	48	C	10/13/2025	09:22	-132.581	43.548	0	1210.10	0	3.1350	0	34.4470	0	27.439	0	1196.955	0	11.2	4	3.5	4	-1E+10	1	-1E+10	1	-1E+10	1	-1E+10	1	-1E+10	1	-1E+10	1
4902643	48	C	10/13/2025	09:22	-132.581	43.548	0	1229.90	0	3.0980	0	34.4520	0	27.447	0	1216.483	0	11.9	4	3.7	4	-1E+10	1	-1E+10	1	-1E+10	1	-1E+10	1	-1E+10	1	-1E+10	1
4902643	48	C	10/13/2025	09:22	-132.581	43.548	0	1250.10	0	3.0290	0	34.4610	0	27.460	0	1236.403	0	12.9	4	4.0	4	-1E+10	1	-1E+10	1	-1E+10	1	-1E+10	1	-1E+10	1	-1E+10	1
4902643	48	C	10/13/2025	09:22	-132.581	43.548	0	1269.70	0	3.0000	0	34.4660	0	27.467	0	1255.730	0	13.5	4	4.2	4	-1E+10	1	-1E+10	1	-1E+10	1	-1E+10	1	-1E+10	1	-1E+10	1
4902643	48	C	10/13/2025	09:22	-132.581	43.548	0	1290.10	0	2.9670	0	34.4710	0	27.474	0	1275.844	0	14.4	4	4.4	4	-1E+10	1	-1E+10	1	-1E+10	1	-1E+10	1	-1E+10	1	-1E+10	1
4902643	48	C	10/13/2025	09:22	-132.581	43.548	0	1309.90	0	2.9340	0	34.4760	0	27.481	0	1295.364	0	15.1	4	4.7	4	-1E+10	1	-1E+10	1	-1E+10	1	-1E+10	1	-1E+10	1	-1E+10	1
4902643	48	C	10/13/2025	09:22	-132.581	43.548	0	1330.50	0	2.8840	0	34.4820	0	27.490	0	1315.671	0	16.2	4	5.0	4	-1E+10	1	-1E+10	1	-1E+10	1	-1E+10	1	-1E+10	1	-1E+10	1
4902643	48	C	10/13/2025	09:22	-132.581	43.548	0	1350.00	0	2.8410	0	34.4880	0	27.499	0	1334.892	0	17.2	4	5.3	4	-1E+10	1	-1E+10	1	-1E+10	1	-1E+10	1	-1E+10	1	-1E+10	1
4902643	48	C	10/13/2025	09:22	-132.581	43.548	0	1370.20	0	2.8110	0	34.4920	0	27.505	0	1354.801	0	17.9	4	5.5	4	-1E+10	1	-1E+10	1	-1E+10	1	-1E+10	1	-1E+10	1	-1E+10	1
4902643	48	C	10/13/2025	09:22	-132.581	43.548	0	1389.80	0	2.7800	0	34.4960	0	27.511	0	1374.117	0	19.1	4	5.9	4	-1E+10	1	-1E+10	1	-1E+10	1	-1E+10	1	-1E+10	1	-1E+10	1
4902643	48	C	10/13/2025	09:22	-132.581	43.548	0	1410.10	0	2.7320	0	34.5010	0	27.519	0	1394.121	0	20.3	4	6.2	4	-1E+10	1	-1E+10	1	-1E+10	1	-1E+10	1	-1E+10	1	-1E+10	1
4902643	48	C	10/13/2025	09:22	-132.581	43.548	0	1429.70	0	2.7000	0	34.5050	0	27.525	0	1413.434	0	21.3	4	6.5	4	-1E+10	1	-1E+10	1	-1E+10	1	-1E+10	1	-1E+10	1	-1E+10	1
4902643	48	C	10/13/2025	09:22	-132.581	43.548	0	1449.80	0	2.6520	0	34.5090	0	27.533	0	1433.237	0	22.5	4	6.9	4	-1E+10	1	-1E+10	1	-1E+10	1	-1E+10	1	-1E+10	1	-1E+10	1
4902643	48	C	10/13/2025	09:22	-132.581	43.548	0	1469.90	0	2.6090	0	34.5140	0	27.541	0	1453.038	0	23.5	4	7.2	4	-1E+10	1	-1E+10	1	-1E+10	1	-1E+10	1	-1E+10	1	-1E+10	1
4902643	48	C	10/13/2025	09:22	-132.581	43.548	0	1490.00	0	2.5700	0	34.5180	0	27.547	0	1472.837	0	25.1	4	7.7	4	-1E+10	1	-1E+10	1	-1E+10	1	-1E+10	1	-1E+10	1	-1E+10	1
4902643	48	C	10/13/2025	09:22	-132.581	43.548	0	1510.30	0	2.5090	0	34.5260	0	27.559	0	1492.832	0	27.0	4	8.3	4	-1E+10	1	-1E+10	1	-1E+10	1	-1E+10	1	-1E+10	1	-1E+10	1
4902643	48	C	10/13/2025	09:22	-132.581	43.548	0	1530.00	0	2.4680	0	34.5300	0	27.566	0	1512.234	0	28.2	4	8.6	4	-1E+10	1	-1E+10	1	-1E+10	1	-1E+10	1	-1E+10	1	-1E+10	1
4902643	48	C	10/13/2025	09:22	-132.581	43.548	0	1550.10	0	2.4370	0	34.5330	0	27.571	0	1532.027	0	29.5	4	9.0	4	-1E+10	1	-1E+10	1	-1E+10	1	-1E+10	1	-1E+10	1	-1E+10	1
4902643	48	C	10/13/2025	09:22	-132.581	43.548	0	1570.00	0	2.3830	0	34.5380	0	27.579	0	1551.623	0	31.4	4	9.6	4	-1E+10	1	-1E+10	1	-1E+10	1	-1E+10	1	-1E+10	1	-1E+10	1
4902643	48	C	10/13/2025	09:22	-132.581	43.548	0	1590.00	0	2.3300	0	34.5440	0	27.588	0	1571.314	0	33.5	4	10.2	4	-1E+10	1	-1E+10	1	-1E+10	1	-1E+10	1	-1E+10	1	-1E+10	1
4902643	48	C	10/13/2025	09:22	-132.581	43.548	0	1609.30	0	2.2880	0	34.5500	0	27.597	0	1590.315	0	35.4	4	10.8	4	-1E+10	1	-1E+10	1	-1E+10	1	-1E+10	1	-1E+10	1	-1E+10	1
4902643	48	C	10/13/2025	09:22	-132.581	43.548	0	1629.70	0	2.2520	0	34.5540	0	27.603	0	1610.397	0	36.6	4	11.1	4	-1E+10	1	-1E+10	1	-1E+10	1	-1E+10	1	-1E+10	1	-1E+10	1
4902643	48	C	10/13/2025	09:22	-132.581	43.548	0	1649.80	0	2.2420	0	34.5550	0	27.605	0	1630.181	0	37.6	4	11.4	4	-1E+10	1	-1E+10	1	-1E+10	1	-1E+10	1	-1E+10	1	-1E+10	1
4902643	48	C	10/13/2025	09:22	-132.581	43.548	0	1671.10	0	2.2020	0	34.5610	0	27.613	0	1651.145	0	39.3	4	11.9	4	-1E+10	1	-1E+10	1	-1E+10	1	-1E+10	1	-1E+10	1	-1E+10	1
4902643	48	C	10/13/2025	09:22	-132.581	43.548	0	1689.60	0	2.1890	0	34.5620	0	27.615	0	1669.351	0	39.5	4	12.0	4	-1E+10	1	-1E+10	1	-1E+10	1	-1E+10	1	-1E+10	1	-1E+10	1
4902643	48	C	10/13/2025	09:22	-132.581	43.548	0	1710.10	0	2.1980	0	34.5610	0	27.613	0	1689.524	0	39.4	4	11.9	4	-1E+10	1	-1E+10	1	-1E+10	1	-1E+10	1	-1E+10	1	-1E+10	1
4902643	48	C	10/13/2025	09:22	-132.581	43.548	0	1729.80	0	2.1990	0	34.5610	0	27.613	0	1708.908	0	39.6	4	12.0	4	-1E+10	1	-1E+10	1	-1E+10	1	-1E+10	1	-1E+10	1	-1E+10	1
4902643	48	C	10/13/2025	09:22	-132.581	43.548	0	1749.00	0	2.1980	0	34.5610	0	27.614	0	1727.798	0	40.5	4	12.3	4	-1E+10	1	-1E+10	1	-1E+10	1	-1E+10	1	-1E+10	1	-1E+10	1
4902643	48	C	10/13/2025	09:22	-132.581	43.548	0	1759.80	0	2.1870	0	34.5630	0	27.616	0	1738.423	0	42.1	4	12.8	4	-1E+10	1	-1E+10	1	-1E+10	1	-1E+10	1	-1E+10	1	-1E+10	1
4902643	48	C	10/13/2025	09:22	-132.581	43.548	0	1761.20	0	2.1800	0	34.5630	0	27.617	0	1739.800	0	42.4	4	12.8	4	-1E+10	1	-1E+10	1	-1E+10	1	-1E+10	1	-1E+10	1	-1E+10	1
4902643	48	C	10/13/2025	09:22	-132.581	43.548	0	1762.40	0	2.1730	0	34.5680	0	27.621	0	1740.980	0	42.7	4	12.9	4	-1E+10	1	-1E+10	1	-1E+10	1	-1E+10	1	-1E+10	1	-1E+10	1
4902643	48	C	10/13/2025	09:22	-132.581	43.548	0	1763.70	0	2.1690	0	34.5660	0	27.620	0	1742.259	0	43.0	4	13.0	4	-1E+10	1	-1E+10	1	-1E+10	1	-1E+10	1	-1E+10	1	-1E+10	1
4902643	48	C	10/13/2025	09:22	-132.581	43.548	0	1765.00	0	2.1580	0	34.5660	0	27.621	0	1743.538	0	43.2	4	13.1	4	-1E+10	1	-1E+10	1	-1E+10	1	-1E+10	1	-1E+10	1	-1E+10	1
4902643	48	C	10/13/2025	09:22	-132.581	43.548	0	1766.30	0	2.1560	0	34.5660	0	27.621	0	1744.817	0	43.5	4	13.2	4	-1E+10	1	-1E+10	1	-1E+10	1	-1E+10	1	-1E+10	1	-1E+10	1
4902643	48	C	10/13/2025	09:22	-132.581	43.548	0	1767.50	0	2.1440	0	34.5690	0	27.624	0	1745.997	0	43.7	4	13.2	4	-1E+10	1	-1E+10	1	-1E+10	1	-1E+10	1	-1E+10	1	-1E+10	1
4902643	48	C	10/13/2025	09:22	-132.581	43.548	0	1768.70	0	2.1430	0	34.5680	0	27.624	0	1747.178	0	43.9	4	13.3	4	-1E+10	1	-1E+10	1	-1E+10	1	-1E+10	1	-1E+10	1	-1E+10	1
4902643	48	C	10/13/2025	09:22	-132.581	43.548	0	1769.90	0	2.1380	0	34.5700	0	27.626	0	1748.358	0	44.1	4	13.3	4	-1E+10	1	-1E+10	1	-1E+10	1	-1E+10	1	-1E+10	1	-1E+10	1
4902643	48	C	10/13/2025	09:22	-132.581	43.548	0	1771.00	0	2.1300	0	34.5720	0	27.628	0	1749.440	0	44.2	4	13.4	4	-1E+10	1	-1E+10	1	-1E+10	1	-1E+10	1	-1E+10	1	-1E+10	1
4902643	48	C	10/13/2025	09:22	-132.581	43.548	0	1772.30	0	2.1300	0	34.5710	0	27.627	0	1750.719	0	44.4	4	13.4	4	-1E+10	1	-1E+10	1	-1E+10	1	-1E+10	1	-1E+10	1	-1E+10	1
4902643	48	C	10/13/2025	09:22	-132.581	43.548	0	1773.40	0	2.1220	0	34.5720	0	27.629	0	1751.801	0	44.6	4	13.5	4	-1E+10	1	-1E+10	1	-1E+10	1	-1E+10	1	-1E+10	1	-1E+10	1
4902643	48	C	10/13/2025	09:22	-132.581	43.548	0	1774.60	0	2.1230	0	34.5700	0	27.627	0	1752.982	0	44.8	4	13.5	4	-1E+10	1	-1E+10	1	-1E+10	1	-1E+10	1	-1E+10	1	-1E+10	1
4902643	48	C	10/13/2025	09:22	-132.581	43.548	0	1775.80	0	2.1200	0	34.5720	0	27.629	0	1754.162	0	44.9	4	13.6	4	-1E+10	1	-1E+10	1	-1E+10	1	-1E+10	1	-1E+10	1	-1E+10	1
4902643	48	C	10/13/2025	09:22	-132.581	43.548	0	1776.80	0	2.1140	0	34.5730	0	27.630	0	1755.146	0	45.1	4	13.6	4	-1E+10	1	-1E+10	1	-1E+10	1	-1E+10	1	-1E+10	1	-1E+10	1
4902643	48	C	10/13/2025	09:22	-132.581	43.548	0	1777.90	0	2.1120	0	34.5730	0	27.630	0	1756.228	0	45.3	4	13.7	4	-1E+10	1	-1E+10	1	-1E+10	1	-1E+10	1	-1E+10	1	-1E+10	1
4902643	48	C	10/13/2025	09:22	-132.581	43.548	0	1779.00	0	2.1130	0	34.5720	0	27.629	0	1757.310	0	45.5	4	13.7	4	-1E+10	1	-1E+10	1	-1E+10	1	-1E+10	1	-1E+10	1	-1E+10	1
4902643	48	C	10/13/2025	09:22	-132.581	43.548	0	1780.50	0	2.1080	0	34.5730	0	27.631	0	1758.786	0	45.8	4	13.8	4	-1E+10	1	-1E+10	1	-1E+10	1	-1E+10	1	-1E+10	1	-1E+10	1
4902643	48	C	10/13/2025	09:22	-132.581	43.548	0	1782.60	0	2.1050	0	34.5740	0	27.632	0	1760.851	0	46.2	4	14.0	4	-1E+10	1	-1E+10	1	-1E+10	1	-1E+10	1	-1E+10	1	-1E+10	1
4902643	48	C	10/13/2025	09:22	-132.581	43.548	0	1783.50	0	2.1040	0	34.5740	0	27.632	0	1761.736	0	46.4	4	14.0	4	-1E+10	1	-1E+10	1	-1E+10	1	-1E+10	1	-1E+10	1	-1E+10	1
4902643	48	C	10/13/2025	09:22	-132.581	43.548	0	1784.20	0	2.1020	0	34.5730	0	27.631	0	1762.425	0	46.5	4	14.1	4	-1E+10	1	-1E+10	1	-1E+10	1	-1E+10	1	-1E+10	1	-1E+10	1
4902643	48	C	10/13/2025	09:22	-132.581	43.548	0	1785.50	0	2.0880	0	34.5760	0	27.635	0	1763.704	0	46.8	4	14.1	4	-1E+10	1	-1E+10	1	-1E+10	1	-1E+10	1	-1E+10	1	-1E+10	1
4902643	48	C	10/13/2025	09:22	-132.581	43.548	0	1786.70	0	2.0830	0	34.5770	0	27.636	0	1764.884	0	46.9	4	14.2	4	-1E+10	1	-1E+10	1	-1E+10	1	-1E+10	1	-1E+10	1	-1E+10	1
4902643	48	C	10/13/2025	09:22	-132.581	43.548	0	1787.50	0	2.0810	0	34.5760	0	27.635	0	1765.671	0	47.1	4	14.2	4	-1E+10	1	-1E+10	1	-1E+10	1	-1E+10	1	-1E+10	1	-1E+10	1
4902643	48	C	10/13/2025	09:22	-132.581	43.548	0	1788.60	0	2.0760	0	34.5780	0	27.637	0	1766.753	0	47.2	4	14.3	4	-1E+10	1	-1E+10	1	-1E+10	1	-1E+10	1	-1E+10	1	-1E+10	1
4902643	48	C	10/13/2025	09:22	-132.581	43.548	0	1789.70	0	2.0710	0	34.5780	0	27.637	0	1767.835	0	47.4	4	14.3	4	-1E+10	1	-1E+10	1	-1E+10	1	-1E+10	1	-1E+10	1	-1E+10	1
4902643	48	C	10/13/2025	09:22	-132.581	43.548	0	1790.50	0	2.0650	0	34.5800	0	27.640	0	1768.622	0	47.4	4	14.3	4	-1E+10	1	-1E+10	1	-1E+10	1	-1E+10	1	-1E+10	1	-1E+10	1
4902643	48	C	10/13/2025	09:22	-132.581	43.548	0	1791.50	0	2.0560	0	34.5820	0	27.642	0	1769.606	0	47.5	4	14.3	4	-1E+10	1	-1E+10	1	-1E+10	1	-1E+10	1	-1E+10	1	-1E+10	1
4902643	48	C	10/13/2025	09:22	-132.581	43.548	0	1792.70	0	2.0520	0	34.5800	0	27.641	0	1770.786	0	47.5	4	14.3	4	-1E+10	1	-1E+10	1	-1E+10	1	-1E+10	1	-1E+10	1	-1E+10	1
4902643	48	C	10/13/2025	09:22	-132.581	43.548	0	1793.60	0	2.0520	0	34.5820	0	27.642	0	1771.671	0	47.5	4	14.3	4	-1E+10	1	-1E+10	1	-1E+10	1	-1E+10	1	-1E+10	1	-1E+10	1
4902643	48	C	10/13/2025	09:22	-132.581	43.548	0	1794.60	0	2.0550	0	34.5800	0	27.640	0	1772.655	0	47.4	4	14.3	4	-1E+10	1	-1E+10	1	-1E+10	1	-1E+10	1	-1E+10	1	-1E+10	1
4902643	48	C	10/13/2025	09:22	-132.581	43.548	0	1795.40	0	2.0570	0	34.5810	0	27.641	0	1773.442	0	47.4	4	14.3	4	-1E+10	1	-1E+10	1	-1E+10	1	-1E+10	1	-1E+10	1	-1E+10	1
4902643	48	C	10/13/2025	09:22	-132.581	43.548	0	1796.30	0	2.0570	0	34.5820	0	27.642	0	1774.327	0	47.4	4	14.3	4	-1E+10	1	-1E+10	1	-1E+10	1	-1E+10	1	-1E+10	1	-1E+10	1
4902643	48	C	10/13/2025	09:22	-132.581	43.548	0	1797.30	0	2.0570	0	34.5810	0	27.641	0	1775.311	0	47.4	4	14.3	4	-1E+10	1	-1E+10	1	-1E+10	1	-1E+10	1	-1E+10	1	-1E+10	1
4902643	48	C	10/13/2025	09:22	-132.581	43.548	0	1798.20	0	2.0570	0	34.5810	0	27.641	0	1776.196	0	47.4	4	14.3	4	-1E+10	1	-1E+10	1	-1E+10	1	-1E+10	1	-1E+10	1	-1E+10	1
4902643	48	C	10/13/2025	09:22	-132.581	43.548	0	1799.20	0	2.0590	0	34.5810	0	27.641	0	1777.179	0	47.4	4	14.3	4	-1E+10	1	-1E+10	1	-1E+10	1	-1E+10	1	-1E+10	1	-1E+10	1
4902643	48	C	10/13/2025	09:22	-132.581	43.548	0	1800.50	0	2.0550	0	34.5820	0	27.642	0	1778.458	0	47.4	4	14.3	4	-1E+10	1	-1E+10	1	-1E+10	1	-1E+10	1	-1E+10	1	-1E+10	1
4902643	48	C	10/13/2025	09:22	-132.581	43.548	0	1801.80	0	2.0590	0	34.5810	0	27.641	0	1779.737	0	47.4	4	14.3	4	-1E+10	1	-1E+10	1	-1E+10	1	-1E+10	1	-1E+10	1	-1E+10	1
4902643	48	C	10/13/2025	09:22	-132.581	43.548	0	1803.00	0	2.0590	0	34.5800	0	27.640	0	1780.917	0	47.4	4	14.3	4	-1E+10	1	-1E+10	1	-1E+10	1	-1E+10	1	-1E+10	1	-1E+10	1
4902643	48	C	10/13/2025	09:22	-132.581	43.548	0	1803.60	0	2.0640	0	34.5770	0	27.637	0	1781.507	0	47.4	4	14.3	4	-1E+10	1	-1E+10	1	-1E+10	1	-1E+10	1	-1E+10	1	-1E+10	1
4902643	48	C	10/13/2025	09:22	-132.581	43.548	0	1804.50	0	2.0580	0	34.5810	0	27.641	0	1782.392	0	47.4	4	14.3	4	-1E+10	1	-1E+10	1	-1E+10	1	-1E+10	1	-1E+10	1	-1E+10	1
4902643	48	C	10/13/2025	09:22	-132.581	43.548	0	1805.50	0	2.0610	0	34.5790	0	27.639	0	1783.376	0	47.3	4	14.3	4	-1E+10	1	-1E+10	1	-1E+10	1	-1E+10	1	-1E+10	1	-1E+10	1
4902643	48	C	10/13/2025	09:22	-132.581	43.548	0	1806.60	0	2.0650	0	34.5800	0	27.640	0	1784.458	0	47.4	4	14.3	4	-1E+10	1	-1E+10	1	-1E+10	1	-1E+10	1	-1E+10	1	-1E+10	1
4902643	48	C	10/13/2025	09:22	-132.581	43.548	0	1807.60	0	2.0550	0	34.5810	0	27.641	0	1785.441	0	47.6	4	14.4	4	-1E+10	1	-1E+10	1	-1E+10	1	-1E+10	1	-1E+10	1	-1E+10	1
4902643	48	C	10/13/2025	09:22	-132.581	43.548	0																										
4902643	49	C	10/23/2025	21:54	-132.400	43.581	0	1.90	0	16.5850	0	32.6200	0	23.786	0	1.885	0	226.2	4	92.6	4	-1E+10	1	-1E+10	1	-1E+10	1	-1E+10	1	-1E+10	1	-1E+10	1
4902643	49	C	10/23/2025	21:54	-132.400	43.581	0	2.10	0	16.5840	0	32.6200	0	23.786	0	2.083	0	226.2	4	92.6	4	-1E+10	1	-1E+10	1	-1E+10	1	-1E+10	1	-1E+10	1	-1E+10	1
4902643	49	C	10/23/2025	21:54	-132.400	43.581	0	2.20	0	16.5830	0	32.6190	0	23.785	0	2.182	0	226.1	4	92.6	4	-1E+10	1	-1E+10	1	-1E+10	1	-1E+10	1	-1E+10	1	-1E+10	1
4902643	49	C	10/23/2025	21:54	-132.400	43.581	0	2.30	0	16.5840	0	32.6195	0	23.785	0	2.282	0	226.2	4	92.6	4	-1E+10	1	-1E+10	1	-1E+10	1	-1E+10	1	-1E+10	1	-1E+10	1
4902643	49	C	10/23/2025	21:54	-132.400	43.581	0	2.50	0	16.5840	0	32.6190	0	23.785	0	2.480	0	226.1	4	92.6	4	-1E+10	1	-1E+10	1	-1E+10	1	-1E+10	1	-1E+10	1	-1E+10	1
4902643	49	C	10/23/2025	21:54	-132.400	43.581	0	2.60	0	16.5840	0	32.6200	0	23.786	0	2.579	0	226.2	4	92.6	4	-1E+10	1	-1E+10	1	-1E+10	1	-1E+10	1	-1E+10	1	-1E+10	1
4902643	49	C	10/23/2025	21:54	-132.400	43.581	0	2.70	0	16.5840	0	32.6180	0	23.784	0	2.678	0	226.0	4	92.5	4	-1E+10	1	-1E+10	1	-1E+10	1	-1E+10	1	-1E+10	1	-1E+10	1
4902643	49	C	10/23/2025	21:54	-132.400	43.581	0	4.00	0	16.5830	0	32.6200	0	23.786	0	3.968	0	226.0	4	92.5	4	-1E+10	1	-1E+10	1	-1E+10	1	-1E+10	1	-1E+10	1	-1E+10	1
4902643	49	C	10/23/2025	21:54	-132.400	43.581	0	4.80	0	16.5840	0	32.6210	0	23.787	0	4.762	0	225.9	4	92.5	4	-1E+10	1	-1E+10	1	-1E+10	1	-1E+10	1	-1E+10	1	-1E+10	1
4902643	49	C	10/23/2025	21:54	-132.400	43.581	0	5.80	0	16.5840	0	32.6210	0	23.787	0	5.754	0	225.9	4	92.5	4	-1E+10	1	-1E+10	1	-1E+10	1	-1E+10	1	-1E+10	1	-1E+10	1
4902643	49	C	10/23/2025	21:54	-132.400	43.581	0	6.70	0	16.5840	0	32.6200	0	23.786	0	6.646	0	225.9	4	92.5	4	-1E+10	1	-1E+10	1	-1E+10	1	-1E+10	1	-1E+10	1	-1E+10	1
4902643	49	C	10/23/2025	21:54	-132.400	43.581	0	7.90	0	16.5850	0	32.6210	0	23.787	0	7.837	0	225.9	4	92.5	4	-1E+10	1	-1E+10	1	-1E+10	1	-1E+10	1	-1E+10	1	-1E+10	1
4902643	49	C	10/23/2025	21:54	-132.400	43.581	0	8.70	0	16.5840	0	32.6210	0	23.787	0	8.630	0	225.9	4	92.5	4	-1E+10	1	-1E+10	1	-1E+10	1	-1E+10	1	-1E+10	1	-1E+10	1
4902643	49	C	10/23/2025	21:54	-132.400	43.581	0	9.80	0	16.5850	0	32.6200	0	23.786	0	9.721	0	225.9	4	92.5	4	-1E+10	1	-1E+10	1	-1E+10	1	-1E+10	1	-1E+10	1	-1E+10	1
4902643	49	C	10/23/2025	21:54	-132.400	43.581	0	14.50	0	16.5850	0	32.6200	0	23.786	0	14.384	0	225.8	4	92.5	4	-1E+10	1	-1E+10	1	-1E+10	1	-1E+10	1	-1E+10	1	-1E+10	1
4902643	49	C	10/23/2025	21:54	-132.400	43.581	0	24.50	0	16.5760	0	32.6220	0	23.790	0	24.303	0	225.9	4	92.5	4	-1E+10	1	-1E+10	1	-1E+10	1	-1E+10	1	-1E+10	1	-1E+10	1
4902643	49	C	10/23/2025	21:54	-132.400	43.581	0	34.40	0	16.5620	0	32.6250	0	23.796	0	34.122	0	227.1	4	92.9	4	-1E+10	1	-1E+10	1	-1E+10	1	-1E+10	1	-1E+10	1	-1E+10	1
4902643	49	C	10/23/2025	21:54	-132.400	43.581	0	44.70	0	16.4310	0	32.6170	0	23.820	0	44.338	0	235.8	4	96.3	4	-1E+10	1	-1E+10	1	-1E+10	1	-1E+10	1	-1E+10	1	-1E+10	1
4902643	49	C	10/23/2025	21:54	-132.400	43.581	0	54.70	0	13.1160	0	32.6180	0	24.527	0	54.256	0	255.9	4	97.8	4	-1E+10	1	-1E+10	1	-1E+10	1	-1E+10	1	-1E+10	1	-1E+10	1
4902643	49	C	10/23/2025	21:54	-132.400	43.581	0	64.00	0	11.8800	0	32.6690	0	24.803	0	63.479	0	248.0	4	92.4	4	-1E+10	1	-1E+10	1	-1E+10	1	-1E+10	1	-1E+10	1	-1E+10	1
4902643	49	C	10/23/2025	21:54	-132.400	43.581	0	74.90	0	10.9270	0	32.6540	0	24.964	0	74.288	0	241.0	4	88.0	4	-1E+10	1	-1E+10	1	-1E+10	1	-1E+10	1	-1E+10	1	-1E+10	1
4902643	49	C	10/23/2025	21:54	-132.400	43.581	0	84.50	0	10.3670	0	32.6630	0	25.068	0	83.808	0	237.3	4	85.7	4	-1E+10	1	-1E+10	1	-1E+10	1	-1E+10	1	-1E+10	1	-1E+10	1
4902643	49	C	10/23/2025	21:54	-132.400	43.581	0	94.90	0	10.0480	0	32.6640	0	25.123	0	94.120	0	235.4	4	84.4	4	-1E+10	1	-1E+10	1	-1E+10	1	-1E+10	1	-1E+10	1	-1E+10	1
4902643	49	C	10/23/2025	21:54	-132.400	43.581	0	104.40	0	9.9210	0	32.6910	0	25.165	0	103.540	0	230.8	4	82.5	4	-1E+10	1	-1E+10	1	-1E+10	1	-1E+10	1	-1E+10	1	-1E+10	1
4902643	49	C	10/23/2025	21:54	-132.400	43.581	0	114.80	0	9.7160	0	32.8130	0	25.294	0	113.851	0	220.3	4	78.5	4	-1E+10	1	-1E+10	1	-1E+10	1	-1E+10	1	-1E+10	1	-1E+10	1
4902643	49	C	10/23/2025	21:54	-132.400	43.581	0	124.80	0	9.3380	0	33.1150	0	25.591	0	123.766	0	210.8	4	74.6	4	-1E+10	1	-1E+10	1	-1E+10	1	-1E+10	1	-1E+10	1	-1E+10	1
4902643	49	C	10/23/2025	21:54	-132.400	43.581	0	134.90	0	9.1120	0	33.3300	0	25.795	0	133.779	0	205.3	4	72.4	4	-1E+10	1	-1E+10	1	-1E+10	1	-1E+10	1	-1E+10	1	-1E+10	1
4902643	49	C	10/23/2025	21:54	-132.400	43.581	0	144.90	0	8.9590	0	33.4730	0	25.932	0	143.692	0	200.1	4	70.4	4	-1E+10	1	-1E+10	1	-1E+10	1	-1E+10	1	-1E+10	1	-1E+10	1
4902643	49	C	10/23/2025	21:54	-132.400	43.581	0	155.10	0	8.8240	0	33.6090	0	26.059	0	153.803	0	194.5	4	68.3	4	-1E+10	1	-1E+10	1	-1E+10	1	-1E+10	1	-1E+10	1	-1E+10	1
4902643	49	C	10/23/2025	21:54	-132.400	43.581	0	164.90	0	8.6660	0	33.7100	0	26.163	0	163.518	0	189.9	4	66.6	4	-1E+10	1	-1E+10	1	-1E+10	1	-1E+10	1	-1E+10	1	-1E+10	1
4902643	49	C	10/23/2025	21:54	-132.400	43.581	0	175.00	0	8.4250	0	33.7810	0	26.256	0	173.529	0	186.5	4	65.0	4	-1E+10	1	-1E+10	1	-1E+10	1	-1E+10	1	-1E+10	1	-1E+10	1
4902643	49	C	10/23/2025	21:54	-132.400	43.581	0	184.80	0	8.2050	0	33.8080	0	26.310	0	183.242	0	184.4	4	64.0	4	-1E+10	1	-1E+10	1	-1E+10	1	-1E+10	1	-1E+10	1	-1E+10	1
4902643	49	C	10/23/2025	21:54	-132.400	43.581	0	194.80	0	8.0150	0	33.8230	0	26.350	0	193.153	0	182.3	4	63.0	4	-1E+10	1	-1E+10	1	-1E+10	1	-1E+10	1	-1E+10	1	-1E+10	1
4902643	49	C	10/23/2025	21:54	-132.400	43.581	0	210.00	0	7.7430	0	33.8340	0	26.399	0	208.217	0	178.3	4	61.3	4	-1E+10	1	-1E+10	1	-1E+10	1	-1E+10	1	-1E+10	1	-1E+10	1
4902643	49	C	10/23/2025	21:54	-132.400	43.581	0	230.30	0	7.3780	0	33.8420	0	26.457	0	228.333	0	171.8	4	58.6	4	-1E+10	1	-1E+10	1	-1E+10	1	-1E+10	1	-1E+10	1	-1E+10	1
4902643	49	C	10/23/2025	21:54	-132.400	43.581	0	249.70	0	7.0900	0	33.8460	0	26.501	0	247.556	0	163.5	4	55.4	4	-1E+10	1	-1E+10	1	-1E+10	1	-1E+10	1	-1E+10	1	-1E+10	1
4902643	49	C	10/23/2025	21:54	-132.400	43.581	0	269.50	0	6.7040	0	33.8450	0	26.552	0	267.173	0	148.6	4	49.9	4	-1E+10	1	-1E+10	1	-1E+10	1	-1E+10	1	-1E+10	1	-1E+10	1
4902643	49	C	10/23/2025	21:54	-132.400	43.581	0	290.40	0	6.3340	0	33.8460	0	26.602	0	287.878	0	131.0	4	43.6	4	-1E+10	1	-1E+10	1	-1E+10	1	-1E+10	1	-1E+10	1	-1E+10	1
4902643	49	C	10/23/2025	21:54	-132.400	43.581	0	309.80	0	6.0600	0	33.8490	0	26.639	0	307.095	0	117.9	4	39.0	4	-1E+10	1	-1E+10	1	-1E+10	1	-1E+10	1	-1E+10	1	-1E+10	1
4902643	49	C	10/23/2025	21:54	-132.400	43.581	0	330.50	0	5.7810	0	33.8570	0	26.680	0	327.598	0	104.7	4	34.4	4	-1E+10	1	-1E+10	1	-1E+10	1	-1E+10	1	-1E+10	1	-1E+10	1
4902643	49	C	10/23/2025	21:54	-132.400	43.581	0	349.60	0	5.5800	0	33.8670	0	26.713	0	346.514	0	94.9	4	31.1	4	-1E+10	1	-1E+10	1	-1E+10	1	-1E+10	1	-1E+10	1	-1E+10	1
4902643	49	C	10/23/2025	21:54	-132.400	43.581	0	369.40	0	5.4180	0	33.8790	0	26.742	0	366.122	0	87.5	4	28.5	4	-1E+10	1	-1E+10	1	-1E+10	1	-1E+10	1	-1E+10	1	-1E+10	1
4902643	49	C	10/23/2025	21:54	-132.400	43.581	0	389.30	0	5.2460	0	33.8880	0	26.769	0	385.827	0	81.5	4	26.4	4	-1E+10	1	-1E+10	1	-1E+10	1	-1E+10	1	-1E+10	1	-1E+10	1
4902643	49	C	10/23/2025	21:54	-132.400	43.581	0	409.70	0	5.1060	0	33.9030	0	26.797	0	406.025	0	74.8	4	24.2	4	-1E+10	1	-1E+10	1	-1E+10	1	-1E+10	1	-1E+10	1	-1E+10	1
4902643	49	C	10/23/2025	21:54	-132.400	43.581	0	429.80	0	4.9930	0	33.9210	0	26.825	0	425.924	0	67.5	4	21.8	4	-1E+10	1	-1E+10	1	-1E+10	1	-1E+10	1	-1E+10	1	-1E+10	1
4902643	49	C	10/23/2025	21:54	-132.400	43.581	0	449.40	0	4.9180	0	33.9470	0	26.854	0	445.327	0	58.8	4	18.9	4	-1E+10	1	-1E+10	1	-1E+10	1	-1E+10	1	-1E+10	1	-1E+10	1
4902643	49	C	10/23/2025	21:54	-132.400	43.581	0	469.50	0	4.8480	0	33.9730	0	26.882	0	465.222	0	52.0	4	16.7	4	-1E+10	1	-1E+10	1	-1E+10	1	-1E+10	1	-1E+10	1	-1E+10	1
4902643	49	C	10/23/2025	21:54	-132.400	43.581	0	489.70	0	4.7510	0	33.9950	0	26.911	0	485.214	0	46.9	4	15.1	4	-1E+10	1	-1E+10	1	-1E+10	1	-1E+10	1	-1E+10	1	-1E+10	1
4902643	49	C	10/23/2025	21:54	-132.400	43.581	0	509.30	0	4.6440	0	34.0140	0	26.938	0	504.611	0	41.3	4	13.2	4	-1E+10	1	-1E+10	1	-1E+10	1	-1E+10	1	-1E+10	1	-1E+10	1
4902643	49	C	10/23/2025	21:54	-132.400	43.581	0	529.80	0	4.6010	0	34.0440	0	26.966	0	524.896	0	35.5	4	11.4	4	-1E+10	1	-1E+10	1	-1E+10	1	-1E+10	1	-1E+10	1	-1E+10	1
4902643	49	C	10/23/2025	21:54	-132.400	43.581	0	549.40	0	4.5310	0	34.0630	0	26.989	0	544.289	0	31.7	4	10.1	4	-1E+10	1	-1E+10	1	-1E+10	1	-1E+10	1	-1E+10	1	-1E+10	1
4902643	49	C	10/23/2025	21:54	-132.400	43.581	0	569.60	0	4.4570	0	34.0790	0	27.010	0	564.274	0	28.7	4	9.1	4	-1E+10	1	-1E+10	1	-1E+10	1	-1E+10	1	-1E+10	1	-1E+10	1
4902643	49	C	10/23/2025	21:54	-132.400	43.581	0	589.70	0	4.3970	0	34.0940	0	27.029	0	584.158	0	25.8	4	8.2	4	-1E+10	1	-1E+10	1	-1E+10	1	-1E+10	1	-1E+10	1	-1E+10	1
4902643	49	C	10/23/2025	21:54	-132.400	43.581	0	609.70	0	4.3560	0	34.1100	0	27.046	0	603.941	0	22.4	4	7.1	4	-1E+10	1	-1E+10	1	-1E+10	1	-1E+10	1	-1E+10	1	-1E+10	1
4902643	49	C	10/23/2025	21:54	-132.400	43.581	0	630.40	0	4.2920	0	34.1330	0	27.071	0	624.414	0	19.2	4	6.1	4	-1E+10	1	-1E+10	1	-1E+10	1	-1E+10	1	-1E+10	1	-1E+10	1
4902643	49	C	10/23/2025	21:54	-132.400	43.581	0	649.90	0	4.2620	0	34.1500	0	27.088	0	643.699	0	17.0	4	5.4	4	-1E+10	1	-1E+10	1	-1E+10	1	-1E+10	1	-1E+10	1	-1E+10	1
4902643	49	C	10/23/2025	21:54	-132.400	43.581	0	670.00	0	4.2060	0	34.1630	0	27.104	0	663.575	0	15.3	4	4.9	4	-1E+10	1	-1E+10	1	-1E+10	1	-1E+10	1	-1E+10	1	-1E+10	1
4902643	49	C	10/23/2025	21:54	-132.400	43.581	0	689.80	0	4.1550	0	34.1830	0	27.126	0	683.153	0	13.4	4	4.3	4	-1E+10	1	-1E+10	1	-1E+10	1	-1E+10	1	-1E+10	1	-1E+10	1
4902643	49	C	10/23/2025	21:54	-132.400	43.581	0	709.70	0	4.1320	0	34.1990	0	27.141	0	702.828	0	11.8	4	3.7	4	-1E+10	1	-1E+10	1	-1E+10	1	-1E+10	1	-1E+10	1	-1E+10	1
4902643	49	C	10/23/2025	21:54	-132.400	43.581	0	729.60	0	4.0530	0	34.2140	0	27.161	0	722.500	0	11.0	4	3.5	4	-1E+10	1	-1E+10	1	-1E+10	1	-1E+10	1	-1E+10	1	-1E+10	1
4902643	49	C	10/23/2025	21:54	-132.400	43.581	0	749.50	0	3.9800	0	34.2240	0	27.177	0	742.171	0	10.0	4	3.2	4	-1E+10	1	-1E+10	1	-1E+10	1	-1E+10	1	-1E+10	1	-1E+10	1
4902643	49	C	10/23/2025	21:54	-132.400	43.581	0	769.80	0	3.9660	0	34.2460	0	27.196	0	762.236	0	8.8	4	2.8	4	-1E+10	1	-1E+10	1	-1E+10	1	-1E+10	1	-1E+10	1	-1E+10	1
4902643	49	C	10/23/2025	21:54	-132.400	43.581	0	789.60	0	3.9320	0	34.2580	0	27.209	0	781.804	0	8.2	4	2.6	4	-1E+10	1	-1E+10	1	-1E+10	1	-1E+10	1	-1E+10	1	-1E+10	1
4902643	49	C	10/23/2025	21:54	-132.400	43.581	0	809.50	0	3.8890	0	34.2720	0	27.224	0	801.470	0	7.6	4	2.4	4	-1E+10	1	-1E+10	1	-1E+10	1	-1E+10	1	-1E+10	1	-1E+10	1
4902643	49	C	10/23/2025	21:54	-132.400	43.581	0	829.80	0	3.8690	0	34.2880	0	27.239	0	821.528	0	7.1	4	2.2	4	-1E+10	1	-1E+10	1	-1E+10	1	-1E+10	1	-1E+10	1	-1E+10	1
4902643	49	C	10/23/2025	21:54	-132.400	43.581	0	849.60	0	3.8290	0	34.2980	0	27.251	0	841.091	0	6.8	4	2.1	4	-1E+10	1	-1E+10	1	-1E+10	1	-1E+10	1	-1E+10	1	-1E+10	1
4902643	49	C	10/23/2025	21:54	-132.400	43.581	0	870.50	0	3.7770	0	34.3090	0	27.266	0	861.739	0	6.6	4	2.1	4	-1E+10	1	-1E+10	1	-1E+10	1	-1E+10	1	-1E+10	1	-1E+10	1
4902643	49	C	10/23/2025	21:54	-132.400	43.581	0	889.90	0	3.7350	0	34.3200	0	27.279	0	880.903	0	6.4	4	2.0	4	-1E+10	1	-1E+10	1	-1E+10	1	-1E+10	1	-1E+10	1	-1E+10	1
4902643	49	C	10/23/2025	21:54	-132.400	43.581	0	909.50	0	3.6750	0	34.3290	0	27.292	0	900.262	0	6.4	4	2.0	4	-1E+10	1	-1E+10	1	-1E+10	1	-1E+10	1	-1E+10	1	-1E+10	1
4902643	49	C	10/23/2025	21:54	-132.400	43.581	0	928.70	0	3.6400	0	34.3390	0	27.303	0	919.225	0	6.4	4	2.0	4	-1E+10	1	-1E+10	1	-1E+10	1	-1E+10	1	-1E+10	1	-1E+10	1
4902643	49	C	10/23/2025	21:54	-132.400	43.581	0	949.90	0	3.6050	0	34.3530	0	27.318	0	940.161	0	6.5	4	2.0	4	-1E+10	1	-1E+10	1	-1E+10	1	-1E+10	1	-1E+10	1	-1E+10	1
4902643	49	C	10/23/2025	21:54	-132.400	43.581	0	969.60	0	3.5940	0	34.3690	0	27.332	0	959.614	0	6.7	4	2.1	4	-1E+10	1	-1E+10	1	-1E+10	1	-1E+10	1	-1E+10	1	-1E+10	1
4902643	49	C	10/23/2025	21:54	-132.400	43.581	0	989.80	0	3.5280	0	34.3740	0	27.343	0	979.559	0	6.8	4	2.1	4	-1E+10	1	-1E+10	1	-1E+10	1	-1E+10	1	-1E+10	1	-1E+10	1
4902643	49	C	10/23/2025	21:54	-132.400	43.581	0	1010.00	0	3.4700	0	34.3830	0	27.355	0	999.502	0	7.0	4	2.2	4	-1E+10	1	-1E+10	1	-1E+10	1	-1E+10	1	-1E+10	1	-1E+10	1
4902643	49	C	10/23/2025	21:54	-132.400	43.581	0	1029.70	0	3.4110	0	34.3920	0	27.368	0	1018.949	0	7.3	4	2.3	4	-1E+10	1	-1E+10	1	-1E+10	1	-1E+10	1	-1E+10	1	-1E+10	1
4902643	49	C	10/23/2025	21:54	-132.400	43.581	0	1049.40	0	3.3820	0	34.4000	0	27.378	0	1038.395	0	7.7	4	2.4	4	-1E+10	1	-1E+10	1	-1E+10	1	-1E+10	1	-1E+10	1	-1E+10	1
4902643	49	C	10/23/2025	21:54	-132.400	43.581	0	1069.50	0	3.3570	0	34.4100	0	27.388	0	1058.233	0	8.3	4	2.6	4	-1E+10	1	-1E+10	1	-1E+10	1	-1E+10	1	-1E+10	1	-1E+10	1
4902643	49	C	10/23/2025	21:54	-132.400	43.581	0	1090.10	0	3.3190	0	34.4170	0	27.397	0	1078.563	0	8.8	4	2.7	4	-1E+10	1	-1E+10	1	-1E+10	1	-1E+10	1	-1E+10	1	-1E+10	1
4902643	49	C	10/23/2025	21:54	-132.400	43.581	0	1109.80	0	3.2740	0	34.4250	0	27.408	0	1098.003	0	9.3	4	2.9	4	-1E+10	1	-1E+10	1	-1E+10	1	-1E+10	1	-1E+10	1	-1E+10	1
4902643	49	C	10/23/2025	21:54	-132.400	43.581	0	1129.70	0	3.2310	0	34.4300	0	27.416	0	1117.639	0	9.6	4	3.0	4	-1E+10	1	-1E+10	1	-1E+10	1	-1E+10	1	-1E+10	1	-1E+10	1
4902643	49	C	10/23/2025	21:54	-132.400	43.581	0	1149.40	0	3.1970	0	34.4350	0	27.423	0	1137.075	0	10.1	4	3.1	4	-1E+10	1	-1E+10	1	-1E+10	1	-1E+10	1	-1E+10	1	-1E+10	1
4902643	49	C	10/23/2025	21:54	-132.400	43.581	0	1169.50	0	3.1640	0	34.4410	0	27.431	0	1156.904	0	10.7	4	3.3	4	-1E+10	1	-1E+10	1	-1E+10	1	-1E+10	1	-1E+10	1	-1E+10	1
4902643	49	C	10/23/2025	21:54	-132.400	43.581	0	1189.90	0	3.1390	0	34.4460	0	27.438	0	1177.028	0	11.1	4	3.4	4	-1E+10	1	-1E+10	1	-1E+10	1	-1E+10	1	-1E+10	1	-1E+10	1
4902643	49	C	10/23/2025	21:54	-132.400	43.581	0	1209.90	0	3.1140	0	34.4490	0	27.443	0	1196.754	0	11.6	4	3.6	4	-1E+10	1	-1E+10	1	-1E+10	1	-1E+10	1	-1E+10	1	-1E+10	1
4902643	49	C	10/23/2025	21:54	-132.400	43.581	0	1229.70	0	3.0860	0	34.4540	0	27.449	0	1216.282	0	12.3	4	3.8	4	-1E+10	1	-1E+10	1	-1E+10	1	-1E+10	1	-1E+10	1	-1E+10	1
4902643	49	C	10/23/2025	21:54	-132.400	43.581	0	1249.70	0	3.0370	0	34.4610	0	27.459	0	1236.005	0	13.0	4	4.0	4	-1E+10	1	-1E+10	1	-1E+10	1	-1E+10	1	-1E+10	1	-1E+10	1
4902643	49	C	10/23/2025	21:54	-132.400	43.581	0	1269.20	0	3.0090	0	34.4650	0	27.465	0	1255.233	0	13.5	4	4.2	4	-1E+10	1	-1E+10	1	-1E+10	1	-1E+10	1	-1E+10	1	-1E+10	1
4902643	49	C	10/23/2025	21:54	-132.400	43.581	0	1289.90	0	2.9710	0	34.4700	0	27.473	0	1275.643	0	14.5	4	4.5	4	-1E+10	1	-1E+10	1	-1E+10	1	-1E+10	1	-1E+10	1	-1E+10	1
4902643	49	C	10/23/2025	21:54	-132.400	43.581	0	1309.80	0	2.9210	0	34.4770	0	27.483	0	1295.262	0	15.5	4	4.8	4	-1E+10	1	-1E+10	1	-1E+10	1	-1E+10	1	-1E+10	1	-1E+10	1
4902643	49	C	10/23/2025	21:54	-132.400	43.581	0	1329.70	0	2.8930	0	34.4810	0	27.489	0	1314.879	0	16.3	4	5.0	4	-1E+10	1	-1E+10	1	-1E+10	1	-1E+10	1	-1E+10	1	-1E+10	1
4902643	49	C	10/23/2025	21:54	-132.400	43.581	0	1349.80	0	2.8490	0	34.4860	0	27.497	0	1334.691	0	17.3	4	5.3	4	-1E+10	1	-1E+10	1	-1E+10	1	-1E+10	1	-1E+10	1	-1E+10	1
4902643	49	C	10/23/2025	21:54	-132.400	43.581	0	1370.50	0	2.8170	0	34.4900	0	27.503	0	1355.093	0	18.2	4	5.6	4	-1E+10	1	-1E+10	1	-1E+10	1	-1E+10	1	-1E+10	1	-1E+10	1
4902643	49	C	10/23/2025	21:54	-132.400	43.581	0	1389.70	0	2.7660	0	34.4970	0	27.513	0	1374.015	0	19.4	4	6.0	4	-1E+10	1	-1E+10	1	-1E+10	1	-1E+10	1	-1E+10	1	-1E+10	1
4902643	49	C	10/23/2025	21:54	-132.400	43.581	0	1409.90	0	2.7360	0	34.5010	0	27.519	0	1393.920	0	20.3	4	6.2	4	-1E+10	1	-1E+10	1	-1E+10	1	-1E+10	1	-1E+10	1	-1E+10	1
4902643	49	C	10/23/2025	21:54	-132.400	43.581	0	1430.00	0	2.6990	0	34.5050	0	27.526	0	1413.725	0	21.3	4	6.5	4	-1E+10	1	-1E+10	1	-1E+10	1	-1E+10	1	-1E+10	1	-1E+10	1
4902643	49	C	10/23/2025	21:54	-132.400	43.581	0	1449.80	0	2.6710	0	34.5090	0	27.531	0	1433.232	0	22.3	4	6.8	4	-1E+10	1	-1E+10	1	-1E+10	1	-1E+10	1	-1E+10	1	-1E+10	1
4902643	49	C	10/23/2025	21:54	-132.400	43.581	0	1469.70	0	2.6320	0	34.5130	0	27.538	0	1452.836	0	23.6	4	7.2	4	-1E+10	1	-1E+10	1	-1E+10	1	-1E+10	1	-1E+10	1	-1E+10	1
4902643	49	C	10/23/2025	21:54	-132.400	43.581	0	1489.90	0	2.6000	0	34.5170	0	27.544	0	1472.734	0	24.6	4	7.5	4	-1E+10	1	-1E+10	1	-1E+10	1	-1E+10	1	-1E+10	1	-1E+10	1
4902643	49	C	10/23/2025	21:54	-132.400	43.581	0	1509.60	0	2.5660	0	34.5210	0	27.550	0	1492.138	0	25.8	4	7.9	4	-1E+10	1	-1E+10	1	-1E+10	1	-1E+10	1	-1E+10	1	-1E+10	1
4902643	49	C	10/23/2025	21:54	-132.400	43.581	0	1529.80	0	2.5270	0	34.5250	0	27.557	0	1512.032	0	26.9	4	8.2	4	-1E+10	1	-1E+10	1	-1E+10	1	-1E+10	1	-1E+10	1	-1E+10	1
4902643	49	C	10/23/2025	21:54	-132.400	43.581	0	1550.00	0	2.4940	0	34.5280	0	27.562	0	1531.924	0	27.7	4	8.5	4	-1E+10	1	-1E+10	1	-1E+10	1	-1E+10	1	-1E+10	1	-1E+10	1
4902643	49	C	10/23/2025	21:54	-132.400	43.581	0	1569.70	0	2.4760	0	34.5310	0	27.566	0	1551.322	0	28.6	4	8.7	4	-1E+10	1	-1E+10	1	-1E+10	1	-1E+10	1	-1E+10	1	-1E+10	1
4902643	49	C	10/23/2025	21:54	-132.400	43.581	0	1589.80	0	2.4390	0	34.5350	0	27.572	0	1571.113	0	30.1	4	9.2	4	-1E+10	1	-1E+10	1	-1E+10	1	-1E+10	1	-1E+10	1	-1E+10	1
4902643	49	C	10/23/2025	21:54	-132.400	43.581	0	1609.80	0	2.4020	0	34.5390	0	27.579	0	1590.802	0	31.4	4	9.6	4	-1E+10	1	-1E+10	1	-1E+10	1	-1E+10	1	-1E+10	1	-1E+10	1
4902643	49	C	10/23/2025	21:54	-132.400	43.581	0	1629.50	0	2.3710	0	34.5430	0	27.585	0	1610.195	0	32.8	4	10.0	4	-1E+10	1	-1E+10	1	-1E+10	1	-1E+10	1	-1E+10	1	-1E+10	1
4902643	49	C	10/23/2025	21:54	-132.400	43.581	0	1650.50	0	2.3290	0	34.5480	0	27.592	0	1630.865	0	34.4	4	10.4	4	-1E+10	1	-1E+10	1	-1E+10	1	-1E+10	1	-1E+10	1	-1E+10	1
4902643	49	C	10/23/2025	21:54	-132.400	43.581	0	1670.00	0	2.2960	0	34.5520	0	27.598	0	1650.058	0	36.1	4	11.0	4	-1E+10	1	-1E+10	1	-1E+10	1	-1E+10	1	-1E+10	1	-1E+10	1
4902643	49	C	10/23/2025	21:54	-132.400	43.581	0	1689.20	0	2.2560	0	34.5560	0	27.605	0	1668.953	0	37.7	4	11.4	4	-1E+10	1	-1E+10	1	-1E+10	1	-1E+10	1	-1E+10	1	-1E+10	1
4902643	49	C	10/23/2025	21:54	-132.400	43.581	0	1709.70	0	2.2310	0	34.5600	0	27.610	0	1689.125	0	38.7	4	11.7	4	-1E+10	1	-1E+10	1	-1E+10	1	-1E+10	1	-1E+10	1	-1E+10	1
4902643	49	C	10/23/2025	21:54	-132.400	43.581	0	1730.00	0	2.2100	0	34.5620	0	27.613	0	1709.099	0	39.8	4	12.1	4	-1E+10	1	-1E+10	1	-1E+10	1	-1E+10	1	-1E+10	1	-1E+10	1
4902643	49	C	10/23/2025	21:54	-132.400	43.581	0	1749.90	0	2.1870	0	34.5650	0	27.618	0	1728.678	0	41.0	4	12.4	4	-1E+10	1	-1E+10	1	-1E+10	1	-1E+10	1	-1E+10	1	-1E+10	1
4902643	49	C	10/23/2025	21:54	-132.400	43.581	0	1769.50	0	2.1550	0	34.5670	0	27.622	0	1747.960	0	41.8	4	12.7	4	-1E+10	1	-1E+10	1	-1E+10	1	-1E+10	1	-1E+10	1	-1E+10	1
4902643	49	C	10/23/2025	21:54	-132.400	43.581	0	1789.70	0	2.1290	0	34.5690	0	27.626	0	1767.830	0	42.6	4	12.9	4	-1E+10	1	-1E+10	1	-1E+10	1	-1E+10	1	-1E+10	1	-1E+10	1
4902643	49	C	10/23/2025	21:54	-132.400	43.581	0	1809.70	0	2.1150	0	34.5720	0	27.629	0	1787.501	0	44.3	4	13.4	4	-1E+10	1	-1E+10	1	-1E+10	1	-1E+10	1	-1E+10	1	-1E+10	1
4902643	49	C	10/23/2025	21:54	-132.400	43.581	0	1829.60	0	2.0870	0	34.5760	0	27.635	0	1807.072	0	45.7	4	13.8	4	-1E+10	1	-1E+10	1	-1E+10	1	-1E+10	1	-1E+10	1	-1E+10	1
4902643	49	C	10/23/2025	21:54	-132.400	43.581	0	1850.10	0	2.0730	0	34.5780	0	27.638	0	1827.232	0	46.7	4	14.1	4	-1E+10	1	-1E+10	1	-1E+10	1	-1E+10	1	-1E+10	1	-1E+10	1
4902643	49	C	10/23/2025	21:54	-132.400	43.581	0	1869.50	0	2.0520	0	34.5810	0	27.642	0	1846.308	0	47.9	4	14.5	4	-1E+10	1	-1E+10	1	-1E+10	1	-1E+10	1	-1E+10	1	-1E+10	1
4902643	49	C	10/23/2025	21:54	-132.400	43.581	0	1889.70	0	2.0380	0	34.5830	0	27.645	0	1866.169	0	49.0	4	14.8	4	-1E+10	1	-1E+10	1	-1E+10	1	-1E+10	1	-1E+10	1	-1E+10	1
4902643	49	C	10/23/2025	21:54	-132.400	43.581	0	1909.80	0	2.0240	0	34.5850	0	27.647	0	1885.930	0	50.2	4	15.1	4	-1E+10	1	-1E+10	1	-1E+10	1	-1E+10	1	-1E+10	1	-1E+10	1
4902643	49	C	10/23/2025	21:54	-132.400	43.581	0	1929.80	0	2.0090	0	34.5880	0	27.651	0	1905.590	0	51.2	4	15.4	4	-1E+10	1	-1E+10	1	-1E+10	1	-1E+10	1	-1E+10	1	-1E+10	1
4902643	49	C	10/23/2025	21:54	-132.400	43.581	0	1949.60	0	1.9890	0	34.5900	0	27.654	0	1925.052	0	52.5	4	15.8	4	-1E+10	1	-1E+10	1	-1E+10	1	-1E+10	1	-1E+10	1	-1E+10	1
4902643	49	C	10/23/2025	21:54	-132.400	43.581	0	1970.40	0	1.9740	0	34.5930	0	27.658	0	1945.495	0	53.3	4	16.0	4	-1E+10	1	-1E+10	1	-1E+10	1	-1E+10	1	-1E+10	1	-1E+10	1
4902643	49	C	10/23/2025	21:54	-132.400	43.581	0	1989.60	0	1.9710	0	34.5930	0	27.658	0	1964.364	0	53.6	4	16.1	4	-1E+10	1	-1E+10	1	-1E+10	1	-1E+10	1	-1E+10	1	-1E+10	1
4902643	49	C	10/23/2025	21:54	-132.400	43.581	0	2009.60	0	1.9660	0	34.5940	4	27.660	0	1984.018	0	54.1	4	16.3	4	-1E+10	1	-1E+10	1	-1E+10	1	-1E+10	1	-1E+10	1	-1E+10	1
4902643	49	C	10/23/2025	21:54	-132.400	43.581	0	2029.90	0	1.9570	0	34.5950	4	27.661	0	2003.964	0	54.9	4	16.5	4	-1E+10	1	-1E+10	1	-1E+10	1	-1E+10	1	-1E+10	1	-1E+10	1
4902643	49	C	10/23/2025	21:54	-132.400	43.581	0	2049.70	0	1.9390	0	34.5980	4	27.665	0	2023.417	0	56.0	4	16.9	4	-1E+10	1	-1E+10	1	-1E+10	1	-1E+10	1	-1E+10	1	-1E+10	1
4902643	49	C	10/23/2025	21:54	-132.400	43.581	0	2069.70	0	1.9280	0	34.6000	4	27.668	0	2043.065	0	56.7	4	17.1	4	-1E+10	1	-1E+10	1	-1E+10	1	-1E+10	1	-1E+10	1	-1E+10	1
4902643	49	C	10/23/2025	21:54	-132.400	43.581	0	2089.90	0	1.9170	0	34.6020	4	27.670	0	2062.907	0	57.8	4	17.4	4	-1E+10	1	-1E+10	1	-1E+10	1	-1E+10	1	-1E+10	1	-1E+10	1
4902643	49	C	10/23/2025	21:54	-132.400	43.581	0	2110.00	0	1.9080	0	34.6030	4	27.672	0	2082.650	0	58.6	4	17.6	4	-1E+10	1	-1E+10	1	-1E+10	1	-1E+10	1	-1E+10	1	-1E+10	1
4902643	49	C	10/23/2025	21:54	-132.400	43.581	0	2129.70	0	1.9010	0	34.6050	4	27.674	0	2101.997	0	59.3	4	17.8	4	-1E+10	1	-1E+10	1	-1E+10	1	-1E+10	1	-1E+10	1	-1E+10	1
4902643	49	C	10/23/2025	21:54	-132.400	43.581	0	2149.50	0	1.8940	0	34.6060	4	27.676	0	2121.442	0	60.0	4	18.1	4	-1E+10	1	-1E+10	1	-1E+10	1	-1E+10	1	-1E+10	1	-1E+10	1
4902643	49	C	10/23/2025	21:54	-132.400	43.581	0	2169.70	0	1.8840	0	34.6080	4	27.678	0	2141.277	0	61.1	4	18.4	4	-1E+10	1	-1E+10	1	-1E+10	1	-1E+10	1	-1E+10	1	-1E+10	1
4902643	49	C	10/23/2025	21:54	-132.400	43.581	0	2189.60	0	1.8710	0	34.6100	4	27.681	0	2160.816	0	61.9	4	18.6	4	-1E+10	1	-1E+10	1	-1E+10	1	-1E+10	1	-1E+10	1	-1E+10	1
4902643	49	C	10/23/2025	21:54	-132.400	43.581	0	2209.70	0	1.8670	0	34.6110	4	27.682	0	2180.549	0	62.5	4	18.8	4	-1E+10	1	-1E+10	1	-1E+10	1	-1E+10	1	-1E+10	1	-1E+10	1
4902643	49	C	10/23/2025	21:54	-132.400	43.581	0	2229.80	0	1.8580	0	34.6120	4	27.684	0	2200.281	0	63.4	4	19.0	4	-1E+10	1	-1E+10	1	-1E+10	1	-1E+10	1	-1E+10	1	-1E+10	1
4902643	49	C	10/23/2025	21:54	-132.400	43.581	0	2249.70	0	1.8480	0	34.6140	4	27.686	0	2219.814	0	64.3	4	19.3	4	-1E+10	1	-1E+10	1	-1E+10	1	-1E+10	1	-1E+10	1	-1E+10	1
4902643	49	C	10/23/2025	21:54	-132.400	43.581	0	2269.50	0	1.8390	0	34.6150	4	27.688	0	2239.247	0	64.8	4	19.5	4	-1E+10	1	-1E+10	1	-1E+10	1	-1E+10	1	-1E+10	1	-1E+10	1
4902643	49	C	10/23/2025	21:54	-132.400	43.581	0	2290.00	0	1.8300	0	34.6160	4	27.689	0	2259.366	0	65.6	4	19.7	4	-1E+10	1	-1E+10	1	-1E+10	1	-1E+10	1	-1E+10	1	-1E+10	1
4902643	49	C	10/23/2025	21:54	-132.400	43.581	0	2309.50	0	1.8220	0	34.6180	4	27.692	0	2278.502	0	66.5	4	20.0	4	-1E+10	1	-1E+10	1	-1E+10	1	-1E+10	1	-1E+10	1	-1E+10	1
4902643	49	C	10/23/2025	21:54	-132.400	43.581	0	2329.60	0	1.8150	0	34.6190	4	27.693	0	2298.224	0	67.2	4	20.2	4	-1E+10	1	-1E+10	1	-1E+10	1	-1E+10	1	-1E+10	1	-1E+10	1
4902643	49	C	10/23/2025	21:54	-132.400	43.581	0	2349.80	0	1.8080	0	34.6200	4	27.695	0	2318.043	0	68.0	4	20.4	4	-1E+10	1	-1E+10	1	-1E+10	1	-1E+10	1	-1E+10	1	-1E+10	1
4902643	49	C	10/23/2025	21:54	-132.400	43.581	0	2369.60	0	1.8000	0	34.6210	4	27.696	0	2337.468	0	68.8	4	20.6	4	-1E+10	1	-1E+10	1	-1E+10	1	-1E+10	1	-1E+10	1	-1E+10	1
4902643	49	C	10/23/2025	21:54	-132.400	43.581	0	2390.10	0	1.7960	0	34.6230	4	27.698	0	2357.577	0	69.3	4	20.8	4	-1E+10	1	-1E+10	1	-1E+10	1	-1E+10	1	-1E+10	1	-1E+10	1
4902643	49	C	10/23/2025	21:54	-132.400	43.581	0	2409.30	0	1.7900	0	34.6230	4	27.699	0	2376.409	0	70.1	4	21.0	4	-1E+10	1	-1E+10	1	-1E+10	1	-1E+10	1	-1E+10	1	-1E+10	1
4902643	49	C	10/23/2025	21:54	-132.400	43.581	0	2429.70	0	1.7830	0	34.6250	4	27.701	0	2396.417	0	70.9	4	21.3	4	-1E+10	1	-1E+10	1	-1E+10	1	-1E+10	1	-1E+10	1	-1E+10	1
4902643	49	C	10/23/2025	21:54	-132.400	43.581	0	2449.80	0	1.7750	0	34.6260	4	27.702	0	2416.129	0	71.7	4	21.5	4	-1E+10	1	-1E+10	1	-1E+10	1	-1E+10	1	-1E+10	1	-1E+10	1
4902643	49	C	10/23/2025	21:54	-132.400	43.581	0	2469.60	0	1.7700	0	34.6270	4	27.704	0	2435.544	0	72.4	4	21.7	4	-1E+10	1	-1E+10	1	-1E+10	1	-1E+10	1	-1E+10	1	-1E+10	1
4902643	49	C	10/23/2025	21:54	-132.400	43.581	0	2489.90	0	1.7620	0	34.6280	4	27.705	0	2455.448	0	73.2	4	21.9	4	-1E+10	1	-1E+10	1	-1E+10	1	-1E+10	1	-1E+10	1	-1E+10	1
4902643	49	C	10/23/2025	21:54	-132.400	43.581	0	2509.80	0	1.7530	0	34.6290	4	27.707	0	2474.959	0	74.0	4	22.2	4	-1E+10	1	-1E+10	1	-1E+10	1	-1E+10	1	-1E+10	1	-1E+10	1
4902643	49	C	10/23/2025	21:54	-132.400	43.581	0	2529.80	0	1.7450	0	34.6300	4	27.708	0	2494.565	0	74.9	4	22.4	4	-1E+10	1	-1E+10	1	-1E+10	1	-1E+10	1	-1E+10	1	-1E+10	1
4902643	49	C	10/23/2025	21:54	-132.400	43.581	0	2549.70	0	1.7370	0	34.6310	4	27.710	0	2514.072	0	75.6	4	22.7	4	-1E+10	1	-1E+10	1	-1E+10	1	-1E+10	1	-1E+10	1	-1E+10	1
4902643	49	C	10/23/2025	21:54	-132.400	43.581	0	2570.30	0	1.7290	0	34.6320	4	27.711	0	2534.263	0	76.4	4	22.9	4	-1E+10	1	-1E+10	1	-1E+10	1	-1E+10	1	-1E+10	1	-1E+10	1
4902643	49	C	10/23/2025	21:54	-132.400	43.581	0	2589.60	0	1.7240	0	34.6330	4	27.713	0	2553.178	0	77.2	4	23.1	4	-1E+10	1	-1E+10	1	-1E+10	1	-1E+10	1	-1E+10	1	-1E+10	1
4902643	49	C	10/23/2025	21:54	-132.400	43.581	0	2609.60	0	1.7160	0	34.6340	4	27.714	0	2572.777	0	78.1	4	23.4	4	-1E+10	1	-1E+10	1	-1E+10	1	-1E+10	1	-1E+10	1	-1E+10	1
4902643	49	C	10/23/2025	21:54	-132.400	43.581	0	2629.80	0	1.7080	0	34.6350	4	27.716	0	2592.570	0	79.0	4	23.6	4	-1E+10	1	-1E+10	1	-1E+10	1	-1E+10	1	-1E+10	1	-1E+10	1
4902643	49	C	10/23/2025	21:54	-132.400	43.581	0	2650.10	0	1.6990	0	34.6360	4	27.717	0	2612.460	0	79.8	4	23.9	4	-1E+10	1	-1E+10	1	-1E+10	1	-1E+10	1	-1E+10	1	-1E+10	1
4902643	49	C	10/23/2025	21:54	-132.400	43.581	0	2669.90	0	1.6950	0	34.6370	4	27.719	0	2631.858	0	80.5	4	24.1	4	-1E+10	1	-1E+10	1	-1E+10	1	-1E+10	1	-1E+10	1	-1E+10	1
4902643	49	C	10/23/2025	21:54	-132.400	43.581	0	2690.20	0	1.6870	0	34.6380	4	27.720	0	2651.744	0	81.2	4	24.3	4	-1E+10	1	-1E+10	1	-1E+10	1	-1E+10	1	-1E+10	1	-1E+10	1
4902643	49	C	10/23/2025	21:54	-132.400	43.581	0	2710.10	0	1.6810	0	34.6390	4	27.721	0	2671.236	0	82.1	4	24.6	4	-1E+10	1	-1E+10	1	-1E+10	1	-1E+10	1	-1E+10	1	-1E+10	1
4902643	49	C	10/23/2025	21:54	-132.400	43.581	0	2729.60	0	1.6760	0	34.6400	4	27.723	0	2690.335	0	82.8	4	24.8	4	-1E+10	1	-1E+10	1	-1E+10	1	-1E+10	1	-1E+10	1	-1E+10	1
4902643	49	C	10/23/2025	21:54	-132.400	43.581	0	2749.40	0	1.6720	0	34.6400	4	27.723	0	2709.726	0	83.5	4	25.0	4	-1E+10	1	-1E+10	1	-1E+10	1	-1E+10	1	-1E+10	1	-1E+10	1
4902643	49	C	10/23/2025	21:54	-132.400	43.581	0	2769.60	0	1.6680	0	34.6410	4	27.724	0	2729.507	0	84.1	4	25.2	4	-1E+10	1	-1E+10	1	-1E+10	1	-1E+10	1	-1E+10	1	-1E+10	1
4902643	49	C	10/23/2025	21:54	-132.400	43.581	0	2789.50	0	1.6620	0	34.6420	4	27.726	0	2748.992	0	84.9	4	25.4	4	-1E+10	1	-1E+10	1	-1E+10	1	-1E+10	1	-1E+10	1	-1E+10	1
4902643	49	C	10/23/2025	21:54	-132.400	43.581	0	2809.30	0	1.6560	0	34.6430	4	27.727	0	2768.378	0	85.5	4	25.6	4	-1E+10	1	-1E+10	1	-1E+10	1	-1E+10	1	-1E+10	1	-1E+10	1
4902643	49	C	10/23/2025	21:54	-132.400	43.581	0	2830.40	0	1.6510	0	34.6430	4	27.728	0	2789.035	0	86.2	4	25.8	4	-1E+10	1	-1E+10	1	-1E+10	1	-1E+10	1	-1E+10	1	-1E+10	1
4902643	49	C	10/23/2025	21:54	-132.400	43.581	0	2849.70	0	1.6480	0	34.6440	4	27.729	0	2807.927	0	86.7	4	25.9	4	-1E+10	1	-1E+10	1	-1E+10	1	-1E+10	1	-1E+10	1	-1E+10	1
4902643	49	C	10/23/2025	21:54	-132.400	43.581	0	2869.60	0	1.6440	0	34.6450	4	27.730	0	2827.406	0	87.2	4	26.1	4	-1E+10	1	-1E+10	1	-1E+10	1	-1E+10	1	-1E+10	1	-1E+10	1
4902643	49	C	10/23/2025	21:54	-132.400	43.581	0	2889.70	0	1.6410	0	34.6450	4	27.730	0	2847.078	0	87.9	4	26.3	4	-1E+10	1	-1E+10	1	-1E+10	1	-1E+10	1	-1E+10	1	-1E+10	1
4902643	49	C	10/23/2025	21:54	-132.400	43.581	0	2909.60	0	1.6350	0	34.6460	4	27.732	0	2866.553	0	88.9	4	26.6	4	-1E+10	1	-1E+10	1	-1E+10	1	-1E+10	1	-1E+10	1	-1E+10	1
4902643	49	C	10/23/2025	21:54	-132.400	43.581	0	2929.70	0	1.6300	0	34.6470	4	27.733	0	2886.221	0	89.7	4	26.8	4	-1E+10	1	-1E+10	1	-1E+10	1	-1E+10	1	-1E+10	1	-1E+10	1
4902643	49	C	10/23/2025	21:54	-132.400	43.581	0	2950.30	0	1.6240	0	34.6480	4	27.734	0	2906.378	0	90.6	4	27.1	4	-1E+10	1	-1E+10	1	-1E+10	1	-1E+10	1	-1E+10	1	-1E+10	1
4902643	49	C	10/23/2025	21:54	-132.400	43.581	0	2969.60	0	1.6200	0	34.6490	4	27.735	0	2925.260	0	91.1	4	27.2	4	-1E+10	1	-1E+10	1	-1E+10	1	-1E+10	1	-1E+10	1	-1E+10	1
4902643	49	C	10/23/2025	21:54	-132.400	43.581	0	2989.80	0	1.6170	0	34.6500	4	27.737	0	2945.021	0	91.6	4	27.4	4	-1E+10	1	-1E+10	1	-1E+10	1	-1E+10	1	-1E+10	1	-1E+10	1
4902643	49	C	10/23/2025	21:54	-132.400	43.581	0	3009.80	0	1.6130	0	34.6500	4	27.737	0	2964.585	0	92.2	4	27.5	4	-1E+10	1	-1E+10	1	-1E+10	1	-1E+10	1	-1E+10	1	-1E+10	1
4902643	49	C	10/23/2025	21:54	-132.400	43.581	0	3030.00	0	1.6080	0	34.6510	4	27.738	0	2984.343	0	92.9	4	27.7	4	-1E+10	1	-1E+10	1	-1E+10	1	-1E+10	1	-1E+10	1	-1E+10	1
4902643	49	C	10/23/2025	21:54	-132.400	43.581	0	3049.90	0	1.6040	0	34.6510	4	27.739	0	3003.805	0	93.4	4	27.9	4	-1E+10	1	-1E+10	1	-1E+10	1	-1E+10	1	-1E+10	1	-1E+10	1
4902643	49	C	10/23/2025	21:54	-132.400	43.581	0	3069.50	0	1.6020	0	34.6520	4	27.740	0	3022.972	0	93.9	4	28.0	4	-1E+10	1	-1E+10	1	-1E+10	1	-1E+10	1	-1E+10	1	-1E+10	1
4902643	49	C	10/23/2025	21:54	-132.400	43.581	0	3089.70	0	1.6000	0	34.6520	4	27.740	0	3042.725	0	94.4	4	28.2	4	-1E+10	1	-1E+10	1	-1E+10	1	-1E+10	1	-1E+10	1	-1E+10	1
4902643	49	C	10/23/2025	21:54	-132.400	43.581	0	3109.80	0	1.5960	0	34.6530	4	27.741	0	3062.377	0	95.0	4	28.4	4	-1E+10	1	-1E+10	1	-1E+10	1	-1E+10	1	-1E+10	1	-1E+10	1
4902643	49	C	10/23/2025	21:54	-132.400	43.581	0	3129.70	0	1.5940	0	34.6540	4	27.742	0	3081.833	0	95.5	4	28.5	4	-1E+10	1	-1E+10	1	-1E+10	1	-1E+10	1	-1E+10	1	-1E+10	1
4902643	49	C	10/23/2025	21:54	-132.400	43.581	0	3149.20	0	1.5910	0	34.6540	4	27.743	0	3100.895	0	96.0	4	28.7	4	-1E+10	1	-1E+10	1	-1E+10	1	-1E+10	1	-1E+10	1	-1E+10	1
4902643	49	C	10/23/2025	21:54	-132.400	43.581	0	3169.80	0	1.5890	0	34.6550	4	27.744	0	3121.032	0	96.6	4	28.8	4	-1E+10	1	-1E+10	1	-1E+10	1	-1E+10	1	-1E+10	1	-1E+10	1
4902643	49	C	10/23/2025	21:54	-132.400	43.581	0	3189.70	0	1.5860	0	34.6560	4	27.745	0	3140.482	0	97.1	4	29.0	4	-1E+10	1	-1E+10	1	-1E+10	1	-1E+10	1	-1E+10	1	-1E+10	1
4902643	49	C	10/23/2025	21:54	-132.400	43.581	0	3209.80	0	1.5830	0	34.6560	4	27.745	0	3160.126	0	97.7	4	29.2	4	-1E+10	1	-1E+10	1	-1E+10	1	-1E+10	1	-1E+10	1	-1E+10	1
4902643	49	C	10/23/2025	21:54	-132.400	43.581	0	3229.70	0	1.5800	0	34.6570	4	27.746	0	3179.573	0	98.2	4	29.3	4	-1E+10	1	-1E+10	1	-1E+10	1	-1E+10	1	-1E+10	1	-1E+10	1
4902643	49	C	10/23/2025	21:54	-132.400	43.581	0	3249.60	0	1.5760	0	34.6570	4	27.747	0	3199.018	0	98.8	4	29.5	4	-1E+10	1	-1E+10	1	-1E+10	1	-1E+10	1	-1E+10	1	-1E+10	1
4902643	49	C	10/23/2025	21:54	-132.400	43.581	0	3269.50	0	1.5750	0	34.6580	4	27.748	0	3218.461	0	99.3	4	29.6	4	-1E+10	1	-1E+10	1	-1E+10	1	-1E+10	1	-1E+10	1	-1E+10	1
4902643	49	C	10/23/2025	21:54	-132.400	43.581	0	3289.50	0	1.5720	0	34.6580	4	27.748	0	3238.000	0	99.9	4	29.8	4	-1E+10	1	-1E+10	1	-1E+10	1	-1E+10	1	-1E+10	1	-1E+10	1
4902643	49	C	10/23/2025	21:54	-132.400	43.581	0	3309.80	0	1.5690	0	34.6590	4	27.749	0	3257.831	0	100.3	4	29.9	4	-1E+10	1	-1E+10	1	-1E+10	1	-1E+10	1	-1E+10	1	-1E+10	1
4902643	49	C	10/23/2025	21:54	-132.400	43.581	0	3330.60	0	1.5690	0	34.6600	4	27.750	0	3278.148	0	100.7	4	30.0	4	-1E+10	1	-1E+10	1	-1E+10	1	-1E+10	1	-1E+10	1	-1E+10	1
4902643	49	C	10/23/2025	21:54	-132.400	43.581	0	3349.80	0	1.5670	0	34.6600	4	27.751	0	3296.900	0	101.2	4	30.2	4	-1E+10	1	-1E+10	1	-1E+10	1	-1E+10	1	-1E+10	1	-1E+10	1
4902643	49	C	10/23/2025	21:54	-132.400	43.581	0	3369.70	0	1.5650	0	34.6610	4	27.752	0	3316.335	0	101.6	4	30.3	4	-1E+10	1	-1E+10	1	-1E+10	1	-1E+10	1	-1E+10	1	-1E+10	1
4902643	49	C	10/23/2025	21:54	-132.400	43.581	0	3390.00	0	1.5650	0	34.6610	4	27.752	0	3336.158	0	101.9	4	30.4	4	-1E+10	1	-1E+10	1	-1E+10	1	-1E+10	1	-1E+10	1	-1E+10	1
4902643	49	C	10/23/2025	21:54	-132.400	43.581	0	3409.20	0	1.5640	0	34.6610	4	27.752	0	3354.906	0	102.2	4	30.5	4	-1E+10	1	-1E+10	1	-1E+10	1	-1E+10	1	-1E+10	1	-1E+10	1
4902643	49	C	10/23/2025	21:54	-132.400	43.581	0	3429.60	0	1.5630	0	34.6620	4	27.753	0	3374.823	0	102.6	4	30.6	4	-1E+10	1	-1E+10	1	-1E+10	1	-1E+10	1	-1E+10	1	-1E+10	1
4902643	49	C	10/23/2025	21:54	-132.400	43.581	0	3449.50	0	1.5630	0	34.6620	4	27.753	0	3394.251	0	102.9	4	30.7	4	-1E+10	1	-1E+10	1	-1E+10	1	-1E+10	1	-1E+10	1	-1E+10	1
4902643	49	C	10/23/2025	21:54	-132.400	43.581	0	3469.90	0	1.5630	0	34.6630	4	27.754	0	3414.165	0	103.1	4	30.8	4	-1E+10	1	-1E+10	1	-1E+10	1	-1E+10	1	-1E+10	1	-1E+10	1
4902643	49	C	10/23/2025	21:54	-132.400	43.581	0	3489.30	0	1.5620	0	34.6630	4	27.754	0	3433.101	0	103.4	4	30.9	4	-1E+10	1	-1E+10	1	-1E+10	1	-1E+10	1	-1E+10	1	-1E+10	1
4902643	49	C	10/23/2025	21:54	-132.400	43.581	0	3509.30	0	1.5620	0	34.6640	4	27.755	0	3452.621	0	103.7	4	30.9	4	-1E+10	1	-1E+10	1	-1E+10	1	-1E+10	1	-1E+10	1	-1E+10	1
4902643	49	C	10/23/2025	21:54	-132.400	43.581	0	3530.20	0	1.5620	0	34.6640	4	27.755	0	3473.017	0	103.9	4	31.0	4	-1E+10	1	-1E+10	1	-1E+10	1	-1E+10	1	-1E+10	1	-1E+10	1
4902643	49	C	10/23/2025	21:54	-132.400	43.581	0	3549.70	0	1.5630	0	34.6640	4	27.756	0	3492.046	0	104.0	4	31.0	4	-1E+10	1	-1E+10	1	-1E+10	1	-1E+10	1	-1E+10	1	-1E+10	1
4902643	49	C	10/23/2025	21:54	-132.400	43.581	0	3569.70	0	1.5630	0	34.6650	4	27.756	0	3511.561	0	104.2	4	31.1	4	-1E+10	1	-1E+10	1	-1E+10	1	-1E+10	1	-1E+10	1	-1E+10	1
4902643	49	C	10/23/2025	21:54	-132.400	43.581	0	3589.80	0	1.5630	0	34.6650	4	27.757	0	3531.172	0	104.4	4	31.2	4	-1E+10	1	-1E+10	1	-1E+10	1	-1E+10	1	-1E+10	1	-1E+10	1
4902643	49	C	10/23/2025	21:54	-132.400	43.581	0	3609.90	0	1.5600	0	34.6660	4	27.758	0	3550.780	0	104.6	4	31.2	4	-1E+10	1	-1E+10	1	-1E+10	1	-1E+10	1	-1E+10	1	-1E+10	1
4902643	49	C	10/23/2025	21:54	-132.400	43.581	0	3629.20	0	1.5570	0	34.6670	4	27.759	0	3569.607	0	104.8	4	31.3	4	-1E+10	1	-1E+10	1	-1E+10	1	-1E+10	1	-1E+10	1	-1E+10	1
4902643	49	C	10/23/2025	21:54	-132.400	43.581	0	3639.50	0	1.5560	0	34.6680	4	27.760	0	3579.654	0	104.9	4	31.3	4	-1E+10	1	-1E+10	1	-1E+10	1	-1E+10	1	-1E+10	1	-1E+10	1
4902643	49	C	10/23/2025	21:54	-132.400	43.581	0	3640.90	0	1.5560	0	34.6680	4	27.760	0	3581.019	0	104.8	4	31.3	4	-1E+10	1	-1E+10	1	-1E+10	1	-1E+10	1	-1E+10	1	-1E+10	1
4902643	49	C	10/23/2025	21:54	-132.400	43.581	0	3641.80	0	1.5560	0	34.6680	4	27.760	0	3581.897	0	104.9	4	31.3	4	-1E+10	1	-1E+10	1	-1E+10	1	-1E+10	1	-1E+10	1	-1E+10	1
4902643	49	C	10/23/2025	21:54	-132.400	43.581	0	3642.70	0	1.5560	0	34.6680	4	27.760	0	3582.775	0	104.8	4	31.3	4	-1E+10	1	-1E+10	1	-1E+10	1	-1E+10	1	-1E+10	1	-1E+10	1
4902643	49	C	10/23/2025	21:54	-132.400	43.581	0	3643.60	0	1.5560	0	34.6680	4	27.760	0	3583.653	0	104.9	4	31.3	4	-1E+10	1	-1E+10	1	-1E+10	1	-1E+10	1	-1E+10	1	-1E+10	1
4902643	49	C	10/23/2025	21:54	-132.400	43.581	0	3644.60	0	1.5560	0	34.6680	4	27.760	0	3584.629	0	104.8	4	31.3	4	-1E+10	1	-1E+10	1	-1E+10	1	-1E+10	1	-1E+10	1	-1E+10	1
4902643	49	C	10/23/2025	21:54	-132.400	43.581	0	3645.60	0	1.5560	0	34.6680	4	27.760	0	3585.604	0	104.9	4	31.3	4	-1E+10	1	-1E+10	1	-1E+10	1	-1E+10	1	-1E+10	1	-1E+10	1
4902643	49	C	10/23/2025	21:54	-132.400	43.581	0	3646.50	0	1.5560	0	34.6680	4	27.760	0	3586.482	0	104.9	4	31.3	4	-1E+10	1	-1E+10	1	-1E+10	1	-1E+10	1	-1E+10	1	-1E+10	1
4902643	49	C	10/23/2025	21:54	-132.400	43.581	0	3647.40	0	1.5560	0	34.6680	4	27.760	0	3587.359	0	104.9	4	31.3	4	-1E+10	1	-1E+10	1	-1E+10	1	-1E+10	1	-1E+10	1	-1E+10	1
4902643	49	C	10/23/2025	21:54	-132.400	43.581	0	3648.30	0	1.5560	0	34.6680	4	27.760	0	3588.237	0	104.8	4	31.3	4	-1E+10	1	-1E+10	1	-1E+10	1	-1E+10	1	-1E+10	1	-1E+10	1
4902643	49	C	10/23/2025	21:54	-132.400	43.581	0	3649.70	0	1.5560	0	34.6680	4	27.760	0	3589.603	0	104.9	4	31.3	4	-1E+10	1	-1E+10	1	-1E+10	1	-1E+10	1	-1E+10	1	-1E+10	1
4902643	49	C	10/23/2025	21:54	-132.400	43.581	0	3650.50	0	1.5560	0	34.6680	4	27.760	0	3590.383	0	104.9	4	31.3	4	-1E+10	1	-1E+10	1	-1E+10	1	-1E+10	1	-1E+10	1	-1E+10	1
4902643	49	C	10/23/2025	21:54	-132.400	43.581	0	3651.30	0	1.5560	0	34.6680	4	27.760	0	3591.163	0	104.9	4	31.3	4	-1E+10	1	-1E+10	1	-1E+10	1	-1E+10	1	-1E+10	1	-1E+10	1
4902643	49	C	10/23/2025	21:54	-132.400	43.581	0	3652.40	0	1.5560	0	34.6680	4	27.760	0	3592.236	0	104.9	4	31.3	4	-1E+10	1	-1E+10	1	-1E+10	1	-1E+10	1	-1E+10	1	-1E+10	1
4902643	49	C	10/23/2025	21:54	-132.400	43.581	0	3653.70	0	1.5560	0	34.6680	4	27.760	0	3593.504	0	104.9	4	31.3	4	-1E+10	1	-1E+10	1	-1E+10	1	-1E+10	1	-1E+10	1	-1E+10	1
4902643	49	C	10/23/2025	21:54	-132.400	43.581	0	3654.50	0	1.5570	0	34.6680	4	27.760	0	3594.284	0	104.9	4	31.3	4	-1E+10	1	-1E+10	1	-1E+10	1	-1E+10	1	-1E+10	1	-1E+10	1
4902643	49	C	10/23/2025	21:54	-132.400	43.581	0	3655.30	0	1.5560	0	34.6680	4	27.760	0	3595.065	0	104.9	4	31.3	4	-1E+10	1	-1E+10	1	-1E+10	1	-1E+10	1	-1E+10	1	-1E+10	1
4902643	49	C	10/23/2025	21:54	-132.400	43.581	0	3656.50	0	1.5560	0	34.6680	4	27.760	0	3596.235	0	104.9	4	31.3	4	-1E+10	1	-1E+10	1	-1E+10	1	-1E+10	1	-1E+10	1	-1E+10	1
4902643	49	C	10/23/2025	21:54	-132.400	43.581	0	3657.70	0	1.5570	0	34.6680	4	27.760	0	3597.405	0	104.9	4	31.3	4	-1E+10	1	-1E+10	1	-1E+10	1	-1E+10	1	-1E+10	1	-1E+10	1
4902643	49	C	10/23/2025	21:54	-132.400	43.581	0	3658.50	0	1.5570	0	34.6680	4	27.760	0	3598.186	0	104.9	4	31.3	4	-1E+10	1	-1E+10	1	-1E+10	1	-1E+10	1	-1E+10	1	-1E+10	1
4902643	49	C	10/23/2025	21:54	-132.400	43.581	0	3659.30	0	1.5570	0	34.6680	4	27.760	0	3598.966	0	104.9	4	31.3	4	-1E+10	1	-1E+10	1	-1E+10	1	-1E+10	1	-1E+10	1	-1E+10	1
4902643	49	C	10/23/2025	21:54	-132.400	43.581	0	3660.50	0	1.5570	0	34.6680	4	27.760	0	3600.136	0	104.9	4	31.3	4	-1E+10	1	-1E+10	1	-1E+10	1	-1E+10	1	-1E+10	1	-1E+10	1
4902643	49	C	10/23/2025	21:54	-132.400	43.581	0	3661.70	0	1.5570	0	34.6680	4	27.760	0	3601.307	0	104.9	4	31.3	4	-1E+10	1	-1E+10	1	-1E+10	1	-1E+10	1	-1E+10	1	-1E+10	1
4902643	49	C	10/23/2025	21:54	-132.400	43.581	0	3662.60	0	1.5570	0	34.6680	4	27.760	0	3602.184	0	104.9	4	31.3	4	-1E+10	1	-1E+10	1	-1E+10	1	-1E+10	1	-1E+10	1	-1E+10	1
4902643	49	C	10/23/2025	21:54	-132.400	43.581	0	3663.30	0	1.5570	0	34.6680	4	27.760	0	3602.867	0	104.9	4	31.3	4	-1E+10	1	-1E+10	1	-1E+10	1	-1E+10	1	-1E+10	1	-1E+10	1
4902643	49	C	10/23/2025	21:54	-132.400	43.581	0	3664.60	0	1.5570	0	34.6680	4	27.760	0	3604.135	0	104.9	4	31.3	4	-1E+10	1	-1E+10	1	-1E+10	1	-1E+10	1	-1E+10	1	-1E+10	1
4902643	49	C	10/23/2025	21:54	-132.400	43.581	0	3665.80	0	1.5570	0	34.6680	4	27.760	0	3605.305	0	104.9	4	31.3	4	-1E+10	1	-1E+10	1	-1E+10	1	-1E+10	1	-1E+10	1	-1E+10	1
4902643	49	C	10/23/2025	21:54	-132.400	43.581	0	3666.60	0	1.5580	0	34.6680	4	27.760	0	3606.086	0	104.9	4	31.3	4	-1E+10	1	-1E+10	1	-1E+10	1	-1E+10	1	-1E+10	1	-1E+10	1
4902643	49	C	10/23/2025	21:54	-132.400	43.581	0	3667.40	0	1.5570	0	34.6680	4	27.760	0	3606.866	0	104.9	4	31.3	4	-1E+10	1	-1E+10	1	-1E+10	1	-1E+10	1	-1E+10	1	-1E+10	1
4902643	49	C	10/23/2025	21:54	-132.400	43.581	0	3668.30	0	1.5570	0	34.6680	4	27.760	0	3607.744	0	104.9	4	31.3	4	-1E+10	1	-1E+10	1	-1E+10	1	-1E+10	1	-1E+10	1	-1E+10	1
4902643	49	C	10/23/2025	21:54	-132.400	43.581	0	3669.50	0	1.5580	0	34.6680	4	27.760	0	3608.914	0	104.9	4	31.3	4	-1E+10	1	-1E+10	1	-1E+10	1	-1E+10	1	-1E+10	1	-1E+10	1
4902643	49	C	10/23/2025	21:54	-132.400	43.581	0	3670.70	0	1.5580	0	34.6680	4	27.760	0	3610.084	0	104.9	4	31.3	4	-1E+10	1	-1E+10	1	-1E+10	1	-1E+10	1	-1E+10	1	-1E+10	1
4902643	49	C	10/23/2025	21:54	-132.400	43.581	0	3671.50	0	1.5580	0	34.6680	4	27.760	0	3610.864	0	104.9	4	31.3	4	-1E+10	1	-1E+10	1	-1E+10	1	-1E+10	1	-1E+10	1	-1E+10	1
4902643	49	C	10/23/2025	21:54	-132.400	43.581	0	3672.50	0	1.5580	0	34.6680	4	27.760	0	3611.840	0	104.9	4	31.3	4	-1E+10	1	-1E+10	1	-1E+10	1	-1E+10	1	-1E+10	1	-1E+10	1
4902643	49	C	10/23/2025	21:54	-132.400	43.581	0	3673.30	0	1.5580	0	34.6680	4	27.760	0	3612.620	0	104.8	4	31.3	4	-1E+10	1	-1E+10	1	-1E+10	1	-1E+10	1	-1E+10	1	-1E+10	1
4902643	49	C	10/23/2025	21:54	-132.400	43.581	0	3674.60	0	1.5580	0	34.6680	4	27.760	0	3613.888	0	104.9	4	31.3	4	-1E+10	1	-1E+10	1	-1E+10	1	-1E+10	1	-1E+10	1	-1E+10	1
4902643	49	C	10/23/2025	21:54	-132.400	43.581	0	3675.80	0	1.5580	0	34.6680	4	27.760	0	3615.058	0	104.8	4	31.3	4	-1E+10	1	-1E+10	1	-1E+10	1	-1E+10	1	-1E+10	1	-1E+10	1
4902643	49	C	10/23/2025	21:54	-132.400	43.581	0	3676.60	0	1.5580	0	34.6680	4	27.760	0	3615.838	0	104.8	4	31.3	4	-1E+10	1	-1E+10	1	-1E+10	1	-1E+10	1	-1E+10	1	-1E+10	1
4902643	49	C	10/23/2025	21:54	-132.400	43.581	0	3677.50	0	1.5580	0	34.6680	4	27.760	0	3616.716	0	104.8	4	31.3	4	-1E+10	1	-1E+10	1	-1E+10	1	-1E+10	1	-1E+10	1	-1E+10	1
4902643	49	C	10/23/2025	21:54	-132.400	43.581	0	3678.10	0	1.5590	0	34.6680	4	27.760	0	3617.301	0	104.8	4	31.3	4	-1E+10	1	-1E+10	1	-1E+10	1	-1E+10	1	-1E+10	1	-1E+10	1
4902643	49	C	10/23/2025	21:54	-132.400	43.581	0	3679.70	0	1.5580	0	34.6680	4	27.760	0	3618.861	0	104.8	4	31.3	4	-1E+10	1	-1E+10	1	-1E+10	1	-1E+10	1	-1E+10	1	-1E+10	1
4902643	49	C	10/23/2025	21:54	-132.400	43.581	0	3680.80	0	1.5590	0	34.6680	4	27.760	0	3619.934	0	104.8	4	31.3	4	-1E+10	1	-1E+10	1	-1E+10	1	-1E+10	1	-1E+10	1	-1E+10	1
4902643	49	C	10/23/2025	21:54	-132.400	43.581	0	3681.70	0	1.5590	0	34.6680	4	27.760	0	3620.812	0	104.8	4	31.3	4	-1E+10	1	-1E+10	1	-1E+10	1	-1E+10	1	-1E+10	1	-1E+10	1
4902643	49	C	10/23/2025	21:54	-132.400	43.581	0	3682.60	0	1.5590	0	34.6680	4	27.760	0	3621.690	0	104.8	4	31.3	4	-1E+10	1	-1E+10	1	-1E+10	1	-1E+10	1	-1E+10	1	-1E+10	1
4902643	49	C	10/23/2025	21:54	-132.400	43.581	0	3683.50	0	1.5590	0	34.6680	4	27.760	0	3622.567	0	104.8	4	31.3	4	-1E+10	1	-1E+10	1	-1E+10	1	-1E+10	1	-1E+10	1	-1E+10	1
4902643	49	C	10/23/2025	21:54	-132.400	43.581	0	3684.30	0	1.5590	0	34.6680	4	27.760	0	3623.347	0	104.8	4	31.3	4	-1E+10	1	-1E+10	1	-1E+10	1	-1E+10	1	-1E+10	1	-1E+10	1
4902643	49	C	10/23/2025	21:54	-132.400	43.581	0	3685.60	0	1.5600	0	34.6680	4	27.760	0	3624.615	0	104.8	4	31.3	4	-1E+10	1	-1E+10	1	-1E+10	1	-1E+10	1	-1E+10	1	-1E+10	1
4902643	49	C	10/23/2025	21:54	-132.400	43.581	0	3686.40	0	1.5600	0	34.6680	4	27.760	0	3625.395	0	104.9	4	31.3	4	-1E+10	1	-1E+10	1	-1E+10	1	-1E+10	1	-1E+10	1	-1E+10	1
4902643	49	C	10/23/2025	21:54	-132.400	43.581	0																										
